<?xml version='1.0' encoding='UTF-8'?><gpx version="1.1" creator="JPX - https://github.com/jenetics/jpx" xmlns="http://www.topografix.com/GPX/1/1"><trk><trkseg><trkpt lat="43.3003315" lon="11.353997"><ele>200.00000000000003</ele><time>2026-05-02T07:13:00.176Z</time></trkpt><trkpt lat="43.3003729" lon="11.3540717"><ele>200.0</ele><time>2026-05-02T07:13:04.167Z</time></trkpt><trkpt lat="43.3003485" lon="11.3541565"><ele>200.0</ele><time>2026-05-02T07:13:15.171Z</time></trkpt><trkpt lat="43.3002642" lon="11.3542004"><ele>200.0</ele><time>2026-05-02T07:18:38.182Z</time></trkpt><trkpt lat="43.3002501" lon="11.3542855"><ele>200.00000000000003</ele><time>2026-05-02T07:18:39.196Z</time></trkpt><trkpt lat="43.3003036" lon="11.3544254"><ele>200.0</ele><time>2026-05-02T07:18:41.195Z</time></trkpt><trkpt lat="43.3003643" lon="11.3544606"><ele>200.0</ele><time>2026-05-02T07:18:42.208Z</time></trkpt><trkpt lat="43.3004354" lon="11.3544906"><ele>200.0</ele><time>2026-05-02T07:18:43.199Z</time></trkpt><trkpt lat="43.300508" lon="11.3545427"><ele>200.0</ele><time>2026-05-02T07:18:44.209Z</time></trkpt><trkpt lat="43.3005771" lon="11.3546255"><ele>200.0</ele><time>2026-05-02T07:18:45.181Z</time></trkpt><trkpt lat="43.3006359" lon="11.3547452"><ele>200.0</ele><time>2026-05-02T07:18:46.197Z</time></trkpt><trkpt lat="43.3006643" lon="11.3548738"><ele>201.75</ele><time>2026-05-02T07:18:47.188Z</time></trkpt><trkpt lat="43.3006752" lon="11.3550086"><ele>203.5</ele><time>2026-05-02T07:18:48.183Z</time></trkpt><trkpt lat="43.3006923" lon="11.3551714"><ele>205.25</ele><time>2026-05-02T07:18:49.175Z</time></trkpt><trkpt lat="43.3007088" lon="11.3553486"><ele>207.0</ele><time>2026-05-02T07:18:50.179Z</time></trkpt><trkpt lat="43.3007219" lon="11.3555439"><ele>207.0</ele><time>2026-05-02T07:18:51.212Z</time></trkpt><trkpt lat="43.300738" lon="11.3557615"><ele>207.0</ele><time>2026-05-02T07:18:52.187Z</time></trkpt><trkpt lat="43.3007491" lon="11.3559862"><ele>207.0</ele><time>2026-05-02T07:18:53.204Z</time></trkpt><trkpt lat="43.3007507" lon="11.3562243"><ele>206.0</ele><time>2026-05-02T07:18:54.194Z</time></trkpt><trkpt lat="43.3007487" lon="11.3564652"><ele>205.0</ele><time>2026-05-02T07:18:55.204Z</time></trkpt><trkpt lat="43.300739" lon="11.3566837"><ele>204.0</ele><time>2026-05-02T07:18:56.2Z</time></trkpt><trkpt lat="43.3007191" lon="11.3568966"><ele>204.0</ele><time>2026-05-02T07:18:57.198Z</time></trkpt><trkpt lat="43.3006917" lon="11.3571115"><ele>204.0</ele><time>2026-05-02T07:18:58.196Z</time></trkpt><trkpt lat="43.3006663" lon="11.3573235"><ele>204.0</ele><time>2026-05-02T07:18:59.201Z</time></trkpt><trkpt lat="43.30064" lon="11.357536"><ele>202.66666666666669</ele><time>2026-05-02T07:19:00.202Z</time></trkpt><trkpt lat="43.3006061" lon="11.3577443"><ele>201.33333333333334</ele><time>2026-05-02T07:19:01.202Z</time></trkpt><trkpt lat="43.3005638" lon="11.3579579"><ele>200.0</ele><time>2026-05-02T07:19:02.203Z</time></trkpt><trkpt lat="43.3005109" lon="11.3581747"><ele>198.66666666666669</ele><time>2026-05-02T07:19:03.207Z</time></trkpt><trkpt lat="43.3004589" lon="11.3583902"><ele>197.33333333333331</ele><time>2026-05-02T07:19:04.208Z</time></trkpt><trkpt lat="43.3003991" lon="11.3586036"><ele>196.0</ele><time>2026-05-02T07:19:05.201Z</time></trkpt><trkpt lat="43.3003355" lon="11.3588041"><ele>197.0</ele><time>2026-05-02T07:19:06.208Z</time></trkpt><trkpt lat="43.3002683" lon="11.3590041"><ele>198.0</ele><time>2026-05-02T07:19:07.203Z</time></trkpt><trkpt lat="43.3002054" lon="11.3592076"><ele>199.0</ele><time>2026-05-02T07:19:08.21Z</time></trkpt><trkpt lat="43.3001383" lon="11.3594138"><ele>199.0</ele><time>2026-05-02T07:19:09.191Z</time></trkpt><trkpt lat="43.3000808" lon="11.3596158"><ele>199.0</ele><time>2026-05-02T07:19:10.197Z</time></trkpt><trkpt lat="43.3000171" lon="11.3598336"><ele>199.0</ele><time>2026-05-02T07:19:11.193Z</time></trkpt><trkpt lat="43.2999582" lon="11.3600416"><ele>200.0</ele><time>2026-05-02T07:19:12.206Z</time></trkpt><trkpt lat="43.2998995" lon="11.3602456"><ele>201.0</ele><time>2026-05-02T07:19:13.201Z</time></trkpt><trkpt lat="43.299834" lon="11.3604522"><ele>202.0</ele><time>2026-05-02T07:19:14.205Z</time></trkpt><trkpt lat="43.2997694" lon="11.3606504"><ele>201.0</ele><time>2026-05-02T07:19:15.199Z</time></trkpt><trkpt lat="43.2997068" lon="11.3608551"><ele>200.0</ele><time>2026-05-02T07:19:16.204Z</time></trkpt><trkpt lat="43.299644" lon="11.3610635"><ele>199.0</ele><time>2026-05-02T07:19:17.203Z</time></trkpt><trkpt lat="43.299579" lon="11.3612676"><ele>199.33333333333331</ele><time>2026-05-02T07:19:18.195Z</time></trkpt><trkpt lat="43.2995168" lon="11.3614755"><ele>199.66666666666669</ele><time>2026-05-02T07:19:19.188Z</time></trkpt><trkpt lat="43.2994509" lon="11.3616827"><ele>200.0</ele><time>2026-05-02T07:19:20.203Z</time></trkpt><trkpt lat="43.2993932" lon="11.3618909"><ele>200.0</ele><time>2026-05-02T07:19:21.196Z</time></trkpt><trkpt lat="43.2993344" lon="11.3621037"><ele>200.0</ele><time>2026-05-02T07:19:22.192Z</time></trkpt><trkpt lat="43.2992793" lon="11.3623139"><ele>200.0</ele><time>2026-05-02T07:19:23.199Z</time></trkpt><trkpt lat="43.2992252" lon="11.3625303"><ele>200.33333333333334</ele><time>2026-05-02T07:19:24.198Z</time></trkpt><trkpt lat="43.299178" lon="11.362742"><ele>200.66666666666669</ele><time>2026-05-02T07:19:25.203Z</time></trkpt><trkpt lat="43.2991316" lon="11.3629586"><ele>201.0</ele><time>2026-05-02T07:19:26.205Z</time></trkpt><trkpt lat="43.2990914" lon="11.3631759"><ele>203.0</ele><time>2026-05-02T07:19:27.204Z</time></trkpt><trkpt lat="43.299051" lon="11.3633991"><ele>205.0</ele><time>2026-05-02T07:19:28.204Z</time></trkpt><trkpt lat="43.2990079" lon="11.3636235"><ele>207.0</ele><time>2026-05-02T07:19:29.199Z</time></trkpt><trkpt lat="43.2989697" lon="11.3638446"><ele>207.33333333333331</ele><time>2026-05-02T07:19:30.194Z</time></trkpt><trkpt lat="43.2989333" lon="11.3640634"><ele>207.66666666666666</ele><time>2026-05-02T07:19:31.199Z</time></trkpt><trkpt lat="43.2989047" lon="11.3642845"><ele>208.0</ele><time>2026-05-02T07:19:32.187Z</time></trkpt><trkpt lat="43.2988813" lon="11.3645032"><ele>208.66666666666666</ele><time>2026-05-02T07:19:33.194Z</time></trkpt><trkpt lat="43.2988575" lon="11.364732"><ele>209.33333333333331</ele><time>2026-05-02T07:19:34.192Z</time></trkpt><trkpt lat="43.2988399" lon="11.3649634"><ele>210.0</ele><time>2026-05-02T07:19:35.193Z</time></trkpt><trkpt lat="43.2988136" lon="11.3651963"><ele>210.0</ele><time>2026-05-02T07:19:36.192Z</time></trkpt><trkpt lat="43.298797" lon="11.3654315"><ele>210.0</ele><time>2026-05-02T07:19:37.195Z</time></trkpt><trkpt lat="43.298785" lon="11.3656563"><ele>210.0</ele><time>2026-05-02T07:19:38.192Z</time></trkpt><trkpt lat="43.2987829" lon="11.3658872"><ele>212.0</ele><time>2026-05-02T07:19:39.196Z</time></trkpt><trkpt lat="43.2987816" lon="11.3661169"><ele>214.0</ele><time>2026-05-02T07:19:40.198Z</time></trkpt><trkpt lat="43.2987781" lon="11.36635"><ele>216.0</ele><time>2026-05-02T07:19:41.19Z</time></trkpt><trkpt lat="43.2987724" lon="11.3665823"><ele>218.66666666666669</ele><time>2026-05-02T07:19:42.19Z</time></trkpt><trkpt lat="43.2987742" lon="11.3668205"><ele>221.33333333333334</ele><time>2026-05-02T07:19:43.188Z</time></trkpt><trkpt lat="43.2987743" lon="11.3670627"><ele>224.0</ele><time>2026-05-02T07:19:44.173Z</time></trkpt><trkpt lat="43.298775" lon="11.3672996"><ele>230.0</ele><time>2026-05-02T07:19:45.167Z</time></trkpt><trkpt lat="43.298772" lon="11.3692482"><ele>230.0</ele><time>2026-05-02T07:19:52.176Z</time></trkpt><trkpt lat="43.2987757" lon="11.369546"><ele>230.0</ele><time>2026-05-02T07:19:53.178Z</time></trkpt><trkpt lat="43.2987692" lon="11.3697911"><ele>230.0</ele><time>2026-05-02T07:19:54.174Z</time></trkpt><trkpt lat="43.2987627" lon="11.3700517"><ele>227.33333333333334</ele><time>2026-05-02T07:19:55.188Z</time></trkpt><trkpt lat="43.2987537" lon="11.3703202"><ele>224.66666666666669</ele><time>2026-05-02T07:19:56.18Z</time></trkpt><trkpt lat="43.2987484" lon="11.3706084"><ele>222.0</ele><time>2026-05-02T07:19:57.193Z</time></trkpt><trkpt lat="43.2987401" lon="11.3708984"><ele>219.0</ele><time>2026-05-02T07:19:58.192Z</time></trkpt><trkpt lat="43.2987298" lon="11.3711883"><ele>216.0</ele><time>2026-05-02T07:19:59.189Z</time></trkpt><trkpt lat="43.2987229" lon="11.3714826"><ele>213.0</ele><time>2026-05-02T07:20:00.199Z</time></trkpt><trkpt lat="43.2987249" lon="11.3717746"><ele>212.33333333333331</ele><time>2026-05-02T07:20:01.197Z</time></trkpt><trkpt lat="43.2987435" lon="11.3720622"><ele>211.66666666666666</ele><time>2026-05-02T07:20:02.195Z</time></trkpt><trkpt lat="43.2987762" lon="11.372347"><ele>211.0</ele><time>2026-05-02T07:20:03.179Z</time></trkpt><trkpt lat="43.2988226" lon="11.3726237"><ele>210.33333333333331</ele><time>2026-05-02T07:20:04.175Z</time></trkpt><trkpt lat="43.2988788" lon="11.3728959"><ele>209.66666666666669</ele><time>2026-05-02T07:20:05.193Z</time></trkpt><trkpt lat="43.2989444" lon="11.3731682"><ele>209.0</ele><time>2026-05-02T07:20:06.175Z</time></trkpt><trkpt lat="43.2990175" lon="11.3734363"><ele>207.33333333333334</ele><time>2026-05-02T07:20:07.198Z</time></trkpt><trkpt lat="43.2990962" lon="11.3736937"><ele>205.66666666666669</ele><time>2026-05-02T07:20:08.199Z</time></trkpt><trkpt lat="43.2991889" lon="11.3739497"><ele>204.0</ele><time>2026-05-02T07:20:09.203Z</time></trkpt><trkpt lat="43.2992814" lon="11.3741845"><ele>202.0</ele><time>2026-05-02T07:20:10.198Z</time></trkpt><trkpt lat="43.2993771" lon="11.3744141"><ele>200.0</ele><time>2026-05-02T07:20:11.172Z</time></trkpt><trkpt lat="43.2994789" lon="11.3746367"><ele>198.0</ele><time>2026-05-02T07:20:12.178Z</time></trkpt><trkpt lat="43.2995914" lon="11.3748509"><ele>197.33333333333331</ele><time>2026-05-02T07:20:13.204Z</time></trkpt><trkpt lat="43.299701" lon="11.375061"><ele>196.66666666666666</ele><time>2026-05-02T07:20:14.199Z</time></trkpt><trkpt lat="43.2998192" lon="11.3752578"><ele>196.0</ele><time>2026-05-02T07:20:15.191Z</time></trkpt><trkpt lat="43.2999316" lon="11.3754492"><ele>196.66666666666666</ele><time>2026-05-02T07:20:16.2Z</time></trkpt><trkpt lat="43.3000544" lon="11.3756331"><ele>197.33333333333331</ele><time>2026-05-02T07:20:17.188Z</time></trkpt><trkpt lat="43.3001758" lon="11.375811"><ele>198.0</ele><time>2026-05-02T07:20:18.197Z</time></trkpt><trkpt lat="43.3002924" lon="11.3759849"><ele>198.0</ele><time>2026-05-02T07:20:19.19Z</time></trkpt><trkpt lat="43.3004136" lon="11.3761559"><ele>198.0</ele><time>2026-05-02T07:20:20.2Z</time></trkpt><trkpt lat="43.3005315" lon="11.3763356"><ele>198.0</ele><time>2026-05-02T07:20:21.195Z</time></trkpt><trkpt lat="43.3006528" lon="11.3765028"><ele>198.0</ele><time>2026-05-02T07:20:22.202Z</time></trkpt><trkpt lat="43.3007639" lon="11.3766661"><ele>198.0</ele><time>2026-05-02T07:20:23.195Z</time></trkpt><trkpt lat="43.300866" lon="11.376829"><ele>198.0</ele><time>2026-05-02T07:20:24.204Z</time></trkpt><trkpt lat="43.3009682" lon="11.3769793"><ele>198.0</ele><time>2026-05-02T07:20:25.201Z</time></trkpt><trkpt lat="43.3010506" lon="11.37713"><ele>198.0</ele><time>2026-05-02T07:20:26.201Z</time></trkpt><trkpt lat="43.3011268" lon="11.3772911"><ele>198.0</ele><time>2026-05-02T07:20:27.199Z</time></trkpt><trkpt lat="43.3011963" lon="11.3774585"><ele>198.0</ele><time>2026-05-02T07:20:28.201Z</time></trkpt><trkpt lat="43.3012614" lon="11.3776457"><ele>197.5</ele><time>2026-05-02T07:20:29.195Z</time></trkpt><trkpt lat="43.3013135" lon="11.377842"><ele>197.0</ele><time>2026-05-02T07:20:30.205Z</time></trkpt><trkpt lat="43.3013662" lon="11.3780325"><ele>196.5</ele><time>2026-05-02T07:20:31.196Z</time></trkpt><trkpt lat="43.3014044" lon="11.3782145"><ele>196.0</ele><time>2026-05-02T07:20:32.208Z</time></trkpt><trkpt lat="43.3014219" lon="11.3783723"><ele>196.0</ele><time>2026-05-02T07:20:33.191Z</time></trkpt><trkpt lat="43.3014255" lon="11.3785115"><ele>196.0</ele><time>2026-05-02T07:20:34.2Z</time></trkpt><trkpt lat="43.3014204" lon="11.3786527"><ele>196.0</ele><time>2026-05-02T07:20:35.198Z</time></trkpt><trkpt lat="43.3014306" lon="11.3788034"><ele>196.0</ele><time>2026-05-02T07:20:36.205Z</time></trkpt><trkpt lat="43.3014385" lon="11.3789972"><ele>195.66666666666666</ele><time>2026-05-02T07:20:37.186Z</time></trkpt><trkpt lat="43.3014471" lon="11.3792032"><ele>195.33333333333331</ele><time>2026-05-02T07:20:38.169Z</time></trkpt><trkpt lat="43.3014549" lon="11.3794105"><ele>195.0</ele><time>2026-05-02T07:20:39.162Z</time></trkpt><trkpt lat="43.3014652" lon="11.3796295"><ele>196.0</ele><time>2026-05-02T07:20:40.164Z</time></trkpt><trkpt lat="43.3014696" lon="11.379855"><ele>197.0</ele><time>2026-05-02T07:20:41.161Z</time></trkpt><trkpt lat="43.3014783" lon="11.3800779"><ele>198.0</ele><time>2026-05-02T07:20:42.163Z</time></trkpt><trkpt lat="43.3014897" lon="11.3802859"><ele>198.0</ele><time>2026-05-02T07:20:43.17Z</time></trkpt><trkpt lat="43.3014943" lon="11.3804976"><ele>198.0</ele><time>2026-05-02T07:20:44.161Z</time></trkpt><trkpt lat="43.3014989" lon="11.3807216"><ele>198.0</ele><time>2026-05-02T07:20:45.18Z</time></trkpt><trkpt lat="43.3015006" lon="11.3809533"><ele>198.33333333333331</ele><time>2026-05-02T07:20:46.19Z</time></trkpt><trkpt lat="43.3015055" lon="11.3811886"><ele>198.66666666666666</ele><time>2026-05-02T07:20:47.179Z</time></trkpt><trkpt lat="43.3015085" lon="11.3814134"><ele>199.0</ele><time>2026-05-02T07:20:48.176Z</time></trkpt><trkpt lat="43.3015118" lon="11.3816325"><ele>199.0</ele><time>2026-05-02T07:20:49.189Z</time></trkpt><trkpt lat="43.301501" lon="11.3818715"><ele>199.0</ele><time>2026-05-02T07:20:50.201Z</time></trkpt><trkpt lat="43.3014836" lon="11.38211"><ele>199.0</ele><time>2026-05-02T07:20:51.19Z</time></trkpt><trkpt lat="43.3014501" lon="11.3823516"><ele>197.33333333333331</ele><time>2026-05-02T07:20:52.189Z</time></trkpt><trkpt lat="43.3014039" lon="11.3826033"><ele>195.66666666666669</ele><time>2026-05-02T07:20:53.194Z</time></trkpt><trkpt lat="43.3013362" lon="11.3828626"><ele>194.0</ele><time>2026-05-02T07:20:54.172Z</time></trkpt><trkpt lat="43.3012552" lon="11.3831296"><ele>192.66666666666669</ele><time>2026-05-02T07:20:55.193Z</time></trkpt><trkpt lat="43.3011522" lon="11.3834054"><ele>191.33333333333334</ele><time>2026-05-02T07:20:56.172Z</time></trkpt><trkpt lat="43.3010306" lon="11.3836606"><ele>190.0</ele><time>2026-05-02T07:20:57.202Z</time></trkpt><trkpt lat="43.3009036" lon="11.3838976"><ele>189.0</ele><time>2026-05-02T07:20:58.196Z</time></trkpt><trkpt lat="43.3007566" lon="11.3841299"><ele>188.0</ele><time>2026-05-02T07:20:59.2Z</time></trkpt><trkpt lat="43.3006025" lon="11.3843674"><ele>188.0</ele><time>2026-05-02T07:21:00.201Z</time></trkpt><trkpt lat="43.3004446" lon="11.3846062"><ele>188.0</ele><time>2026-05-02T07:21:01.202Z</time></trkpt><trkpt lat="43.3002801" lon="11.3848466"><ele>187.5</ele><time>2026-05-02T07:21:02.189Z</time></trkpt><trkpt lat="43.3001188" lon="11.3850813"><ele>187.0</ele><time>2026-05-02T07:21:03.202Z</time></trkpt><trkpt lat="43.2999553" lon="11.3853224"><ele>185.5</ele><time>2026-05-02T07:21:04.196Z</time></trkpt><trkpt lat="43.2997893" lon="11.385561"><ele>184.0</ele><time>2026-05-02T07:21:05.195Z</time></trkpt><trkpt lat="43.2996248" lon="11.3858014"><ele>183.5</ele><time>2026-05-02T07:21:06.204Z</time></trkpt><trkpt lat="43.2994534" lon="11.3860416"><ele>183.0</ele><time>2026-05-02T07:21:07.191Z</time></trkpt><trkpt lat="43.2992854" lon="11.386281"><ele>183.5</ele><time>2026-05-02T07:21:08.202Z</time></trkpt><trkpt lat="43.2991127" lon="11.3865335"><ele>184.0</ele><time>2026-05-02T07:21:09.183Z</time></trkpt><trkpt lat="43.2989379" lon="11.3867864"><ele>184.0</ele><time>2026-05-02T07:21:10.197Z</time></trkpt><trkpt lat="43.2987692" lon="11.3870429"><ele>184.0</ele><time>2026-05-02T07:21:11.176Z</time></trkpt><trkpt lat="43.2986036" lon="11.387305"><ele>186.0</ele><time>2026-05-02T07:21:12.185Z</time></trkpt><trkpt lat="43.298432" lon="11.3875611"><ele>188.0</ele><time>2026-05-02T07:21:13.196Z</time></trkpt><trkpt lat="43.2982689" lon="11.3878127"><ele>192.0</ele><time>2026-05-02T07:21:14.19Z</time></trkpt><trkpt lat="43.2981019" lon="11.3880649"><ele>196.0</ele><time>2026-05-02T07:21:15.191Z</time></trkpt><trkpt lat="43.2979366" lon="11.3883087"><ele>196.0</ele><time>2026-05-02T07:21:16.191Z</time></trkpt><trkpt lat="43.2977752" lon="11.3885514"><ele>196.0</ele><time>2026-05-02T07:21:17.199Z</time></trkpt><trkpt lat="43.2976114" lon="11.3887953"><ele>198.5</ele><time>2026-05-02T07:21:18.194Z</time></trkpt><trkpt lat="43.2974485" lon="11.3890386"><ele>201.0</ele><time>2026-05-02T07:21:19.188Z</time></trkpt><trkpt lat="43.2972869" lon="11.3892827"><ele>202.5</ele><time>2026-05-02T07:21:20.199Z</time></trkpt><trkpt lat="43.2971267" lon="11.3895239"><ele>204.0</ele><time>2026-05-02T07:21:21.185Z</time></trkpt><trkpt lat="43.2969614" lon="11.3897697"><ele>204.5</ele><time>2026-05-02T07:21:22.198Z</time></trkpt><trkpt lat="43.2967974" lon="11.3900204"><ele>205.0</ele><time>2026-05-02T07:21:23.178Z</time></trkpt><trkpt lat="43.2966364" lon="11.3902683"><ele>204.5</ele><time>2026-05-02T07:21:24.197Z</time></trkpt><trkpt lat="43.2964786" lon="11.3905228"><ele>204.0</ele><time>2026-05-02T07:21:25.185Z</time></trkpt><trkpt lat="43.2963291" lon="11.3907868"><ele>202.0</ele><time>2026-05-02T07:21:26.164Z</time></trkpt><trkpt lat="43.2961939" lon="11.3910637"><ele>200.0</ele><time>2026-05-02T07:21:27.161Z</time></trkpt><trkpt lat="43.2960763" lon="11.3913615"><ele>197.5</ele><time>2026-05-02T07:21:28.185Z</time></trkpt><trkpt lat="43.2959751" lon="11.3916781"><ele>195.0</ele><time>2026-05-02T07:21:29.189Z</time></trkpt><trkpt lat="43.2958911" lon="11.3919946"><ele>195.0</ele><time>2026-05-02T07:21:30.202Z</time></trkpt><trkpt lat="43.2958264" lon="11.3923118"><ele>195.0</ele><time>2026-05-02T07:21:31.198Z</time></trkpt><trkpt lat="43.2957702" lon="11.392636"><ele>195.0</ele><time>2026-05-02T07:21:32.201Z</time></trkpt><trkpt lat="43.2957327" lon="11.3929585"><ele>195.0</ele><time>2026-05-02T07:21:33.196Z</time></trkpt><trkpt lat="43.2957061" lon="11.3932847"><ele>195.0</ele><time>2026-05-02T07:21:34.203Z</time></trkpt><trkpt lat="43.2956899" lon="11.3936162"><ele>195.0</ele><time>2026-05-02T07:21:35.196Z</time></trkpt><trkpt lat="43.2956803" lon="11.3939481"><ele>195.0</ele><time>2026-05-02T07:21:36.201Z</time></trkpt><trkpt lat="43.2956776" lon="11.394277"><ele>195.0</ele><time>2026-05-02T07:21:37.197Z</time></trkpt><trkpt lat="43.2956697" lon="11.3946079"><ele>195.0</ele><time>2026-05-02T07:21:38.202Z</time></trkpt><trkpt lat="43.2956594" lon="11.3949404"><ele>195.0</ele><time>2026-05-02T07:21:39.201Z</time></trkpt><trkpt lat="43.2956425" lon="11.3952792"><ele>196.5</ele><time>2026-05-02T07:21:40.193Z</time></trkpt><trkpt lat="43.2956376" lon="11.3956188"><ele>198.0</ele><time>2026-05-02T07:21:41.185Z</time></trkpt><trkpt lat="43.2956418" lon="11.3959539"><ele>198.0</ele><time>2026-05-02T07:21:42.192Z</time></trkpt><trkpt lat="43.295656" lon="11.3962923"><ele>198.0</ele><time>2026-05-02T07:21:43.194Z</time></trkpt><trkpt lat="43.2956881" lon="11.3966289"><ele>197.5</ele><time>2026-05-02T07:21:44.189Z</time></trkpt><trkpt lat="43.2957357" lon="11.3969581"><ele>197.0</ele><time>2026-05-02T07:21:45.194Z</time></trkpt><trkpt lat="43.2957993" lon="11.3972891"><ele>197.0</ele><time>2026-05-02T07:21:46.191Z</time></trkpt><trkpt lat="43.295884" lon="11.397606"><ele>197.0</ele><time>2026-05-02T07:21:47.192Z</time></trkpt><trkpt lat="43.2959875" lon="11.3979308"><ele>195.0</ele><time>2026-05-02T07:21:48.209Z</time></trkpt><trkpt lat="43.296099" lon="11.3982359"><ele>193.0</ele><time>2026-05-02T07:21:49.194Z</time></trkpt><trkpt lat="43.2962271" lon="11.3985194"><ele>193.0</ele><time>2026-05-02T07:21:50.191Z</time></trkpt><trkpt lat="43.2963759" lon="11.3987981"><ele>193.0</ele><time>2026-05-02T07:21:51.191Z</time></trkpt><trkpt lat="43.2965328" lon="11.3990676"><ele>195.5</ele><time>2026-05-02T07:21:52.203Z</time></trkpt><trkpt lat="43.2966998" lon="11.3993363"><ele>198.0</ele><time>2026-05-02T07:21:53.197Z</time></trkpt><trkpt lat="43.2968676" lon="11.3996032"><ele>197.5</ele><time>2026-05-02T07:21:54.204Z</time></trkpt><trkpt lat="43.2970429" lon="11.3998781"><ele>197.0</ele><time>2026-05-02T07:21:55.202Z</time></trkpt><trkpt lat="43.2972249" lon="11.4001496"><ele>196.0</ele><time>2026-05-02T07:21:56.206Z</time></trkpt><trkpt lat="43.2974077" lon="11.4004204"><ele>195.0</ele><time>2026-05-02T07:21:57.187Z</time></trkpt><trkpt lat="43.2975847" lon="11.4006947"><ele>192.5</ele><time>2026-05-02T07:21:58.193Z</time></trkpt><trkpt lat="43.2977617" lon="11.400969"><ele>190.0</ele><time>2026-05-02T07:21:59.204Z</time></trkpt><trkpt lat="43.2979345" lon="11.4012368"><ele>190.5</ele><time>2026-05-02T07:22:00.199Z</time></trkpt><trkpt lat="43.2981063" lon="11.4015054"><ele>191.0</ele><time>2026-05-02T07:22:01.2Z</time></trkpt><trkpt lat="43.2982824" lon="11.401771"><ele>191.0</ele><time>2026-05-02T07:22:02.2Z</time></trkpt><trkpt lat="43.2984496" lon="11.4020422"><ele>191.0</ele><time>2026-05-02T07:22:03.195Z</time></trkpt><trkpt lat="43.298618" lon="11.4023169"><ele>187.5</ele><time>2026-05-02T07:22:04.206Z</time></trkpt><trkpt lat="43.2987857" lon="11.4025892"><ele>184.0</ele><time>2026-05-02T07:22:05.198Z</time></trkpt><trkpt lat="43.2989533" lon="11.4028631"><ele>183.5</ele><time>2026-05-02T07:22:06.201Z</time></trkpt><trkpt lat="43.2991194" lon="11.4031356"><ele>183.0</ele><time>2026-05-02T07:22:07.198Z</time></trkpt><trkpt lat="43.2992821" lon="11.40341"><ele>183.0</ele><time>2026-05-02T07:22:08.201Z</time></trkpt><trkpt lat="43.2994509" lon="11.4036806"><ele>183.0</ele><time>2026-05-02T07:22:09.189Z</time></trkpt><trkpt lat="43.2996195" lon="11.4039545"><ele>183.5</ele><time>2026-05-02T07:22:10.195Z</time></trkpt><trkpt lat="43.2997911" lon="11.4042289"><ele>184.0</ele><time>2026-05-02T07:22:11.201Z</time></trkpt><trkpt lat="43.299958" lon="11.4044976"><ele>182.5</ele><time>2026-05-02T07:22:12.202Z</time></trkpt><trkpt lat="43.3001258" lon="11.4047667"><ele>181.0</ele><time>2026-05-02T07:22:13.196Z</time></trkpt><trkpt lat="43.3002982" lon="11.4050375"><ele>181.0</ele><time>2026-05-02T07:22:14.193Z</time></trkpt><trkpt lat="43.3004703" lon="11.405311"><ele>181.0</ele><time>2026-05-02T07:22:15.194Z</time></trkpt><trkpt lat="43.3006454" lon="11.4055768"><ele>183.0</ele><time>2026-05-02T07:22:16.206Z</time></trkpt><trkpt lat="43.3008217" lon="11.4058498"><ele>185.0</ele><time>2026-05-02T07:22:17.189Z</time></trkpt><trkpt lat="43.3009907" lon="11.4061255"><ele>183.5</ele><time>2026-05-02T07:22:18.196Z</time></trkpt><trkpt lat="43.3011486" lon="11.4064142"><ele>182.0</ele><time>2026-05-02T07:22:19.192Z</time></trkpt><trkpt lat="43.3013009" lon="11.4067093"><ele>182.5</ele><time>2026-05-02T07:22:20.199Z</time></trkpt><trkpt lat="43.3014401" lon="11.4070077"><ele>183.0</ele><time>2026-05-02T07:22:21.193Z</time></trkpt><trkpt lat="43.3015728" lon="11.407312"><ele>183.0</ele><time>2026-05-02T07:22:22.196Z</time></trkpt><trkpt lat="43.3016967" lon="11.4076286"><ele>183.0</ele><time>2026-05-02T07:22:23.208Z</time></trkpt><trkpt lat="43.3018108" lon="11.407955"><ele>182.5</ele><time>2026-05-02T07:22:24.202Z</time></trkpt><trkpt lat="43.301913" lon="11.4082769"><ele>182.0</ele><time>2026-05-02T07:22:25.189Z</time></trkpt><trkpt lat="43.3020055" lon="11.4086075"><ele>182.0</ele><time>2026-05-02T07:22:26.193Z</time></trkpt><trkpt lat="43.3020996" lon="11.4089422"><ele>182.0</ele><time>2026-05-02T07:22:27.195Z</time></trkpt><trkpt lat="43.3021983" lon="11.4092759"><ele>182.5</ele><time>2026-05-02T07:22:28.173Z</time></trkpt><trkpt lat="43.3022884" lon="11.40961"><ele>183.0</ele><time>2026-05-02T07:22:29.196Z</time></trkpt><trkpt lat="43.3023802" lon="11.409944"><ele>183.0</ele><time>2026-05-02T07:22:30.181Z</time></trkpt><trkpt lat="43.3024709" lon="11.4102805"><ele>183.0</ele><time>2026-05-02T07:22:31.185Z</time></trkpt><trkpt lat="43.302563" lon="11.4106146"><ele>183.0</ele><time>2026-05-02T07:22:32.188Z</time></trkpt><trkpt lat="43.3026535" lon="11.4109509"><ele>183.0</ele><time>2026-05-02T07:22:33.189Z</time></trkpt><trkpt lat="43.3027459" lon="11.4112847"><ele>182.5</ele><time>2026-05-02T07:22:34.199Z</time></trkpt><trkpt lat="43.3028343" lon="11.4116195"><ele>182.0</ele><time>2026-05-02T07:22:35.188Z</time></trkpt><trkpt lat="43.3029216" lon="11.4119535"><ele>181.5</ele><time>2026-05-02T07:22:36.198Z</time></trkpt><trkpt lat="43.3030139" lon="11.4122871"><ele>181.0</ele><time>2026-05-02T07:22:37.198Z</time></trkpt><trkpt lat="43.3031112" lon="11.4126209"><ele>182.5</ele><time>2026-05-02T07:22:38.202Z</time></trkpt><trkpt lat="43.303204" lon="11.4129557"><ele>184.0</ele><time>2026-05-02T07:22:39.19Z</time></trkpt><trkpt lat="43.3032984" lon="11.413288"><ele>184.5</ele><time>2026-05-02T07:22:40.198Z</time></trkpt><trkpt lat="43.3033923" lon="11.4136262"><ele>185.0</ele><time>2026-05-02T07:22:41.196Z</time></trkpt><trkpt lat="43.3034849" lon="11.4139649"><ele>185.0</ele><time>2026-05-02T07:22:42.191Z</time></trkpt><trkpt lat="43.3035731" lon="11.414303"><ele>185.0</ele><time>2026-05-02T07:22:43.191Z</time></trkpt><trkpt lat="43.3036602" lon="11.4146401"><ele>185.0</ele><time>2026-05-02T07:22:44.196Z</time></trkpt><trkpt lat="43.3037555" lon="11.4149833"><ele>185.0</ele><time>2026-05-02T07:22:45.196Z</time></trkpt><trkpt lat="43.3038519" lon="11.4153242"><ele>185.0</ele><time>2026-05-02T07:22:46.197Z</time></trkpt><trkpt lat="43.303943" lon="11.4156533"><ele>185.0</ele><time>2026-05-02T07:22:47.193Z</time></trkpt><trkpt lat="43.3040364" lon="11.4159828"><ele>185.0</ele><time>2026-05-02T07:22:48.199Z</time></trkpt><trkpt lat="43.3041286" lon="11.4163126"><ele>185.0</ele><time>2026-05-02T07:22:49.183Z</time></trkpt><trkpt lat="43.3042276" lon="11.4166511"><ele>185.0</ele><time>2026-05-02T07:22:50.196Z</time></trkpt><trkpt lat="43.3043246" lon="11.4169812"><ele>185.0</ele><time>2026-05-02T07:22:51.197Z</time></trkpt><trkpt lat="43.3044167" lon="11.4173123"><ele>185.0</ele><time>2026-05-02T07:22:52.204Z</time></trkpt><trkpt lat="43.3045065" lon="11.4176493"><ele>185.0</ele><time>2026-05-02T07:22:53.194Z</time></trkpt><trkpt lat="43.3045867" lon="11.4179873"><ele>185.5</ele><time>2026-05-02T07:22:54.202Z</time></trkpt><trkpt lat="43.3046588" lon="11.4183287"><ele>186.0</ele><time>2026-05-02T07:22:55.193Z</time></trkpt><trkpt lat="43.3047229" lon="11.4186739"><ele>186.0</ele><time>2026-05-02T07:22:56.196Z</time></trkpt><trkpt lat="43.3047736" lon="11.4190333"><ele>186.0</ele><time>2026-05-02T07:22:57.203Z</time></trkpt><trkpt lat="43.304816" lon="11.4193914"><ele>187.0</ele><time>2026-05-02T07:22:58.199Z</time></trkpt><trkpt lat="43.3048541" lon="11.4197504"><ele>188.0</ele><time>2026-05-02T07:22:59.204Z</time></trkpt><trkpt lat="43.3048832" lon="11.4201115"><ele>188.0</ele><time>2026-05-02T07:23:00.17Z</time></trkpt><trkpt lat="43.3049168" lon="11.4204692"><ele>188.0</ele><time>2026-05-02T07:23:01.199Z</time></trkpt><trkpt lat="43.3049447" lon="11.4208334"><ele>187.5</ele><time>2026-05-02T07:23:02.199Z</time></trkpt><trkpt lat="43.3049763" lon="11.4211984"><ele>187.0</ele><time>2026-05-02T07:23:03.196Z</time></trkpt><trkpt lat="43.305003" lon="11.4215618"><ele>187.0</ele><time>2026-05-02T07:23:04.2Z</time></trkpt><trkpt lat="43.3050309" lon="11.4219305"><ele>187.0</ele><time>2026-05-02T07:23:05.203Z</time></trkpt><trkpt lat="43.305058" lon="11.4223018"><ele>188.0</ele><time>2026-05-02T07:23:06.205Z</time></trkpt><trkpt lat="43.3050871" lon="11.4226721"><ele>189.0</ele><time>2026-05-02T07:23:07.189Z</time></trkpt><trkpt lat="43.3051154" lon="11.4230317"><ele>189.5</ele><time>2026-05-02T07:23:08.211Z</time></trkpt><trkpt lat="43.3051446" lon="11.4233869"><ele>190.0</ele><time>2026-05-02T07:23:09.195Z</time></trkpt><trkpt lat="43.3051722" lon="11.4237486"><ele>190.5</ele><time>2026-05-02T07:23:10.194Z</time></trkpt><trkpt lat="43.3051978" lon="11.4241058"><ele>191.0</ele><time>2026-05-02T07:23:11.199Z</time></trkpt><trkpt lat="43.3052225" lon="11.4244619"><ele>191.0</ele><time>2026-05-02T07:23:12.204Z</time></trkpt><trkpt lat="43.3052456" lon="11.4248198"><ele>191.0</ele><time>2026-05-02T07:23:13.201Z</time></trkpt><trkpt lat="43.3052684" lon="11.4251805"><ele>193.0</ele><time>2026-05-02T07:23:14.212Z</time></trkpt><trkpt lat="43.3052975" lon="11.4255395"><ele>195.0</ele><time>2026-05-02T07:23:15.197Z</time></trkpt><trkpt lat="43.3053259" lon="11.4258982"><ele>195.0</ele><time>2026-05-02T07:23:16.204Z</time></trkpt><trkpt lat="43.3053566" lon="11.4262576"><ele>195.0</ele><time>2026-05-02T07:23:17.19Z</time></trkpt><trkpt lat="43.3053834" lon="11.4266177"><ele>197.5</ele><time>2026-05-02T07:23:18.181Z</time></trkpt><trkpt lat="43.305416" lon="11.4269798"><ele>200.0</ele><time>2026-05-02T07:23:19.184Z</time></trkpt><trkpt lat="43.3054422" lon="11.4273381"><ele>200.5</ele><time>2026-05-02T07:23:20.193Z</time></trkpt><trkpt lat="43.305473" lon="11.4276977"><ele>201.0</ele><time>2026-05-02T07:23:21.198Z</time></trkpt><trkpt lat="43.3054935" lon="11.4280631"><ele>200.0</ele><time>2026-05-02T07:23:22.205Z</time></trkpt><trkpt lat="43.3055213" lon="11.4284267"><ele>199.0</ele><time>2026-05-02T07:23:23.204Z</time></trkpt><trkpt lat="43.30555" lon="11.4287842"><ele>198.0</ele><time>2026-05-02T07:23:24.192Z</time></trkpt><trkpt lat="43.3055774" lon="11.429142"><ele>197.0</ele><time>2026-05-02T07:23:25.195Z</time></trkpt><trkpt lat="43.3056058" lon="11.4295011"><ele>200.0</ele><time>2026-05-02T07:23:26.195Z</time></trkpt><trkpt lat="43.3056308" lon="11.4298627"><ele>203.0</ele><time>2026-05-02T07:23:27.196Z</time></trkpt><trkpt lat="43.3056561" lon="11.4302219"><ele>204.0</ele><time>2026-05-02T07:23:28.201Z</time></trkpt><trkpt lat="43.3056839" lon="11.4305822"><ele>205.0</ele><time>2026-05-02T07:23:29.191Z</time></trkpt><trkpt lat="43.3057108" lon="11.4309396"><ele>205.0</ele><time>2026-05-02T07:23:30.19Z</time></trkpt><trkpt lat="43.3057385" lon="11.4313035"><ele>205.0</ele><time>2026-05-02T07:23:31.201Z</time></trkpt><trkpt lat="43.3057598" lon="11.4316622"><ele>205.5</ele><time>2026-05-02T07:23:32.192Z</time></trkpt><trkpt lat="43.3057853" lon="11.4320307"><ele>206.0</ele><time>2026-05-02T07:23:33.204Z</time></trkpt><trkpt lat="43.3058141" lon="11.4323967"><ele>203.5</ele><time>2026-05-02T07:23:34.198Z</time></trkpt><trkpt lat="43.3058418" lon="11.4327589"><ele>201.0</ele><time>2026-05-02T07:23:35.185Z</time></trkpt><trkpt lat="43.3058636" lon="11.4331172"><ele>199.5</ele><time>2026-05-02T07:23:36.198Z</time></trkpt><trkpt lat="43.3058916" lon="11.4334841"><ele>198.0</ele><time>2026-05-02T07:23:37.161Z</time></trkpt><trkpt lat="43.3059182" lon="11.4338507"><ele>197.0</ele><time>2026-05-02T07:23:38.196Z</time></trkpt><trkpt lat="43.3059457" lon="11.434225"><ele>196.0</ele><time>2026-05-02T07:23:39.173Z</time></trkpt><trkpt lat="43.3059772" lon="11.4345924"><ele>195.0</ele><time>2026-05-02T07:23:40.193Z</time></trkpt><trkpt lat="43.3060122" lon="11.4349684"><ele>194.0</ele><time>2026-05-02T07:23:41.193Z</time></trkpt><trkpt lat="43.3060431" lon="11.4353433"><ele>193.0</ele><time>2026-05-02T07:23:42.199Z</time></trkpt><trkpt lat="43.3060724" lon="11.4357224"><ele>192.0</ele><time>2026-05-02T07:23:43.196Z</time></trkpt><trkpt lat="43.3061001" lon="11.4360925"><ele>192.0</ele><time>2026-05-02T07:23:44.171Z</time></trkpt><trkpt lat="43.306128" lon="11.4364637"><ele>192.0</ele><time>2026-05-02T07:23:45.192Z</time></trkpt><trkpt lat="43.3061569" lon="11.4368307"><ele>191.5</ele><time>2026-05-02T07:23:46.193Z</time></trkpt><trkpt lat="43.3061895" lon="11.437206"><ele>191.0</ele><time>2026-05-02T07:23:47.186Z</time></trkpt><trkpt lat="43.306215" lon="11.4375844"><ele>191.0</ele><time>2026-05-02T07:23:48.196Z</time></trkpt><trkpt lat="43.30625" lon="11.4379584"><ele>191.0</ele><time>2026-05-02T07:23:49.192Z</time></trkpt><trkpt lat="43.3062813" lon="11.4383346"><ele>190.5</ele><time>2026-05-02T07:23:50.204Z</time></trkpt><trkpt lat="43.3063112" lon="11.4387162"><ele>190.0</ele><time>2026-05-02T07:23:51.197Z</time></trkpt><trkpt lat="43.306343" lon="11.4390995"><ele>190.0</ele><time>2026-05-02T07:23:52.207Z</time></trkpt><trkpt lat="43.3063743" lon="11.4394862"><ele>190.0</ele><time>2026-05-02T07:23:53.194Z</time></trkpt><trkpt lat="43.3064044" lon="11.4398681"><ele>191.0</ele><time>2026-05-02T07:23:54.194Z</time></trkpt><trkpt lat="43.3064342" lon="11.4402518"><ele>192.0</ele><time>2026-05-02T07:23:55.189Z</time></trkpt><trkpt lat="43.306464" lon="11.4406305"><ele>192.5</ele><time>2026-05-02T07:23:56.192Z</time></trkpt><trkpt lat="43.3064944" lon="11.4410159"><ele>193.0</ele><time>2026-05-02T07:23:57.174Z</time></trkpt><trkpt lat="43.3065244" lon="11.4413935"><ele>195.0</ele><time>2026-05-02T07:23:58.201Z</time></trkpt><trkpt lat="43.3065517" lon="11.4417707"><ele>197.0</ele><time>2026-05-02T07:23:59.191Z</time></trkpt><trkpt lat="43.3065845" lon="11.4421483"><ele>197.5</ele><time>2026-05-02T07:24:00.212Z</time></trkpt><trkpt lat="43.3066146" lon="11.4425197"><ele>198.0</ele><time>2026-05-02T07:24:01.196Z</time></trkpt><trkpt lat="43.3066367" lon="11.4428923"><ele>196.5</ele><time>2026-05-02T07:24:02.187Z</time></trkpt><trkpt lat="43.3066616" lon="11.4432682"><ele>195.0</ele><time>2026-05-02T07:24:03.19Z</time></trkpt><trkpt lat="43.3066886" lon="11.443638"><ele>195.5</ele><time>2026-05-02T07:24:04.202Z</time></trkpt><trkpt lat="43.3067132" lon="11.4440111"><ele>196.0</ele><time>2026-05-02T07:24:05.194Z</time></trkpt><trkpt lat="43.3067403" lon="11.4443799"><ele>195.5</ele><time>2026-05-02T07:24:06.194Z</time></trkpt><trkpt lat="43.3067675" lon="11.4447492"><ele>195.0</ele><time>2026-05-02T07:24:07.196Z</time></trkpt><trkpt lat="43.3067926" lon="11.4451218"><ele>195.0</ele><time>2026-05-02T07:24:08.192Z</time></trkpt><trkpt lat="43.306821" lon="11.4454973"><ele>195.0</ele><time>2026-05-02T07:24:09.195Z</time></trkpt><trkpt lat="43.3068499" lon="11.4458659"><ele>195.0</ele><time>2026-05-02T07:24:10.201Z</time></trkpt><trkpt lat="43.3068787" lon="11.4462295"><ele>195.0</ele><time>2026-05-02T07:24:11.191Z</time></trkpt><trkpt lat="43.3069077" lon="11.4465982"><ele>195.0</ele><time>2026-05-02T07:24:12.203Z</time></trkpt><trkpt lat="43.3069357" lon="11.4469701"><ele>195.0</ele><time>2026-05-02T07:24:13.194Z</time></trkpt><trkpt lat="43.3069698" lon="11.4473403"><ele>194.5</ele><time>2026-05-02T07:24:14.196Z</time></trkpt><trkpt lat="43.3070016" lon="11.4477134"><ele>194.0</ele><time>2026-05-02T07:24:15.201Z</time></trkpt><trkpt lat="43.3070271" lon="11.4480844"><ele>194.0</ele><time>2026-05-02T07:24:16.189Z</time></trkpt><trkpt lat="43.3070515" lon="11.4484523"><ele>194.0</ele><time>2026-05-02T07:24:17.202Z</time></trkpt><trkpt lat="43.3070764" lon="11.4488187"><ele>194.5</ele><time>2026-05-02T07:24:18.205Z</time></trkpt><trkpt lat="43.3071005" lon="11.4491852"><ele>195.0</ele><time>2026-05-02T07:24:19.197Z</time></trkpt><trkpt lat="43.3071335" lon="11.4495493"><ele>194.5</ele><time>2026-05-02T07:24:20.206Z</time></trkpt><trkpt lat="43.3071679" lon="11.4499102"><ele>194.0</ele><time>2026-05-02T07:24:21.194Z</time></trkpt><trkpt lat="43.3071947" lon="11.4502785"><ele>193.5</ele><time>2026-05-02T07:24:22.204Z</time></trkpt><trkpt lat="43.3072277" lon="11.4506499"><ele>193.0</ele><time>2026-05-02T07:24:23.196Z</time></trkpt><trkpt lat="43.3072586" lon="11.4510218"><ele>195.5</ele><time>2026-05-02T07:24:24.2Z</time></trkpt><trkpt lat="43.3072866" lon="11.4513928"><ele>198.0</ele><time>2026-05-02T07:24:25.195Z</time></trkpt><trkpt lat="43.3073156" lon="11.4517719"><ele>197.5</ele><time>2026-05-02T07:24:26.174Z</time></trkpt><trkpt lat="43.3073428" lon="11.4521562"><ele>197.0</ele><time>2026-05-02T07:24:27.201Z</time></trkpt><trkpt lat="43.3073729" lon="11.4525345"><ele>197.0</ele><time>2026-05-02T07:24:28.197Z</time></trkpt><trkpt lat="43.3074012" lon="11.4529078"><ele>197.0</ele><time>2026-05-02T07:24:29.199Z</time></trkpt><trkpt lat="43.3074253" lon="11.4532768"><ele>197.0</ele><time>2026-05-02T07:24:30.203Z</time></trkpt><trkpt lat="43.3074522" lon="11.4536515"><ele>197.0</ele><time>2026-05-02T07:24:31.195Z</time></trkpt><trkpt lat="43.3074785" lon="11.4540187"><ele>196.5</ele><time>2026-05-02T07:24:32.202Z</time></trkpt><trkpt lat="43.3075022" lon="11.4543887"><ele>196.0</ele><time>2026-05-02T07:24:33.201Z</time></trkpt><trkpt lat="43.3075302" lon="11.45476"><ele>196.0</ele><time>2026-05-02T07:24:34.192Z</time></trkpt><trkpt lat="43.3075611" lon="11.4551301"><ele>196.0</ele><time>2026-05-02T07:24:35.192Z</time></trkpt><trkpt lat="43.3075953" lon="11.4554936"><ele>195.5</ele><time>2026-05-02T07:24:36.196Z</time></trkpt><trkpt lat="43.307628" lon="11.4558575"><ele>195.0</ele><time>2026-05-02T07:24:37.2Z</time></trkpt><trkpt lat="43.3076704" lon="11.4562211"><ele>195.0</ele><time>2026-05-02T07:24:38.202Z</time></trkpt><trkpt lat="43.3077171" lon="11.4565899"><ele>195.0</ele><time>2026-05-02T07:24:39.193Z</time></trkpt><trkpt lat="43.3077715" lon="11.4569538"><ele>195.0</ele><time>2026-05-02T07:24:40.195Z</time></trkpt><trkpt lat="43.3078271" lon="11.4573173"><ele>195.0</ele><time>2026-05-02T07:24:41.176Z</time></trkpt><trkpt lat="43.3078824" lon="11.4576835"><ele>195.0</ele><time>2026-05-02T07:24:42.198Z</time></trkpt><trkpt lat="43.3079405" lon="11.4580466"><ele>195.0</ele><time>2026-05-02T07:24:43.198Z</time></trkpt><trkpt lat="43.3079979" lon="11.4584093"><ele>195.0</ele><time>2026-05-02T07:24:44.201Z</time></trkpt><trkpt lat="43.3080556" lon="11.4587704"><ele>195.0</ele><time>2026-05-02T07:24:45.203Z</time></trkpt><trkpt lat="43.3081197" lon="11.4591381"><ele>195.0</ele><time>2026-05-02T07:24:46.201Z</time></trkpt><trkpt lat="43.3081773" lon="11.4595031"><ele>195.0</ele><time>2026-05-02T07:24:47.193Z</time></trkpt><trkpt lat="43.3082332" lon="11.4598594"><ele>195.0</ele><time>2026-05-02T07:24:48.198Z</time></trkpt><trkpt lat="43.3082863" lon="11.4602174"><ele>195.0</ele><time>2026-05-02T07:24:49.199Z</time></trkpt><trkpt lat="43.308342" lon="11.4605765"><ele>195.5</ele><time>2026-05-02T07:24:50.199Z</time></trkpt><trkpt lat="43.3083952" lon="11.4609385"><ele>196.0</ele><time>2026-05-02T07:24:51.176Z</time></trkpt><trkpt lat="43.3084488" lon="11.4613022"><ele>196.0</ele><time>2026-05-02T07:24:52.2Z</time></trkpt><trkpt lat="43.3084981" lon="11.461659"><ele>196.0</ele><time>2026-05-02T07:24:53.19Z</time></trkpt><trkpt lat="43.3085539" lon="11.4620162"><ele>196.5</ele><time>2026-05-02T07:24:54.203Z</time></trkpt><trkpt lat="43.3086075" lon="11.4623784"><ele>197.0</ele><time>2026-05-02T07:24:55.203Z</time></trkpt><trkpt lat="43.3086679" lon="11.4627447"><ele>197.5</ele><time>2026-05-02T07:24:56.215Z</time></trkpt><trkpt lat="43.3087246" lon="11.4631126"><ele>198.0</ele><time>2026-05-02T07:24:57.184Z</time></trkpt><trkpt lat="43.308783" lon="11.4634742"><ele>197.5</ele><time>2026-05-02T07:24:58.208Z</time></trkpt><trkpt lat="43.3088413" lon="11.4638371"><ele>197.0</ele><time>2026-05-02T07:24:59.195Z</time></trkpt><trkpt lat="43.3088974" lon="11.4642028"><ele>198.0</ele><time>2026-05-02T07:25:00.187Z</time></trkpt><trkpt lat="43.3089518" lon="11.4645686"><ele>199.0</ele><time>2026-05-02T07:25:01.199Z</time></trkpt><trkpt lat="43.3090073" lon="11.4649343"><ele>199.0</ele><time>2026-05-02T07:25:02.193Z</time></trkpt><trkpt lat="43.3090617" lon="11.465293"><ele>199.0</ele><time>2026-05-02T07:25:03.191Z</time></trkpt><trkpt lat="43.3091139" lon="11.4656566"><ele>199.0</ele><time>2026-05-02T07:25:04.2Z</time></trkpt><trkpt lat="43.3091668" lon="11.4660189"><ele>199.0</ele><time>2026-05-02T07:25:05.195Z</time></trkpt><trkpt lat="43.3092235" lon="11.4663782"><ele>199.0</ele><time>2026-05-02T07:25:06.2Z</time></trkpt><trkpt lat="43.3092785" lon="11.4667421"><ele>199.0</ele><time>2026-05-02T07:25:07.175Z</time></trkpt><trkpt lat="43.3093392" lon="11.4670982"><ele>199.0</ele><time>2026-05-02T07:25:08.171Z</time></trkpt><trkpt lat="43.3094006" lon="11.4674541"><ele>199.0</ele><time>2026-05-02T07:25:09.191Z</time></trkpt><trkpt lat="43.3094662" lon="11.4678139"><ele>199.0</ele><time>2026-05-02T07:25:10.204Z</time></trkpt><trkpt lat="43.3095404" lon="11.4681588"><ele>199.0</ele><time>2026-05-02T07:25:11.188Z</time></trkpt><trkpt lat="43.3096266" lon="11.4685028"><ele>199.5</ele><time>2026-05-02T07:25:12.19Z</time></trkpt><trkpt lat="43.3097204" lon="11.4688406"><ele>200.0</ele><time>2026-05-02T07:25:13.196Z</time></trkpt><trkpt lat="43.309825" lon="11.4691736"><ele>201.0</ele><time>2026-05-02T07:25:14.19Z</time></trkpt><trkpt lat="43.30994" lon="11.4695009"><ele>202.0</ele><time>2026-05-02T07:25:15.199Z</time></trkpt><trkpt lat="43.3100678" lon="11.4698214"><ele>202.0</ele><time>2026-05-02T07:25:16.193Z</time></trkpt><trkpt lat="43.3102029" lon="11.4701356"><ele>202.0</ele><time>2026-05-02T07:25:17.191Z</time></trkpt><trkpt lat="43.3103464" lon="11.470442"><ele>202.0</ele><time>2026-05-02T07:25:18.198Z</time></trkpt><trkpt lat="43.3105019" lon="11.4707455"><ele>202.0</ele><time>2026-05-02T07:25:19.189Z</time></trkpt><trkpt lat="43.3106571" lon="11.4710387"><ele>202.5</ele><time>2026-05-02T07:25:20.196Z</time></trkpt><trkpt lat="43.3108121" lon="11.4713252"><ele>203.0</ele><time>2026-05-02T07:25:21.2Z</time></trkpt><trkpt lat="43.3109721" lon="11.4716181"><ele>203.0</ele><time>2026-05-02T07:25:22.208Z</time></trkpt><trkpt lat="43.3111318" lon="11.4719061"><ele>203.0</ele><time>2026-05-02T07:25:23.197Z</time></trkpt><trkpt lat="43.3112921" lon="11.4721973"><ele>204.0</ele><time>2026-05-02T07:25:24.189Z</time></trkpt><trkpt lat="43.3114512" lon="11.4724819"><ele>205.0</ele><time>2026-05-02T07:25:25.201Z</time></trkpt><trkpt lat="43.3116136" lon="11.4727728"><ele>208.5</ele><time>2026-05-02T07:25:26.183Z</time></trkpt><trkpt lat="43.3117798" lon="11.4730569"><ele>212.0</ele><time>2026-05-02T07:25:27.197Z</time></trkpt><trkpt lat="43.3119588" lon="11.4733365"><ele>212.0</ele><time>2026-05-02T07:25:28.194Z</time></trkpt><trkpt lat="43.3121386" lon="11.4736153"><ele>212.0</ele><time>2026-05-02T07:25:29.179Z</time></trkpt><trkpt lat="43.3123284" lon="11.4738743"><ele>212.0</ele><time>2026-05-02T07:25:30.209Z</time></trkpt><trkpt lat="43.3125255" lon="11.4741271"><ele>212.0</ele><time>2026-05-02T07:25:31.19Z</time></trkpt><trkpt lat="43.3127278" lon="11.4743632"><ele>212.0</ele><time>2026-05-02T07:25:32.203Z</time></trkpt><trkpt lat="43.3129354" lon="11.4745884"><ele>212.0</ele><time>2026-05-02T07:25:33.192Z</time></trkpt><trkpt lat="43.3131479" lon="11.4748089"><ele>212.5</ele><time>2026-05-02T07:25:34.202Z</time></trkpt><trkpt lat="43.3133657" lon="11.4750103"><ele>213.0</ele><time>2026-05-02T07:25:35.192Z</time></trkpt><trkpt lat="43.31359" lon="11.475209"><ele>213.0</ele><time>2026-05-02T07:25:36.164Z</time></trkpt><trkpt lat="43.3138144" lon="11.475395"><ele>213.0</ele><time>2026-05-02T07:25:37.193Z</time></trkpt><trkpt lat="43.3140489" lon="11.475575"><ele>218.0</ele><time>2026-05-02T07:25:38.188Z</time></trkpt><trkpt lat="43.3142913" lon="11.475734"><ele>223.0</ele><time>2026-05-02T07:25:39.173Z</time></trkpt><trkpt lat="43.3145348" lon="11.4758867"><ele>225.5</ele><time>2026-05-02T07:25:40.172Z</time></trkpt><trkpt lat="43.3147801" lon="11.4760287"><ele>228.0</ele><time>2026-05-02T07:25:41.196Z</time></trkpt><trkpt lat="43.3150275" lon="11.4761681"><ele>227.0</ele><time>2026-05-02T07:25:42.181Z</time></trkpt><trkpt lat="43.3152761" lon="11.4762986"><ele>226.0</ele><time>2026-05-02T07:25:43.181Z</time></trkpt><trkpt lat="43.3155306" lon="11.4764159"><ele>225.0</ele><time>2026-05-02T07:25:44.195Z</time></trkpt><trkpt lat="43.3157874" lon="11.4765328"><ele>224.0</ele><time>2026-05-02T07:25:45.2Z</time></trkpt><trkpt lat="43.3160436" lon="11.476655"><ele>224.0</ele><time>2026-05-02T07:25:46.188Z</time></trkpt><trkpt lat="43.3163022" lon="11.4767758"><ele>224.0</ele><time>2026-05-02T07:25:47.168Z</time></trkpt><trkpt lat="43.3165583" lon="11.4768988"><ele>223.0</ele><time>2026-05-02T07:25:48.184Z</time></trkpt><trkpt lat="43.3168099" lon="11.4770342"><ele>222.0</ele><time>2026-05-02T07:25:49.178Z</time></trkpt><trkpt lat="43.3170603" lon="11.4771849"><ele>222.5</ele><time>2026-05-02T07:25:50.172Z</time></trkpt><trkpt lat="43.317304" lon="11.4773503"><ele>223.0</ele><time>2026-05-02T07:25:51.18Z</time></trkpt><trkpt lat="43.3175471" lon="11.4775245"><ele>223.0</ele><time>2026-05-02T07:25:52.177Z</time></trkpt><trkpt lat="43.3177814" lon="11.4777176"><ele>223.0</ele><time>2026-05-02T07:25:53.199Z</time></trkpt><trkpt lat="43.3180059" lon="11.4779295"><ele>223.5</ele><time>2026-05-02T07:25:54.195Z</time></trkpt><trkpt lat="43.3182214" lon="11.4781629"><ele>224.0</ele><time>2026-05-02T07:25:55.197Z</time></trkpt><trkpt lat="43.3184308" lon="11.4784161"><ele>224.0</ele><time>2026-05-02T07:25:56.196Z</time></trkpt><trkpt lat="43.3186216" lon="11.4786842"><ele>224.0</ele><time>2026-05-02T07:25:57.193Z</time></trkpt><trkpt lat="43.3187988" lon="11.4789761"><ele>226.5</ele><time>2026-05-02T07:25:58.195Z</time></trkpt><trkpt lat="43.3189651" lon="11.4792736"><ele>229.0</ele><time>2026-05-02T07:25:59.197Z</time></trkpt><trkpt lat="43.3191169" lon="11.4795797"><ele>231.0</ele><time>2026-05-02T07:26:00.168Z</time></trkpt><trkpt lat="43.319263" lon="11.4798967"><ele>233.0</ele><time>2026-05-02T07:26:01.184Z</time></trkpt><trkpt lat="43.319388" lon="11.4802298"><ele>235.5</ele><time>2026-05-02T07:26:02.211Z</time></trkpt><trkpt lat="43.3194958" lon="11.4805766"><ele>238.0</ele><time>2026-05-02T07:26:03.193Z</time></trkpt><trkpt lat="43.3195854" lon="11.4809321"><ele>241.5</ele><time>2026-05-02T07:26:04.191Z</time></trkpt><trkpt lat="43.3196624" lon="11.4812902"><ele>245.0</ele><time>2026-05-02T07:26:05.196Z</time></trkpt><trkpt lat="43.3197312" lon="11.4816555"><ele>235.0</ele><time>2026-05-02T07:26:06.181Z</time></trkpt><trkpt lat="43.3197872" lon="11.4820294"><ele>225.0</ele><time>2026-05-02T07:26:07.198Z</time></trkpt><trkpt lat="43.3198273" lon="11.4823997"><ele>225.0</ele><time>2026-05-02T07:26:08.204Z</time></trkpt><trkpt lat="43.3198573" lon="11.4827763"><ele>225.0</ele><time>2026-05-02T07:26:09.196Z</time></trkpt><trkpt lat="43.3198683" lon="11.4831569"><ele>226.0</ele><time>2026-05-02T07:26:10.199Z</time></trkpt><trkpt lat="43.3198708" lon="11.4835373"><ele>227.0</ele><time>2026-05-02T07:26:11.191Z</time></trkpt><trkpt lat="43.3198691" lon="11.4839155"><ele>228.0</ele><time>2026-05-02T07:26:12.195Z</time></trkpt><trkpt lat="43.3198615" lon="11.4842905"><ele>229.0</ele><time>2026-05-02T07:26:13.182Z</time></trkpt><trkpt lat="43.319852" lon="11.4846639"><ele>229.0</ele><time>2026-05-02T07:26:14.191Z</time></trkpt><trkpt lat="43.3198462" lon="11.485038"><ele>229.0</ele><time>2026-05-02T07:26:15.202Z</time></trkpt><trkpt lat="43.3198362" lon="11.4854078"><ele>229.5</ele><time>2026-05-02T07:26:16.192Z</time></trkpt><trkpt lat="43.3198331" lon="11.4857834"><ele>230.0</ele><time>2026-05-02T07:26:17.202Z</time></trkpt><trkpt lat="43.3198268" lon="11.4861564"><ele>230.0</ele><time>2026-05-02T07:26:18.202Z</time></trkpt><trkpt lat="43.3198243" lon="11.4865236"><ele>230.0</ele><time>2026-05-02T07:26:19.187Z</time></trkpt><trkpt lat="43.3198196" lon="11.4868988"><ele>230.5</ele><time>2026-05-02T07:26:20.191Z</time></trkpt><trkpt lat="43.3198149" lon="11.4872746"><ele>231.0</ele><time>2026-05-02T07:26:21.193Z</time></trkpt><trkpt lat="43.3198143" lon="11.4876367"><ele>231.0</ele><time>2026-05-02T07:26:22.204Z</time></trkpt><trkpt lat="43.3198113" lon="11.4880087"><ele>231.0</ele><time>2026-05-02T07:26:23.196Z</time></trkpt><trkpt lat="43.3198073" lon="11.488377"><ele>231.0</ele><time>2026-05-02T07:26:24.201Z</time></trkpt><trkpt lat="43.3198031" lon="11.4887433"><ele>231.0</ele><time>2026-05-02T07:26:25.189Z</time></trkpt><trkpt lat="43.3198017" lon="11.489111"><ele>232.0</ele><time>2026-05-02T07:26:26.198Z</time></trkpt><trkpt lat="43.3197978" lon="11.4894742"><ele>233.0</ele><time>2026-05-02T07:26:27.189Z</time></trkpt><trkpt lat="43.3197925" lon="11.4898369"><ele>233.5</ele><time>2026-05-02T07:26:28.195Z</time></trkpt><trkpt lat="43.3197859" lon="11.4902007"><ele>234.0</ele><time>2026-05-02T07:26:29.19Z</time></trkpt><trkpt lat="43.3197796" lon="11.4905681"><ele>233.5</ele><time>2026-05-02T07:26:30.185Z</time></trkpt><trkpt lat="43.3197744" lon="11.4909353"><ele>233.0</ele><time>2026-05-02T07:26:31.187Z</time></trkpt><trkpt lat="43.3197662" lon="11.4912975"><ele>233.0</ele><time>2026-05-02T07:26:32.196Z</time></trkpt><trkpt lat="43.3197385" lon="11.4916516"><ele>233.0</ele><time>2026-05-02T07:26:33.193Z</time></trkpt><trkpt lat="43.3197007" lon="11.4920202"><ele>237.0</ele><time>2026-05-02T07:26:34.19Z</time></trkpt><trkpt lat="43.31965" lon="11.4923776"><ele>241.0</ele><time>2026-05-02T07:26:35.189Z</time></trkpt><trkpt lat="43.3195839" lon="11.4927318"><ele>238.5</ele><time>2026-05-02T07:26:36.201Z</time></trkpt><trkpt lat="43.3195025" lon="11.4930782"><ele>236.0</ele><time>2026-05-02T07:26:37.189Z</time></trkpt><trkpt lat="43.3194209" lon="11.4934224"><ele>235.5</ele><time>2026-05-02T07:26:38.186Z</time></trkpt><trkpt lat="43.3193226" lon="11.4937685"><ele>235.0</ele><time>2026-05-02T07:26:39.197Z</time></trkpt><trkpt lat="43.3192296" lon="11.4941091"><ele>235.0</ele><time>2026-05-02T07:26:40.197Z</time></trkpt><trkpt lat="43.3191329" lon="11.4944485"><ele>235.0</ele><time>2026-05-02T07:26:41.199Z</time></trkpt><trkpt lat="43.3190393" lon="11.4947949"><ele>236.5</ele><time>2026-05-02T07:26:42.19Z</time></trkpt><trkpt lat="43.318948" lon="11.4951322"><ele>238.0</ele><time>2026-05-02T07:26:43.183Z</time></trkpt><trkpt lat="43.3188512" lon="11.495479"><ele>238.0</ele><time>2026-05-02T07:26:44.192Z</time></trkpt><trkpt lat="43.3187679" lon="11.4958269"><ele>238.0</ele><time>2026-05-02T07:26:45.193Z</time></trkpt><trkpt lat="43.3186841" lon="11.4961713"><ele>238.0</ele><time>2026-05-02T07:26:46.193Z</time></trkpt><trkpt lat="43.3186108" lon="11.4965145"><ele>238.0</ele><time>2026-05-02T07:26:47.196Z</time></trkpt><trkpt lat="43.3185515" lon="11.4968626"><ele>238.5</ele><time>2026-05-02T07:26:48.208Z</time></trkpt><trkpt lat="43.3185071" lon="11.4972167"><ele>239.0</ele><time>2026-05-02T07:26:49.2Z</time></trkpt><trkpt lat="43.3184744" lon="11.4975743"><ele>240.0</ele><time>2026-05-02T07:26:50.203Z</time></trkpt><trkpt lat="43.3184502" lon="11.4979333"><ele>241.0</ele><time>2026-05-02T07:26:51.19Z</time></trkpt><trkpt lat="43.3184464" lon="11.4982919"><ele>241.0</ele><time>2026-05-02T07:26:52.209Z</time></trkpt><trkpt lat="43.3184554" lon="11.4986427"><ele>241.0</ele><time>2026-05-02T07:26:53.197Z</time></trkpt><trkpt lat="43.3184788" lon="11.4989982"><ele>240.0</ele><time>2026-05-02T07:26:54.198Z</time></trkpt><trkpt lat="43.3185183" lon="11.4993544"><ele>239.0</ele><time>2026-05-02T07:26:55.206Z</time></trkpt><trkpt lat="43.3185658" lon="11.4997119"><ele>238.5</ele><time>2026-05-02T07:26:56.197Z</time></trkpt><trkpt lat="43.3186251" lon="11.5000656"><ele>238.0</ele><time>2026-05-02T07:26:57.196Z</time></trkpt><trkpt lat="43.3186919" lon="11.5004045"><ele>238.5</ele><time>2026-05-02T07:26:58.194Z</time></trkpt><trkpt lat="43.3187732" lon="11.5007425"><ele>239.0</ele><time>2026-05-02T07:26:59.191Z</time></trkpt><trkpt lat="43.3188666" lon="11.5010829"><ele>240.0</ele><time>2026-05-02T07:27:00.213Z</time></trkpt><trkpt lat="43.3189657" lon="11.5014164"><ele>241.0</ele><time>2026-05-02T07:27:01.198Z</time></trkpt><trkpt lat="43.3190637" lon="11.5017481"><ele>241.0</ele><time>2026-05-02T07:27:02.204Z</time></trkpt><trkpt lat="43.3191679" lon="11.5020796"><ele>241.0</ele><time>2026-05-02T07:27:03.195Z</time></trkpt><trkpt lat="43.3192669" lon="11.5024099"><ele>240.5</ele><time>2026-05-02T07:27:04.201Z</time></trkpt><trkpt lat="43.3193736" lon="11.5027433"><ele>240.0</ele><time>2026-05-02T07:27:05.195Z</time></trkpt><trkpt lat="43.3194775" lon="11.5030711"><ele>241.5</ele><time>2026-05-02T07:27:06.202Z</time></trkpt><trkpt lat="43.3195757" lon="11.5033988"><ele>243.0</ele><time>2026-05-02T07:27:07.164Z</time></trkpt><trkpt lat="43.3196744" lon="11.5037308"><ele>242.0</ele><time>2026-05-02T07:27:08.2Z</time></trkpt><trkpt lat="43.3197779" lon="11.5040658"><ele>241.0</ele><time>2026-05-02T07:27:09.187Z</time></trkpt><trkpt lat="43.3198785" lon="11.5043907"><ele>241.5</ele><time>2026-05-02T07:27:10.194Z</time></trkpt><trkpt lat="43.3199713" lon="11.5047192"><ele>242.0</ele><time>2026-05-02T07:27:11.197Z</time></trkpt><trkpt lat="43.3200594" lon="11.5050518"><ele>242.0</ele><time>2026-05-02T07:27:12.186Z</time></trkpt><trkpt lat="43.3201358" lon="11.5053885"><ele>242.0</ele><time>2026-05-02T07:27:13.196Z</time></trkpt><trkpt lat="43.3202062" lon="11.5057297"><ele>243.0</ele><time>2026-05-02T07:27:14.189Z</time></trkpt><trkpt lat="43.3202621" lon="11.5060834"><ele>244.0</ele><time>2026-05-02T07:27:15.199Z</time></trkpt><trkpt lat="43.3203128" lon="11.506424"><ele>244.5</ele><time>2026-05-02T07:27:16.204Z</time></trkpt><trkpt lat="43.3203538" lon="11.5067738"><ele>245.0</ele><time>2026-05-02T07:27:17.187Z</time></trkpt><trkpt lat="43.3203941" lon="11.5071133"><ele>245.0</ele><time>2026-05-02T07:27:18.203Z</time></trkpt><trkpt lat="43.3204271" lon="11.5074614"><ele>245.0</ele><time>2026-05-02T07:27:19.178Z</time></trkpt><trkpt lat="43.3204614" lon="11.5078114"><ele>246.0</ele><time>2026-05-02T07:27:20.157Z</time></trkpt><trkpt lat="43.3204943" lon="11.5081573"><ele>247.0</ele><time>2026-05-02T07:27:21.186Z</time></trkpt><trkpt lat="43.3205224" lon="11.508506"><ele>247.0</ele><time>2026-05-02T07:27:22.202Z</time></trkpt><trkpt lat="43.320553" lon="11.5088587"><ele>247.0</ele><time>2026-05-02T07:27:23.195Z</time></trkpt><trkpt lat="43.3205844" lon="11.5092166"><ele>250.5</ele><time>2026-05-02T07:27:24.2Z</time></trkpt><trkpt lat="43.3206124" lon="11.5095745"><ele>254.0</ele><time>2026-05-02T07:27:25.213Z</time></trkpt><trkpt lat="43.3206487" lon="11.509931"><ele>254.0</ele><time>2026-05-02T07:27:26.177Z</time></trkpt><trkpt lat="43.320683" lon="11.5102977"><ele>254.0</ele><time>2026-05-02T07:27:27.182Z</time></trkpt><trkpt lat="43.3207145" lon="11.510653"><ele>253.0</ele><time>2026-05-02T07:27:28.205Z</time></trkpt><trkpt lat="43.3207521" lon="11.5110142"><ele>252.0</ele><time>2026-05-02T07:27:29.198Z</time></trkpt><trkpt lat="43.3207795" lon="11.5113754"><ele>252.0</ele><time>2026-05-02T07:27:30.197Z</time></trkpt><trkpt lat="43.3208162" lon="11.511737"><ele>252.0</ele><time>2026-05-02T07:27:31.191Z</time></trkpt><trkpt lat="43.3208479" lon="11.5120941"><ele>254.0</ele><time>2026-05-02T07:27:32.203Z</time></trkpt><trkpt lat="43.320882" lon="11.5124534"><ele>256.0</ele><time>2026-05-02T07:27:33.203Z</time></trkpt><trkpt lat="43.3209138" lon="11.5128137"><ele>258.5</ele><time>2026-05-02T07:27:34.196Z</time></trkpt><trkpt lat="43.3209501" lon="11.5131685"><ele>261.0</ele><time>2026-05-02T07:27:35.196Z</time></trkpt><trkpt lat="43.3209843" lon="11.5135232"><ele>262.0</ele><time>2026-05-02T07:27:36.202Z</time></trkpt><trkpt lat="43.3210169" lon="11.5138817"><ele>263.0</ele><time>2026-05-02T07:27:37.198Z</time></trkpt><trkpt lat="43.3210473" lon="11.5142357"><ele>265.5</ele><time>2026-05-02T07:27:38.197Z</time></trkpt><trkpt lat="43.3210735" lon="11.5145931"><ele>268.0</ele><time>2026-05-02T07:27:39.178Z</time></trkpt><trkpt lat="43.3211094" lon="11.5149568"><ele>268.0</ele><time>2026-05-02T07:27:40.2Z</time></trkpt><trkpt lat="43.3211439" lon="11.5153196"><ele>268.0</ele><time>2026-05-02T07:27:41.196Z</time></trkpt><trkpt lat="43.3211741" lon="11.5156836"><ele>272.0</ele><time>2026-05-02T07:27:42.196Z</time></trkpt><trkpt lat="43.3212028" lon="11.5160453"><ele>276.0</ele><time>2026-05-02T07:27:43.188Z</time></trkpt><trkpt lat="43.3212393" lon="11.5164081"><ele>278.0</ele><time>2026-05-02T07:27:44.197Z</time></trkpt><trkpt lat="43.3212725" lon="11.5167718"><ele>280.0</ele><time>2026-05-02T07:27:45.196Z</time></trkpt><trkpt lat="43.3213073" lon="11.5171342"><ele>280.0</ele><time>2026-05-02T07:27:46.197Z</time></trkpt><trkpt lat="43.321342" lon="11.5174913"><ele>280.0</ele><time>2026-05-02T07:27:47.193Z</time></trkpt><trkpt lat="43.3213788" lon="11.517856"><ele>279.5</ele><time>2026-05-02T07:27:48.197Z</time></trkpt><trkpt lat="43.3214149" lon="11.5182169"><ele>279.0</ele><time>2026-05-02T07:27:49.191Z</time></trkpt><trkpt lat="43.3214529" lon="11.5185718"><ele>276.0</ele><time>2026-05-02T07:27:50.185Z</time></trkpt><trkpt lat="43.3214821" lon="11.5189288"><ele>273.0</ele><time>2026-05-02T07:27:51.16Z</time></trkpt><trkpt lat="43.32151" lon="11.5192899"><ele>272.0</ele><time>2026-05-02T07:27:52.201Z</time></trkpt><trkpt lat="43.3215299" lon="11.5196433"><ele>271.0</ele><time>2026-05-02T07:27:53.191Z</time></trkpt><trkpt lat="43.3215475" lon="11.5199988"><ele>271.0</ele><time>2026-05-02T07:27:54.207Z</time></trkpt><trkpt lat="43.3215567" lon="11.5203556"><ele>271.0</ele><time>2026-05-02T07:27:55.203Z</time></trkpt><trkpt lat="43.3215565" lon="11.5207118"><ele>269.5</ele><time>2026-05-02T07:27:56.187Z</time></trkpt><trkpt lat="43.3215463" lon="11.521068"><ele>268.0</ele><time>2026-05-02T07:27:57.194Z</time></trkpt><trkpt lat="43.3215282" lon="11.5214221"><ele>266.5</ele><time>2026-05-02T07:27:58.2Z</time></trkpt><trkpt lat="43.3215087" lon="11.5217799"><ele>265.0</ele><time>2026-05-02T07:27:59.192Z</time></trkpt><trkpt lat="43.3214775" lon="11.5221395"><ele>264.0</ele><time>2026-05-02T07:28:00.206Z</time></trkpt><trkpt lat="43.3214365" lon="11.5224968"><ele>263.0</ele><time>2026-05-02T07:28:01.192Z</time></trkpt><trkpt lat="43.3213887" lon="11.5228652"><ele>263.5</ele><time>2026-05-02T07:28:02.201Z</time></trkpt><trkpt lat="43.3213342" lon="11.5232336"><ele>264.0</ele><time>2026-05-02T07:28:03.193Z</time></trkpt><trkpt lat="43.3212735" lon="11.5235946"><ele>263.0</ele><time>2026-05-02T07:28:04.2Z</time></trkpt><trkpt lat="43.321208" lon="11.5239505"><ele>262.0</ele><time>2026-05-02T07:28:05.197Z</time></trkpt><trkpt lat="43.3211459" lon="11.52431"><ele>259.0</ele><time>2026-05-02T07:28:06.209Z</time></trkpt><trkpt lat="43.3210852" lon="11.5246634"><ele>256.0</ele><time>2026-05-02T07:28:07.195Z</time></trkpt><trkpt lat="43.3210272" lon="11.5250246"><ele>256.0</ele><time>2026-05-02T07:28:08.172Z</time></trkpt><trkpt lat="43.3209687" lon="11.5253919"><ele>256.0</ele><time>2026-05-02T07:28:09.197Z</time></trkpt><trkpt lat="43.3209173" lon="11.5257634"><ele>255.0</ele><time>2026-05-02T07:28:10.202Z</time></trkpt><trkpt lat="43.3208577" lon="11.5261305"><ele>254.0</ele><time>2026-05-02T07:28:11.199Z</time></trkpt><trkpt lat="43.320798" lon="11.5264938"><ele>254.0</ele><time>2026-05-02T07:28:12.2Z</time></trkpt><trkpt lat="43.3207385" lon="11.5268581"><ele>254.0</ele><time>2026-05-02T07:28:13.187Z</time></trkpt><trkpt lat="43.3206715" lon="11.5272194"><ele>254.0</ele><time>2026-05-02T07:28:14.195Z</time></trkpt><trkpt lat="43.3206098" lon="11.5275785"><ele>254.0</ele><time>2026-05-02T07:28:15.189Z</time></trkpt><trkpt lat="43.3205522" lon="11.5279325"><ele>252.0</ele><time>2026-05-02T07:28:16.194Z</time></trkpt><trkpt lat="43.3204963" lon="11.5282879"><ele>250.0</ele><time>2026-05-02T07:28:17.183Z</time></trkpt><trkpt lat="43.3204477" lon="11.528637"><ele>249.5</ele><time>2026-05-02T07:28:18.204Z</time></trkpt><trkpt lat="43.3204124" lon="11.5289901"><ele>249.0</ele><time>2026-05-02T07:28:19.204Z</time></trkpt><trkpt lat="43.320389" lon="11.5293449"><ele>249.0</ele><time>2026-05-02T07:28:20.198Z</time></trkpt><trkpt lat="43.3203847" lon="11.5296912"><ele>249.0</ele><time>2026-05-02T07:28:21.189Z</time></trkpt><trkpt lat="43.3203998" lon="11.5300469"><ele>247.5</ele><time>2026-05-02T07:28:22.198Z</time></trkpt><trkpt lat="43.3204341" lon="11.5304012"><ele>246.0</ele><time>2026-05-02T07:28:23.193Z</time></trkpt><trkpt lat="43.3204779" lon="11.5307678"><ele>246.0</ele><time>2026-05-02T07:28:24.198Z</time></trkpt><trkpt lat="43.3205392" lon="11.5311263"><ele>246.0</ele><time>2026-05-02T07:28:25.206Z</time></trkpt><trkpt lat="43.3206132" lon="11.5314824"><ele>245.5</ele><time>2026-05-02T07:28:26.196Z</time></trkpt><trkpt lat="43.3207017" lon="11.5318364"><ele>245.0</ele><time>2026-05-02T07:28:27.197Z</time></trkpt><trkpt lat="43.3208125" lon="11.5321822"><ele>245.0</ele><time>2026-05-02T07:28:28.175Z</time></trkpt><trkpt lat="43.3209287" lon="11.5325188"><ele>245.0</ele><time>2026-05-02T07:28:29.174Z</time></trkpt><trkpt lat="43.3210678" lon="11.5328383"><ele>243.0</ele><time>2026-05-02T07:28:30.196Z</time></trkpt><trkpt lat="43.3212173" lon="11.5331466"><ele>241.0</ele><time>2026-05-02T07:28:31.198Z</time></trkpt><trkpt lat="43.3213705" lon="11.533463"><ele>239.5</ele><time>2026-05-02T07:28:32.187Z</time></trkpt><trkpt lat="43.3215266" lon="11.5337743"><ele>238.0</ele><time>2026-05-02T07:28:33.192Z</time></trkpt><trkpt lat="43.32168" lon="11.5340802"><ele>238.0</ele><time>2026-05-02T07:28:34.196Z</time></trkpt><trkpt lat="43.3218353" lon="11.5343848"><ele>238.0</ele><time>2026-05-02T07:28:35.215Z</time></trkpt><trkpt lat="43.3219885" lon="11.5346905"><ele>238.0</ele><time>2026-05-02T07:28:36.199Z</time></trkpt><trkpt lat="43.322141" lon="11.5349947"><ele>238.0</ele><time>2026-05-02T07:28:37.189Z</time></trkpt><trkpt lat="43.3222987" lon="11.5352996"><ele>237.0</ele><time>2026-05-02T07:28:38.199Z</time></trkpt><trkpt lat="43.322456" lon="11.5356051"><ele>236.0</ele><time>2026-05-02T07:28:39.205Z</time></trkpt><trkpt lat="43.3226114" lon="11.5359114"><ele>236.0</ele><time>2026-05-02T07:28:40.189Z</time></trkpt><trkpt lat="43.3227597" lon="11.5362179"><ele>236.0</ele><time>2026-05-02T07:28:41.196Z</time></trkpt><trkpt lat="43.3229016" lon="11.5365281"><ele>234.5</ele><time>2026-05-02T07:28:42.197Z</time></trkpt><trkpt lat="43.3230358" lon="11.5368416"><ele>233.0</ele><time>2026-05-02T07:28:43.201Z</time></trkpt><trkpt lat="43.323168" lon="11.5371529"><ele>232.5</ele><time>2026-05-02T07:28:44.189Z</time></trkpt><trkpt lat="43.3232919" lon="11.5374733"><ele>232.0</ele><time>2026-05-02T07:28:45.176Z</time></trkpt><trkpt lat="43.3234115" lon="11.5377976"><ele>232.0</ele><time>2026-05-02T07:28:46.197Z</time></trkpt><trkpt lat="43.323524" lon="11.5381201"><ele>232.0</ele><time>2026-05-02T07:28:47.193Z</time></trkpt><trkpt lat="43.3236309" lon="11.5384471"><ele>232.0</ele><time>2026-05-02T07:28:48.213Z</time></trkpt><trkpt lat="43.3237269" lon="11.5387819"><ele>232.0</ele><time>2026-05-02T07:28:49.203Z</time></trkpt><trkpt lat="43.3238117" lon="11.5391158"><ele>232.5</ele><time>2026-05-02T07:28:50.195Z</time></trkpt><trkpt lat="43.3238976" lon="11.5394473"><ele>233.0</ele><time>2026-05-02T07:28:51.205Z</time></trkpt><trkpt lat="43.3239842" lon="11.5397836"><ele>233.0</ele><time>2026-05-02T07:28:52.199Z</time></trkpt><trkpt lat="43.3240747" lon="11.5401144"><ele>233.0</ele><time>2026-05-02T07:28:53.197Z</time></trkpt><trkpt lat="43.324163" lon="11.5404536"><ele>232.5</ele><time>2026-05-02T07:28:54.202Z</time></trkpt><trkpt lat="43.3242567" lon="11.5407924"><ele>232.0</ele><time>2026-05-02T07:28:55.194Z</time></trkpt><trkpt lat="43.3243545" lon="11.5411327"><ele>231.5</ele><time>2026-05-02T07:28:56.199Z</time></trkpt><trkpt lat="43.3244487" lon="11.5414804"><ele>231.0</ele><time>2026-05-02T07:28:57.19Z</time></trkpt><trkpt lat="43.3245462" lon="11.5418284"><ele>232.0</ele><time>2026-05-02T07:28:58.206Z</time></trkpt><trkpt lat="43.324636" lon="11.5421693"><ele>233.0</ele><time>2026-05-02T07:28:59.192Z</time></trkpt><trkpt lat="43.3247229" lon="11.5425103"><ele>234.0</ele><time>2026-05-02T07:29:00.198Z</time></trkpt><trkpt lat="43.3248075" lon="11.5428481"><ele>235.0</ele><time>2026-05-02T07:29:01.195Z</time></trkpt><trkpt lat="43.3248899" lon="11.5431774"><ele>235.0</ele><time>2026-05-02T07:29:02.179Z</time></trkpt><trkpt lat="43.3249692" lon="11.5435043"><ele>235.0</ele><time>2026-05-02T07:29:03.202Z</time></trkpt><trkpt lat="43.3250464" lon="11.5438359"><ele>235.0</ele><time>2026-05-02T07:29:04.203Z</time></trkpt><trkpt lat="43.3251255" lon="11.5441654"><ele>235.0</ele><time>2026-05-02T07:29:05.196Z</time></trkpt><trkpt lat="43.3252091" lon="11.5444903"><ele>234.0</ele><time>2026-05-02T07:29:06.197Z</time></trkpt><trkpt lat="43.325292" lon="11.5448203"><ele>233.0</ele><time>2026-05-02T07:29:07.191Z</time></trkpt><trkpt lat="43.3253724" lon="11.5451425"><ele>231.5</ele><time>2026-05-02T07:29:08.196Z</time></trkpt><trkpt lat="43.3254538" lon="11.5454637"><ele>230.0</ele><time>2026-05-02T07:29:09.182Z</time></trkpt><trkpt lat="43.3255364" lon="11.5457793"><ele>230.5</ele><time>2026-05-02T07:29:10.196Z</time></trkpt><trkpt lat="43.3256134" lon="11.5460884"><ele>231.0</ele><time>2026-05-02T07:29:11.189Z</time></trkpt><trkpt lat="43.325693" lon="11.5464011"><ele>231.0</ele><time>2026-05-02T07:29:12.199Z</time></trkpt><trkpt lat="43.3257676" lon="11.5466938"><ele>231.0</ele><time>2026-05-02T07:29:13.186Z</time></trkpt><trkpt lat="43.3258436" lon="11.5469635"><ele>231.0</ele><time>2026-05-02T07:29:14.208Z</time></trkpt><trkpt lat="43.3259158" lon="11.5472316"><ele>230.33333333333331</ele><time>2026-05-02T07:29:15.201Z</time></trkpt><trkpt lat="43.3259782" lon="11.5474864"><ele>229.66666666666666</ele><time>2026-05-02T07:29:16.197Z</time></trkpt><trkpt lat="43.3260415" lon="11.5477427"><ele>229.0</ele><time>2026-05-02T07:29:17.182Z</time></trkpt><trkpt lat="43.3261067" lon="11.5479916"><ele>228.0</ele><time>2026-05-02T07:29:18.206Z</time></trkpt><trkpt lat="43.3261679" lon="11.5482237"><ele>227.0</ele><time>2026-05-02T07:29:19.196Z</time></trkpt><trkpt lat="43.3262273" lon="11.5484515"><ele>226.0</ele><time>2026-05-02T07:29:20.201Z</time></trkpt><trkpt lat="43.3262899" lon="11.5486817"><ele>226.0</ele><time>2026-05-02T07:29:21.196Z</time></trkpt><trkpt lat="43.3263475" lon="11.5489142"><ele>226.0</ele><time>2026-05-02T07:29:22.2Z</time></trkpt><trkpt lat="43.3264096" lon="11.5491483"><ele>226.0</ele><time>2026-05-02T07:29:23.196Z</time></trkpt><trkpt lat="43.32647" lon="11.5493821"><ele>226.0</ele><time>2026-05-02T07:29:24.201Z</time></trkpt><trkpt lat="43.326532" lon="11.5496178"><ele>226.0</ele><time>2026-05-02T07:29:25.204Z</time></trkpt><trkpt lat="43.3265921" lon="11.5498503"><ele>226.0</ele><time>2026-05-02T07:29:26.197Z</time></trkpt><trkpt lat="43.3266506" lon="11.5500833"><ele>226.0</ele><time>2026-05-02T07:29:27.197Z</time></trkpt><trkpt lat="43.3267101" lon="11.5503208"><ele>226.0</ele><time>2026-05-02T07:29:28.197Z</time></trkpt><trkpt lat="43.3267731" lon="11.5505601"><ele>226.0</ele><time>2026-05-02T07:29:29.196Z</time></trkpt><trkpt lat="43.3268282" lon="11.5507946"><ele>228.33333333333331</ele><time>2026-05-02T07:29:30.203Z</time></trkpt><trkpt lat="43.326878" lon="11.5510332"><ele>230.66666666666669</ele><time>2026-05-02T07:29:31.206Z</time></trkpt><trkpt lat="43.3269232" lon="11.5512728"><ele>233.0</ele><time>2026-05-02T07:29:32.203Z</time></trkpt><trkpt lat="43.3269604" lon="11.5515083"><ele>233.33333333333334</ele><time>2026-05-02T07:29:33.193Z</time></trkpt><trkpt lat="43.3269903" lon="11.551746"><ele>233.66666666666669</ele><time>2026-05-02T07:29:34.177Z</time></trkpt><trkpt lat="43.3270204" lon="11.5519876"><ele>234.0</ele><time>2026-05-02T07:29:35.187Z</time></trkpt><trkpt lat="43.3270309" lon="11.5522306"><ele>234.0</ele><time>2026-05-02T07:29:36.189Z</time></trkpt><trkpt lat="43.3270342" lon="11.5524747"><ele>234.0</ele><time>2026-05-02T07:29:37.192Z</time></trkpt><trkpt lat="43.3270348" lon="11.5527166"><ele>234.0</ele><time>2026-05-02T07:29:38.206Z</time></trkpt><trkpt lat="43.3270273" lon="11.5529575"><ele>232.0</ele><time>2026-05-02T07:29:39.21Z</time></trkpt><trkpt lat="43.3270166" lon="11.5532013"><ele>230.0</ele><time>2026-05-02T07:29:40.199Z</time></trkpt><trkpt lat="43.326992" lon="11.5534486"><ele>228.0</ele><time>2026-05-02T07:29:41.203Z</time></trkpt><trkpt lat="43.3269672" lon="11.5536959"><ele>227.66666666666669</ele><time>2026-05-02T07:29:42.192Z</time></trkpt><trkpt lat="43.3269286" lon="11.5539431"><ele>227.33333333333334</ele><time>2026-05-02T07:29:43.201Z</time></trkpt><trkpt lat="43.3268847" lon="11.554187"><ele>227.0</ele><time>2026-05-02T07:29:44.194Z</time></trkpt><trkpt lat="43.3268314" lon="11.5544356"><ele>226.33333333333334</ele><time>2026-05-02T07:29:45.204Z</time></trkpt><trkpt lat="43.3267676" lon="11.5546803"><ele>225.66666666666669</ele><time>2026-05-02T07:29:46.192Z</time></trkpt><trkpt lat="43.3267011" lon="11.5549268"><ele>225.0</ele><time>2026-05-02T07:29:47.197Z</time></trkpt><trkpt lat="43.3266274" lon="11.5551663"><ele>225.0</ele><time>2026-05-02T07:29:48.19Z</time></trkpt><trkpt lat="43.3265464" lon="11.5553989"><ele>225.0</ele><time>2026-05-02T07:29:49.205Z</time></trkpt><trkpt lat="43.3264649" lon="11.5556278"><ele>225.0</ele><time>2026-05-02T07:29:50.199Z</time></trkpt><trkpt lat="43.3263806" lon="11.5558551"><ele>225.0</ele><time>2026-05-02T07:29:51.199Z</time></trkpt><trkpt lat="43.3262919" lon="11.5560865"><ele>225.0</ele><time>2026-05-02T07:29:52.193Z</time></trkpt><trkpt lat="43.326207" lon="11.5563218"><ele>225.0</ele><time>2026-05-02T07:29:53.204Z</time></trkpt><trkpt lat="43.3261212" lon="11.5565553"><ele>223.66666666666669</ele><time>2026-05-02T07:29:54.207Z</time></trkpt><trkpt lat="43.3260397" lon="11.5567717"><ele>222.33333333333334</ele><time>2026-05-02T07:29:55.199Z</time></trkpt><trkpt lat="43.3259613" lon="11.5569847"><ele>221.0</ele><time>2026-05-02T07:29:56.202Z</time></trkpt><trkpt lat="43.3258864" lon="11.5572014"><ele>220.0</ele><time>2026-05-02T07:29:57.202Z</time></trkpt><trkpt lat="43.3258005" lon="11.557432"><ele>219.0</ele><time>2026-05-02T07:29:58.203Z</time></trkpt><trkpt lat="43.3257071" lon="11.557673"><ele>218.0</ele><time>2026-05-02T07:29:59.207Z</time></trkpt><trkpt lat="43.3256188" lon="11.5579114"><ele>217.33333333333334</ele><time>2026-05-02T07:30:00.198Z</time></trkpt><trkpt lat="43.3255317" lon="11.5581526"><ele>216.66666666666669</ele><time>2026-05-02T07:30:01.197Z</time></trkpt><trkpt lat="43.3254472" lon="11.5583915"><ele>216.0</ele><time>2026-05-02T07:30:02.2Z</time></trkpt><trkpt lat="43.3253587" lon="11.5586329"><ele>215.0</ele><time>2026-05-02T07:30:03.191Z</time></trkpt><trkpt lat="43.3252672" lon="11.5588764"><ele>214.0</ele><time>2026-05-02T07:30:04.205Z</time></trkpt><trkpt lat="43.3251771" lon="11.5591182"><ele>213.0</ele><time>2026-05-02T07:30:05.199Z</time></trkpt><trkpt lat="43.3250872" lon="11.5593602"><ele>213.33333333333331</ele><time>2026-05-02T07:30:06.204Z</time></trkpt><trkpt lat="43.3249961" lon="11.5596193"><ele>213.66666666666666</ele><time>2026-05-02T07:30:07.192Z</time></trkpt><trkpt lat="43.3249008" lon="11.5598935"><ele>214.0</ele><time>2026-05-02T07:30:08.175Z</time></trkpt><trkpt lat="43.3248049" lon="11.560178"><ele>212.0</ele><time>2026-05-02T07:30:09.198Z</time></trkpt><trkpt lat="43.3247017" lon="11.5604716"><ele>210.0</ele><time>2026-05-02T07:30:10.187Z</time></trkpt><trkpt lat="43.3245966" lon="11.5607753"><ele>210.0</ele><time>2026-05-02T07:30:11.203Z</time></trkpt><trkpt lat="43.3244776" lon="11.5610945"><ele>210.0</ele><time>2026-05-02T07:30:12.205Z</time></trkpt><trkpt lat="43.3243536" lon="11.5614275"><ele>210.0</ele><time>2026-05-02T07:30:13.195Z</time></trkpt><trkpt lat="43.3242254" lon="11.561767"><ele>210.0</ele><time>2026-05-02T07:30:14.18Z</time></trkpt><trkpt lat="43.3241007" lon="11.5620998"><ele>210.0</ele><time>2026-05-02T07:30:15.173Z</time></trkpt><trkpt lat="43.323974" lon="11.5624354"><ele>210.0</ele><time>2026-05-02T07:30:16.178Z</time></trkpt><trkpt lat="43.3238464" lon="11.5627688"><ele>208.5</ele><time>2026-05-02T07:30:17.176Z</time></trkpt><trkpt lat="43.3237123" lon="11.5630995"><ele>207.0</ele><time>2026-05-02T07:30:18.2Z</time></trkpt><trkpt lat="43.3235879" lon="11.5634263"><ele>207.5</ele><time>2026-05-02T07:30:19.195Z</time></trkpt><trkpt lat="43.3234617" lon="11.5637522"><ele>208.0</ele><time>2026-05-02T07:30:20.165Z</time></trkpt><trkpt lat="43.3233386" lon="11.5640708"><ele>208.0</ele><time>2026-05-02T07:30:21.2Z</time></trkpt><trkpt lat="43.3232173" lon="11.5643873"><ele>208.0</ele><time>2026-05-02T07:30:22.206Z</time></trkpt><trkpt lat="43.3230949" lon="11.5647058"><ele>206.5</ele><time>2026-05-02T07:30:23.188Z</time></trkpt><trkpt lat="43.3229807" lon="11.5650217"><ele>205.0</ele><time>2026-05-02T07:30:24.196Z</time></trkpt><trkpt lat="43.3228657" lon="11.5653333"><ele>206.0</ele><time>2026-05-02T07:30:25.189Z</time></trkpt><trkpt lat="43.3227498" lon="11.5656495"><ele>207.0</ele><time>2026-05-02T07:30:26.211Z</time></trkpt><trkpt lat="43.3226364" lon="11.5659724"><ele>208.0</ele><time>2026-05-02T07:30:27.192Z</time></trkpt><trkpt lat="43.3225226" lon="11.5662869"><ele>209.0</ele><time>2026-05-02T07:30:28.184Z</time></trkpt><trkpt lat="43.3224041" lon="11.5666081"><ele>209.0</ele><time>2026-05-02T07:30:29.195Z</time></trkpt><trkpt lat="43.3222837" lon="11.5669281"><ele>209.0</ele><time>2026-05-02T07:30:30.201Z</time></trkpt><trkpt lat="43.3221585" lon="11.5672439"><ele>208.0</ele><time>2026-05-02T07:30:31.197Z</time></trkpt><trkpt lat="43.3220321" lon="11.5675611"><ele>207.0</ele><time>2026-05-02T07:30:32.201Z</time></trkpt><trkpt lat="43.321899" lon="11.5678712"><ele>207.0</ele><time>2026-05-02T07:30:33.196Z</time></trkpt><trkpt lat="43.3217569" lon="11.5681761"><ele>207.0</ele><time>2026-05-02T07:30:34.192Z</time></trkpt><trkpt lat="43.3216101" lon="11.5684671"><ele>206.5</ele><time>2026-05-02T07:30:35.203Z</time></trkpt><trkpt lat="43.3214573" lon="11.5687597"><ele>206.0</ele><time>2026-05-02T07:30:36.206Z</time></trkpt><trkpt lat="43.3213016" lon="11.5690394"><ele>206.0</ele><time>2026-05-02T07:30:37.192Z</time></trkpt><trkpt lat="43.3211431" lon="11.5693104"><ele>206.0</ele><time>2026-05-02T07:30:38.201Z</time></trkpt><trkpt lat="43.3209772" lon="11.5695735"><ele>206.0</ele><time>2026-05-02T07:30:39.191Z</time></trkpt><trkpt lat="43.3208016" lon="11.5698278"><ele>206.0</ele><time>2026-05-02T07:30:40.195Z</time></trkpt><trkpt lat="43.3206226" lon="11.5700708"><ele>206.0</ele><time>2026-05-02T07:30:41.197Z</time></trkpt><trkpt lat="43.3204331" lon="11.5703135"><ele>206.0</ele><time>2026-05-02T07:30:42.207Z</time></trkpt><trkpt lat="43.3202394" lon="11.5705421"><ele>206.0</ele><time>2026-05-02T07:30:43.195Z</time></trkpt><trkpt lat="43.3200352" lon="11.570772"><ele>206.0</ele><time>2026-05-02T07:30:44.199Z</time></trkpt><trkpt lat="43.319828" lon="11.5709923"><ele>205.0</ele><time>2026-05-02T07:30:45.191Z</time></trkpt><trkpt lat="43.3196141" lon="11.5712019"><ele>204.0</ele><time>2026-05-02T07:30:46.207Z</time></trkpt><trkpt lat="43.3193979" lon="11.5714182"><ele>204.0</ele><time>2026-05-02T07:30:47.192Z</time></trkpt><trkpt lat="43.3191811" lon="11.5716225"><ele>204.0</ele><time>2026-05-02T07:30:48.214Z</time></trkpt><trkpt lat="43.3189604" lon="11.5718192"><ele>205.0</ele><time>2026-05-02T07:30:49.193Z</time></trkpt><trkpt lat="43.3187383" lon="11.572016"><ele>206.0</ele><time>2026-05-02T07:30:50.205Z</time></trkpt><trkpt lat="43.3185161" lon="11.5722102"><ele>206.5</ele><time>2026-05-02T07:30:51.187Z</time></trkpt><trkpt lat="43.3182948" lon="11.5724068"><ele>207.0</ele><time>2026-05-02T07:30:52.176Z</time></trkpt><trkpt lat="43.3180788" lon="11.5726045"><ele>206.0</ele><time>2026-05-02T07:30:53.185Z</time></trkpt><trkpt lat="43.3178687" lon="11.5728063"><ele>205.0</ele><time>2026-05-02T07:30:54.185Z</time></trkpt><trkpt lat="43.3176563" lon="11.5730112"><ele>206.0</ele><time>2026-05-02T07:30:55.187Z</time></trkpt><trkpt lat="43.3174452" lon="11.5732194"><ele>207.0</ele><time>2026-05-02T07:30:56.196Z</time></trkpt><trkpt lat="43.3172347" lon="11.5734298"><ele>207.0</ele><time>2026-05-02T07:30:57.191Z</time></trkpt><trkpt lat="43.3170251" lon="11.5736497"><ele>207.0</ele><time>2026-05-02T07:30:58.193Z</time></trkpt><trkpt lat="43.3168237" lon="11.5738724"><ele>208.5</ele><time>2026-05-02T07:30:59.188Z</time></trkpt><trkpt lat="43.3166222" lon="11.5740997"><ele>210.0</ele><time>2026-05-02T07:31:00.203Z</time></trkpt><trkpt lat="43.3164233" lon="11.5743378"><ele>207.5</ele><time>2026-05-02T07:31:01.197Z</time></trkpt><trkpt lat="43.3162219" lon="11.5745756"><ele>205.0</ele><time>2026-05-02T07:31:02.194Z</time></trkpt><trkpt lat="43.3160233" lon="11.5748093"><ele>205.0</ele><time>2026-05-02T07:31:03.202Z</time></trkpt><trkpt lat="43.3158317" lon="11.5750547"><ele>205.0</ele><time>2026-05-02T07:31:04.2Z</time></trkpt><trkpt lat="43.315642" lon="11.5752939"><ele>203.5</ele><time>2026-05-02T07:31:05.193Z</time></trkpt><trkpt lat="43.3154561" lon="11.5755444"><ele>202.0</ele><time>2026-05-02T07:31:06.208Z</time></trkpt><trkpt lat="43.3152718" lon="11.5757973"><ele>202.0</ele><time>2026-05-02T07:31:07.192Z</time></trkpt><trkpt lat="43.3150921" lon="11.5760521"><ele>202.0</ele><time>2026-05-02T07:31:08.204Z</time></trkpt><trkpt lat="43.3149085" lon="11.5763087"><ele>201.0</ele><time>2026-05-02T07:31:09.2Z</time></trkpt><trkpt lat="43.314727" lon="11.5765643"><ele>200.0</ele><time>2026-05-02T07:31:10.213Z</time></trkpt><trkpt lat="43.3145564" lon="11.5768162"><ele>200.0</ele><time>2026-05-02T07:31:11.171Z</time></trkpt><trkpt lat="43.3143831" lon="11.5770729"><ele>200.0</ele><time>2026-05-02T07:31:12.207Z</time></trkpt><trkpt lat="43.314209" lon="11.5773256"><ele>200.0</ele><time>2026-05-02T07:31:13.203Z</time></trkpt><trkpt lat="43.3140298" lon="11.5775737"><ele>200.0</ele><time>2026-05-02T07:31:14.199Z</time></trkpt><trkpt lat="43.313853" lon="11.5778275"><ele>201.0</ele><time>2026-05-02T07:31:15.197Z</time></trkpt><trkpt lat="43.3136774" lon="11.5780793"><ele>202.0</ele><time>2026-05-02T07:31:16.197Z</time></trkpt><trkpt lat="43.3135013" lon="11.5783214"><ele>202.0</ele><time>2026-05-02T07:31:17.196Z</time></trkpt><trkpt lat="43.3133174" lon="11.578559"><ele>202.0</ele><time>2026-05-02T07:31:18.21Z</time></trkpt><trkpt lat="43.3131316" lon="11.5788007"><ele>204.0</ele><time>2026-05-02T07:31:19.201Z</time></trkpt><trkpt lat="43.3129376" lon="11.5790371"><ele>206.0</ele><time>2026-05-02T07:31:20.201Z</time></trkpt><trkpt lat="43.312743" lon="11.5792707"><ele>206.0</ele><time>2026-05-02T07:31:21.18Z</time></trkpt><trkpt lat="43.3125509" lon="11.5795011"><ele>206.0</ele><time>2026-05-02T07:31:22.201Z</time></trkpt><trkpt lat="43.3123543" lon="11.5797264"><ele>206.5</ele><time>2026-05-02T07:31:23.205Z</time></trkpt><trkpt lat="43.3121655" lon="11.5799492"><ele>207.0</ele><time>2026-05-02T07:31:24.191Z</time></trkpt><trkpt lat="43.3119732" lon="11.5801679"><ele>210.5</ele><time>2026-05-02T07:31:25.194Z</time></trkpt><trkpt lat="43.3117843" lon="11.5803898"><ele>214.0</ele><time>2026-05-02T07:31:26.185Z</time></trkpt><trkpt lat="43.3115962" lon="11.5806149"><ele>214.0</ele><time>2026-05-02T07:31:27.2Z</time></trkpt><trkpt lat="43.3114183" lon="11.5808521"><ele>214.0</ele><time>2026-05-02T07:31:28.171Z</time></trkpt><trkpt lat="43.3112513" lon="11.58111"><ele>215.0</ele><time>2026-05-02T07:31:29.174Z</time></trkpt><trkpt lat="43.311096" lon="11.5813931"><ele>216.0</ele><time>2026-05-02T07:31:30.193Z</time></trkpt><trkpt lat="43.3109533" lon="11.58169"><ele>216.0</ele><time>2026-05-02T07:31:31.201Z</time></trkpt><trkpt lat="43.3108174" lon="11.5819882"><ele>216.0</ele><time>2026-05-02T07:31:32.203Z</time></trkpt><trkpt lat="43.3106958" lon="11.5822999"><ele>217.5</ele><time>2026-05-02T07:31:33.198Z</time></trkpt><trkpt lat="43.3105835" lon="11.5826098"><ele>219.0</ele><time>2026-05-02T07:31:34.195Z</time></trkpt><trkpt lat="43.310465" lon="11.5829253"><ele>219.0</ele><time>2026-05-02T07:31:35.192Z</time></trkpt><trkpt lat="43.3103439" lon="11.5832361"><ele>219.0</ele><time>2026-05-02T07:31:36.195Z</time></trkpt><trkpt lat="43.3102213" lon="11.5835473"><ele>221.5</ele><time>2026-05-02T07:31:37.191Z</time></trkpt><trkpt lat="43.3100981" lon="11.5838565"><ele>224.0</ele><time>2026-05-02T07:31:38.187Z</time></trkpt><trkpt lat="43.3099781" lon="11.5841633"><ele>224.0</ele><time>2026-05-02T07:31:39.196Z</time></trkpt><trkpt lat="43.309852" lon="11.5844682"><ele>224.0</ele><time>2026-05-02T07:31:40.199Z</time></trkpt><trkpt lat="43.3097263" lon="11.5847715"><ele>223.0</ele><time>2026-05-02T07:31:41.201Z</time></trkpt><trkpt lat="43.3095877" lon="11.5850584"><ele>222.0</ele><time>2026-05-02T07:31:42.196Z</time></trkpt><trkpt lat="43.3094309" lon="11.5853359"><ele>220.5</ele><time>2026-05-02T07:31:43.195Z</time></trkpt><trkpt lat="43.3092722" lon="11.5856004"><ele>219.0</ele><time>2026-05-02T07:31:44.197Z</time></trkpt><trkpt lat="43.3090956" lon="11.5858623"><ele>219.0</ele><time>2026-05-02T07:31:45.196Z</time></trkpt><trkpt lat="43.3089175" lon="11.5861198"><ele>219.0</ele><time>2026-05-02T07:31:46.189Z</time></trkpt><trkpt lat="43.308728" lon="11.5863673"><ele>217.0</ele><time>2026-05-02T07:31:47.189Z</time></trkpt><trkpt lat="43.3085247" lon="11.5865952"><ele>215.0</ele><time>2026-05-02T07:31:48.184Z</time></trkpt><trkpt lat="43.3083232" lon="11.5868135"><ele>215.0</ele><time>2026-05-02T07:31:49.191Z</time></trkpt><trkpt lat="43.3081133" lon="11.5870341"><ele>215.0</ele><time>2026-05-02T07:31:50.18Z</time></trkpt><trkpt lat="43.3078994" lon="11.5872455"><ele>215.0</ele><time>2026-05-02T07:31:51.185Z</time></trkpt><trkpt lat="43.307685" lon="11.587456"><ele>215.0</ele><time>2026-05-02T07:31:52.198Z</time></trkpt><trkpt lat="43.3074741" lon="11.5876724"><ele>217.0</ele><time>2026-05-02T07:31:53.193Z</time></trkpt><trkpt lat="43.3072655" lon="11.5878826"><ele>219.0</ele><time>2026-05-02T07:31:54.212Z</time></trkpt><trkpt lat="43.3070587" lon="11.5880907"><ele>221.5</ele><time>2026-05-02T07:31:55.195Z</time></trkpt><trkpt lat="43.3068499" lon="11.5883043"><ele>224.0</ele><time>2026-05-02T07:31:56.198Z</time></trkpt><trkpt lat="43.3066421" lon="11.5885165"><ele>222.5</ele><time>2026-05-02T07:31:57.197Z</time></trkpt><trkpt lat="43.3064415" lon="11.5887386"><ele>221.0</ele><time>2026-05-02T07:31:58.199Z</time></trkpt><trkpt lat="43.3062477" lon="11.5889783"><ele>221.0</ele><time>2026-05-02T07:31:59.203Z</time></trkpt><trkpt lat="43.3060631" lon="11.589231"><ele>221.0</ele><time>2026-05-02T07:32:00.199Z</time></trkpt><trkpt lat="43.3058804" lon="11.589484"><ele>223.0</ele><time>2026-05-02T07:32:01.197Z</time></trkpt><trkpt lat="43.3057061" lon="11.5897492"><ele>225.0</ele><time>2026-05-02T07:32:02.198Z</time></trkpt><trkpt lat="43.3055474" lon="11.5900258"><ele>225.0</ele><time>2026-05-02T07:32:03.204Z</time></trkpt><trkpt lat="43.3053908" lon="11.5903196"><ele>225.0</ele><time>2026-05-02T07:32:04.198Z</time></trkpt><trkpt lat="43.3052478" lon="11.5906084"><ele>225.0</ele><time>2026-05-02T07:32:05.193Z</time></trkpt><trkpt lat="43.3051193" lon="11.5909116"><ele>225.0</ele><time>2026-05-02T07:32:06.188Z</time></trkpt><trkpt lat="43.3049992" lon="11.5912228"><ele>227.5</ele><time>2026-05-02T07:32:07.188Z</time></trkpt><trkpt lat="43.3048834" lon="11.5915376"><ele>230.0</ele><time>2026-05-02T07:32:08.202Z</time></trkpt><trkpt lat="43.3047617" lon="11.5918443"><ele>236.0</ele><time>2026-05-02T07:32:09.201Z</time></trkpt><trkpt lat="43.3046446" lon="11.5921567"><ele>242.0</ele><time>2026-05-02T07:32:10.204Z</time></trkpt><trkpt lat="43.3045235" lon="11.5924644"><ele>242.0</ele><time>2026-05-02T07:32:11.187Z</time></trkpt><trkpt lat="43.3044009" lon="11.5927699"><ele>242.0</ele><time>2026-05-02T07:32:12.197Z</time></trkpt><trkpt lat="43.304285" lon="11.5930789"><ele>246.0</ele><time>2026-05-02T07:32:13.194Z</time></trkpt><trkpt lat="43.3041634" lon="11.5933879"><ele>250.0</ele><time>2026-05-02T07:32:14.191Z</time></trkpt><trkpt lat="43.3040404" lon="11.5936939"><ele>253.5</ele><time>2026-05-02T07:32:15.192Z</time></trkpt><trkpt lat="43.3039188" lon="11.594001"><ele>257.0</ele><time>2026-05-02T07:32:16.153Z</time></trkpt><trkpt lat="43.3037957" lon="11.5943045"><ele>252.0</ele><time>2026-05-02T07:32:17.155Z</time></trkpt><trkpt lat="43.3036754" lon="11.59461"><ele>247.0</ele><time>2026-05-02T07:32:18.153Z</time></trkpt><trkpt lat="43.3035549" lon="11.5949181"><ele>247.0</ele><time>2026-05-02T07:32:19.151Z</time></trkpt><trkpt lat="43.3034367" lon="11.5952217"><ele>247.0</ele><time>2026-05-02T07:32:20.156Z</time></trkpt><trkpt lat="43.3033116" lon="11.5955243"><ele>247.5</ele><time>2026-05-02T07:32:21.155Z</time></trkpt><trkpt lat="43.3031798" lon="11.5958269"><ele>248.0</ele><time>2026-05-02T07:32:22.184Z</time></trkpt><trkpt lat="43.3030366" lon="11.5961178"><ele>250.5</ele><time>2026-05-02T07:32:23.182Z</time></trkpt><trkpt lat="43.3028878" lon="11.5963966"><ele>253.0</ele><time>2026-05-02T07:32:24.19Z</time></trkpt><trkpt lat="43.3027287" lon="11.5966561"><ele>253.0</ele><time>2026-05-02T07:32:25.179Z</time></trkpt><trkpt lat="43.3025509" lon="11.5969012"><ele>253.0</ele><time>2026-05-02T07:32:26.187Z</time></trkpt><trkpt lat="43.3023616" lon="11.5971426"><ele>257.5</ele><time>2026-05-02T07:32:27.209Z</time></trkpt><trkpt lat="43.3021666" lon="11.597365"><ele>262.0</ele><time>2026-05-02T07:32:28.189Z</time></trkpt><trkpt lat="43.3019577" lon="11.5975797"><ele>262.0</ele><time>2026-05-02T07:32:29.186Z</time></trkpt><trkpt lat="43.3017321" lon="11.5977864"><ele>262.0</ele><time>2026-05-02T07:32:30.19Z</time></trkpt><trkpt lat="43.3015015" lon="11.5979797"><ele>268.5</ele><time>2026-05-02T07:32:31.19Z</time></trkpt><trkpt lat="43.3012856" lon="11.5981672"><ele>275.0</ele><time>2026-05-02T07:32:32.197Z</time></trkpt><trkpt lat="43.301063" lon="11.5983497"><ele>275.0</ele><time>2026-05-02T07:32:33.192Z</time></trkpt><trkpt lat="43.3008407" lon="11.5985271"><ele>275.0</ele><time>2026-05-02T07:32:34.205Z</time></trkpt><trkpt lat="43.3006215" lon="11.5987024"><ele>279.5</ele><time>2026-05-02T07:32:35.193Z</time></trkpt><trkpt lat="43.3004042" lon="11.5988857"><ele>284.0</ele><time>2026-05-02T07:32:36.18Z</time></trkpt><trkpt lat="43.2986504" lon="11.600357"><ele>286.0</ele><time>2026-05-02T07:32:43.173Z</time></trkpt><trkpt lat="43.2983721" lon="11.6006357"><ele>288.0</ele><time>2026-05-02T07:32:44.202Z</time></trkpt><trkpt lat="43.2981019" lon="11.6008989"><ele>290.5</ele><time>2026-05-02T07:32:45.192Z</time></trkpt><trkpt lat="43.2978793" lon="11.6011594"><ele>293.0</ele><time>2026-05-02T07:32:46.192Z</time></trkpt><trkpt lat="43.2976524" lon="11.601411"><ele>293.0</ele><time>2026-05-02T07:32:47.178Z</time></trkpt><trkpt lat="43.2974495" lon="11.6016599"><ele>293.0</ele><time>2026-05-02T07:32:48.183Z</time></trkpt><trkpt lat="43.297251" lon="11.6019139"><ele>295.5</ele><time>2026-05-02T07:32:49.187Z</time></trkpt><trkpt lat="43.2970582" lon="11.6021803"><ele>298.0</ele><time>2026-05-02T07:32:50.168Z</time></trkpt><trkpt lat="43.2968774" lon="11.6024495"><ele>298.0</ele><time>2026-05-02T07:32:51.162Z</time></trkpt><trkpt lat="43.2967033" lon="11.6027087"><ele>298.0</ele><time>2026-05-02T07:32:52.172Z</time></trkpt><trkpt lat="43.2965375" lon="11.6029686"><ele>299.5</ele><time>2026-05-02T07:32:53.182Z</time></trkpt><trkpt lat="43.2963747" lon="11.6032183"><ele>301.0</ele><time>2026-05-02T07:32:54.195Z</time></trkpt><trkpt lat="43.2962146" lon="11.6034629"><ele>301.5</ele><time>2026-05-02T07:32:55.187Z</time></trkpt><trkpt lat="43.2960629" lon="11.6037035"><ele>302.0</ele><time>2026-05-02T07:32:56.201Z</time></trkpt><trkpt lat="43.295907" lon="11.6039466"><ele>302.0</ele><time>2026-05-02T07:32:57.189Z</time></trkpt><trkpt lat="43.2957471" lon="11.6042005"><ele>302.0</ele><time>2026-05-02T07:32:58.201Z</time></trkpt><trkpt lat="43.2955897" lon="11.6044668"><ele>302.5</ele><time>2026-05-02T07:32:59.2Z</time></trkpt><trkpt lat="43.2954299" lon="11.604738"><ele>303.0</ele><time>2026-05-02T07:33:00.185Z</time></trkpt><trkpt lat="43.2952678" lon="11.6050041"><ele>303.0</ele><time>2026-05-02T07:33:01.192Z</time></trkpt><trkpt lat="43.2950972" lon="11.6052744"><ele>303.0</ele><time>2026-05-02T07:33:02.188Z</time></trkpt><trkpt lat="43.2949305" lon="11.6055386"><ele>303.0</ele><time>2026-05-02T07:33:03.197Z</time></trkpt><trkpt lat="43.2947651" lon="11.6058064"><ele>303.0</ele><time>2026-05-02T07:33:04.201Z</time></trkpt><trkpt lat="43.2946025" lon="11.6060752"><ele>303.5</ele><time>2026-05-02T07:33:05.2Z</time></trkpt><trkpt lat="43.2944335" lon="11.6063433"><ele>304.0</ele><time>2026-05-02T07:33:06.188Z</time></trkpt><trkpt lat="43.2942645" lon="11.6066109"><ele>304.0</ele><time>2026-05-02T07:33:07.187Z</time></trkpt><trkpt lat="43.2940928" lon="11.6068771"><ele>304.0</ele><time>2026-05-02T07:33:08.202Z</time></trkpt><trkpt lat="43.2939289" lon="11.6071393"><ele>305.0</ele><time>2026-05-02T07:33:09.192Z</time></trkpt><trkpt lat="43.2937692" lon="11.6074012"><ele>306.0</ele><time>2026-05-02T07:33:10.191Z</time></trkpt><trkpt lat="43.2936081" lon="11.6076682"><ele>307.0</ele><time>2026-05-02T07:33:11.198Z</time></trkpt><trkpt lat="43.2934481" lon="11.6079281"><ele>308.0</ele><time>2026-05-02T07:33:12.191Z</time></trkpt><trkpt lat="43.2932819" lon="11.608192"><ele>308.0</ele><time>2026-05-02T07:33:13.193Z</time></trkpt><trkpt lat="43.2931172" lon="11.6084615"><ele>308.0</ele><time>2026-05-02T07:33:14.167Z</time></trkpt><trkpt lat="43.2929585" lon="11.6087277"><ele>309.0</ele><time>2026-05-02T07:33:15.201Z</time></trkpt><trkpt lat="43.2927944" lon="11.6089896"><ele>310.0</ele><time>2026-05-02T07:33:16.198Z</time></trkpt><trkpt lat="43.2926313" lon="11.6092512"><ele>312.5</ele><time>2026-05-02T07:33:17.181Z</time></trkpt><trkpt lat="43.2924647" lon="11.6095168"><ele>315.0</ele><time>2026-05-02T07:33:18.185Z</time></trkpt><trkpt lat="43.2923007" lon="11.6097867"><ele>315.0</ele><time>2026-05-02T07:33:19.198Z</time></trkpt><trkpt lat="43.2921337" lon="11.6100621"><ele>315.0</ele><time>2026-05-02T07:33:20.186Z</time></trkpt><trkpt lat="43.2919591" lon="11.6103302"><ele>315.0</ele><time>2026-05-02T07:33:21.207Z</time></trkpt><trkpt lat="43.2917883" lon="11.6106104"><ele>315.0</ele><time>2026-05-02T07:33:22.206Z</time></trkpt><trkpt lat="43.2916167" lon="11.6108916"><ele>314.0</ele><time>2026-05-02T07:33:23.185Z</time></trkpt><trkpt lat="43.2914491" lon="11.6111689"><ele>313.0</ele><time>2026-05-02T07:33:24.169Z</time></trkpt><trkpt lat="43.2912821" lon="11.6114445"><ele>313.0</ele><time>2026-05-02T07:33:25.193Z</time></trkpt><trkpt lat="43.2911133" lon="11.6117234"><ele>313.0</ele><time>2026-05-02T07:33:26.189Z</time></trkpt><trkpt lat="43.2909482" lon="11.6120001"><ele>314.0</ele><time>2026-05-02T07:33:27.182Z</time></trkpt><trkpt lat="43.2907835" lon="11.6122799"><ele>315.0</ele><time>2026-05-02T07:33:28.196Z</time></trkpt><trkpt lat="43.2906281" lon="11.6125637"><ele>314.0</ele><time>2026-05-02T07:33:29.2Z</time></trkpt><trkpt lat="43.2904808" lon="11.6128486"><ele>313.0</ele><time>2026-05-02T07:33:30.211Z</time></trkpt><trkpt lat="43.2903412" lon="11.6131349"><ele>313.0</ele><time>2026-05-02T07:33:31.18Z</time></trkpt><trkpt lat="43.2902144" lon="11.6134267"><ele>313.0</ele><time>2026-05-02T07:33:32.177Z</time></trkpt><trkpt lat="43.2901011" lon="11.613729"><ele>313.0</ele><time>2026-05-02T07:33:33.199Z</time></trkpt><trkpt lat="43.2899951" lon="11.6140331"><ele>313.0</ele><time>2026-05-02T07:33:34.181Z</time></trkpt><trkpt lat="43.2898991" lon="11.6143386"><ele>313.0</ele><time>2026-05-02T07:33:35.192Z</time></trkpt><trkpt lat="43.2898029" lon="11.6146586"><ele>313.0</ele><time>2026-05-02T07:33:36.182Z</time></trkpt><trkpt lat="43.2897305" lon="11.6149829"><ele>320.5</ele><time>2026-05-02T07:33:37.185Z</time></trkpt><trkpt lat="43.2896642" lon="11.6153105"><ele>328.0</ele><time>2026-05-02T07:33:38.198Z</time></trkpt><trkpt lat="43.2896092" lon="11.6156402"><ele>332.0</ele><time>2026-05-02T07:33:39.188Z</time></trkpt><trkpt lat="43.2895566" lon="11.6159782"><ele>336.0</ele><time>2026-05-02T07:33:40.187Z</time></trkpt><trkpt lat="43.2895201" lon="11.6163251"><ele>340.0</ele><time>2026-05-02T07:33:41.205Z</time></trkpt><trkpt lat="43.2894838" lon="11.6166763"><ele>344.0</ele><time>2026-05-02T07:33:42.188Z</time></trkpt><trkpt lat="43.2894482" lon="11.6170322"><ele>344.0</ele><time>2026-05-02T07:33:43.187Z</time></trkpt><trkpt lat="43.2894115" lon="11.6173874"><ele>344.0</ele><time>2026-05-02T07:33:44.188Z</time></trkpt><trkpt lat="43.2893761" lon="11.6177464"><ele>341.0</ele><time>2026-05-02T07:33:45.193Z</time></trkpt><trkpt lat="43.289337" lon="11.618109"><ele>338.0</ele><time>2026-05-02T07:33:46.158Z</time></trkpt><trkpt lat="43.2892953" lon="11.6184645"><ele>335.0</ele><time>2026-05-02T07:33:47.181Z</time></trkpt><trkpt lat="43.2892547" lon="11.6188207"><ele>332.0</ele><time>2026-05-02T07:33:48.182Z</time></trkpt><trkpt lat="43.2892161" lon="11.6191762"><ele>327.5</ele><time>2026-05-02T07:33:49.196Z</time></trkpt><trkpt lat="43.2891674" lon="11.6195248"><ele>323.0</ele><time>2026-05-02T07:33:50.18Z</time></trkpt><trkpt lat="43.2891114" lon="11.6198637"><ele>323.0</ele><time>2026-05-02T07:33:51.198Z</time></trkpt><trkpt lat="43.2890373" lon="11.6202025"><ele>323.0</ele><time>2026-05-02T07:33:52.187Z</time></trkpt><trkpt lat="43.2889475" lon="11.6205354"><ele>329.5</ele><time>2026-05-02T07:33:53.182Z</time></trkpt><trkpt lat="43.2888471" lon="11.620868"><ele>336.0</ele><time>2026-05-02T07:33:54.188Z</time></trkpt><trkpt lat="43.2887359" lon="11.6211969"><ele>336.0</ele><time>2026-05-02T07:33:55.184Z</time></trkpt><trkpt lat="43.2886097" lon="11.6215139"><ele>336.0</ele><time>2026-05-02T07:33:56.185Z</time></trkpt><trkpt lat="43.2884743" lon="11.6218297"><ele>329.0</ele><time>2026-05-02T07:33:57.188Z</time></trkpt><trkpt lat="43.2883324" lon="11.6221389"><ele>322.0</ele><time>2026-05-02T07:33:58.183Z</time></trkpt><trkpt lat="43.2881764" lon="11.6224291"><ele>321.5</ele><time>2026-05-02T07:33:59.187Z</time></trkpt><trkpt lat="43.2880086" lon="11.6227103"><ele>321.0</ele><time>2026-05-02T07:34:00.186Z</time></trkpt><trkpt lat="43.287833" lon="11.6229815"><ele>321.0</ele><time>2026-05-02T07:34:01.194Z</time></trkpt><trkpt lat="43.2876416" lon="11.6232567"><ele>321.0</ele><time>2026-05-02T07:34:02.174Z</time></trkpt><trkpt lat="43.2874432" lon="11.6235035"><ele>324.0</ele><time>2026-05-02T07:34:03.191Z</time></trkpt><trkpt lat="43.2872383" lon="11.6237399"><ele>327.0</ele><time>2026-05-02T07:34:04.19Z</time></trkpt><trkpt lat="43.2870208" lon="11.6239568"><ele>327.0</ele><time>2026-05-02T07:34:05.185Z</time></trkpt><trkpt lat="43.2867957" lon="11.6241659"><ele>327.0</ele><time>2026-05-02T07:34:06.188Z</time></trkpt><trkpt lat="43.2865699" lon="11.6243707"><ele>324.0</ele><time>2026-05-02T07:34:07.196Z</time></trkpt><trkpt lat="43.2863444" lon="11.6245797"><ele>321.0</ele><time>2026-05-02T07:34:08.2Z</time></trkpt><trkpt lat="43.2861183" lon="11.6247771"><ele>321.0</ele><time>2026-05-02T07:34:09.192Z</time></trkpt><trkpt lat="43.2858868" lon="11.6249755"><ele>321.0</ele><time>2026-05-02T07:34:10.188Z</time></trkpt><trkpt lat="43.2856536" lon="11.6251696"><ele>318.5</ele><time>2026-05-02T07:34:11.176Z</time></trkpt><trkpt lat="43.2854216" lon="11.625361"><ele>316.0</ele><time>2026-05-02T07:34:12.192Z</time></trkpt><trkpt lat="43.2851885" lon="11.6255552"><ele>316.0</ele><time>2026-05-02T07:34:13.198Z</time></trkpt><trkpt lat="43.2849614" lon="11.6257411"><ele>316.0</ele><time>2026-05-02T07:34:14.193Z</time></trkpt><trkpt lat="43.2847265" lon="11.6259325"><ele>315.5</ele><time>2026-05-02T07:34:15.2Z</time></trkpt><trkpt lat="43.2844913" lon="11.6261266"><ele>315.0</ele><time>2026-05-02T07:34:16.192Z</time></trkpt><trkpt lat="43.2842592" lon="11.626323"><ele>315.0</ele><time>2026-05-02T07:34:17.183Z</time></trkpt><trkpt lat="43.2840257" lon="11.6265192"><ele>315.0</ele><time>2026-05-02T07:34:18.173Z</time></trkpt><trkpt lat="43.2837924" lon="11.6267039"><ele>315.0</ele><time>2026-05-02T07:34:19.199Z</time></trkpt><trkpt lat="43.2835611" lon="11.6268808"><ele>315.0</ele><time>2026-05-02T07:34:20.2Z</time></trkpt><trkpt lat="43.2833288" lon="11.6270599"><ele>320.0</ele><time>2026-05-02T07:34:21.197Z</time></trkpt><trkpt lat="43.2830962" lon="11.6272375"><ele>325.0</ele><time>2026-05-02T07:34:22.204Z</time></trkpt><trkpt lat="43.2828672" lon="11.627412"><ele>325.0</ele><time>2026-05-02T07:34:23.19Z</time></trkpt><trkpt lat="43.2826327" lon="11.6275742"><ele>325.0</ele><time>2026-05-02T07:34:24.192Z</time></trkpt><trkpt lat="43.2823921" lon="11.6277181"><ele>329.5</ele><time>2026-05-02T07:34:25.19Z</time></trkpt><trkpt lat="43.2821543" lon="11.6278642"><ele>334.0</ele><time>2026-05-02T07:34:26.205Z</time></trkpt><trkpt lat="43.2819087" lon="11.6280067"><ele>334.0</ele><time>2026-05-02T07:34:27.181Z</time></trkpt><trkpt lat="43.2816591" lon="11.628142"><ele>334.0</ele><time>2026-05-02T07:34:28.192Z</time></trkpt><trkpt lat="43.2814051" lon="11.6282702"><ele>338.0</ele><time>2026-05-02T07:34:29.19Z</time></trkpt><trkpt lat="43.2811474" lon="11.6283889"><ele>342.0</ele><time>2026-05-02T07:34:30.2Z</time></trkpt><trkpt lat="43.2808861" lon="11.6285033"><ele>342.0</ele><time>2026-05-02T07:34:31.194Z</time></trkpt><trkpt lat="43.2806221" lon="11.6286071"><ele>342.0</ele><time>2026-05-02T07:34:32.192Z</time></trkpt><trkpt lat="43.2803565" lon="11.6287068"><ele>342.0</ele><time>2026-05-02T07:34:33.19Z</time></trkpt><trkpt lat="43.2800916" lon="11.6288015"><ele>342.0</ele><time>2026-05-02T07:34:34.175Z</time></trkpt><trkpt lat="43.2798225" lon="11.6288885"><ele>341.0</ele><time>2026-05-02T07:34:35.158Z</time></trkpt><trkpt lat="43.2795515" lon="11.6289654"><ele>340.0</ele><time>2026-05-02T07:34:36.167Z</time></trkpt><trkpt lat="43.2792844" lon="11.6290339"><ele>340.0</ele><time>2026-05-02T07:34:37.194Z</time></trkpt><trkpt lat="43.279022" lon="11.6290991"><ele>340.0</ele><time>2026-05-02T07:34:38.172Z</time></trkpt><trkpt lat="43.2787555" lon="11.6291572"><ele>339.0</ele><time>2026-05-02T07:34:39.176Z</time></trkpt><trkpt lat="43.2784903" lon="11.6292132"><ele>338.0</ele><time>2026-05-02T07:34:40.186Z</time></trkpt><trkpt lat="43.2782195" lon="11.6292585"><ele>336.5</ele><time>2026-05-02T07:34:41.187Z</time></trkpt><trkpt lat="43.277955" lon="11.6292891"><ele>335.0</ele><time>2026-05-02T07:34:42.194Z</time></trkpt><trkpt lat="43.2776784" lon="11.6293037"><ele>335.0</ele><time>2026-05-02T07:34:43.195Z</time></trkpt><trkpt lat="43.2774054" lon="11.6293183"><ele>335.0</ele><time>2026-05-02T07:34:44.187Z</time></trkpt><trkpt lat="43.2771341" lon="11.629331"><ele>334.0</ele><time>2026-05-02T07:34:45.188Z</time></trkpt><trkpt lat="43.27687" lon="11.6293353"><ele>333.0</ele><time>2026-05-02T07:34:46.184Z</time></trkpt><trkpt lat="43.2765992" lon="11.6293286"><ele>329.0</ele><time>2026-05-02T07:34:47.186Z</time></trkpt><trkpt lat="43.2763245" lon="11.6293224"><ele>325.0</ele><time>2026-05-02T07:34:48.2Z</time></trkpt><trkpt lat="43.2760537" lon="11.6293136"><ele>325.0</ele><time>2026-05-02T07:34:49.193Z</time></trkpt><trkpt lat="43.2757782" lon="11.6292994"><ele>325.0</ele><time>2026-05-02T07:34:50.191Z</time></trkpt><trkpt lat="43.2755031" lon="11.6292917"><ele>323.0</ele><time>2026-05-02T07:34:51.194Z</time></trkpt><trkpt lat="43.2752348" lon="11.6292816"><ele>321.0</ele><time>2026-05-02T07:34:52.189Z</time></trkpt><trkpt lat="43.2749657" lon="11.6292733"><ele>318.0</ele><time>2026-05-02T07:34:53.202Z</time></trkpt><trkpt lat="43.274697" lon="11.6292599"><ele>315.0</ele><time>2026-05-02T07:34:54.188Z</time></trkpt><trkpt lat="43.2744167" lon="11.6292512"><ele>315.0</ele><time>2026-05-02T07:34:55.197Z</time></trkpt><trkpt lat="43.2741365" lon="11.6292485"><ele>315.0</ele><time>2026-05-02T07:34:56.186Z</time></trkpt><trkpt lat="43.2738604" lon="11.6292438"><ele>312.5</ele><time>2026-05-02T07:34:57.185Z</time></trkpt><trkpt lat="43.2735828" lon="11.6292342"><ele>310.0</ele><time>2026-05-02T07:34:58.201Z</time></trkpt><trkpt lat="43.2733074" lon="11.629226"><ele>308.5</ele><time>2026-05-02T07:34:59.196Z</time></trkpt><trkpt lat="43.2730298" lon="11.6292217"><ele>307.0</ele><time>2026-05-02T07:35:00.188Z</time></trkpt><trkpt lat="43.2727571" lon="11.6292138"><ele>307.0</ele><time>2026-05-02T07:35:01.194Z</time></trkpt><trkpt lat="43.2724833" lon="11.629206"><ele>307.0</ele><time>2026-05-02T07:35:02.195Z</time></trkpt><trkpt lat="43.2722112" lon="11.6292022"><ele>306.5</ele><time>2026-05-02T07:35:03.193Z</time></trkpt><trkpt lat="43.2719338" lon="11.6291953"><ele>306.0</ele><time>2026-05-02T07:35:04.191Z</time></trkpt><trkpt lat="43.2716602" lon="11.6291876"><ele>304.5</ele><time>2026-05-02T07:35:05.184Z</time></trkpt><trkpt lat="43.2713853" lon="11.6291812"><ele>303.0</ele><time>2026-05-02T07:35:06.191Z</time></trkpt><trkpt lat="43.2711085" lon="11.6291782"><ele>303.0</ele><time>2026-05-02T07:35:07.183Z</time></trkpt><trkpt lat="43.2708301" lon="11.6291702"><ele>303.0</ele><time>2026-05-02T07:35:08.179Z</time></trkpt><trkpt lat="43.2705588" lon="11.6291607"><ele>302.5</ele><time>2026-05-02T07:35:09.184Z</time></trkpt><trkpt lat="43.2702882" lon="11.6291541"><ele>302.0</ele><time>2026-05-02T07:35:10.188Z</time></trkpt><trkpt lat="43.2700244" lon="11.6291434"><ele>302.5</ele><time>2026-05-02T07:35:11.193Z</time></trkpt><trkpt lat="43.2697617" lon="11.6291277"><ele>303.0</ele><time>2026-05-02T07:35:12.184Z</time></trkpt><trkpt lat="43.2695087" lon="11.6291118"><ele>303.0</ele><time>2026-05-02T07:35:13.189Z</time></trkpt><trkpt lat="43.2692608" lon="11.6291068"><ele>303.0</ele><time>2026-05-02T07:35:14.207Z</time></trkpt><trkpt lat="43.2690115" lon="11.6291056"><ele>302.0</ele><time>2026-05-02T07:35:15.194Z</time></trkpt><trkpt lat="43.2687575" lon="11.6290967"><ele>301.0</ele><time>2026-05-02T07:35:16.193Z</time></trkpt><trkpt lat="43.2685004" lon="11.6290886"><ele>301.0</ele><time>2026-05-02T07:35:17.171Z</time></trkpt><trkpt lat="43.2682457" lon="11.6290902"><ele>301.0</ele><time>2026-05-02T07:35:18.197Z</time></trkpt><trkpt lat="43.2679902" lon="11.6290903"><ele>301.0</ele><time>2026-05-02T07:35:19.204Z</time></trkpt><trkpt lat="43.2677337" lon="11.6290786"><ele>301.0</ele><time>2026-05-02T07:35:20.196Z</time></trkpt><trkpt lat="43.2674776" lon="11.6290676"><ele>302.0</ele><time>2026-05-02T07:35:21.175Z</time></trkpt><trkpt lat="43.2672222" lon="11.6290691"><ele>303.0</ele><time>2026-05-02T07:35:22.19Z</time></trkpt><trkpt lat="43.266963" lon="11.6290597"><ele>303.0</ele><time>2026-05-02T07:35:23.197Z</time></trkpt><trkpt lat="43.2667067" lon="11.6290573"><ele>303.0</ele><time>2026-05-02T07:35:24.195Z</time></trkpt><trkpt lat="43.2664441" lon="11.6290629"><ele>302.5</ele><time>2026-05-02T07:35:25.197Z</time></trkpt><trkpt lat="43.2661839" lon="11.6290739"><ele>302.0</ele><time>2026-05-02T07:35:26.192Z</time></trkpt><trkpt lat="43.2659216" lon="11.629097"><ele>302.0</ele><time>2026-05-02T07:35:27.205Z</time></trkpt><trkpt lat="43.2656526" lon="11.629123"><ele>302.0</ele><time>2026-05-02T07:35:28.188Z</time></trkpt><trkpt lat="43.2653873" lon="11.6291561"><ele>303.0</ele><time>2026-05-02T07:35:29.192Z</time></trkpt><trkpt lat="43.2651193" lon="11.6292022"><ele>304.0</ele><time>2026-05-02T07:35:30.196Z</time></trkpt><trkpt lat="43.2648578" lon="11.6292595"><ele>305.5</ele><time>2026-05-02T07:35:31.187Z</time></trkpt><trkpt lat="43.2645917" lon="11.6293334"><ele>307.0</ele><time>2026-05-02T07:35:32.192Z</time></trkpt><trkpt lat="43.2643314" lon="11.6294254"><ele>306.5</ele><time>2026-05-02T07:35:33.195Z</time></trkpt><trkpt lat="43.2640704" lon="11.6295256"><ele>306.0</ele><time>2026-05-02T07:35:34.189Z</time></trkpt><trkpt lat="43.2638056" lon="11.6296402"><ele>306.0</ele><time>2026-05-02T07:35:35.187Z</time></trkpt><trkpt lat="43.2635442" lon="11.6297559"><ele>306.0</ele><time>2026-05-02T07:35:36.186Z</time></trkpt><trkpt lat="43.2632855" lon="11.6298744"><ele>308.5</ele><time>2026-05-02T07:35:37.186Z</time></trkpt><trkpt lat="43.2630273" lon="11.6299963"><ele>311.0</ele><time>2026-05-02T07:35:38.185Z</time></trkpt><trkpt lat="43.2627668" lon="11.6301278"><ele>311.0</ele><time>2026-05-02T07:35:39.159Z</time></trkpt><trkpt lat="43.2625025" lon="11.6302576"><ele>311.0</ele><time>2026-05-02T07:35:40.179Z</time></trkpt><trkpt lat="43.2622321" lon="11.6303848"><ele>308.0</ele><time>2026-05-02T07:35:41.189Z</time></trkpt><trkpt lat="43.2619658" lon="11.6305094"><ele>305.0</ele><time>2026-05-02T07:35:42.194Z</time></trkpt><trkpt lat="43.2616954" lon="11.6306413"><ele>307.5</ele><time>2026-05-02T07:35:43.188Z</time></trkpt><trkpt lat="43.261426" lon="11.6307664"><ele>310.0</ele><time>2026-05-02T07:35:44.195Z</time></trkpt><trkpt lat="43.2611606" lon="11.6308914"><ele>310.0</ele><time>2026-05-02T07:35:45.204Z</time></trkpt><trkpt lat="43.2608942" lon="11.6310192"><ele>310.0</ele><time>2026-05-02T07:35:46.178Z</time></trkpt><trkpt lat="43.2606245" lon="11.6311453"><ele>305.5</ele><time>2026-05-02T07:35:47.201Z</time></trkpt><trkpt lat="43.2603566" lon="11.6312687"><ele>301.0</ele><time>2026-05-02T07:35:48.208Z</time></trkpt><trkpt lat="43.260082" lon="11.6313973"><ele>301.0</ele><time>2026-05-02T07:35:49.182Z</time></trkpt><trkpt lat="43.2598155" lon="11.6315258"><ele>301.0</ele><time>2026-05-02T07:35:50.185Z</time></trkpt><trkpt lat="43.2595436" lon="11.6316503"><ele>300.5</ele><time>2026-05-02T07:35:51.192Z</time></trkpt><trkpt lat="43.2592733" lon="11.6317755"><ele>300.0</ele><time>2026-05-02T07:35:52.181Z</time></trkpt><trkpt lat="43.259008" lon="11.631905"><ele>299.0</ele><time>2026-05-02T07:35:53.203Z</time></trkpt><trkpt lat="43.2587408" lon="11.632032"><ele>298.0</ele><time>2026-05-02T07:35:54.193Z</time></trkpt><trkpt lat="43.2584843" lon="11.6321537"><ele>298.0</ele><time>2026-05-02T07:35:55.185Z</time></trkpt><trkpt lat="43.2582297" lon="11.632289"><ele>298.0</ele><time>2026-05-02T07:35:56.183Z</time></trkpt><trkpt lat="43.2579787" lon="11.6324304"><ele>299.5</ele><time>2026-05-02T07:35:57.198Z</time></trkpt><trkpt lat="43.2577294" lon="11.6325859"><ele>301.0</ele><time>2026-05-02T07:35:58.187Z</time></trkpt><trkpt lat="43.2574841" lon="11.6327383"><ele>299.0</ele><time>2026-05-02T07:35:59.201Z</time></trkpt><trkpt lat="43.2572463" lon="11.6329054"><ele>297.0</ele><time>2026-05-02T07:36:00.198Z</time></trkpt><trkpt lat="43.2570108" lon="11.633081"><ele>297.0</ele><time>2026-05-02T07:36:01.172Z</time></trkpt><trkpt lat="43.2567842" lon="11.6332798"><ele>297.0</ele><time>2026-05-02T07:36:02.198Z</time></trkpt><trkpt lat="43.2565578" lon="11.6334778"><ele>295.5</ele><time>2026-05-02T07:36:03.196Z</time></trkpt><trkpt lat="43.2563398" lon="11.6336795"><ele>294.0</ele><time>2026-05-02T07:36:04.185Z</time></trkpt><trkpt lat="43.2561183" lon="11.6338861"><ele>294.0</ele><time>2026-05-02T07:36:05.192Z</time></trkpt><trkpt lat="43.2559011" lon="11.634099"><ele>294.0</ele><time>2026-05-02T07:36:06.196Z</time></trkpt><trkpt lat="43.2556817" lon="11.6343155"><ele>295.5</ele><time>2026-05-02T07:36:07.21Z</time></trkpt><trkpt lat="43.2554652" lon="11.6345268"><ele>297.0</ele><time>2026-05-02T07:36:08.18Z</time></trkpt><trkpt lat="43.255244" lon="11.634741"><ele>297.0</ele><time>2026-05-02T07:36:09.188Z</time></trkpt><trkpt lat="43.2550238" lon="11.6349556"><ele>297.0</ele><time>2026-05-02T07:36:10.184Z</time></trkpt><trkpt lat="43.2548065" lon="11.6351671"><ele>296.5</ele><time>2026-05-02T07:36:11.204Z</time></trkpt><trkpt lat="43.2545918" lon="11.6353771"><ele>296.0</ele><time>2026-05-02T07:36:12.189Z</time></trkpt><trkpt lat="43.2543859" lon="11.6355996"><ele>296.0</ele><time>2026-05-02T07:36:13.19Z</time></trkpt><trkpt lat="43.2541757" lon="11.6358233"><ele>296.0</ele><time>2026-05-02T07:36:14.193Z</time></trkpt><trkpt lat="43.2539709" lon="11.6360538"><ele>295.5</ele><time>2026-05-02T07:36:15.194Z</time></trkpt><trkpt lat="43.2537629" lon="11.6362885"><ele>295.0</ele><time>2026-05-02T07:36:16.187Z</time></trkpt><trkpt lat="43.2535595" lon="11.6365378"><ele>295.0</ele><time>2026-05-02T07:36:17.195Z</time></trkpt><trkpt lat="43.2533684" lon="11.636798"><ele>295.0</ele><time>2026-05-02T07:36:18.183Z</time></trkpt><trkpt lat="43.2531721" lon="11.637075"><ele>294.5</ele><time>2026-05-02T07:36:19.203Z</time></trkpt><trkpt lat="43.2529809" lon="11.6373493"><ele>294.0</ele><time>2026-05-02T07:36:20.192Z</time></trkpt><trkpt lat="43.2527959" lon="11.6376335"><ele>292.5</ele><time>2026-05-02T07:36:21.205Z</time></trkpt><trkpt lat="43.2526123" lon="11.6379136"><ele>291.0</ele><time>2026-05-02T07:36:22.189Z</time></trkpt><trkpt lat="43.2524312" lon="11.6381954"><ele>291.0</ele><time>2026-05-02T07:36:23.165Z</time></trkpt><trkpt lat="43.2522529" lon="11.6384793"><ele>291.0</ele><time>2026-05-02T07:36:24.196Z</time></trkpt><trkpt lat="43.252077" lon="11.6387691"><ele>291.0</ele><time>2026-05-02T07:36:25.195Z</time></trkpt><trkpt lat="43.2519055" lon="11.6390571"><ele>291.0</ele><time>2026-05-02T07:36:26.179Z</time></trkpt><trkpt lat="43.2517285" lon="11.6393441"><ele>290.5</ele><time>2026-05-02T07:36:27.2Z</time></trkpt><trkpt lat="43.2515524" lon="11.6396227"><ele>290.0</ele><time>2026-05-02T07:36:28.197Z</time></trkpt><trkpt lat="43.2513822" lon="11.6399046"><ele>290.0</ele><time>2026-05-02T07:36:29.193Z</time></trkpt><trkpt lat="43.2512073" lon="11.6401837"><ele>290.0</ele><time>2026-05-02T07:36:30.204Z</time></trkpt><trkpt lat="43.2510352" lon="11.6404653"><ele>289.5</ele><time>2026-05-02T07:36:31.189Z</time></trkpt><trkpt lat="43.2508646" lon="11.6407465"><ele>289.0</ele><time>2026-05-02T07:36:32.189Z</time></trkpt><trkpt lat="43.2506917" lon="11.641033"><ele>289.5</ele><time>2026-05-02T07:36:33.194Z</time></trkpt><trkpt lat="43.2505171" lon="11.6413143"><ele>290.0</ele><time>2026-05-02T07:36:34.206Z</time></trkpt><trkpt lat="43.2503432" lon="11.6415938"><ele>290.0</ele><time>2026-05-02T07:36:35.187Z</time></trkpt><trkpt lat="43.2501667" lon="11.6418765"><ele>290.0</ele><time>2026-05-02T07:36:36.2Z</time></trkpt><trkpt lat="43.249989" lon="11.6421574"><ele>290.0</ele><time>2026-05-02T07:36:37.192Z</time></trkpt><trkpt lat="43.249809" lon="11.6424397"><ele>290.0</ele><time>2026-05-02T07:36:38.193Z</time></trkpt><trkpt lat="43.2496349" lon="11.6427251"><ele>290.0</ele><time>2026-05-02T07:36:39.198Z</time></trkpt><trkpt lat="43.2494621" lon="11.6430102"><ele>290.0</ele><time>2026-05-02T07:36:40.193Z</time></trkpt><trkpt lat="43.2492898" lon="11.6432949"><ele>290.0</ele><time>2026-05-02T07:36:41.191Z</time></trkpt><trkpt lat="43.2491197" lon="11.6435744"><ele>290.0</ele><time>2026-05-02T07:36:42.178Z</time></trkpt><trkpt lat="43.2489556" lon="11.6438473"><ele>290.0</ele><time>2026-05-02T07:36:43.191Z</time></trkpt><trkpt lat="43.2487878" lon="11.6441254"><ele>290.0</ele><time>2026-05-02T07:36:44.204Z</time></trkpt><trkpt lat="43.2486229" lon="11.6444029"><ele>289.5</ele><time>2026-05-02T07:36:45.193Z</time></trkpt><trkpt lat="43.2484607" lon="11.6446837"><ele>289.0</ele><time>2026-05-02T07:36:46.185Z</time></trkpt><trkpt lat="43.2482924" lon="11.6449686"><ele>288.5</ele><time>2026-05-02T07:36:47.174Z</time></trkpt><trkpt lat="43.2481249" lon="11.645255"><ele>288.0</ele><time>2026-05-02T07:36:48.213Z</time></trkpt><trkpt lat="43.2479685" lon="11.6455426"><ele>288.0</ele><time>2026-05-02T07:36:49.197Z</time></trkpt><trkpt lat="43.2478152" lon="11.645838"><ele>288.0</ele><time>2026-05-02T07:36:50.203Z</time></trkpt><trkpt lat="43.2476769" lon="11.6461362"><ele>288.0</ele><time>2026-05-02T07:36:51.19Z</time></trkpt><trkpt lat="43.2475393" lon="11.6464494"><ele>288.0</ele><time>2026-05-02T07:36:52.189Z</time></trkpt><trkpt lat="43.2474054" lon="11.6467612"><ele>288.0</ele><time>2026-05-02T07:36:53.193Z</time></trkpt><trkpt lat="43.2472861" lon="11.647089"><ele>288.0</ele><time>2026-05-02T07:36:54.201Z</time></trkpt><trkpt lat="43.2471725" lon="11.647418"><ele>288.0</ele><time>2026-05-02T07:36:55.189Z</time></trkpt><trkpt lat="43.247069" lon="11.6477566"><ele>288.0</ele><time>2026-05-02T07:36:56.206Z</time></trkpt><trkpt lat="43.2469737" lon="11.6480951"><ele>287.5</ele><time>2026-05-02T07:36:57.19Z</time></trkpt><trkpt lat="43.2468936" lon="11.6484368"><ele>287.0</ele><time>2026-05-02T07:36:58.186Z</time></trkpt><trkpt lat="43.2468252" lon="11.648793"><ele>287.0</ele><time>2026-05-02T07:36:59.185Z</time></trkpt><trkpt lat="43.2467662" lon="11.6491425"><ele>287.0</ele><time>2026-05-02T07:37:00.186Z</time></trkpt><trkpt lat="43.2467128" lon="11.6494979"><ele>287.0</ele><time>2026-05-02T07:37:01.186Z</time></trkpt><trkpt lat="43.2466725" lon="11.6498502"><ele>287.0</ele><time>2026-05-02T07:37:02.188Z</time></trkpt><trkpt lat="43.2466341" lon="11.6502143"><ele>287.0</ele><time>2026-05-02T07:37:03.207Z</time></trkpt><trkpt lat="43.2466129" lon="11.6505712"><ele>287.0</ele><time>2026-05-02T07:37:04.186Z</time></trkpt><trkpt lat="43.2466037" lon="11.6509266"><ele>287.0</ele><time>2026-05-02T07:37:05.198Z</time></trkpt><trkpt lat="43.2465945" lon="11.6512834"><ele>287.0</ele><time>2026-05-02T07:37:06.188Z</time></trkpt><trkpt lat="43.2465974" lon="11.6516441"><ele>287.0</ele><time>2026-05-02T07:37:07.199Z</time></trkpt><trkpt lat="43.246613" lon="11.6520022"><ele>287.0</ele><time>2026-05-02T07:37:08.178Z</time></trkpt><trkpt lat="43.2466411" lon="11.6523669"><ele>287.0</ele><time>2026-05-02T07:37:09.194Z</time></trkpt><trkpt lat="43.2466757" lon="11.6527243"><ele>287.0</ele><time>2026-05-02T07:37:10.197Z</time></trkpt><trkpt lat="43.2467215" lon="11.6530788"><ele>287.0</ele><time>2026-05-02T07:37:11.2Z</time></trkpt><trkpt lat="43.2467648" lon="11.6534365"><ele>287.0</ele><time>2026-05-02T07:37:12.191Z</time></trkpt><trkpt lat="43.2468149" lon="11.6537933"><ele>287.0</ele><time>2026-05-02T07:37:13.17Z</time></trkpt><trkpt lat="43.246871" lon="11.6541524"><ele>287.0</ele><time>2026-05-02T07:37:14.158Z</time></trkpt><trkpt lat="43.2469406" lon="11.6545089"><ele>290.5</ele><time>2026-05-02T07:37:15.179Z</time></trkpt><trkpt lat="43.2470009" lon="11.6548641"><ele>294.0</ele><time>2026-05-02T07:37:16.165Z</time></trkpt><trkpt lat="43.2470576" lon="11.6552213"><ele>295.5</ele><time>2026-05-02T07:37:17.179Z</time></trkpt><trkpt lat="43.2471151" lon="11.6555727"><ele>297.0</ele><time>2026-05-02T07:37:18.171Z</time></trkpt><trkpt lat="43.247177" lon="11.6559239"><ele>295.5</ele><time>2026-05-02T07:37:19.187Z</time></trkpt><trkpt lat="43.2472381" lon="11.6562775"><ele>294.0</ele><time>2026-05-02T07:37:20.177Z</time></trkpt><trkpt lat="43.2472983" lon="11.6566276"><ele>290.5</ele><time>2026-05-02T07:37:21.195Z</time></trkpt><trkpt lat="43.24736" lon="11.6569779"><ele>287.0</ele><time>2026-05-02T07:37:22.195Z</time></trkpt><trkpt lat="43.2474202" lon="11.6573208"><ele>287.0</ele><time>2026-05-02T07:37:23.19Z</time></trkpt><trkpt lat="43.2474766" lon="11.6576715"><ele>287.0</ele><time>2026-05-02T07:37:24.161Z</time></trkpt><trkpt lat="43.2475255" lon="11.6580283"><ele>287.0</ele><time>2026-05-02T07:37:25.16Z</time></trkpt><trkpt lat="43.247574" lon="11.6583867"><ele>287.0</ele><time>2026-05-02T07:37:26.155Z</time></trkpt><trkpt lat="43.2476282" lon="11.6587415"><ele>287.0</ele><time>2026-05-02T07:37:27.163Z</time></trkpt><trkpt lat="43.2476792" lon="11.6590947"><ele>287.0</ele><time>2026-05-02T07:37:28.157Z</time></trkpt><trkpt lat="43.2477346" lon="11.6594503"><ele>287.0</ele><time>2026-05-02T07:37:29.164Z</time></trkpt><trkpt lat="43.2477913" lon="11.6598037"><ele>287.0</ele><time>2026-05-02T07:37:30.188Z</time></trkpt><trkpt lat="43.2478518" lon="11.6601506"><ele>287.5</ele><time>2026-05-02T07:37:31.187Z</time></trkpt><trkpt lat="43.2479101" lon="11.6605045"><ele>288.0</ele><time>2026-05-02T07:37:32.197Z</time></trkpt><trkpt lat="43.2479647" lon="11.6608602"><ele>289.5</ele><time>2026-05-02T07:37:33.193Z</time></trkpt><trkpt lat="43.2480232" lon="11.6612152"><ele>291.0</ele><time>2026-05-02T07:37:34.175Z</time></trkpt><trkpt lat="43.2480826" lon="11.6615664"><ele>289.5</ele><time>2026-05-02T07:37:35.19Z</time></trkpt><trkpt lat="43.2481337" lon="11.6619187"><ele>288.0</ele><time>2026-05-02T07:37:36.189Z</time></trkpt><trkpt lat="43.2481894" lon="11.6622724"><ele>288.0</ele><time>2026-05-02T07:37:37.191Z</time></trkpt><trkpt lat="43.2482463" lon="11.6626265"><ele>288.0</ele><time>2026-05-02T07:37:38.181Z</time></trkpt><trkpt lat="43.2483057" lon="11.6629803"><ele>288.0</ele><time>2026-05-02T07:37:39.179Z</time></trkpt><trkpt lat="43.2483641" lon="11.6633402"><ele>288.0</ele><time>2026-05-02T07:37:40.155Z</time></trkpt><trkpt lat="43.2484186" lon="11.6637072"><ele>290.0</ele><time>2026-05-02T07:37:41.174Z</time></trkpt><trkpt lat="43.2484748" lon="11.6640718"><ele>292.0</ele><time>2026-05-02T07:37:42.177Z</time></trkpt><trkpt lat="43.248532" lon="11.6644277"><ele>295.0</ele><time>2026-05-02T07:37:43.164Z</time></trkpt><trkpt lat="43.248592" lon="11.6647833"><ele>298.0</ele><time>2026-05-02T07:37:44.175Z</time></trkpt><trkpt lat="43.2486523" lon="11.6651401"><ele>300.5</ele><time>2026-05-02T07:37:45.178Z</time></trkpt><trkpt lat="43.2487198" lon="11.6654929"><ele>303.0</ele><time>2026-05-02T07:37:46.198Z</time></trkpt><trkpt lat="43.2487934" lon="11.6658458"><ele>304.0</ele><time>2026-05-02T07:37:47.195Z</time></trkpt><trkpt lat="43.2488695" lon="11.6661949"><ele>305.0</ele><time>2026-05-02T07:37:48.199Z</time></trkpt><trkpt lat="43.2489468" lon="11.6665378"><ele>297.0</ele><time>2026-05-02T07:37:49.188Z</time></trkpt><trkpt lat="43.2490289" lon="11.6668873"><ele>289.0</ele><time>2026-05-02T07:37:50.192Z</time></trkpt><trkpt lat="43.2491188" lon="11.6672387"><ele>289.0</ele><time>2026-05-02T07:37:51.186Z</time></trkpt><trkpt lat="43.2492137" lon="11.6675829"><ele>289.0</ele><time>2026-05-02T07:37:52.19Z</time></trkpt><trkpt lat="43.249311" lon="11.6679375"><ele>288.5</ele><time>2026-05-02T07:37:53.181Z</time></trkpt><trkpt lat="43.249411" lon="11.6682809"><ele>288.0</ele><time>2026-05-02T07:37:54.197Z</time></trkpt><trkpt lat="43.2495184" lon="11.6686245"><ele>289.0</ele><time>2026-05-02T07:37:55.193Z</time></trkpt><trkpt lat="43.2496326" lon="11.6689744"><ele>290.0</ele><time>2026-05-02T07:37:56.186Z</time></trkpt><trkpt lat="43.2497436" lon="11.669321"><ele>289.0</ele><time>2026-05-02T07:37:57.183Z</time></trkpt><trkpt lat="43.2498646" lon="11.6696671"><ele>288.0</ele><time>2026-05-02T07:37:58.197Z</time></trkpt><trkpt lat="43.2499908" lon="11.6700096"><ele>291.0</ele><time>2026-05-02T07:37:59.186Z</time></trkpt><trkpt lat="43.2501112" lon="11.6703495"><ele>294.0</ele><time>2026-05-02T07:38:00.19Z</time></trkpt><trkpt lat="43.250232" lon="11.6706917"><ele>294.0</ele><time>2026-05-02T07:38:01.197Z</time></trkpt><trkpt lat="43.2503532" lon="11.6710258"><ele>294.0</ele><time>2026-05-02T07:38:02.186Z</time></trkpt><trkpt lat="43.250473" lon="11.6713574"><ele>292.5</ele><time>2026-05-02T07:38:03.178Z</time></trkpt><trkpt lat="43.2505987" lon="11.671695"><ele>291.0</ele><time>2026-05-02T07:38:04.176Z</time></trkpt><trkpt lat="43.2507199" lon="11.6720261"><ele>291.0</ele><time>2026-05-02T07:38:05.18Z</time></trkpt><trkpt lat="43.2508409" lon="11.6723613"><ele>291.0</ele><time>2026-05-02T07:38:06.179Z</time></trkpt><trkpt lat="43.2509687" lon="11.6726934"><ele>294.5</ele><time>2026-05-02T07:38:07.19Z</time></trkpt><trkpt lat="43.2510887" lon="11.6730279"><ele>298.0</ele><time>2026-05-02T07:38:08.188Z</time></trkpt><trkpt lat="43.251207" lon="11.6733648"><ele>300.5</ele><time>2026-05-02T07:38:09.184Z</time></trkpt><trkpt lat="43.2513282" lon="11.6737045"><ele>303.0</ele><time>2026-05-02T07:38:10.186Z</time></trkpt><trkpt lat="43.2514364" lon="11.6740442"><ele>299.0</ele><time>2026-05-02T07:38:11.196Z</time></trkpt><trkpt lat="43.2515358" lon="11.67439"><ele>295.0</ele><time>2026-05-02T07:38:12.185Z</time></trkpt><trkpt lat="43.251629" lon="11.6747441"><ele>295.0</ele><time>2026-05-02T07:38:13.182Z</time></trkpt><trkpt lat="43.2517123" lon="11.6750948"><ele>295.0</ele><time>2026-05-02T07:38:14.195Z</time></trkpt><trkpt lat="43.2517896" lon="11.6754571"><ele>296.5</ele><time>2026-05-02T07:38:15.187Z</time></trkpt><trkpt lat="43.2518563" lon="11.6758229"><ele>298.0</ele><time>2026-05-02T07:38:16.192Z</time></trkpt><trkpt lat="43.2519128" lon="11.6761777"><ele>300.5</ele><time>2026-05-02T07:38:17.185Z</time></trkpt><trkpt lat="43.2519706" lon="11.6765402"><ele>303.0</ele><time>2026-05-02T07:38:18.192Z</time></trkpt><trkpt lat="43.2520299" lon="11.6768984"><ele>301.0</ele><time>2026-05-02T07:38:19.188Z</time></trkpt><trkpt lat="43.2520932" lon="11.6772537"><ele>299.0</ele><time>2026-05-02T07:38:20.184Z</time></trkpt><trkpt lat="43.2521505" lon="11.6776139"><ele>298.5</ele><time>2026-05-02T07:38:21.184Z</time></trkpt><trkpt lat="43.2522098" lon="11.6779665"><ele>298.0</ele><time>2026-05-02T07:38:22.195Z</time></trkpt><trkpt lat="43.252276" lon="11.6783295"><ele>290.0</ele><time>2026-05-02T07:38:23.193Z</time></trkpt><trkpt lat="43.2523423" lon="11.6786909"><ele>282.0</ele><time>2026-05-02T07:38:24.191Z</time></trkpt><trkpt lat="43.2524128" lon="11.6790517"><ele>282.0</ele><time>2026-05-02T07:38:25.176Z</time></trkpt><trkpt lat="43.2524871" lon="11.6794166"><ele>282.0</ele><time>2026-05-02T07:38:26.191Z</time></trkpt><trkpt lat="43.2525659" lon="11.6797863"><ele>281.5</ele><time>2026-05-02T07:38:27.19Z</time></trkpt><trkpt lat="43.2526446" lon="11.680152"><ele>281.0</ele><time>2026-05-02T07:38:28.193Z</time></trkpt><trkpt lat="43.252726" lon="11.680515"><ele>280.5</ele><time>2026-05-02T07:38:29.194Z</time></trkpt><trkpt lat="43.2528067" lon="11.6808775"><ele>280.0</ele><time>2026-05-02T07:38:30.197Z</time></trkpt><trkpt lat="43.2528908" lon="11.6812456"><ele>281.0</ele><time>2026-05-02T07:38:31.188Z</time></trkpt><trkpt lat="43.2529792" lon="11.6816055"><ele>282.0</ele><time>2026-05-02T07:38:32.197Z</time></trkpt><trkpt lat="43.2530622" lon="11.681972"><ele>284.0</ele><time>2026-05-02T07:38:33.186Z</time></trkpt><trkpt lat="43.2531447" lon="11.6823423"><ele>286.0</ele><time>2026-05-02T07:38:34.19Z</time></trkpt><trkpt lat="43.2532289" lon="11.6827133"><ele>284.0</ele><time>2026-05-02T07:38:35.188Z</time></trkpt><trkpt lat="43.2533074" lon="11.6830782"><ele>282.0</ele><time>2026-05-02T07:38:36.189Z</time></trkpt><trkpt lat="43.2533905" lon="11.6834438"><ele>284.0</ele><time>2026-05-02T07:38:37.183Z</time></trkpt><trkpt lat="43.2534754" lon="11.6838065"><ele>286.0</ele><time>2026-05-02T07:38:38.195Z</time></trkpt><trkpt lat="43.2535589" lon="11.6841674"><ele>289.0</ele><time>2026-05-02T07:38:39.193Z</time></trkpt><trkpt lat="43.2536494" lon="11.6845317"><ele>292.0</ele><time>2026-05-02T07:38:40.176Z</time></trkpt><trkpt lat="43.2537465" lon="11.6848887"><ele>292.0</ele><time>2026-05-02T07:38:41.18Z</time></trkpt><trkpt lat="43.253849" lon="11.6852488"><ele>292.0</ele><time>2026-05-02T07:38:42.198Z</time></trkpt><trkpt lat="43.2539606" lon="11.685605"><ele>291.5</ele><time>2026-05-02T07:38:43.191Z</time></trkpt><trkpt lat="43.2540827" lon="11.6859537"><ele>291.0</ele><time>2026-05-02T07:38:44.188Z</time></trkpt><trkpt lat="43.2542157" lon="11.6862913"><ele>291.0</ele><time>2026-05-02T07:38:45.187Z</time></trkpt><trkpt lat="43.254356" lon="11.6866312"><ele>291.0</ele><time>2026-05-02T07:38:46.18Z</time></trkpt><trkpt lat="43.2545017" lon="11.686964"><ele>294.5</ele><time>2026-05-02T07:38:47.191Z</time></trkpt><trkpt lat="43.2546573" lon="11.6872937"><ele>298.0</ele><time>2026-05-02T07:38:48.181Z</time></trkpt><trkpt lat="43.254806" lon="11.6876199"><ele>292.0</ele><time>2026-05-02T07:38:49.19Z</time></trkpt><trkpt lat="43.2549531" lon="11.6879468"><ele>286.0</ele><time>2026-05-02T07:38:50.186Z</time></trkpt><trkpt lat="43.2551014" lon="11.6882706"><ele>293.0</ele><time>2026-05-02T07:38:51.192Z</time></trkpt><trkpt lat="43.255245" lon="11.6885942"><ele>300.0</ele><time>2026-05-02T07:38:52.183Z</time></trkpt><trkpt lat="43.2553881" lon="11.6889229"><ele>300.0</ele><time>2026-05-02T07:38:53.189Z</time></trkpt><trkpt lat="43.2555208" lon="11.6892543"><ele>300.0</ele><time>2026-05-02T07:38:54.181Z</time></trkpt><trkpt lat="43.2556453" lon="11.689594"><ele>295.0</ele><time>2026-05-02T07:38:55.201Z</time></trkpt><trkpt lat="43.2557471" lon="11.6899362"><ele>290.0</ele><time>2026-05-02T07:38:56.186Z</time></trkpt><trkpt lat="43.2558428" lon="11.6902953"><ele>290.0</ele><time>2026-05-02T07:38:57.197Z</time></trkpt><trkpt lat="43.2559161" lon="11.6906559"><ele>290.0</ele><time>2026-05-02T07:38:58.178Z</time></trkpt><trkpt lat="43.2559719" lon="11.6910363"><ele>291.0</ele><time>2026-05-02T07:38:59.19Z</time></trkpt><trkpt lat="43.2560129" lon="11.6914036"><ele>292.0</ele><time>2026-05-02T07:39:00.18Z</time></trkpt><trkpt lat="43.2560336" lon="11.6917891"><ele>291.5</ele><time>2026-05-02T07:39:01.187Z</time></trkpt><trkpt lat="43.2560474" lon="11.6921666"><ele>291.0</ele><time>2026-05-02T07:39:02.2Z</time></trkpt><trkpt lat="43.2560534" lon="11.6925545"><ele>289.0</ele><time>2026-05-02T07:39:03.192Z</time></trkpt><trkpt lat="43.2560604" lon="11.6929349"><ele>287.0</ele><time>2026-05-02T07:39:04.19Z</time></trkpt><trkpt lat="43.256064" lon="11.6933141"><ele>287.5</ele><time>2026-05-02T07:39:05.18Z</time></trkpt><trkpt lat="43.2560694" lon="11.6936956"><ele>288.0</ele><time>2026-05-02T07:39:06.177Z</time></trkpt><trkpt lat="43.2560826" lon="11.6940713"><ele>291.0</ele><time>2026-05-02T07:39:07.193Z</time></trkpt><trkpt lat="43.2560957" lon="11.6944385"><ele>294.0</ele><time>2026-05-02T07:39:08.196Z</time></trkpt><trkpt lat="43.256103" lon="11.6948116"><ele>294.0</ele><time>2026-05-02T07:39:09.184Z</time></trkpt><trkpt lat="43.2561108" lon="11.6951833"><ele>294.0</ele><time>2026-05-02T07:39:10.182Z</time></trkpt><trkpt lat="43.2561237" lon="11.69556"><ele>297.5</ele><time>2026-05-02T07:39:11.193Z</time></trkpt><trkpt lat="43.2561367" lon="11.6959424"><ele>301.0</ele><time>2026-05-02T07:39:12.194Z</time></trkpt><trkpt lat="43.2561468" lon="11.6963198"><ele>300.0</ele><time>2026-05-02T07:39:13.19Z</time></trkpt><trkpt lat="43.2561613" lon="11.6967032"><ele>299.0</ele><time>2026-05-02T07:39:14.186Z</time></trkpt><trkpt lat="43.2561751" lon="11.697085"><ele>299.0</ele><time>2026-05-02T07:39:15.178Z</time></trkpt><trkpt lat="43.2561828" lon="11.6974683"><ele>299.0</ele><time>2026-05-02T07:39:16.193Z</time></trkpt><trkpt lat="43.2561922" lon="11.6978439"><ele>297.0</ele><time>2026-05-02T07:39:17.183Z</time></trkpt><trkpt lat="43.2561992" lon="11.6982252"><ele>295.0</ele><time>2026-05-02T07:39:18.193Z</time></trkpt><trkpt lat="43.2561947" lon="11.6985924"><ele>293.5</ele><time>2026-05-02T07:39:19.192Z</time></trkpt><trkpt lat="43.256189" lon="11.69896"><ele>292.0</ele><time>2026-05-02T07:39:20.18Z</time></trkpt><trkpt lat="43.2561782" lon="11.699326"><ele>290.5</ele><time>2026-05-02T07:39:21.192Z</time></trkpt><trkpt lat="43.2561497" lon="11.6997018"><ele>289.0</ele><time>2026-05-02T07:39:22.193Z</time></trkpt><trkpt lat="43.2561085" lon="11.7000686"><ele>287.0</ele><time>2026-05-02T07:39:23.2Z</time></trkpt><trkpt lat="43.2560585" lon="11.7004317"><ele>285.0</ele><time>2026-05-02T07:39:24.159Z</time></trkpt><trkpt lat="43.2559984" lon="11.700797"><ele>286.0</ele><time>2026-05-02T07:39:25.176Z</time></trkpt><trkpt lat="43.2559316" lon="11.7011579"><ele>287.0</ele><time>2026-05-02T07:39:26.173Z</time></trkpt><trkpt lat="43.2558643" lon="11.701518"><ele>287.0</ele><time>2026-05-02T07:39:27.19Z</time></trkpt><trkpt lat="43.2558003" lon="11.7018721"><ele>287.0</ele><time>2026-05-02T07:39:28.191Z</time></trkpt><trkpt lat="43.2557319" lon="11.7022298"><ele>284.0</ele><time>2026-05-02T07:39:29.189Z</time></trkpt><trkpt lat="43.2556624" lon="11.7025917"><ele>281.0</ele><time>2026-05-02T07:39:30.187Z</time></trkpt><trkpt lat="43.2555854" lon="11.7029455"><ele>287.0</ele><time>2026-05-02T07:39:31.181Z</time></trkpt><trkpt lat="43.2554905" lon="11.7033018"><ele>293.0</ele><time>2026-05-02T07:39:32.175Z</time></trkpt><trkpt lat="43.2553934" lon="11.7036584"><ele>293.0</ele><time>2026-05-02T07:39:33.202Z</time></trkpt><trkpt lat="43.2552874" lon="11.7040042"><ele>293.0</ele><time>2026-05-02T07:39:34.188Z</time></trkpt><trkpt lat="43.2551688" lon="11.7043437"><ele>288.0</ele><time>2026-05-02T07:39:35.182Z</time></trkpt><trkpt lat="43.2550557" lon="11.7046824"><ele>283.0</ele><time>2026-05-02T07:39:36.194Z</time></trkpt><trkpt lat="43.2549452" lon="11.705019"><ele>284.0</ele><time>2026-05-02T07:39:37.192Z</time></trkpt><trkpt lat="43.2548396" lon="11.7053562"><ele>285.0</ele><time>2026-05-02T07:39:38.192Z</time></trkpt><trkpt lat="43.2547395" lon="11.7056931"><ele>285.0</ele><time>2026-05-02T07:39:39.192Z</time></trkpt><trkpt lat="43.2546398" lon="11.7060294"><ele>285.0</ele><time>2026-05-02T07:39:40.19Z</time></trkpt><trkpt lat="43.2545449" lon="11.7063671"><ele>280.5</ele><time>2026-05-02T07:39:41.2Z</time></trkpt><trkpt lat="43.2544483" lon="11.7066996"><ele>276.0</ele><time>2026-05-02T07:39:42.182Z</time></trkpt><trkpt lat="43.254347" lon="11.7070366"><ele>275.0</ele><time>2026-05-02T07:39:43.183Z</time></trkpt><trkpt lat="43.2542387" lon="11.7073714"><ele>274.0</ele><time>2026-05-02T07:39:44.186Z</time></trkpt><trkpt lat="43.2541323" lon="11.7077121"><ele>274.0</ele><time>2026-05-02T07:39:45.19Z</time></trkpt><trkpt lat="43.2540271" lon="11.7080604"><ele>274.0</ele><time>2026-05-02T07:39:46.191Z</time></trkpt><trkpt lat="43.2539241" lon="11.7084049"><ele>273.0</ele><time>2026-05-02T07:39:47.182Z</time></trkpt><trkpt lat="43.2538173" lon="11.7087434"><ele>272.0</ele><time>2026-05-02T07:39:48.19Z</time></trkpt><trkpt lat="43.2537144" lon="11.7090882"><ele>271.5</ele><time>2026-05-02T07:39:49.19Z</time></trkpt><trkpt lat="43.2536146" lon="11.7094324"><ele>271.0</ele><time>2026-05-02T07:39:50.185Z</time></trkpt><trkpt lat="43.2535157" lon="11.7097719"><ele>271.0</ele><time>2026-05-02T07:39:51.188Z</time></trkpt><trkpt lat="43.2534161" lon="11.7101131"><ele>271.0</ele><time>2026-05-02T07:39:52.201Z</time></trkpt><trkpt lat="43.2533195" lon="11.7104492"><ele>270.5</ele><time>2026-05-02T07:39:53.207Z</time></trkpt><trkpt lat="43.2532143" lon="11.7107828"><ele>270.0</ele><time>2026-05-02T07:39:54.196Z</time></trkpt><trkpt lat="43.2531104" lon="11.7111156"><ele>271.0</ele><time>2026-05-02T07:39:55.192Z</time></trkpt><trkpt lat="43.2530031" lon="11.7114498"><ele>272.0</ele><time>2026-05-02T07:39:56.185Z</time></trkpt><trkpt lat="43.2528917" lon="11.7117838"><ele>271.5</ele><time>2026-05-02T07:39:57.198Z</time></trkpt><trkpt lat="43.2527772" lon="11.7121154"><ele>271.0</ele><time>2026-05-02T07:39:58.18Z</time></trkpt><trkpt lat="43.2526503" lon="11.7124394"><ele>271.0</ele><time>2026-05-02T07:39:59.195Z</time></trkpt><trkpt lat="43.252521" lon="11.7127603"><ele>271.0</ele><time>2026-05-02T07:40:00.196Z</time></trkpt><trkpt lat="43.2523825" lon="11.7130714"><ele>273.0</ele><time>2026-05-02T07:40:01.164Z</time></trkpt><trkpt lat="43.2522473" lon="11.7133861"><ele>275.0</ele><time>2026-05-02T07:40:02.185Z</time></trkpt><trkpt lat="43.2521028" lon="11.7136854"><ele>275.0</ele><time>2026-05-02T07:40:03.168Z</time></trkpt><trkpt lat="43.2519472" lon="11.7139743"><ele>275.0</ele><time>2026-05-02T07:40:04.164Z</time></trkpt><trkpt lat="43.251787" lon="11.7142579"><ele>274.0</ele><time>2026-05-02T07:40:05.196Z</time></trkpt><trkpt lat="43.2516137" lon="11.7145356"><ele>273.0</ele><time>2026-05-02T07:40:06.166Z</time></trkpt><trkpt lat="43.2514432" lon="11.7148054"><ele>273.0</ele><time>2026-05-02T07:40:07.194Z</time></trkpt><trkpt lat="43.251265" lon="11.7150769"><ele>273.0</ele><time>2026-05-02T07:40:08.187Z</time></trkpt><trkpt lat="43.2510743" lon="11.7153352"><ele>272.0</ele><time>2026-05-02T07:40:09.182Z</time></trkpt><trkpt lat="43.250884" lon="11.7155924"><ele>271.0</ele><time>2026-05-02T07:40:10.189Z</time></trkpt><trkpt lat="43.2506791" lon="11.7158345"><ele>270.5</ele><time>2026-05-02T07:40:11.166Z</time></trkpt><trkpt lat="43.2504653" lon="11.7160761"><ele>270.0</ele><time>2026-05-02T07:40:12.162Z</time></trkpt><trkpt lat="43.2502516" lon="11.7163052"><ele>270.0</ele><time>2026-05-02T07:40:13.182Z</time></trkpt><trkpt lat="43.2500289" lon="11.7165268"><ele>270.0</ele><time>2026-05-02T07:40:14.19Z</time></trkpt><trkpt lat="43.2498076" lon="11.7167379"><ele>271.0</ele><time>2026-05-02T07:40:15.171Z</time></trkpt><trkpt lat="43.249588" lon="11.716945"><ele>272.0</ele><time>2026-05-02T07:40:16.191Z</time></trkpt><trkpt lat="43.2493661" lon="11.7171461"><ele>272.0</ele><time>2026-05-02T07:40:17.188Z</time></trkpt><trkpt lat="43.2491385" lon="11.7173462"><ele>272.0</ele><time>2026-05-02T07:40:18.192Z</time></trkpt><trkpt lat="43.2489115" lon="11.7175529"><ele>273.5</ele><time>2026-05-02T07:40:19.195Z</time></trkpt><trkpt lat="43.2486839" lon="11.7177617"><ele>275.0</ele><time>2026-05-02T07:40:20.178Z</time></trkpt><trkpt lat="43.2484602" lon="11.7179654"><ele>275.0</ele><time>2026-05-02T07:40:21.159Z</time></trkpt><trkpt lat="43.2482353" lon="11.7181708"><ele>275.0</ele><time>2026-05-02T07:40:22.192Z</time></trkpt><trkpt lat="43.2480146" lon="11.7183798"><ele>275.0</ele><time>2026-05-02T07:40:23.216Z</time></trkpt><trkpt lat="43.2477914" lon="11.7185817"><ele>275.0</ele><time>2026-05-02T07:40:24.172Z</time></trkpt><trkpt lat="43.24757" lon="11.7187878"><ele>275.0</ele><time>2026-05-02T07:40:25.199Z</time></trkpt><trkpt lat="43.2473463" lon="11.7189972"><ele>275.0</ele><time>2026-05-02T07:40:26.198Z</time></trkpt><trkpt lat="43.2471241" lon="11.7191997"><ele>275.0</ele><time>2026-05-02T07:40:27.184Z</time></trkpt><trkpt lat="43.2468978" lon="11.7194064"><ele>275.0</ele><time>2026-05-02T07:40:28.201Z</time></trkpt><trkpt lat="43.246678" lon="11.7196138"><ele>275.0</ele><time>2026-05-02T07:40:29.187Z</time></trkpt><trkpt lat="43.2464504" lon="11.7198193"><ele>275.0</ele><time>2026-05-02T07:40:30.182Z</time></trkpt><trkpt lat="43.2462254" lon="11.720025"><ele>275.0</ele><time>2026-05-02T07:40:31.191Z</time></trkpt><trkpt lat="43.2459978" lon="11.7202239"><ele>275.0</ele><time>2026-05-02T07:40:32.191Z</time></trkpt><trkpt lat="43.245767" lon="11.7204246"><ele>275.0</ele><time>2026-05-02T07:40:33.19Z</time></trkpt><trkpt lat="43.2455346" lon="11.720618"><ele>275.0</ele><time>2026-05-02T07:40:34.185Z</time></trkpt><trkpt lat="43.2453005" lon="11.7208084"><ele>275.0</ele><time>2026-05-02T07:40:35.19Z</time></trkpt><trkpt lat="43.2450662" lon="11.720991"><ele>275.0</ele><time>2026-05-02T07:40:36.2Z</time></trkpt><trkpt lat="43.2448256" lon="11.7211813"><ele>274.0</ele><time>2026-05-02T07:40:37.19Z</time></trkpt><trkpt lat="43.2445885" lon="11.7213632"><ele>273.0</ele><time>2026-05-02T07:40:38.197Z</time></trkpt><trkpt lat="43.2443517" lon="11.7215442"><ele>273.0</ele><time>2026-05-02T07:40:39.195Z</time></trkpt><trkpt lat="43.2441168" lon="11.7217221"><ele>273.0</ele><time>2026-05-02T07:40:40.206Z</time></trkpt><trkpt lat="43.2438817" lon="11.7219025"><ele>272.0</ele><time>2026-05-02T07:40:41.195Z</time></trkpt><trkpt lat="43.2436504" lon="11.7220821"><ele>271.0</ele><time>2026-05-02T07:40:42.185Z</time></trkpt><trkpt lat="43.243409" lon="11.7222575"><ele>271.0</ele><time>2026-05-02T07:40:43.181Z</time></trkpt><trkpt lat="43.2431688" lon="11.7224331"><ele>271.0</ele><time>2026-05-02T07:40:44.189Z</time></trkpt><trkpt lat="43.2429315" lon="11.7226128"><ele>270.5</ele><time>2026-05-02T07:40:45.185Z</time></trkpt><trkpt lat="43.2426907" lon="11.7227849"><ele>270.0</ele><time>2026-05-02T07:40:46.177Z</time></trkpt><trkpt lat="43.2424563" lon="11.722956"><ele>270.5</ele><time>2026-05-02T07:40:47.181Z</time></trkpt><trkpt lat="43.2422137" lon="11.7231273"><ele>271.0</ele><time>2026-05-02T07:40:48.188Z</time></trkpt><trkpt lat="43.2419722" lon="11.7232967"><ele>271.0</ele><time>2026-05-02T07:40:49.191Z</time></trkpt><trkpt lat="43.2417327" lon="11.7234586"><ele>271.0</ele><time>2026-05-02T07:40:50.184Z</time></trkpt><trkpt lat="43.2414934" lon="11.7236174"><ele>270.0</ele><time>2026-05-02T07:40:51.179Z</time></trkpt><trkpt lat="43.2412571" lon="11.7237766"><ele>269.0</ele><time>2026-05-02T07:40:52.204Z</time></trkpt><trkpt lat="43.2410182" lon="11.7239419"><ele>269.0</ele><time>2026-05-02T07:40:53.194Z</time></trkpt><trkpt lat="43.2407811" lon="11.7241096"><ele>269.0</ele><time>2026-05-02T07:40:54.187Z</time></trkpt><trkpt lat="43.2405471" lon="11.724273"><ele>268.5</ele><time>2026-05-02T07:40:55.187Z</time></trkpt><trkpt lat="43.2403142" lon="11.7244294"><ele>268.0</ele><time>2026-05-02T07:40:56.192Z</time></trkpt><trkpt lat="43.2400826" lon="11.7245886"><ele>268.0</ele><time>2026-05-02T07:40:57.185Z</time></trkpt><trkpt lat="43.239854" lon="11.7247495"><ele>268.0</ele><time>2026-05-02T07:40:58.203Z</time></trkpt><trkpt lat="43.2396197" lon="11.7249054"><ele>269.0</ele><time>2026-05-02T07:40:59.189Z</time></trkpt><trkpt lat="43.2393879" lon="11.7250614"><ele>270.0</ele><time>2026-05-02T07:41:00.182Z</time></trkpt><trkpt lat="43.2391547" lon="11.7252155"><ele>269.5</ele><time>2026-05-02T07:41:01.187Z</time></trkpt><trkpt lat="43.2389212" lon="11.7253703"><ele>269.0</ele><time>2026-05-02T07:41:02.184Z</time></trkpt><trkpt lat="43.2386877" lon="11.7255247"><ele>269.0</ele><time>2026-05-02T07:41:03.192Z</time></trkpt><trkpt lat="43.2384511" lon="11.7256778"><ele>269.0</ele><time>2026-05-02T07:41:04.175Z</time></trkpt><trkpt lat="43.2382142" lon="11.7258218"><ele>268.5</ele><time>2026-05-02T07:41:05.208Z</time></trkpt><trkpt lat="43.237981" lon="11.7259751"><ele>268.0</ele><time>2026-05-02T07:41:06.197Z</time></trkpt><trkpt lat="43.2377441" lon="11.7261286"><ele>268.0</ele><time>2026-05-02T07:41:07.192Z</time></trkpt><trkpt lat="43.2375008" lon="11.7262779"><ele>268.0</ele><time>2026-05-02T07:41:08.184Z</time></trkpt><trkpt lat="43.2372594" lon="11.7264322"><ele>269.0</ele><time>2026-05-02T07:41:09.195Z</time></trkpt><trkpt lat="43.2370182" lon="11.7265912"><ele>270.0</ele><time>2026-05-02T07:41:10.198Z</time></trkpt><trkpt lat="43.2367729" lon="11.7267361"><ele>270.0</ele><time>2026-05-02T07:41:11.188Z</time></trkpt><trkpt lat="43.236532" lon="11.7268836"><ele>270.0</ele><time>2026-05-02T07:41:12.187Z</time></trkpt><trkpt lat="43.2362895" lon="11.7270382"><ele>270.5</ele><time>2026-05-02T07:41:13.184Z</time></trkpt><trkpt lat="43.2360482" lon="11.7271906"><ele>271.0</ele><time>2026-05-02T07:41:14.196Z</time></trkpt><trkpt lat="43.2358066" lon="11.7273489"><ele>271.5</ele><time>2026-05-02T07:41:15.182Z</time></trkpt><trkpt lat="43.2355648" lon="11.727506"><ele>272.0</ele><time>2026-05-02T07:41:16.191Z</time></trkpt><trkpt lat="43.2353265" lon="11.7276702"><ele>271.5</ele><time>2026-05-02T07:41:17.2Z</time></trkpt><trkpt lat="43.2350868" lon="11.7278382"><ele>271.0</ele><time>2026-05-02T07:41:18.195Z</time></trkpt><trkpt lat="43.2348534" lon="11.7280111"><ele>271.5</ele><time>2026-05-02T07:41:19.197Z</time></trkpt><trkpt lat="43.2346134" lon="11.7281771"><ele>272.0</ele><time>2026-05-02T07:41:20.174Z</time></trkpt><trkpt lat="43.2343707" lon="11.72834"><ele>272.0</ele><time>2026-05-02T07:41:21.202Z</time></trkpt><trkpt lat="43.2341323" lon="11.7284927"><ele>272.0</ele><time>2026-05-02T07:41:22.196Z</time></trkpt><trkpt lat="43.2338947" lon="11.7286579"><ele>272.0</ele><time>2026-05-02T07:41:23.189Z</time></trkpt><trkpt lat="43.2336595" lon="11.7288249"><ele>272.0</ele><time>2026-05-02T07:41:24.194Z</time></trkpt><trkpt lat="43.2334253" lon="11.7289916"><ele>272.0</ele><time>2026-05-02T07:41:25.201Z</time></trkpt><trkpt lat="43.2331834" lon="11.7291542"><ele>272.0</ele><time>2026-05-02T07:41:26.201Z</time></trkpt><trkpt lat="43.2329485" lon="11.7293229"><ele>271.0</ele><time>2026-05-02T07:41:27.193Z</time></trkpt><trkpt lat="43.232716" lon="11.7294971"><ele>270.0</ele><time>2026-05-02T07:41:28.193Z</time></trkpt><trkpt lat="43.2324781" lon="11.7296653"><ele>271.0</ele><time>2026-05-02T07:41:29.178Z</time></trkpt><trkpt lat="43.2322365" lon="11.7298347"><ele>272.0</ele><time>2026-05-02T07:41:30.187Z</time></trkpt><trkpt lat="43.2319933" lon="11.7300097"><ele>272.0</ele><time>2026-05-02T07:41:31.178Z</time></trkpt><trkpt lat="43.2317467" lon="11.7301804"><ele>272.0</ele><time>2026-05-02T07:41:32.186Z</time></trkpt><trkpt lat="43.2315026" lon="11.7303554"><ele>269.5</ele><time>2026-05-02T07:41:33.188Z</time></trkpt><trkpt lat="43.2312611" lon="11.7305266"><ele>267.0</ele><time>2026-05-02T07:41:34.189Z</time></trkpt><trkpt lat="43.2310273" lon="11.7307068"><ele>267.0</ele><time>2026-05-02T07:41:35.195Z</time></trkpt><trkpt lat="43.2307993" lon="11.7308901"><ele>267.0</ele><time>2026-05-02T07:41:36.181Z</time></trkpt><trkpt lat="43.2305819" lon="11.7310821"><ele>267.5</ele><time>2026-05-02T07:41:37.189Z</time></trkpt><trkpt lat="43.2303675" lon="11.7312919"><ele>268.0</ele><time>2026-05-02T07:41:38.2Z</time></trkpt><trkpt lat="43.2301708" lon="11.7315188"><ele>268.0</ele><time>2026-05-02T07:41:39.198Z</time></trkpt><trkpt lat="43.2299752" lon="11.7317664"><ele>268.0</ele><time>2026-05-02T07:41:40.191Z</time></trkpt><trkpt lat="43.2297889" lon="11.7320255"><ele>268.5</ele><time>2026-05-02T07:41:41.188Z</time></trkpt><trkpt lat="43.229619" lon="11.7323027"><ele>269.0</ele><time>2026-05-02T07:41:42.196Z</time></trkpt><trkpt lat="43.2294495" lon="11.7325882"><ele>269.5</ele><time>2026-05-02T07:41:43.191Z</time></trkpt><trkpt lat="43.2292901" lon="11.7328721"><ele>270.0</ele><time>2026-05-02T07:41:44.187Z</time></trkpt><trkpt lat="43.229137" lon="11.7331788"><ele>270.0</ele><time>2026-05-02T07:41:45.193Z</time></trkpt><trkpt lat="43.2289808" lon="11.7334752"><ele>270.0</ele><time>2026-05-02T07:41:46.192Z</time></trkpt><trkpt lat="43.2288271" lon="11.733775"><ele>270.5</ele><time>2026-05-02T07:41:47.18Z</time></trkpt><trkpt lat="43.2286656" lon="11.7340692"><ele>271.0</ele><time>2026-05-02T07:41:48.206Z</time></trkpt><trkpt lat="43.2285081" lon="11.7343655"><ele>270.5</ele><time>2026-05-02T07:41:49.19Z</time></trkpt><trkpt lat="43.2283526" lon="11.7346653"><ele>270.0</ele><time>2026-05-02T07:41:50.18Z</time></trkpt><trkpt lat="43.2281954" lon="11.7349654"><ele>269.5</ele><time>2026-05-02T07:41:51.207Z</time></trkpt><trkpt lat="43.2280414" lon="11.7352652"><ele>269.0</ele><time>2026-05-02T07:41:52.193Z</time></trkpt><trkpt lat="43.2278893" lon="11.7355648"><ele>269.0</ele><time>2026-05-02T07:41:53.184Z</time></trkpt><trkpt lat="43.2277333" lon="11.7358662"><ele>269.0</ele><time>2026-05-02T07:41:54.186Z</time></trkpt><trkpt lat="43.2275769" lon="11.7361661"><ele>268.5</ele><time>2026-05-02T07:41:55.184Z</time></trkpt><trkpt lat="43.2274262" lon="11.7364691"><ele>268.0</ele><time>2026-05-02T07:41:56.199Z</time></trkpt><trkpt lat="43.2272806" lon="11.7367783"><ele>269.0</ele><time>2026-05-02T07:41:57.185Z</time></trkpt><trkpt lat="43.2271398" lon="11.7370959"><ele>270.0</ele><time>2026-05-02T07:41:58.185Z</time></trkpt><trkpt lat="43.2270073" lon="11.737416"><ele>268.5</ele><time>2026-05-02T07:41:59.204Z</time></trkpt><trkpt lat="43.2268797" lon="11.7377387"><ele>267.0</ele><time>2026-05-02T07:42:00.189Z</time></trkpt><trkpt lat="43.2267593" lon="11.7380634"><ele>267.0</ele><time>2026-05-02T07:42:01.185Z</time></trkpt><trkpt lat="43.2266437" lon="11.7383932"><ele>267.0</ele><time>2026-05-02T07:42:02.192Z</time></trkpt><trkpt lat="43.226526" lon="11.7387239"><ele>268.0</ele><time>2026-05-02T07:42:03.187Z</time></trkpt><trkpt lat="43.2264144" lon="11.7390519"><ele>269.0</ele><time>2026-05-02T07:42:04.198Z</time></trkpt><trkpt lat="43.2263055" lon="11.7393853"><ele>269.0</ele><time>2026-05-02T07:42:05.191Z</time></trkpt><trkpt lat="43.2261963" lon="11.7397119"><ele>269.0</ele><time>2026-05-02T07:42:06.184Z</time></trkpt><trkpt lat="43.2260846" lon="11.7400339"><ele>268.5</ele><time>2026-05-02T07:42:07.188Z</time></trkpt><trkpt lat="43.2259816" lon="11.7403587"><ele>268.0</ele><time>2026-05-02T07:42:08.192Z</time></trkpt><trkpt lat="43.225874" lon="11.7406905"><ele>268.0</ele><time>2026-05-02T07:42:09.195Z</time></trkpt><trkpt lat="43.2257701" lon="11.7410203"><ele>268.0</ele><time>2026-05-02T07:42:10.19Z</time></trkpt><trkpt lat="43.2256639" lon="11.7413556"><ele>267.0</ele><time>2026-05-02T07:42:11.199Z</time></trkpt><trkpt lat="43.2255598" lon="11.7416855"><ele>266.0</ele><time>2026-05-02T07:42:12.188Z</time></trkpt><trkpt lat="43.2254514" lon="11.742024"><ele>265.5</ele><time>2026-05-02T07:42:13.183Z</time></trkpt><trkpt lat="43.2253482" lon="11.7423557"><ele>265.0</ele><time>2026-05-02T07:42:14.169Z</time></trkpt><trkpt lat="43.2252392" lon="11.7426933"><ele>264.5</ele><time>2026-05-02T07:42:15.176Z</time></trkpt><trkpt lat="43.2251332" lon="11.7430269"><ele>264.0</ele><time>2026-05-02T07:42:16.172Z</time></trkpt><trkpt lat="43.2250282" lon="11.7433628"><ele>263.0</ele><time>2026-05-02T07:42:17.191Z</time></trkpt><trkpt lat="43.2249244" lon="11.7436993"><ele>262.0</ele><time>2026-05-02T07:42:18.184Z</time></trkpt><trkpt lat="43.2248177" lon="11.7440363"><ele>261.5</ele><time>2026-05-02T07:42:19.2Z</time></trkpt><trkpt lat="43.2247101" lon="11.7443672"><ele>261.0</ele><time>2026-05-02T07:42:20.195Z</time></trkpt><trkpt lat="43.2246004" lon="11.7446984"><ele>261.0</ele><time>2026-05-02T07:42:21.189Z</time></trkpt><trkpt lat="43.2244899" lon="11.7450319"><ele>261.0</ele><time>2026-05-02T07:42:22.187Z</time></trkpt><trkpt lat="43.224383" lon="11.7453619"><ele>260.5</ele><time>2026-05-02T07:42:23.196Z</time></trkpt><trkpt lat="43.2242774" lon="11.7456966"><ele>260.0</ele><time>2026-05-02T07:42:24.183Z</time></trkpt><trkpt lat="43.2241724" lon="11.7460328"><ele>259.5</ele><time>2026-05-02T07:42:25.186Z</time></trkpt><trkpt lat="43.2240653" lon="11.7463639"><ele>259.0</ele><time>2026-05-02T07:42:26.196Z</time></trkpt><trkpt lat="43.2239554" lon="11.7466993"><ele>258.5</ele><time>2026-05-02T07:42:27.193Z</time></trkpt><trkpt lat="43.2238464" lon="11.7470294"><ele>258.0</ele><time>2026-05-02T07:42:28.194Z</time></trkpt><trkpt lat="43.2237419" lon="11.7473548"><ele>258.0</ele><time>2026-05-02T07:42:29.193Z</time></trkpt><trkpt lat="43.2236391" lon="11.747684"><ele>258.0</ele><time>2026-05-02T07:42:30.179Z</time></trkpt><trkpt lat="43.2235375" lon="11.7480098"><ele>258.0</ele><time>2026-05-02T07:42:31.19Z</time></trkpt><trkpt lat="43.2234365" lon="11.7483297"><ele>258.0</ele><time>2026-05-02T07:42:32.201Z</time></trkpt><trkpt lat="43.2233374" lon="11.7486588"><ele>258.5</ele><time>2026-05-02T07:42:33.191Z</time></trkpt><trkpt lat="43.2232391" lon="11.7489931"><ele>259.0</ele><time>2026-05-02T07:42:34.187Z</time></trkpt><trkpt lat="43.2231476" lon="11.7493313"><ele>258.5</ele><time>2026-05-02T07:42:35.193Z</time></trkpt><trkpt lat="43.2230565" lon="11.7496806"><ele>258.0</ele><time>2026-05-02T07:42:36.211Z</time></trkpt><trkpt lat="43.2229727" lon="11.750028"><ele>258.0</ele><time>2026-05-02T07:42:37.192Z</time></trkpt><trkpt lat="43.2228914" lon="11.750377"><ele>258.0</ele><time>2026-05-02T07:42:38.177Z</time></trkpt><trkpt lat="43.2228225" lon="11.7507344"><ele>258.0</ele><time>2026-05-02T07:42:39.193Z</time></trkpt><trkpt lat="43.2227593" lon="11.7510964"><ele>258.0</ele><time>2026-05-02T07:42:40.2Z</time></trkpt><trkpt lat="43.2227088" lon="11.7514547"><ele>258.0</ele><time>2026-05-02T07:42:41.191Z</time></trkpt><trkpt lat="43.2226667" lon="11.7518131"><ele>258.0</ele><time>2026-05-02T07:42:42.187Z</time></trkpt><trkpt lat="43.2226333" lon="11.7521818"><ele>258.0</ele><time>2026-05-02T07:42:43.187Z</time></trkpt><trkpt lat="43.2226092" lon="11.7525471"><ele>258.0</ele><time>2026-05-02T07:42:44.188Z</time></trkpt><trkpt lat="43.222591" lon="11.7529142"><ele>258.0</ele><time>2026-05-02T07:42:45.196Z</time></trkpt><trkpt lat="43.2225773" lon="11.7532815"><ele>258.0</ele><time>2026-05-02T07:42:46.198Z</time></trkpt><trkpt lat="43.2225666" lon="11.7536508"><ele>258.0</ele><time>2026-05-02T07:42:47.187Z</time></trkpt><trkpt lat="43.2225597" lon="11.7540235"><ele>258.0</ele><time>2026-05-02T07:42:48.177Z</time></trkpt><trkpt lat="43.2225523" lon="11.7543969"><ele>258.5</ele><time>2026-05-02T07:42:49.202Z</time></trkpt><trkpt lat="43.2225487" lon="11.754769"><ele>259.0</ele><time>2026-05-02T07:42:50.193Z</time></trkpt><trkpt lat="43.2225392" lon="11.7551414"><ele>258.5</ele><time>2026-05-02T07:42:51.195Z</time></trkpt><trkpt lat="43.2225346" lon="11.7555082"><ele>258.0</ele><time>2026-05-02T07:42:52.173Z</time></trkpt><trkpt lat="43.2225276" lon="11.7558782"><ele>258.5</ele><time>2026-05-02T07:42:53.185Z</time></trkpt><trkpt lat="43.22252" lon="11.7562511"><ele>259.0</ele><time>2026-05-02T07:42:54.17Z</time></trkpt><trkpt lat="43.2225145" lon="11.7566206"><ele>259.5</ele><time>2026-05-02T07:42:55.187Z</time></trkpt><trkpt lat="43.2225116" lon="11.7569917"><ele>260.0</ele><time>2026-05-02T07:42:56.191Z</time></trkpt><trkpt lat="43.2225069" lon="11.7573555"><ele>260.0</ele><time>2026-05-02T07:42:57.192Z</time></trkpt><trkpt lat="43.2225003" lon="11.7577201"><ele>260.0</ele><time>2026-05-02T07:42:58.184Z</time></trkpt><trkpt lat="43.2224909" lon="11.7580855"><ele>260.0</ele><time>2026-05-02T07:42:59.189Z</time></trkpt><trkpt lat="43.2224814" lon="11.7584447"><ele>260.0</ele><time>2026-05-02T07:43:00.182Z</time></trkpt><trkpt lat="43.2224754" lon="11.7588125"><ele>260.0</ele><time>2026-05-02T07:43:01.184Z</time></trkpt><trkpt lat="43.2224698" lon="11.7591762"><ele>260.0</ele><time>2026-05-02T07:43:02.182Z</time></trkpt><trkpt lat="43.2224656" lon="11.7595457"><ele>260.0</ele><time>2026-05-02T07:43:03.185Z</time></trkpt><trkpt lat="43.2224587" lon="11.7599045"><ele>260.0</ele><time>2026-05-02T07:43:04.166Z</time></trkpt><trkpt lat="43.2224555" lon="11.7602652"><ele>261.0</ele><time>2026-05-02T07:43:05.179Z</time></trkpt><trkpt lat="43.2224536" lon="11.7606264"><ele>262.0</ele><time>2026-05-02T07:43:06.154Z</time></trkpt><trkpt lat="43.2224537" lon="11.7609957"><ele>262.0</ele><time>2026-05-02T07:43:07.203Z</time></trkpt><trkpt lat="43.2224508" lon="11.7613605"><ele>262.0</ele><time>2026-05-02T07:43:08.217Z</time></trkpt><trkpt lat="43.2224498" lon="11.7617263"><ele>261.0</ele><time>2026-05-02T07:43:09.186Z</time></trkpt><trkpt lat="43.2224487" lon="11.7620922"><ele>260.0</ele><time>2026-05-02T07:43:10.197Z</time></trkpt><trkpt lat="43.2224485" lon="11.7624559"><ele>260.0</ele><time>2026-05-02T07:43:11.187Z</time></trkpt><trkpt lat="43.2224528" lon="11.7628192"><ele>260.0</ele><time>2026-05-02T07:43:12.191Z</time></trkpt><trkpt lat="43.2224502" lon="11.7631869"><ele>260.5</ele><time>2026-05-02T07:43:13.19Z</time></trkpt><trkpt lat="43.2224439" lon="11.7635561"><ele>261.0</ele><time>2026-05-02T07:43:14.202Z</time></trkpt><trkpt lat="43.2224407" lon="11.7639253"><ele>261.0</ele><time>2026-05-02T07:43:15.196Z</time></trkpt><trkpt lat="43.2224342" lon="11.7642813"><ele>261.0</ele><time>2026-05-02T07:43:16.185Z</time></trkpt><trkpt lat="43.2224315" lon="11.7646393"><ele>260.0</ele><time>2026-05-02T07:43:17.193Z</time></trkpt><trkpt lat="43.2224256" lon="11.7649956"><ele>259.0</ele><time>2026-05-02T07:43:18.186Z</time></trkpt><trkpt lat="43.2224179" lon="11.7653681"><ele>258.5</ele><time>2026-05-02T07:43:19.181Z</time></trkpt><trkpt lat="43.2224097" lon="11.7657384"><ele>258.0</ele><time>2026-05-02T07:43:20.203Z</time></trkpt><trkpt lat="43.2224013" lon="11.766112"><ele>259.0</ele><time>2026-05-02T07:43:21.184Z</time></trkpt><trkpt lat="43.2223954" lon="11.7664838"><ele>260.0</ele><time>2026-05-02T07:43:22.185Z</time></trkpt><trkpt lat="43.2223833" lon="11.7668552"><ele>261.0</ele><time>2026-05-02T07:43:23.186Z</time></trkpt><trkpt lat="43.2223715" lon="11.7672304"><ele>262.0</ele><time>2026-05-02T07:43:24.187Z</time></trkpt><trkpt lat="43.2223591" lon="11.7676054"><ele>264.0</ele><time>2026-05-02T07:43:25.173Z</time></trkpt><trkpt lat="43.2223532" lon="11.7679809"><ele>266.0</ele><time>2026-05-02T07:43:26.19Z</time></trkpt><trkpt lat="43.2223481" lon="11.7683529"><ele>266.0</ele><time>2026-05-02T07:43:27.197Z</time></trkpt><trkpt lat="43.2223368" lon="11.768727"><ele>266.0</ele><time>2026-05-02T07:43:28.187Z</time></trkpt><trkpt lat="43.2223215" lon="11.7691037"><ele>265.0</ele><time>2026-05-02T07:43:29.193Z</time></trkpt><trkpt lat="43.2223143" lon="11.7694716"><ele>264.0</ele><time>2026-05-02T07:43:30.191Z</time></trkpt><trkpt lat="43.2223104" lon="11.7698456"><ele>264.0</ele><time>2026-05-02T07:43:31.172Z</time></trkpt><trkpt lat="43.2223052" lon="11.7702122"><ele>264.0</ele><time>2026-05-02T07:43:32.193Z</time></trkpt><trkpt lat="43.2222995" lon="11.7705815"><ele>264.0</ele><time>2026-05-02T07:43:33.182Z</time></trkpt><trkpt lat="43.2222946" lon="11.7709449"><ele>264.0</ele><time>2026-05-02T07:43:34.198Z</time></trkpt><trkpt lat="43.2222876" lon="11.7713101"><ele>263.5</ele><time>2026-05-02T07:43:35.189Z</time></trkpt><trkpt lat="43.2222736" lon="11.7716741"><ele>263.0</ele><time>2026-05-02T07:43:36.195Z</time></trkpt><trkpt lat="43.2222682" lon="11.7720431"><ele>263.0</ele><time>2026-05-02T07:43:37.193Z</time></trkpt><trkpt lat="43.2222571" lon="11.7724036"><ele>263.0</ele><time>2026-05-02T07:43:38.191Z</time></trkpt><trkpt lat="43.2222488" lon="11.7727597"><ele>263.5</ele><time>2026-05-02T07:43:39.183Z</time></trkpt><trkpt lat="43.2222412" lon="11.7731158"><ele>264.0</ele><time>2026-05-02T07:43:40.202Z</time></trkpt><trkpt lat="43.2222361" lon="11.7734735"><ele>265.0</ele><time>2026-05-02T07:43:41.184Z</time></trkpt><trkpt lat="43.2222317" lon="11.7738337"><ele>266.0</ele><time>2026-05-02T07:43:42.192Z</time></trkpt><trkpt lat="43.2222278" lon="11.7741961"><ele>269.5</ele><time>2026-05-02T07:43:43.185Z</time></trkpt><trkpt lat="43.222221" lon="11.7745645"><ele>273.0</ele><time>2026-05-02T07:43:44.187Z</time></trkpt><trkpt lat="43.2222138" lon="11.7749303"><ele>279.0</ele><time>2026-05-02T07:43:45.195Z</time></trkpt><trkpt lat="43.2222037" lon="11.7752976"><ele>285.0</ele><time>2026-05-02T07:43:46.19Z</time></trkpt><trkpt lat="43.2222007" lon="11.77567"><ele>288.0</ele><time>2026-05-02T07:43:47.193Z</time></trkpt><trkpt lat="43.2221941" lon="11.7760446"><ele>291.0</ele><time>2026-05-02T07:43:48.182Z</time></trkpt><trkpt lat="43.2221814" lon="11.7764136"><ele>291.0</ele><time>2026-05-02T07:43:49.198Z</time></trkpt><trkpt lat="43.222169" lon="11.7767881"><ele>291.0</ele><time>2026-05-02T07:43:50.159Z</time></trkpt><trkpt lat="43.2221563" lon="11.7771583"><ele>289.0</ele><time>2026-05-02T07:43:51.193Z</time></trkpt><trkpt lat="43.2221364" lon="11.777527"><ele>287.0</ele><time>2026-05-02T07:43:52.181Z</time></trkpt><trkpt lat="43.2221099" lon="11.7778968"><ele>285.5</ele><time>2026-05-02T07:43:53.194Z</time></trkpt><trkpt lat="43.2220804" lon="11.778256"><ele>284.0</ele><time>2026-05-02T07:43:54.196Z</time></trkpt><trkpt lat="43.2220443" lon="11.7786196"><ele>284.0</ele><time>2026-05-02T07:43:55.191Z</time></trkpt><trkpt lat="43.2219986" lon="11.778974"><ele>284.0</ele><time>2026-05-02T07:43:56.189Z</time></trkpt><trkpt lat="43.2219415" lon="11.7793276"><ele>284.5</ele><time>2026-05-02T07:43:57.197Z</time></trkpt><trkpt lat="43.2218727" lon="11.7796846"><ele>285.0</ele><time>2026-05-02T07:43:58.189Z</time></trkpt><trkpt lat="43.221798" lon="11.7800392"><ele>286.5</ele><time>2026-05-02T07:43:59.164Z</time></trkpt><trkpt lat="43.2217214" lon="11.7803889"><ele>288.0</ele><time>2026-05-02T07:44:00.186Z</time></trkpt><trkpt lat="43.2216359" lon="11.7807349"><ele>289.0</ele><time>2026-05-02T07:44:01.188Z</time></trkpt><trkpt lat="43.2215384" lon="11.7810795"><ele>290.0</ele><time>2026-05-02T07:44:02.209Z</time></trkpt><trkpt lat="43.2214371" lon="11.781421"><ele>284.0</ele><time>2026-05-02T07:44:03.184Z</time></trkpt><trkpt lat="43.221325" lon="11.7817569"><ele>278.0</ele><time>2026-05-02T07:44:04.191Z</time></trkpt><trkpt lat="43.2212044" lon="11.7820885"><ele>278.0</ele><time>2026-05-02T07:44:05.188Z</time></trkpt><trkpt lat="43.2210773" lon="11.7824192"><ele>278.0</ele><time>2026-05-02T07:44:06.202Z</time></trkpt><trkpt lat="43.2209464" lon="11.782745"><ele>280.0</ele><time>2026-05-02T07:44:07.169Z</time></trkpt><trkpt lat="43.2208106" lon="11.7830644"><ele>282.0</ele><time>2026-05-02T07:44:08.193Z</time></trkpt><trkpt lat="43.2206691" lon="11.7833806"><ele>285.5</ele><time>2026-05-02T07:44:09.182Z</time></trkpt><trkpt lat="43.2205267" lon="11.7836947"><ele>289.0</ele><time>2026-05-02T07:44:10.171Z</time></trkpt><trkpt lat="43.2203834" lon="11.7840128"><ele>289.0</ele><time>2026-05-02T07:44:11.197Z</time></trkpt><trkpt lat="43.2202403" lon="11.7843294"><ele>289.0</ele><time>2026-05-02T07:44:12.194Z</time></trkpt><trkpt lat="43.2200979" lon="11.7846482"><ele>290.0</ele><time>2026-05-02T07:44:13.191Z</time></trkpt><trkpt lat="43.2199524" lon="11.7849703"><ele>291.0</ele><time>2026-05-02T07:44:14.192Z</time></trkpt><trkpt lat="43.2198109" lon="11.785291"><ele>289.0</ele><time>2026-05-02T07:44:15.191Z</time></trkpt><trkpt lat="43.2196689" lon="11.7856048"><ele>287.0</ele><time>2026-05-02T07:44:16.192Z</time></trkpt><trkpt lat="43.2195259" lon="11.785924"><ele>286.0</ele><time>2026-05-02T07:44:17.201Z</time></trkpt><trkpt lat="43.2193829" lon="11.7862395"><ele>285.0</ele><time>2026-05-02T07:44:18.189Z</time></trkpt><trkpt lat="43.2192363" lon="11.7865522"><ele>286.0</ele><time>2026-05-02T07:44:19.18Z</time></trkpt><trkpt lat="43.2190936" lon="11.7868677"><ele>287.0</ele><time>2026-05-02T07:44:20.184Z</time></trkpt><trkpt lat="43.2189513" lon="11.7871852"><ele>283.0</ele><time>2026-05-02T07:44:21.191Z</time></trkpt><trkpt lat="43.2188126" lon="11.7874973"><ele>279.0</ele><time>2026-05-02T07:44:22.174Z</time></trkpt><trkpt lat="43.2186737" lon="11.7878148"><ele>278.0</ele><time>2026-05-02T07:44:23.196Z</time></trkpt><trkpt lat="43.2185401" lon="11.788125"><ele>277.0</ele><time>2026-05-02T07:44:24.189Z</time></trkpt><trkpt lat="43.2184073" lon="11.7884356"><ele>276.5</ele><time>2026-05-02T07:44:25.191Z</time></trkpt><trkpt lat="43.2182717" lon="11.7887492"><ele>276.0</ele><time>2026-05-02T07:44:26.192Z</time></trkpt><trkpt lat="43.2181406" lon="11.7890554"><ele>277.5</ele><time>2026-05-02T07:44:27.183Z</time></trkpt><trkpt lat="43.218008" lon="11.7893682"><ele>279.0</ele><time>2026-05-02T07:44:28.195Z</time></trkpt><trkpt lat="43.2178766" lon="11.7896772"><ele>279.0</ele><time>2026-05-02T07:44:29.179Z</time></trkpt><trkpt lat="43.2177398" lon="11.7899826"><ele>279.0</ele><time>2026-05-02T07:44:30.188Z</time></trkpt><trkpt lat="43.2176033" lon="11.7902886"><ele>278.5</ele><time>2026-05-02T07:44:31.201Z</time></trkpt><trkpt lat="43.2174708" lon="11.7905991"><ele>278.0</ele><time>2026-05-02T07:44:32.176Z</time></trkpt><trkpt lat="43.2173344" lon="11.7909052"><ele>278.0</ele><time>2026-05-02T07:44:33.194Z</time></trkpt><trkpt lat="43.2171904" lon="11.7912083"><ele>278.0</ele><time>2026-05-02T07:44:34.195Z</time></trkpt><trkpt lat="43.2170519" lon="11.7915034"><ele>278.0</ele><time>2026-05-02T07:44:35.187Z</time></trkpt><trkpt lat="43.2169118" lon="11.7918054"><ele>278.0</ele><time>2026-05-02T07:44:36.169Z</time></trkpt><trkpt lat="43.2167777" lon="11.7921035"><ele>280.0</ele><time>2026-05-02T07:44:37.194Z</time></trkpt><trkpt lat="43.2166427" lon="11.7923937"><ele>282.0</ele><time>2026-05-02T07:44:38.183Z</time></trkpt><trkpt lat="43.216509" lon="11.792683"><ele>279.0</ele><time>2026-05-02T07:44:39.203Z</time></trkpt><trkpt lat="43.2163735" lon="11.7929713"><ele>276.0</ele><time>2026-05-02T07:44:40.191Z</time></trkpt><trkpt lat="43.2162451" lon="11.7932575"><ele>278.0</ele><time>2026-05-02T07:44:41.19Z</time></trkpt><trkpt lat="43.2161166" lon="11.7935421"><ele>280.0</ele><time>2026-05-02T07:44:42.192Z</time></trkpt><trkpt lat="43.2159907" lon="11.7938281"><ele>280.0</ele><time>2026-05-02T07:44:43.18Z</time></trkpt><trkpt lat="43.2158689" lon="11.7941128"><ele>280.0</ele><time>2026-05-02T07:44:44.203Z</time></trkpt><trkpt lat="43.2157487" lon="11.7943956"><ele>282.0</ele><time>2026-05-02T07:44:45.175Z</time></trkpt><trkpt lat="43.2156361" lon="11.7946851"><ele>284.0</ele><time>2026-05-02T07:44:46.188Z</time></trkpt><trkpt lat="43.2155328" lon="11.7949733"><ele>284.0</ele><time>2026-05-02T07:44:47.188Z</time></trkpt><trkpt lat="43.2154336" lon="11.7952686"><ele>284.0</ele><time>2026-05-02T07:44:48.187Z</time></trkpt><trkpt lat="43.2153425" lon="11.7955661"><ele>284.0</ele><time>2026-05-02T07:44:49.177Z</time></trkpt><trkpt lat="43.2152679" lon="11.7958713"><ele>284.0</ele><time>2026-05-02T07:44:50.204Z</time></trkpt><trkpt lat="43.2152053" lon="11.796177"><ele>283.0</ele><time>2026-05-02T07:44:51.188Z</time></trkpt><trkpt lat="43.2151516" lon="11.7964872"><ele>282.0</ele><time>2026-05-02T07:44:52.197Z</time></trkpt><trkpt lat="43.2151009" lon="11.7967978"><ele>282.5</ele><time>2026-05-02T07:44:53.185Z</time></trkpt><trkpt lat="43.2150629" lon="11.7971125"><ele>283.0</ele><time>2026-05-02T07:44:54.178Z</time></trkpt><trkpt lat="43.2150303" lon="11.7974261"><ele>284.5</ele><time>2026-05-02T07:44:55.183Z</time></trkpt><trkpt lat="43.2149925" lon="11.7977383"><ele>286.0</ele><time>2026-05-02T07:44:56.192Z</time></trkpt><trkpt lat="43.2149604" lon="11.7980471"><ele>286.0</ele><time>2026-05-02T07:44:57.17Z</time></trkpt><trkpt lat="43.2149254" lon="11.7983464"><ele>286.0</ele><time>2026-05-02T07:44:58.199Z</time></trkpt><trkpt lat="43.2148975" lon="11.7986335"><ele>286.0</ele><time>2026-05-02T07:44:59.203Z</time></trkpt><trkpt lat="43.2148702" lon="11.7989068"><ele>285.3333333333333</ele><time>2026-05-02T07:45:00.185Z</time></trkpt><trkpt lat="43.2148434" lon="11.7991714"><ele>284.6666666666667</ele><time>2026-05-02T07:45:01.196Z</time></trkpt><trkpt lat="43.2148171" lon="11.7994332"><ele>284.0</ele><time>2026-05-02T07:45:02.203Z</time></trkpt><trkpt lat="43.2147868" lon="11.799699"><ele>286.33333333333337</ele><time>2026-05-02T07:45:03.197Z</time></trkpt><trkpt lat="43.2147575" lon="11.7999689"><ele>288.6666666666667</ele><time>2026-05-02T07:45:04.206Z</time></trkpt><trkpt lat="43.2147306" lon="11.8002403"><ele>291.0</ele><time>2026-05-02T07:45:05.188Z</time></trkpt><trkpt lat="43.2147112" lon="11.8005124"><ele>292.0</ele><time>2026-05-02T07:45:06.201Z</time></trkpt><trkpt lat="43.214704" lon="11.8007759"><ele>293.0</ele><time>2026-05-02T07:45:07.194Z</time></trkpt><trkpt lat="43.2146977" lon="11.8010396"><ele>294.0</ele><time>2026-05-02T07:45:08.18Z</time></trkpt><trkpt lat="43.214697" lon="11.8013056"><ele>291.6666666666667</ele><time>2026-05-02T07:45:09.191Z</time></trkpt><trkpt lat="43.2146997" lon="11.8015707"><ele>289.33333333333337</ele><time>2026-05-02T07:45:10.19Z</time></trkpt><trkpt lat="43.2147135" lon="11.8018389"><ele>287.0</ele><time>2026-05-02T07:45:11.172Z</time></trkpt><trkpt lat="43.2147255" lon="11.8021073"><ele>284.6666666666667</ele><time>2026-05-02T07:45:12.186Z</time></trkpt><trkpt lat="43.2147497" lon="11.8023724"><ele>282.3333333333333</ele><time>2026-05-02T07:45:13.196Z</time></trkpt><trkpt lat="43.2147824" lon="11.8026418"><ele>280.0</ele><time>2026-05-02T07:45:14.201Z</time></trkpt><trkpt lat="43.2148242" lon="11.8029055"><ele>279.0</ele><time>2026-05-02T07:45:15.198Z</time></trkpt><trkpt lat="43.214876" lon="11.80316"><ele>278.0</ele><time>2026-05-02T07:45:16.201Z</time></trkpt><trkpt lat="43.2149374" lon="11.8033998"><ele>277.0</ele><time>2026-05-02T07:45:17.172Z</time></trkpt><trkpt lat="43.2150007" lon="11.8036307"><ele>275.66666666666663</ele><time>2026-05-02T07:45:18.199Z</time></trkpt><trkpt lat="43.2150675" lon="11.8038495"><ele>274.3333333333333</ele><time>2026-05-02T07:45:19.2Z</time></trkpt><trkpt lat="43.2151336" lon="11.8040617"><ele>273.0</ele><time>2026-05-02T07:45:20.209Z</time></trkpt><trkpt lat="43.2152038" lon="11.804257"><ele>272.0</ele><time>2026-05-02T07:45:21.204Z</time></trkpt><trkpt lat="43.2152729" lon="11.8044419"><ele>271.0</ele><time>2026-05-02T07:45:22.2Z</time></trkpt><trkpt lat="43.2153436" lon="11.8046209"><ele>270.0</ele><time>2026-05-02T07:45:23.196Z</time></trkpt><trkpt lat="43.215416" lon="11.8047958"><ele>269.0</ele><time>2026-05-02T07:45:24.204Z</time></trkpt><trkpt lat="43.2154893" lon="11.8049617"><ele>269.0</ele><time>2026-05-02T07:45:25.184Z</time></trkpt><trkpt lat="43.215574" lon="11.8051271"><ele>269.0</ele><time>2026-05-02T07:45:26.196Z</time></trkpt><trkpt lat="43.2156714" lon="11.8052952"><ele>269.0</ele><time>2026-05-02T07:45:27.202Z</time></trkpt><trkpt lat="43.215772" lon="11.8054769"><ele>267.33333333333337</ele><time>2026-05-02T07:45:28.185Z</time></trkpt><trkpt lat="43.2158756" lon="11.8056784"><ele>265.6666666666667</ele><time>2026-05-02T07:45:29.188Z</time></trkpt><trkpt lat="43.215969" lon="11.8058863"><ele>264.0</ele><time>2026-05-02T07:45:30.189Z</time></trkpt><trkpt lat="43.2160674" lon="11.8060988"><ele>262.3333333333333</ele><time>2026-05-02T07:45:31.194Z</time></trkpt><trkpt lat="43.2161717" lon="11.806307"><ele>260.66666666666663</ele><time>2026-05-02T07:45:32.201Z</time></trkpt><trkpt lat="43.2162708" lon="11.8064966"><ele>259.0</ele><time>2026-05-02T07:45:33.178Z</time></trkpt><trkpt lat="43.2163629" lon="11.8066817"><ele>258.66666666666663</ele><time>2026-05-02T07:45:34.201Z</time></trkpt><trkpt lat="43.2164501" lon="11.8068631"><ele>258.3333333333333</ele><time>2026-05-02T07:45:35.184Z</time></trkpt><trkpt lat="43.2165305" lon="11.8070477"><ele>258.0</ele><time>2026-05-02T07:45:36.206Z</time></trkpt><trkpt lat="43.2166161" lon="11.8072271"><ele>257.6666666666667</ele><time>2026-05-02T07:45:37.175Z</time></trkpt><trkpt lat="43.2167017" lon="11.8074111"><ele>257.33333333333337</ele><time>2026-05-02T07:45:38.181Z</time></trkpt><trkpt lat="43.2167858" lon="11.8075977"><ele>257.0</ele><time>2026-05-02T07:45:39.178Z</time></trkpt><trkpt lat="43.2168619" lon="11.80779"><ele>255.66666666666669</ele><time>2026-05-02T07:45:40.195Z</time></trkpt><trkpt lat="43.2169332" lon="11.8080007"><ele>254.33333333333331</ele><time>2026-05-02T07:45:41.186Z</time></trkpt><trkpt lat="43.2170134" lon="11.8082197"><ele>253.0</ele><time>2026-05-02T07:45:42.2Z</time></trkpt><trkpt lat="43.2171098" lon="11.8084435"><ele>252.66666666666666</ele><time>2026-05-02T07:45:43.201Z</time></trkpt><trkpt lat="43.2172262" lon="11.8086818"><ele>252.33333333333331</ele><time>2026-05-02T07:45:44.179Z</time></trkpt><trkpt lat="43.2173424" lon="11.8089248"><ele>252.0</ele><time>2026-05-02T07:45:45.196Z</time></trkpt><trkpt lat="43.2174574" lon="11.8091692"><ele>252.33333333333331</ele><time>2026-05-02T07:45:46.193Z</time></trkpt><trkpt lat="43.2175771" lon="11.8094221"><ele>252.66666666666666</ele><time>2026-05-02T07:45:47.189Z</time></trkpt><trkpt lat="43.2176974" lon="11.8096741"><ele>253.0</ele><time>2026-05-02T07:45:48.189Z</time></trkpt><trkpt lat="43.2178174" lon="11.809936"><ele>251.5</ele><time>2026-05-02T07:45:49.197Z</time></trkpt><trkpt lat="43.2179431" lon="11.8102009"><ele>250.0</ele><time>2026-05-02T07:45:50.185Z</time></trkpt><trkpt lat="43.2180708" lon="11.8104657"><ele>250.0</ele><time>2026-05-02T07:45:51.204Z</time></trkpt><trkpt lat="43.2181964" lon="11.8107294"><ele>250.0</ele><time>2026-05-02T07:45:52.203Z</time></trkpt><trkpt lat="43.218322" lon="11.8109951"><ele>250.0</ele><time>2026-05-02T07:45:53.19Z</time></trkpt><trkpt lat="43.218453" lon="11.8112636"><ele>250.0</ele><time>2026-05-02T07:45:54.194Z</time></trkpt><trkpt lat="43.2185799" lon="11.8115368"><ele>250.0</ele><time>2026-05-02T07:45:55.189Z</time></trkpt><trkpt lat="43.2187079" lon="11.8118035"><ele>250.0</ele><time>2026-05-02T07:45:56.197Z</time></trkpt><trkpt lat="43.2188317" lon="11.8120698"><ele>250.0</ele><time>2026-05-02T07:45:57.188Z</time></trkpt><trkpt lat="43.218955" lon="11.8123388"><ele>250.0</ele><time>2026-05-02T07:45:58.195Z</time></trkpt><trkpt lat="43.2190783" lon="11.8125978"><ele>249.66666666666666</ele><time>2026-05-02T07:45:59.206Z</time></trkpt><trkpt lat="43.2191899" lon="11.8128358"><ele>249.33333333333331</ele><time>2026-05-02T07:46:00.192Z</time></trkpt><trkpt lat="43.2193013" lon="11.813079"><ele>249.0</ele><time>2026-05-02T07:46:01.185Z</time></trkpt><trkpt lat="43.2194089" lon="11.8133278"><ele>248.66666666666669</ele><time>2026-05-02T07:46:02.192Z</time></trkpt><trkpt lat="43.2195196" lon="11.8135827"><ele>248.33333333333334</ele><time>2026-05-02T07:46:03.185Z</time></trkpt><trkpt lat="43.2196279" lon="11.8138382"><ele>248.0</ele><time>2026-05-02T07:46:04.184Z</time></trkpt><trkpt lat="43.2197426" lon="11.8141061"><ele>249.0</ele><time>2026-05-02T07:46:05.201Z</time></trkpt><trkpt lat="43.2198552" lon="11.8143873"><ele>250.0</ele><time>2026-05-02T07:46:06.187Z</time></trkpt><trkpt lat="43.2199655" lon="11.8146637"><ele>250.0</ele><time>2026-05-02T07:46:07.195Z</time></trkpt><trkpt lat="43.2200706" lon="11.814943"><ele>250.0</ele><time>2026-05-02T07:46:08.184Z</time></trkpt><trkpt lat="43.2201717" lon="11.8152185"><ele>249.0</ele><time>2026-05-02T07:46:09.203Z</time></trkpt><trkpt lat="43.2202748" lon="11.8154999"><ele>248.0</ele><time>2026-05-02T07:46:10.191Z</time></trkpt><trkpt lat="43.2203719" lon="11.8157796"><ele>248.5</ele><time>2026-05-02T07:46:11.192Z</time></trkpt><trkpt lat="43.2204651" lon="11.8160579"><ele>249.0</ele><time>2026-05-02T07:46:12.189Z</time></trkpt><trkpt lat="43.2205571" lon="11.8163437"><ele>249.0</ele><time>2026-05-02T07:46:13.199Z</time></trkpt><trkpt lat="43.2206422" lon="11.8166266"><ele>249.0</ele><time>2026-05-02T07:46:14.195Z</time></trkpt><trkpt lat="43.2207269" lon="11.8169083"><ele>249.0</ele><time>2026-05-02T07:46:15.197Z</time></trkpt><trkpt lat="43.2208134" lon="11.8171958"><ele>249.0</ele><time>2026-05-02T07:46:16.19Z</time></trkpt><trkpt lat="43.2208962" lon="11.8174818"><ele>249.0</ele><time>2026-05-02T07:46:17.201Z</time></trkpt><trkpt lat="43.2209729" lon="11.817772"><ele>249.0</ele><time>2026-05-02T07:46:18.193Z</time></trkpt><trkpt lat="43.2210438" lon="11.8180652"><ele>249.0</ele><time>2026-05-02T07:46:19.195Z</time></trkpt><trkpt lat="43.2211161" lon="11.8183617"><ele>249.0</ele><time>2026-05-02T07:46:20.185Z</time></trkpt><trkpt lat="43.2211939" lon="11.8186618"><ele>249.0</ele><time>2026-05-02T07:46:21.192Z</time></trkpt><trkpt lat="43.221268" lon="11.8189514"><ele>249.0</ele><time>2026-05-02T07:46:22.186Z</time></trkpt><trkpt lat="43.221341" lon="11.8192423"><ele>249.0</ele><time>2026-05-02T07:46:23.188Z</time></trkpt><trkpt lat="43.2214166" lon="11.8195381"><ele>248.0</ele><time>2026-05-02T07:46:24.195Z</time></trkpt><trkpt lat="43.2214922" lon="11.8198301"><ele>247.0</ele><time>2026-05-02T07:46:25.179Z</time></trkpt><trkpt lat="43.2215661" lon="11.8201261"><ele>247.0</ele><time>2026-05-02T07:46:26.184Z</time></trkpt><trkpt lat="43.2216387" lon="11.8204198"><ele>247.0</ele><time>2026-05-02T07:46:27.2Z</time></trkpt><trkpt lat="43.2217132" lon="11.8207169"><ele>247.0</ele><time>2026-05-02T07:46:28.187Z</time></trkpt><trkpt lat="43.2217868" lon="11.8210146"><ele>247.0</ele><time>2026-05-02T07:46:29.201Z</time></trkpt><trkpt lat="43.2218561" lon="11.8213095"><ele>247.0</ele><time>2026-05-02T07:46:30.19Z</time></trkpt><trkpt lat="43.2219243" lon="11.8216053"><ele>247.0</ele><time>2026-05-02T07:46:31.197Z</time></trkpt><trkpt lat="43.2219986" lon="11.8218973"><ele>247.0</ele><time>2026-05-02T07:46:32.202Z</time></trkpt><trkpt lat="43.2220786" lon="11.8221933"><ele>247.0</ele><time>2026-05-02T07:46:33.21Z</time></trkpt><trkpt lat="43.2221518" lon="11.8224898"><ele>247.0</ele><time>2026-05-02T07:46:34.18Z</time></trkpt><trkpt lat="43.2222243" lon="11.822783"><ele>247.0</ele><time>2026-05-02T07:46:35.198Z</time></trkpt><trkpt lat="43.2222994" lon="11.8230699"><ele>247.0</ele><time>2026-05-02T07:46:36.196Z</time></trkpt><trkpt lat="43.222379" lon="11.8233586"><ele>247.5</ele><time>2026-05-02T07:46:37.184Z</time></trkpt><trkpt lat="43.2224552" lon="11.8236479"><ele>248.0</ele><time>2026-05-02T07:46:38.184Z</time></trkpt><trkpt lat="43.2225304" lon="11.8239413"><ele>248.0</ele><time>2026-05-02T07:46:39.173Z</time></trkpt><trkpt lat="43.2226067" lon="11.8242355"><ele>248.0</ele><time>2026-05-02T07:46:40.191Z</time></trkpt><trkpt lat="43.2226805" lon="11.8245367"><ele>249.0</ele><time>2026-05-02T07:46:41.208Z</time></trkpt><trkpt lat="43.2227582" lon="11.8248291"><ele>250.0</ele><time>2026-05-02T07:46:42.184Z</time></trkpt><trkpt lat="43.2228354" lon="11.8251207"><ele>248.5</ele><time>2026-05-02T07:46:43.195Z</time></trkpt><trkpt lat="43.2229123" lon="11.8254156"><ele>247.0</ele><time>2026-05-02T07:46:44.171Z</time></trkpt><trkpt lat="43.2229861" lon="11.8257122"><ele>246.5</ele><time>2026-05-02T07:46:45.193Z</time></trkpt><trkpt lat="43.2230558" lon="11.8260123"><ele>246.0</ele><time>2026-05-02T07:46:46.177Z</time></trkpt><trkpt lat="43.2231282" lon="11.8263088"><ele>247.0</ele><time>2026-05-02T07:46:47.18Z</time></trkpt><trkpt lat="43.2232048" lon="11.826607"><ele>248.0</ele><time>2026-05-02T07:46:48.17Z</time></trkpt><trkpt lat="43.2232833" lon="11.8269009"><ele>248.0</ele><time>2026-05-02T07:46:49.198Z</time></trkpt><trkpt lat="43.2233574" lon="11.8271961"><ele>248.0</ele><time>2026-05-02T07:46:50.187Z</time></trkpt><trkpt lat="43.223437" lon="11.8274983"><ele>248.0</ele><time>2026-05-02T07:46:51.19Z</time></trkpt><trkpt lat="43.223518" lon="11.8278003"><ele>248.0</ele><time>2026-05-02T07:46:52.204Z</time></trkpt><trkpt lat="43.2235995" lon="11.8280999"><ele>248.0</ele><time>2026-05-02T07:46:53.189Z</time></trkpt><trkpt lat="43.2236863" lon="11.8283964"><ele>248.0</ele><time>2026-05-02T07:46:54.205Z</time></trkpt><trkpt lat="43.2237707" lon="11.8286912"><ele>247.0</ele><time>2026-05-02T07:46:55.166Z</time></trkpt><trkpt lat="43.2238612" lon="11.828985"><ele>246.0</ele><time>2026-05-02T07:46:56.208Z</time></trkpt><trkpt lat="43.2239528" lon="11.8292704"><ele>247.5</ele><time>2026-05-02T07:46:57.186Z</time></trkpt><trkpt lat="43.2240535" lon="11.8295515"><ele>249.0</ele><time>2026-05-02T07:46:58.209Z</time></trkpt><trkpt lat="43.2241491" lon="11.8298385"><ele>249.0</ele><time>2026-05-02T07:46:59.188Z</time></trkpt><trkpt lat="43.2242515" lon="11.830121"><ele>249.0</ele><time>2026-05-02T07:47:00.201Z</time></trkpt><trkpt lat="43.2243599" lon="11.8303997"><ele>249.0</ele><time>2026-05-02T07:47:01.175Z</time></trkpt><trkpt lat="43.2244689" lon="11.8306752"><ele>249.0</ele><time>2026-05-02T07:47:02.2Z</time></trkpt><trkpt lat="43.2245811" lon="11.8309511"><ele>248.5</ele><time>2026-05-02T07:47:03.18Z</time></trkpt><trkpt lat="43.2246883" lon="11.8312322"><ele>248.0</ele><time>2026-05-02T07:47:04.193Z</time></trkpt><trkpt lat="43.224797" lon="11.8315082"><ele>248.0</ele><time>2026-05-02T07:47:05.183Z</time></trkpt><trkpt lat="43.2249087" lon="11.8317855"><ele>248.0</ele><time>2026-05-02T07:47:06.166Z</time></trkpt><trkpt lat="43.2250181" lon="11.8320675"><ele>248.0</ele><time>2026-05-02T07:47:07.175Z</time></trkpt><trkpt lat="43.2251341" lon="11.8323395"><ele>248.0</ele><time>2026-05-02T07:47:08.177Z</time></trkpt><trkpt lat="43.2252478" lon="11.8326147"><ele>246.5</ele><time>2026-05-02T07:47:09.196Z</time></trkpt><trkpt lat="43.2253597" lon="11.8328931"><ele>245.0</ele><time>2026-05-02T07:47:10.197Z</time></trkpt><trkpt lat="43.22547" lon="11.8331735"><ele>245.0</ele><time>2026-05-02T07:47:11.209Z</time></trkpt><trkpt lat="43.2255897" lon="11.8334505"><ele>245.0</ele><time>2026-05-02T07:47:12.186Z</time></trkpt><trkpt lat="43.2257015" lon="11.8337271"><ele>244.0</ele><time>2026-05-02T07:47:13.179Z</time></trkpt><trkpt lat="43.2258148" lon="11.8340002"><ele>243.0</ele><time>2026-05-02T07:47:14.196Z</time></trkpt><trkpt lat="43.2259329" lon="11.8342808"><ele>243.5</ele><time>2026-05-02T07:47:15.184Z</time></trkpt><trkpt lat="43.2260471" lon="11.8345668"><ele>244.0</ele><time>2026-05-02T07:47:16.199Z</time></trkpt><trkpt lat="43.2261652" lon="11.8348491"><ele>244.0</ele><time>2026-05-02T07:47:17.195Z</time></trkpt><trkpt lat="43.2262755" lon="11.8351356"><ele>244.0</ele><time>2026-05-02T07:47:18.19Z</time></trkpt><trkpt lat="43.2263935" lon="11.8354204"><ele>245.0</ele><time>2026-05-02T07:47:19.197Z</time></trkpt><trkpt lat="43.2265108" lon="11.8356965"><ele>246.0</ele><time>2026-05-02T07:47:20.186Z</time></trkpt><trkpt lat="43.2266351" lon="11.835965"><ele>246.5</ele><time>2026-05-02T07:47:21.209Z</time></trkpt><trkpt lat="43.2267667" lon="11.8362256"><ele>247.0</ele><time>2026-05-02T07:47:22.207Z</time></trkpt><trkpt lat="43.226899" lon="11.836487"><ele>247.0</ele><time>2026-05-02T07:47:23.179Z</time></trkpt><trkpt lat="43.2270382" lon="11.8367433"><ele>247.0</ele><time>2026-05-02T07:47:24.195Z</time></trkpt><trkpt lat="43.2271824" lon="11.8370056"><ele>248.5</ele><time>2026-05-02T07:47:25.189Z</time></trkpt><trkpt lat="43.2273222" lon="11.8372643"><ele>250.0</ele><time>2026-05-02T07:47:26.17Z</time></trkpt><trkpt lat="43.2274676" lon="11.8375132"><ele>250.5</ele><time>2026-05-02T07:47:27.191Z</time></trkpt><trkpt lat="43.2276203" lon="11.8377549"><ele>251.0</ele><time>2026-05-02T07:47:28.193Z</time></trkpt><trkpt lat="43.2277819" lon="11.8379956"><ele>251.0</ele><time>2026-05-02T07:47:29.201Z</time></trkpt><trkpt lat="43.2279389" lon="11.838234"><ele>251.0</ele><time>2026-05-02T07:47:30.184Z</time></trkpt><trkpt lat="43.228101" lon="11.8384669"><ele>251.5</ele><time>2026-05-02T07:47:31.191Z</time></trkpt><trkpt lat="43.2282635" lon="11.8386971"><ele>252.0</ele><time>2026-05-02T07:47:32.186Z</time></trkpt><trkpt lat="43.2284302" lon="11.8389222"><ele>252.0</ele><time>2026-05-02T07:47:33.179Z</time></trkpt><trkpt lat="43.2286065" lon="11.8391403"><ele>252.0</ele><time>2026-05-02T07:47:34.193Z</time></trkpt><trkpt lat="43.2287813" lon="11.8393583"><ele>252.5</ele><time>2026-05-02T07:47:35.177Z</time></trkpt><trkpt lat="43.2289582" lon="11.8395727"><ele>253.0</ele><time>2026-05-02T07:47:36.19Z</time></trkpt><trkpt lat="43.2291359" lon="11.8397778"><ele>253.0</ele><time>2026-05-02T07:47:37.179Z</time></trkpt><trkpt lat="43.2293116" lon="11.8399843"><ele>253.0</ele><time>2026-05-02T07:47:38.184Z</time></trkpt><trkpt lat="43.2294877" lon="11.8401981"><ele>254.5</ele><time>2026-05-02T07:47:39.2Z</time></trkpt><trkpt lat="43.2296662" lon="11.8404032"><ele>256.0</ele><time>2026-05-02T07:47:40.196Z</time></trkpt><trkpt lat="43.2298394" lon="11.8406169"><ele>256.0</ele><time>2026-05-02T07:47:41.177Z</time></trkpt><trkpt lat="43.2300104" lon="11.8408241"><ele>256.0</ele><time>2026-05-02T07:47:42.185Z</time></trkpt><trkpt lat="43.2301843" lon="11.8410278"><ele>260.0</ele><time>2026-05-02T07:47:43.19Z</time></trkpt><trkpt lat="43.2303564" lon="11.8412289"><ele>264.0</ele><time>2026-05-02T07:47:44.186Z</time></trkpt><trkpt lat="43.2305304" lon="11.8414364"><ele>263.0</ele><time>2026-05-02T07:47:45.177Z</time></trkpt><trkpt lat="43.2307047" lon="11.8416492"><ele>262.0</ele><time>2026-05-02T07:47:46.186Z</time></trkpt><trkpt lat="43.2308771" lon="11.8418604"><ele>262.0</ele><time>2026-05-02T07:47:47.181Z</time></trkpt><trkpt lat="43.2310514" lon="11.8420707"><ele>262.0</ele><time>2026-05-02T07:47:48.199Z</time></trkpt><trkpt lat="43.2312205" lon="11.842283"><ele>262.0</ele><time>2026-05-02T07:47:49.192Z</time></trkpt><trkpt lat="43.231395" lon="11.8424905"><ele>262.0</ele><time>2026-05-02T07:47:50.172Z</time></trkpt><trkpt lat="43.2315661" lon="11.842691"><ele>261.0</ele><time>2026-05-02T07:47:51.193Z</time></trkpt><trkpt lat="43.2317375" lon="11.842896"><ele>260.0</ele><time>2026-05-02T07:47:52.19Z</time></trkpt><trkpt lat="43.2319083" lon="11.8431028"><ele>260.0</ele><time>2026-05-02T07:47:53.188Z</time></trkpt><trkpt lat="43.2320723" lon="11.8433125"><ele>260.0</ele><time>2026-05-02T07:47:54.187Z</time></trkpt><trkpt lat="43.2322294" lon="11.8435268"><ele>260.0</ele><time>2026-05-02T07:47:55.19Z</time></trkpt><trkpt lat="43.2323861" lon="11.8437512"><ele>259.0</ele><time>2026-05-02T07:47:56.192Z</time></trkpt><trkpt lat="43.2325365" lon="11.8439862"><ele>258.0</ele><time>2026-05-02T07:47:57.181Z</time></trkpt><trkpt lat="43.2326842" lon="11.8442344"><ele>260.0</ele><time>2026-05-02T07:47:58.188Z</time></trkpt><trkpt lat="43.2328183" lon="11.8444934"><ele>262.0</ele><time>2026-05-02T07:47:59.185Z</time></trkpt><trkpt lat="43.2329366" lon="11.8447662"><ele>262.0</ele><time>2026-05-02T07:48:00.187Z</time></trkpt><trkpt lat="43.2330493" lon="11.8450491"><ele>262.0</ele><time>2026-05-02T07:48:01.178Z</time></trkpt><trkpt lat="43.2331532" lon="11.8453375"><ele>261.0</ele><time>2026-05-02T07:48:02.19Z</time></trkpt><trkpt lat="43.2332414" lon="11.8456343"><ele>260.0</ele><time>2026-05-02T07:48:03.184Z</time></trkpt><trkpt lat="43.2333181" lon="11.8459359"><ele>264.5</ele><time>2026-05-02T07:48:04.168Z</time></trkpt><trkpt lat="43.2333831" lon="11.846244"><ele>269.0</ele><time>2026-05-02T07:48:05.192Z</time></trkpt><trkpt lat="43.2334347" lon="11.8465501"><ele>272.0</ele><time>2026-05-02T07:48:06.205Z</time></trkpt><trkpt lat="43.233481" lon="11.8468667"><ele>275.0</ele><time>2026-05-02T07:48:07.185Z</time></trkpt><trkpt lat="43.2335147" lon="11.8471862"><ele>275.0</ele><time>2026-05-02T07:48:08.186Z</time></trkpt><trkpt lat="43.2335367" lon="11.8475106"><ele>275.0</ele><time>2026-05-02T07:48:09.201Z</time></trkpt><trkpt lat="43.2335442" lon="11.8478304"><ele>275.0</ele><time>2026-05-02T07:48:10.186Z</time></trkpt><trkpt lat="43.2335395" lon="11.8481485"><ele>275.0</ele><time>2026-05-02T07:48:11.206Z</time></trkpt><trkpt lat="43.2335239" lon="11.8484721"><ele>274.0</ele><time>2026-05-02T07:48:12.201Z</time></trkpt><trkpt lat="43.2334974" lon="11.8487893"><ele>273.0</ele><time>2026-05-02T07:48:13.193Z</time></trkpt><trkpt lat="43.2334577" lon="11.8491016"><ele>272.0</ele><time>2026-05-02T07:48:14.198Z</time></trkpt><trkpt lat="43.2334049" lon="11.8494109"><ele>271.0</ele><time>2026-05-02T07:48:15.192Z</time></trkpt><trkpt lat="43.2333369" lon="11.8497122"><ele>271.0</ele><time>2026-05-02T07:48:16.196Z</time></trkpt><trkpt lat="43.233255" lon="11.8500058"><ele>271.0</ele><time>2026-05-02T07:48:17.189Z</time></trkpt><trkpt lat="43.2331612" lon="11.8502995"><ele>270.0</ele><time>2026-05-02T07:48:18.191Z</time></trkpt><trkpt lat="43.2330554" lon="11.8505842"><ele>269.0</ele><time>2026-05-02T07:48:19.189Z</time></trkpt><trkpt lat="43.2329415" lon="11.8508704"><ele>269.5</ele><time>2026-05-02T07:48:20.19Z</time></trkpt><trkpt lat="43.2328157" lon="11.8511438"><ele>270.0</ele><time>2026-05-02T07:48:21.195Z</time></trkpt><trkpt lat="43.2326825" lon="11.8514088"><ele>270.0</ele><time>2026-05-02T07:48:22.2Z</time></trkpt><trkpt lat="43.2325373" lon="11.8516669"><ele>270.0</ele><time>2026-05-02T07:48:23.197Z</time></trkpt><trkpt lat="43.2323787" lon="11.8519085"><ele>268.0</ele><time>2026-05-02T07:48:24.193Z</time></trkpt><trkpt lat="43.2322179" lon="11.8521537"><ele>266.0</ele><time>2026-05-02T07:48:25.2Z</time></trkpt><trkpt lat="43.2320602" lon="11.8523937"><ele>268.5</ele><time>2026-05-02T07:48:26.199Z</time></trkpt><trkpt lat="43.2319055" lon="11.8526494"><ele>271.0</ele><time>2026-05-02T07:48:27.182Z</time></trkpt><trkpt lat="43.2317552" lon="11.8528977"><ele>271.0</ele><time>2026-05-02T07:48:28.187Z</time></trkpt><trkpt lat="43.2316077" lon="11.8531537"><ele>271.0</ele><time>2026-05-02T07:48:29.193Z</time></trkpt><trkpt lat="43.2314629" lon="11.8534113"><ele>268.5</ele><time>2026-05-02T07:48:30.193Z</time></trkpt><trkpt lat="43.2313348" lon="11.853685"><ele>266.0</ele><time>2026-05-02T07:48:31.192Z</time></trkpt><trkpt lat="43.2312221" lon="11.8539661"><ele>266.0</ele><time>2026-05-02T07:48:32.185Z</time></trkpt><trkpt lat="43.2311163" lon="11.8542502"><ele>266.0</ele><time>2026-05-02T07:48:33.198Z</time></trkpt><trkpt lat="43.2310187" lon="11.8545454"><ele>268.0</ele><time>2026-05-02T07:48:34.185Z</time></trkpt><trkpt lat="43.2309282" lon="11.8548461"><ele>270.0</ele><time>2026-05-02T07:48:35.189Z</time></trkpt><trkpt lat="43.2308521" lon="11.855157"><ele>270.5</ele><time>2026-05-02T07:48:36.16Z</time></trkpt><trkpt lat="43.230798" lon="11.8554742"><ele>271.0</ele><time>2026-05-02T07:48:37.188Z</time></trkpt><trkpt lat="43.2307532" lon="11.8557967"><ele>269.5</ele><time>2026-05-02T07:48:38.207Z</time></trkpt><trkpt lat="43.2307113" lon="11.8561165"><ele>268.0</ele><time>2026-05-02T07:48:39.186Z</time></trkpt><trkpt lat="43.2306847" lon="11.8564383"><ele>268.0</ele><time>2026-05-02T07:48:40.193Z</time></trkpt><trkpt lat="43.2306656" lon="11.8567659"><ele>268.0</ele><time>2026-05-02T07:48:41.185Z</time></trkpt><trkpt lat="43.2306592" lon="11.8570852"><ele>266.0</ele><time>2026-05-02T07:48:42.192Z</time></trkpt><trkpt lat="43.230662" lon="11.8574054"><ele>264.0</ele><time>2026-05-02T07:48:43.183Z</time></trkpt><trkpt lat="43.2306693" lon="11.8577299"><ele>262.0</ele><time>2026-05-02T07:48:44.192Z</time></trkpt><trkpt lat="43.2306786" lon="11.858054"><ele>260.0</ele><time>2026-05-02T07:48:45.194Z</time></trkpt><trkpt lat="43.2306857" lon="11.8583807"><ele>258.5</ele><time>2026-05-02T07:48:46.218Z</time></trkpt><trkpt lat="43.2306937" lon="11.8587032"><ele>257.0</ele><time>2026-05-02T07:48:47.198Z</time></trkpt><trkpt lat="43.2306978" lon="11.8590235"><ele>258.0</ele><time>2026-05-02T07:48:48.198Z</time></trkpt><trkpt lat="43.2306989" lon="11.8593458"><ele>259.0</ele><time>2026-05-02T07:48:49.189Z</time></trkpt><trkpt lat="43.2307001" lon="11.8596705"><ele>259.0</ele><time>2026-05-02T07:48:50.199Z</time></trkpt><trkpt lat="43.2307102" lon="11.85999"><ele>259.0</ele><time>2026-05-02T07:48:51.194Z</time></trkpt><trkpt lat="43.23072" lon="11.8603144"><ele>259.0</ele><time>2026-05-02T07:48:52.186Z</time></trkpt><trkpt lat="43.2307241" lon="11.8606392"><ele>259.0</ele><time>2026-05-02T07:48:53.206Z</time></trkpt><trkpt lat="43.2307318" lon="11.8609649"><ele>259.0</ele><time>2026-05-02T07:48:54.205Z</time></trkpt><trkpt lat="43.2307314" lon="11.8612845"><ele>259.0</ele><time>2026-05-02T07:48:55.196Z</time></trkpt><trkpt lat="43.2307389" lon="11.861609"><ele>261.0</ele><time>2026-05-02T07:48:56.176Z</time></trkpt><trkpt lat="43.230744" lon="11.8619318"><ele>263.0</ele><time>2026-05-02T07:48:57.195Z</time></trkpt><trkpt lat="43.2307485" lon="11.8622461"><ele>263.0</ele><time>2026-05-02T07:48:58.197Z</time></trkpt><trkpt lat="43.23075" lon="11.8625656"><ele>263.0</ele><time>2026-05-02T07:48:59.191Z</time></trkpt><trkpt lat="43.2307468" lon="11.8628854"><ele>264.0</ele><time>2026-05-02T07:49:00.207Z</time></trkpt><trkpt lat="43.2307541" lon="11.8632035"><ele>265.0</ele><time>2026-05-02T07:49:01.186Z</time></trkpt><trkpt lat="43.2307634" lon="11.8635197"><ele>265.0</ele><time>2026-05-02T07:49:02.174Z</time></trkpt><trkpt lat="43.2307675" lon="11.863835"><ele>265.0</ele><time>2026-05-02T07:49:03.194Z</time></trkpt><trkpt lat="43.2307669" lon="11.8641398"><ele>266.0</ele><time>2026-05-02T07:49:04.201Z</time></trkpt><trkpt lat="43.230768" lon="11.8644468"><ele>267.0</ele><time>2026-05-02T07:49:05.188Z</time></trkpt><trkpt lat="43.2307555" lon="11.8647621"><ele>267.0</ele><time>2026-05-02T07:49:06.184Z</time></trkpt><trkpt lat="43.2307437" lon="11.8650954"><ele>267.0</ele><time>2026-05-02T07:49:07.189Z</time></trkpt><trkpt lat="43.2307273" lon="11.8654287"><ele>266.0</ele><time>2026-05-02T07:49:08.202Z</time></trkpt><trkpt lat="43.2307043" lon="11.8657684"><ele>265.0</ele><time>2026-05-02T07:49:09.201Z</time></trkpt><trkpt lat="43.2306828" lon="11.8661115"><ele>264.0</ele><time>2026-05-02T07:49:10.185Z</time></trkpt><trkpt lat="43.2306535" lon="11.8664636"><ele>263.0</ele><time>2026-05-02T07:49:11.188Z</time></trkpt><trkpt lat="43.2306286" lon="11.8668159"><ele>265.0</ele><time>2026-05-02T07:49:12.187Z</time></trkpt><trkpt lat="43.2305989" lon="11.8671742"><ele>267.0</ele><time>2026-05-02T07:49:13.205Z</time></trkpt><trkpt lat="43.2305701" lon="11.8675372"><ele>266.0</ele><time>2026-05-02T07:49:14.188Z</time></trkpt><trkpt lat="43.230539" lon="11.8678974"><ele>265.0</ele><time>2026-05-02T07:49:15.189Z</time></trkpt><trkpt lat="43.2305084" lon="11.8682568"><ele>265.0</ele><time>2026-05-02T07:49:16.186Z</time></trkpt><trkpt lat="43.2304695" lon="11.8686142"><ele>265.0</ele><time>2026-05-02T07:49:17.195Z</time></trkpt><trkpt lat="43.2304316" lon="11.868964"><ele>266.5</ele><time>2026-05-02T07:49:18.185Z</time></trkpt><trkpt lat="43.2303942" lon="11.8693115"><ele>268.0</ele><time>2026-05-02T07:49:19.193Z</time></trkpt><trkpt lat="43.2303578" lon="11.8696545"><ele>268.0</ele><time>2026-05-02T07:49:20.191Z</time></trkpt><trkpt lat="43.2303204" lon="11.8700018"><ele>268.0</ele><time>2026-05-02T07:49:21.194Z</time></trkpt><trkpt lat="43.2302818" lon="11.8703488"><ele>267.5</ele><time>2026-05-02T07:49:22.191Z</time></trkpt><trkpt lat="43.2302416" lon="11.870695"><ele>267.0</ele><time>2026-05-02T07:49:23.187Z</time></trkpt><trkpt lat="43.230201" lon="11.8710496"><ele>266.5</ele><time>2026-05-02T07:49:24.191Z</time></trkpt><trkpt lat="43.2301531" lon="11.8713957"><ele>266.0</ele><time>2026-05-02T07:49:25.19Z</time></trkpt><trkpt lat="43.2301099" lon="11.8717446"><ele>266.0</ele><time>2026-05-02T07:49:26.198Z</time></trkpt><trkpt lat="43.2300671" lon="11.8720926"><ele>266.0</ele><time>2026-05-02T07:49:27.187Z</time></trkpt><trkpt lat="43.2300284" lon="11.87244"><ele>266.5</ele><time>2026-05-02T07:49:28.185Z</time></trkpt><trkpt lat="43.2299892" lon="11.8727777"><ele>267.0</ele><time>2026-05-02T07:49:29.199Z</time></trkpt><trkpt lat="43.2299572" lon="11.8731165"><ele>267.5</ele><time>2026-05-02T07:49:30.161Z</time></trkpt><trkpt lat="43.2299206" lon="11.8734703"><ele>268.0</ele><time>2026-05-02T07:49:31.158Z</time></trkpt><trkpt lat="43.2298869" lon="11.8738165"><ele>268.0</ele><time>2026-05-02T07:49:32.184Z</time></trkpt><trkpt lat="43.2298514" lon="11.8741528"><ele>268.0</ele><time>2026-05-02T07:49:33.184Z</time></trkpt><trkpt lat="43.2298143" lon="11.8744907"><ele>270.0</ele><time>2026-05-02T07:49:34.156Z</time></trkpt><trkpt lat="43.2297753" lon="11.8748276"><ele>272.0</ele><time>2026-05-02T07:49:35.165Z</time></trkpt><trkpt lat="43.229739" lon="11.8751606"><ele>272.0</ele><time>2026-05-02T07:49:36.19Z</time></trkpt><trkpt lat="43.2297046" lon="11.8754912"><ele>272.0</ele><time>2026-05-02T07:49:37.174Z</time></trkpt><trkpt lat="43.2296699" lon="11.8758259"><ele>273.0</ele><time>2026-05-02T07:49:38.188Z</time></trkpt><trkpt lat="43.2296335" lon="11.8761591"><ele>274.0</ele><time>2026-05-02T07:49:39.181Z</time></trkpt><trkpt lat="43.2296044" lon="11.8764876"><ele>277.5</ele><time>2026-05-02T07:49:40.197Z</time></trkpt><trkpt lat="43.2295738" lon="11.8768193"><ele>281.0</ele><time>2026-05-02T07:49:41.193Z</time></trkpt><trkpt lat="43.2295434" lon="11.8771515"><ele>281.0</ele><time>2026-05-02T07:49:42.199Z</time></trkpt><trkpt lat="43.2295121" lon="11.8774856"><ele>281.0</ele><time>2026-05-02T07:49:43.194Z</time></trkpt><trkpt lat="43.229489" lon="11.8778174"><ele>283.5</ele><time>2026-05-02T07:49:44.192Z</time></trkpt><trkpt lat="43.2294751" lon="11.8781555"><ele>286.0</ele><time>2026-05-02T07:49:45.164Z</time></trkpt><trkpt lat="43.2294649" lon="11.878495"><ele>287.5</ele><time>2026-05-02T07:49:46.18Z</time></trkpt><trkpt lat="43.2294526" lon="11.8788385"><ele>289.0</ele><time>2026-05-02T07:49:47.195Z</time></trkpt><trkpt lat="43.2294492" lon="11.879181"><ele>289.5</ele><time>2026-05-02T07:49:48.181Z</time></trkpt><trkpt lat="43.2294491" lon="11.8795183"><ele>290.0</ele><time>2026-05-02T07:49:49.183Z</time></trkpt><trkpt lat="43.2294462" lon="11.8798567"><ele>289.5</ele><time>2026-05-02T07:49:50.173Z</time></trkpt><trkpt lat="43.2294489" lon="11.880196"><ele>289.0</ele><time>2026-05-02T07:49:51.187Z</time></trkpt><trkpt lat="43.2294556" lon="11.8805394"><ele>289.0</ele><time>2026-05-02T07:49:52.172Z</time></trkpt><trkpt lat="43.2294658" lon="11.880882"><ele>289.0</ele><time>2026-05-02T07:49:53.194Z</time></trkpt><trkpt lat="43.2294748" lon="11.8812208"><ele>292.0</ele><time>2026-05-02T07:49:54.188Z</time></trkpt><trkpt lat="43.2294853" lon="11.8815595"><ele>295.0</ele><time>2026-05-02T07:49:55.188Z</time></trkpt><trkpt lat="43.2295026" lon="11.8819007"><ele>297.5</ele><time>2026-05-02T07:49:56.186Z</time></trkpt><trkpt lat="43.2295247" lon="11.8822413"><ele>300.0</ele><time>2026-05-02T07:49:57.206Z</time></trkpt><trkpt lat="43.2295503" lon="11.8825784"><ele>301.0</ele><time>2026-05-02T07:49:58.193Z</time></trkpt><trkpt lat="43.2295689" lon="11.8829136"><ele>302.0</ele><time>2026-05-02T07:49:59.182Z</time></trkpt><trkpt lat="43.2295794" lon="11.8832483"><ele>302.5</ele><time>2026-05-02T07:50:00.185Z</time></trkpt><trkpt lat="43.2295829" lon="11.8835821"><ele>303.0</ele><time>2026-05-02T07:50:01.194Z</time></trkpt><trkpt lat="43.2295805" lon="11.8839217"><ele>303.0</ele><time>2026-05-02T07:50:02.205Z</time></trkpt><trkpt lat="43.2295732" lon="11.8842606"><ele>303.0</ele><time>2026-05-02T07:50:03.189Z</time></trkpt><trkpt lat="43.2295564" lon="11.8845995"><ele>302.5</ele><time>2026-05-02T07:50:04.193Z</time></trkpt><trkpt lat="43.2295369" lon="11.8849398"><ele>302.0</ele><time>2026-05-02T07:50:05.186Z</time></trkpt><trkpt lat="43.2295109" lon="11.8852791"><ele>300.5</ele><time>2026-05-02T07:50:06.184Z</time></trkpt><trkpt lat="43.2294753" lon="11.8856186"><ele>299.0</ele><time>2026-05-02T07:50:07.195Z</time></trkpt><trkpt lat="43.2294336" lon="11.8859589"><ele>298.0</ele><time>2026-05-02T07:50:08.193Z</time></trkpt><trkpt lat="43.2293813" lon="11.8862989"><ele>297.0</ele><time>2026-05-02T07:50:09.199Z</time></trkpt><trkpt lat="43.2293308" lon="11.8866299"><ele>297.5</ele><time>2026-05-02T07:50:10.191Z</time></trkpt><trkpt lat="43.229266" lon="11.8869565"><ele>298.0</ele><time>2026-05-02T07:50:11.198Z</time></trkpt><trkpt lat="43.2291891" lon="11.8872801"><ele>299.5</ele><time>2026-05-02T07:50:12.201Z</time></trkpt><trkpt lat="43.2291104" lon="11.8876081"><ele>301.0</ele><time>2026-05-02T07:50:13.185Z</time></trkpt><trkpt lat="43.2290269" lon="11.8879339"><ele>295.5</ele><time>2026-05-02T07:50:14.185Z</time></trkpt><trkpt lat="43.2289327" lon="11.888248"><ele>290.0</ele><time>2026-05-02T07:50:15.175Z</time></trkpt><trkpt lat="43.2288336" lon="11.8885664"><ele>290.0</ele><time>2026-05-02T07:50:16.181Z</time></trkpt><trkpt lat="43.2287249" lon="11.8888773"><ele>290.0</ele><time>2026-05-02T07:50:17.201Z</time></trkpt><trkpt lat="43.228615" lon="11.8891818"><ele>290.5</ele><time>2026-05-02T07:50:18.194Z</time></trkpt><trkpt lat="43.2284973" lon="11.8894881"><ele>291.0</ele><time>2026-05-02T07:50:19.189Z</time></trkpt><trkpt lat="43.2283736" lon="11.8897835"><ele>291.0</ele><time>2026-05-02T07:50:20.189Z</time></trkpt><trkpt lat="43.2282504" lon="11.8900806"><ele>291.0</ele><time>2026-05-02T07:50:21.193Z</time></trkpt><trkpt lat="43.2281228" lon="11.8903764"><ele>292.0</ele><time>2026-05-02T07:50:22.193Z</time></trkpt><trkpt lat="43.2279963" lon="11.890663"><ele>293.0</ele><time>2026-05-02T07:50:23.185Z</time></trkpt><trkpt lat="43.2278784" lon="11.8909509"><ele>293.0</ele><time>2026-05-02T07:50:24.196Z</time></trkpt><trkpt lat="43.2277607" lon="11.8912516"><ele>293.0</ele><time>2026-05-02T07:50:25.192Z</time></trkpt><trkpt lat="43.2276486" lon="11.8915486"><ele>294.5</ele><time>2026-05-02T07:50:26.189Z</time></trkpt><trkpt lat="43.2275348" lon="11.8918438"><ele>296.0</ele><time>2026-05-02T07:50:27.187Z</time></trkpt><trkpt lat="43.2274221" lon="11.8921457"><ele>296.0</ele><time>2026-05-02T07:50:28.182Z</time></trkpt><trkpt lat="43.2273156" lon="11.8924516"><ele>296.0</ele><time>2026-05-02T07:50:29.188Z</time></trkpt><trkpt lat="43.2272115" lon="11.8927605"><ele>295.5</ele><time>2026-05-02T07:50:30.206Z</time></trkpt><trkpt lat="43.2271091" lon="11.8930796"><ele>295.0</ele><time>2026-05-02T07:50:31.187Z</time></trkpt><trkpt lat="43.2270149" lon="11.8933944"><ele>295.0</ele><time>2026-05-02T07:50:32.183Z</time></trkpt><trkpt lat="43.22692" lon="11.8937182"><ele>295.0</ele><time>2026-05-02T07:50:33.175Z</time></trkpt><trkpt lat="43.2268267" lon="11.894044"><ele>297.0</ele><time>2026-05-02T07:50:34.161Z</time></trkpt><trkpt lat="43.2267371" lon="11.8943679"><ele>299.0</ele><time>2026-05-02T07:50:35.191Z</time></trkpt><trkpt lat="43.2266527" lon="11.8946918"><ele>299.0</ele><time>2026-05-02T07:50:36.171Z</time></trkpt><trkpt lat="43.226576" lon="11.8950204"><ele>299.0</ele><time>2026-05-02T07:50:37.185Z</time></trkpt><trkpt lat="43.2264959" lon="11.8953425"><ele>295.5</ele><time>2026-05-02T07:50:38.169Z</time></trkpt><trkpt lat="43.2264177" lon="11.8956647"><ele>292.0</ele><time>2026-05-02T07:50:39.179Z</time></trkpt><trkpt lat="43.2263407" lon="11.8959902"><ele>292.0</ele><time>2026-05-02T07:50:40.193Z</time></trkpt><trkpt lat="43.2262704" lon="11.8963248"><ele>292.0</ele><time>2026-05-02T07:50:41.191Z</time></trkpt><trkpt lat="43.2261966" lon="11.8966517"><ele>291.5</ele><time>2026-05-02T07:50:42.18Z</time></trkpt><trkpt lat="43.2261252" lon="11.8969848"><ele>291.0</ele><time>2026-05-02T07:50:43.187Z</time></trkpt><trkpt lat="43.2260412" lon="11.8973155"><ele>290.5</ele><time>2026-05-02T07:50:44.176Z</time></trkpt><trkpt lat="43.2259457" lon="11.8976381"><ele>290.0</ele><time>2026-05-02T07:50:45.181Z</time></trkpt><trkpt lat="43.2258466" lon="11.8979522"><ele>290.0</ele><time>2026-05-02T07:50:46.2Z</time></trkpt><trkpt lat="43.2257436" lon="11.8982639"><ele>290.0</ele><time>2026-05-02T07:50:47.191Z</time></trkpt><trkpt lat="43.2256337" lon="11.8985778"><ele>290.0</ele><time>2026-05-02T07:50:48.185Z</time></trkpt><trkpt lat="43.2255145" lon="11.8988828"><ele>290.0</ele><time>2026-05-02T07:50:49.2Z</time></trkpt><trkpt lat="43.2253919" lon="11.8991772"><ele>293.5</ele><time>2026-05-02T07:50:50.192Z</time></trkpt><trkpt lat="43.2252628" lon="11.8994698"><ele>297.0</ele><time>2026-05-02T07:50:51.162Z</time></trkpt><trkpt lat="43.2251286" lon="11.8997583"><ele>297.0</ele><time>2026-05-02T07:50:52.19Z</time></trkpt><trkpt lat="43.2249876" lon="11.9000361"><ele>297.0</ele><time>2026-05-02T07:50:53.195Z</time></trkpt><trkpt lat="43.224843" lon="11.9003086"><ele>301.5</ele><time>2026-05-02T07:50:54.2Z</time></trkpt><trkpt lat="43.2246959" lon="11.9005739"><ele>306.0</ele><time>2026-05-02T07:50:55.181Z</time></trkpt><trkpt lat="43.2245417" lon="11.9008347"><ele>306.5</ele><time>2026-05-02T07:50:56.182Z</time></trkpt><trkpt lat="43.224387" lon="11.9010908"><ele>307.0</ele><time>2026-05-02T07:50:57.194Z</time></trkpt><trkpt lat="43.224227" lon="11.9013372"><ele>307.0</ele><time>2026-05-02T07:50:58.183Z</time></trkpt><trkpt lat="43.2240608" lon="11.9015826"><ele>307.0</ele><time>2026-05-02T07:50:59.17Z</time></trkpt><trkpt lat="43.2238953" lon="11.9018245"><ele>305.5</ele><time>2026-05-02T07:51:00.182Z</time></trkpt><trkpt lat="43.2237269" lon="11.9020706"><ele>304.0</ele><time>2026-05-02T07:51:01.183Z</time></trkpt><trkpt lat="43.2235631" lon="11.902324"><ele>304.0</ele><time>2026-05-02T07:51:02.176Z</time></trkpt><trkpt lat="43.2234072" lon="11.9025806"><ele>304.0</ele><time>2026-05-02T07:51:03.175Z</time></trkpt><trkpt lat="43.2232572" lon="11.9028465"><ele>302.0</ele><time>2026-05-02T07:51:04.176Z</time></trkpt><trkpt lat="43.223115" lon="11.9031163"><ele>300.0</ele><time>2026-05-02T07:51:05.193Z</time></trkpt><trkpt lat="43.222978" lon="11.9033948"><ele>300.0</ele><time>2026-05-02T07:51:06.192Z</time></trkpt><trkpt lat="43.222853" lon="11.9036828"><ele>300.0</ele><time>2026-05-02T07:51:07.188Z</time></trkpt><trkpt lat="43.2227273" lon="11.9039688"><ele>300.5</ele><time>2026-05-02T07:51:08.202Z</time></trkpt><trkpt lat="43.2226073" lon="11.9042636"><ele>301.0</ele><time>2026-05-02T07:51:09.189Z</time></trkpt><trkpt lat="43.2224932" lon="11.904563"><ele>301.0</ele><time>2026-05-02T07:51:10.183Z</time></trkpt><trkpt lat="43.2223872" lon="11.9048636"><ele>301.0</ele><time>2026-05-02T07:51:11.172Z</time></trkpt><trkpt lat="43.2222872" lon="11.9051674"><ele>306.5</ele><time>2026-05-02T07:51:12.197Z</time></trkpt><trkpt lat="43.2221921" lon="11.9054762"><ele>312.0</ele><time>2026-05-02T07:51:13.2Z</time></trkpt><trkpt lat="43.2221027" lon="11.9057916"><ele>311.5</ele><time>2026-05-02T07:51:14.191Z</time></trkpt><trkpt lat="43.222024" lon="11.9061142"><ele>311.0</ele><time>2026-05-02T07:51:15.188Z</time></trkpt><trkpt lat="43.2219458" lon="11.9064344"><ele>310.5</ele><time>2026-05-02T07:51:16.19Z</time></trkpt><trkpt lat="43.2218776" lon="11.9067628"><ele>310.0</ele><time>2026-05-02T07:51:17.188Z</time></trkpt><trkpt lat="43.2218099" lon="11.9070998"><ele>310.0</ele><time>2026-05-02T07:51:18.183Z</time></trkpt><trkpt lat="43.2217514" lon="11.9074414"><ele>310.0</ele><time>2026-05-02T07:51:19.185Z</time></trkpt><trkpt lat="43.221703" lon="11.9077884"><ele>309.5</ele><time>2026-05-02T07:51:20.192Z</time></trkpt><trkpt lat="43.2216616" lon="11.9081345"><ele>309.0</ele><time>2026-05-02T07:51:21.198Z</time></trkpt><trkpt lat="43.2216232" lon="11.9084859"><ele>309.0</ele><time>2026-05-02T07:51:22.187Z</time></trkpt><trkpt lat="43.2215879" lon="11.9088348"><ele>309.0</ele><time>2026-05-02T07:51:23.204Z</time></trkpt><trkpt lat="43.2215567" lon="11.9091914"><ele>309.5</ele><time>2026-05-02T07:51:24.195Z</time></trkpt><trkpt lat="43.2215243" lon="11.9095323"><ele>310.0</ele><time>2026-05-02T07:51:25.19Z</time></trkpt><trkpt lat="43.2214873" lon="11.9098813"><ele>309.5</ele><time>2026-05-02T07:51:26.195Z</time></trkpt><trkpt lat="43.2214547" lon="11.9102288"><ele>309.0</ele><time>2026-05-02T07:51:27.17Z</time></trkpt><trkpt lat="43.2214251" lon="11.9105763"><ele>309.0</ele><time>2026-05-02T07:51:28.175Z</time></trkpt><trkpt lat="43.221391" lon="11.9109192"><ele>309.0</ele><time>2026-05-02T07:51:29.196Z</time></trkpt><trkpt lat="43.2213622" lon="11.9112615"><ele>309.0</ele><time>2026-05-02T07:51:30.182Z</time></trkpt><trkpt lat="43.221334" lon="11.9116052"><ele>309.0</ele><time>2026-05-02T07:51:31.192Z</time></trkpt><trkpt lat="43.2213015" lon="11.9119498"><ele>308.5</ele><time>2026-05-02T07:51:32.197Z</time></trkpt><trkpt lat="43.2212739" lon="11.9122932"><ele>308.0</ele><time>2026-05-02T07:51:33.194Z</time></trkpt><trkpt lat="43.2212458" lon="11.9126347"><ele>309.0</ele><time>2026-05-02T07:51:34.192Z</time></trkpt><trkpt lat="43.2212184" lon="11.9129816"><ele>310.0</ele><time>2026-05-02T07:51:35.183Z</time></trkpt><trkpt lat="43.221186" lon="11.9133276"><ele>308.5</ele><time>2026-05-02T07:51:36.203Z</time></trkpt><trkpt lat="43.2211456" lon="11.91367"><ele>307.0</ele><time>2026-05-02T07:51:37.185Z</time></trkpt><trkpt lat="43.2211072" lon="11.9140076"><ele>306.0</ele><time>2026-05-02T07:51:38.187Z</time></trkpt><trkpt lat="43.2210586" lon="11.9143396"><ele>305.0</ele><time>2026-05-02T07:51:39.184Z</time></trkpt><trkpt lat="43.2210054" lon="11.9146717"><ele>305.0</ele><time>2026-05-02T07:51:40.181Z</time></trkpt><trkpt lat="43.2209479" lon="11.9150033"><ele>305.0</ele><time>2026-05-02T07:51:41.173Z</time></trkpt><trkpt lat="43.2208781" lon="11.9153295"><ele>305.0</ele><time>2026-05-02T07:51:42.181Z</time></trkpt><trkpt lat="43.2208026" lon="11.9156556"><ele>305.0</ele><time>2026-05-02T07:51:43.209Z</time></trkpt><trkpt lat="43.220725" lon="11.9159767"><ele>302.0</ele><time>2026-05-02T07:51:44.188Z</time></trkpt><trkpt lat="43.2206364" lon="11.9162873"><ele>299.0</ele><time>2026-05-02T07:51:45.192Z</time></trkpt><trkpt lat="43.2205386" lon="11.9165988"><ele>301.0</ele><time>2026-05-02T07:51:46.185Z</time></trkpt><trkpt lat="43.2204425" lon="11.9169086"><ele>303.0</ele><time>2026-05-02T07:51:47.2Z</time></trkpt><trkpt lat="43.2203396" lon="11.9172208"><ele>303.0</ele><time>2026-05-02T07:51:48.172Z</time></trkpt><trkpt lat="43.2202293" lon="11.9175252"><ele>303.0</ele><time>2026-05-02T07:51:49.199Z</time></trkpt><trkpt lat="43.220113" lon="11.9178219"><ele>303.5</ele><time>2026-05-02T07:51:50.173Z</time></trkpt><trkpt lat="43.2199902" lon="11.9181207"><ele>304.0</ele><time>2026-05-02T07:51:51.177Z</time></trkpt><trkpt lat="43.2198647" lon="11.9184263"><ele>301.5</ele><time>2026-05-02T07:51:52.202Z</time></trkpt><trkpt lat="43.2197414" lon="11.9187269"><ele>299.0</ele><time>2026-05-02T07:51:53.181Z</time></trkpt><trkpt lat="43.2196119" lon="11.9190367"><ele>299.0</ele><time>2026-05-02T07:51:54.195Z</time></trkpt><trkpt lat="43.2194891" lon="11.9193422"><ele>299.0</ele><time>2026-05-02T07:51:55.174Z</time></trkpt><trkpt lat="43.2193671" lon="11.9196463"><ele>299.0</ele><time>2026-05-02T07:51:56.195Z</time></trkpt><trkpt lat="43.219245" lon="11.9199504"><ele>299.0</ele><time>2026-05-02T07:51:57.185Z</time></trkpt><trkpt lat="43.2191237" lon="11.9202518"><ele>298.5</ele><time>2026-05-02T07:51:58.192Z</time></trkpt><trkpt lat="43.2190105" lon="11.9205579"><ele>298.0</ele><time>2026-05-02T07:51:59.196Z</time></trkpt><trkpt lat="43.2188977" lon="11.9208683"><ele>298.0</ele><time>2026-05-02T07:52:00.187Z</time></trkpt><trkpt lat="43.2187876" lon="11.9211824"><ele>298.0</ele><time>2026-05-02T07:52:01.193Z</time></trkpt><trkpt lat="43.2186834" lon="11.9214997"><ele>298.5</ele><time>2026-05-02T07:52:02.171Z</time></trkpt><trkpt lat="43.2185891" lon="11.9218196"><ele>299.0</ele><time>2026-05-02T07:52:03.199Z</time></trkpt><trkpt lat="43.2184986" lon="11.9221386"><ele>299.0</ele><time>2026-05-02T07:52:04.189Z</time></trkpt><trkpt lat="43.2184145" lon="11.9224584"><ele>299.0</ele><time>2026-05-02T07:52:05.187Z</time></trkpt><trkpt lat="43.2183289" lon="11.9227751"><ele>299.5</ele><time>2026-05-02T07:52:06.184Z</time></trkpt><trkpt lat="43.2182513" lon="11.923096"><ele>300.0</ele><time>2026-05-02T07:52:07.194Z</time></trkpt><trkpt lat="43.2181792" lon="11.9234209"><ele>300.5</ele><time>2026-05-02T07:52:08.197Z</time></trkpt><trkpt lat="43.218109" lon="11.9237474"><ele>301.0</ele><time>2026-05-02T07:52:09.185Z</time></trkpt><trkpt lat="43.2180415" lon="11.9240704"><ele>301.0</ele><time>2026-05-02T07:52:10.186Z</time></trkpt><trkpt lat="43.2179804" lon="11.9244005"><ele>301.0</ele><time>2026-05-02T07:52:11.196Z</time></trkpt><trkpt lat="43.2179245" lon="11.9247231"><ele>301.0</ele><time>2026-05-02T07:52:12.194Z</time></trkpt><trkpt lat="43.2178736" lon="11.92504"><ele>301.0</ele><time>2026-05-02T07:52:13.192Z</time></trkpt><trkpt lat="43.2178301" lon="11.9253522"><ele>300.66666666666663</ele><time>2026-05-02T07:52:14.184Z</time></trkpt><trkpt lat="43.2177918" lon="11.9256516"><ele>300.3333333333333</ele><time>2026-05-02T07:52:15.188Z</time></trkpt><trkpt lat="43.2177555" lon="11.9259427"><ele>300.0</ele><time>2026-05-02T07:52:16.195Z</time></trkpt><trkpt lat="43.2177206" lon="11.9262264"><ele>298.6666666666667</ele><time>2026-05-02T07:52:17.186Z</time></trkpt><trkpt lat="43.2176849" lon="11.9264992"><ele>297.33333333333337</ele><time>2026-05-02T07:52:18.195Z</time></trkpt><trkpt lat="43.2176476" lon="11.9267765"><ele>296.0</ele><time>2026-05-02T07:52:19.187Z</time></trkpt><trkpt lat="43.2176162" lon="11.9270547"><ele>295.0</ele><time>2026-05-02T07:52:20.206Z</time></trkpt><trkpt lat="43.2175768" lon="11.927336"><ele>294.0</ele><time>2026-05-02T07:52:21.195Z</time></trkpt><trkpt lat="43.2175403" lon="11.9276093"><ele>293.0</ele><time>2026-05-02T07:52:22.196Z</time></trkpt><trkpt lat="43.2175015" lon="11.9278871"><ele>292.6666666666667</ele><time>2026-05-02T07:52:23.189Z</time></trkpt><trkpt lat="43.217466" lon="11.9281675"><ele>292.3333333333333</ele><time>2026-05-02T07:52:24.187Z</time></trkpt><trkpt lat="43.2174289" lon="11.9284444"><ele>292.0</ele><time>2026-05-02T07:52:25.19Z</time></trkpt><trkpt lat="43.2173852" lon="11.928719"><ele>292.0</ele><time>2026-05-02T07:52:26.185Z</time></trkpt><trkpt lat="43.2173454" lon="11.928984"><ele>292.0</ele><time>2026-05-02T07:52:27.198Z</time></trkpt><trkpt lat="43.2173005" lon="11.9292407"><ele>292.0</ele><time>2026-05-02T07:52:28.183Z</time></trkpt><trkpt lat="43.217257" lon="11.9294886"><ele>291.66666666666663</ele><time>2026-05-02T07:52:29.191Z</time></trkpt><trkpt lat="43.2172121" lon="11.9297435"><ele>291.3333333333333</ele><time>2026-05-02T07:52:30.207Z</time></trkpt><trkpt lat="43.2171578" lon="11.9300097"><ele>291.0</ele><time>2026-05-02T07:52:31.2Z</time></trkpt><trkpt lat="43.2171059" lon="11.9302785"><ele>290.3333333333333</ele><time>2026-05-02T07:52:32.19Z</time></trkpt><trkpt lat="43.2170525" lon="11.9305401"><ele>289.66666666666663</ele><time>2026-05-02T07:52:33.19Z</time></trkpt><trkpt lat="43.2169934" lon="11.9307993"><ele>289.0</ele><time>2026-05-02T07:52:34.182Z</time></trkpt><trkpt lat="43.2169321" lon="11.9310628"><ele>287.0</ele><time>2026-05-02T07:52:35.187Z</time></trkpt><trkpt lat="43.2168757" lon="11.9313167"><ele>285.0</ele><time>2026-05-02T07:52:36.196Z</time></trkpt><trkpt lat="43.2168162" lon="11.9315711"><ele>283.0</ele><time>2026-05-02T07:52:37.192Z</time></trkpt><trkpt lat="43.2167501" lon="11.9318238"><ele>281.66666666666663</ele><time>2026-05-02T07:52:38.181Z</time></trkpt><trkpt lat="43.2166834" lon="11.9320803"><ele>280.3333333333333</ele><time>2026-05-02T07:52:39.195Z</time></trkpt><trkpt lat="43.2166079" lon="11.9323367"><ele>279.0</ele><time>2026-05-02T07:52:40.193Z</time></trkpt><trkpt lat="43.2165342" lon="11.932586"><ele>279.0</ele><time>2026-05-02T07:52:41.176Z</time></trkpt><trkpt lat="43.21646" lon="11.9328337"><ele>279.0</ele><time>2026-05-02T07:52:42.16Z</time></trkpt><trkpt lat="43.2163844" lon="11.9330866"><ele>279.0</ele><time>2026-05-02T07:52:43.186Z</time></trkpt><trkpt lat="43.2163083" lon="11.9333315"><ele>277.0</ele><time>2026-05-02T07:52:44.213Z</time></trkpt><trkpt lat="43.2162277" lon="11.9335811"><ele>275.0</ele><time>2026-05-02T07:52:45.164Z</time></trkpt><trkpt lat="43.2161439" lon="11.9338298"><ele>273.0</ele><time>2026-05-02T07:52:46.187Z</time></trkpt><trkpt lat="43.2160612" lon="11.9340742"><ele>272.3333333333333</ele><time>2026-05-02T07:52:47.168Z</time></trkpt><trkpt lat="43.2159723" lon="11.9343168"><ele>271.66666666666663</ele><time>2026-05-02T07:52:48.188Z</time></trkpt><trkpt lat="43.2158805" lon="11.9345725"><ele>271.0</ele><time>2026-05-02T07:52:49.167Z</time></trkpt><trkpt lat="43.2157869" lon="11.9348257"><ele>270.3333333333333</ele><time>2026-05-02T07:52:50.191Z</time></trkpt><trkpt lat="43.2156918" lon="11.9350674"><ele>269.6666666666667</ele><time>2026-05-02T07:52:51.19Z</time></trkpt><trkpt lat="43.2156005" lon="11.9353199"><ele>269.0</ele><time>2026-05-02T07:52:52.193Z</time></trkpt><trkpt lat="43.2155045" lon="11.9355717"><ele>269.0</ele><time>2026-05-02T07:52:53.187Z</time></trkpt><trkpt lat="43.2154154" lon="11.9358202"><ele>269.0</ele><time>2026-05-02T07:52:54.203Z</time></trkpt><trkpt lat="43.2153235" lon="11.9360617"><ele>269.0</ele><time>2026-05-02T07:52:55.188Z</time></trkpt><trkpt lat="43.2152311" lon="11.9363019"><ele>269.0</ele><time>2026-05-02T07:52:56.191Z</time></trkpt><trkpt lat="43.2151394" lon="11.9365407"><ele>269.0</ele><time>2026-05-02T07:52:57.165Z</time></trkpt><trkpt lat="43.2150484" lon="11.9367792"><ele>269.0</ele><time>2026-05-02T07:52:58.197Z</time></trkpt><trkpt lat="43.2149579" lon="11.9370163"><ele>269.0</ele><time>2026-05-02T07:52:59.188Z</time></trkpt><trkpt lat="43.2148715" lon="11.9372553"><ele>269.0</ele><time>2026-05-02T07:53:00.184Z</time></trkpt><trkpt lat="43.2147822" lon="11.9374986"><ele>269.0</ele><time>2026-05-02T07:53:01.188Z</time></trkpt><trkpt lat="43.2146867" lon="11.9377392"><ele>269.0</ele><time>2026-05-02T07:53:02.173Z</time></trkpt><trkpt lat="43.2145911" lon="11.9379853"><ele>269.0</ele><time>2026-05-02T07:53:03.191Z</time></trkpt><trkpt lat="43.2144975" lon="11.9382304"><ele>269.0</ele><time>2026-05-02T07:53:04.186Z</time></trkpt><trkpt lat="43.2144018" lon="11.9384744"><ele>270.0</ele><time>2026-05-02T07:53:05.184Z</time></trkpt><trkpt lat="43.2143107" lon="11.9387235"><ele>271.0</ele><time>2026-05-02T07:53:06.194Z</time></trkpt><trkpt lat="43.2142177" lon="11.9389703"><ele>272.0</ele><time>2026-05-02T07:53:07.193Z</time></trkpt><trkpt lat="43.2141179" lon="11.9392137"><ele>272.0</ele><time>2026-05-02T07:53:08.184Z</time></trkpt><trkpt lat="43.2140142" lon="11.9394558"><ele>272.0</ele><time>2026-05-02T07:53:09.192Z</time></trkpt><trkpt lat="43.2139067" lon="11.9396943"><ele>272.0</ele><time>2026-05-02T07:53:10.188Z</time></trkpt><trkpt lat="43.2137978" lon="11.9399265"><ele>274.0</ele><time>2026-05-02T07:53:11.193Z</time></trkpt><trkpt lat="43.2136884" lon="11.9401591"><ele>276.0</ele><time>2026-05-02T07:53:12.183Z</time></trkpt><trkpt lat="43.2135846" lon="11.9403837"><ele>278.0</ele><time>2026-05-02T07:53:13.199Z</time></trkpt><trkpt lat="43.2134778" lon="11.9406077"><ele>278.0</ele><time>2026-05-02T07:53:14.197Z</time></trkpt><trkpt lat="43.2133729" lon="11.9408254"><ele>278.0</ele><time>2026-05-02T07:53:15.183Z</time></trkpt><trkpt lat="43.2132634" lon="11.9410371"><ele>278.0</ele><time>2026-05-02T07:53:16.186Z</time></trkpt><trkpt lat="43.2131547" lon="11.9412525"><ele>280.0</ele><time>2026-05-02T07:53:17.169Z</time></trkpt><trkpt lat="43.2130426" lon="11.9414631"><ele>282.0</ele><time>2026-05-02T07:53:18.183Z</time></trkpt><trkpt lat="43.2129299" lon="11.9416751"><ele>284.0</ele><time>2026-05-02T07:53:19.206Z</time></trkpt><trkpt lat="43.2128184" lon="11.9418869"><ele>284.0</ele><time>2026-05-02T07:53:20.197Z</time></trkpt><trkpt lat="43.2127003" lon="11.9420995"><ele>284.0</ele><time>2026-05-02T07:53:21.19Z</time></trkpt><trkpt lat="43.2125823" lon="11.94231"><ele>284.0</ele><time>2026-05-02T07:53:22.195Z</time></trkpt><trkpt lat="43.2124623" lon="11.9425167"><ele>284.6666666666667</ele><time>2026-05-02T07:53:23.198Z</time></trkpt><trkpt lat="43.2123407" lon="11.9427178"><ele>285.3333333333333</ele><time>2026-05-02T07:53:24.189Z</time></trkpt><trkpt lat="43.2122132" lon="11.9429201"><ele>286.0</ele><time>2026-05-02T07:53:25.187Z</time></trkpt><trkpt lat="43.212087" lon="11.943119"><ele>285.66666666666663</ele><time>2026-05-02T07:53:26.185Z</time></trkpt><trkpt lat="43.2119638" lon="11.9433069"><ele>285.3333333333333</ele><time>2026-05-02T07:53:27.189Z</time></trkpt><trkpt lat="43.2118444" lon="11.9434839"><ele>285.0</ele><time>2026-05-02T07:53:28.2Z</time></trkpt><trkpt lat="43.2117188" lon="11.9436522"><ele>285.0</ele><time>2026-05-02T07:53:29.218Z</time></trkpt><trkpt lat="43.2115997" lon="11.9438213"><ele>285.0</ele><time>2026-05-02T07:53:30.191Z</time></trkpt><trkpt lat="43.2114905" lon="11.9439717"><ele>285.0</ele><time>2026-05-02T07:53:31.191Z</time></trkpt><trkpt lat="43.2113879" lon="11.9441115"><ele>285.25</ele><time>2026-05-02T07:53:32.188Z</time></trkpt><trkpt lat="43.2112892" lon="11.9442469"><ele>285.5</ele><time>2026-05-02T07:53:33.189Z</time></trkpt><trkpt lat="43.2112003" lon="11.9443787"><ele>285.75</ele><time>2026-05-02T07:53:34.187Z</time></trkpt><trkpt lat="43.2111064" lon="11.9444895"><ele>286.0</ele><time>2026-05-02T07:53:35.202Z</time></trkpt><trkpt lat="43.2110093" lon="11.9445778"><ele>286.0</ele><time>2026-05-02T07:53:36.196Z</time></trkpt><trkpt lat="43.2109118" lon="11.9446238"><ele>286.0</ele><time>2026-05-02T07:53:37.188Z</time></trkpt><trkpt lat="43.2108163" lon="11.9446439"><ele>286.0</ele><time>2026-05-02T07:53:38.195Z</time></trkpt><trkpt lat="43.2107295" lon="11.9446352"><ele>286.0</ele><time>2026-05-02T07:53:39.179Z</time></trkpt><trkpt lat="43.2106485" lon="11.9446107"><ele>286.0</ele><time>2026-05-02T07:53:40.18Z</time></trkpt><trkpt lat="43.2105721" lon="11.9445644"><ele>286.0</ele><time>2026-05-02T07:53:41.183Z</time></trkpt><trkpt lat="43.2104972" lon="11.9444779"><ele>286.0</ele><time>2026-05-02T07:53:42.18Z</time></trkpt><trkpt lat="43.2104321" lon="11.9443617"><ele>286.0</ele><time>2026-05-02T07:53:43.179Z</time></trkpt><trkpt lat="43.2104016" lon="11.9442333"><ele>286.0</ele><time>2026-05-02T07:53:44.174Z</time></trkpt><trkpt lat="43.2103892" lon="11.944099"><ele>286.0</ele><time>2026-05-02T07:53:45.2Z</time></trkpt><trkpt lat="43.210393" lon="11.9439614"><ele>286.0</ele><time>2026-05-02T07:53:46.173Z</time></trkpt><trkpt lat="43.2104264" lon="11.9438182"><ele>286.0</ele><time>2026-05-02T07:53:47.168Z</time></trkpt><trkpt lat="43.2104655" lon="11.9436701"><ele>286.0</ele><time>2026-05-02T07:53:48.186Z</time></trkpt><trkpt lat="43.2105007" lon="11.943511"><ele>286.0</ele><time>2026-05-02T07:53:49.187Z</time></trkpt><trkpt lat="43.2105371" lon="11.9433395"><ele>286.0</ele><time>2026-05-02T07:53:50.173Z</time></trkpt><trkpt lat="43.2105745" lon="11.9431486"><ele>286.0</ele><time>2026-05-02T07:53:51.189Z</time></trkpt><trkpt lat="43.2106091" lon="11.9429834"><ele>286.0</ele><time>2026-05-02T07:53:52.183Z</time></trkpt><trkpt lat="43.2106474" lon="11.9428663"><ele>286.0</ele><time>2026-05-02T07:53:53.182Z</time></trkpt><trkpt lat="43.2106991" lon="11.9427677"><ele>286.0</ele><time>2026-05-02T07:53:54.185Z</time></trkpt><trkpt lat="43.2107595" lon="11.9427024"><ele>286.0</ele><time>2026-05-02T07:53:55.194Z</time></trkpt><trkpt lat="43.2108172" lon="11.9426574"><ele>286.0</ele><time>2026-05-02T07:53:56.194Z</time></trkpt><trkpt lat="43.2109081" lon="11.942625"><ele>286.0</ele><time>2026-05-02T07:53:58.172Z</time></trkpt><trkpt lat="43.2109794" lon="11.9425779"><ele>286.0</ele><time>2026-05-02T07:54:01.19Z</time></trkpt><trkpt lat="43.2109609" lon="11.9424941"><ele>286.0</ele><time>2026-05-02T07:54:04.169Z</time></trkpt><trkpt lat="43.210888" lon="11.9424205"><ele>286.0</ele><time>2026-05-02T07:54:07.183Z</time></trkpt><trkpt lat="43.2108245" lon="11.9424161"><ele>286.0</ele><time>2026-05-02T07:54:10.187Z</time></trkpt><trkpt lat="43.2107645" lon="11.9424496"><ele>286.0</ele><time>2026-05-02T07:56:41.185Z</time></trkpt><trkpt lat="43.2106592" lon="11.9425153"><ele>286.0</ele><time>2026-05-02T07:56:43.173Z</time></trkpt><trkpt lat="43.2106176" lon="11.9426148"><ele>286.0</ele><time>2026-05-02T07:56:44.173Z</time></trkpt><trkpt lat="43.2105914" lon="11.9427385"><ele>286.0</ele><time>2026-05-02T07:56:45.186Z</time></trkpt><trkpt lat="43.2105921" lon="11.9428991"><ele>286.0</ele><time>2026-05-02T07:56:46.201Z</time></trkpt><trkpt lat="43.2105804" lon="11.9430783"><ele>286.0</ele><time>2026-05-02T07:56:47.195Z</time></trkpt><trkpt lat="43.2105493" lon="11.9432597"><ele>286.0</ele><time>2026-05-02T07:56:48.193Z</time></trkpt><trkpt lat="43.2105008" lon="11.9434558"><ele>286.0</ele><time>2026-05-02T07:56:49.186Z</time></trkpt><trkpt lat="43.2104479" lon="11.9436674"><ele>286.0</ele><time>2026-05-02T07:56:50.174Z</time></trkpt><trkpt lat="43.2104027" lon="11.943885"><ele>286.0</ele><time>2026-05-02T07:56:51.182Z</time></trkpt><trkpt lat="43.2103835" lon="11.9440659"><ele>286.0</ele><time>2026-05-02T07:56:52.198Z</time></trkpt><trkpt lat="43.2103796" lon="11.9442244"><ele>286.0</ele><time>2026-05-02T07:56:53.208Z</time></trkpt><trkpt lat="43.2104022" lon="11.9444044"><ele>286.0</ele><time>2026-05-02T07:56:54.191Z</time></trkpt><trkpt lat="43.2104681" lon="11.9445885"><ele>286.0</ele><time>2026-05-02T07:56:55.183Z</time></trkpt><trkpt lat="43.2105277" lon="11.9447604"><ele>286.0</ele><time>2026-05-02T07:56:56.187Z</time></trkpt><trkpt lat="43.2105539" lon="11.9449531"><ele>286.0</ele><time>2026-05-02T07:56:57.171Z</time></trkpt><trkpt lat="43.2105421" lon="11.9451344"><ele>285.66666666666663</ele><time>2026-05-02T07:56:58.186Z</time></trkpt><trkpt lat="43.2104913" lon="11.945326"><ele>285.3333333333333</ele><time>2026-05-02T07:56:59.197Z</time></trkpt><trkpt lat="43.210404" lon="11.9455116"><ele>285.0</ele><time>2026-05-02T07:57:00.19Z</time></trkpt><trkpt lat="43.2103001" lon="11.9456929"><ele>285.0</ele><time>2026-05-02T07:57:01.187Z</time></trkpt><trkpt lat="43.2101923" lon="11.9458626"><ele>285.0</ele><time>2026-05-02T07:57:02.204Z</time></trkpt><trkpt lat="43.2100711" lon="11.9460597"><ele>285.0</ele><time>2026-05-02T07:57:03.181Z</time></trkpt><trkpt lat="43.2099556" lon="11.9462774"><ele>285.0</ele><time>2026-05-02T07:57:04.19Z</time></trkpt><trkpt lat="43.2098383" lon="11.9464991"><ele>285.0</ele><time>2026-05-02T07:57:05.189Z</time></trkpt><trkpt lat="43.2097165" lon="11.9467216"><ele>285.0</ele><time>2026-05-02T07:57:06.185Z</time></trkpt><trkpt lat="43.2095959" lon="11.946969"><ele>284.3333333333333</ele><time>2026-05-02T07:57:07.188Z</time></trkpt><trkpt lat="43.2094647" lon="11.9472123"><ele>283.66666666666663</ele><time>2026-05-02T07:57:08.191Z</time></trkpt><trkpt lat="43.2093385" lon="11.9474607"><ele>283.0</ele><time>2026-05-02T07:57:09.189Z</time></trkpt><trkpt lat="43.2092113" lon="11.9477187"><ele>283.0</ele><time>2026-05-02T07:57:10.21Z</time></trkpt><trkpt lat="43.2090857" lon="11.9479818"><ele>283.0</ele><time>2026-05-02T07:57:11.19Z</time></trkpt><trkpt lat="43.2089637" lon="11.9482472"><ele>283.5</ele><time>2026-05-02T07:57:12.188Z</time></trkpt><trkpt lat="43.2088421" lon="11.9485191"><ele>284.0</ele><time>2026-05-02T07:57:13.18Z</time></trkpt><trkpt lat="43.2087251" lon="11.9487919"><ele>284.0</ele><time>2026-05-02T07:57:14.19Z</time></trkpt><trkpt lat="43.2086124" lon="11.9490637"><ele>284.0</ele><time>2026-05-02T07:57:15.189Z</time></trkpt><trkpt lat="43.208503" lon="11.9493459"><ele>283.5</ele><time>2026-05-02T07:57:16.191Z</time></trkpt><trkpt lat="43.2083971" lon="11.9496271"><ele>283.0</ele><time>2026-05-02T07:57:17.181Z</time></trkpt><trkpt lat="43.2082931" lon="11.9499169"><ele>283.5</ele><time>2026-05-02T07:57:18.185Z</time></trkpt><trkpt lat="43.2081947" lon="11.9502115"><ele>284.0</ele><time>2026-05-02T07:57:19.167Z</time></trkpt><trkpt lat="43.2081003" lon="11.9505126"><ele>284.0</ele><time>2026-05-02T07:57:20.186Z</time></trkpt><trkpt lat="43.2080083" lon="11.9508097"><ele>284.0</ele><time>2026-05-02T07:57:21.185Z</time></trkpt><trkpt lat="43.2079161" lon="11.9511187"><ele>283.5</ele><time>2026-05-02T07:57:22.205Z</time></trkpt><trkpt lat="43.2078336" lon="11.9514293"><ele>283.0</ele><time>2026-05-02T07:57:23.201Z</time></trkpt><trkpt lat="43.207752" lon="11.9517442"><ele>283.0</ele><time>2026-05-02T07:57:24.189Z</time></trkpt><trkpt lat="43.2076761" lon="11.9520595"><ele>283.0</ele><time>2026-05-02T07:57:25.196Z</time></trkpt><trkpt lat="43.2076057" lon="11.9523774"><ele>282.5</ele><time>2026-05-02T07:57:26.186Z</time></trkpt><trkpt lat="43.2075379" lon="11.9527028"><ele>282.0</ele><time>2026-05-02T07:57:27.186Z</time></trkpt><trkpt lat="43.2074697" lon="11.9530218"><ele>282.0</ele><time>2026-05-02T07:57:28.19Z</time></trkpt><trkpt lat="43.2074005" lon="11.9533343"><ele>282.0</ele><time>2026-05-02T07:57:29.192Z</time></trkpt><trkpt lat="43.2073335" lon="11.9536484"><ele>279.5</ele><time>2026-05-02T07:57:30.195Z</time></trkpt><trkpt lat="43.2072633" lon="11.9539677"><ele>277.0</ele><time>2026-05-02T07:57:31.183Z</time></trkpt><trkpt lat="43.2071918" lon="11.9542822"><ele>275.0</ele><time>2026-05-02T07:57:32.191Z</time></trkpt><trkpt lat="43.2071234" lon="11.9546009"><ele>273.0</ele><time>2026-05-02T07:57:33.191Z</time></trkpt><trkpt lat="43.2070534" lon="11.9549155"><ele>272.5</ele><time>2026-05-02T07:57:34.181Z</time></trkpt><trkpt lat="43.2069867" lon="11.955229"><ele>272.0</ele><time>2026-05-02T07:57:35.2Z</time></trkpt><trkpt lat="43.2069169" lon="11.9555417"><ele>272.0</ele><time>2026-05-02T07:57:36.193Z</time></trkpt><trkpt lat="43.2068445" lon="11.9558473"><ele>272.0</ele><time>2026-05-02T07:57:37.193Z</time></trkpt><trkpt lat="43.2067704" lon="11.9561487"><ele>272.0</ele><time>2026-05-02T07:57:38.2Z</time></trkpt><trkpt lat="43.2066987" lon="11.9564553"><ele>272.0</ele><time>2026-05-02T07:57:39.194Z</time></trkpt><trkpt lat="43.2066235" lon="11.9567601"><ele>273.5</ele><time>2026-05-02T07:57:40.193Z</time></trkpt><trkpt lat="43.2065407" lon="11.9570676"><ele>275.0</ele><time>2026-05-02T07:57:41.207Z</time></trkpt><trkpt lat="43.2064664" lon="11.9573829"><ele>278.0</ele><time>2026-05-02T07:57:42.191Z</time></trkpt><trkpt lat="43.2063891" lon="11.9576966"><ele>281.0</ele><time>2026-05-02T07:57:43.2Z</time></trkpt><trkpt lat="43.2063106" lon="11.9580177"><ele>281.0</ele><time>2026-05-02T07:57:44.181Z</time></trkpt><trkpt lat="43.2062295" lon="11.9583323"><ele>281.0</ele><time>2026-05-02T07:57:45.186Z</time></trkpt><trkpt lat="43.206148" lon="11.9586492"><ele>280.5</ele><time>2026-05-02T07:57:46.187Z</time></trkpt><trkpt lat="43.2060648" lon="11.9589631"><ele>280.0</ele><time>2026-05-02T07:57:47.185Z</time></trkpt><trkpt lat="43.2059758" lon="11.9592794"><ele>279.0</ele><time>2026-05-02T07:57:48.175Z</time></trkpt><trkpt lat="43.2058829" lon="11.9595885"><ele>278.0</ele><time>2026-05-02T07:57:49.203Z</time></trkpt><trkpt lat="43.2057905" lon="11.9599013"><ele>278.0</ele><time>2026-05-02T07:57:50.187Z</time></trkpt><trkpt lat="43.2057" lon="11.9602096"><ele>278.0</ele><time>2026-05-02T07:57:51.204Z</time></trkpt><trkpt lat="43.2056079" lon="11.9605232"><ele>277.5</ele><time>2026-05-02T07:57:52.195Z</time></trkpt><trkpt lat="43.2055111" lon="11.9608249"><ele>277.0</ele><time>2026-05-02T07:57:53.204Z</time></trkpt><trkpt lat="43.2054153" lon="11.9611295"><ele>276.5</ele><time>2026-05-02T07:57:54.191Z</time></trkpt><trkpt lat="43.2053209" lon="11.9614367"><ele>276.0</ele><time>2026-05-02T07:57:55.19Z</time></trkpt><trkpt lat="43.2052285" lon="11.9617404"><ele>275.5</ele><time>2026-05-02T07:57:56.192Z</time></trkpt><trkpt lat="43.2051363" lon="11.9620449"><ele>275.0</ele><time>2026-05-02T07:57:57.189Z</time></trkpt><trkpt lat="43.205039" lon="11.9623434"><ele>274.5</ele><time>2026-05-02T07:57:58.197Z</time></trkpt><trkpt lat="43.2049392" lon="11.9626424"><ele>274.0</ele><time>2026-05-02T07:57:59.193Z</time></trkpt><trkpt lat="43.2048408" lon="11.9629442"><ele>274.0</ele><time>2026-05-02T07:58:00.205Z</time></trkpt><trkpt lat="43.2047365" lon="11.9632395"><ele>274.0</ele><time>2026-05-02T07:58:01.196Z</time></trkpt><trkpt lat="43.204631" lon="11.963531"><ele>273.5</ele><time>2026-05-02T07:58:02.195Z</time></trkpt><trkpt lat="43.2045281" lon="11.9638238"><ele>273.0</ele><time>2026-05-02T07:58:03.195Z</time></trkpt><trkpt lat="43.2044292" lon="11.9641189"><ele>272.0</ele><time>2026-05-02T07:58:04.174Z</time></trkpt><trkpt lat="43.2043263" lon="11.9644101"><ele>271.0</ele><time>2026-05-02T07:58:05.189Z</time></trkpt><trkpt lat="43.2042238" lon="11.9646997"><ele>271.0</ele><time>2026-05-02T07:58:06.188Z</time></trkpt><trkpt lat="43.2041189" lon="11.964987"><ele>271.0</ele><time>2026-05-02T07:58:07.188Z</time></trkpt><trkpt lat="43.2040152" lon="11.9652706"><ele>272.0</ele><time>2026-05-02T07:58:08.203Z</time></trkpt><trkpt lat="43.2039099" lon="11.9655662"><ele>273.0</ele><time>2026-05-02T07:58:09.196Z</time></trkpt><trkpt lat="43.2038047" lon="11.9658606"><ele>273.0</ele><time>2026-05-02T07:58:10.187Z</time></trkpt><trkpt lat="43.2037023" lon="11.9661509"><ele>273.0</ele><time>2026-05-02T07:58:11.195Z</time></trkpt><trkpt lat="43.2035969" lon="11.9664449"><ele>272.5</ele><time>2026-05-02T07:58:12.205Z</time></trkpt><trkpt lat="43.2034924" lon="11.9667442"><ele>272.0</ele><time>2026-05-02T07:58:13.212Z</time></trkpt><trkpt lat="43.2033868" lon="11.9670424"><ele>272.0</ele><time>2026-05-02T07:58:14.185Z</time></trkpt><trkpt lat="43.2032803" lon="11.9673367"><ele>272.0</ele><time>2026-05-02T07:58:15.176Z</time></trkpt><trkpt lat="43.203177" lon="11.9676321"><ele>272.0</ele><time>2026-05-02T07:58:16.195Z</time></trkpt><trkpt lat="43.2030705" lon="11.9679263"><ele>272.0</ele><time>2026-05-02T07:58:17.192Z</time></trkpt><trkpt lat="43.2029616" lon="11.9682224"><ele>270.5</ele><time>2026-05-02T07:58:18.188Z</time></trkpt><trkpt lat="43.2028523" lon="11.9685207"><ele>269.0</ele><time>2026-05-02T07:58:19.188Z</time></trkpt><trkpt lat="43.2027444" lon="11.9688215"><ele>269.0</ele><time>2026-05-02T07:58:20.181Z</time></trkpt><trkpt lat="43.2026348" lon="11.9691233"><ele>269.0</ele><time>2026-05-02T07:58:21.186Z</time></trkpt><trkpt lat="43.2025246" lon="11.969425"><ele>269.0</ele><time>2026-05-02T07:58:22.194Z</time></trkpt><trkpt lat="43.2024133" lon="11.9697358"><ele>269.0</ele><time>2026-05-02T07:58:23.191Z</time></trkpt><trkpt lat="43.2023038" lon="11.9700441"><ele>269.5</ele><time>2026-05-02T07:58:24.186Z</time></trkpt><trkpt lat="43.2021936" lon="11.9703517"><ele>270.0</ele><time>2026-05-02T07:58:25.199Z</time></trkpt><trkpt lat="43.2020815" lon="11.9706614"><ele>270.5</ele><time>2026-05-02T07:58:26.191Z</time></trkpt><trkpt lat="43.2019767" lon="11.9709749"><ele>271.0</ele><time>2026-05-02T07:58:27.204Z</time></trkpt><trkpt lat="43.2018684" lon="11.9712845"><ele>271.0</ele><time>2026-05-02T07:58:28.194Z</time></trkpt><trkpt lat="43.201754" lon="11.9715885"><ele>271.0</ele><time>2026-05-02T07:58:29.187Z</time></trkpt><trkpt lat="43.2016377" lon="11.9718963"><ele>271.5</ele><time>2026-05-02T07:58:30.198Z</time></trkpt><trkpt lat="43.2015277" lon="11.9722067"><ele>272.0</ele><time>2026-05-02T07:58:31.178Z</time></trkpt><trkpt lat="43.2014155" lon="11.9725175"><ele>273.5</ele><time>2026-05-02T07:58:32.186Z</time></trkpt><trkpt lat="43.2013093" lon="11.972833"><ele>275.0</ele><time>2026-05-02T07:58:33.185Z</time></trkpt><trkpt lat="43.2011984" lon="11.97315"><ele>274.5</ele><time>2026-05-02T07:58:34.194Z</time></trkpt><trkpt lat="43.2010858" lon="11.9734616"><ele>274.0</ele><time>2026-05-02T07:58:35.193Z</time></trkpt><trkpt lat="43.2009715" lon="11.9737742"><ele>274.0</ele><time>2026-05-02T07:58:36.209Z</time></trkpt><trkpt lat="43.2008603" lon="11.9740823"><ele>274.0</ele><time>2026-05-02T07:58:37.188Z</time></trkpt><trkpt lat="43.2007477" lon="11.9743909"><ele>273.5</ele><time>2026-05-02T07:58:38.21Z</time></trkpt><trkpt lat="43.2006335" lon="11.9747046"><ele>273.0</ele><time>2026-05-02T07:58:39.187Z</time></trkpt><trkpt lat="43.2005243" lon="11.975015"><ele>272.5</ele><time>2026-05-02T07:58:40.199Z</time></trkpt><trkpt lat="43.200409" lon="11.9753243"><ele>272.0</ele><time>2026-05-02T07:58:41.183Z</time></trkpt><trkpt lat="43.2002999" lon="11.9756302"><ele>271.0</ele><time>2026-05-02T07:58:42.185Z</time></trkpt><trkpt lat="43.2001874" lon="11.9759426"><ele>270.0</ele><time>2026-05-02T07:58:43.178Z</time></trkpt><trkpt lat="43.2000749" lon="11.9762507"><ele>270.0</ele><time>2026-05-02T07:58:44.198Z</time></trkpt><trkpt lat="43.1999607" lon="11.9765641"><ele>270.0</ele><time>2026-05-02T07:58:45.19Z</time></trkpt><trkpt lat="43.1998502" lon="11.976876"><ele>268.5</ele><time>2026-05-02T07:58:46.185Z</time></trkpt><trkpt lat="43.1997319" lon="11.977187"><ele>267.0</ele><time>2026-05-02T07:58:47.184Z</time></trkpt><trkpt lat="43.199611" lon="11.9774987"><ele>267.0</ele><time>2026-05-02T07:58:48.187Z</time></trkpt><trkpt lat="43.1994965" lon="11.9778053"><ele>267.0</ele><time>2026-05-02T07:58:49.19Z</time></trkpt><trkpt lat="43.1993759" lon="11.978109"><ele>267.0</ele><time>2026-05-02T07:58:50.183Z</time></trkpt><trkpt lat="43.1992579" lon="11.9784126"><ele>267.0</ele><time>2026-05-02T07:58:51.196Z</time></trkpt><trkpt lat="43.1991369" lon="11.9787072"><ele>267.0</ele><time>2026-05-02T07:58:52.185Z</time></trkpt><trkpt lat="43.199018" lon="11.9790081"><ele>267.0</ele><time>2026-05-02T07:58:53.185Z</time></trkpt><trkpt lat="43.1988956" lon="11.9793065"><ele>268.0</ele><time>2026-05-02T07:58:54.187Z</time></trkpt><trkpt lat="43.1987753" lon="11.9795976"><ele>269.0</ele><time>2026-05-02T07:58:55.196Z</time></trkpt><trkpt lat="43.1986545" lon="11.9798922"><ele>267.5</ele><time>2026-05-02T07:58:56.193Z</time></trkpt><trkpt lat="43.1985338" lon="11.9801922"><ele>266.0</ele><time>2026-05-02T07:58:57.187Z</time></trkpt><trkpt lat="43.1984162" lon="11.9804957"><ele>266.0</ele><time>2026-05-02T07:58:58.197Z</time></trkpt><trkpt lat="43.1982963" lon="11.9807972"><ele>266.0</ele><time>2026-05-02T07:58:59.179Z</time></trkpt><trkpt lat="43.1981758" lon="11.9810935"><ele>265.0</ele><time>2026-05-02T07:59:00.178Z</time></trkpt><trkpt lat="43.1980536" lon="11.9813884"><ele>264.0</ele><time>2026-05-02T07:59:01.196Z</time></trkpt><trkpt lat="43.1979312" lon="11.9816857"><ele>264.0</ele><time>2026-05-02T07:59:02.208Z</time></trkpt><trkpt lat="43.1978135" lon="11.9819836"><ele>264.0</ele><time>2026-05-02T07:59:03.18Z</time></trkpt><trkpt lat="43.1976958" lon="11.9822804"><ele>264.5</ele><time>2026-05-02T07:59:04.186Z</time></trkpt><trkpt lat="43.1975728" lon="11.9825808"><ele>265.0</ele><time>2026-05-02T07:59:05.179Z</time></trkpt><trkpt lat="43.1974535" lon="11.9828865"><ele>265.0</ele><time>2026-05-02T07:59:06.193Z</time></trkpt><trkpt lat="43.1973287" lon="11.9831871"><ele>265.0</ele><time>2026-05-02T07:59:07.171Z</time></trkpt><trkpt lat="43.1972048" lon="11.9834819"><ele>264.5</ele><time>2026-05-02T07:59:08.187Z</time></trkpt><trkpt lat="43.1970807" lon="11.9837811"><ele>264.0</ele><time>2026-05-02T07:59:09.203Z</time></trkpt><trkpt lat="43.1969576" lon="11.9840771"><ele>264.0</ele><time>2026-05-02T07:59:10.19Z</time></trkpt><trkpt lat="43.1968338" lon="11.9843836"><ele>264.0</ele><time>2026-05-02T07:59:11.186Z</time></trkpt><trkpt lat="43.1967137" lon="11.9846841"><ele>264.0</ele><time>2026-05-02T07:59:12.191Z</time></trkpt><trkpt lat="43.1965899" lon="11.9849862"><ele>264.0</ele><time>2026-05-02T07:59:13.181Z</time></trkpt><trkpt lat="43.1964661" lon="11.98529"><ele>263.5</ele><time>2026-05-02T07:59:14.202Z</time></trkpt><trkpt lat="43.1963416" lon="11.9855933"><ele>263.0</ele><time>2026-05-02T07:59:15.179Z</time></trkpt><trkpt lat="43.1962197" lon="11.9858918"><ele>263.0</ele><time>2026-05-02T07:59:16.193Z</time></trkpt><trkpt lat="43.1960993" lon="11.9862003"><ele>263.0</ele><time>2026-05-02T07:59:17.194Z</time></trkpt><trkpt lat="43.1959772" lon="11.9865114"><ele>263.0</ele><time>2026-05-02T07:59:18.198Z</time></trkpt><trkpt lat="43.1958582" lon="11.9868204"><ele>263.0</ele><time>2026-05-02T07:59:19.187Z</time></trkpt><trkpt lat="43.1957429" lon="11.9871306"><ele>263.0</ele><time>2026-05-02T07:59:20.196Z</time></trkpt><trkpt lat="43.1956242" lon="11.9874419"><ele>263.0</ele><time>2026-05-02T07:59:21.189Z</time></trkpt><trkpt lat="43.1955089" lon="11.9877569"><ele>263.0</ele><time>2026-05-02T07:59:22.187Z</time></trkpt><trkpt lat="43.1953965" lon="11.9880759"><ele>263.0</ele><time>2026-05-02T07:59:23.185Z</time></trkpt><trkpt lat="43.1952884" lon="11.9883878"><ele>263.0</ele><time>2026-05-02T07:59:24.188Z</time></trkpt><trkpt lat="43.1951765" lon="11.988699"><ele>263.0</ele><time>2026-05-02T07:59:25.191Z</time></trkpt><trkpt lat="43.1950679" lon="11.9890139"><ele>263.0</ele><time>2026-05-02T07:59:26.191Z</time></trkpt><trkpt lat="43.1949623" lon="11.9893202"><ele>263.0</ele><time>2026-05-02T07:59:27.187Z</time></trkpt><trkpt lat="43.1948597" lon="11.9896304"><ele>263.0</ele><time>2026-05-02T07:59:28.188Z</time></trkpt><trkpt lat="43.1947544" lon="11.9899456"><ele>263.0</ele><time>2026-05-02T07:59:29.195Z</time></trkpt><trkpt lat="43.1946495" lon="11.9902662"><ele>263.5</ele><time>2026-05-02T07:59:30.181Z</time></trkpt><trkpt lat="43.1945447" lon="11.9905886"><ele>264.0</ele><time>2026-05-02T07:59:31.188Z</time></trkpt><trkpt lat="43.194443" lon="11.9909139"><ele>264.5</ele><time>2026-05-02T07:59:32.178Z</time></trkpt><trkpt lat="43.1943429" lon="11.9912311"><ele>265.0</ele><time>2026-05-02T07:59:33.201Z</time></trkpt><trkpt lat="43.1942448" lon="11.9915468"><ele>265.0</ele><time>2026-05-02T07:59:34.19Z</time></trkpt><trkpt lat="43.1941426" lon="11.9918664"><ele>265.0</ele><time>2026-05-02T07:59:35.177Z</time></trkpt><trkpt lat="43.1940399" lon="11.9921939"><ele>265.0</ele><time>2026-05-02T07:59:36.194Z</time></trkpt><trkpt lat="43.1939384" lon="11.9925158"><ele>265.0</ele><time>2026-05-02T07:59:37.194Z</time></trkpt><trkpt lat="43.193837" lon="11.9928354"><ele>265.0</ele><time>2026-05-02T07:59:38.189Z</time></trkpt><trkpt lat="43.1937388" lon="11.9931578"><ele>265.0</ele><time>2026-05-02T07:59:39.188Z</time></trkpt><trkpt lat="43.1936379" lon="11.9934803"><ele>265.0</ele><time>2026-05-02T07:59:40.182Z</time></trkpt><trkpt lat="43.1935344" lon="11.9937901"><ele>265.0</ele><time>2026-05-02T07:59:41.191Z</time></trkpt><trkpt lat="43.1934327" lon="11.994104"><ele>264.5</ele><time>2026-05-02T07:59:42.193Z</time></trkpt><trkpt lat="43.1933315" lon="11.9944164"><ele>264.0</ele><time>2026-05-02T07:59:43.186Z</time></trkpt><trkpt lat="43.1932321" lon="11.994731"><ele>264.5</ele><time>2026-05-02T07:59:44.173Z</time></trkpt><trkpt lat="43.1931354" lon="11.9950416"><ele>265.0</ele><time>2026-05-02T07:59:45.182Z</time></trkpt><trkpt lat="43.1930376" lon="11.99535"><ele>265.0</ele><time>2026-05-02T07:59:46.195Z</time></trkpt><trkpt lat="43.1929369" lon="11.9956613"><ele>265.0</ele><time>2026-05-02T07:59:47.186Z</time></trkpt><trkpt lat="43.1928435" lon="11.9959724"><ele>266.0</ele><time>2026-05-02T07:59:48.188Z</time></trkpt><trkpt lat="43.1927452" lon="11.9962897"><ele>267.0</ele><time>2026-05-02T07:59:49.199Z</time></trkpt><trkpt lat="43.1926453" lon="11.9966018"><ele>267.5</ele><time>2026-05-02T07:59:50.189Z</time></trkpt><trkpt lat="43.1925463" lon="11.9969131"><ele>268.0</ele><time>2026-05-02T07:59:51.195Z</time></trkpt><trkpt lat="43.1924496" lon="11.9972255"><ele>267.0</ele><time>2026-05-02T07:59:52.201Z</time></trkpt><trkpt lat="43.1923499" lon="11.9975441"><ele>266.0</ele><time>2026-05-02T07:59:53.184Z</time></trkpt><trkpt lat="43.1922466" lon="11.9978613"><ele>266.0</ele><time>2026-05-02T07:59:54.203Z</time></trkpt><trkpt lat="43.1921457" lon="11.998175"><ele>266.0</ele><time>2026-05-02T07:59:55.198Z</time></trkpt><trkpt lat="43.1920469" lon="11.998494"><ele>266.5</ele><time>2026-05-02T07:59:56.191Z</time></trkpt><trkpt lat="43.1919476" lon="11.9988121"><ele>267.0</ele><time>2026-05-02T07:59:57.188Z</time></trkpt><trkpt lat="43.1918421" lon="11.9991326"><ele>266.5</ele><time>2026-05-02T07:59:58.193Z</time></trkpt><trkpt lat="43.1917394" lon="11.9994534"><ele>266.0</ele><time>2026-05-02T07:59:59.188Z</time></trkpt><trkpt lat="43.1916393" lon="11.9997731"><ele>266.0</ele><time>2026-05-02T08:00:00.192Z</time></trkpt><trkpt lat="43.1915396" lon="12.0000927"><ele>266.0</ele><time>2026-05-02T08:00:01.189Z</time></trkpt><trkpt lat="43.1914391" lon="12.0004192"><ele>266.0</ele><time>2026-05-02T08:00:02.186Z</time></trkpt><trkpt lat="43.1913437" lon="12.0007428"><ele>266.0</ele><time>2026-05-02T08:00:03.185Z</time></trkpt><trkpt lat="43.1912467" lon="12.0010681"><ele>266.0</ele><time>2026-05-02T08:00:04.21Z</time></trkpt><trkpt lat="43.1911513" lon="12.0013975"><ele>266.0</ele><time>2026-05-02T08:00:05.201Z</time></trkpt><trkpt lat="43.1910611" lon="12.0017274"><ele>266.0</ele><time>2026-05-02T08:00:06.191Z</time></trkpt><trkpt lat="43.1909721" lon="12.0020544"><ele>266.0</ele><time>2026-05-02T08:00:07.2Z</time></trkpt><trkpt lat="43.1908902" lon="12.0023877"><ele>266.5</ele><time>2026-05-02T08:00:08.192Z</time></trkpt><trkpt lat="43.1908105" lon="12.0027235"><ele>267.0</ele><time>2026-05-02T08:00:09.189Z</time></trkpt><trkpt lat="43.1907346" lon="12.0030582"><ele>267.5</ele><time>2026-05-02T08:00:10.206Z</time></trkpt><trkpt lat="43.1906634" lon="12.0033944"><ele>268.0</ele><time>2026-05-02T08:00:11.19Z</time></trkpt><trkpt lat="43.1905947" lon="12.0037239"><ele>268.0</ele><time>2026-05-02T08:00:12.195Z</time></trkpt><trkpt lat="43.1905295" lon="12.004059"><ele>268.0</ele><time>2026-05-02T08:00:13.194Z</time></trkpt><trkpt lat="43.1904679" lon="12.0043895"><ele>266.5</ele><time>2026-05-02T08:00:14.186Z</time></trkpt><trkpt lat="43.1904124" lon="12.004721"><ele>265.0</ele><time>2026-05-02T08:00:15.181Z</time></trkpt><trkpt lat="43.1903571" lon="12.0050539"><ele>265.0</ele><time>2026-05-02T08:00:16.208Z</time></trkpt><trkpt lat="43.1903041" lon="12.0053832"><ele>265.0</ele><time>2026-05-02T08:00:17.212Z</time></trkpt><trkpt lat="43.1902526" lon="12.005716"><ele>265.0</ele><time>2026-05-02T08:00:18.177Z</time></trkpt><trkpt lat="43.1902086" lon="12.0060397"><ele>265.0</ele><time>2026-05-02T08:00:19.199Z</time></trkpt><trkpt lat="43.1901677" lon="12.006362"><ele>265.0</ele><time>2026-05-02T08:00:20.198Z</time></trkpt><trkpt lat="43.1901305" lon="12.0066918"><ele>265.0</ele><time>2026-05-02T08:00:21.198Z</time></trkpt><trkpt lat="43.1900966" lon="12.0070184"><ele>265.0</ele><time>2026-05-02T08:00:22.172Z</time></trkpt><trkpt lat="43.1900637" lon="12.0073464"><ele>265.0</ele><time>2026-05-02T08:00:23.196Z</time></trkpt><trkpt lat="43.1900375" lon="12.007673"><ele>265.5</ele><time>2026-05-02T08:00:24.196Z</time></trkpt><trkpt lat="43.1900117" lon="12.0079964"><ele>266.0</ele><time>2026-05-02T08:00:25.215Z</time></trkpt><trkpt lat="43.1899868" lon="12.0083222"><ele>266.0</ele><time>2026-05-02T08:00:26.192Z</time></trkpt><trkpt lat="43.1899624" lon="12.0086373"><ele>266.0</ele><time>2026-05-02T08:00:27.188Z</time></trkpt><trkpt lat="43.1899372" lon="12.0089575"><ele>266.5</ele><time>2026-05-02T08:00:28.196Z</time></trkpt><trkpt lat="43.1899219" lon="12.0092825"><ele>267.0</ele><time>2026-05-02T08:00:29.195Z</time></trkpt><trkpt lat="43.1899107" lon="12.0096033"><ele>267.0</ele><time>2026-05-02T08:00:30.19Z</time></trkpt><trkpt lat="43.1899021" lon="12.0099262"><ele>267.0</ele><time>2026-05-02T08:00:31.185Z</time></trkpt><trkpt lat="43.1898952" lon="12.0102595"><ele>266.5</ele><time>2026-05-02T08:00:32.197Z</time></trkpt><trkpt lat="43.1898924" lon="12.01059"><ele>266.0</ele><time>2026-05-02T08:00:33.195Z</time></trkpt><trkpt lat="43.18989" lon="12.0109186"><ele>266.0</ele><time>2026-05-02T08:00:34.194Z</time></trkpt><trkpt lat="43.1898927" lon="12.0112506"><ele>266.0</ele><time>2026-05-02T08:00:35.194Z</time></trkpt><trkpt lat="43.1898951" lon="12.0115854"><ele>265.5</ele><time>2026-05-02T08:00:36.194Z</time></trkpt><trkpt lat="43.1899004" lon="12.0119204"><ele>265.0</ele><time>2026-05-02T08:00:37.176Z</time></trkpt><trkpt lat="43.1899069" lon="12.0122737"><ele>265.0</ele><time>2026-05-02T08:00:38.194Z</time></trkpt><trkpt lat="43.1899141" lon="12.012628"><ele>265.0</ele><time>2026-05-02T08:00:39.201Z</time></trkpt><trkpt lat="43.1899217" lon="12.012982"><ele>264.5</ele><time>2026-05-02T08:00:40.177Z</time></trkpt><trkpt lat="43.1899308" lon="12.0133323"><ele>264.0</ele><time>2026-05-02T08:00:41.192Z</time></trkpt><trkpt lat="43.1899346" lon="12.0136749"><ele>264.0</ele><time>2026-05-02T08:00:42.189Z</time></trkpt><trkpt lat="43.1899379" lon="12.0140228"><ele>264.0</ele><time>2026-05-02T08:00:43.187Z</time></trkpt><trkpt lat="43.1899362" lon="12.0143698"><ele>264.0</ele><time>2026-05-02T08:00:44.209Z</time></trkpt><trkpt lat="43.1899286" lon="12.014717"><ele>264.0</ele><time>2026-05-02T08:00:45.193Z</time></trkpt><trkpt lat="43.1899131" lon="12.0150619"><ele>264.0</ele><time>2026-05-02T08:00:46.19Z</time></trkpt><trkpt lat="43.1898921" lon="12.0154027"><ele>264.0</ele><time>2026-05-02T08:00:47.179Z</time></trkpt><trkpt lat="43.1898643" lon="12.0157473"><ele>262.5</ele><time>2026-05-02T08:00:48.178Z</time></trkpt><trkpt lat="43.189832" lon="12.0160937"><ele>261.0</ele><time>2026-05-02T08:00:49.184Z</time></trkpt><trkpt lat="43.189795" lon="12.016441"><ele>260.5</ele><time>2026-05-02T08:00:50.184Z</time></trkpt><trkpt lat="43.1897506" lon="12.0167713"><ele>260.0</ele><time>2026-05-02T08:00:51.181Z</time></trkpt><trkpt lat="43.1897011" lon="12.0171004"><ele>260.0</ele><time>2026-05-02T08:00:52.186Z</time></trkpt><trkpt lat="43.1896492" lon="12.0174355"><ele>260.0</ele><time>2026-05-02T08:00:53.193Z</time></trkpt><trkpt lat="43.1895912" lon="12.0177698"><ele>260.0</ele><time>2026-05-02T08:00:54.189Z</time></trkpt><trkpt lat="43.1895264" lon="12.0180915"><ele>260.0</ele><time>2026-05-02T08:00:55.206Z</time></trkpt><trkpt lat="43.1894584" lon="12.0184135"><ele>260.0</ele><time>2026-05-02T08:00:56.192Z</time></trkpt><trkpt lat="43.1893877" lon="12.0187372"><ele>260.0</ele><time>2026-05-02T08:00:57.194Z</time></trkpt><trkpt lat="43.1893191" lon="12.0190527"><ele>260.5</ele><time>2026-05-02T08:00:58.194Z</time></trkpt><trkpt lat="43.1892492" lon="12.0193689"><ele>261.0</ele><time>2026-05-02T08:00:59.183Z</time></trkpt><trkpt lat="43.1891881" lon="12.019688"><ele>261.5</ele><time>2026-05-02T08:01:00.191Z</time></trkpt><trkpt lat="43.1891231" lon="12.0200041"><ele>262.0</ele><time>2026-05-02T08:01:01.202Z</time></trkpt><trkpt lat="43.1890579" lon="12.0203229"><ele>261.0</ele><time>2026-05-02T08:01:02.196Z</time></trkpt><trkpt lat="43.1889918" lon="12.020649"><ele>260.0</ele><time>2026-05-02T08:01:03.203Z</time></trkpt><trkpt lat="43.1889216" lon="12.0209746"><ele>260.0</ele><time>2026-05-02T08:01:04.18Z</time></trkpt><trkpt lat="43.1888538" lon="12.021298"><ele>260.0</ele><time>2026-05-02T08:01:05.199Z</time></trkpt><trkpt lat="43.1887855" lon="12.0216245"><ele>260.0</ele><time>2026-05-02T08:01:06.192Z</time></trkpt><trkpt lat="43.1887134" lon="12.0219577"><ele>260.0</ele><time>2026-05-02T08:01:07.192Z</time></trkpt><trkpt lat="43.188647" lon="12.0222862"><ele>260.0</ele><time>2026-05-02T08:01:08.191Z</time></trkpt><trkpt lat="43.1885782" lon="12.0226066"><ele>260.0</ele><time>2026-05-02T08:01:09.192Z</time></trkpt><trkpt lat="43.1885119" lon="12.0229212"><ele>260.0</ele><time>2026-05-02T08:01:10.204Z</time></trkpt><trkpt lat="43.1884426" lon="12.0232334"><ele>260.0</ele><time>2026-05-02T08:01:11.199Z</time></trkpt><trkpt lat="43.1883741" lon="12.0235482"><ele>260.0</ele><time>2026-05-02T08:01:12.188Z</time></trkpt><trkpt lat="43.1883115" lon="12.0238583"><ele>260.0</ele><time>2026-05-02T08:01:13.189Z</time></trkpt><trkpt lat="43.1882439" lon="12.0241716"><ele>260.5</ele><time>2026-05-02T08:01:14.189Z</time></trkpt><trkpt lat="43.1881816" lon="12.0244817"><ele>261.0</ele><time>2026-05-02T08:01:15.182Z</time></trkpt><trkpt lat="43.1881184" lon="12.0247899"><ele>261.5</ele><time>2026-05-02T08:01:16.174Z</time></trkpt><trkpt lat="43.1880539" lon="12.025103"><ele>262.0</ele><time>2026-05-02T08:01:17.195Z</time></trkpt><trkpt lat="43.187987" lon="12.0254162"><ele>262.0</ele><time>2026-05-02T08:01:18.201Z</time></trkpt><trkpt lat="43.1879196" lon="12.0257306"><ele>262.0</ele><time>2026-05-02T08:01:19.177Z</time></trkpt><trkpt lat="43.1878508" lon="12.0260446"><ele>261.5</ele><time>2026-05-02T08:01:20.192Z</time></trkpt><trkpt lat="43.1877805" lon="12.0263709"><ele>261.0</ele><time>2026-05-02T08:01:21.191Z</time></trkpt><trkpt lat="43.1877159" lon="12.0266948"><ele>261.0</ele><time>2026-05-02T08:01:22.205Z</time></trkpt><trkpt lat="43.1876467" lon="12.0270178"><ele>261.0</ele><time>2026-05-02T08:01:23.191Z</time></trkpt><trkpt lat="43.1875753" lon="12.0273514"><ele>261.0</ele><time>2026-05-02T08:01:24.197Z</time></trkpt><trkpt lat="43.187499" lon="12.0277019"><ele>261.0</ele><time>2026-05-02T08:01:25.18Z</time></trkpt><trkpt lat="43.1874205" lon="12.0280773"><ele>261.0</ele><time>2026-05-02T08:01:26.188Z</time></trkpt><trkpt lat="43.1873376" lon="12.0284785"><ele>261.0</ele><time>2026-05-02T08:01:27.189Z</time></trkpt><trkpt lat="43.1872577" lon="12.0288729"><ele>261.0</ele><time>2026-05-02T08:01:28.184Z</time></trkpt><trkpt lat="43.1871797" lon="12.0292417"><ele>261.0</ele><time>2026-05-02T08:01:29.194Z</time></trkpt><trkpt lat="43.1871045" lon="12.0295922"><ele>261.0</ele><time>2026-05-02T08:01:30.175Z</time></trkpt><trkpt lat="43.1870235" lon="12.0299691"><ele>261.0</ele><time>2026-05-02T08:01:31.175Z</time></trkpt><trkpt lat="43.1869436" lon="12.0303522"><ele>261.0</ele><time>2026-05-02T08:01:32.189Z</time></trkpt><trkpt lat="43.1868646" lon="12.0307187"><ele>261.0</ele><time>2026-05-02T08:01:33.169Z</time></trkpt><trkpt lat="43.1867903" lon="12.0310751"><ele>260.5</ele><time>2026-05-02T08:01:34.192Z</time></trkpt><trkpt lat="43.1867165" lon="12.0314168"><ele>260.0</ele><time>2026-05-02T08:01:35.172Z</time></trkpt><trkpt lat="43.1866476" lon="12.0317594"><ele>260.0</ele><time>2026-05-02T08:01:36.19Z</time></trkpt><trkpt lat="43.1865755" lon="12.0320981"><ele>260.0</ele><time>2026-05-02T08:01:37.186Z</time></trkpt><trkpt lat="43.1865088" lon="12.0324361"><ele>259.5</ele><time>2026-05-02T08:01:38.177Z</time></trkpt><trkpt lat="43.1864414" lon="12.032761"><ele>259.0</ele><time>2026-05-02T08:01:39.181Z</time></trkpt><trkpt lat="43.1863789" lon="12.0330832"><ele>259.5</ele><time>2026-05-02T08:01:40.197Z</time></trkpt><trkpt lat="43.1863225" lon="12.0334075"><ele>260.0</ele><time>2026-05-02T08:01:41.203Z</time></trkpt><trkpt lat="43.1862708" lon="12.0337333"><ele>260.0</ele><time>2026-05-02T08:01:42.174Z</time></trkpt><trkpt lat="43.1862328" lon="12.0340653"><ele>260.0</ele><time>2026-05-02T08:01:43.179Z</time></trkpt><trkpt lat="43.1862023" lon="12.0344019"><ele>260.0</ele><time>2026-05-02T08:01:44.167Z</time></trkpt><trkpt lat="43.1861829" lon="12.0347391"><ele>260.0</ele><time>2026-05-02T08:01:45.198Z</time></trkpt><trkpt lat="43.1861737" lon="12.0350701"><ele>260.0</ele><time>2026-05-02T08:01:46.191Z</time></trkpt><trkpt lat="43.1861753" lon="12.0353992"><ele>260.0</ele><time>2026-05-02T08:01:47.187Z</time></trkpt><trkpt lat="43.1861907" lon="12.0357319"><ele>260.0</ele><time>2026-05-02T08:01:48.189Z</time></trkpt><trkpt lat="43.1862095" lon="12.0360618"><ele>260.0</ele><time>2026-05-02T08:01:49.185Z</time></trkpt><trkpt lat="43.1862369" lon="12.0363867"><ele>259.5</ele><time>2026-05-02T08:01:50.194Z</time></trkpt><trkpt lat="43.1862745" lon="12.0367052"><ele>259.0</ele><time>2026-05-02T08:01:51.183Z</time></trkpt><trkpt lat="43.1863213" lon="12.0370327"><ele>259.0</ele><time>2026-05-02T08:01:52.197Z</time></trkpt><trkpt lat="43.1863781" lon="12.0373573"><ele>259.0</ele><time>2026-05-02T08:01:53.187Z</time></trkpt><trkpt lat="43.1864446" lon="12.037685"><ele>262.0</ele><time>2026-05-02T08:01:54.195Z</time></trkpt><trkpt lat="43.1865191" lon="12.0380088"><ele>265.0</ele><time>2026-05-02T08:01:55.192Z</time></trkpt><trkpt lat="43.1866011" lon="12.0383371"><ele>265.0</ele><time>2026-05-02T08:01:56.193Z</time></trkpt><trkpt lat="43.1866874" lon="12.0386644"><ele>265.0</ele><time>2026-05-02T08:01:57.18Z</time></trkpt><trkpt lat="43.186777" lon="12.0389932"><ele>264.0</ele><time>2026-05-02T08:01:58.175Z</time></trkpt><trkpt lat="43.1868692" lon="12.03932"><ele>263.0</ele><time>2026-05-02T08:01:59.197Z</time></trkpt><trkpt lat="43.1869599" lon="12.0396583"><ele>262.0</ele><time>2026-05-02T08:02:00.197Z</time></trkpt><trkpt lat="43.1870513" lon="12.039998"><ele>261.0</ele><time>2026-05-02T08:02:01.19Z</time></trkpt><trkpt lat="43.1871426" lon="12.0403377"><ele>261.0</ele><time>2026-05-02T08:02:02.187Z</time></trkpt><trkpt lat="43.1872348" lon="12.0406742"><ele>261.0</ele><time>2026-05-02T08:02:03.191Z</time></trkpt><trkpt lat="43.1873201" lon="12.040999"><ele>260.5</ele><time>2026-05-02T08:02:04.215Z</time></trkpt><trkpt lat="43.187408" lon="12.0413315"><ele>260.0</ele><time>2026-05-02T08:02:05.194Z</time></trkpt><trkpt lat="43.1874985" lon="12.0416669"><ele>260.0</ele><time>2026-05-02T08:02:06.212Z</time></trkpt><trkpt lat="43.1875844" lon="12.0419962"><ele>260.0</ele><time>2026-05-02T08:02:07.194Z</time></trkpt><trkpt lat="43.1876719" lon="12.0423225"><ele>260.0</ele><time>2026-05-02T08:02:08.201Z</time></trkpt><trkpt lat="43.1877637" lon="12.0426553"><ele>260.0</ele><time>2026-05-02T08:02:09.201Z</time></trkpt><trkpt lat="43.1878504" lon="12.0429831"><ele>260.0</ele><time>2026-05-02T08:02:10.196Z</time></trkpt><trkpt lat="43.1879344" lon="12.0433174"><ele>260.0</ele><time>2026-05-02T08:02:11.21Z</time></trkpt><trkpt lat="43.1880202" lon="12.043644"><ele>260.0</ele><time>2026-05-02T08:02:12.184Z</time></trkpt><trkpt lat="43.1881106" lon="12.0439625"><ele>260.0</ele><time>2026-05-02T08:02:13.189Z</time></trkpt><trkpt lat="43.1881985" lon="12.0442862"><ele>260.5</ele><time>2026-05-02T08:02:14.188Z</time></trkpt><trkpt lat="43.1882832" lon="12.044605"><ele>261.0</ele><time>2026-05-02T08:02:15.198Z</time></trkpt><trkpt lat="43.1883745" lon="12.0449234"><ele>260.5</ele><time>2026-05-02T08:02:16.202Z</time></trkpt><trkpt lat="43.1884626" lon="12.0452411"><ele>260.0</ele><time>2026-05-02T08:02:17.184Z</time></trkpt><trkpt lat="43.1885486" lon="12.0455548"><ele>261.5</ele><time>2026-05-02T08:02:18.188Z</time></trkpt><trkpt lat="43.1886359" lon="12.0458729"><ele>263.0</ele><time>2026-05-02T08:02:19.191Z</time></trkpt><trkpt lat="43.188718" lon="12.0461919"><ele>263.0</ele><time>2026-05-02T08:02:20.199Z</time></trkpt><trkpt lat="43.1888056" lon="12.0465129"><ele>263.0</ele><time>2026-05-02T08:02:21.202Z</time></trkpt><trkpt lat="43.1889007" lon="12.0468134"><ele>263.0</ele><time>2026-05-02T08:02:22.186Z</time></trkpt><trkpt lat="43.1890044" lon="12.0471158"><ele>263.0</ele><time>2026-05-02T08:02:23.189Z</time></trkpt><trkpt lat="43.1891222" lon="12.0474079"><ele>264.5</ele><time>2026-05-02T08:02:24.203Z</time></trkpt><trkpt lat="43.1892455" lon="12.0476931"><ele>266.0</ele><time>2026-05-02T08:02:25.193Z</time></trkpt><trkpt lat="43.1893816" lon="12.0479591"><ele>266.0</ele><time>2026-05-02T08:02:26.182Z</time></trkpt><trkpt lat="43.1895258" lon="12.0482145"><ele>266.0</ele><time>2026-05-02T08:02:27.2Z</time></trkpt><trkpt lat="43.189676" lon="12.048456"><ele>265.5</ele><time>2026-05-02T08:02:28.208Z</time></trkpt><trkpt lat="43.1898383" lon="12.0486867"><ele>265.0</ele><time>2026-05-02T08:02:29.189Z</time></trkpt><trkpt lat="43.1899995" lon="12.0488994"><ele>272.0</ele><time>2026-05-02T08:02:30.201Z</time></trkpt><trkpt lat="43.1901761" lon="12.0491101"><ele>279.0</ele><time>2026-05-02T08:02:31.194Z</time></trkpt><trkpt lat="43.1903607" lon="12.0493115"><ele>279.0</ele><time>2026-05-02T08:02:32.196Z</time></trkpt><trkpt lat="43.1905443" lon="12.0494933"><ele>279.0</ele><time>2026-05-02T08:02:33.197Z</time></trkpt><trkpt lat="43.1907416" lon="12.049667"><ele>279.5</ele><time>2026-05-02T08:02:34.194Z</time></trkpt><trkpt lat="43.1909457" lon="12.049827"><ele>280.0</ele><time>2026-05-02T08:02:35.181Z</time></trkpt><trkpt lat="43.1911523" lon="12.0499683"><ele>280.0</ele><time>2026-05-02T08:02:36.189Z</time></trkpt><trkpt lat="43.1913484" lon="12.0500995"><ele>280.0</ele><time>2026-05-02T08:02:37.186Z</time></trkpt><trkpt lat="43.1915393" lon="12.0502189"><ele>280.0</ele><time>2026-05-02T08:02:38.198Z</time></trkpt><trkpt lat="43.1917178" lon="12.050336"><ele>283.0</ele><time>2026-05-02T08:02:39.199Z</time></trkpt><trkpt lat="43.1918965" lon="12.0504604"><ele>286.0</ele><time>2026-05-02T08:02:40.192Z</time></trkpt><trkpt lat="43.1920796" lon="12.0505798"><ele>289.0</ele><time>2026-05-02T08:02:41.203Z</time></trkpt><trkpt lat="43.1922558" lon="12.0506935"><ele>287.66666666666663</ele><time>2026-05-02T08:02:42.196Z</time></trkpt><trkpt lat="43.1924287" lon="12.0508067"><ele>286.3333333333333</ele><time>2026-05-02T08:02:43.182Z</time></trkpt><trkpt lat="43.1925966" lon="12.0509259"><ele>285.0</ele><time>2026-05-02T08:02:44.192Z</time></trkpt><trkpt lat="43.1927693" lon="12.0510436"><ele>285.0</ele><time>2026-05-02T08:02:45.198Z</time></trkpt><trkpt lat="43.1929432" lon="12.0511522"><ele>285.0</ele><time>2026-05-02T08:02:46.195Z</time></trkpt><trkpt lat="43.1931135" lon="12.051266"><ele>285.0</ele><time>2026-05-02T08:02:47.196Z</time></trkpt><trkpt lat="43.1932847" lon="12.0513827"><ele>283.0</ele><time>2026-05-02T08:02:48.188Z</time></trkpt><trkpt lat="43.1934585" lon="12.051509"><ele>281.0</ele><time>2026-05-02T08:02:49.181Z</time></trkpt><trkpt lat="43.193636" lon="12.0516314"><ele>279.0</ele><time>2026-05-02T08:02:50.197Z</time></trkpt><trkpt lat="43.1938214" lon="12.0517637"><ele>279.0</ele><time>2026-05-02T08:02:51.19Z</time></trkpt><trkpt lat="43.193997" lon="12.0519201"><ele>279.0</ele><time>2026-05-02T08:02:52.197Z</time></trkpt><trkpt lat="43.1941674" lon="12.0520903"><ele>279.0</ele><time>2026-05-02T08:02:53.189Z</time></trkpt><trkpt lat="43.1943356" lon="12.0522682"><ele>280.0</ele><time>2026-05-02T08:02:54.197Z</time></trkpt><trkpt lat="43.1944977" lon="12.0524495"><ele>281.0</ele><time>2026-05-02T08:02:55.197Z</time></trkpt><trkpt lat="43.1946585" lon="12.0526497"><ele>282.0</ele><time>2026-05-02T08:02:56.193Z</time></trkpt><trkpt lat="43.1948072" lon="12.0528662"><ele>280.3333333333333</ele><time>2026-05-02T08:02:57.193Z</time></trkpt><trkpt lat="43.1949498" lon="12.0530919"><ele>278.66666666666663</ele><time>2026-05-02T08:02:58.192Z</time></trkpt><trkpt lat="43.1950799" lon="12.0533308"><ele>277.0</ele><time>2026-05-02T08:02:59.196Z</time></trkpt><trkpt lat="43.1952068" lon="12.0535753"><ele>274.3333333333333</ele><time>2026-05-02T08:03:00.184Z</time></trkpt><trkpt lat="43.1953252" lon="12.0538199"><ele>271.6666666666667</ele><time>2026-05-02T08:03:01.188Z</time></trkpt><trkpt lat="43.195434" lon="12.0540807"><ele>269.0</ele><time>2026-05-02T08:03:02.16Z</time></trkpt><trkpt lat="43.1955311" lon="12.0543419"><ele>269.0</ele><time>2026-05-02T08:03:03.18Z</time></trkpt><trkpt lat="43.1956187" lon="12.054614"><ele>269.0</ele><time>2026-05-02T08:03:04.186Z</time></trkpt><trkpt lat="43.1956926" lon="12.0548914"><ele>269.0</ele><time>2026-05-02T08:03:05.194Z</time></trkpt><trkpt lat="43.1957616" lon="12.0551703"><ele>268.0</ele><time>2026-05-02T08:03:06.184Z</time></trkpt><trkpt lat="43.1958224" lon="12.0554567"><ele>267.0</ele><time>2026-05-02T08:03:07.174Z</time></trkpt><trkpt lat="43.1958733" lon="12.0557448"><ele>266.0</ele><time>2026-05-02T08:03:08.191Z</time></trkpt><trkpt lat="43.1959147" lon="12.0560492"><ele>265.0</ele><time>2026-05-02T08:03:09.199Z</time></trkpt><trkpt lat="43.1959436" lon="12.0563502"><ele>264.0</ele><time>2026-05-02T08:03:10.19Z</time></trkpt><trkpt lat="43.1959613" lon="12.0566586"><ele>263.0</ele><time>2026-05-02T08:03:11.186Z</time></trkpt><trkpt lat="43.1959652" lon="12.0569702"><ele>263.0</ele><time>2026-05-02T08:03:12.166Z</time></trkpt><trkpt lat="43.1959559" lon="12.057284"><ele>263.0</ele><time>2026-05-02T08:03:13.187Z</time></trkpt><trkpt lat="43.1959388" lon="12.0575915"><ele>263.0</ele><time>2026-05-02T08:03:14.192Z</time></trkpt><trkpt lat="43.1959118" lon="12.057898"><ele>263.0</ele><time>2026-05-02T08:03:15.183Z</time></trkpt><trkpt lat="43.1958805" lon="12.0582055"><ele>262.0</ele><time>2026-05-02T08:03:16.192Z</time></trkpt><trkpt lat="43.1958491" lon="12.0585149"><ele>261.0</ele><time>2026-05-02T08:03:17.188Z</time></trkpt><trkpt lat="43.1958119" lon="12.0588154"><ele>261.3333333333333</ele><time>2026-05-02T08:03:18.184Z</time></trkpt><trkpt lat="43.1957787" lon="12.0591194"><ele>261.66666666666663</ele><time>2026-05-02T08:03:19.194Z</time></trkpt><trkpt lat="43.1957417" lon="12.0594145"><ele>262.0</ele><time>2026-05-02T08:03:20.185Z</time></trkpt><trkpt lat="43.1957087" lon="12.0597125"><ele>261.3333333333333</ele><time>2026-05-02T08:03:21.191Z</time></trkpt><trkpt lat="43.1956764" lon="12.0600124"><ele>260.6666666666667</ele><time>2026-05-02T08:03:22.189Z</time></trkpt><trkpt lat="43.1956422" lon="12.0603077"><ele>260.0</ele><time>2026-05-02T08:03:23.196Z</time></trkpt><trkpt lat="43.1956073" lon="12.0606066"><ele>260.33333333333337</ele><time>2026-05-02T08:03:24.194Z</time></trkpt><trkpt lat="43.1955727" lon="12.0609029"><ele>260.6666666666667</ele><time>2026-05-02T08:03:25.181Z</time></trkpt><trkpt lat="43.1955411" lon="12.0612049"><ele>261.0</ele><time>2026-05-02T08:03:26.181Z</time></trkpt><trkpt lat="43.1955081" lon="12.0615092"><ele>260.6666666666667</ele><time>2026-05-02T08:03:27.191Z</time></trkpt><trkpt lat="43.1954721" lon="12.0618059"><ele>260.33333333333337</ele><time>2026-05-02T08:03:28.205Z</time></trkpt><trkpt lat="43.1954344" lon="12.0621015"><ele>260.0</ele><time>2026-05-02T08:03:29.192Z</time></trkpt><trkpt lat="43.1954002" lon="12.0624104"><ele>259.0</ele><time>2026-05-02T08:03:30.204Z</time></trkpt><trkpt lat="43.1953672" lon="12.062718"><ele>258.0</ele><time>2026-05-02T08:03:31.194Z</time></trkpt><trkpt lat="43.1953325" lon="12.0630263"><ele>258.3333333333333</ele><time>2026-05-02T08:03:32.195Z</time></trkpt><trkpt lat="43.1952978" lon="12.0633267"><ele>258.66666666666663</ele><time>2026-05-02T08:03:33.192Z</time></trkpt><trkpt lat="43.1952633" lon="12.063633"><ele>259.0</ele><time>2026-05-02T08:03:34.178Z</time></trkpt><trkpt lat="43.1952324" lon="12.0639343"><ele>259.0</ele><time>2026-05-02T08:03:35.192Z</time></trkpt><trkpt lat="43.1952043" lon="12.0642338"><ele>259.0</ele><time>2026-05-02T08:03:36.187Z</time></trkpt><trkpt lat="43.1951863" lon="12.0645353"><ele>259.0</ele><time>2026-05-02T08:03:37.206Z</time></trkpt><trkpt lat="43.1951769" lon="12.0648321"><ele>259.0</ele><time>2026-05-02T08:03:38.19Z</time></trkpt><trkpt lat="43.1951813" lon="12.0651224"><ele>259.0</ele><time>2026-05-02T08:03:39.189Z</time></trkpt><trkpt lat="43.1951868" lon="12.0654225"><ele>259.0</ele><time>2026-05-02T08:03:40.198Z</time></trkpt><trkpt lat="43.1952057" lon="12.0657216"><ele>259.3333333333333</ele><time>2026-05-02T08:03:41.194Z</time></trkpt><trkpt lat="43.1952296" lon="12.0660232"><ele>259.6666666666667</ele><time>2026-05-02T08:03:42.193Z</time></trkpt><trkpt lat="43.1952594" lon="12.0663141"><ele>260.0</ele><time>2026-05-02T08:03:43.203Z</time></trkpt><trkpt lat="43.1952943" lon="12.0666046"><ele>260.0</ele><time>2026-05-02T08:03:44.189Z</time></trkpt><trkpt lat="43.195341" lon="12.0668885"><ele>260.0</ele><time>2026-05-02T08:03:45.201Z</time></trkpt><trkpt lat="43.1953953" lon="12.067169"><ele>260.0</ele><time>2026-05-02T08:03:46.181Z</time></trkpt><trkpt lat="43.1954588" lon="12.0674597"><ele>260.0</ele><time>2026-05-02T08:03:47.184Z</time></trkpt><trkpt lat="43.195525" lon="12.0677391"><ele>260.0</ele><time>2026-05-02T08:03:48.207Z</time></trkpt><trkpt lat="43.1955952" lon="12.0680205"><ele>260.0</ele><time>2026-05-02T08:03:49.184Z</time></trkpt><trkpt lat="43.1956733" lon="12.068298"><ele>260.33333333333337</ele><time>2026-05-02T08:03:50.181Z</time></trkpt><trkpt lat="43.1957487" lon="12.0685723"><ele>260.6666666666667</ele><time>2026-05-02T08:03:51.187Z</time></trkpt><trkpt lat="43.1958252" lon="12.0688407"><ele>261.0</ele><time>2026-05-02T08:03:52.17Z</time></trkpt><trkpt lat="43.1958957" lon="12.0691163"><ele>261.3333333333333</ele><time>2026-05-02T08:03:53.175Z</time></trkpt><trkpt lat="43.1959737" lon="12.0693887"><ele>261.66666666666663</ele><time>2026-05-02T08:03:54.193Z</time></trkpt><trkpt lat="43.196051" lon="12.0696707"><ele>262.0</ele><time>2026-05-02T08:03:55.18Z</time></trkpt><trkpt lat="43.1961302" lon="12.0699351"><ele>262.66666666666663</ele><time>2026-05-02T08:03:56.186Z</time></trkpt><trkpt lat="43.1962092" lon="12.0702095"><ele>263.3333333333333</ele><time>2026-05-02T08:03:57.194Z</time></trkpt><trkpt lat="43.1962838" lon="12.0704837"><ele>264.0</ele><time>2026-05-02T08:03:58.196Z</time></trkpt><trkpt lat="43.1963574" lon="12.0707508"><ele>263.6666666666667</ele><time>2026-05-02T08:03:59.182Z</time></trkpt><trkpt lat="43.1964289" lon="12.0710272"><ele>263.33333333333337</ele><time>2026-05-02T08:04:00.187Z</time></trkpt><trkpt lat="43.1964944" lon="12.0713011"><ele>263.0</ele><time>2026-05-02T08:04:01.168Z</time></trkpt><trkpt lat="43.1965574" lon="12.0715722"><ele>261.6666666666667</ele><time>2026-05-02T08:04:02.194Z</time></trkpt><trkpt lat="43.1966169" lon="12.0718423"><ele>260.3333333333333</ele><time>2026-05-02T08:04:03.179Z</time></trkpt><trkpt lat="43.1966745" lon="12.0721109"><ele>259.0</ele><time>2026-05-02T08:04:04.187Z</time></trkpt><trkpt lat="43.1967249" lon="12.0723836"><ele>259.3333333333333</ele><time>2026-05-02T08:04:05.188Z</time></trkpt><trkpt lat="43.196775" lon="12.0726592"><ele>259.6666666666667</ele><time>2026-05-02T08:04:06.191Z</time></trkpt><trkpt lat="43.196821" lon="12.0729228"><ele>260.0</ele><time>2026-05-02T08:04:07.211Z</time></trkpt><trkpt lat="43.196864" lon="12.0731953"><ele>260.0</ele><time>2026-05-02T08:04:08.181Z</time></trkpt><trkpt lat="43.196902" lon="12.0734693"><ele>260.0</ele><time>2026-05-02T08:04:09.187Z</time></trkpt><trkpt lat="43.1969389" lon="12.0737401"><ele>260.0</ele><time>2026-05-02T08:04:10.192Z</time></trkpt><trkpt lat="43.1969694" lon="12.0740155"><ele>259.6666666666667</ele><time>2026-05-02T08:04:11.19Z</time></trkpt><trkpt lat="43.1969993" lon="12.074295"><ele>259.3333333333333</ele><time>2026-05-02T08:04:12.189Z</time></trkpt><trkpt lat="43.1970205" lon="12.0745816"><ele>259.0</ele><time>2026-05-02T08:04:13.2Z</time></trkpt><trkpt lat="43.1970423" lon="12.0748755"><ele>259.0</ele><time>2026-05-02T08:04:14.185Z</time></trkpt><trkpt lat="43.197061" lon="12.0751637"><ele>259.0</ele><time>2026-05-02T08:04:15.192Z</time></trkpt><trkpt lat="43.1970869" lon="12.0754532"><ele>259.0</ele><time>2026-05-02T08:04:16.182Z</time></trkpt><trkpt lat="43.1971094" lon="12.0757315"><ele>259.3333333333333</ele><time>2026-05-02T08:04:17.188Z</time></trkpt><trkpt lat="43.1971211" lon="12.075994"><ele>259.6666666666667</ele><time>2026-05-02T08:04:18.192Z</time></trkpt><trkpt lat="43.1971386" lon="12.0762443"><ele>260.0</ele><time>2026-05-02T08:04:19.2Z</time></trkpt><trkpt lat="43.1971491" lon="12.0764803"><ele>261.33333333333337</ele><time>2026-05-02T08:04:20.186Z</time></trkpt><trkpt lat="43.1971592" lon="12.0766989"><ele>262.6666666666667</ele><time>2026-05-02T08:04:21.191Z</time></trkpt><trkpt lat="43.1971682" lon="12.0769072"><ele>264.0</ele><time>2026-05-02T08:04:22.19Z</time></trkpt><trkpt lat="43.1971776" lon="12.0771027"><ele>264.0</ele><time>2026-05-02T08:04:23.192Z</time></trkpt><trkpt lat="43.197186" lon="12.0772835"><ele>264.0</ele><time>2026-05-02T08:04:24.196Z</time></trkpt><trkpt lat="43.197199" lon="12.0774529"><ele>264.0</ele><time>2026-05-02T08:04:25.204Z</time></trkpt><trkpt lat="43.197204" lon="12.0776124"><ele>264.0</ele><time>2026-05-02T08:04:26.182Z</time></trkpt><trkpt lat="43.1972069" lon="12.0777642"><ele>263.4</ele><time>2026-05-02T08:04:27.208Z</time></trkpt><trkpt lat="43.1972035" lon="12.0778941"><ele>262.79999999999995</ele><time>2026-05-02T08:04:28.192Z</time></trkpt><trkpt lat="43.1971768" lon="12.0780121"><ele>262.20000000000005</ele><time>2026-05-02T08:04:29.171Z</time></trkpt><trkpt lat="43.1971235" lon="12.0781071"><ele>261.6</ele><time>2026-05-02T08:04:30.193Z</time></trkpt><trkpt lat="43.197039" lon="12.0781732"><ele>261.0</ele><time>2026-05-02T08:04:31.193Z</time></trkpt><trkpt lat="43.1969491" lon="12.0781912"><ele>261.0</ele><time>2026-05-02T08:04:32.188Z</time></trkpt><trkpt lat="43.1968706" lon="12.0781776"><ele>261.0</ele><time>2026-05-02T08:04:33.169Z</time></trkpt><trkpt lat="43.1968066" lon="12.0781437"><ele>261.0</ele><time>2026-05-02T08:04:34.184Z</time></trkpt><trkpt lat="43.1967219" lon="12.0780189"><ele>261.0</ele><time>2026-05-02T08:04:36.184Z</time></trkpt><trkpt lat="43.1966943" lon="12.0779279"><ele>261.0</ele><time>2026-05-02T08:04:37.185Z</time></trkpt><trkpt lat="43.1966894" lon="12.0778178"><ele>261.0</ele><time>2026-05-02T08:04:38.179Z</time></trkpt><trkpt lat="43.1967035" lon="12.0777121"><ele>261.0</ele><time>2026-05-02T08:04:39.189Z</time></trkpt><trkpt lat="43.1967435" lon="12.0776163"><ele>261.0</ele><time>2026-05-02T08:04:40.17Z</time></trkpt><trkpt lat="43.1968152" lon="12.0775153"><ele>261.0</ele><time>2026-05-02T08:04:41.185Z</time></trkpt><trkpt lat="43.1969067" lon="12.077484"><ele>261.0</ele><time>2026-05-02T08:04:42.203Z</time></trkpt><trkpt lat="43.1970116" lon="12.0774634"><ele>261.0</ele><time>2026-05-02T08:04:43.182Z</time></trkpt><trkpt lat="43.1971287" lon="12.0774492"><ele>261.25</ele><time>2026-05-02T08:04:44.184Z</time></trkpt><trkpt lat="43.1972496" lon="12.0774292"><ele>261.5</ele><time>2026-05-02T08:04:45.199Z</time></trkpt><trkpt lat="43.1973721" lon="12.0774222"><ele>261.75</ele><time>2026-05-02T08:04:46.17Z</time></trkpt><trkpt lat="43.1974827" lon="12.0774199"><ele>262.0</ele><time>2026-05-02T08:04:47.178Z</time></trkpt><trkpt lat="43.1975875" lon="12.077412"><ele>262.0</ele><time>2026-05-02T08:04:48.184Z</time></trkpt><trkpt lat="43.1976669" lon="12.0773973"><ele>262.0</ele><time>2026-05-02T08:04:49.186Z</time></trkpt><trkpt lat="43.1977333" lon="12.077385"><ele>262.0</ele><time>2026-05-02T08:04:51.173Z</time></trkpt><trkpt lat="43.1977946" lon="12.0773429"><ele>262.0</ele><time>2026-05-02T08:04:54.166Z</time></trkpt><trkpt lat="43.1978286" lon="12.0772641"><ele>262.0</ele><time>2026-05-02T08:04:55.181Z</time></trkpt><trkpt lat="43.1978753" lon="12.0771761"><ele>262.0</ele><time>2026-05-02T08:04:56.182Z</time></trkpt><trkpt lat="43.1979153" lon="12.0770885"><ele>262.0</ele><time>2026-05-02T08:04:57.178Z</time></trkpt><trkpt lat="43.19798" lon="12.0769393"><ele>262.0</ele><time>2026-05-02T08:04:59.195Z</time></trkpt><trkpt lat="43.1980234" lon="12.0768686"><ele>262.0</ele><time>2026-05-02T08:05:00.181Z</time></trkpt><trkpt lat="43.1980856" lon="12.0768189"><ele>262.0</ele><time>2026-05-02T08:05:01.181Z</time></trkpt><trkpt lat="43.1981554" lon="12.0767775"><ele>262.0</ele><time>2026-05-02T08:05:02.181Z</time></trkpt><trkpt lat="43.1982534" lon="12.0767478"><ele>262.0</ele><time>2026-05-02T08:05:03.17Z</time></trkpt><trkpt lat="43.1983602" lon="12.076734"><ele>262.0</ele><time>2026-05-02T08:05:04.185Z</time></trkpt><trkpt lat="43.1984778" lon="12.0767398"><ele>262.25</ele><time>2026-05-02T08:05:05.179Z</time></trkpt><trkpt lat="43.1986116" lon="12.0767589"><ele>262.5</ele><time>2026-05-02T08:05:06.175Z</time></trkpt><trkpt lat="43.1987407" lon="12.0767824"><ele>262.75</ele><time>2026-05-02T08:05:07.178Z</time></trkpt><trkpt lat="43.1988614" lon="12.0767991"><ele>263.0</ele><time>2026-05-02T08:05:08.186Z</time></trkpt><trkpt lat="43.1989698" lon="12.0768043"><ele>263.2</ele><time>2026-05-02T08:05:09.177Z</time></trkpt><trkpt lat="43.1990819" lon="12.0768131"><ele>263.4</ele><time>2026-05-02T08:05:10.189Z</time></trkpt><trkpt lat="43.1991874" lon="12.0768223"><ele>263.59999999999997</ele><time>2026-05-02T08:05:11.191Z</time></trkpt><trkpt lat="43.1992945" lon="12.0768359"><ele>263.8</ele><time>2026-05-02T08:05:12.197Z</time></trkpt><trkpt lat="43.1994032" lon="12.0768409"><ele>264.0</ele><time>2026-05-02T08:05:13.169Z</time></trkpt><trkpt lat="43.1995107" lon="12.0768556"><ele>264.0</ele><time>2026-05-02T08:05:14.183Z</time></trkpt><trkpt lat="43.1996202" lon="12.0768604"><ele>264.0</ele><time>2026-05-02T08:05:15.173Z</time></trkpt><trkpt lat="43.1997267" lon="12.0768675"><ele>264.0</ele><time>2026-05-02T08:05:16.194Z</time></trkpt><trkpt lat="43.1998373" lon="12.0768748"><ele>264.0</ele><time>2026-05-02T08:05:17.195Z</time></trkpt><trkpt lat="43.1999427" lon="12.0768835"><ele>264.0</ele><time>2026-05-02T08:05:18.189Z</time></trkpt><trkpt lat="43.2000471" lon="12.0768961"><ele>264.0</ele><time>2026-05-02T08:05:19.175Z</time></trkpt><trkpt lat="43.2001529" lon="12.0769023"><ele>264.0</ele><time>2026-05-02T08:05:20.178Z</time></trkpt><trkpt lat="43.2002546" lon="12.0769125"><ele>264.0</ele><time>2026-05-02T08:05:21.182Z</time></trkpt><trkpt lat="43.2003521" lon="12.0769207"><ele>264.0</ele><time>2026-05-02T08:05:22.186Z</time></trkpt><trkpt lat="43.2004525" lon="12.0769219"><ele>264.0</ele><time>2026-05-02T08:05:23.196Z</time></trkpt><trkpt lat="43.2005495" lon="12.0769316"><ele>264.0</ele><time>2026-05-02T08:05:24.187Z</time></trkpt><trkpt lat="43.2006548" lon="12.076938"><ele>264.0</ele><time>2026-05-02T08:05:25.177Z</time></trkpt><trkpt lat="43.2007566" lon="12.0769457"><ele>264.0</ele><time>2026-05-02T08:05:26.181Z</time></trkpt><trkpt lat="43.2008511" lon="12.0769517"><ele>264.0</ele><time>2026-05-02T08:05:27.189Z</time></trkpt><trkpt lat="43.2009447" lon="12.0769524"><ele>264.0</ele><time>2026-05-02T08:05:28.185Z</time></trkpt><trkpt lat="43.2010383" lon="12.0769646"><ele>264.0</ele><time>2026-05-02T08:05:29.193Z</time></trkpt><trkpt lat="43.2011398" lon="12.076969"><ele>264.0</ele><time>2026-05-02T08:05:30.186Z</time></trkpt><trkpt lat="43.2012317" lon="12.0769713"><ele>264.0</ele><time>2026-05-02T08:05:31.184Z</time></trkpt><trkpt lat="43.2013177" lon="12.0769742"><ele>264.0</ele><time>2026-05-02T08:05:32.19Z</time></trkpt><trkpt lat="43.2013975" lon="12.0769788"><ele>264.0</ele><time>2026-05-02T08:05:33.196Z</time></trkpt><trkpt lat="43.2014799" lon="12.0769822"><ele>264.0</ele><time>2026-05-02T08:05:34.197Z</time></trkpt><trkpt lat="43.2015599" lon="12.0769944"><ele>264.2857142857143</ele><time>2026-05-02T08:05:35.184Z</time></trkpt><trkpt lat="43.2016405" lon="12.077001"><ele>264.57142857142856</ele><time>2026-05-02T08:05:36.191Z</time></trkpt><trkpt lat="43.2017115" lon="12.0770129"><ele>264.8571428571429</ele><time>2026-05-02T08:05:37.181Z</time></trkpt><trkpt lat="43.2017825" lon="12.0770199"><ele>265.1428571428571</ele><time>2026-05-02T08:05:38.195Z</time></trkpt><trkpt lat="43.2018519" lon="12.0770276"><ele>265.42857142857144</ele><time>2026-05-02T08:05:39.185Z</time></trkpt><trkpt lat="43.2019241" lon="12.0770338"><ele>265.7142857142857</ele><time>2026-05-02T08:05:40.186Z</time></trkpt><trkpt lat="43.2019922" lon="12.0770315"><ele>266.0</ele><time>2026-05-02T08:05:41.176Z</time></trkpt><trkpt lat="43.2020619" lon="12.0770376"><ele>266.0</ele><time>2026-05-02T08:05:42.188Z</time></trkpt><trkpt lat="43.2021318" lon="12.0770416"><ele>266.0</ele><time>2026-05-02T08:05:43.171Z</time></trkpt><trkpt lat="43.2022018" lon="12.0770472"><ele>266.0</ele><time>2026-05-02T08:05:44.19Z</time></trkpt><trkpt lat="43.2022739" lon="12.077049"><ele>266.0</ele><time>2026-05-02T08:05:45.182Z</time></trkpt><trkpt lat="43.202373" lon="12.0770479"><ele>266.0</ele><time>2026-05-02T08:05:47.193Z</time></trkpt><trkpt lat="43.2024517" lon="12.0770585"><ele>266.0</ele><time>2026-05-02T08:06:04.179Z</time></trkpt><trkpt lat="43.2025518" lon="12.0770748"><ele>266.2</ele><time>2026-05-02T08:06:06.183Z</time></trkpt><trkpt lat="43.2026455" lon="12.0770667"><ele>266.40000000000003</ele><time>2026-05-02T08:06:09.178Z</time></trkpt><trkpt lat="43.2027397" lon="12.0770445"><ele>266.6</ele><time>2026-05-02T08:06:11.191Z</time></trkpt><trkpt lat="43.2028322" lon="12.0770319"><ele>266.8</ele><time>2026-05-02T08:06:13.197Z</time></trkpt><trkpt lat="43.2029268" lon="12.0770264"><ele>267.0</ele><time>2026-05-02T08:06:15.177Z</time></trkpt><trkpt lat="43.2030185" lon="12.0770386"><ele>267.0</ele><time>2026-05-02T08:06:17.195Z</time></trkpt><trkpt lat="43.2031164" lon="12.0770359"><ele>267.0</ele><time>2026-05-02T08:06:19.18Z</time></trkpt><trkpt lat="43.2032132" lon="12.0770595"><ele>267.0</ele><time>2026-05-02T08:06:21.188Z</time></trkpt><trkpt lat="43.2032873" lon="12.0770983"><ele>267.0</ele><time>2026-05-02T08:06:24.175Z</time></trkpt><trkpt lat="43.2033616" lon="12.077117"><ele>267.0</ele><time>2026-05-02T08:07:09.197Z</time></trkpt><trkpt lat="43.2034629" lon="12.0771113"><ele>267.0</ele><time>2026-05-02T08:07:11.186Z</time></trkpt><trkpt lat="43.2035517" lon="12.0771108"><ele>267.0</ele><time>2026-05-02T08:07:12.199Z</time></trkpt><trkpt lat="43.2036589" lon="12.077119"><ele>267.0</ele><time>2026-05-02T08:07:13.164Z</time></trkpt><trkpt lat="43.2037705" lon="12.077139"><ele>267.0</ele><time>2026-05-02T08:07:14.188Z</time></trkpt><trkpt lat="43.2038858" lon="12.0771565"><ele>267.0</ele><time>2026-05-02T08:07:15.185Z</time></trkpt><trkpt lat="43.2040086" lon="12.0771746"><ele>267.0</ele><time>2026-05-02T08:07:16.18Z</time></trkpt><trkpt lat="43.2041297" lon="12.0771964"><ele>267.0</ele><time>2026-05-02T08:07:17.197Z</time></trkpt><trkpt lat="43.204255" lon="12.0772117"><ele>267.0</ele><time>2026-05-02T08:07:18.186Z</time></trkpt><trkpt lat="43.2043744" lon="12.0772243"><ele>267.0</ele><time>2026-05-02T08:07:19.181Z</time></trkpt><trkpt lat="43.2044924" lon="12.0772431"><ele>267.0</ele><time>2026-05-02T08:07:20.186Z</time></trkpt><trkpt lat="43.2046091" lon="12.0772604"><ele>267.0</ele><time>2026-05-02T08:07:21.195Z</time></trkpt><trkpt lat="43.2047261" lon="12.0772728"><ele>267.0</ele><time>2026-05-02T08:07:22.188Z</time></trkpt><trkpt lat="43.2048404" lon="12.0772767"><ele>267.0</ele><time>2026-05-02T08:07:23.193Z</time></trkpt><trkpt lat="43.2049558" lon="12.077281"><ele>267.75</ele><time>2026-05-02T08:07:24.187Z</time></trkpt><trkpt lat="43.2050701" lon="12.0772936"><ele>268.5</ele><time>2026-05-02T08:07:25.192Z</time></trkpt><trkpt lat="43.2051771" lon="12.0772992"><ele>269.25</ele><time>2026-05-02T08:07:26.181Z</time></trkpt><trkpt lat="43.2052933" lon="12.0773094"><ele>270.0</ele><time>2026-05-02T08:07:27.187Z</time></trkpt><trkpt lat="43.2054087" lon="12.077324"><ele>270.0</ele><time>2026-05-02T08:07:28.178Z</time></trkpt><trkpt lat="43.2055316" lon="12.0773397"><ele>270.0</ele><time>2026-05-02T08:07:29.18Z</time></trkpt><trkpt lat="43.20566" lon="12.0773523"><ele>270.0</ele><time>2026-05-02T08:07:30.188Z</time></trkpt><trkpt lat="43.2057793" lon="12.0773694"><ele>270.0</ele><time>2026-05-02T08:07:31.212Z</time></trkpt><trkpt lat="43.2058936" lon="12.077383"><ele>270.2</ele><time>2026-05-02T08:07:32.189Z</time></trkpt><trkpt lat="43.205995" lon="12.0773991"><ele>270.4</ele><time>2026-05-02T08:07:33.189Z</time></trkpt><trkpt lat="43.2060954" lon="12.0774126"><ele>270.6</ele><time>2026-05-02T08:07:34.186Z</time></trkpt><trkpt lat="43.2062016" lon="12.077431"><ele>270.8</ele><time>2026-05-02T08:07:35.181Z</time></trkpt><trkpt lat="43.2063094" lon="12.0774396"><ele>271.0</ele><time>2026-05-02T08:07:36.192Z</time></trkpt><trkpt lat="43.2064236" lon="12.0774508"><ele>271.25</ele><time>2026-05-02T08:07:37.196Z</time></trkpt><trkpt lat="43.2065385" lon="12.0774629"><ele>271.5</ele><time>2026-05-02T08:07:38.177Z</time></trkpt><trkpt lat="43.2066451" lon="12.0774525"><ele>271.75</ele><time>2026-05-02T08:07:39.164Z</time></trkpt><trkpt lat="43.2067647" lon="12.0774041"><ele>272.0</ele><time>2026-05-02T08:07:40.179Z</time></trkpt><trkpt lat="43.206874" lon="12.0773173"><ele>272.0</ele><time>2026-05-02T08:07:41.179Z</time></trkpt><trkpt lat="43.2069724" lon="12.0772011"><ele>272.0</ele><time>2026-05-02T08:07:42.172Z</time></trkpt><trkpt lat="43.2070449" lon="12.0770606"><ele>272.0</ele><time>2026-05-02T08:07:43.171Z</time></trkpt><trkpt lat="43.2070821" lon="12.0768981"><ele>272.0</ele><time>2026-05-02T08:07:44.171Z</time></trkpt><trkpt lat="43.2071102" lon="12.0767481"><ele>272.0</ele><time>2026-05-02T08:07:45.184Z</time></trkpt><trkpt lat="43.2071341" lon="12.0765857"><ele>272.0</ele><time>2026-05-02T08:07:46.182Z</time></trkpt><trkpt lat="43.2071572" lon="12.0764377"><ele>272.0</ele><time>2026-05-02T08:07:47.182Z</time></trkpt><trkpt lat="43.2071825" lon="12.0762884"><ele>272.0</ele><time>2026-05-02T08:07:48.21Z</time></trkpt><trkpt lat="43.2072122" lon="12.0761365"><ele>272.0</ele><time>2026-05-02T08:07:49.188Z</time></trkpt><trkpt lat="43.2072418" lon="12.0759905"><ele>272.0</ele><time>2026-05-02T08:07:50.181Z</time></trkpt><trkpt lat="43.2072721" lon="12.0758398"><ele>272.0</ele><time>2026-05-02T08:07:51.189Z</time></trkpt><trkpt lat="43.2072963" lon="12.0756878"><ele>272.0</ele><time>2026-05-02T08:07:52.181Z</time></trkpt><trkpt lat="43.2073132" lon="12.075526"><ele>273.25</ele><time>2026-05-02T08:07:53.183Z</time></trkpt><trkpt lat="43.2073352" lon="12.0753656"><ele>274.5</ele><time>2026-05-02T08:07:54.18Z</time></trkpt><trkpt lat="43.2073443" lon="12.0752055"><ele>275.75</ele><time>2026-05-02T08:07:55.183Z</time></trkpt><trkpt lat="43.2073607" lon="12.0750532"><ele>277.0</ele><time>2026-05-02T08:07:56.181Z</time></trkpt><trkpt lat="43.207373" lon="12.0748977"><ele>277.4</ele><time>2026-05-02T08:07:57.168Z</time></trkpt><trkpt lat="43.2073806" lon="12.0747494"><ele>277.79999999999995</ele><time>2026-05-02T08:07:58.176Z</time></trkpt><trkpt lat="43.2073868" lon="12.0745934"><ele>278.2</ele><time>2026-05-02T08:07:59.183Z</time></trkpt><trkpt lat="43.2073923" lon="12.0744429"><ele>278.59999999999997</ele><time>2026-05-02T08:08:00.176Z</time></trkpt><trkpt lat="43.207402" lon="12.0742882"><ele>279.0</ele><time>2026-05-02T08:08:01.187Z</time></trkpt><trkpt lat="43.2074044" lon="12.0741293"><ele>280.25</ele><time>2026-05-02T08:08:02.171Z</time></trkpt><trkpt lat="43.2074135" lon="12.0739679"><ele>281.5</ele><time>2026-05-02T08:08:03.181Z</time></trkpt><trkpt lat="43.2074283" lon="12.0738015"><ele>282.75</ele><time>2026-05-02T08:08:04.187Z</time></trkpt><trkpt lat="43.2074244" lon="12.0736356"><ele>284.0</ele><time>2026-05-02T08:08:05.188Z</time></trkpt><trkpt lat="43.2074263" lon="12.0734693"><ele>284.0</ele><time>2026-05-02T08:08:06.184Z</time></trkpt><trkpt lat="43.2074332" lon="12.0733001"><ele>284.0</ele><time>2026-05-02T08:08:07.174Z</time></trkpt><trkpt lat="43.2074468" lon="12.0731296"><ele>284.0</ele><time>2026-05-02T08:08:08.191Z</time></trkpt><trkpt lat="43.2074577" lon="12.0729652"><ele>284.0</ele><time>2026-05-02T08:08:09.16Z</time></trkpt><trkpt lat="43.2074637" lon="12.0727994"><ele>286.25</ele><time>2026-05-02T08:08:10.166Z</time></trkpt><trkpt lat="43.2074719" lon="12.0726382"><ele>288.5</ele><time>2026-05-02T08:08:11.178Z</time></trkpt><trkpt lat="43.207479" lon="12.0724837"><ele>290.75</ele><time>2026-05-02T08:08:12.191Z</time></trkpt><trkpt lat="43.2074886" lon="12.0723318"><ele>293.0</ele><time>2026-05-02T08:08:13.158Z</time></trkpt><trkpt lat="43.2074987" lon="12.0721817"><ele>293.4</ele><time>2026-05-02T08:08:14.165Z</time></trkpt><trkpt lat="43.207508" lon="12.0720381"><ele>293.8</ele><time>2026-05-02T08:08:15.18Z</time></trkpt><trkpt lat="43.2075176" lon="12.0718925"><ele>294.2</ele><time>2026-05-02T08:08:16.168Z</time></trkpt><trkpt lat="43.2075244" lon="12.0717537"><ele>294.6</ele><time>2026-05-02T08:08:17.178Z</time></trkpt><trkpt lat="43.2075328" lon="12.0716144"><ele>295.0</ele><time>2026-05-02T08:08:18.159Z</time></trkpt><trkpt lat="43.2075476" lon="12.071476"><ele>295.0</ele><time>2026-05-02T08:08:19.178Z</time></trkpt><trkpt lat="43.2075606" lon="12.071332"><ele>295.0</ele><time>2026-05-02T08:08:20.172Z</time></trkpt><trkpt lat="43.2075864" lon="12.0711948"><ele>295.0</ele><time>2026-05-02T08:08:21.178Z</time></trkpt><trkpt lat="43.2076278" lon="12.071086"><ele>295.0</ele><time>2026-05-02T08:08:22.177Z</time></trkpt><trkpt lat="43.2076923" lon="12.0709774"><ele>295.0</ele><time>2026-05-02T08:08:23.186Z</time></trkpt><trkpt lat="43.2077702" lon="12.0708711"><ele>294.4</ele><time>2026-05-02T08:08:24.177Z</time></trkpt><trkpt lat="43.2078409" lon="12.0707629"><ele>293.8</ele><time>2026-05-02T08:08:25.185Z</time></trkpt><trkpt lat="43.2079086" lon="12.070654"><ele>293.2</ele><time>2026-05-02T08:08:26.183Z</time></trkpt><trkpt lat="43.2079861" lon="12.0705462"><ele>292.6</ele><time>2026-05-02T08:08:27.189Z</time></trkpt><trkpt lat="43.2080728" lon="12.070468"><ele>292.0</ele><time>2026-05-02T08:08:28.177Z</time></trkpt><trkpt lat="43.2081626" lon="12.070412"><ele>292.0</ele><time>2026-05-02T08:08:29.179Z</time></trkpt><trkpt lat="43.2082584" lon="12.0703871"><ele>292.0</ele><time>2026-05-02T08:08:30.183Z</time></trkpt><trkpt lat="43.2083721" lon="12.0703676"><ele>292.0</ele><time>2026-05-02T08:08:31.185Z</time></trkpt><trkpt lat="43.2084727" lon="12.0703527"><ele>292.0</ele><time>2026-05-02T08:08:32.179Z</time></trkpt><trkpt lat="43.2085676" lon="12.0703408"><ele>292.0</ele><time>2026-05-02T08:08:33.159Z</time></trkpt><trkpt lat="43.2086605" lon="12.0703366"><ele>292.0</ele><time>2026-05-02T08:08:34.169Z</time></trkpt><trkpt lat="43.2087473" lon="12.0703503"><ele>292.0</ele><time>2026-05-02T08:08:35.184Z</time></trkpt><trkpt lat="43.2088378" lon="12.0703819"><ele>292.0</ele><time>2026-05-02T08:08:36.177Z</time></trkpt><trkpt lat="43.2089266" lon="12.0704624"><ele>292.0</ele><time>2026-05-02T08:08:37.176Z</time></trkpt><trkpt lat="43.2089935" lon="12.0705779"><ele>292.0</ele><time>2026-05-02T08:08:38.171Z</time></trkpt><trkpt lat="43.2090434" lon="12.0707117"><ele>294.16666666666663</ele><time>2026-05-02T08:08:39.188Z</time></trkpt><trkpt lat="43.2090716" lon="12.0708582"><ele>296.3333333333333</ele><time>2026-05-02T08:08:40.198Z</time></trkpt><trkpt lat="43.2090943" lon="12.0709914"><ele>298.5</ele><time>2026-05-02T08:08:41.176Z</time></trkpt><trkpt lat="43.2091194" lon="12.0711054"><ele>300.6666666666667</ele><time>2026-05-02T08:08:42.198Z</time></trkpt><trkpt lat="43.2091496" lon="12.0711961"><ele>302.83333333333337</ele><time>2026-05-02T08:08:43.184Z</time></trkpt><trkpt lat="43.2091825" lon="12.0712761"><ele>305.0</ele><time>2026-05-02T08:08:44.194Z</time></trkpt><trkpt lat="43.2092291" lon="12.0713431"><ele>305.0</ele><time>2026-05-02T08:08:45.201Z</time></trkpt><trkpt lat="43.2092901" lon="12.0714113"><ele>305.0</ele><time>2026-05-02T08:08:46.188Z</time></trkpt><trkpt lat="43.2093529" lon="12.0714709"><ele>305.0</ele><time>2026-05-02T08:08:47.18Z</time></trkpt><trkpt lat="43.2094061" lon="12.0715221"><ele>305.0</ele><time>2026-05-02T08:08:48.192Z</time></trkpt><trkpt lat="43.2094534" lon="12.0716402"><ele>305.0</ele><time>2026-05-02T08:08:50.175Z</time></trkpt><trkpt lat="43.209464" lon="12.0717672"><ele>305.0</ele><time>2026-05-02T08:08:53.16Z</time></trkpt><trkpt lat="43.2094842" lon="12.0718602"><ele>306.1666666666667</ele><time>2026-05-02T08:08:55.169Z</time></trkpt><trkpt lat="43.2094748" lon="12.0719599"><ele>307.33333333333337</ele><time>2026-05-02T08:09:05.184Z</time></trkpt><trkpt lat="43.2094045" lon="12.07195"><ele>308.5</ele><time>2026-05-02T08:09:09.176Z</time></trkpt><trkpt lat="43.2094709" lon="12.0719511"><ele>309.6666666666667</ele><time>2026-05-02T08:09:20.184Z</time></trkpt><trkpt lat="43.2095652" lon="12.0719459"><ele>310.8333333333333</ele><time>2026-05-02T08:09:23.171Z</time></trkpt><trkpt lat="43.20968" lon="12.0719656"><ele>312.0</ele><time>2026-05-02T08:09:25.179Z</time></trkpt><trkpt lat="43.2097915" lon="12.0719613"><ele>312.1666666666667</ele><time>2026-05-02T08:09:27.183Z</time></trkpt><trkpt lat="43.2099264" lon="12.0719661"><ele>312.3333333333333</ele><time>2026-05-02T08:09:29.187Z</time></trkpt><trkpt lat="43.2100046" lon="12.0719685"><ele>312.5</ele><time>2026-05-02T08:09:30.184Z</time></trkpt><trkpt lat="43.210085" lon="12.0719665"><ele>312.66666666666663</ele><time>2026-05-02T08:09:31.186Z</time></trkpt><trkpt lat="43.2101565" lon="12.0719709"><ele>312.8333333333333</ele><time>2026-05-02T08:09:32.189Z</time></trkpt><trkpt lat="43.2102277" lon="12.0719734"><ele>313.0</ele><time>2026-05-02T08:09:33.187Z</time></trkpt><trkpt lat="43.2103049" lon="12.0719806"><ele>313.0</ele><time>2026-05-02T08:09:34.177Z</time></trkpt><trkpt lat="43.2103777" lon="12.0719872"><ele>313.0</ele><time>2026-05-02T08:09:35.181Z</time></trkpt><trkpt lat="43.2104467" lon="12.0719859"><ele>313.0</ele><time>2026-05-02T08:09:36.186Z</time></trkpt><trkpt lat="43.2105216" lon="12.0719837"><ele>313.0</ele><time>2026-05-02T08:09:37.18Z</time></trkpt><trkpt lat="43.2105983" lon="12.0719891"><ele>313.0</ele><time>2026-05-02T08:09:38.193Z</time></trkpt><trkpt lat="43.2106653" lon="12.0719921"><ele>313.0</ele><time>2026-05-02T08:09:39.195Z</time></trkpt><trkpt lat="43.2107387" lon="12.071993"><ele>313.0</ele><time>2026-05-02T08:09:40.2Z</time></trkpt><trkpt lat="43.2108184" lon="12.0719853"><ele>314.0</ele><time>2026-05-02T08:09:41.189Z</time></trkpt><trkpt lat="43.2108894" lon="12.0719813"><ele>315.0</ele><time>2026-05-02T08:09:42.175Z</time></trkpt><trkpt lat="43.2109572" lon="12.0719775"><ele>316.0</ele><time>2026-05-02T08:09:43.186Z</time></trkpt><trkpt lat="43.2110374" lon="12.0720171"><ele>317.0</ele><time>2026-05-02T08:09:45.183Z</time></trkpt><trkpt lat="43.211101" lon="12.0720937"><ele>318.0</ele><time>2026-05-02T08:09:48.178Z</time></trkpt><trkpt lat="43.2111584" lon="12.0721723"><ele>319.0</ele><time>2026-05-02T08:09:50.179Z</time></trkpt><trkpt lat="43.2112273" lon="12.0722897"><ele>319.0</ele><time>2026-05-02T08:09:52.172Z</time></trkpt><trkpt lat="43.211261" lon="12.0723952"><ele>319.0</ele><time>2026-05-02T08:09:54.194Z</time></trkpt><trkpt lat="43.211305" lon="12.0724918"><ele>319.0</ele><time>2026-05-02T08:11:39.185Z</time></trkpt><trkpt lat="43.2113565" lon="12.0725553"><ele>319.0</ele><time>2026-05-02T08:11:40.186Z</time></trkpt><trkpt lat="43.2114087" lon="12.072646"><ele>319.0</ele><time>2026-05-02T08:11:41.187Z</time></trkpt><trkpt lat="43.2114707" lon="12.0727599"><ele>319.0</ele><time>2026-05-02T08:11:42.173Z</time></trkpt><trkpt lat="43.2115313" lon="12.0728887"><ele>319.79999999999995</ele><time>2026-05-02T08:11:43.184Z</time></trkpt><trkpt lat="43.2115856" lon="12.0730095"><ele>320.59999999999997</ele><time>2026-05-02T08:11:44.187Z</time></trkpt><trkpt lat="43.2116269" lon="12.0731186"><ele>321.4</ele><time>2026-05-02T08:11:45.182Z</time></trkpt><trkpt lat="43.2116722" lon="12.0732215"><ele>322.2</ele><time>2026-05-02T08:11:46.189Z</time></trkpt><trkpt lat="43.2117322" lon="12.0733264"><ele>323.0</ele><time>2026-05-02T08:11:47.197Z</time></trkpt><trkpt lat="43.2118141" lon="12.073431"><ele>323.0</ele><time>2026-05-02T08:11:48.188Z</time></trkpt><trkpt lat="43.2119087" lon="12.0735411"><ele>323.0</ele><time>2026-05-02T08:11:49.197Z</time></trkpt><trkpt lat="43.2120134" lon="12.073633"><ele>323.0</ele><time>2026-05-02T08:11:50.187Z</time></trkpt><trkpt lat="43.2121104" lon="12.0737375"><ele>323.0</ele><time>2026-05-02T08:11:51.197Z</time></trkpt><trkpt lat="43.2122197" lon="12.0738451"><ele>327.25</ele><time>2026-05-02T08:11:52.202Z</time></trkpt><trkpt lat="43.212334" lon="12.0739392"><ele>331.5</ele><time>2026-05-02T08:11:53.174Z</time></trkpt><trkpt lat="43.2124519" lon="12.0740026"><ele>335.75</ele><time>2026-05-02T08:11:54.197Z</time></trkpt><trkpt lat="43.2125695" lon="12.0740285"><ele>340.0</ele><time>2026-05-02T08:11:55.191Z</time></trkpt><trkpt lat="43.212673" lon="12.0740467"><ele>340.0</ele><time>2026-05-02T08:11:56.182Z</time></trkpt><trkpt lat="43.212772" lon="12.0740562"><ele>340.0</ele><time>2026-05-02T08:11:57.192Z</time></trkpt><trkpt lat="43.2128744" lon="12.0740669"><ele>340.0</ele><time>2026-05-02T08:11:58.161Z</time></trkpt><trkpt lat="43.2129987" lon="12.0740535"><ele>340.0</ele><time>2026-05-02T08:11:59.189Z</time></trkpt><trkpt lat="43.213137" lon="12.0740274"><ele>343.66666666666663</ele><time>2026-05-02T08:12:00.2Z</time></trkpt><trkpt lat="43.213296" lon="12.0740023"><ele>347.3333333333333</ele><time>2026-05-02T08:12:01.184Z</time></trkpt><trkpt lat="43.2134755" lon="12.0739757"><ele>351.0</ele><time>2026-05-02T08:12:02.201Z</time></trkpt><trkpt lat="43.2136515" lon="12.0739456"><ele>351.0</ele><time>2026-05-02T08:12:03.189Z</time></trkpt><trkpt lat="43.2138314" lon="12.0739154"><ele>351.0</ele><time>2026-05-02T08:12:04.181Z</time></trkpt><trkpt lat="43.2140133" lon="12.0738843"><ele>351.0</ele><time>2026-05-02T08:12:05.194Z</time></trkpt><trkpt lat="43.2141958" lon="12.0738536"><ele>352.6666666666667</ele><time>2026-05-02T08:12:06.16Z</time></trkpt><trkpt lat="43.2143842" lon="12.0738237"><ele>354.33333333333337</ele><time>2026-05-02T08:12:07.17Z</time></trkpt><trkpt lat="43.2145698" lon="12.0738013"><ele>356.0</ele><time>2026-05-02T08:12:08.162Z</time></trkpt><trkpt lat="43.2147558" lon="12.0737701"><ele>356.33333333333337</ele><time>2026-05-02T08:12:09.166Z</time></trkpt><trkpt lat="43.2149383" lon="12.0737408"><ele>356.6666666666667</ele><time>2026-05-02T08:12:10.169Z</time></trkpt><trkpt lat="43.2151145" lon="12.0737185"><ele>357.0</ele><time>2026-05-02T08:12:11.187Z</time></trkpt><trkpt lat="43.2152886" lon="12.0736882"><ele>357.0</ele><time>2026-05-02T08:12:12.196Z</time></trkpt><trkpt lat="43.2154605" lon="12.0736531"><ele>357.0</ele><time>2026-05-02T08:12:13.168Z</time></trkpt><trkpt lat="43.2156335" lon="12.07359"><ele>357.0</ele><time>2026-05-02T08:12:14.185Z</time></trkpt><trkpt lat="43.215802" lon="12.0735137"><ele>357.0</ele><time>2026-05-02T08:12:15.176Z</time></trkpt><trkpt lat="43.2159628" lon="12.0734335"><ele>357.0</ele><time>2026-05-02T08:12:16.169Z</time></trkpt><trkpt lat="43.2161227" lon="12.0733488"><ele>357.0</ele><time>2026-05-02T08:12:17.18Z</time></trkpt><trkpt lat="43.2162904" lon="12.0732803"><ele>358.3333333333333</ele><time>2026-05-02T08:12:18.189Z</time></trkpt><trkpt lat="43.216468" lon="12.0732414"><ele>359.66666666666663</ele><time>2026-05-02T08:12:19.201Z</time></trkpt><trkpt lat="43.2166515" lon="12.0732446"><ele>361.0</ele><time>2026-05-02T08:12:20.195Z</time></trkpt><trkpt lat="43.2168283" lon="12.0733004"><ele>361.0</ele><time>2026-05-02T08:12:21.18Z</time></trkpt><trkpt lat="43.2170043" lon="12.0733787"><ele>361.0</ele><time>2026-05-02T08:12:22.201Z</time></trkpt><trkpt lat="43.2171784" lon="12.0734733"><ele>361.0</ele><time>2026-05-02T08:12:23.192Z</time></trkpt><trkpt lat="43.217345" lon="12.0735574"><ele>366.66666666666663</ele><time>2026-05-02T08:12:24.188Z</time></trkpt><trkpt lat="43.2174989" lon="12.0736382"><ele>372.3333333333333</ele><time>2026-05-02T08:12:25.179Z</time></trkpt><trkpt lat="43.2176339" lon="12.0737387"><ele>378.0</ele><time>2026-05-02T08:12:26.173Z</time></trkpt><trkpt lat="43.2177531" lon="12.0738809"><ele>378.0</ele><time>2026-05-02T08:12:27.182Z</time></trkpt><trkpt lat="43.2178538" lon="12.0740572"><ele>378.0</ele><time>2026-05-02T08:12:28.189Z</time></trkpt><trkpt lat="43.2179665" lon="12.0742469"><ele>378.0</ele><time>2026-05-02T08:12:29.199Z</time></trkpt><trkpt lat="43.2181044" lon="12.0744098"><ele>381.0</ele><time>2026-05-02T08:12:30.187Z</time></trkpt><trkpt lat="43.2182565" lon="12.0745716"><ele>384.0</ele><time>2026-05-02T08:12:31.195Z</time></trkpt><trkpt lat="43.2184224" lon="12.0747234"><ele>387.0</ele><time>2026-05-02T08:12:32.199Z</time></trkpt><trkpt lat="43.2185857" lon="12.0748733"><ele>390.33333333333337</ele><time>2026-05-02T08:12:33.198Z</time></trkpt><trkpt lat="43.2187536" lon="12.0750358"><ele>393.6666666666667</ele><time>2026-05-02T08:12:34.189Z</time></trkpt><trkpt lat="43.2189309" lon="12.0752012"><ele>397.0</ele><time>2026-05-02T08:12:35.196Z</time></trkpt><trkpt lat="43.219119" lon="12.0753678"><ele>397.0</ele><time>2026-05-02T08:12:36.173Z</time></trkpt><trkpt lat="43.2193029" lon="12.0755367"><ele>397.0</ele><time>2026-05-02T08:12:37.184Z</time></trkpt><trkpt lat="43.2194798" lon="12.0756978"><ele>397.0</ele><time>2026-05-02T08:12:38.175Z</time></trkpt><trkpt lat="43.2196312" lon="12.075833"><ele>398.5</ele><time>2026-05-02T08:12:39.186Z</time></trkpt><trkpt lat="43.219748" lon="12.0759472"><ele>400.0</ele><time>2026-05-02T08:12:40.182Z</time></trkpt><trkpt lat="43.2198263" lon="12.0760647"><ele>401.5</ele><time>2026-05-02T08:12:41.188Z</time></trkpt><trkpt lat="43.2198647" lon="12.0762078"><ele>403.0</ele><time>2026-05-02T08:12:42.191Z</time></trkpt><trkpt lat="43.2198573" lon="12.0763798"><ele>403.0</ele><time>2026-05-02T08:12:43.195Z</time></trkpt><trkpt lat="43.219856" lon="12.076538"><ele>403.0</ele><time>2026-05-02T08:12:44.179Z</time></trkpt><trkpt lat="43.2198892" lon="12.0766664"><ele>403.0</ele><time>2026-05-02T08:12:45.199Z</time></trkpt><trkpt lat="43.21994" lon="12.0767738"><ele>403.0</ele><time>2026-05-02T08:12:46.18Z</time></trkpt><trkpt lat="43.2200444" lon="12.076832"><ele>403.0</ele><time>2026-05-02T08:12:47.181Z</time></trkpt><trkpt lat="43.2201811" lon="12.076846"><ele>401.0</ele><time>2026-05-02T08:12:48.185Z</time></trkpt><trkpt lat="43.2203225" lon="12.076842"><ele>399.0</ele><time>2026-05-02T08:12:49.188Z</time></trkpt><trkpt lat="43.2204736" lon="12.0768307"><ele>397.0</ele><time>2026-05-02T08:12:50.206Z</time></trkpt><trkpt lat="43.2206274" lon="12.0768388"><ele>395.0</ele><time>2026-05-02T08:12:51.197Z</time></trkpt><trkpt lat="43.2207771" lon="12.0768497"><ele>399.25</ele><time>2026-05-02T08:12:52.196Z</time></trkpt><trkpt lat="43.2209237" lon="12.0768737"><ele>403.5</ele><time>2026-05-02T08:12:53.222Z</time></trkpt><trkpt lat="43.2210618" lon="12.0769252"><ele>407.75</ele><time>2026-05-02T08:12:54.194Z</time></trkpt><trkpt lat="43.2211873" lon="12.0769903"><ele>412.0</ele><time>2026-05-02T08:12:55.169Z</time></trkpt><trkpt lat="43.2213019" lon="12.0770757"><ele>412.0</ele><time>2026-05-02T08:12:56.187Z</time></trkpt><trkpt lat="43.2213941" lon="12.0771897"><ele>412.0</ele><time>2026-05-02T08:12:57.191Z</time></trkpt><trkpt lat="43.2214456" lon="12.0773455"><ele>412.0</ele><time>2026-05-02T08:12:58.188Z</time></trkpt><trkpt lat="43.2214819" lon="12.077521"><ele>412.0</ele><time>2026-05-02T08:12:59.18Z</time></trkpt><trkpt lat="43.2214953" lon="12.0776927"><ele>414.0</ele><time>2026-05-02T08:13:00.181Z</time></trkpt><trkpt lat="43.2214879" lon="12.0778501"><ele>416.0</ele><time>2026-05-02T08:13:01.178Z</time></trkpt><trkpt lat="43.221452" lon="12.0779614"><ele>418.0</ele><time>2026-05-02T08:13:02.196Z</time></trkpt><trkpt lat="43.2213683" lon="12.0780575"><ele>420.0</ele><time>2026-05-02T08:13:03.183Z</time></trkpt><trkpt lat="43.2212666" lon="12.0780982"><ele>422.0</ele><time>2026-05-02T08:13:04.181Z</time></trkpt><trkpt lat="43.2211611" lon="12.0781499"><ele>420.0</ele><time>2026-05-02T08:13:05.172Z</time></trkpt><trkpt lat="43.2210877" lon="12.0782459"><ele>418.0</ele><time>2026-05-02T08:13:06.191Z</time></trkpt><trkpt lat="43.2210581" lon="12.0783695"><ele>416.0</ele><time>2026-05-02T08:13:07.188Z</time></trkpt><trkpt lat="43.2210485" lon="12.0785179"><ele>414.0</ele><time>2026-05-02T08:13:08.176Z</time></trkpt><trkpt lat="43.2210649" lon="12.0786961"><ele>412.0</ele><time>2026-05-02T08:13:09.189Z</time></trkpt><trkpt lat="43.2210579" lon="12.0788584"><ele>412.0</ele><time>2026-05-02T08:13:10.186Z</time></trkpt><trkpt lat="43.2209888" lon="12.079006"><ele>412.0</ele><time>2026-05-02T08:13:11.195Z</time></trkpt><trkpt lat="43.2208939" lon="12.0791448"><ele>412.0</ele><time>2026-05-02T08:13:12.189Z</time></trkpt><trkpt lat="43.2207799" lon="12.0792966"><ele>412.0</ele><time>2026-05-02T08:13:13.184Z</time></trkpt><trkpt lat="43.2206847" lon="12.0794622"><ele>411.25</ele><time>2026-05-02T08:13:14.19Z</time></trkpt><trkpt lat="43.2206019" lon="12.0796283"><ele>410.5</ele><time>2026-05-02T08:13:15.193Z</time></trkpt><trkpt lat="43.2205117" lon="12.0797642"><ele>409.75</ele><time>2026-05-02T08:13:16.188Z</time></trkpt><trkpt lat="43.2204025" lon="12.079875"><ele>409.0</ele><time>2026-05-02T08:13:17.168Z</time></trkpt><trkpt lat="43.2202993" lon="12.0799716"><ele>411.6666666666667</ele><time>2026-05-02T08:13:18.186Z</time></trkpt><trkpt lat="43.2202084" lon="12.0800552"><ele>414.33333333333337</ele><time>2026-05-02T08:13:19.196Z</time></trkpt><trkpt lat="43.2201363" lon="12.0801294"><ele>417.0</ele><time>2026-05-02T08:13:20.202Z</time></trkpt><trkpt lat="43.2200838" lon="12.0802065"><ele>419.66666666666663</ele><time>2026-05-02T08:13:21.194Z</time></trkpt><trkpt lat="43.2200408" lon="12.0802919"><ele>422.3333333333333</ele><time>2026-05-02T08:13:22.168Z</time></trkpt><trkpt lat="43.2200161" lon="12.080387"><ele>425.0</ele><time>2026-05-02T08:13:23.19Z</time></trkpt><trkpt lat="43.2200152" lon="12.0804998"><ele>425.0</ele><time>2026-05-02T08:13:24.189Z</time></trkpt><trkpt lat="43.2200384" lon="12.0806327"><ele>425.0</ele><time>2026-05-02T08:13:25.199Z</time></trkpt><trkpt lat="43.2200791" lon="12.0807877"><ele>425.0</ele><time>2026-05-02T08:13:26.204Z</time></trkpt><trkpt lat="43.220135" lon="12.0809668"><ele>425.0</ele><time>2026-05-02T08:13:27.182Z</time></trkpt><trkpt lat="43.2201813" lon="12.081144"><ele>427.25</ele><time>2026-05-02T08:13:28.182Z</time></trkpt><trkpt lat="43.2201977" lon="12.0813113"><ele>429.5</ele><time>2026-05-02T08:13:29.192Z</time></trkpt><trkpt lat="43.2201936" lon="12.0814804"><ele>431.75</ele><time>2026-05-02T08:13:30.21Z</time></trkpt><trkpt lat="43.2201438" lon="12.0815978"><ele>434.0</ele><time>2026-05-02T08:13:31.181Z</time></trkpt><trkpt lat="43.2200731" lon="12.0817074"><ele>432.75</ele><time>2026-05-02T08:13:32.186Z</time></trkpt><trkpt lat="43.2199748" lon="12.0818005"><ele>431.5</ele><time>2026-05-02T08:13:33.187Z</time></trkpt><trkpt lat="43.2198728" lon="12.0818884"><ele>430.25</ele><time>2026-05-02T08:13:34.186Z</time></trkpt><trkpt lat="43.2197791" lon="12.0819815"><ele>429.0</ele><time>2026-05-02T08:13:35.194Z</time></trkpt><trkpt lat="43.2196942" lon="12.0820838"><ele>429.0</ele><time>2026-05-02T08:13:36.169Z</time></trkpt><trkpt lat="43.2196078" lon="12.0821611"><ele>429.0</ele><time>2026-05-02T08:13:37.188Z</time></trkpt><trkpt lat="43.2195375" lon="12.0822445"><ele>429.0</ele><time>2026-05-02T08:13:38.176Z</time></trkpt><trkpt lat="43.2194788" lon="12.0823472"><ele>429.0</ele><time>2026-05-02T08:13:39.201Z</time></trkpt><trkpt lat="43.2194629" lon="12.082456"><ele>429.0</ele><time>2026-05-02T08:13:40.187Z</time></trkpt><trkpt lat="43.2194706" lon="12.0825628"><ele>430.6666666666667</ele><time>2026-05-02T08:13:41.199Z</time></trkpt><trkpt lat="43.2195078" lon="12.0826486"><ele>432.33333333333337</ele><time>2026-05-02T08:13:42.195Z</time></trkpt><trkpt lat="43.2195474" lon="12.0827382"><ele>434.0</ele><time>2026-05-02T08:13:43.19Z</time></trkpt><trkpt lat="43.2195848" lon="12.0828367"><ele>435.6666666666667</ele><time>2026-05-02T08:13:44.209Z</time></trkpt><trkpt lat="43.2196284" lon="12.0829572"><ele>437.33333333333337</ele><time>2026-05-02T08:13:45.188Z</time></trkpt><trkpt lat="43.2196761" lon="12.0830925"><ele>439.0</ele><time>2026-05-02T08:13:46.182Z</time></trkpt><trkpt lat="43.219738" lon="12.0832429"><ele>438.75</ele><time>2026-05-02T08:13:47.201Z</time></trkpt><trkpt lat="43.2197944" lon="12.0834087"><ele>438.5</ele><time>2026-05-02T08:13:48.194Z</time></trkpt><trkpt lat="43.2198538" lon="12.083582"><ele>438.25</ele><time>2026-05-02T08:13:49.187Z</time></trkpt><trkpt lat="43.219911" lon="12.0837675"><ele>438.0</ele><time>2026-05-02T08:13:50.191Z</time></trkpt><trkpt lat="43.2199958" lon="12.0839813"><ele>443.33333333333337</ele><time>2026-05-02T08:13:51.18Z</time></trkpt><trkpt lat="43.220088" lon="12.0841854"><ele>448.6666666666667</ele><time>2026-05-02T08:13:52.197Z</time></trkpt><trkpt lat="43.2201994" lon="12.0843743"><ele>454.0</ele><time>2026-05-02T08:13:53.181Z</time></trkpt><trkpt lat="43.220319" lon="12.0845651"><ele>454.0</ele><time>2026-05-02T08:13:54.194Z</time></trkpt><trkpt lat="43.2204324" lon="12.0847475"><ele>454.0</ele><time>2026-05-02T08:13:55.196Z</time></trkpt><trkpt lat="43.2205432" lon="12.0849121"><ele>454.0</ele><time>2026-05-02T08:13:56.2Z</time></trkpt><trkpt lat="43.2206638" lon="12.0850694"><ele>457.6666666666667</ele><time>2026-05-02T08:13:57.189Z</time></trkpt><trkpt lat="43.2207947" lon="12.0852185"><ele>461.33333333333337</ele><time>2026-05-02T08:13:58.196Z</time></trkpt><trkpt lat="43.2209265" lon="12.0853499"><ele>465.0</ele><time>2026-05-02T08:13:59.185Z</time></trkpt><trkpt lat="43.2210577" lon="12.0854654"><ele>465.0</ele><time>2026-05-02T08:14:00.183Z</time></trkpt><trkpt lat="43.2211931" lon="12.0855636"><ele>465.0</ele><time>2026-05-02T08:14:01.187Z</time></trkpt><trkpt lat="43.2213506" lon="12.0856232"><ele>465.0</ele><time>2026-05-02T08:14:02.188Z</time></trkpt><trkpt lat="43.2215085" lon="12.0856744"><ele>464.66666666666663</ele><time>2026-05-02T08:14:03.182Z</time></trkpt><trkpt lat="43.2216675" lon="12.0857405"><ele>464.3333333333333</ele><time>2026-05-02T08:14:04.174Z</time></trkpt><trkpt lat="43.2218308" lon="12.0858306"><ele>464.0</ele><time>2026-05-02T08:14:05.184Z</time></trkpt><trkpt lat="43.2219975" lon="12.0859384"><ele>464.0</ele><time>2026-05-02T08:14:06.189Z</time></trkpt><trkpt lat="43.2221696" lon="12.086043"><ele>464.0</ele><time>2026-05-02T08:14:07.188Z</time></trkpt><trkpt lat="43.2223434" lon="12.0861487"><ele>464.0</ele><time>2026-05-02T08:14:08.177Z</time></trkpt><trkpt lat="43.2225102" lon="12.0862442"><ele>471.3333333333333</ele><time>2026-05-02T08:14:09.181Z</time></trkpt><trkpt lat="43.222667" lon="12.086318"><ele>478.66666666666663</ele><time>2026-05-02T08:14:10.188Z</time></trkpt><trkpt lat="43.2228126" lon="12.0863724"><ele>486.0</ele><time>2026-05-02T08:14:11.197Z</time></trkpt><trkpt lat="43.2229447" lon="12.0864396"><ele>486.0</ele><time>2026-05-02T08:14:12.189Z</time></trkpt><trkpt lat="43.2230525" lon="12.0865409"><ele>486.0</ele><time>2026-05-02T08:14:13.178Z</time></trkpt><trkpt lat="43.2231374" lon="12.0866936"><ele>486.0</ele><time>2026-05-02T08:14:14.203Z</time></trkpt><trkpt lat="43.223218" lon="12.0868723"><ele>486.0</ele><time>2026-05-02T08:14:15.184Z</time></trkpt><trkpt lat="43.2232982" lon="12.0870693"><ele>487.33333333333337</ele><time>2026-05-02T08:14:16.185Z</time></trkpt><trkpt lat="43.223392" lon="12.0872599"><ele>488.6666666666667</ele><time>2026-05-02T08:14:17.183Z</time></trkpt><trkpt lat="43.2235062" lon="12.0874432"><ele>490.0</ele><time>2026-05-02T08:14:18.185Z</time></trkpt><trkpt lat="43.2236264" lon="12.0876242"><ele>486.0</ele><time>2026-05-02T08:14:19.192Z</time></trkpt><trkpt lat="43.2237743" lon="12.087807"><ele>482.0</ele><time>2026-05-02T08:14:20.193Z</time></trkpt><trkpt lat="43.2239175" lon="12.0880147"><ele>478.0</ele><time>2026-05-02T08:14:21.189Z</time></trkpt><trkpt lat="43.2240456" lon="12.0882144"><ele>483.33333333333337</ele><time>2026-05-02T08:14:22.178Z</time></trkpt><trkpt lat="43.2241566" lon="12.0883954"><ele>488.66666666666663</ele><time>2026-05-02T08:14:23.188Z</time></trkpt><trkpt lat="43.2242529" lon="12.0885636"><ele>494.0</ele><time>2026-05-02T08:14:24.187Z</time></trkpt><trkpt lat="43.2243395" lon="12.0887325"><ele>494.0</ele><time>2026-05-02T08:14:25.187Z</time></trkpt><trkpt lat="43.2243652" lon="12.0889016"><ele>494.0</ele><time>2026-05-02T08:14:26.208Z</time></trkpt><trkpt lat="43.2243384" lon="12.0890663"><ele>494.0</ele><time>2026-05-02T08:14:27.189Z</time></trkpt><trkpt lat="43.2242888" lon="12.0891977"><ele>494.0</ele><time>2026-05-02T08:14:28.194Z</time></trkpt><trkpt lat="43.2241945" lon="12.0892876"><ele>494.5</ele><time>2026-05-02T08:14:29.174Z</time></trkpt><trkpt lat="43.2240933" lon="12.0893808"><ele>495.0</ele><time>2026-05-02T08:14:30.181Z</time></trkpt><trkpt lat="43.2240018" lon="12.0895026"><ele>495.5</ele><time>2026-05-02T08:14:31.178Z</time></trkpt><trkpt lat="43.2239494" lon="12.0896486"><ele>496.0</ele><time>2026-05-02T08:14:32.189Z</time></trkpt><trkpt lat="43.22395" lon="12.0898008"><ele>498.5</ele><time>2026-05-02T08:14:33.177Z</time></trkpt><trkpt lat="43.223983" lon="12.089955"><ele>501.0</ele><time>2026-05-02T08:14:34.164Z</time></trkpt><trkpt lat="43.2240809" lon="12.090098"><ele>503.5</ele><time>2026-05-02T08:14:35.183Z</time></trkpt><trkpt lat="43.2241991" lon="12.0902282"><ele>506.0</ele><time>2026-05-02T08:14:36.185Z</time></trkpt><trkpt lat="43.22432" lon="12.0903324"><ele>506.0</ele><time>2026-05-02T08:14:37.185Z</time></trkpt><trkpt lat="43.22441" lon="12.0904385"><ele>506.0</ele><time>2026-05-02T08:14:38.192Z</time></trkpt><trkpt lat="43.2244466" lon="12.0905547"><ele>506.0</ele><time>2026-05-02T08:14:39.186Z</time></trkpt><trkpt lat="43.2244343" lon="12.0906792"><ele>506.0</ele><time>2026-05-02T08:14:40.187Z</time></trkpt><trkpt lat="43.22437" lon="12.0907748"><ele>506.0</ele><time>2026-05-02T08:14:41.181Z</time></trkpt><trkpt lat="43.2242684" lon="12.0908343"><ele>505.25</ele><time>2026-05-02T08:14:42.195Z</time></trkpt><trkpt lat="43.2241509" lon="12.0908893"><ele>504.5</ele><time>2026-05-02T08:14:43.175Z</time></trkpt><trkpt lat="43.2240393" lon="12.0909548"><ele>503.75</ele><time>2026-05-02T08:14:44.207Z</time></trkpt><trkpt lat="43.2239067" lon="12.09105"><ele>503.0</ele><time>2026-05-02T08:14:45.182Z</time></trkpt><trkpt lat="43.2237714" lon="12.0911849"><ele>503.0</ele><time>2026-05-02T08:14:46.189Z</time></trkpt><trkpt lat="43.2236556" lon="12.0913768"><ele>503.0</ele><time>2026-05-02T08:14:47.18Z</time></trkpt><trkpt lat="43.22357" lon="12.0915645"><ele>503.0</ele><time>2026-05-02T08:14:48.184Z</time></trkpt><trkpt lat="43.2234952" lon="12.0917664"><ele>506.0</ele><time>2026-05-02T08:14:49.167Z</time></trkpt><trkpt lat="43.2234516" lon="12.0919821"><ele>509.0</ele><time>2026-05-02T08:14:50.197Z</time></trkpt><trkpt lat="43.2234658" lon="12.0922065"><ele>512.0</ele><time>2026-05-02T08:14:51.178Z</time></trkpt><trkpt lat="43.2235237" lon="12.0924245"><ele>513.0</ele><time>2026-05-02T08:14:52.186Z</time></trkpt><trkpt lat="43.2236032" lon="12.0926492"><ele>514.0</ele><time>2026-05-02T08:14:53.206Z</time></trkpt><trkpt lat="43.2236911" lon="12.0928575"><ele>515.0</ele><time>2026-05-02T08:14:54.198Z</time></trkpt><trkpt lat="43.2237676" lon="12.0930742"><ele>514.3333333333333</ele><time>2026-05-02T08:14:55.194Z</time></trkpt><trkpt lat="43.2238407" lon="12.0932992"><ele>513.6666666666666</ele><time>2026-05-02T08:14:56.184Z</time></trkpt><trkpt lat="43.2239162" lon="12.0935315"><ele>513.0</ele><time>2026-05-02T08:14:57.199Z</time></trkpt><trkpt lat="43.2239897" lon="12.0937576"><ele>517.3333333333334</ele><time>2026-05-02T08:14:58.167Z</time></trkpt><trkpt lat="43.2240565" lon="12.0939814"><ele>521.6666666666667</ele><time>2026-05-02T08:14:59.19Z</time></trkpt><trkpt lat="43.2241258" lon="12.0941977"><ele>526.0</ele><time>2026-05-02T08:15:00.195Z</time></trkpt><trkpt lat="43.2241975" lon="12.0944115"><ele>526.0</ele><time>2026-05-02T08:15:01.172Z</time></trkpt><trkpt lat="43.2242604" lon="12.0946238"><ele>526.0</ele><time>2026-05-02T08:15:02.196Z</time></trkpt><trkpt lat="43.2243342" lon="12.0948172"><ele>526.0</ele><time>2026-05-02T08:15:03.185Z</time></trkpt><trkpt lat="43.2244276" lon="12.0950035"><ele>525.0</ele><time>2026-05-02T08:15:04.189Z</time></trkpt><trkpt lat="43.2245528" lon="12.0951506"><ele>524.0</ele><time>2026-05-02T08:15:05.185Z</time></trkpt><trkpt lat="43.2247116" lon="12.0952637"><ele>523.0</ele><time>2026-05-02T08:15:06.19Z</time></trkpt><trkpt lat="43.2248802" lon="12.0953847"><ele>529.0</ele><time>2026-05-02T08:15:07.191Z</time></trkpt><trkpt lat="43.2250554" lon="12.0954985"><ele>535.0</ele><time>2026-05-02T08:15:08.198Z</time></trkpt><trkpt lat="43.2252313" lon="12.0956125"><ele>541.0</ele><time>2026-05-02T08:15:09.194Z</time></trkpt><trkpt lat="43.2254126" lon="12.0957166"><ele>541.3333333333334</ele><time>2026-05-02T08:15:10.201Z</time></trkpt><trkpt lat="43.225598" lon="12.0958183"><ele>541.6666666666666</ele><time>2026-05-02T08:15:11.18Z</time></trkpt><trkpt lat="43.2257851" lon="12.0959146"><ele>542.0</ele><time>2026-05-02T08:15:12.209Z</time></trkpt><trkpt lat="43.2259673" lon="12.0960105"><ele>542.0</ele><time>2026-05-02T08:15:13.191Z</time></trkpt><trkpt lat="43.2261367" lon="12.096106"><ele>542.0</ele><time>2026-05-02T08:15:14.206Z</time></trkpt><trkpt lat="43.2263022" lon="12.0961952"><ele>542.0</ele><time>2026-05-02T08:15:15.19Z</time></trkpt><trkpt lat="43.2264699" lon="12.0962495"><ele>544.0</ele><time>2026-05-02T08:15:16.205Z</time></trkpt><trkpt lat="43.2266433" lon="12.0962512"><ele>546.0</ele><time>2026-05-02T08:15:17.21Z</time></trkpt><trkpt lat="43.2268328" lon="12.0962173"><ele>548.0</ele><time>2026-05-02T08:15:18.187Z</time></trkpt><trkpt lat="43.2270213" lon="12.0961654"><ele>548.0</ele><time>2026-05-02T08:15:19.195Z</time></trkpt><trkpt lat="43.2272074" lon="12.096118"><ele>548.0</ele><time>2026-05-02T08:15:20.192Z</time></trkpt><trkpt lat="43.2273949" lon="12.0960753"><ele>548.0</ele><time>2026-05-02T08:15:21.199Z</time></trkpt><trkpt lat="43.2275781" lon="12.0960373"><ele>549.6666666666666</ele><time>2026-05-02T08:15:22.193Z</time></trkpt><trkpt lat="43.2277584" lon="12.096011"><ele>551.3333333333334</ele><time>2026-05-02T08:15:23.187Z</time></trkpt><trkpt lat="43.2279378" lon="12.0959976"><ele>553.0</ele><time>2026-05-02T08:15:24.192Z</time></trkpt><trkpt lat="43.2281149" lon="12.0960074"><ele>556.6666666666667</ele><time>2026-05-02T08:15:25.206Z</time></trkpt><trkpt lat="43.2282935" lon="12.096046"><ele>560.3333333333334</ele><time>2026-05-02T08:15:26.195Z</time></trkpt><trkpt lat="43.2284813" lon="12.0960831"><ele>564.0</ele><time>2026-05-02T08:15:27.197Z</time></trkpt><trkpt lat="43.2286646" lon="12.0961224"><ele>564.0</ele><time>2026-05-02T08:15:28.192Z</time></trkpt><trkpt lat="43.2288398" lon="12.0961716"><ele>564.0</ele><time>2026-05-02T08:15:29.191Z</time></trkpt><trkpt lat="43.22901" lon="12.0962519"><ele>564.0</ele><time>2026-05-02T08:15:30.193Z</time></trkpt><trkpt lat="43.2291712" lon="12.096355"><ele>562.0</ele><time>2026-05-02T08:15:31.197Z</time></trkpt><trkpt lat="43.2293336" lon="12.0964544"><ele>560.0</ele><time>2026-05-02T08:15:32.182Z</time></trkpt><trkpt lat="43.2294934" lon="12.0965456"><ele>558.0</ele><time>2026-05-02T08:15:33.191Z</time></trkpt><trkpt lat="43.2296621" lon="12.0966195"><ele>560.6666666666666</ele><time>2026-05-02T08:15:34.191Z</time></trkpt><trkpt lat="43.2298433" lon="12.0966571"><ele>563.3333333333333</ele><time>2026-05-02T08:15:35.186Z</time></trkpt><trkpt lat="43.2300331" lon="12.0966596"><ele>566.0</ele><time>2026-05-02T08:15:36.193Z</time></trkpt><trkpt lat="43.2302182" lon="12.0966494"><ele>566.0</ele><time>2026-05-02T08:15:37.183Z</time></trkpt><trkpt lat="43.2303788" lon="12.0966529"><ele>566.0</ele><time>2026-05-02T08:15:38.194Z</time></trkpt><trkpt lat="43.2305152" lon="12.0966808"><ele>566.0</ele><time>2026-05-02T08:15:39.194Z</time></trkpt><trkpt lat="43.2306317" lon="12.0967292"><ele>566.0</ele><time>2026-05-02T08:15:40.188Z</time></trkpt><trkpt lat="43.2307182" lon="12.0968087"><ele>567.75</ele><time>2026-05-02T08:15:41.184Z</time></trkpt><trkpt lat="43.2307733" lon="12.0969466"><ele>569.5</ele><time>2026-05-02T08:15:42.194Z</time></trkpt><trkpt lat="43.2307802" lon="12.0971258"><ele>571.25</ele><time>2026-05-02T08:15:43.186Z</time></trkpt><trkpt lat="43.2307634" lon="12.0973134"><ele>573.0</ele><time>2026-05-02T08:15:44.184Z</time></trkpt><trkpt lat="43.2307443" lon="12.0975277"><ele>573.0</ele><time>2026-05-02T08:15:45.179Z</time></trkpt><trkpt lat="43.2307143" lon="12.0977543"><ele>573.0</ele><time>2026-05-02T08:15:46.185Z</time></trkpt><trkpt lat="43.2306851" lon="12.0979782"><ele>573.0</ele><time>2026-05-02T08:15:47.187Z</time></trkpt><trkpt lat="43.2306712" lon="12.0981733"><ele>572.5</ele><time>2026-05-02T08:15:48.189Z</time></trkpt><trkpt lat="43.2306906" lon="12.0983399"><ele>572.0</ele><time>2026-05-02T08:15:49.197Z</time></trkpt><trkpt lat="43.2307455" lon="12.0984945"><ele>571.5</ele><time>2026-05-02T08:15:50.19Z</time></trkpt><trkpt lat="43.2308412" lon="12.0986199"><ele>571.0</ele><time>2026-05-02T08:15:51.198Z</time></trkpt><trkpt lat="43.2309778" lon="12.0986998"><ele>571.0</ele><time>2026-05-02T08:15:52.195Z</time></trkpt><trkpt lat="43.2311404" lon="12.0987192"><ele>571.0</ele><time>2026-05-02T08:15:53.194Z</time></trkpt><trkpt lat="43.231292" lon="12.0987164"><ele>571.0</ele><time>2026-05-02T08:15:54.194Z</time></trkpt><trkpt lat="43.2314397" lon="12.0986942"><ele>573.25</ele><time>2026-05-02T08:15:55.187Z</time></trkpt><trkpt lat="43.2315697" lon="12.0987251"><ele>575.5</ele><time>2026-05-02T08:15:56.194Z</time></trkpt><trkpt lat="43.2316708" lon="12.098795"><ele>577.75</ele><time>2026-05-02T08:15:57.204Z</time></trkpt><trkpt lat="43.2317448" lon="12.0989186"><ele>580.0</ele><time>2026-05-02T08:15:58.189Z</time></trkpt><trkpt lat="43.2317596" lon="12.0990711"><ele>578.75</ele><time>2026-05-02T08:15:59.178Z</time></trkpt><trkpt lat="43.2317162" lon="12.0992077"><ele>577.5</ele><time>2026-05-02T08:16:00.172Z</time></trkpt><trkpt lat="43.2316279" lon="12.0993253"><ele>576.25</ele><time>2026-05-02T08:16:01.182Z</time></trkpt><trkpt lat="43.2315051" lon="12.09942"><ele>575.0</ele><time>2026-05-02T08:16:02.188Z</time></trkpt><trkpt lat="43.2313918" lon="12.0995113"><ele>573.25</ele><time>2026-05-02T08:16:03.18Z</time></trkpt><trkpt lat="43.2312908" lon="12.0996077"><ele>571.5</ele><time>2026-05-02T08:16:04.173Z</time></trkpt><trkpt lat="43.2312014" lon="12.0997155"><ele>569.75</ele><time>2026-05-02T08:16:05.188Z</time></trkpt><trkpt lat="43.231149" lon="12.0998537"><ele>568.0</ele><time>2026-05-02T08:16:06.184Z</time></trkpt><trkpt lat="43.2311313" lon="12.1000215"><ele>567.75</ele><time>2026-05-02T08:16:07.171Z</time></trkpt><trkpt lat="43.2311628" lon="12.1001961"><ele>567.5</ele><time>2026-05-02T08:16:08.212Z</time></trkpt><trkpt lat="43.2312659" lon="12.1003241"><ele>567.25</ele><time>2026-05-02T08:16:09.191Z</time></trkpt><trkpt lat="43.2313869" lon="12.1004324"><ele>567.0</ele><time>2026-05-02T08:16:10.183Z</time></trkpt><trkpt lat="43.2315343" lon="12.1005421"><ele>569.6666666666666</ele><time>2026-05-02T08:16:11.2Z</time></trkpt><trkpt lat="43.2316923" lon="12.1006752"><ele>572.3333333333333</ele><time>2026-05-02T08:16:12.192Z</time></trkpt><trkpt lat="43.2318399" lon="12.1008179"><ele>575.0</ele><time>2026-05-02T08:16:13.198Z</time></trkpt><trkpt lat="43.2319761" lon="12.1009461"><ele>575.0</ele><time>2026-05-02T08:16:14.188Z</time></trkpt><trkpt lat="43.2320923" lon="12.1010756"><ele>575.0</ele><time>2026-05-02T08:16:15.187Z</time></trkpt><trkpt lat="43.2321904" lon="12.1012326"><ele>575.0</ele><time>2026-05-02T08:16:16.2Z</time></trkpt><trkpt lat="43.2322528" lon="12.1014291"><ele>576.25</ele><time>2026-05-02T08:16:17.198Z</time></trkpt><trkpt lat="43.2322918" lon="12.1016227"><ele>577.5</ele><time>2026-05-02T08:16:18.175Z</time></trkpt><trkpt lat="43.2323125" lon="12.1018148"><ele>578.75</ele><time>2026-05-02T08:16:19.181Z</time></trkpt><trkpt lat="43.232302" lon="12.1019775"><ele>580.0</ele><time>2026-05-02T08:16:20.201Z</time></trkpt><trkpt lat="43.2322875" lon="12.102079"><ele>580.0</ele><time>2026-05-02T08:16:21.213Z</time></trkpt><trkpt lat="43.2322719" lon="12.1022111"><ele>580.0</ele><time>2026-05-02T08:16:23.202Z</time></trkpt><trkpt lat="43.2322771" lon="12.1023281"><ele>580.0</ele><time>2026-05-02T08:16:25.203Z</time></trkpt><trkpt lat="43.2323395" lon="12.1024318"><ele>580.0</ele><time>2026-05-02T08:16:28.196Z</time></trkpt><trkpt lat="43.232424" lon="12.1025411"><ele>580.0</ele><time>2026-05-02T08:16:30.188Z</time></trkpt><trkpt lat="43.2324771" lon="12.102627"><ele>583.0</ele><time>2026-05-02T08:16:31.191Z</time></trkpt><trkpt lat="43.2325723" lon="12.1027256"><ele>586.0</ele><time>2026-05-02T08:16:32.184Z</time></trkpt><trkpt lat="43.2326857" lon="12.1027985"><ele>589.0</ele><time>2026-05-02T08:16:33.201Z</time></trkpt><trkpt lat="43.2328145" lon="12.1028523"><ele>592.0</ele><time>2026-05-02T08:16:34.208Z</time></trkpt><trkpt lat="43.2329772" lon="12.1029325"><ele>592.0</ele><time>2026-05-02T08:16:35.182Z</time></trkpt><trkpt lat="43.2331331" lon="12.1029981"><ele>592.0</ele><time>2026-05-02T08:16:36.195Z</time></trkpt><trkpt lat="43.2332705" lon="12.1030667"><ele>592.0</ele><time>2026-05-02T08:16:37.192Z</time></trkpt><trkpt lat="43.2333965" lon="12.1031436"><ele>592.0</ele><time>2026-05-02T08:16:38.17Z</time></trkpt><trkpt lat="43.233476" lon="12.1032621"><ele>593.5</ele><time>2026-05-02T08:16:39.198Z</time></trkpt><trkpt lat="43.2335427" lon="12.1034443"><ele>595.0</ele><time>2026-05-02T08:16:40.196Z</time></trkpt><trkpt lat="43.2335823" lon="12.1036382"><ele>596.5</ele><time>2026-05-02T08:16:41.195Z</time></trkpt><trkpt lat="43.2335844" lon="12.103839"><ele>598.0</ele><time>2026-05-02T08:16:42.194Z</time></trkpt><trkpt lat="43.2335717" lon="12.1040411"><ele>597.6666666666667</ele><time>2026-05-02T08:16:43.188Z</time></trkpt><trkpt lat="43.2335801" lon="12.1042441"><ele>597.3333333333334</ele><time>2026-05-02T08:16:44.185Z</time></trkpt><trkpt lat="43.2336322" lon="12.1044467"><ele>597.0</ele><time>2026-05-02T08:16:45.211Z</time></trkpt><trkpt lat="43.2337176" lon="12.1046275"><ele>597.0</ele><time>2026-05-02T08:16:46.185Z</time></trkpt><trkpt lat="43.2338421" lon="12.1047625"><ele>597.0</ele><time>2026-05-02T08:16:47.173Z</time></trkpt><trkpt lat="43.2339825" lon="12.10485"><ele>597.0</ele><time>2026-05-02T08:16:48.189Z</time></trkpt><trkpt lat="43.2341214" lon="12.1049181"><ele>599.0</ele><time>2026-05-02T08:16:49.181Z</time></trkpt><trkpt lat="43.2342786" lon="12.1049903"><ele>601.0</ele><time>2026-05-02T08:16:50.189Z</time></trkpt><trkpt lat="43.2344129" lon="12.1050869"><ele>603.0</ele><time>2026-05-02T08:16:51.195Z</time></trkpt><trkpt lat="43.2345042" lon="12.1052222"><ele>603.0</ele><time>2026-05-02T08:16:52.19Z</time></trkpt><trkpt lat="43.2345529" lon="12.1054166"><ele>603.0</ele><time>2026-05-02T08:16:53.195Z</time></trkpt><trkpt lat="43.2345401" lon="12.1056242"><ele>603.0</ele><time>2026-05-02T08:16:54.19Z</time></trkpt><trkpt lat="43.2344963" lon="12.1058086"><ele>603.0</ele><time>2026-05-02T08:16:55.194Z</time></trkpt><trkpt lat="43.2344661" lon="12.1059359"><ele>601.8</ele><time>2026-05-02T08:16:56.215Z</time></trkpt><trkpt lat="43.2344335" lon="12.1060136"><ele>600.5999999999999</ele><time>2026-05-02T08:16:57.167Z</time></trkpt><trkpt lat="43.2344178" lon="12.1061461"><ele>599.4000000000001</ele><time>2026-05-02T08:20:00.182Z</time></trkpt><trkpt lat="43.2344091" lon="12.1063011"><ele>598.2</ele><time>2026-05-02T08:20:02.187Z</time></trkpt><trkpt lat="43.2344126" lon="12.1064492"><ele>597.0</ele><time>2026-05-02T08:20:04.175Z</time></trkpt><trkpt lat="43.2344492" lon="12.1065831"><ele>597.0</ele><time>2026-05-02T08:20:06.181Z</time></trkpt><trkpt lat="43.2345223" lon="12.1067209"><ele>597.0</ele><time>2026-05-02T08:20:08.182Z</time></trkpt><trkpt lat="43.2346246" lon="12.1068456"><ele>597.0</ele><time>2026-05-02T08:20:10.205Z</time></trkpt><trkpt lat="43.2347087" lon="12.1068891"><ele>597.0</ele><time>2026-05-02T08:20:11.192Z</time></trkpt><trkpt lat="43.2348" lon="12.1069267"><ele>597.0</ele><time>2026-05-02T08:20:12.186Z</time></trkpt><trkpt lat="43.2348802" lon="12.1069703"><ele>598.6</ele><time>2026-05-02T08:20:13.187Z</time></trkpt><trkpt lat="43.2349534" lon="12.107026"><ele>600.2</ele><time>2026-05-02T08:20:14.192Z</time></trkpt><trkpt lat="43.2350142" lon="12.1071176"><ele>601.8</ele><time>2026-05-02T08:20:15.202Z</time></trkpt><trkpt lat="43.2350712" lon="12.1072612"><ele>603.4</ele><time>2026-05-02T08:20:16.18Z</time></trkpt><trkpt lat="43.2350887" lon="12.1074368"><ele>605.0</ele><time>2026-05-02T08:20:17.186Z</time></trkpt><trkpt lat="43.2350827" lon="12.107625"><ele>605.0</ele><time>2026-05-02T08:20:18.177Z</time></trkpt><trkpt lat="43.2350635" lon="12.1078134"><ele>605.0</ele><time>2026-05-02T08:20:19.199Z</time></trkpt><trkpt lat="43.2350314" lon="12.1079987"><ele>605.0</ele><time>2026-05-02T08:20:20.194Z</time></trkpt><trkpt lat="43.2349787" lon="12.1081427"><ele>605.0</ele><time>2026-05-02T08:20:21.189Z</time></trkpt><trkpt lat="43.2349348" lon="12.1082844"><ele>604.8</ele><time>2026-05-02T08:20:22.201Z</time></trkpt><trkpt lat="43.234935" lon="12.1084163"><ele>604.6</ele><time>2026-05-02T08:20:23.201Z</time></trkpt><trkpt lat="43.2349778" lon="12.1085349"><ele>604.4</ele><time>2026-05-02T08:20:24.185Z</time></trkpt><trkpt lat="43.2350526" lon="12.1086355"><ele>604.2</ele><time>2026-05-02T08:20:25.201Z</time></trkpt><trkpt lat="43.235164" lon="12.1086769"><ele>604.0</ele><time>2026-05-02T08:20:26.183Z</time></trkpt><trkpt lat="43.2352742" lon="12.1086519"><ele>604.0</ele><time>2026-05-02T08:20:27.205Z</time></trkpt><trkpt lat="43.2353573" lon="12.1085768"><ele>604.0</ele><time>2026-05-02T08:20:28.182Z</time></trkpt><trkpt lat="43.2354318" lon="12.1084518"><ele>604.0</ele><time>2026-05-02T08:20:29.177Z</time></trkpt><trkpt lat="43.2354923" lon="12.1082946"><ele>604.0</ele><time>2026-05-02T08:20:30.183Z</time></trkpt><trkpt lat="43.23557" lon="12.1081061"><ele>600.6666666666667</ele><time>2026-05-02T08:20:31.202Z</time></trkpt><trkpt lat="43.2356672" lon="12.1079095"><ele>597.3333333333334</ele><time>2026-05-02T08:20:32.196Z</time></trkpt><trkpt lat="43.2357971" lon="12.1077245"><ele>594.0</ele><time>2026-05-02T08:20:33.199Z</time></trkpt><trkpt lat="43.2359264" lon="12.1075362"><ele>594.3333333333334</ele><time>2026-05-02T08:20:34.171Z</time></trkpt><trkpt lat="43.2360522" lon="12.107342"><ele>594.6666666666667</ele><time>2026-05-02T08:20:35.19Z</time></trkpt><trkpt lat="43.2361783" lon="12.1071447"><ele>595.0</ele><time>2026-05-02T08:20:36.201Z</time></trkpt><trkpt lat="43.2362967" lon="12.1069523"><ele>595.0</ele><time>2026-05-02T08:20:37.199Z</time></trkpt><trkpt lat="43.236416" lon="12.1067738"><ele>595.0</ele><time>2026-05-02T08:20:38.199Z</time></trkpt><trkpt lat="43.236517" lon="12.1065911"><ele>595.0</ele><time>2026-05-02T08:20:39.205Z</time></trkpt><trkpt lat="43.2366243" lon="12.1064054"><ele>592.6666666666667</ele><time>2026-05-02T08:20:40.174Z</time></trkpt><trkpt lat="43.236722" lon="12.1062306"><ele>590.3333333333334</ele><time>2026-05-02T08:20:41.192Z</time></trkpt><trkpt lat="43.236838" lon="12.1060812"><ele>588.0</ele><time>2026-05-02T08:20:42.207Z</time></trkpt><trkpt lat="43.2369608" lon="12.1059942"><ele>588.0</ele><time>2026-05-02T08:20:43.195Z</time></trkpt><trkpt lat="43.2371063" lon="12.1059455"><ele>588.0</ele><time>2026-05-02T08:20:44.202Z</time></trkpt><trkpt lat="43.2372526" lon="12.1059271"><ele>588.0</ele><time>2026-05-02T08:20:45.2Z</time></trkpt><trkpt lat="43.2373939" lon="12.1058878"><ele>588.0</ele><time>2026-05-02T08:20:46.185Z</time></trkpt><trkpt lat="43.2375218" lon="12.1058002"><ele>588.0</ele><time>2026-05-02T08:20:47.185Z</time></trkpt><trkpt lat="43.2376617" lon="12.1056968"><ele>588.0</ele><time>2026-05-02T08:20:48.177Z</time></trkpt><trkpt lat="43.2378136" lon="12.1056005"><ele>588.0</ele><time>2026-05-02T08:20:49.184Z</time></trkpt><trkpt lat="43.2379814" lon="12.1055305"><ele>583.0</ele><time>2026-05-02T08:20:50.19Z</time></trkpt><trkpt lat="43.2381633" lon="12.1054876"><ele>578.0</ele><time>2026-05-02T08:20:51.206Z</time></trkpt><trkpt lat="43.2383363" lon="12.1054625"><ele>573.0</ele><time>2026-05-02T08:20:52.214Z</time></trkpt><trkpt lat="43.2385153" lon="12.1054476"><ele>573.0</ele><time>2026-05-02T08:20:53.184Z</time></trkpt><trkpt lat="43.2386965" lon="12.1054348"><ele>573.0</ele><time>2026-05-02T08:20:54.186Z</time></trkpt><trkpt lat="43.2388717" lon="12.1054271"><ele>573.0</ele><time>2026-05-02T08:20:55.196Z</time></trkpt><trkpt lat="43.2390448" lon="12.1054317"><ele>570.3333333333334</ele><time>2026-05-02T08:20:56.154Z</time></trkpt><trkpt lat="43.2392117" lon="12.1054425"><ele>567.6666666666667</ele><time>2026-05-02T08:20:57.187Z</time></trkpt><trkpt lat="43.2393766" lon="12.1054619"><ele>565.0</ele><time>2026-05-02T08:20:58.194Z</time></trkpt><trkpt lat="43.2395336" lon="12.1054844"><ele>565.0</ele><time>2026-05-02T08:20:59.21Z</time></trkpt><trkpt lat="43.2396956" lon="12.105507"><ele>565.0</ele><time>2026-05-02T08:21:00.173Z</time></trkpt><trkpt lat="43.2398544" lon="12.1055258"><ele>565.0</ele><time>2026-05-02T08:21:01.188Z</time></trkpt><trkpt lat="43.2400069" lon="12.1055313"><ele>562.6666666666667</ele><time>2026-05-02T08:21:02.187Z</time></trkpt><trkpt lat="43.2401591" lon="12.1055098"><ele>560.3333333333334</ele><time>2026-05-02T08:21:03.191Z</time></trkpt><trkpt lat="43.2403213" lon="12.1054616"><ele>558.0</ele><time>2026-05-02T08:21:04.196Z</time></trkpt><trkpt lat="43.2404738" lon="12.1053689"><ele>558.0</ele><time>2026-05-02T08:21:05.191Z</time></trkpt><trkpt lat="43.2406212" lon="12.1052834"><ele>558.0</ele><time>2026-05-02T08:21:06.187Z</time></trkpt><trkpt lat="43.2407691" lon="12.1052685"><ele>558.0</ele><time>2026-05-02T08:21:07.202Z</time></trkpt><trkpt lat="43.24092" lon="12.1053068"><ele>556.25</ele><time>2026-05-02T08:21:08.182Z</time></trkpt><trkpt lat="43.2410735" lon="12.1053285"><ele>554.5</ele><time>2026-05-02T08:21:09.188Z</time></trkpt><trkpt lat="43.2412082" lon="12.1052865"><ele>552.75</ele><time>2026-05-02T08:21:10.2Z</time></trkpt><trkpt lat="43.2413245" lon="12.1051943"><ele>551.0</ele><time>2026-05-02T08:21:11.183Z</time></trkpt><trkpt lat="43.2414249" lon="12.1050788"><ele>551.25</ele><time>2026-05-02T08:21:12.193Z</time></trkpt><trkpt lat="43.2415228" lon="12.1049764"><ele>551.5</ele><time>2026-05-02T08:21:13.183Z</time></trkpt><trkpt lat="43.2416229" lon="12.1048855"><ele>551.75</ele><time>2026-05-02T08:21:14.204Z</time></trkpt><trkpt lat="43.2417363" lon="12.1048343"><ele>552.0</ele><time>2026-05-02T08:21:15.209Z</time></trkpt><trkpt lat="43.2418602" lon="12.1048642"><ele>552.0</ele><time>2026-05-02T08:21:16.176Z</time></trkpt><trkpt lat="43.2419669" lon="12.1049873"><ele>552.0</ele><time>2026-05-02T08:21:17.21Z</time></trkpt><trkpt lat="43.2420747" lon="12.1051358"><ele>552.0</ele><time>2026-05-02T08:21:18.208Z</time></trkpt><trkpt lat="43.2421803" lon="12.1052824"><ele>552.0</ele><time>2026-05-02T08:21:19.2Z</time></trkpt><trkpt lat="43.2422838" lon="12.1054311"><ele>551.3333333333334</ele><time>2026-05-02T08:21:20.209Z</time></trkpt><trkpt lat="43.2423921" lon="12.1056065"><ele>550.6666666666667</ele><time>2026-05-02T08:21:21.18Z</time></trkpt><trkpt lat="43.242496" lon="12.1057863"><ele>550.0</ele><time>2026-05-02T08:21:22.195Z</time></trkpt><trkpt lat="43.2425853" lon="12.1059755"><ele>550.0</ele><time>2026-05-02T08:21:23.2Z</time></trkpt><trkpt lat="43.242651" lon="12.1061817"><ele>550.0</ele><time>2026-05-02T08:21:24.202Z</time></trkpt><trkpt lat="43.2427255" lon="12.1063957"><ele>550.0</ele><time>2026-05-02T08:21:25.196Z</time></trkpt><trkpt lat="43.2428161" lon="12.1065993"><ele>555.3333333333334</ele><time>2026-05-02T08:21:26.184Z</time></trkpt><trkpt lat="43.2429178" lon="12.1068032"><ele>560.6666666666666</ele><time>2026-05-02T08:21:27.176Z</time></trkpt><trkpt lat="43.2430132" lon="12.1070084"><ele>566.0</ele><time>2026-05-02T08:21:28.196Z</time></trkpt><trkpt lat="43.2431127" lon="12.1072124"><ele>559.3333333333333</ele><time>2026-05-02T08:21:29.184Z</time></trkpt><trkpt lat="43.2432112" lon="12.1074153"><ele>552.6666666666666</ele><time>2026-05-02T08:21:30.198Z</time></trkpt><trkpt lat="43.2433175" lon="12.1076142"><ele>546.0</ele><time>2026-05-02T08:21:31.169Z</time></trkpt><trkpt lat="43.2434279" lon="12.107818"><ele>546.0</ele><time>2026-05-02T08:21:32.18Z</time></trkpt><trkpt lat="43.2435411" lon="12.108018"><ele>546.0</ele><time>2026-05-02T08:21:33.201Z</time></trkpt><trkpt lat="43.2436598" lon="12.10821"><ele>546.0</ele><time>2026-05-02T08:21:34.197Z</time></trkpt><trkpt lat="43.2437891" lon="12.1083895"><ele>538.6666666666666</ele><time>2026-05-02T08:21:35.196Z</time></trkpt><trkpt lat="43.2439209" lon="12.1085551"><ele>531.3333333333333</ele><time>2026-05-02T08:21:36.196Z</time></trkpt><trkpt lat="43.244051" lon="12.1087108"><ele>524.0</ele><time>2026-05-02T08:21:37.191Z</time></trkpt><trkpt lat="43.2441636" lon="12.1088556"><ele>524.0</ele><time>2026-05-02T08:21:38.204Z</time></trkpt><trkpt lat="43.2442532" lon="12.1089917"><ele>524.0</ele><time>2026-05-02T08:21:39.189Z</time></trkpt><trkpt lat="43.2443181" lon="12.10914"><ele>524.0</ele><time>2026-05-02T08:21:40.198Z</time></trkpt><trkpt lat="43.2443573" lon="12.1092986"><ele>524.0</ele><time>2026-05-02T08:21:41.198Z</time></trkpt><trkpt lat="43.2443682" lon="12.109469"><ele>528.6</ele><time>2026-05-02T08:21:42.186Z</time></trkpt><trkpt lat="43.2443668" lon="12.1096282"><ele>533.2</ele><time>2026-05-02T08:21:43.192Z</time></trkpt><trkpt lat="43.2443705" lon="12.1097704"><ele>537.8000000000001</ele><time>2026-05-02T08:21:44.202Z</time></trkpt><trkpt lat="43.2444146" lon="12.1098955"><ele>542.4</ele><time>2026-05-02T08:21:45.187Z</time></trkpt><trkpt lat="43.2445226" lon="12.1099474"><ele>547.0</ele><time>2026-05-02T08:21:46.206Z</time></trkpt><trkpt lat="43.2446433" lon="12.1099402"><ele>547.0</ele><time>2026-05-02T08:21:47.187Z</time></trkpt><trkpt lat="43.2447723" lon="12.1098885"><ele>547.0</ele><time>2026-05-02T08:21:48.189Z</time></trkpt><trkpt lat="43.2448813" lon="12.1098629"><ele>547.0</ele><time>2026-05-02T08:21:49.192Z</time></trkpt><trkpt lat="43.2449819" lon="12.1099003"><ele>547.0</ele><time>2026-05-02T08:21:50.2Z</time></trkpt><trkpt lat="43.2450673" lon="12.1100103"><ele>543.25</ele><time>2026-05-02T08:21:51.188Z</time></trkpt><trkpt lat="43.2451555" lon="12.1101331"><ele>539.5</ele><time>2026-05-02T08:21:52.181Z</time></trkpt><trkpt lat="43.2452144" lon="12.1102617"><ele>535.75</ele><time>2026-05-02T08:21:53.188Z</time></trkpt><trkpt lat="43.2453075" lon="12.1103561"><ele>532.0</ele><time>2026-05-02T08:21:54.194Z</time></trkpt><trkpt lat="43.2454221" lon="12.110377"><ele>532.0</ele><time>2026-05-02T08:21:55.192Z</time></trkpt><trkpt lat="43.2455403" lon="12.1103276"><ele>532.0</ele><time>2026-05-02T08:21:56.156Z</time></trkpt><trkpt lat="43.2456619" lon="12.1102517"><ele>532.0</ele><time>2026-05-02T08:21:57.191Z</time></trkpt><trkpt lat="43.2457748" lon="12.110186"><ele>532.0</ele><time>2026-05-02T08:21:58.199Z</time></trkpt><trkpt lat="43.2458906" lon="12.1101323"><ele>529.5</ele><time>2026-05-02T08:21:59.171Z</time></trkpt><trkpt lat="43.2460175" lon="12.1101251"><ele>527.0</ele><time>2026-05-02T08:22:00.204Z</time></trkpt><trkpt lat="43.2461292" lon="12.1101841"><ele>524.5</ele><time>2026-05-02T08:22:01.186Z</time></trkpt><trkpt lat="43.24625" lon="12.110261"><ele>522.0</ele><time>2026-05-02T08:22:02.199Z</time></trkpt><trkpt lat="43.2463697" lon="12.1103825"><ele>523.0</ele><time>2026-05-02T08:22:03.194Z</time></trkpt><trkpt lat="43.2464857" lon="12.1105044"><ele>524.0</ele><time>2026-05-02T08:22:04.196Z</time></trkpt><trkpt lat="43.2466082" lon="12.1106022"><ele>525.0</ele><time>2026-05-02T08:22:05.189Z</time></trkpt><trkpt lat="43.2467375" lon="12.1106677"><ele>526.0</ele><time>2026-05-02T08:22:06.197Z</time></trkpt><trkpt lat="43.2468694" lon="12.1107422"><ele>526.0</ele><time>2026-05-02T08:22:07.203Z</time></trkpt><trkpt lat="43.2469838" lon="12.1108263"><ele>526.0</ele><time>2026-05-02T08:22:08.195Z</time></trkpt><trkpt lat="43.2470901" lon="12.1109186"><ele>526.0</ele><time>2026-05-02T08:22:09.201Z</time></trkpt><trkpt lat="43.2471948" lon="12.1110254"><ele>526.0</ele><time>2026-05-02T08:22:10.196Z</time></trkpt><trkpt lat="43.2472977" lon="12.1111628"><ele>525.0</ele><time>2026-05-02T08:22:11.195Z</time></trkpt><trkpt lat="43.2473945" lon="12.1113016"><ele>524.0</ele><time>2026-05-02T08:22:12.193Z</time></trkpt><trkpt lat="43.2474893" lon="12.1114258"><ele>523.0</ele><time>2026-05-02T08:22:13.193Z</time></trkpt><trkpt lat="43.2475854" lon="12.1115369"><ele>522.0</ele><time>2026-05-02T08:22:14.203Z</time></trkpt><trkpt lat="43.2476982" lon="12.1116472"><ele>522.0</ele><time>2026-05-02T08:22:15.203Z</time></trkpt><trkpt lat="43.2478045" lon="12.1117663"><ele>522.0</ele><time>2026-05-02T08:22:16.199Z</time></trkpt><trkpt lat="43.2479025" lon="12.1119097"><ele>522.0</ele><time>2026-05-02T08:22:17.204Z</time></trkpt><trkpt lat="43.2479809" lon="12.1120703"><ele>522.0</ele><time>2026-05-02T08:22:18.191Z</time></trkpt><trkpt lat="43.2480646" lon="12.1122283"><ele>518.75</ele><time>2026-05-02T08:22:19.2Z</time></trkpt><trkpt lat="43.2481472" lon="12.1123692"><ele>515.5</ele><time>2026-05-02T08:22:20.199Z</time></trkpt><trkpt lat="43.2482539" lon="12.1124628"><ele>512.25</ele><time>2026-05-02T08:22:21.17Z</time></trkpt><trkpt lat="43.2483717" lon="12.1125532"><ele>509.0</ele><time>2026-05-02T08:22:22.18Z</time></trkpt><trkpt lat="43.2484904" lon="12.1126436"><ele>509.0</ele><time>2026-05-02T08:22:23.189Z</time></trkpt><trkpt lat="43.2486119" lon="12.1127659"><ele>509.0</ele><time>2026-05-02T08:22:24.191Z</time></trkpt><trkpt lat="43.2487083" lon="12.112908"><ele>509.0</ele><time>2026-05-02T08:22:25.194Z</time></trkpt><trkpt lat="43.2487733" lon="12.1130619"><ele>509.0</ele><time>2026-05-02T08:22:26.181Z</time></trkpt><trkpt lat="43.2488395" lon="12.113224"><ele>512.25</ele><time>2026-05-02T08:22:27.195Z</time></trkpt><trkpt lat="43.2488847" lon="12.1134125"><ele>515.5</ele><time>2026-05-02T08:22:28.202Z</time></trkpt><trkpt lat="43.248902" lon="12.1136082"><ele>518.75</ele><time>2026-05-02T08:22:29.177Z</time></trkpt><trkpt lat="43.2489188" lon="12.1137923"><ele>522.0</ele><time>2026-05-02T08:22:30.189Z</time></trkpt><trkpt lat="43.2489322" lon="12.1139738"><ele>523.5</ele><time>2026-05-02T08:22:31.186Z</time></trkpt><trkpt lat="43.2489509" lon="12.1141505"><ele>525.0</ele><time>2026-05-02T08:22:32.21Z</time></trkpt><trkpt lat="43.2489652" lon="12.1143346"><ele>526.5</ele><time>2026-05-02T08:22:33.211Z</time></trkpt><trkpt lat="43.2489683" lon="12.1145159"><ele>528.0</ele><time>2026-05-02T08:22:34.194Z</time></trkpt><trkpt lat="43.2489588" lon="12.1146832"><ele>528.0</ele><time>2026-05-02T08:22:35.191Z</time></trkpt><trkpt lat="43.2489021" lon="12.1148309"><ele>528.0</ele><time>2026-05-02T08:22:36.184Z</time></trkpt><trkpt lat="43.2488084" lon="12.1149649"><ele>528.0</ele><time>2026-05-02T08:22:37.203Z</time></trkpt><trkpt lat="43.2487006" lon="12.1151107"><ele>528.0</ele><time>2026-05-02T08:22:38.196Z</time></trkpt><trkpt lat="43.2486021" lon="12.1152707"><ele>522.6666666666666</ele><time>2026-05-02T08:22:39.194Z</time></trkpt><trkpt lat="43.2484953" lon="12.1154328"><ele>517.3333333333333</ele><time>2026-05-02T08:22:40.19Z</time></trkpt><trkpt lat="43.2484084" lon="12.1156036"><ele>512.0</ele><time>2026-05-02T08:22:41.2Z</time></trkpt><trkpt lat="43.2483428" lon="12.1157838"><ele>507.25</ele><time>2026-05-02T08:22:42.2Z</time></trkpt><trkpt lat="43.2482855" lon="12.1159743"><ele>502.5</ele><time>2026-05-02T08:22:43.192Z</time></trkpt><trkpt lat="43.2482436" lon="12.1161615"><ele>497.75</ele><time>2026-05-02T08:22:44.201Z</time></trkpt><trkpt lat="43.2482183" lon="12.1163572"><ele>493.0</ele><time>2026-05-02T08:22:45.194Z</time></trkpt><trkpt lat="43.2481989" lon="12.1165567"><ele>489.75</ele><time>2026-05-02T08:22:46.191Z</time></trkpt><trkpt lat="43.2481759" lon="12.1167361"><ele>486.5</ele><time>2026-05-02T08:22:47.2Z</time></trkpt><trkpt lat="43.2481424" lon="12.1168965"><ele>483.25</ele><time>2026-05-02T08:22:48.192Z</time></trkpt><trkpt lat="43.2480846" lon="12.1170305"><ele>480.0</ele><time>2026-05-02T08:22:49.193Z</time></trkpt><trkpt lat="43.2479938" lon="12.1171509"><ele>483.25</ele><time>2026-05-02T08:22:50.208Z</time></trkpt><trkpt lat="43.2478807" lon="12.1172646"><ele>486.5</ele><time>2026-05-02T08:22:51.194Z</time></trkpt><trkpt lat="43.2477954" lon="12.1174052"><ele>489.75</ele><time>2026-05-02T08:22:52.189Z</time></trkpt><trkpt lat="43.247724" lon="12.1175701"><ele>493.0</ele><time>2026-05-02T08:22:53.198Z</time></trkpt><trkpt lat="43.2476829" lon="12.1177632"><ele>493.0</ele><time>2026-05-02T08:22:54.197Z</time></trkpt><trkpt lat="43.247633" lon="12.1179613"><ele>493.0</ele><time>2026-05-02T08:22:55.201Z</time></trkpt><trkpt lat="43.2476177" lon="12.118139"><ele>493.0</ele><time>2026-05-02T08:22:56.194Z</time></trkpt><trkpt lat="43.2476364" lon="12.1183161"><ele>493.0</ele><time>2026-05-02T08:22:57.198Z</time></trkpt><trkpt lat="43.247667" lon="12.1184981"><ele>491.2</ele><time>2026-05-02T08:22:58.195Z</time></trkpt><trkpt lat="43.2476821" lon="12.118666"><ele>489.4</ele><time>2026-05-02T08:22:59.192Z</time></trkpt><trkpt lat="43.2476768" lon="12.1188125"><ele>487.59999999999997</ele><time>2026-05-02T08:23:00.204Z</time></trkpt><trkpt lat="43.2476301" lon="12.1189282"><ele>485.79999999999995</ele><time>2026-05-02T08:23:01.199Z</time></trkpt><trkpt lat="43.2475351" lon="12.1190078"><ele>484.0</ele><time>2026-05-02T08:23:02.172Z</time></trkpt><trkpt lat="43.2474173" lon="12.119042"><ele>481.0</ele><time>2026-05-02T08:23:03.192Z</time></trkpt><trkpt lat="43.2473134" lon="12.1190827"><ele>478.0</ele><time>2026-05-02T08:23:04.206Z</time></trkpt><trkpt lat="43.2472569" lon="12.1191897"><ele>475.0</ele><time>2026-05-02T08:23:05.192Z</time></trkpt><trkpt lat="43.247229" lon="12.1193658"><ele>472.0</ele><time>2026-05-02T08:23:06.198Z</time></trkpt><trkpt lat="43.2472378" lon="12.1195572"><ele>469.6666666666667</ele><time>2026-05-02T08:23:07.197Z</time></trkpt><trkpt lat="43.2472845" lon="12.1197472"><ele>467.33333333333337</ele><time>2026-05-02T08:23:08.183Z</time></trkpt><trkpt lat="43.2473474" lon="12.1199328"><ele>465.0</ele><time>2026-05-02T08:23:09.208Z</time></trkpt><trkpt lat="43.2474308" lon="12.1201194"><ele>465.0</ele><time>2026-05-02T08:23:10.185Z</time></trkpt><trkpt lat="43.2475222" lon="12.1203089"><ele>465.0</ele><time>2026-05-02T08:23:11.204Z</time></trkpt><trkpt lat="43.2476141" lon="12.1204995"><ele>465.0</ele><time>2026-05-02T08:23:12.188Z</time></trkpt><trkpt lat="43.247699" lon="12.1206756"><ele>466.0</ele><time>2026-05-02T08:23:13.194Z</time></trkpt><trkpt lat="43.2477723" lon="12.1208494"><ele>467.0</ele><time>2026-05-02T08:23:14.208Z</time></trkpt><trkpt lat="43.2478303" lon="12.1210198"><ele>468.0</ele><time>2026-05-02T08:23:15.201Z</time></trkpt><trkpt lat="43.2478666" lon="12.1211904"><ele>469.0</ele><time>2026-05-02T08:23:16.197Z</time></trkpt><trkpt lat="43.2478598" lon="12.1213758"><ele>469.0</ele><time>2026-05-02T08:23:17.202Z</time></trkpt><trkpt lat="43.2478175" lon="12.1215606"><ele>469.0</ele><time>2026-05-02T08:23:18.2Z</time></trkpt><trkpt lat="43.2477726" lon="12.1217458"><ele>469.0</ele><time>2026-05-02T08:23:19.206Z</time></trkpt><trkpt lat="43.2477632" lon="12.1219393"><ele>469.0</ele><time>2026-05-02T08:23:20.195Z</time></trkpt><trkpt lat="43.2477712" lon="12.1221369"><ele>467.5</ele><time>2026-05-02T08:23:21.195Z</time></trkpt><trkpt lat="43.2477707" lon="12.1223229"><ele>466.0</ele><time>2026-05-02T08:23:22.19Z</time></trkpt><trkpt lat="43.2477268" lon="12.1225263"><ele>464.5</ele><time>2026-05-02T08:23:23.193Z</time></trkpt><trkpt lat="43.2476574" lon="12.1227125"><ele>463.0</ele><time>2026-05-02T08:23:24.199Z</time></trkpt><trkpt lat="43.2476105" lon="12.1228982"><ele>461.5</ele><time>2026-05-02T08:23:25.198Z</time></trkpt><trkpt lat="43.2476019" lon="12.1230937"><ele>460.0</ele><time>2026-05-02T08:23:26.207Z</time></trkpt><trkpt lat="43.2475916" lon="12.1232739"><ele>458.5</ele><time>2026-05-02T08:23:27.209Z</time></trkpt><trkpt lat="43.2475533" lon="12.1234238"><ele>457.0</ele><time>2026-05-02T08:23:28.194Z</time></trkpt><trkpt lat="43.2474864" lon="12.1235459"><ele>457.0</ele><time>2026-05-02T08:23:29.206Z</time></trkpt><trkpt lat="43.2473812" lon="12.1236484"><ele>457.0</ele><time>2026-05-02T08:23:30.197Z</time></trkpt><trkpt lat="43.2472662" lon="12.1237075"><ele>457.0</ele><time>2026-05-02T08:23:31.195Z</time></trkpt><trkpt lat="43.2471445" lon="12.123756"><ele>457.0</ele><time>2026-05-02T08:23:32.182Z</time></trkpt><trkpt lat="43.2470356" lon="12.1238076"><ele>457.0</ele><time>2026-05-02T08:23:33.183Z</time></trkpt><trkpt lat="43.2469265" lon="12.1238612"><ele>457.0</ele><time>2026-05-02T08:23:34.2Z</time></trkpt><trkpt lat="43.2468291" lon="12.1239626"><ele>457.0</ele><time>2026-05-02T08:23:35.203Z</time></trkpt><trkpt lat="43.2467653" lon="12.1241448"><ele>457.0</ele><time>2026-05-02T08:23:36.198Z</time></trkpt><trkpt lat="43.2467179" lon="12.1243554"><ele>451.33333333333337</ele><time>2026-05-02T08:23:37.194Z</time></trkpt><trkpt lat="43.2466798" lon="12.1245695"><ele>445.66666666666663</ele><time>2026-05-02T08:23:38.197Z</time></trkpt><trkpt lat="43.2466306" lon="12.1247745"><ele>440.0</ele><time>2026-05-02T08:23:39.192Z</time></trkpt><trkpt lat="43.2465721" lon="12.1249553"><ele>441.5</ele><time>2026-05-02T08:23:40.192Z</time></trkpt><trkpt lat="43.2464878" lon="12.1251261"><ele>443.0</ele><time>2026-05-02T08:23:41.203Z</time></trkpt><trkpt lat="43.2464027" lon="12.1252695"><ele>444.5</ele><time>2026-05-02T08:23:42.196Z</time></trkpt><trkpt lat="43.2463376" lon="12.1253994"><ele>446.0</ele><time>2026-05-02T08:23:43.186Z</time></trkpt><trkpt lat="43.2463435" lon="12.1255553"><ele>446.0</ele><time>2026-05-02T08:23:44.193Z</time></trkpt><trkpt lat="43.246373" lon="12.1257256"><ele>446.0</ele><time>2026-05-02T08:23:45.193Z</time></trkpt><trkpt lat="43.2464104" lon="12.1259189"><ele>446.0</ele><time>2026-05-02T08:23:46.199Z</time></trkpt><trkpt lat="43.2464393" lon="12.1261212"><ele>446.0</ele><time>2026-05-02T08:23:47.196Z</time></trkpt><trkpt lat="43.2464538" lon="12.1263215"><ele>445.0</ele><time>2026-05-02T08:23:48.192Z</time></trkpt><trkpt lat="43.2464313" lon="12.1265127"><ele>444.0</ele><time>2026-05-02T08:23:49.205Z</time></trkpt><trkpt lat="43.2463728" lon="12.1266949"><ele>443.0</ele><time>2026-05-02T08:23:50.193Z</time></trkpt><trkpt lat="43.2462819" lon="12.1268679"><ele>442.0</ele><time>2026-05-02T08:23:51.191Z</time></trkpt><trkpt lat="43.2461941" lon="12.1270401"><ele>441.25</ele><time>2026-05-02T08:23:52.204Z</time></trkpt><trkpt lat="43.2461152" lon="12.1272192"><ele>440.5</ele><time>2026-05-02T08:23:53.196Z</time></trkpt><trkpt lat="43.246056" lon="12.1273979"><ele>439.75</ele><time>2026-05-02T08:23:54.197Z</time></trkpt><trkpt lat="43.2460143" lon="12.1275916"><ele>439.0</ele><time>2026-05-02T08:23:55.211Z</time></trkpt><trkpt lat="43.2459957" lon="12.1278042"><ele>435.6666666666667</ele><time>2026-05-02T08:23:56.195Z</time></trkpt><trkpt lat="43.2460213" lon="12.1280438"><ele>432.33333333333337</ele><time>2026-05-02T08:23:57.194Z</time></trkpt><trkpt lat="43.2460657" lon="12.1282906"><ele>429.0</ele><time>2026-05-02T08:23:58.187Z</time></trkpt><trkpt lat="43.2460959" lon="12.1285463"><ele>426.33333333333337</ele><time>2026-05-02T08:23:59.182Z</time></trkpt><trkpt lat="43.2461011" lon="12.128782"><ele>423.6666666666667</ele><time>2026-05-02T08:24:00.191Z</time></trkpt><trkpt lat="43.2460946" lon="12.129022"><ele>421.0</ele><time>2026-05-02T08:24:01.192Z</time></trkpt><trkpt lat="43.2460726" lon="12.1292404"><ele>419.0</ele><time>2026-05-02T08:24:02.202Z</time></trkpt><trkpt lat="43.2460412" lon="12.1294336"><ele>417.0</ele><time>2026-05-02T08:24:03.201Z</time></trkpt><trkpt lat="43.2460279" lon="12.1295857"><ele>415.0</ele><time>2026-05-02T08:24:04.207Z</time></trkpt><trkpt lat="43.2460419" lon="12.1297206"><ele>413.0</ele><time>2026-05-02T08:24:05.199Z</time></trkpt><trkpt lat="43.2460909" lon="12.1298363"><ele>413.0</ele><time>2026-05-02T08:24:06.192Z</time></trkpt><trkpt lat="43.2461793" lon="12.1299062"><ele>413.0</ele><time>2026-05-02T08:24:07.194Z</time></trkpt><trkpt lat="43.2462757" lon="12.1299102"><ele>413.0</ele><time>2026-05-02T08:24:08.193Z</time></trkpt><trkpt lat="43.2463891" lon="12.1298687"><ele>413.0</ele><time>2026-05-02T08:24:09.202Z</time></trkpt><trkpt lat="43.2465119" lon="12.1297709"><ele>409.66666666666663</ele><time>2026-05-02T08:24:10.2Z</time></trkpt><trkpt lat="43.2466467" lon="12.1296245"><ele>406.33333333333337</ele><time>2026-05-02T08:24:11.194Z</time></trkpt><trkpt lat="43.2467805" lon="12.1294884"><ele>403.0</ele><time>2026-05-02T08:24:12.193Z</time></trkpt><trkpt lat="43.246914" lon="12.1293612"><ele>403.0</ele><time>2026-05-02T08:24:13.204Z</time></trkpt><trkpt lat="43.2470596" lon="12.1292576"><ele>403.0</ele><time>2026-05-02T08:24:14.188Z</time></trkpt><trkpt lat="43.247202" lon="12.1292189"><ele>403.0</ele><time>2026-05-02T08:24:15.2Z</time></trkpt><trkpt lat="43.2473484" lon="12.1292289"><ele>400.75</ele><time>2026-05-02T08:24:16.182Z</time></trkpt><trkpt lat="43.2474776" lon="12.1292541"><ele>398.5</ele><time>2026-05-02T08:24:17.193Z</time></trkpt><trkpt lat="43.2476154" lon="12.1292736"><ele>396.25</ele><time>2026-05-02T08:24:18.199Z</time></trkpt><trkpt lat="43.2477459" lon="12.1292633"><ele>394.0</ele><time>2026-05-02T08:24:19.21Z</time></trkpt><trkpt lat="43.2478865" lon="12.1291852"><ele>394.0</ele><time>2026-05-02T08:24:20.213Z</time></trkpt><trkpt lat="43.24803" lon="12.1290645"><ele>394.0</ele><time>2026-05-02T08:24:21.183Z</time></trkpt><trkpt lat="43.248158" lon="12.1289018"><ele>394.0</ele><time>2026-05-02T08:24:22.183Z</time></trkpt><trkpt lat="43.248282" lon="12.1287471"><ele>393.2</ele><time>2026-05-02T08:24:23.196Z</time></trkpt><trkpt lat="43.2483932" lon="12.1286033"><ele>392.4</ele><time>2026-05-02T08:24:24.182Z</time></trkpt><trkpt lat="43.2484834" lon="12.1284911"><ele>391.6</ele><time>2026-05-02T08:24:25.192Z</time></trkpt><trkpt lat="43.2485559" lon="12.1284224"><ele>390.8</ele><time>2026-05-02T08:24:26.19Z</time></trkpt><trkpt lat="43.2486312" lon="12.1283925"><ele>390.0</ele><time>2026-05-02T08:24:27.184Z</time></trkpt><trkpt lat="43.2486976" lon="12.1284093"><ele>390.0</ele><time>2026-05-02T08:24:28.206Z</time></trkpt><trkpt lat="43.2487639" lon="12.1285012"><ele>390.0</ele><time>2026-05-02T08:24:29.2Z</time></trkpt><trkpt lat="43.24879" lon="12.128639"><ele>390.0</ele><time>2026-05-02T08:24:30.194Z</time></trkpt><trkpt lat="43.2487603" lon="12.1288032"><ele>390.0</ele><time>2026-05-02T08:24:31.2Z</time></trkpt><trkpt lat="43.2487357" lon="12.1289817"><ele>388.2</ele><time>2026-05-02T08:24:32.2Z</time></trkpt><trkpt lat="43.2487063" lon="12.1291313"><ele>386.4</ele><time>2026-05-02T08:24:33.204Z</time></trkpt><trkpt lat="43.2486737" lon="12.1292829"><ele>384.6</ele><time>2026-05-02T08:24:34.207Z</time></trkpt><trkpt lat="43.2486477" lon="12.1294243"><ele>382.8</ele><time>2026-05-02T08:24:35.198Z</time></trkpt><trkpt lat="43.2486353" lon="12.129552"><ele>381.0</ele><time>2026-05-02T08:24:36.213Z</time></trkpt><trkpt lat="43.2486608" lon="12.1296621"><ele>381.0</ele><time>2026-05-02T08:24:37.194Z</time></trkpt><trkpt lat="43.2487099" lon="12.1297349"><ele>381.0</ele><time>2026-05-02T08:24:38.201Z</time></trkpt><trkpt lat="43.2487743" lon="12.129766"><ele>381.0</ele><time>2026-05-02T08:24:39.195Z</time></trkpt><trkpt lat="43.2488458" lon="12.1297559"><ele>381.0</ele><time>2026-05-02T08:24:40.186Z</time></trkpt><trkpt lat="43.2489006" lon="12.1296989"><ele>381.0</ele><time>2026-05-02T08:24:41.188Z</time></trkpt><trkpt lat="43.2489527" lon="12.1296126"><ele>381.0</ele><time>2026-05-02T08:24:42.195Z</time></trkpt><trkpt lat="43.2490044" lon="12.1294953"><ele>378.8</ele><time>2026-05-02T08:24:43.214Z</time></trkpt><trkpt lat="43.2490717" lon="12.1293959"><ele>376.6</ele><time>2026-05-02T08:24:44.197Z</time></trkpt><trkpt lat="43.2491538" lon="12.1293436"><ele>374.4</ele><time>2026-05-02T08:24:45.18Z</time></trkpt><trkpt lat="43.2492394" lon="12.1293388"><ele>372.2</ele><time>2026-05-02T08:24:46.209Z</time></trkpt><trkpt lat="43.2493241" lon="12.1293902"><ele>370.0</ele><time>2026-05-02T08:24:47.193Z</time></trkpt><trkpt lat="43.2494149" lon="12.1295063"><ele>370.0</ele><time>2026-05-02T08:24:48.209Z</time></trkpt><trkpt lat="43.2494749" lon="12.129648"><ele>370.0</ele><time>2026-05-02T08:24:49.195Z</time></trkpt><trkpt lat="43.2495316" lon="12.1298033"><ele>370.0</ele><time>2026-05-02T08:24:50.193Z</time></trkpt><trkpt lat="43.2495701" lon="12.1299744"><ele>370.0</ele><time>2026-05-02T08:24:51.2Z</time></trkpt><trkpt lat="43.2495666" lon="12.1301388"><ele>368.5</ele><time>2026-05-02T08:24:52.2Z</time></trkpt><trkpt lat="43.2495236" lon="12.1302959"><ele>367.0</ele><time>2026-05-02T08:24:53.199Z</time></trkpt><trkpt lat="43.2494453" lon="12.1304585"><ele>365.5</ele><time>2026-05-02T08:24:54.205Z</time></trkpt><trkpt lat="43.2493592" lon="12.1306247"><ele>364.0</ele><time>2026-05-02T08:24:55.193Z</time></trkpt><trkpt lat="43.2492835" lon="12.1307754"><ele>362.5</ele><time>2026-05-02T08:24:56.214Z</time></trkpt><trkpt lat="43.249214" lon="12.130909"><ele>361.0</ele><time>2026-05-02T08:24:57.201Z</time></trkpt><trkpt lat="43.2491718" lon="12.1310238"><ele>359.5</ele><time>2026-05-02T08:24:58.19Z</time></trkpt><trkpt lat="43.2491669" lon="12.1311168"><ele>358.0</ele><time>2026-05-02T08:24:59.211Z</time></trkpt><trkpt lat="43.2492089" lon="12.1312109"><ele>356.5</ele><time>2026-05-02T08:25:00.192Z</time></trkpt><trkpt lat="43.2492877" lon="12.1312422"><ele>355.0</ele><time>2026-05-02T08:25:01.185Z</time></trkpt><trkpt lat="43.2493776" lon="12.1312203"><ele>355.0</ele><time>2026-05-02T08:25:02.199Z</time></trkpt><trkpt lat="43.2494747" lon="12.1311463"><ele>355.0</ele><time>2026-05-02T08:25:03.193Z</time></trkpt><trkpt lat="43.2495599" lon="12.1310565"><ele>355.0</ele><time>2026-05-02T08:25:04.195Z</time></trkpt><trkpt lat="43.2496587" lon="12.130985"><ele>355.0</ele><time>2026-05-02T08:25:05.212Z</time></trkpt><trkpt lat="43.2497807" lon="12.1309959"><ele>352.5</ele><time>2026-05-02T08:25:06.214Z</time></trkpt><trkpt lat="43.2499251" lon="12.1310195"><ele>350.0</ele><time>2026-05-02T08:25:07.203Z</time></trkpt><trkpt lat="43.2500685" lon="12.1310475"><ele>347.5</ele><time>2026-05-02T08:25:08.207Z</time></trkpt><trkpt lat="43.2502119" lon="12.1310731"><ele>345.0</ele><time>2026-05-02T08:25:09.201Z</time></trkpt><trkpt lat="43.2503524" lon="12.1310819"><ele>345.0</ele><time>2026-05-02T08:25:10.2Z</time></trkpt><trkpt lat="43.2504821" lon="12.1310368"><ele>345.0</ele><time>2026-05-02T08:25:11.199Z</time></trkpt><trkpt lat="43.2506106" lon="12.1309524"><ele>345.0</ele><time>2026-05-02T08:25:12.197Z</time></trkpt><trkpt lat="43.2507366" lon="12.1308809"><ele>345.0</ele><time>2026-05-02T08:25:13.199Z</time></trkpt><trkpt lat="43.2508612" lon="12.1308157"><ele>344.0</ele><time>2026-05-02T08:25:14.193Z</time></trkpt><trkpt lat="43.2509848" lon="12.1307444"><ele>343.0</ele><time>2026-05-02T08:25:15.194Z</time></trkpt><trkpt lat="43.251094" lon="12.1306784"><ele>342.0</ele><time>2026-05-02T08:25:16.188Z</time></trkpt><trkpt lat="43.2511718" lon="12.1306305"><ele>341.0</ele><time>2026-05-02T08:25:17.202Z</time></trkpt><trkpt lat="43.2512357" lon="12.1306015"><ele>340.0</ele><time>2026-05-02T08:25:18.199Z</time></trkpt><trkpt lat="43.2513076" lon="12.1306649"><ele>339.25</ele><time>2026-05-02T08:25:20.203Z</time></trkpt><trkpt lat="43.2512621" lon="12.1308392"><ele>338.5</ele><time>2026-05-02T08:25:22.191Z</time></trkpt><trkpt lat="43.2511816" lon="12.1309466"><ele>337.75</ele><time>2026-05-02T08:25:23.201Z</time></trkpt><trkpt lat="43.2511014" lon="12.1310539"><ele>337.0</ele><time>2026-05-02T08:25:24.195Z</time></trkpt><trkpt lat="43.2510326" lon="12.1311734"><ele>337.0</ele><time>2026-05-02T08:25:25.188Z</time></trkpt><trkpt lat="43.2509919" lon="12.1313077"><ele>337.0</ele><time>2026-05-02T08:25:26.195Z</time></trkpt><trkpt lat="43.2509804" lon="12.1314475"><ele>337.0</ele><time>2026-05-02T08:25:27.19Z</time></trkpt><trkpt lat="43.2510338" lon="12.1315414"><ele>337.0</ele><time>2026-05-02T08:25:28.204Z</time></trkpt><trkpt lat="43.2511449" lon="12.1316222"><ele>337.0</ele><time>2026-05-02T08:25:29.193Z</time></trkpt><trkpt lat="43.2512724" lon="12.1316882"><ele>337.75</ele><time>2026-05-02T08:25:30.201Z</time></trkpt><trkpt lat="43.2514235" lon="12.1317201"><ele>338.5</ele><time>2026-05-02T08:25:31.191Z</time></trkpt><trkpt lat="43.2515677" lon="12.131732"><ele>339.25</ele><time>2026-05-02T08:25:32.194Z</time></trkpt><trkpt lat="43.251706" lon="12.1317641"><ele>340.0</ele><time>2026-05-02T08:25:33.196Z</time></trkpt><trkpt lat="43.251832" lon="12.1317799"><ele>337.0</ele><time>2026-05-02T08:25:34.189Z</time></trkpt><trkpt lat="43.2519504" lon="12.1318022"><ele>334.0</ele><time>2026-05-02T08:25:35.165Z</time></trkpt><trkpt lat="43.252064" lon="12.1318354"><ele>331.0</ele><time>2026-05-02T08:25:36.197Z</time></trkpt><trkpt lat="43.252148" lon="12.131916"><ele>328.0</ele><time>2026-05-02T08:25:37.197Z</time></trkpt><trkpt lat="43.2521968" lon="12.1320527"><ele>325.0</ele><time>2026-05-02T08:25:38.193Z</time></trkpt><trkpt lat="43.2522286" lon="12.1322049"><ele>325.0</ele><time>2026-05-02T08:25:39.193Z</time></trkpt><trkpt lat="43.2522657" lon="12.1323814"><ele>325.0</ele><time>2026-05-02T08:25:40.192Z</time></trkpt><trkpt lat="43.2523002" lon="12.1325474"><ele>325.0</ele><time>2026-05-02T08:25:41.208Z</time></trkpt><trkpt lat="43.2523174" lon="12.1326997"><ele>325.0</ele><time>2026-05-02T08:25:42.195Z</time></trkpt><trkpt lat="43.2522982" lon="12.1328591"><ele>325.5</ele><time>2026-05-02T08:25:43.196Z</time></trkpt><trkpt lat="43.2522438" lon="12.1329971"><ele>326.0</ele><time>2026-05-02T08:25:44.19Z</time></trkpt><trkpt lat="43.252153" lon="12.1331389"><ele>326.5</ele><time>2026-05-02T08:25:45.203Z</time></trkpt><trkpt lat="43.2520318" lon="12.1332783"><ele>327.0</ele><time>2026-05-02T08:25:46.203Z</time></trkpt><trkpt lat="43.2519116" lon="12.1334368"><ele>327.0</ele><time>2026-05-02T08:25:47.176Z</time></trkpt><trkpt lat="43.2518048" lon="12.1336064"><ele>327.0</ele><time>2026-05-02T08:25:48.198Z</time></trkpt><trkpt lat="43.2517113" lon="12.1337874"><ele>327.0</ele><time>2026-05-02T08:25:49.189Z</time></trkpt><trkpt lat="43.2516291" lon="12.1339696"><ele>328.25</ele><time>2026-05-02T08:25:50.19Z</time></trkpt><trkpt lat="43.2515477" lon="12.1341435"><ele>329.5</ele><time>2026-05-02T08:25:51.196Z</time></trkpt><trkpt lat="43.2514647" lon="12.1342956"><ele>330.75</ele><time>2026-05-02T08:25:52.194Z</time></trkpt><trkpt lat="43.2513656" lon="12.134408"><ele>332.0</ele><time>2026-05-02T08:25:53.2Z</time></trkpt><trkpt lat="43.2512531" lon="12.1345085"><ele>332.0</ele><time>2026-05-02T08:25:54.197Z</time></trkpt><trkpt lat="43.2511556" lon="12.1346241"><ele>332.0</ele><time>2026-05-02T08:25:55.193Z</time></trkpt><trkpt lat="43.2510783" lon="12.134777"><ele>332.0</ele><time>2026-05-02T08:25:56.195Z</time></trkpt><trkpt lat="43.2510026" lon="12.1349619"><ele>332.0</ele><time>2026-05-02T08:25:57.191Z</time></trkpt><trkpt lat="43.2509356" lon="12.1351704"><ele>327.0</ele><time>2026-05-02T08:25:58.199Z</time></trkpt><trkpt lat="43.2508684" lon="12.1353783"><ele>322.0</ele><time>2026-05-02T08:25:59.196Z</time></trkpt><trkpt lat="43.2508095" lon="12.1355791"><ele>317.0</ele><time>2026-05-02T08:26:00.207Z</time></trkpt><trkpt lat="43.2507402" lon="12.1357756"><ele>319.33333333333337</ele><time>2026-05-02T08:26:01.202Z</time></trkpt><trkpt lat="43.2506733" lon="12.1359667"><ele>321.6666666666667</ele><time>2026-05-02T08:26:02.193Z</time></trkpt><trkpt lat="43.2506102" lon="12.1361545"><ele>324.0</ele><time>2026-05-02T08:26:03.196Z</time></trkpt><trkpt lat="43.2505391" lon="12.136348"><ele>324.0</ele><time>2026-05-02T08:26:04.207Z</time></trkpt><trkpt lat="43.2504606" lon="12.1365141"><ele>324.0</ele><time>2026-05-02T08:26:05.203Z</time></trkpt><trkpt lat="43.2503721" lon="12.1366636"><ele>324.0</ele><time>2026-05-02T08:26:06.185Z</time></trkpt><trkpt lat="43.2502826" lon="12.1368058"><ele>324.0</ele><time>2026-05-02T08:26:07.2Z</time></trkpt><trkpt lat="43.250195" lon="12.1369537"><ele>320.5</ele><time>2026-05-02T08:26:08.198Z</time></trkpt><trkpt lat="43.2501098" lon="12.1371126"><ele>317.0</ele><time>2026-05-02T08:26:09.192Z</time></trkpt><trkpt lat="43.2500375" lon="12.1372646"><ele>313.5</ele><time>2026-05-02T08:26:10.191Z</time></trkpt><trkpt lat="43.2499734" lon="12.1374196"><ele>310.0</ele><time>2026-05-02T08:26:11.19Z</time></trkpt><trkpt lat="43.2499257" lon="12.1375747"><ele>309.0</ele><time>2026-05-02T08:26:12.189Z</time></trkpt><trkpt lat="43.2498816" lon="12.1377155"><ele>308.0</ele><time>2026-05-02T08:26:13.185Z</time></trkpt><trkpt lat="43.2498421" lon="12.1378521"><ele>307.0</ele><time>2026-05-02T08:26:14.195Z</time></trkpt><trkpt lat="43.2498086" lon="12.1379806"><ele>306.0</ele><time>2026-05-02T08:26:15.188Z</time></trkpt><trkpt lat="43.2497726" lon="12.1381011"><ele>305.0</ele><time>2026-05-02T08:26:16.184Z</time></trkpt><trkpt lat="43.2497331" lon="12.1382191"><ele>308.5</ele><time>2026-05-02T08:26:17.2Z</time></trkpt><trkpt lat="43.2496978" lon="12.1383321"><ele>312.0</ele><time>2026-05-02T08:26:18.19Z</time></trkpt><trkpt lat="43.2496651" lon="12.1384475"><ele>315.5</ele><time>2026-05-02T08:26:19.189Z</time></trkpt><trkpt lat="43.2496351" lon="12.1385562"><ele>319.0</ele><time>2026-05-02T08:26:20.192Z</time></trkpt><trkpt lat="43.2496264" lon="12.1386664"><ele>322.5</ele><time>2026-05-02T08:26:21.192Z</time></trkpt><trkpt lat="43.2496493" lon="12.1387676"><ele>326.0</ele><time>2026-05-02T08:26:22.199Z</time></trkpt><trkpt lat="43.2497056" lon="12.1388458"><ele>326.0</ele><time>2026-05-02T08:26:23.177Z</time></trkpt><trkpt lat="43.2497816" lon="12.1388909"><ele>326.0</ele><time>2026-05-02T08:26:24.195Z</time></trkpt><trkpt lat="43.2498977" lon="12.1389114"><ele>326.0</ele><time>2026-05-02T08:26:25.195Z</time></trkpt><trkpt lat="43.2500299" lon="12.1389354"><ele>326.0</ele><time>2026-05-02T08:26:26.184Z</time></trkpt><trkpt lat="43.2501718" lon="12.1389549"><ele>317.33333333333337</ele><time>2026-05-02T08:26:27.193Z</time></trkpt><trkpt lat="43.2503248" lon="12.1389711"><ele>308.6666666666667</ele><time>2026-05-02T08:26:28.203Z</time></trkpt><trkpt lat="43.250493" lon="12.1389955"><ele>300.0</ele><time>2026-05-02T08:26:29.202Z</time></trkpt><trkpt lat="43.2506759" lon="12.1390155"><ele>299.3333333333333</ele><time>2026-05-02T08:26:30.198Z</time></trkpt><trkpt lat="43.2508704" lon="12.1390351"><ele>298.66666666666663</ele><time>2026-05-02T08:26:31.209Z</time></trkpt><trkpt lat="43.2510685" lon="12.1390567"><ele>298.0</ele><time>2026-05-02T08:26:32.19Z</time></trkpt><trkpt lat="43.2512729" lon="12.1390808"><ele>298.3333333333333</ele><time>2026-05-02T08:26:33.198Z</time></trkpt><trkpt lat="43.2514679" lon="12.1390977"><ele>298.6666666666667</ele><time>2026-05-02T08:26:34.193Z</time></trkpt><trkpt lat="43.2516634" lon="12.1391181"><ele>299.0</ele><time>2026-05-02T08:26:35.192Z</time></trkpt><trkpt lat="43.2518519" lon="12.1391415"><ele>299.0</ele><time>2026-05-02T08:26:36.203Z</time></trkpt><trkpt lat="43.252039" lon="12.139167"><ele>299.0</ele><time>2026-05-02T08:26:37.189Z</time></trkpt><trkpt lat="43.2522075" lon="12.1391897"><ele>299.0</ele><time>2026-05-02T08:26:38.188Z</time></trkpt><trkpt lat="43.2523705" lon="12.1392082"><ele>299.25</ele><time>2026-05-02T08:26:39.192Z</time></trkpt><trkpt lat="43.2525193" lon="12.1392175"><ele>299.5</ele><time>2026-05-02T08:26:40.208Z</time></trkpt><trkpt lat="43.2526662" lon="12.1392342"><ele>299.75</ele><time>2026-05-02T08:26:41.197Z</time></trkpt><trkpt lat="43.252818" lon="12.1392565"><ele>300.0</ele><time>2026-05-02T08:26:42.201Z</time></trkpt><trkpt lat="43.2529669" lon="12.1392748"><ele>300.0</ele><time>2026-05-02T08:26:43.213Z</time></trkpt><trkpt lat="43.2531201" lon="12.139294"><ele>300.0</ele><time>2026-05-02T08:26:44.196Z</time></trkpt><trkpt lat="43.2532731" lon="12.139313"><ele>300.0</ele><time>2026-05-02T08:26:45.195Z</time></trkpt><trkpt lat="43.253427" lon="12.1393363"><ele>300.5</ele><time>2026-05-02T08:26:46.207Z</time></trkpt><trkpt lat="43.2535796" lon="12.139357"><ele>301.0</ele><time>2026-05-02T08:26:47.202Z</time></trkpt><trkpt lat="43.2537257" lon="12.1393755"><ele>301.5</ele><time>2026-05-02T08:26:48.196Z</time></trkpt><trkpt lat="43.2538664" lon="12.1393905"><ele>302.0</ele><time>2026-05-02T08:26:49.21Z</time></trkpt><trkpt lat="43.2540041" lon="12.1394055"><ele>302.25</ele><time>2026-05-02T08:26:50.204Z</time></trkpt><trkpt lat="43.2541322" lon="12.1394174"><ele>302.5</ele><time>2026-05-02T08:26:51.207Z</time></trkpt><trkpt lat="43.2542536" lon="12.1394267"><ele>302.75</ele><time>2026-05-02T08:26:52.191Z</time></trkpt><trkpt lat="43.2543758" lon="12.1394337"><ele>303.0</ele><time>2026-05-02T08:26:53.192Z</time></trkpt><trkpt lat="43.2544907" lon="12.1394452"><ele>303.0</ele><time>2026-05-02T08:26:54.204Z</time></trkpt><trkpt lat="43.2545976" lon="12.1394558"><ele>303.0</ele><time>2026-05-02T08:26:55.202Z</time></trkpt><trkpt lat="43.2547026" lon="12.1394693"><ele>303.0</ele><time>2026-05-02T08:26:56.17Z</time></trkpt><trkpt lat="43.2548012" lon="12.1394747"><ele>303.0</ele><time>2026-05-02T08:26:57.199Z</time></trkpt><trkpt lat="43.2548985" lon="12.1394855"><ele>303.0</ele><time>2026-05-02T08:26:58.196Z</time></trkpt><trkpt lat="43.2549875" lon="12.1394944"><ele>303.1666666666667</ele><time>2026-05-02T08:26:59.201Z</time></trkpt><trkpt lat="43.2550907" lon="12.1395711"><ele>303.3333333333333</ele><time>2026-05-02T08:27:01.19Z</time></trkpt><trkpt lat="43.2551241" lon="12.1397201"><ele>303.5</ele><time>2026-05-02T08:27:03.202Z</time></trkpt><trkpt lat="43.2551436" lon="12.1398092"><ele>303.66666666666663</ele><time>2026-05-02T08:27:04.202Z</time></trkpt><trkpt lat="43.2551577" lon="12.1399052"><ele>303.8333333333333</ele><time>2026-05-02T08:27:05.196Z</time></trkpt><trkpt lat="43.2551752" lon="12.1400104"><ele>304.0</ele><time>2026-05-02T08:27:06.196Z</time></trkpt><trkpt lat="43.2551968" lon="12.1401262"><ele>304.16666666666663</ele><time>2026-05-02T08:27:07.197Z</time></trkpt><trkpt lat="43.2552297" lon="12.1402387"><ele>304.3333333333333</ele><time>2026-05-02T08:27:08.201Z</time></trkpt><trkpt lat="43.2552639" lon="12.1403448"><ele>304.5</ele><time>2026-05-02T08:27:09.195Z</time></trkpt><trkpt lat="43.2552993" lon="12.1404454"><ele>304.6666666666667</ele><time>2026-05-02T08:27:10.204Z</time></trkpt><trkpt lat="43.2553271" lon="12.1405617"><ele>304.83333333333337</ele><time>2026-05-02T08:27:11.198Z</time></trkpt><trkpt lat="43.2553665" lon="12.1406678"><ele>305.0</ele><time>2026-05-02T08:27:12.202Z</time></trkpt><trkpt lat="43.2554107" lon="12.1407832"><ele>305.2</ele><time>2026-05-02T08:27:13.183Z</time></trkpt><trkpt lat="43.255461" lon="12.1409028"><ele>305.4</ele><time>2026-05-02T08:27:14.195Z</time></trkpt><trkpt lat="43.2555107" lon="12.1410302"><ele>305.6</ele><time>2026-05-02T08:27:15.197Z</time></trkpt><trkpt lat="43.2555575" lon="12.141175"><ele>305.8</ele><time>2026-05-02T08:27:16.19Z</time></trkpt><trkpt lat="43.2556044" lon="12.1413217"><ele>306.0</ele><time>2026-05-02T08:27:17.209Z</time></trkpt><trkpt lat="43.2556555" lon="12.1414746"><ele>306.0</ele><time>2026-05-02T08:27:18.194Z</time></trkpt><trkpt lat="43.2557119" lon="12.1416356"><ele>306.0</ele><time>2026-05-02T08:27:19.194Z</time></trkpt><trkpt lat="43.2557687" lon="12.1417943"><ele>306.0</ele><time>2026-05-02T08:27:20.19Z</time></trkpt><trkpt lat="43.2558358" lon="12.1419556"><ele>306.0</ele><time>2026-05-02T08:27:21.186Z</time></trkpt><trkpt lat="43.2558951" lon="12.1421119"><ele>306.0</ele><time>2026-05-02T08:27:22.192Z</time></trkpt><trkpt lat="43.2559463" lon="12.1422493"><ele>306.0</ele><time>2026-05-02T08:27:23.196Z</time></trkpt><trkpt lat="43.2559905" lon="12.1423805"><ele>306.0</ele><time>2026-05-02T08:27:24.184Z</time></trkpt><trkpt lat="43.2560566" lon="12.1425165"><ele>306.0</ele><time>2026-05-02T08:27:25.203Z</time></trkpt><trkpt lat="43.2561313" lon="12.1426572"><ele>305.3333333333333</ele><time>2026-05-02T08:27:26.208Z</time></trkpt><trkpt lat="43.2562162" lon="12.1428096"><ele>304.66666666666663</ele><time>2026-05-02T08:27:27.168Z</time></trkpt><trkpt lat="43.2563113" lon="12.142963"><ele>304.0</ele><time>2026-05-02T08:27:28.198Z</time></trkpt><trkpt lat="43.2564165" lon="12.1431349"><ele>302.66666666666663</ele><time>2026-05-02T08:27:29.208Z</time></trkpt><trkpt lat="43.2565304" lon="12.1433149"><ele>301.3333333333333</ele><time>2026-05-02T08:27:30.197Z</time></trkpt><trkpt lat="43.2566537" lon="12.1435072"><ele>300.0</ele><time>2026-05-02T08:27:31.198Z</time></trkpt><trkpt lat="43.2567808" lon="12.1437195"><ele>300.0</ele><time>2026-05-02T08:27:32.195Z</time></trkpt><trkpt lat="43.2569118" lon="12.1439441"><ele>300.0</ele><time>2026-05-02T08:27:33.203Z</time></trkpt><trkpt lat="43.2570441" lon="12.1441761"><ele>300.0</ele><time>2026-05-02T08:27:34.187Z</time></trkpt><trkpt lat="43.2571766" lon="12.1444071"><ele>300.3333333333333</ele><time>2026-05-02T08:27:35.183Z</time></trkpt><trkpt lat="43.2573143" lon="12.1446304"><ele>300.66666666666663</ele><time>2026-05-02T08:27:36.204Z</time></trkpt><trkpt lat="43.2574472" lon="12.1448617"><ele>301.0</ele><time>2026-05-02T08:27:37.197Z</time></trkpt><trkpt lat="43.2575837" lon="12.1450817"><ele>299.0</ele><time>2026-05-02T08:27:38.19Z</time></trkpt><trkpt lat="43.2577168" lon="12.1453101"><ele>297.0</ele><time>2026-05-02T08:27:39.204Z</time></trkpt><trkpt lat="43.2578451" lon="12.1455304"><ele>295.0</ele><time>2026-05-02T08:27:40.199Z</time></trkpt><trkpt lat="43.2579773" lon="12.1457431"><ele>296.0</ele><time>2026-05-02T08:27:41.197Z</time></trkpt><trkpt lat="43.2581088" lon="12.1459532"><ele>297.0</ele><time>2026-05-02T08:27:42.198Z</time></trkpt><trkpt lat="43.2582388" lon="12.1461576"><ele>298.0</ele><time>2026-05-02T08:27:43.194Z</time></trkpt><trkpt lat="43.2583698" lon="12.1463591"><ele>296.3333333333333</ele><time>2026-05-02T08:27:44.198Z</time></trkpt><trkpt lat="43.2585071" lon="12.1465467"><ele>294.6666666666667</ele><time>2026-05-02T08:27:45.214Z</time></trkpt><trkpt lat="43.2586506" lon="12.1467204"><ele>293.0</ele><time>2026-05-02T08:27:46.2Z</time></trkpt><trkpt lat="43.2588027" lon="12.1468911"><ele>296.33333333333337</ele><time>2026-05-02T08:27:47.211Z</time></trkpt><trkpt lat="43.258959" lon="12.1470516"><ele>299.6666666666667</ele><time>2026-05-02T08:27:48.203Z</time></trkpt><trkpt lat="43.2591176" lon="12.1472029"><ele>303.0</ele><time>2026-05-02T08:27:49.199Z</time></trkpt><trkpt lat="43.2592873" lon="12.1473453"><ele>304.0</ele><time>2026-05-02T08:27:50.199Z</time></trkpt><trkpt lat="43.2594629" lon="12.1474813"><ele>305.0</ele><time>2026-05-02T08:27:51.166Z</time></trkpt><trkpt lat="43.2596354" lon="12.1476071"><ele>306.0</ele><time>2026-05-02T08:27:52.19Z</time></trkpt><trkpt lat="43.2598139" lon="12.1477347"><ele>306.0</ele><time>2026-05-02T08:27:53.199Z</time></trkpt><trkpt lat="43.2599917" lon="12.1478626"><ele>306.0</ele><time>2026-05-02T08:27:54.213Z</time></trkpt><trkpt lat="43.2601601" lon="12.1479936"><ele>306.0</ele><time>2026-05-02T08:27:55.19Z</time></trkpt><trkpt lat="43.2603368" lon="12.1481232"><ele>303.6666666666667</ele><time>2026-05-02T08:27:56.182Z</time></trkpt><trkpt lat="43.2605153" lon="12.1482519"><ele>301.33333333333337</ele><time>2026-05-02T08:27:57.195Z</time></trkpt><trkpt lat="43.2606859" lon="12.148372"><ele>299.0</ele><time>2026-05-02T08:27:58.188Z</time></trkpt><trkpt lat="43.260855" lon="12.1484987"><ele>299.0</ele><time>2026-05-02T08:27:59.199Z</time></trkpt><trkpt lat="43.2610164" lon="12.1486165"><ele>299.0</ele><time>2026-05-02T08:28:00.195Z</time></trkpt><trkpt lat="43.2611748" lon="12.148736"><ele>299.0</ele><time>2026-05-02T08:28:01.205Z</time></trkpt><trkpt lat="43.2613248" lon="12.148844"><ele>299.33333333333337</ele><time>2026-05-02T08:28:02.196Z</time></trkpt><trkpt lat="43.2614764" lon="12.1489587"><ele>299.6666666666667</ele><time>2026-05-02T08:28:03.199Z</time></trkpt><trkpt lat="43.2616339" lon="12.1490666"><ele>300.0</ele><time>2026-05-02T08:28:04.196Z</time></trkpt><trkpt lat="43.2617885" lon="12.1491817"><ele>298.3333333333333</ele><time>2026-05-02T08:28:05.194Z</time></trkpt><trkpt lat="43.2619412" lon="12.1493036"><ele>296.66666666666663</ele><time>2026-05-02T08:28:06.189Z</time></trkpt><trkpt lat="43.2621014" lon="12.1494202"><ele>295.0</ele><time>2026-05-02T08:28:07.19Z</time></trkpt><trkpt lat="43.2622588" lon="12.1495348"><ele>295.66666666666663</ele><time>2026-05-02T08:28:08.207Z</time></trkpt><trkpt lat="43.2624119" lon="12.1496555"><ele>296.3333333333333</ele><time>2026-05-02T08:28:09.197Z</time></trkpt><trkpt lat="43.26257" lon="12.1497738"><ele>297.0</ele><time>2026-05-02T08:28:10.194Z</time></trkpt><trkpt lat="43.2627247" lon="12.1498877"><ele>297.0</ele><time>2026-05-02T08:28:11.194Z</time></trkpt><trkpt lat="43.2628781" lon="12.1500032"><ele>297.0</ele><time>2026-05-02T08:28:12.188Z</time></trkpt><trkpt lat="43.2630333" lon="12.1501213"><ele>297.0</ele><time>2026-05-02T08:28:13.2Z</time></trkpt><trkpt lat="43.2631931" lon="12.1502343"><ele>297.6666666666667</ele><time>2026-05-02T08:28:14.199Z</time></trkpt><trkpt lat="43.2633476" lon="12.1503495"><ele>298.33333333333337</ele><time>2026-05-02T08:28:15.201Z</time></trkpt><trkpt lat="43.2634941" lon="12.1504721"><ele>299.0</ele><time>2026-05-02T08:28:16.184Z</time></trkpt><trkpt lat="43.2636289" lon="12.1505928"><ele>298.33333333333337</ele><time>2026-05-02T08:28:17.212Z</time></trkpt><trkpt lat="43.2637545" lon="12.1507129"><ele>297.6666666666667</ele><time>2026-05-02T08:28:18.208Z</time></trkpt><trkpt lat="43.2638754" lon="12.1508439"><ele>297.0</ele><time>2026-05-02T08:28:19.2Z</time></trkpt><trkpt lat="43.2639829" lon="12.1509785"><ele>297.0</ele><time>2026-05-02T08:28:20.201Z</time></trkpt><trkpt lat="43.2640805" lon="12.151107"><ele>297.0</ele><time>2026-05-02T08:28:21.181Z</time></trkpt><trkpt lat="43.2641703" lon="12.1512355"><ele>297.0</ele><time>2026-05-02T08:28:22.197Z</time></trkpt><trkpt lat="43.2642486" lon="12.1513563"><ele>297.0</ele><time>2026-05-02T08:28:23.198Z</time></trkpt><trkpt lat="43.2643227" lon="12.1514713"><ele>296.75</ele><time>2026-05-02T08:28:24.202Z</time></trkpt><trkpt lat="43.2643933" lon="12.1515749"><ele>296.5</ele><time>2026-05-02T08:28:25.167Z</time></trkpt><trkpt lat="43.2644592" lon="12.1516894"><ele>296.25</ele><time>2026-05-02T08:28:26.166Z</time></trkpt><trkpt lat="43.2645344" lon="12.151813"><ele>296.0</ele><time>2026-05-02T08:28:27.194Z</time></trkpt><trkpt lat="43.264615" lon="12.1519458"><ele>296.0</ele><time>2026-05-02T08:28:28.189Z</time></trkpt><trkpt lat="43.2646966" lon="12.1520871"><ele>296.0</ele><time>2026-05-02T08:28:29.192Z</time></trkpt><trkpt lat="43.2647859" lon="12.1522218"><ele>296.0</ele><time>2026-05-02T08:28:30.192Z</time></trkpt><trkpt lat="43.2648886" lon="12.1523598"><ele>296.0</ele><time>2026-05-02T08:28:31.185Z</time></trkpt><trkpt lat="43.2649936" lon="12.152519"><ele>295.33333333333337</ele><time>2026-05-02T08:28:32.209Z</time></trkpt><trkpt lat="43.2651063" lon="12.1526705"><ele>294.6666666666667</ele><time>2026-05-02T08:28:33.213Z</time></trkpt><trkpt lat="43.2652149" lon="12.1528181"><ele>294.0</ele><time>2026-05-02T08:28:34.187Z</time></trkpt><trkpt lat="43.2653262" lon="12.1529812"><ele>294.0</ele><time>2026-05-02T08:28:35.203Z</time></trkpt><trkpt lat="43.2654399" lon="12.1531382"><ele>294.0</ele><time>2026-05-02T08:28:36.21Z</time></trkpt><trkpt lat="43.265551" lon="12.1532867"><ele>294.0</ele><time>2026-05-02T08:28:37.204Z</time></trkpt><trkpt lat="43.2656565" lon="12.1534414"><ele>294.25</ele><time>2026-05-02T08:28:38.209Z</time></trkpt><trkpt lat="43.2657577" lon="12.1535804"><ele>294.5</ele><time>2026-05-02T08:28:39.207Z</time></trkpt><trkpt lat="43.2658472" lon="12.1537109"><ele>294.75</ele><time>2026-05-02T08:28:40.191Z</time></trkpt><trkpt lat="43.2659296" lon="12.1538319"><ele>295.0</ele><time>2026-05-02T08:28:41.199Z</time></trkpt><trkpt lat="43.2660063" lon="12.1539473"><ele>295.0</ele><time>2026-05-02T08:28:42.213Z</time></trkpt><trkpt lat="43.2660871" lon="12.1540725"><ele>295.0</ele><time>2026-05-02T08:28:43.202Z</time></trkpt><trkpt lat="43.2661658" lon="12.1542109"><ele>295.0</ele><time>2026-05-02T08:28:44.201Z</time></trkpt><trkpt lat="43.2662404" lon="12.1543593"><ele>295.0</ele><time>2026-05-02T08:28:45.2Z</time></trkpt><trkpt lat="43.2663145" lon="12.1545218"><ele>295.0</ele><time>2026-05-02T08:28:46.201Z</time></trkpt><trkpt lat="43.266392" lon="12.1546969"><ele>295.0</ele><time>2026-05-02T08:28:47.209Z</time></trkpt><trkpt lat="43.2664692" lon="12.154893"><ele>295.0</ele><time>2026-05-02T08:28:48.209Z</time></trkpt><trkpt lat="43.2665616" lon="12.1551141"><ele>294.0</ele><time>2026-05-02T08:28:49.211Z</time></trkpt><trkpt lat="43.2666572" lon="12.1553499"><ele>293.0</ele><time>2026-05-02T08:28:50.21Z</time></trkpt><trkpt lat="43.2667545" lon="12.1555864"><ele>292.0</ele><time>2026-05-02T08:28:51.2Z</time></trkpt><trkpt lat="43.2668565" lon="12.1558374"><ele>292.0</ele><time>2026-05-02T08:28:52.205Z</time></trkpt><trkpt lat="43.2669616" lon="12.1560885"><ele>292.0</ele><time>2026-05-02T08:28:53.214Z</time></trkpt><trkpt lat="43.2670656" lon="12.1563463"><ele>292.0</ele><time>2026-05-02T08:28:54.205Z</time></trkpt><trkpt lat="43.2671715" lon="12.1565982"><ele>292.0</ele><time>2026-05-02T08:28:55.21Z</time></trkpt><trkpt lat="43.2672768" lon="12.1568483"><ele>292.0</ele><time>2026-05-02T08:28:56.194Z</time></trkpt><trkpt lat="43.2673852" lon="12.1570989"><ele>292.0</ele><time>2026-05-02T08:28:57.199Z</time></trkpt><trkpt lat="43.2674984" lon="12.1573507"><ele>291.66666666666663</ele><time>2026-05-02T08:28:58.204Z</time></trkpt><trkpt lat="43.2676116" lon="12.1576077"><ele>291.3333333333333</ele><time>2026-05-02T08:28:59.203Z</time></trkpt><trkpt lat="43.2677244" lon="12.1578646"><ele>291.0</ele><time>2026-05-02T08:29:00.217Z</time></trkpt><trkpt lat="43.267835" lon="12.1581246"><ele>291.3333333333333</ele><time>2026-05-02T08:29:01.198Z</time></trkpt><trkpt lat="43.2679531" lon="12.1583757"><ele>291.66666666666663</ele><time>2026-05-02T08:29:02.195Z</time></trkpt><trkpt lat="43.268072" lon="12.1586322"><ele>292.0</ele><time>2026-05-02T08:29:03.206Z</time></trkpt><trkpt lat="43.2681906" lon="12.1588863"><ele>291.0</ele><time>2026-05-02T08:29:04.203Z</time></trkpt><trkpt lat="43.2683047" lon="12.15914"><ele>290.0</ele><time>2026-05-02T08:29:05.203Z</time></trkpt><trkpt lat="43.2684171" lon="12.1593797"><ele>289.0</ele><time>2026-05-02T08:29:06.195Z</time></trkpt><trkpt lat="43.2685208" lon="12.1596161"><ele>289.0</ele><time>2026-05-02T08:29:07.196Z</time></trkpt><trkpt lat="43.2686264" lon="12.1598465"><ele>289.0</ele><time>2026-05-02T08:29:08.189Z</time></trkpt><trkpt lat="43.2687329" lon="12.1600829"><ele>289.0</ele><time>2026-05-02T08:29:09.21Z</time></trkpt><trkpt lat="43.2688332" lon="12.1603157"><ele>288.3333333333333</ele><time>2026-05-02T08:29:10.198Z</time></trkpt><trkpt lat="43.2689272" lon="12.1605484"><ele>287.6666666666667</ele><time>2026-05-02T08:29:11.207Z</time></trkpt><trkpt lat="43.2690156" lon="12.1607828"><ele>287.0</ele><time>2026-05-02T08:29:12.206Z</time></trkpt><trkpt lat="43.2690994" lon="12.1610198"><ele>287.6666666666667</ele><time>2026-05-02T08:29:13.221Z</time></trkpt><trkpt lat="43.2691813" lon="12.1612608"><ele>288.3333333333333</ele><time>2026-05-02T08:29:14.197Z</time></trkpt><trkpt lat="43.2692575" lon="12.1615033"><ele>289.0</ele><time>2026-05-02T08:29:15.202Z</time></trkpt><trkpt lat="43.2693299" lon="12.1617429"><ele>289.0</ele><time>2026-05-02T08:29:16.184Z</time></trkpt><trkpt lat="43.269409" lon="12.1619865"><ele>289.0</ele><time>2026-05-02T08:29:17.208Z</time></trkpt><trkpt lat="43.2694869" lon="12.1622228"><ele>289.0</ele><time>2026-05-02T08:29:18.194Z</time></trkpt><trkpt lat="43.2695667" lon="12.1624609"><ele>288.66666666666663</ele><time>2026-05-02T08:29:19.208Z</time></trkpt><trkpt lat="43.2696457" lon="12.1626911"><ele>288.3333333333333</ele><time>2026-05-02T08:29:20.204Z</time></trkpt><trkpt lat="43.269728" lon="12.1629188"><ele>288.0</ele><time>2026-05-02T08:29:21.199Z</time></trkpt><trkpt lat="43.2698073" lon="12.1631379"><ele>289.6666666666667</ele><time>2026-05-02T08:29:22.197Z</time></trkpt><trkpt lat="43.2698828" lon="12.1633529"><ele>291.33333333333337</ele><time>2026-05-02T08:29:23.194Z</time></trkpt><trkpt lat="43.2699608" lon="12.1635647"><ele>293.0</ele><time>2026-05-02T08:29:24.21Z</time></trkpt><trkpt lat="43.270036" lon="12.1637813"><ele>293.0</ele><time>2026-05-02T08:29:25.195Z</time></trkpt><trkpt lat="43.2701125" lon="12.1639999"><ele>293.0</ele><time>2026-05-02T08:29:26.199Z</time></trkpt><trkpt lat="43.2701966" lon="12.1642198"><ele>293.0</ele><time>2026-05-02T08:29:27.2Z</time></trkpt><trkpt lat="43.2702849" lon="12.1644408"><ele>293.33333333333337</ele><time>2026-05-02T08:29:28.197Z</time></trkpt><trkpt lat="43.2703796" lon="12.1646537"><ele>293.6666666666667</ele><time>2026-05-02T08:29:29.177Z</time></trkpt><trkpt lat="43.2704872" lon="12.1648522"><ele>294.0</ele><time>2026-05-02T08:29:30.187Z</time></trkpt><trkpt lat="43.2706088" lon="12.165025"><ele>294.0</ele><time>2026-05-02T08:29:31.201Z</time></trkpt><trkpt lat="43.2707443" lon="12.1651804"><ele>294.0</ele><time>2026-05-02T08:29:32.199Z</time></trkpt><trkpt lat="43.2708824" lon="12.1653263"><ele>294.0</ele><time>2026-05-02T08:29:33.191Z</time></trkpt><trkpt lat="43.2710356" lon="12.1654719"><ele>294.0</ele><time>2026-05-02T08:29:34.213Z</time></trkpt><trkpt lat="43.2711875" lon="12.1656354"><ele>294.0</ele><time>2026-05-02T08:29:35.195Z</time></trkpt><trkpt lat="43.2713255" lon="12.1658208"><ele>294.0</ele><time>2026-05-02T08:29:36.191Z</time></trkpt><trkpt lat="43.2714575" lon="12.1660164"><ele>292.6666666666667</ele><time>2026-05-02T08:29:37.204Z</time></trkpt><trkpt lat="43.2715886" lon="12.1662147"><ele>291.33333333333337</ele><time>2026-05-02T08:29:38.191Z</time></trkpt><trkpt lat="43.271728" lon="12.1664115"><ele>290.0</ele><time>2026-05-02T08:29:39.193Z</time></trkpt><trkpt lat="43.2718609" lon="12.1666081"><ele>289.6666666666667</ele><time>2026-05-02T08:29:40.2Z</time></trkpt><trkpt lat="43.2719961" lon="12.1668052"><ele>289.3333333333333</ele><time>2026-05-02T08:29:41.201Z</time></trkpt><trkpt lat="43.2721241" lon="12.1670058"><ele>289.0</ele><time>2026-05-02T08:29:42.196Z</time></trkpt><trkpt lat="43.2722481" lon="12.1672008"><ele>289.66666666666663</ele><time>2026-05-02T08:29:43.189Z</time></trkpt><trkpt lat="43.2723618" lon="12.167398"><ele>290.3333333333333</ele><time>2026-05-02T08:29:44.198Z</time></trkpt><trkpt lat="43.2724709" lon="12.1676049"><ele>291.0</ele><time>2026-05-02T08:29:45.191Z</time></trkpt><trkpt lat="43.272579" lon="12.167816"><ele>291.0</ele><time>2026-05-02T08:29:46.182Z</time></trkpt><trkpt lat="43.2726789" lon="12.1680403"><ele>291.0</ele><time>2026-05-02T08:29:47.196Z</time></trkpt><trkpt lat="43.2727821" lon="12.1682667"><ele>291.0</ele><time>2026-05-02T08:29:48.205Z</time></trkpt><trkpt lat="43.2728902" lon="12.1684874"><ele>290.6666666666667</ele><time>2026-05-02T08:29:49.2Z</time></trkpt><trkpt lat="43.2729995" lon="12.1687126"><ele>290.33333333333337</ele><time>2026-05-02T08:29:50.192Z</time></trkpt><trkpt lat="43.2731064" lon="12.1689381"><ele>290.0</ele><time>2026-05-02T08:29:51.203Z</time></trkpt><trkpt lat="43.2732127" lon="12.1691629"><ele>289.33333333333337</ele><time>2026-05-02T08:29:52.201Z</time></trkpt><trkpt lat="43.2733168" lon="12.169388"><ele>288.6666666666667</ele><time>2026-05-02T08:29:53.196Z</time></trkpt><trkpt lat="43.2734278" lon="12.1696087"><ele>288.0</ele><time>2026-05-02T08:29:54.201Z</time></trkpt><trkpt lat="43.2735327" lon="12.1698347"><ele>288.3333333333333</ele><time>2026-05-02T08:29:55.187Z</time></trkpt><trkpt lat="43.2736344" lon="12.1700586"><ele>288.66666666666663</ele><time>2026-05-02T08:29:56.2Z</time></trkpt><trkpt lat="43.2737413" lon="12.1702844"><ele>289.0</ele><time>2026-05-02T08:29:57.209Z</time></trkpt><trkpt lat="43.2738496" lon="12.170512"><ele>289.3333333333333</ele><time>2026-05-02T08:29:58.199Z</time></trkpt><trkpt lat="43.2739639" lon="12.1707424"><ele>289.6666666666667</ele><time>2026-05-02T08:29:59.199Z</time></trkpt><trkpt lat="43.2740766" lon="12.170978"><ele>290.0</ele><time>2026-05-02T08:30:00.209Z</time></trkpt><trkpt lat="43.2741939" lon="12.1712085"><ele>290.0</ele><time>2026-05-02T08:30:01.194Z</time></trkpt><trkpt lat="43.2743155" lon="12.1714409"><ele>290.0</ele><time>2026-05-02T08:30:02.203Z</time></trkpt><trkpt lat="43.2744289" lon="12.1716782"><ele>290.0</ele><time>2026-05-02T08:30:03.194Z</time></trkpt><trkpt lat="43.2745431" lon="12.1719143"><ele>290.0</ele><time>2026-05-02T08:30:04.203Z</time></trkpt><trkpt lat="43.2746587" lon="12.1721454"><ele>290.0</ele><time>2026-05-02T08:30:05.203Z</time></trkpt><trkpt lat="43.2747742" lon="12.1723774"><ele>290.0</ele><time>2026-05-02T08:30:06.208Z</time></trkpt><trkpt lat="43.2748856" lon="12.1726064"><ele>289.6666666666667</ele><time>2026-05-02T08:30:07.201Z</time></trkpt><trkpt lat="43.2749995" lon="12.1728325"><ele>289.3333333333333</ele><time>2026-05-02T08:30:08.204Z</time></trkpt><trkpt lat="43.2751109" lon="12.1730512"><ele>289.0</ele><time>2026-05-02T08:30:09.193Z</time></trkpt><trkpt lat="43.2752202" lon="12.1732729"><ele>288.66666666666663</ele><time>2026-05-02T08:30:10.195Z</time></trkpt><trkpt lat="43.2753295" lon="12.1734911"><ele>288.3333333333333</ele><time>2026-05-02T08:30:11.204Z</time></trkpt><trkpt lat="43.2754332" lon="12.1737084"><ele>288.0</ele><time>2026-05-02T08:30:12.204Z</time></trkpt><trkpt lat="43.275539" lon="12.1739306"><ele>289.6666666666667</ele><time>2026-05-02T08:30:13.204Z</time></trkpt><trkpt lat="43.2756505" lon="12.1741501"><ele>291.33333333333337</ele><time>2026-05-02T08:30:14.205Z</time></trkpt><trkpt lat="43.2757606" lon="12.1743701"><ele>293.0</ele><time>2026-05-02T08:30:15.186Z</time></trkpt><trkpt lat="43.2758721" lon="12.1745882"><ele>293.0</ele><time>2026-05-02T08:30:16.177Z</time></trkpt><trkpt lat="43.275976" lon="12.1748138"><ele>293.0</ele><time>2026-05-02T08:30:17.2Z</time></trkpt><trkpt lat="43.2760828" lon="12.1750477"><ele>293.0</ele><time>2026-05-02T08:30:18.198Z</time></trkpt><trkpt lat="43.276188" lon="12.1752851"><ele>292.33333333333337</ele><time>2026-05-02T08:30:19.195Z</time></trkpt><trkpt lat="43.2762901" lon="12.1755273"><ele>291.6666666666667</ele><time>2026-05-02T08:30:20.201Z</time></trkpt><trkpt lat="43.2763916" lon="12.175773"><ele>291.0</ele><time>2026-05-02T08:30:21.193Z</time></trkpt><trkpt lat="43.2764926" lon="12.1760192"><ele>291.0</ele><time>2026-05-02T08:30:22.207Z</time></trkpt><trkpt lat="43.2765947" lon="12.1762739"><ele>291.0</ele><time>2026-05-02T08:30:23.195Z</time></trkpt><trkpt lat="43.2767036" lon="12.1765391"><ele>291.0</ele><time>2026-05-02T08:30:24.197Z</time></trkpt><trkpt lat="43.2768064" lon="12.1768031"><ele>291.0</ele><time>2026-05-02T08:30:25.198Z</time></trkpt><trkpt lat="43.2769088" lon="12.1770624"><ele>291.0</ele><time>2026-05-02T08:30:26.198Z</time></trkpt><trkpt lat="43.2769965" lon="12.1773021"><ele>291.0</ele><time>2026-05-02T08:30:27.191Z</time></trkpt><trkpt lat="43.2770565" lon="12.1775422"><ele>290.0</ele><time>2026-05-02T08:30:28.194Z</time></trkpt><trkpt lat="43.2770907" lon="12.1778025"><ele>289.0</ele><time>2026-05-02T08:30:29.197Z</time></trkpt><trkpt lat="43.2771203" lon="12.1780695"><ele>288.0</ele><time>2026-05-02T08:30:30.173Z</time></trkpt><trkpt lat="43.2771448" lon="12.1783456"><ele>288.0</ele><time>2026-05-02T08:30:31.209Z</time></trkpt><trkpt lat="43.27717" lon="12.1786264"><ele>288.0</ele><time>2026-05-02T08:30:32.197Z</time></trkpt><trkpt lat="43.2771964" lon="12.1789101"><ele>288.0</ele><time>2026-05-02T08:30:33.195Z</time></trkpt><trkpt lat="43.2772215" lon="12.1791963"><ele>288.3333333333333</ele><time>2026-05-02T08:30:34.195Z</time></trkpt><trkpt lat="43.277249" lon="12.1794775"><ele>288.66666666666663</ele><time>2026-05-02T08:30:35.207Z</time></trkpt><trkpt lat="43.2772811" lon="12.1797624"><ele>289.0</ele><time>2026-05-02T08:30:36.21Z</time></trkpt><trkpt lat="43.2773133" lon="12.1800373"><ele>289.0</ele><time>2026-05-02T08:30:37.194Z</time></trkpt><trkpt lat="43.2773459" lon="12.1803096"><ele>289.0</ele><time>2026-05-02T08:30:38.201Z</time></trkpt><trkpt lat="43.2773749" lon="12.1805829"><ele>289.0</ele><time>2026-05-02T08:30:39.195Z</time></trkpt><trkpt lat="43.277408" lon="12.1808481"><ele>288.0</ele><time>2026-05-02T08:30:40.203Z</time></trkpt><trkpt lat="43.2774348" lon="12.1811113"><ele>287.0</ele><time>2026-05-02T08:30:41.172Z</time></trkpt><trkpt lat="43.277461" lon="12.1813799"><ele>286.0</ele><time>2026-05-02T08:30:42.198Z</time></trkpt><trkpt lat="43.2774869" lon="12.1816605"><ele>286.0</ele><time>2026-05-02T08:30:43.188Z</time></trkpt><trkpt lat="43.2775123" lon="12.1819408"><ele>286.0</ele><time>2026-05-02T08:30:44.183Z</time></trkpt><trkpt lat="43.2775448" lon="12.1822308"><ele>286.0</ele><time>2026-05-02T08:30:45.207Z</time></trkpt><trkpt lat="43.2775798" lon="12.1825213"><ele>286.0</ele><time>2026-05-02T08:30:46.21Z</time></trkpt><trkpt lat="43.2776085" lon="12.1828127"><ele>286.0</ele><time>2026-05-02T08:30:47.201Z</time></trkpt><trkpt lat="43.2776365" lon="12.183104"><ele>286.0</ele><time>2026-05-02T08:30:48.197Z</time></trkpt><trkpt lat="43.2776654" lon="12.1833914"><ele>286.0</ele><time>2026-05-02T08:30:49.203Z</time></trkpt><trkpt lat="43.2776928" lon="12.1836779"><ele>286.0</ele><time>2026-05-02T08:30:50.207Z</time></trkpt><trkpt lat="43.2777217" lon="12.1839632"><ele>286.0</ele><time>2026-05-02T08:30:51.197Z</time></trkpt><trkpt lat="43.2777542" lon="12.1842357"><ele>285.66666666666663</ele><time>2026-05-02T08:30:52.201Z</time></trkpt><trkpt lat="43.277781" lon="12.1845006"><ele>285.3333333333333</ele><time>2026-05-02T08:30:53.191Z</time></trkpt><trkpt lat="43.2778098" lon="12.1847619"><ele>285.0</ele><time>2026-05-02T08:30:54.205Z</time></trkpt><trkpt lat="43.2778375" lon="12.1850195"><ele>285.0</ele><time>2026-05-02T08:30:55.199Z</time></trkpt><trkpt lat="43.2778618" lon="12.1852759"><ele>285.0</ele><time>2026-05-02T08:30:56.2Z</time></trkpt><trkpt lat="43.2778896" lon="12.1855351"><ele>285.0</ele><time>2026-05-02T08:30:57.203Z</time></trkpt><trkpt lat="43.277913" lon="12.1857884"><ele>285.0</ele><time>2026-05-02T08:30:58.202Z</time></trkpt><trkpt lat="43.2779384" lon="12.1860477"><ele>285.0</ele><time>2026-05-02T08:30:59.199Z</time></trkpt><trkpt lat="43.277967" lon="12.1863049"><ele>285.0</ele><time>2026-05-02T08:31:00.209Z</time></trkpt><trkpt lat="43.2779958" lon="12.1865698"><ele>284.6666666666667</ele><time>2026-05-02T08:31:01.207Z</time></trkpt><trkpt lat="43.2780246" lon="12.1868404"><ele>284.33333333333337</ele><time>2026-05-02T08:31:02.187Z</time></trkpt><trkpt lat="43.2780538" lon="12.1871101"><ele>284.0</ele><time>2026-05-02T08:31:03.182Z</time></trkpt><trkpt lat="43.2780856" lon="12.1873803"><ele>284.6666666666667</ele><time>2026-05-02T08:31:04.204Z</time></trkpt><trkpt lat="43.2781123" lon="12.1876474"><ele>285.3333333333333</ele><time>2026-05-02T08:31:05.199Z</time></trkpt><trkpt lat="43.2781377" lon="12.1879197"><ele>286.0</ele><time>2026-05-02T08:31:06.195Z</time></trkpt><trkpt lat="43.2781652" lon="12.1881934"><ele>286.0</ele><time>2026-05-02T08:31:07.197Z</time></trkpt><trkpt lat="43.2781953" lon="12.1884655"><ele>286.0</ele><time>2026-05-02T08:31:08.19Z</time></trkpt><trkpt lat="43.2782237" lon="12.1887414"><ele>286.0</ele><time>2026-05-02T08:31:09.2Z</time></trkpt><trkpt lat="43.2782503" lon="12.1890185"><ele>286.3333333333333</ele><time>2026-05-02T08:31:10.204Z</time></trkpt><trkpt lat="43.2782786" lon="12.1892993"><ele>286.6666666666667</ele><time>2026-05-02T08:31:11.2Z</time></trkpt><trkpt lat="43.2783081" lon="12.1895767"><ele>287.0</ele><time>2026-05-02T08:31:12.191Z</time></trkpt><trkpt lat="43.2783358" lon="12.1898535"><ele>287.33333333333337</ele><time>2026-05-02T08:31:13.197Z</time></trkpt><trkpt lat="43.2783654" lon="12.1901309"><ele>287.6666666666667</ele><time>2026-05-02T08:31:14.205Z</time></trkpt><trkpt lat="43.2783962" lon="12.1904091"><ele>288.0</ele><time>2026-05-02T08:31:15.202Z</time></trkpt><trkpt lat="43.2784304" lon="12.1906827"><ele>286.6666666666667</ele><time>2026-05-02T08:31:16.18Z</time></trkpt><trkpt lat="43.2784672" lon="12.1909564"><ele>285.33333333333337</ele><time>2026-05-02T08:31:17.196Z</time></trkpt><trkpt lat="43.2785069" lon="12.1912208"><ele>284.0</ele><time>2026-05-02T08:31:18.183Z</time></trkpt><trkpt lat="43.2785484" lon="12.1914674"><ele>284.0</ele><time>2026-05-02T08:31:19.195Z</time></trkpt><trkpt lat="43.2785844" lon="12.1917011"><ele>284.0</ele><time>2026-05-02T08:31:20.199Z</time></trkpt><trkpt lat="43.2786213" lon="12.1919238"><ele>284.0</ele><time>2026-05-02T08:31:21.188Z</time></trkpt><trkpt lat="43.278669" lon="12.1921471"><ele>284.0</ele><time>2026-05-02T08:31:22.193Z</time></trkpt><trkpt lat="43.2787217" lon="12.192352"><ele>284.0</ele><time>2026-05-02T08:31:23.2Z</time></trkpt><trkpt lat="43.2787844" lon="12.1925376"><ele>284.0</ele><time>2026-05-02T08:31:24.208Z</time></trkpt><trkpt lat="43.2788696" lon="12.192707"><ele>285.0</ele><time>2026-05-02T08:31:25.218Z</time></trkpt><trkpt lat="43.2789677" lon="12.1928724"><ele>286.0</ele><time>2026-05-02T08:31:26.186Z</time></trkpt><trkpt lat="43.2790843" lon="12.1930395"><ele>287.0</ele><time>2026-05-02T08:31:27.205Z</time></trkpt><trkpt lat="43.2792134" lon="12.1932079"><ele>287.0</ele><time>2026-05-02T08:31:28.202Z</time></trkpt><trkpt lat="43.2793519" lon="12.193369"><ele>287.0</ele><time>2026-05-02T08:31:29.198Z</time></trkpt><trkpt lat="43.2794936" lon="12.1935387"><ele>287.0</ele><time>2026-05-02T08:31:30.205Z</time></trkpt><trkpt lat="43.2796352" lon="12.1937255"><ele>287.0</ele><time>2026-05-02T08:31:31.182Z</time></trkpt><trkpt lat="43.2797639" lon="12.1939368"><ele>287.0</ele><time>2026-05-02T08:31:32.205Z</time></trkpt><trkpt lat="43.2798722" lon="12.1941538"><ele>287.0</ele><time>2026-05-02T08:31:33.19Z</time></trkpt><trkpt lat="43.2799768" lon="12.194386"><ele>286.33333333333337</ele><time>2026-05-02T08:31:34.199Z</time></trkpt><trkpt lat="43.2800807" lon="12.1946324"><ele>285.6666666666667</ele><time>2026-05-02T08:31:35.191Z</time></trkpt><trkpt lat="43.2801874" lon="12.1948767"><ele>285.0</ele><time>2026-05-02T08:31:36.198Z</time></trkpt><trkpt lat="43.2802988" lon="12.1951177"><ele>284.6666666666667</ele><time>2026-05-02T08:31:37.214Z</time></trkpt><trkpt lat="43.2804078" lon="12.1953592"><ele>284.33333333333337</ele><time>2026-05-02T08:31:38.198Z</time></trkpt><trkpt lat="43.2805116" lon="12.1956059"><ele>284.0</ele><time>2026-05-02T08:31:39.204Z</time></trkpt><trkpt lat="43.2806036" lon="12.1958526"><ele>285.33333333333337</ele><time>2026-05-02T08:31:40.201Z</time></trkpt><trkpt lat="43.2806902" lon="12.1961166"><ele>286.6666666666667</ele><time>2026-05-02T08:31:41.193Z</time></trkpt><trkpt lat="43.2807679" lon="12.1963809"><ele>288.0</ele><time>2026-05-02T08:31:42.201Z</time></trkpt><trkpt lat="43.2808476" lon="12.1966509"><ele>288.0</ele><time>2026-05-02T08:31:43.197Z</time></trkpt><trkpt lat="43.2809282" lon="12.196914"><ele>288.0</ele><time>2026-05-02T08:31:44.203Z</time></trkpt><trkpt lat="43.2810103" lon="12.1971686"><ele>288.0</ele><time>2026-05-02T08:31:45.2Z</time></trkpt><trkpt lat="43.2810812" lon="12.1974202"><ele>286.6666666666667</ele><time>2026-05-02T08:31:46.211Z</time></trkpt><trkpt lat="43.2811335" lon="12.1976693"><ele>285.33333333333337</ele><time>2026-05-02T08:31:47.202Z</time></trkpt><trkpt lat="43.2811637" lon="12.1979136"><ele>284.0</ele><time>2026-05-02T08:31:48.205Z</time></trkpt><trkpt lat="43.2811521" lon="12.1981717"><ele>283.33333333333337</ele><time>2026-05-02T08:31:49.201Z</time></trkpt><trkpt lat="43.2811136" lon="12.1984286"><ele>282.6666666666667</ele><time>2026-05-02T08:31:50.203Z</time></trkpt><trkpt lat="43.2810521" lon="12.1986796"><ele>282.0</ele><time>2026-05-02T08:31:51.203Z</time></trkpt><trkpt lat="43.2809733" lon="12.1989238"><ele>282.6666666666667</ele><time>2026-05-02T08:31:52.2Z</time></trkpt><trkpt lat="43.2808885" lon="12.1991702"><ele>283.33333333333337</ele><time>2026-05-02T08:31:53.197Z</time></trkpt><trkpt lat="43.2808091" lon="12.1994175"><ele>284.0</ele><time>2026-05-02T08:31:54.194Z</time></trkpt><trkpt lat="43.2807264" lon="12.1996711"><ele>284.0</ele><time>2026-05-02T08:31:55.205Z</time></trkpt><trkpt lat="43.2806456" lon="12.1999194"><ele>284.0</ele><time>2026-05-02T08:31:56.205Z</time></trkpt><trkpt lat="43.2805687" lon="12.2001699"><ele>284.0</ele><time>2026-05-02T08:31:57.2Z</time></trkpt><trkpt lat="43.2804884" lon="12.2004123"><ele>284.0</ele><time>2026-05-02T08:31:58.203Z</time></trkpt><trkpt lat="43.28041" lon="12.2006614"><ele>284.0</ele><time>2026-05-02T08:31:59.184Z</time></trkpt><trkpt lat="43.2803314" lon="12.200907"><ele>284.0</ele><time>2026-05-02T08:32:00.2Z</time></trkpt><trkpt lat="43.2802585" lon="12.201137"><ele>283.6666666666667</ele><time>2026-05-02T08:32:01.198Z</time></trkpt><trkpt lat="43.2801874" lon="12.2013505"><ele>283.3333333333333</ele><time>2026-05-02T08:32:02.205Z</time></trkpt><trkpt lat="43.2801315" lon="12.2015486"><ele>283.0</ele><time>2026-05-02T08:32:03.193Z</time></trkpt><trkpt lat="43.2801096" lon="12.2017347"><ele>283.3333333333333</ele><time>2026-05-02T08:32:04.194Z</time></trkpt><trkpt lat="43.2801245" lon="12.2019416"><ele>283.6666666666667</ele><time>2026-05-02T08:32:05.201Z</time></trkpt><trkpt lat="43.2801791" lon="12.2021422"><ele>284.0</ele><time>2026-05-02T08:32:06.207Z</time></trkpt><trkpt lat="43.2802623" lon="12.2023455"><ele>284.0</ele><time>2026-05-02T08:32:07.208Z</time></trkpt><trkpt lat="43.2803697" lon="12.2025507"><ele>284.0</ele><time>2026-05-02T08:32:08.209Z</time></trkpt><trkpt lat="43.2804959" lon="12.2027482"><ele>284.0</ele><time>2026-05-02T08:32:09.188Z</time></trkpt><trkpt lat="43.2806352" lon="12.2029387"><ele>285.0</ele><time>2026-05-02T08:32:10.177Z</time></trkpt><trkpt lat="43.2807737" lon="12.2031432"><ele>286.0</ele><time>2026-05-02T08:32:11.195Z</time></trkpt><trkpt lat="43.2809225" lon="12.2033469"><ele>287.0</ele><time>2026-05-02T08:32:12.182Z</time></trkpt><trkpt lat="43.2810772" lon="12.2035484"><ele>287.0</ele><time>2026-05-02T08:32:13.189Z</time></trkpt><trkpt lat="43.2812308" lon="12.203754"><ele>287.0</ele><time>2026-05-02T08:32:14.197Z</time></trkpt><trkpt lat="43.2813853" lon="12.2039659"><ele>287.0</ele><time>2026-05-02T08:32:15.205Z</time></trkpt><trkpt lat="43.2815414" lon="12.2041777"><ele>287.6666666666667</ele><time>2026-05-02T08:32:16.173Z</time></trkpt><trkpt lat="43.2816939" lon="12.2043814"><ele>288.3333333333333</ele><time>2026-05-02T08:32:17.206Z</time></trkpt><trkpt lat="43.2818375" lon="12.204586"><ele>289.0</ele><time>2026-05-02T08:32:18.198Z</time></trkpt><trkpt lat="43.2819639" lon="12.2047984"><ele>289.66666666666663</ele><time>2026-05-02T08:32:19.204Z</time></trkpt><trkpt lat="43.2820836" lon="12.2050201"><ele>290.3333333333333</ele><time>2026-05-02T08:32:20.194Z</time></trkpt><trkpt lat="43.28219" lon="12.205256"><ele>291.0</ele><time>2026-05-02T08:32:21.195Z</time></trkpt><trkpt lat="43.2822811" lon="12.205503"><ele>288.0</ele><time>2026-05-02T08:32:22.17Z</time></trkpt><trkpt lat="43.2823656" lon="12.2057556"><ele>285.0</ele><time>2026-05-02T08:32:23.196Z</time></trkpt><trkpt lat="43.2824484" lon="12.206025"><ele>282.0</ele><time>2026-05-02T08:32:24.208Z</time></trkpt><trkpt lat="43.2825221" lon="12.2062813"><ele>283.0</ele><time>2026-05-02T08:32:25.188Z</time></trkpt><trkpt lat="43.2826008" lon="12.2065435"><ele>284.0</ele><time>2026-05-02T08:32:26.194Z</time></trkpt><trkpt lat="43.282677" lon="12.2068019"><ele>285.0</ele><time>2026-05-02T08:32:27.2Z</time></trkpt><trkpt lat="43.2827557" lon="12.2070574"><ele>285.0</ele><time>2026-05-02T08:32:28.209Z</time></trkpt><trkpt lat="43.2828331" lon="12.2073216"><ele>285.0</ele><time>2026-05-02T08:32:29.218Z</time></trkpt><trkpt lat="43.2829077" lon="12.2075828"><ele>285.0</ele><time>2026-05-02T08:32:30.209Z</time></trkpt><trkpt lat="43.2829857" lon="12.2078391"><ele>284.3333333333333</ele><time>2026-05-02T08:32:31.2Z</time></trkpt><trkpt lat="43.2830585" lon="12.2080793"><ele>283.66666666666663</ele><time>2026-05-02T08:32:32.181Z</time></trkpt><trkpt lat="43.2831278" lon="12.2083063"><ele>283.0</ele><time>2026-05-02T08:32:33.194Z</time></trkpt><trkpt lat="43.2832022" lon="12.2085122"><ele>284.25</ele><time>2026-05-02T08:32:34.192Z</time></trkpt><trkpt lat="43.2832707" lon="12.2087041"><ele>285.5</ele><time>2026-05-02T08:32:35.199Z</time></trkpt><trkpt lat="43.2833509" lon="12.208858"><ele>286.75</ele><time>2026-05-02T08:32:36.2Z</time></trkpt><trkpt lat="43.2834583" lon="12.2089766"><ele>288.0</ele><time>2026-05-02T08:32:37.218Z</time></trkpt><trkpt lat="43.2836038" lon="12.2090218"><ele>288.0</ele><time>2026-05-02T08:32:38.196Z</time></trkpt><trkpt lat="43.2837754" lon="12.2090428"><ele>288.0</ele><time>2026-05-02T08:32:39.196Z</time></trkpt><trkpt lat="43.2839472" lon="12.2090356"><ele>288.0</ele><time>2026-05-02T08:32:40.178Z</time></trkpt><trkpt lat="43.2841183" lon="12.2090351"><ele>290.0</ele><time>2026-05-02T08:32:41.205Z</time></trkpt><trkpt lat="43.2842818" lon="12.2090329"><ele>292.0</ele><time>2026-05-02T08:32:42.204Z</time></trkpt><trkpt lat="43.2844385" lon="12.20904"><ele>294.0</ele><time>2026-05-02T08:32:43.197Z</time></trkpt><trkpt lat="43.2845851" lon="12.2090565"><ele>294.0</ele><time>2026-05-02T08:32:44.19Z</time></trkpt><trkpt lat="43.2847167" lon="12.2091051"><ele>294.0</ele><time>2026-05-02T08:32:45.177Z</time></trkpt><trkpt lat="43.2848481" lon="12.2092075"><ele>294.0</ele><time>2026-05-02T08:32:46.199Z</time></trkpt><trkpt lat="43.2849569" lon="12.2093369"><ele>294.0</ele><time>2026-05-02T08:32:47.192Z</time></trkpt><trkpt lat="43.285053" lon="12.2094698"><ele>292.5</ele><time>2026-05-02T08:32:48.199Z</time></trkpt><trkpt lat="43.285137" lon="12.2095921"><ele>291.0</ele><time>2026-05-02T08:32:49.205Z</time></trkpt><trkpt lat="43.285213" lon="12.2097101"><ele>289.5</ele><time>2026-05-02T08:32:50.189Z</time></trkpt><trkpt lat="43.2853044" lon="12.209815"><ele>288.0</ele><time>2026-05-02T08:32:51.18Z</time></trkpt><trkpt lat="43.2854127" lon="12.2098777"><ele>288.0</ele><time>2026-05-02T08:32:52.195Z</time></trkpt><trkpt lat="43.2855688" lon="12.2098766"><ele>288.0</ele><time>2026-05-02T08:32:53.193Z</time></trkpt><trkpt lat="43.2857308" lon="12.2098439"><ele>288.0</ele><time>2026-05-02T08:32:54.183Z</time></trkpt><trkpt lat="43.2858986" lon="12.2098234"><ele>290.75</ele><time>2026-05-02T08:32:55.208Z</time></trkpt><trkpt lat="43.286049" lon="12.2098284"><ele>293.5</ele><time>2026-05-02T08:32:56.2Z</time></trkpt><trkpt lat="43.2861809" lon="12.2098803"><ele>296.25</ele><time>2026-05-02T08:32:57.197Z</time></trkpt><trkpt lat="43.2862938" lon="12.2099655"><ele>299.0</ele><time>2026-05-02T08:32:58.18Z</time></trkpt><trkpt lat="43.2863885" lon="12.2101033"><ele>299.6666666666667</ele><time>2026-05-02T08:32:59.203Z</time></trkpt><trkpt lat="43.2864473" lon="12.2102913"><ele>300.3333333333333</ele><time>2026-05-02T08:33:00.196Z</time></trkpt><trkpt lat="43.2865033" lon="12.2105054"><ele>301.0</ele><time>2026-05-02T08:33:01.211Z</time></trkpt><trkpt lat="43.2865369" lon="12.2107426"><ele>301.0</ele><time>2026-05-02T08:33:02.197Z</time></trkpt><trkpt lat="43.2865745" lon="12.2109813"><ele>301.0</ele><time>2026-05-02T08:33:03.205Z</time></trkpt><trkpt lat="43.2866212" lon="12.2112192"><ele>301.0</ele><time>2026-05-02T08:33:04.184Z</time></trkpt><trkpt lat="43.2866884" lon="12.2114567"><ele>297.66666666666663</ele><time>2026-05-02T08:33:05.205Z</time></trkpt><trkpt lat="43.2867716" lon="12.211692"><ele>294.3333333333333</ele><time>2026-05-02T08:33:06.188Z</time></trkpt><trkpt lat="43.2868599" lon="12.2119238"><ele>291.0</ele><time>2026-05-02T08:33:07.201Z</time></trkpt><trkpt lat="43.2869449" lon="12.2121491"><ele>289.3333333333333</ele><time>2026-05-02T08:33:08.203Z</time></trkpt><trkpt lat="43.2870446" lon="12.2123395"><ele>287.66666666666663</ele><time>2026-05-02T08:33:09.204Z</time></trkpt><trkpt lat="43.2871676" lon="12.2124873"><ele>286.0</ele><time>2026-05-02T08:33:10.226Z</time></trkpt><trkpt lat="43.2873007" lon="12.2125888"><ele>286.0</ele><time>2026-05-02T08:33:11.206Z</time></trkpt><trkpt lat="43.2874437" lon="12.2126391"><ele>286.0</ele><time>2026-05-02T08:33:12.202Z</time></trkpt><trkpt lat="43.2875701" lon="12.2126514"><ele>286.0</ele><time>2026-05-02T08:33:13.195Z</time></trkpt><trkpt lat="43.2876743" lon="12.2125638"><ele>286.0</ele><time>2026-05-02T08:33:14.201Z</time></trkpt><trkpt lat="43.2877372" lon="12.2124369"><ele>286.75</ele><time>2026-05-02T08:33:15.203Z</time></trkpt><trkpt lat="43.2877681" lon="12.2122587"><ele>287.5</ele><time>2026-05-02T08:33:16.196Z</time></trkpt><trkpt lat="43.2877506" lon="12.2120571"><ele>288.25</ele><time>2026-05-02T08:33:17.194Z</time></trkpt><trkpt lat="43.287699" lon="12.2118551"><ele>289.0</ele><time>2026-05-02T08:33:18.194Z</time></trkpt><trkpt lat="43.2876516" lon="12.2116563"><ele>289.25</ele><time>2026-05-02T08:33:19.192Z</time></trkpt><trkpt lat="43.2876377" lon="12.2114796"><ele>289.5</ele><time>2026-05-02T08:33:20.206Z</time></trkpt><trkpt lat="43.2876623" lon="12.2113219"><ele>289.75</ele><time>2026-05-02T08:33:21.206Z</time></trkpt><trkpt lat="43.2877346" lon="12.2111794"><ele>290.0</ele><time>2026-05-02T08:33:22.197Z</time></trkpt><trkpt lat="43.2878183" lon="12.2110724"><ele>290.0</ele><time>2026-05-02T08:33:23.201Z</time></trkpt><trkpt lat="43.2879261" lon="12.2109989"><ele>290.0</ele><time>2026-05-02T08:33:24.207Z</time></trkpt><trkpt lat="43.2880598" lon="12.2109374"><ele>290.0</ele><time>2026-05-02T08:33:25.186Z</time></trkpt><trkpt lat="43.2882213" lon="12.2108784"><ele>290.0</ele><time>2026-05-02T08:33:26.198Z</time></trkpt><trkpt lat="43.2883843" lon="12.2108124"><ele>291.0</ele><time>2026-05-02T08:33:27.183Z</time></trkpt><trkpt lat="43.2885636" lon="12.2107465"><ele>292.0</ele><time>2026-05-02T08:33:28.187Z</time></trkpt><trkpt lat="43.2887519" lon="12.2106788"><ele>293.0</ele><time>2026-05-02T08:33:29.209Z</time></trkpt><trkpt lat="43.2889458" lon="12.2106078"><ele>293.0</ele><time>2026-05-02T08:33:30.195Z</time></trkpt><trkpt lat="43.2891409" lon="12.2105391"><ele>293.0</ele><time>2026-05-02T08:33:31.201Z</time></trkpt><trkpt lat="43.2893422" lon="12.2104638"><ele>293.0</ele><time>2026-05-02T08:33:32.196Z</time></trkpt><trkpt lat="43.2895365" lon="12.2103944"><ele>293.0</ele><time>2026-05-02T08:33:33.186Z</time></trkpt><trkpt lat="43.2897311" lon="12.2103224"><ele>293.0</ele><time>2026-05-02T08:33:34.206Z</time></trkpt><trkpt lat="43.2899232" lon="12.2102494"><ele>293.0</ele><time>2026-05-02T08:33:35.199Z</time></trkpt><trkpt lat="43.2901071" lon="12.2101776"><ele>291.6666666666667</ele><time>2026-05-02T08:33:36.207Z</time></trkpt><trkpt lat="43.2902816" lon="12.2101126"><ele>290.3333333333333</ele><time>2026-05-02T08:33:37.187Z</time></trkpt><trkpt lat="43.2904531" lon="12.2100612"><ele>289.0</ele><time>2026-05-02T08:33:38.2Z</time></trkpt><trkpt lat="43.2906275" lon="12.210008"><ele>288.66666666666663</ele><time>2026-05-02T08:33:39.204Z</time></trkpt><trkpt lat="43.2908036" lon="12.2099752"><ele>288.3333333333333</ele><time>2026-05-02T08:33:40.195Z</time></trkpt><trkpt lat="43.2909789" lon="12.2099663"><ele>288.0</ele><time>2026-05-02T08:33:41.204Z</time></trkpt><trkpt lat="43.2911645" lon="12.2099904"><ele>288.0</ele><time>2026-05-02T08:33:42.198Z</time></trkpt><trkpt lat="43.2913434" lon="12.2100447"><ele>288.0</ele><time>2026-05-02T08:33:43.196Z</time></trkpt><trkpt lat="43.2915285" lon="12.2101419"><ele>288.0</ele><time>2026-05-02T08:33:44.208Z</time></trkpt><trkpt lat="43.2917021" lon="12.2102453"><ele>290.0</ele><time>2026-05-02T08:33:45.211Z</time></trkpt><trkpt lat="43.2918755" lon="12.2103431"><ele>292.0</ele><time>2026-05-02T08:33:46.198Z</time></trkpt><trkpt lat="43.2920427" lon="12.2104441"><ele>294.0</ele><time>2026-05-02T08:33:47.199Z</time></trkpt><trkpt lat="43.2921861" lon="12.2105806"><ele>290.6666666666667</ele><time>2026-05-02T08:33:48.21Z</time></trkpt><trkpt lat="43.2923122" lon="12.2107641"><ele>287.33333333333337</ele><time>2026-05-02T08:33:49.188Z</time></trkpt><trkpt lat="43.2924184" lon="12.2109765"><ele>284.0</ele><time>2026-05-02T08:33:50.198Z</time></trkpt><trkpt lat="43.2925153" lon="12.2112028"><ele>284.0</ele><time>2026-05-02T08:33:51.201Z</time></trkpt><trkpt lat="43.2926142" lon="12.2114346"><ele>284.0</ele><time>2026-05-02T08:33:52.203Z</time></trkpt><trkpt lat="43.29271" lon="12.2116889"><ele>284.0</ele><time>2026-05-02T08:33:53.19Z</time></trkpt><trkpt lat="43.2928164" lon="12.2119365"><ele>282.6666666666667</ele><time>2026-05-02T08:33:54.193Z</time></trkpt><trkpt lat="43.2929222" lon="12.2121846"><ele>281.3333333333333</ele><time>2026-05-02T08:33:55.201Z</time></trkpt><trkpt lat="43.2930272" lon="12.212437"><ele>280.0</ele><time>2026-05-02T08:33:56.197Z</time></trkpt><trkpt lat="43.2931401" lon="12.2126934"><ele>280.0</ele><time>2026-05-02T08:33:57.212Z</time></trkpt><trkpt lat="43.2932513" lon="12.2129468"><ele>280.0</ele><time>2026-05-02T08:33:58.196Z</time></trkpt><trkpt lat="43.2933632" lon="12.2132051"><ele>280.0</ele><time>2026-05-02T08:33:59.198Z</time></trkpt><trkpt lat="43.2934743" lon="12.2134588"><ele>280.0</ele><time>2026-05-02T08:34:00.189Z</time></trkpt><trkpt lat="43.2935705" lon="12.2137095"><ele>280.0</ele><time>2026-05-02T08:34:01.203Z</time></trkpt><trkpt lat="43.2936506" lon="12.2139661"><ele>280.0</ele><time>2026-05-02T08:34:02.206Z</time></trkpt><trkpt lat="43.2937185" lon="12.2142387"><ele>279.3333333333333</ele><time>2026-05-02T08:34:03.202Z</time></trkpt><trkpt lat="43.2937602" lon="12.2145256"><ele>278.6666666666667</ele><time>2026-05-02T08:34:04.208Z</time></trkpt><trkpt lat="43.2937843" lon="12.2148148"><ele>278.0</ele><time>2026-05-02T08:34:05.197Z</time></trkpt><trkpt lat="43.2938005" lon="12.2151096"><ele>278.0</ele><time>2026-05-02T08:34:06.21Z</time></trkpt><trkpt lat="43.2938191" lon="12.2154072"><ele>278.0</ele><time>2026-05-02T08:34:07.163Z</time></trkpt><trkpt lat="43.2938371" lon="12.215707"><ele>278.0</ele><time>2026-05-02T08:34:08.2Z</time></trkpt><trkpt lat="43.2938541" lon="12.2160099"><ele>278.0</ele><time>2026-05-02T08:34:09.206Z</time></trkpt><trkpt lat="43.2938719" lon="12.2163187"><ele>278.0</ele><time>2026-05-02T08:34:10.193Z</time></trkpt><trkpt lat="43.2938885" lon="12.2166175"><ele>278.0</ele><time>2026-05-02T08:34:11.2Z</time></trkpt><trkpt lat="43.2939105" lon="12.2169153"><ele>281.6666666666667</ele><time>2026-05-02T08:34:12.206Z</time></trkpt><trkpt lat="43.2939266" lon="12.2172085"><ele>285.3333333333333</ele><time>2026-05-02T08:34:13.212Z</time></trkpt><trkpt lat="43.2939448" lon="12.2174993"><ele>289.0</ele><time>2026-05-02T08:34:14.206Z</time></trkpt><trkpt lat="43.2939587" lon="12.2177807"><ele>289.0</ele><time>2026-05-02T08:34:15.193Z</time></trkpt><trkpt lat="43.2939732" lon="12.2180529"><ele>289.0</ele><time>2026-05-02T08:34:16.191Z</time></trkpt><trkpt lat="43.2939866" lon="12.2183124"><ele>289.0</ele><time>2026-05-02T08:34:17.203Z</time></trkpt><trkpt lat="43.2940086" lon="12.2185614"><ele>287.66666666666663</ele><time>2026-05-02T08:34:18.193Z</time></trkpt><trkpt lat="43.2940543" lon="12.2188145"><ele>286.3333333333333</ele><time>2026-05-02T08:34:19.196Z</time></trkpt><trkpt lat="43.2941377" lon="12.2190626"><ele>285.0</ele><time>2026-05-02T08:34:20.204Z</time></trkpt><trkpt lat="43.2942516" lon="12.2193172"><ele>283.0</ele><time>2026-05-02T08:34:21.187Z</time></trkpt><trkpt lat="43.2943588" lon="12.2195729"><ele>281.0</ele><time>2026-05-02T08:34:22.194Z</time></trkpt><trkpt lat="43.2944689" lon="12.2198105"><ele>279.0</ele><time>2026-05-02T08:34:23.169Z</time></trkpt><trkpt lat="43.29457" lon="12.2200369"><ele>278.0</ele><time>2026-05-02T08:34:24.172Z</time></trkpt><trkpt lat="43.2946591" lon="12.2202389"><ele>277.0</ele><time>2026-05-02T08:34:25.202Z</time></trkpt><trkpt lat="43.2947512" lon="12.2204145"><ele>276.0</ele><time>2026-05-02T08:34:26.204Z</time></trkpt><trkpt lat="43.2948702" lon="12.2205397"><ele>277.3333333333333</ele><time>2026-05-02T08:34:27.185Z</time></trkpt><trkpt lat="43.2950083" lon="12.220632"><ele>278.66666666666663</ele><time>2026-05-02T08:34:28.174Z</time></trkpt><trkpt lat="43.2951802" lon="12.2206526"><ele>280.0</ele><time>2026-05-02T08:34:29.198Z</time></trkpt><trkpt lat="43.2953571" lon="12.2206423"><ele>281.0</ele><time>2026-05-02T08:34:30.202Z</time></trkpt><trkpt lat="43.2955489" lon="12.220622"><ele>282.0</ele><time>2026-05-02T08:34:31.205Z</time></trkpt><trkpt lat="43.2957478" lon="12.2205878"><ele>283.0</ele><time>2026-05-02T08:34:32.205Z</time></trkpt><trkpt lat="43.2959465" lon="12.2205657"><ele>283.66666666666663</ele><time>2026-05-02T08:34:33.183Z</time></trkpt><trkpt lat="43.2961403" lon="12.2205396"><ele>284.3333333333333</ele><time>2026-05-02T08:34:34.184Z</time></trkpt><trkpt lat="43.2963177" lon="12.2205087"><ele>285.0</ele><time>2026-05-02T08:34:35.212Z</time></trkpt><trkpt lat="43.2964855" lon="12.2204721"><ele>285.0</ele><time>2026-05-02T08:34:36.205Z</time></trkpt><trkpt lat="43.2966477" lon="12.2204118"><ele>285.0</ele><time>2026-05-02T08:34:37.199Z</time></trkpt><trkpt lat="43.2968098" lon="12.2203131"><ele>285.0</ele><time>2026-05-02T08:34:38.208Z</time></trkpt><trkpt lat="43.296978" lon="12.2202008"><ele>285.0</ele><time>2026-05-02T08:34:39.185Z</time></trkpt><trkpt lat="43.2971432" lon="12.2200845"><ele>285.0</ele><time>2026-05-02T08:34:40.192Z</time></trkpt><trkpt lat="43.2972986" lon="12.2199811"><ele>285.0</ele><time>2026-05-02T08:34:41.177Z</time></trkpt><trkpt lat="43.2974588" lon="12.2199125"><ele>283.6666666666667</ele><time>2026-05-02T08:34:42.199Z</time></trkpt><trkpt lat="43.2976127" lon="12.2199031"><ele>282.33333333333337</ele><time>2026-05-02T08:34:43.194Z</time></trkpt><trkpt lat="43.2977656" lon="12.2199408"><ele>281.0</ele><time>2026-05-02T08:34:44.205Z</time></trkpt><trkpt lat="43.2979135" lon="12.2200261"><ele>281.0</ele><time>2026-05-02T08:34:45.195Z</time></trkpt><trkpt lat="43.2980415" lon="12.2201594"><ele>281.0</ele><time>2026-05-02T08:34:46.189Z</time></trkpt><trkpt lat="43.2981624" lon="12.220341"><ele>281.0</ele><time>2026-05-02T08:34:47.205Z</time></trkpt><trkpt lat="43.2982593" lon="12.2205637"><ele>282.6666666666667</ele><time>2026-05-02T08:34:48.201Z</time></trkpt><trkpt lat="43.2983543" lon="12.2207918"><ele>284.3333333333333</ele><time>2026-05-02T08:34:49.192Z</time></trkpt><trkpt lat="43.2984457" lon="12.2210303"><ele>286.0</ele><time>2026-05-02T08:34:50.196Z</time></trkpt><trkpt lat="43.2985421" lon="12.2212722"><ele>284.3333333333333</ele><time>2026-05-02T08:34:51.206Z</time></trkpt><trkpt lat="43.2986366" lon="12.2215135"><ele>282.6666666666667</ele><time>2026-05-02T08:34:52.205Z</time></trkpt><trkpt lat="43.2987279" lon="12.2217382"><ele>281.0</ele><time>2026-05-02T08:34:53.205Z</time></trkpt><trkpt lat="43.2988226" lon="12.2219588"><ele>281.0</ele><time>2026-05-02T08:34:54.198Z</time></trkpt><trkpt lat="43.2989284" lon="12.2221707"><ele>281.0</ele><time>2026-05-02T08:34:55.194Z</time></trkpt><trkpt lat="43.2990681" lon="12.2223783"><ele>281.0</ele><time>2026-05-02T08:34:56.219Z</time></trkpt><trkpt lat="43.2992338" lon="12.2225884"><ele>281.0</ele><time>2026-05-02T08:34:57.199Z</time></trkpt><trkpt lat="43.2994" lon="12.2228167"><ele>281.0</ele><time>2026-05-02T08:34:58.204Z</time></trkpt><trkpt lat="43.2995643" lon="12.2230604"><ele>280.6666666666667</ele><time>2026-05-02T08:34:59.206Z</time></trkpt><trkpt lat="43.2997187" lon="12.2232829"><ele>280.3333333333333</ele><time>2026-05-02T08:35:00.197Z</time></trkpt><trkpt lat="43.2998669" lon="12.2234926"><ele>280.0</ele><time>2026-05-02T08:35:01.19Z</time></trkpt><trkpt lat="43.3000122" lon="12.2236855"><ele>280.0</ele><time>2026-05-02T08:35:02.201Z</time></trkpt><trkpt lat="43.3001397" lon="12.2238673"><ele>280.0</ele><time>2026-05-02T08:35:03.207Z</time></trkpt><trkpt lat="43.3002499" lon="12.2240513"><ele>280.0</ele><time>2026-05-02T08:35:04.201Z</time></trkpt><trkpt lat="43.3003205" lon="12.2242532"><ele>279.66666666666663</ele><time>2026-05-02T08:35:05.191Z</time></trkpt><trkpt lat="43.3003621" lon="12.2244948"><ele>279.3333333333333</ele><time>2026-05-02T08:35:06.191Z</time></trkpt><trkpt lat="43.3003807" lon="12.2247551"><ele>279.0</ele><time>2026-05-02T08:35:07.205Z</time></trkpt><trkpt lat="43.3003883" lon="12.2250106"><ele>278.3333333333333</ele><time>2026-05-02T08:35:08.196Z</time></trkpt><trkpt lat="43.3003973" lon="12.2252819"><ele>277.66666666666663</ele><time>2026-05-02T08:35:09.206Z</time></trkpt><trkpt lat="43.3004116" lon="12.225552"><ele>277.0</ele><time>2026-05-02T08:35:10.187Z</time></trkpt><trkpt lat="43.3004272" lon="12.225831"><ele>276.66666666666663</ele><time>2026-05-02T08:35:11.189Z</time></trkpt><trkpt lat="43.3004374" lon="12.2261129"><ele>276.3333333333333</ele><time>2026-05-02T08:35:12.199Z</time></trkpt><trkpt lat="43.300452" lon="12.2263971"><ele>276.0</ele><time>2026-05-02T08:35:13.214Z</time></trkpt><trkpt lat="43.3004647" lon="12.2266583"><ele>275.3333333333333</ele><time>2026-05-02T08:35:14.203Z</time></trkpt><trkpt lat="43.3004882" lon="12.2269088"><ele>274.66666666666663</ele><time>2026-05-02T08:35:15.187Z</time></trkpt><trkpt lat="43.3005373" lon="12.2271446"><ele>274.0</ele><time>2026-05-02T08:35:16.206Z</time></trkpt><trkpt lat="43.3006118" lon="12.2273691"><ele>277.3333333333333</ele><time>2026-05-02T08:35:17.208Z</time></trkpt><trkpt lat="43.3007146" lon="12.2275729"><ele>280.6666666666667</ele><time>2026-05-02T08:35:18.202Z</time></trkpt><trkpt lat="43.3008418" lon="12.2277198"><ele>284.0</ele><time>2026-05-02T08:35:19.192Z</time></trkpt><trkpt lat="43.3010054" lon="12.2278218"><ele>284.0</ele><time>2026-05-02T08:35:20.195Z</time></trkpt><trkpt lat="43.3011823" lon="12.2279092"><ele>284.0</ele><time>2026-05-02T08:35:21.183Z</time></trkpt><trkpt lat="43.3013558" lon="12.2279653"><ele>284.0</ele><time>2026-05-02T08:35:22.199Z</time></trkpt><trkpt lat="43.3015316" lon="12.2280333"><ele>282.33333333333337</ele><time>2026-05-02T08:35:23.2Z</time></trkpt><trkpt lat="43.3017009" lon="12.2281234"><ele>280.6666666666667</ele><time>2026-05-02T08:35:24.195Z</time></trkpt><trkpt lat="43.3018419" lon="12.2282357"><ele>279.0</ele><time>2026-05-02T08:35:25.205Z</time></trkpt><trkpt lat="43.3019822" lon="12.2283807"><ele>279.0</ele><time>2026-05-02T08:35:26.193Z</time></trkpt><trkpt lat="43.3021122" lon="12.2285265"><ele>279.0</ele><time>2026-05-02T08:35:27.191Z</time></trkpt><trkpt lat="43.3022506" lon="12.2286745"><ele>279.0</ele><time>2026-05-02T08:35:28.201Z</time></trkpt><trkpt lat="43.3024016" lon="12.2288356"><ele>278.3333333333333</ele><time>2026-05-02T08:35:29.203Z</time></trkpt><trkpt lat="43.3025589" lon="12.2290109"><ele>277.66666666666663</ele><time>2026-05-02T08:35:30.179Z</time></trkpt><trkpt lat="43.3027263" lon="12.2291957"><ele>277.0</ele><time>2026-05-02T08:35:31.189Z</time></trkpt><trkpt lat="43.3029063" lon="12.2293882"><ele>278.0</ele><time>2026-05-02T08:35:32.205Z</time></trkpt><trkpt lat="43.303094" lon="12.2295898"><ele>279.0</ele><time>2026-05-02T08:35:33.201Z</time></trkpt><trkpt lat="43.3032676" lon="12.2297742"><ele>278.3333333333333</ele><time>2026-05-02T08:35:34.204Z</time></trkpt><trkpt lat="43.3034235" lon="12.2299374"><ele>277.66666666666663</ele><time>2026-05-02T08:35:35.189Z</time></trkpt><trkpt lat="43.303568" lon="12.230103"><ele>277.0</ele><time>2026-05-02T08:35:36.203Z</time></trkpt><trkpt lat="43.3036965" lon="12.230283"><ele>277.0</ele><time>2026-05-02T08:35:37.203Z</time></trkpt><trkpt lat="43.3037757" lon="12.2304823"><ele>277.0</ele><time>2026-05-02T08:35:38.204Z</time></trkpt><trkpt lat="43.3038287" lon="12.2307031"><ele>277.0</ele><time>2026-05-02T08:35:39.198Z</time></trkpt><trkpt lat="43.3038688" lon="12.2309413"><ele>277.3333333333333</ele><time>2026-05-02T08:35:40.213Z</time></trkpt><trkpt lat="43.3039025" lon="12.2311871"><ele>277.6666666666667</ele><time>2026-05-02T08:35:41.19Z</time></trkpt><trkpt lat="43.3039297" lon="12.2314472"><ele>278.0</ele><time>2026-05-02T08:35:42.206Z</time></trkpt><trkpt lat="43.3039604" lon="12.2317166"><ele>278.33333333333337</ele><time>2026-05-02T08:35:43.197Z</time></trkpt><trkpt lat="43.3039984" lon="12.2319977"><ele>278.6666666666667</ele><time>2026-05-02T08:35:44.206Z</time></trkpt><trkpt lat="43.3040326" lon="12.2322719"><ele>279.0</ele><time>2026-05-02T08:35:45.194Z</time></trkpt><trkpt lat="43.3040637" lon="12.2325457"><ele>279.0</ele><time>2026-05-02T08:35:46.197Z</time></trkpt><trkpt lat="43.3040971" lon="12.2328133"><ele>279.0</ele><time>2026-05-02T08:35:47.199Z</time></trkpt><trkpt lat="43.3041289" lon="12.2330786"><ele>279.0</ele><time>2026-05-02T08:35:48.208Z</time></trkpt><trkpt lat="43.3041616" lon="12.2333394"><ele>278.3333333333333</ele><time>2026-05-02T08:35:49.197Z</time></trkpt><trkpt lat="43.3041958" lon="12.2335994"><ele>277.66666666666663</ele><time>2026-05-02T08:35:50.198Z</time></trkpt><trkpt lat="43.3042248" lon="12.2338574"><ele>277.0</ele><time>2026-05-02T08:35:51.213Z</time></trkpt><trkpt lat="43.3042559" lon="12.2341216"><ele>277.0</ele><time>2026-05-02T08:35:52.194Z</time></trkpt><trkpt lat="43.3042876" lon="12.2343814"><ele>277.0</ele><time>2026-05-02T08:35:53.212Z</time></trkpt><trkpt lat="43.3043172" lon="12.2346352"><ele>277.0</ele><time>2026-05-02T08:35:54.187Z</time></trkpt><trkpt lat="43.3043523" lon="12.2348843"><ele>277.0</ele><time>2026-05-02T08:35:55.208Z</time></trkpt><trkpt lat="43.3043853" lon="12.2351256"><ele>277.0</ele><time>2026-05-02T08:35:56.195Z</time></trkpt><trkpt lat="43.304421" lon="12.2353766"><ele>277.0</ele><time>2026-05-02T08:35:57.193Z</time></trkpt><trkpt lat="43.3044508" lon="12.2356218"><ele>277.0</ele><time>2026-05-02T08:35:58.21Z</time></trkpt><trkpt lat="43.304478" lon="12.2358598"><ele>277.0</ele><time>2026-05-02T08:35:59.198Z</time></trkpt><trkpt lat="43.304512" lon="12.2361048"><ele>277.0</ele><time>2026-05-02T08:36:00.207Z</time></trkpt><trkpt lat="43.3045407" lon="12.2363455"><ele>277.3333333333333</ele><time>2026-05-02T08:36:01.194Z</time></trkpt><trkpt lat="43.3045663" lon="12.2365848"><ele>277.6666666666667</ele><time>2026-05-02T08:36:02.195Z</time></trkpt><trkpt lat="43.3045954" lon="12.2368285"><ele>278.0</ele><time>2026-05-02T08:36:03.209Z</time></trkpt><trkpt lat="43.3046291" lon="12.2370693"><ele>278.33333333333337</ele><time>2026-05-02T08:36:04.203Z</time></trkpt><trkpt lat="43.3046593" lon="12.2373052"><ele>278.6666666666667</ele><time>2026-05-02T08:36:05.182Z</time></trkpt><trkpt lat="43.3046892" lon="12.2375337"><ele>279.0</ele><time>2026-05-02T08:36:06.2Z</time></trkpt><trkpt lat="43.3047178" lon="12.2377592"><ele>280.0</ele><time>2026-05-02T08:36:07.214Z</time></trkpt><trkpt lat="43.3047463" lon="12.2379888"><ele>281.0</ele><time>2026-05-02T08:36:08.202Z</time></trkpt><trkpt lat="43.3047732" lon="12.2382112"><ele>282.0</ele><time>2026-05-02T08:36:09.192Z</time></trkpt><trkpt lat="43.3048059" lon="12.2384266"><ele>282.3333333333333</ele><time>2026-05-02T08:36:10.21Z</time></trkpt><trkpt lat="43.3048337" lon="12.2386353"><ele>282.66666666666663</ele><time>2026-05-02T08:36:11.191Z</time></trkpt><trkpt lat="43.3048578" lon="12.2388394"><ele>283.0</ele><time>2026-05-02T08:36:12.193Z</time></trkpt><trkpt lat="43.3048872" lon="12.2390585"><ele>283.0</ele><time>2026-05-02T08:36:13.193Z</time></trkpt><trkpt lat="43.3049196" lon="12.2392845"><ele>283.0</ele><time>2026-05-02T08:36:14.202Z</time></trkpt><trkpt lat="43.3049496" lon="12.2395296"><ele>283.0</ele><time>2026-05-02T08:36:15.19Z</time></trkpt><trkpt lat="43.3049817" lon="12.2397849"><ele>282.3333333333333</ele><time>2026-05-02T08:36:16.174Z</time></trkpt><trkpt lat="43.3050094" lon="12.2400184"><ele>281.6666666666667</ele><time>2026-05-02T08:36:17.184Z</time></trkpt><trkpt lat="43.3050369" lon="12.2402422"><ele>281.0</ele><time>2026-05-02T08:36:18.2Z</time></trkpt><trkpt lat="43.3050666" lon="12.2404706"><ele>281.0</ele><time>2026-05-02T08:36:19.201Z</time></trkpt><trkpt lat="43.3050912" lon="12.2406873"><ele>281.0</ele><time>2026-05-02T08:36:20.187Z</time></trkpt><trkpt lat="43.3051165" lon="12.2408766"><ele>281.0</ele><time>2026-05-02T08:36:21.172Z</time></trkpt><trkpt lat="43.3051376" lon="12.2410488"><ele>281.0</ele><time>2026-05-02T08:36:22.197Z</time></trkpt><trkpt lat="43.3051353" lon="12.2412007"><ele>281.0</ele><time>2026-05-02T08:36:23.18Z</time></trkpt><trkpt lat="43.305093" lon="12.2413294"><ele>281.0</ele><time>2026-05-02T08:36:24.209Z</time></trkpt><trkpt lat="43.3050003" lon="12.2414317"><ele>281.0</ele><time>2026-05-02T08:36:25.201Z</time></trkpt><trkpt lat="43.3048745" lon="12.2415045"><ele>281.0</ele><time>2026-05-02T08:36:26.209Z</time></trkpt><trkpt lat="43.3047274" lon="12.241593"><ele>280.33333333333337</ele><time>2026-05-02T08:36:27.198Z</time></trkpt><trkpt lat="43.304566" lon="12.2416789"><ele>279.6666666666667</ele><time>2026-05-02T08:36:28.2Z</time></trkpt><trkpt lat="43.3044103" lon="12.2417728"><ele>279.0</ele><time>2026-05-02T08:36:29.19Z</time></trkpt><trkpt lat="43.3042487" lon="12.2418585"><ele>279.0</ele><time>2026-05-02T08:36:30.188Z</time></trkpt><trkpt lat="43.304109" lon="12.2419428"><ele>279.0</ele><time>2026-05-02T08:36:31.211Z</time></trkpt><trkpt lat="43.3039813" lon="12.2420422"><ele>279.0</ele><time>2026-05-02T08:36:32.208Z</time></trkpt><trkpt lat="43.3038813" lon="12.2421862"><ele>279.0</ele><time>2026-05-02T08:36:33.199Z</time></trkpt><trkpt lat="43.303791" lon="12.242381"><ele>277.6666666666667</ele><time>2026-05-02T08:36:34.183Z</time></trkpt><trkpt lat="43.303717" lon="12.2425939"><ele>276.33333333333337</ele><time>2026-05-02T08:36:35.202Z</time></trkpt><trkpt lat="43.303645" lon="12.2428114"><ele>275.0</ele><time>2026-05-02T08:36:36.193Z</time></trkpt><trkpt lat="43.3035786" lon="12.2430176"><ele>275.0</ele><time>2026-05-02T08:36:37.197Z</time></trkpt><trkpt lat="43.3035144" lon="12.2432107"><ele>275.0</ele><time>2026-05-02T08:36:38.198Z</time></trkpt><trkpt lat="43.3034715" lon="12.2433974"><ele>275.0</ele><time>2026-05-02T08:36:39.196Z</time></trkpt><trkpt lat="43.3034745" lon="12.2435814"><ele>275.0</ele><time>2026-05-02T08:36:40.198Z</time></trkpt><trkpt lat="43.3035131" lon="12.243764"><ele>275.0</ele><time>2026-05-02T08:36:41.211Z</time></trkpt><trkpt lat="43.3035871" lon="12.2439107"><ele>275.0</ele><time>2026-05-02T08:36:42.207Z</time></trkpt><trkpt lat="43.3037056" lon="12.2440314"><ele>275.0</ele><time>2026-05-02T08:36:43.2Z</time></trkpt><trkpt lat="43.303848" lon="12.2441262"><ele>275.0</ele><time>2026-05-02T08:36:44.201Z</time></trkpt><trkpt lat="43.3040042" lon="12.2442127"><ele>275.6666666666667</ele><time>2026-05-02T08:36:45.209Z</time></trkpt><trkpt lat="43.3041706" lon="12.2443009"><ele>276.3333333333333</ele><time>2026-05-02T08:36:46.191Z</time></trkpt><trkpt lat="43.3043375" lon="12.2443982"><ele>277.0</ele><time>2026-05-02T08:36:47.186Z</time></trkpt><trkpt lat="43.304512" lon="12.2445062"><ele>277.0</ele><time>2026-05-02T08:36:48.193Z</time></trkpt><trkpt lat="43.3046858" lon="12.2446139"><ele>277.0</ele><time>2026-05-02T08:36:49.203Z</time></trkpt><trkpt lat="43.3048646" lon="12.2447277"><ele>277.0</ele><time>2026-05-02T08:36:50.199Z</time></trkpt><trkpt lat="43.3050407" lon="12.2448302"><ele>275.66666666666663</ele><time>2026-05-02T08:36:51.2Z</time></trkpt><trkpt lat="43.305216" lon="12.2449409"><ele>274.3333333333333</ele><time>2026-05-02T08:36:52.196Z</time></trkpt><trkpt lat="43.3053855" lon="12.2450555"><ele>273.0</ele><time>2026-05-02T08:36:53.207Z</time></trkpt><trkpt lat="43.3055501" lon="12.2451669"><ele>275.6666666666667</ele><time>2026-05-02T08:36:54.211Z</time></trkpt><trkpt lat="43.3057072" lon="12.2452849"><ele>278.33333333333337</ele><time>2026-05-02T08:36:55.211Z</time></trkpt><trkpt lat="43.3058536" lon="12.2454246"><ele>281.0</ele><time>2026-05-02T08:36:56.2Z</time></trkpt><trkpt lat="43.3059843" lon="12.2456015"><ele>278.33333333333337</ele><time>2026-05-02T08:36:57.197Z</time></trkpt><trkpt lat="43.3060989" lon="12.2457824"><ele>275.6666666666667</ele><time>2026-05-02T08:36:58.189Z</time></trkpt><trkpt lat="43.3062106" lon="12.2459708"><ele>273.0</ele><time>2026-05-02T08:36:59.181Z</time></trkpt><trkpt lat="43.3063146" lon="12.2461679"><ele>273.6666666666667</ele><time>2026-05-02T08:37:00.188Z</time></trkpt><trkpt lat="43.3064133" lon="12.2463676"><ele>274.33333333333337</ele><time>2026-05-02T08:37:01.206Z</time></trkpt><trkpt lat="43.3065038" lon="12.246582"><ele>275.0</ele><time>2026-05-02T08:37:02.191Z</time></trkpt><trkpt lat="43.3065981" lon="12.2467921"><ele>275.0</ele><time>2026-05-02T08:37:03.2Z</time></trkpt><trkpt lat="43.3067015" lon="12.2470141"><ele>275.0</ele><time>2026-05-02T08:37:04.19Z</time></trkpt><trkpt lat="43.3068131" lon="12.2472238"><ele>275.0</ele><time>2026-05-02T08:37:05.173Z</time></trkpt><trkpt lat="43.3069192" lon="12.2474197"><ele>276.0</ele><time>2026-05-02T08:37:06.206Z</time></trkpt><trkpt lat="43.3070276" lon="12.2476088"><ele>277.0</ele><time>2026-05-02T08:37:07.202Z</time></trkpt><trkpt lat="43.3071397" lon="12.2477855"><ele>278.0</ele><time>2026-05-02T08:37:08.187Z</time></trkpt><trkpt lat="43.3072629" lon="12.2479383"><ele>278.0</ele><time>2026-05-02T08:37:09.178Z</time></trkpt><trkpt lat="43.3074013" lon="12.248073"><ele>278.0</ele><time>2026-05-02T08:37:10.194Z</time></trkpt><trkpt lat="43.3075554" lon="12.2481812"><ele>278.0</ele><time>2026-05-02T08:37:11.176Z</time></trkpt><trkpt lat="43.3077113" lon="12.2482859"><ele>277.0</ele><time>2026-05-02T08:37:12.188Z</time></trkpt><trkpt lat="43.3078783" lon="12.2483935"><ele>276.0</ele><time>2026-05-02T08:37:13.191Z</time></trkpt><trkpt lat="43.3080486" lon="12.2485051"><ele>275.0</ele><time>2026-05-02T08:37:14.212Z</time></trkpt><trkpt lat="43.3082114" lon="12.2486134"><ele>275.0</ele><time>2026-05-02T08:37:15.203Z</time></trkpt><trkpt lat="43.308373" lon="12.2487304"><ele>275.0</ele><time>2026-05-02T08:37:16.174Z</time></trkpt><trkpt lat="43.3085369" lon="12.2488466"><ele>275.0</ele><time>2026-05-02T08:37:17.193Z</time></trkpt><trkpt lat="43.3087078" lon="12.2489604"><ele>274.6666666666667</ele><time>2026-05-02T08:37:18.198Z</time></trkpt><trkpt lat="43.3088708" lon="12.2490821"><ele>274.3333333333333</ele><time>2026-05-02T08:37:19.202Z</time></trkpt><trkpt lat="43.3090298" lon="12.2492255"><ele>274.0</ele><time>2026-05-02T08:37:20.201Z</time></trkpt><trkpt lat="43.3091702" lon="12.2494039"><ele>274.0</ele><time>2026-05-02T08:37:21.196Z</time></trkpt><trkpt lat="43.3092974" lon="12.2495935"><ele>274.0</ele><time>2026-05-02T08:37:22.201Z</time></trkpt><trkpt lat="43.3094229" lon="12.2498028"><ele>274.0</ele><time>2026-05-02T08:37:23.197Z</time></trkpt><trkpt lat="43.3095436" lon="12.2500112"><ele>274.0</ele><time>2026-05-02T08:37:24.214Z</time></trkpt><trkpt lat="43.3096689" lon="12.2502171"><ele>274.0</ele><time>2026-05-02T08:37:25.2Z</time></trkpt><trkpt lat="43.3097909" lon="12.2504278"><ele>274.0</ele><time>2026-05-02T08:37:26.176Z</time></trkpt><trkpt lat="43.3099153" lon="12.2506351"><ele>274.0</ele><time>2026-05-02T08:37:27.197Z</time></trkpt><trkpt lat="43.3100346" lon="12.2508446"><ele>274.0</ele><time>2026-05-02T08:37:28.183Z</time></trkpt><trkpt lat="43.3101582" lon="12.25105"><ele>274.0</ele><time>2026-05-02T08:37:29.198Z</time></trkpt><trkpt lat="43.3102841" lon="12.2512539"><ele>274.66666666666663</ele><time>2026-05-02T08:37:30.21Z</time></trkpt><trkpt lat="43.3104074" lon="12.2514642"><ele>275.3333333333333</ele><time>2026-05-02T08:37:31.188Z</time></trkpt><trkpt lat="43.310529" lon="12.2516695"><ele>276.0</ele><time>2026-05-02T08:37:32.192Z</time></trkpt><trkpt lat="43.3106515" lon="12.2518764"><ele>276.0</ele><time>2026-05-02T08:37:33.194Z</time></trkpt><trkpt lat="43.3107741" lon="12.2520798"><ele>276.0</ele><time>2026-05-02T08:37:34.198Z</time></trkpt><trkpt lat="43.3108946" lon="12.2522792"><ele>276.0</ele><time>2026-05-02T08:37:35.201Z</time></trkpt><trkpt lat="43.3110145" lon="12.2524841"><ele>274.0</ele><time>2026-05-02T08:37:36.194Z</time></trkpt><trkpt lat="43.3111307" lon="12.2526964"><ele>272.0</ele><time>2026-05-02T08:37:37.177Z</time></trkpt><trkpt lat="43.3112372" lon="12.2529136"><ele>270.0</ele><time>2026-05-02T08:37:38.19Z</time></trkpt><trkpt lat="43.3113227" lon="12.2531539"><ele>270.3333333333333</ele><time>2026-05-02T08:37:39.201Z</time></trkpt><trkpt lat="43.3113895" lon="12.2534089"><ele>270.66666666666663</ele><time>2026-05-02T08:37:40.201Z</time></trkpt><trkpt lat="43.3114477" lon="12.2536668"><ele>271.0</ele><time>2026-05-02T08:37:41.198Z</time></trkpt><trkpt lat="43.3115048" lon="12.2539342"><ele>270.3333333333333</ele><time>2026-05-02T08:37:42.189Z</time></trkpt><trkpt lat="43.3115599" lon="12.2542108"><ele>269.6666666666667</ele><time>2026-05-02T08:37:43.202Z</time></trkpt><trkpt lat="43.3116186" lon="12.2544981"><ele>269.0</ele><time>2026-05-02T08:37:44.2Z</time></trkpt><trkpt lat="43.3116763" lon="12.2547837"><ele>269.0</ele><time>2026-05-02T08:37:45.199Z</time></trkpt><trkpt lat="43.3117304" lon="12.2550607"><ele>269.0</ele><time>2026-05-02T08:37:46.177Z</time></trkpt><trkpt lat="43.3117803" lon="12.2553315"><ele>269.0</ele><time>2026-05-02T08:37:47.165Z</time></trkpt><trkpt lat="43.31182" lon="12.2555899"><ele>269.0</ele><time>2026-05-02T08:37:48.195Z</time></trkpt><trkpt lat="43.3118593" lon="12.2558234"><ele>269.0</ele><time>2026-05-02T08:37:49.197Z</time></trkpt><trkpt lat="43.3118983" lon="12.2560417"><ele>269.0</ele><time>2026-05-02T08:37:50.177Z</time></trkpt><trkpt lat="43.3119499" lon="12.2562378"><ele>269.0</ele><time>2026-05-02T08:37:51.202Z</time></trkpt><trkpt lat="43.3120223" lon="12.2564185"><ele>269.0</ele><time>2026-05-02T08:37:52.216Z</time></trkpt><trkpt lat="43.3121153" lon="12.256596"><ele>269.0</ele><time>2026-05-02T08:37:53.166Z</time></trkpt><trkpt lat="43.3122323" lon="12.2567672"><ele>269.33333333333337</ele><time>2026-05-02T08:37:54.195Z</time></trkpt><trkpt lat="43.3123546" lon="12.2569396"><ele>269.6666666666667</ele><time>2026-05-02T08:37:55.168Z</time></trkpt><trkpt lat="43.3124765" lon="12.2571241"><ele>270.0</ele><time>2026-05-02T08:37:56.189Z</time></trkpt><trkpt lat="43.3125943" lon="12.2573197"><ele>270.0</ele><time>2026-05-02T08:37:57.201Z</time></trkpt><trkpt lat="43.3127061" lon="12.2575214"><ele>270.0</ele><time>2026-05-02T08:37:58.192Z</time></trkpt><trkpt lat="43.3127942" lon="12.2577147"><ele>270.0</ele><time>2026-05-02T08:37:59.207Z</time></trkpt><trkpt lat="43.3128681" lon="12.2579224"><ele>268.6666666666667</ele><time>2026-05-02T08:38:00.204Z</time></trkpt><trkpt lat="43.312909" lon="12.258154"><ele>267.33333333333337</ele><time>2026-05-02T08:38:01.189Z</time></trkpt><trkpt lat="43.3129295" lon="12.2583997"><ele>266.0</ele><time>2026-05-02T08:38:02.179Z</time></trkpt><trkpt lat="43.3129347" lon="12.2586483"><ele>266.0</ele><time>2026-05-02T08:38:03.202Z</time></trkpt><trkpt lat="43.31295" lon="12.258893"><ele>266.0</ele><time>2026-05-02T08:38:04.197Z</time></trkpt><trkpt lat="43.3130038" lon="12.259113"><ele>266.0</ele><time>2026-05-02T08:38:05.198Z</time></trkpt><trkpt lat="43.3130858" lon="12.2593302"><ele>265.33333333333337</ele><time>2026-05-02T08:38:06.177Z</time></trkpt><trkpt lat="43.3131914" lon="12.2595504"><ele>264.6666666666667</ele><time>2026-05-02T08:38:07.19Z</time></trkpt><trkpt lat="43.3132979" lon="12.2597478"><ele>264.0</ele><time>2026-05-02T08:38:08.184Z</time></trkpt><trkpt lat="43.313415" lon="12.259924"><ele>264.0</ele><time>2026-05-02T08:38:09.177Z</time></trkpt><trkpt lat="43.3135411" lon="12.2600809"><ele>264.0</ele><time>2026-05-02T08:38:10.178Z</time></trkpt><trkpt lat="43.3136701" lon="12.2602217"><ele>264.0</ele><time>2026-05-02T08:38:11.179Z</time></trkpt><trkpt lat="43.3137968" lon="12.2603495"><ele>265.75</ele><time>2026-05-02T08:38:12.183Z</time></trkpt><trkpt lat="43.3139362" lon="12.2604304"><ele>267.5</ele><time>2026-05-02T08:38:13.204Z</time></trkpt><trkpt lat="43.314082" lon="12.2604693"><ele>269.25</ele><time>2026-05-02T08:38:14.198Z</time></trkpt><trkpt lat="43.3142106" lon="12.2605129"><ele>271.0</ele><time>2026-05-02T08:38:15.2Z</time></trkpt><trkpt lat="43.3143288" lon="12.2605607"><ele>269.25</ele><time>2026-05-02T08:38:16.192Z</time></trkpt><trkpt lat="43.3144288" lon="12.2606438"><ele>267.5</ele><time>2026-05-02T08:38:17.201Z</time></trkpt><trkpt lat="43.3145305" lon="12.2607621"><ele>265.75</ele><time>2026-05-02T08:38:18.194Z</time></trkpt><trkpt lat="43.3146294" lon="12.2609258"><ele>264.0</ele><time>2026-05-02T08:38:19.19Z</time></trkpt><trkpt lat="43.314727" lon="12.2611208"><ele>264.3333333333333</ele><time>2026-05-02T08:38:20.203Z</time></trkpt><trkpt lat="43.3148187" lon="12.2613371"><ele>264.66666666666663</ele><time>2026-05-02T08:38:21.172Z</time></trkpt><trkpt lat="43.314907" lon="12.2615553"><ele>265.0</ele><time>2026-05-02T08:38:22.205Z</time></trkpt><trkpt lat="43.3150006" lon="12.2617861"><ele>265.0</ele><time>2026-05-02T08:38:23.193Z</time></trkpt><trkpt lat="43.3150963" lon="12.2620145"><ele>265.0</ele><time>2026-05-02T08:38:24.183Z</time></trkpt><trkpt lat="43.3151976" lon="12.2622436"><ele>265.0</ele><time>2026-05-02T08:38:25.212Z</time></trkpt><trkpt lat="43.3152905" lon="12.2624625"><ele>264.0</ele><time>2026-05-02T08:38:26.185Z</time></trkpt><trkpt lat="43.3153803" lon="12.2626749"><ele>263.0</ele><time>2026-05-02T08:38:27.188Z</time></trkpt><trkpt lat="43.3154605" lon="12.2628865"><ele>262.0</ele><time>2026-05-02T08:38:28.2Z</time></trkpt><trkpt lat="43.3155191" lon="12.2631184"><ele>261.66666666666663</ele><time>2026-05-02T08:38:29.194Z</time></trkpt><trkpt lat="43.3155583" lon="12.2633786"><ele>261.3333333333333</ele><time>2026-05-02T08:38:30.191Z</time></trkpt><trkpt lat="43.3155882" lon="12.2636295"><ele>261.0</ele><time>2026-05-02T08:38:31.195Z</time></trkpt><trkpt lat="43.3156245" lon="12.2638906"><ele>261.6666666666667</ele><time>2026-05-02T08:38:32.194Z</time></trkpt><trkpt lat="43.3156613" lon="12.2641557"><ele>262.33333333333337</ele><time>2026-05-02T08:38:33.205Z</time></trkpt><trkpt lat="43.3156985" lon="12.2644107"><ele>263.0</ele><time>2026-05-02T08:38:34.194Z</time></trkpt><trkpt lat="43.315734" lon="12.2646587"><ele>263.33333333333337</ele><time>2026-05-02T08:38:35.197Z</time></trkpt><trkpt lat="43.3157819" lon="12.2649052"><ele>263.6666666666667</ele><time>2026-05-02T08:38:36.193Z</time></trkpt><trkpt lat="43.3158402" lon="12.2651374"><ele>264.0</ele><time>2026-05-02T08:38:37.202Z</time></trkpt><trkpt lat="43.3159172" lon="12.2653626"><ele>264.0</ele><time>2026-05-02T08:38:38.168Z</time></trkpt><trkpt lat="43.316004" lon="12.2655878"><ele>264.0</ele><time>2026-05-02T08:38:39.198Z</time></trkpt><trkpt lat="43.3161092" lon="12.2658051"><ele>264.0</ele><time>2026-05-02T08:38:40.199Z</time></trkpt><trkpt lat="43.3162155" lon="12.2660116"><ele>263.6666666666667</ele><time>2026-05-02T08:38:41.175Z</time></trkpt><trkpt lat="43.316319" lon="12.2662095"><ele>263.33333333333337</ele><time>2026-05-02T08:38:42.201Z</time></trkpt><trkpt lat="43.3164113" lon="12.2664021"><ele>263.0</ele><time>2026-05-02T08:38:43.199Z</time></trkpt><trkpt lat="43.3164996" lon="12.2665869"><ele>264.0</ele><time>2026-05-02T08:38:44.198Z</time></trkpt><trkpt lat="43.3165915" lon="12.2667684"><ele>265.0</ele><time>2026-05-02T08:38:45.197Z</time></trkpt><trkpt lat="43.316678" lon="12.2669601"><ele>266.0</ele><time>2026-05-02T08:38:46.202Z</time></trkpt><trkpt lat="43.3167658" lon="12.2671367"><ele>266.25</ele><time>2026-05-02T08:38:47.214Z</time></trkpt><trkpt lat="43.3168371" lon="12.2672979"><ele>266.5</ele><time>2026-05-02T08:38:48.198Z</time></trkpt><trkpt lat="43.3169077" lon="12.2674558"><ele>266.75</ele><time>2026-05-02T08:38:49.197Z</time></trkpt><trkpt lat="43.3169567" lon="12.2676217"><ele>267.0</ele><time>2026-05-02T08:38:50.174Z</time></trkpt><trkpt lat="43.3170008" lon="12.2677985"><ele>267.0</ele><time>2026-05-02T08:38:51.181Z</time></trkpt><trkpt lat="43.3170491" lon="12.2679962"><ele>267.0</ele><time>2026-05-02T08:38:52.202Z</time></trkpt><trkpt lat="43.3171046" lon="12.2682025"><ele>267.0</ele><time>2026-05-02T08:38:53.195Z</time></trkpt><trkpt lat="43.3171551" lon="12.2684203"><ele>266.6666666666667</ele><time>2026-05-02T08:38:54.209Z</time></trkpt><trkpt lat="43.3172167" lon="12.2686527"><ele>266.33333333333337</ele><time>2026-05-02T08:38:55.191Z</time></trkpt><trkpt lat="43.3172761" lon="12.2688876"><ele>266.0</ele><time>2026-05-02T08:38:56.201Z</time></trkpt><trkpt lat="43.3173355" lon="12.2691368"><ele>266.0</ele><time>2026-05-02T08:38:57.211Z</time></trkpt><trkpt lat="43.3174" lon="12.269388"><ele>266.0</ele><time>2026-05-02T08:38:58.21Z</time></trkpt><trkpt lat="43.3174629" lon="12.2696449"><ele>266.0</ele><time>2026-05-02T08:38:59.215Z</time></trkpt><trkpt lat="43.3175336" lon="12.2699029"><ele>264.33333333333337</ele><time>2026-05-02T08:39:00.195Z</time></trkpt><trkpt lat="43.3175978" lon="12.2701657"><ele>262.6666666666667</ele><time>2026-05-02T08:39:01.195Z</time></trkpt><trkpt lat="43.3176662" lon="12.2704219"><ele>261.0</ele><time>2026-05-02T08:39:02.208Z</time></trkpt><trkpt lat="43.3177315" lon="12.2706747"><ele>261.0</ele><time>2026-05-02T08:39:03.196Z</time></trkpt><trkpt lat="43.3178001" lon="12.2709275"><ele>261.0</ele><time>2026-05-02T08:39:04.203Z</time></trkpt><trkpt lat="43.3178659" lon="12.2711663"><ele>261.0</ele><time>2026-05-02T08:39:05.209Z</time></trkpt><trkpt lat="43.3179273" lon="12.2714027"><ele>260.6666666666667</ele><time>2026-05-02T08:39:06.202Z</time></trkpt><trkpt lat="43.3179789" lon="12.2716361"><ele>260.33333333333337</ele><time>2026-05-02T08:39:07.201Z</time></trkpt><trkpt lat="43.3180178" lon="12.2718779"><ele>260.0</ele><time>2026-05-02T08:39:08.19Z</time></trkpt><trkpt lat="43.3180389" lon="12.2721351"><ele>259.0</ele><time>2026-05-02T08:39:09.194Z</time></trkpt><trkpt lat="43.318036" lon="12.2723997"><ele>258.0</ele><time>2026-05-02T08:39:10.186Z</time></trkpt><trkpt lat="43.3180295" lon="12.2726677"><ele>257.0</ele><time>2026-05-02T08:39:11.203Z</time></trkpt><trkpt lat="43.3180283" lon="12.2729377"><ele>256.33333333333337</ele><time>2026-05-02T08:39:12.195Z</time></trkpt><trkpt lat="43.3180356" lon="12.2732109"><ele>255.66666666666669</ele><time>2026-05-02T08:39:13.196Z</time></trkpt><trkpt lat="43.3180477" lon="12.2734775"><ele>255.0</ele><time>2026-05-02T08:39:14.194Z</time></trkpt><trkpt lat="43.3180672" lon="12.2737424"><ele>257.0</ele><time>2026-05-02T08:39:15.183Z</time></trkpt><trkpt lat="43.3180834" lon="12.2740114"><ele>259.0</ele><time>2026-05-02T08:39:16.186Z</time></trkpt><trkpt lat="43.3180966" lon="12.2742762"><ele>261.0</ele><time>2026-05-02T08:39:17.187Z</time></trkpt><trkpt lat="43.3181067" lon="12.2745414"><ele>260.6666666666667</ele><time>2026-05-02T08:39:18.206Z</time></trkpt><trkpt lat="43.3181192" lon="12.2748041"><ele>260.33333333333337</ele><time>2026-05-02T08:39:19.202Z</time></trkpt><trkpt lat="43.3181327" lon="12.2750685"><ele>260.0</ele><time>2026-05-02T08:39:20.201Z</time></trkpt><trkpt lat="43.3181546" lon="12.2753301"><ele>260.0</ele><time>2026-05-02T08:39:21.201Z</time></trkpt><trkpt lat="43.3181823" lon="12.2755942"><ele>260.0</ele><time>2026-05-02T08:39:22.18Z</time></trkpt><trkpt lat="43.3182127" lon="12.275857"><ele>260.0</ele><time>2026-05-02T08:39:23.207Z</time></trkpt><trkpt lat="43.318243" lon="12.2761273"><ele>259.6666666666667</ele><time>2026-05-02T08:39:24.185Z</time></trkpt><trkpt lat="43.3182741" lon="12.2763933"><ele>259.3333333333333</ele><time>2026-05-02T08:39:25.203Z</time></trkpt><trkpt lat="43.3183085" lon="12.2766586"><ele>259.0</ele><time>2026-05-02T08:39:26.206Z</time></trkpt><trkpt lat="43.3183464" lon="12.2769338"><ele>258.66666666666663</ele><time>2026-05-02T08:39:27.203Z</time></trkpt><trkpt lat="43.3183842" lon="12.277206"><ele>258.3333333333333</ele><time>2026-05-02T08:39:28.194Z</time></trkpt><trkpt lat="43.3184244" lon="12.2774852"><ele>258.0</ele><time>2026-05-02T08:39:29.203Z</time></trkpt><trkpt lat="43.3184628" lon="12.2777611"><ele>257.3333333333333</ele><time>2026-05-02T08:39:30.206Z</time></trkpt><trkpt lat="43.3184953" lon="12.2780354"><ele>256.66666666666663</ele><time>2026-05-02T08:39:31.197Z</time></trkpt><trkpt lat="43.3185235" lon="12.2783003"><ele>256.0</ele><time>2026-05-02T08:39:32.2Z</time></trkpt><trkpt lat="43.3185385" lon="12.2785624"><ele>255.66666666666666</ele><time>2026-05-02T08:39:33.2Z</time></trkpt><trkpt lat="43.318537" lon="12.2788258"><ele>255.33333333333331</ele><time>2026-05-02T08:39:34.198Z</time></trkpt><trkpt lat="43.318523" lon="12.2790876"><ele>255.0</ele><time>2026-05-02T08:39:35.195Z</time></trkpt><trkpt lat="43.3185084" lon="12.2793452"><ele>254.33333333333331</ele><time>2026-05-02T08:39:36.206Z</time></trkpt><trkpt lat="43.3185061" lon="12.2796116"><ele>253.66666666666666</ele><time>2026-05-02T08:39:37.192Z</time></trkpt><trkpt lat="43.3185057" lon="12.2798818"><ele>253.0</ele><time>2026-05-02T08:39:38.199Z</time></trkpt><trkpt lat="43.3185179" lon="12.2801567"><ele>253.0</ele><time>2026-05-02T08:39:39.186Z</time></trkpt><trkpt lat="43.3185432" lon="12.2804272"><ele>253.0</ele><time>2026-05-02T08:39:40.173Z</time></trkpt><trkpt lat="43.3185698" lon="12.2806985"><ele>253.0</ele><time>2026-05-02T08:39:41.198Z</time></trkpt><trkpt lat="43.318598" lon="12.2809677"><ele>253.33333333333331</ele><time>2026-05-02T08:39:42.2Z</time></trkpt><trkpt lat="43.3186215" lon="12.2812281"><ele>253.66666666666669</ele><time>2026-05-02T08:39:43.186Z</time></trkpt><trkpt lat="43.3186568" lon="12.2814841"><ele>254.0</ele><time>2026-05-02T08:39:44.216Z</time></trkpt><trkpt lat="43.3186845" lon="12.2817265"><ele>253.33333333333334</ele><time>2026-05-02T08:39:45.199Z</time></trkpt><trkpt lat="43.3187085" lon="12.2819671"><ele>252.66666666666669</ele><time>2026-05-02T08:39:46.204Z</time></trkpt><trkpt lat="43.3187375" lon="12.2821945"><ele>252.0</ele><time>2026-05-02T08:39:47.195Z</time></trkpt><trkpt lat="43.3187739" lon="12.2824119"><ele>252.0</ele><time>2026-05-02T08:39:48.206Z</time></trkpt><trkpt lat="43.3188226" lon="12.2826266"><ele>252.0</ele><time>2026-05-02T08:39:49.196Z</time></trkpt><trkpt lat="43.3188699" lon="12.282851"><ele>252.0</ele><time>2026-05-02T08:39:50.197Z</time></trkpt><trkpt lat="43.3189192" lon="12.2830683"><ele>253.0</ele><time>2026-05-02T08:39:51.199Z</time></trkpt><trkpt lat="43.3189652" lon="12.2832949"><ele>254.0</ele><time>2026-05-02T08:39:52.205Z</time></trkpt><trkpt lat="43.3190102" lon="12.283526"><ele>255.0</ele><time>2026-05-02T08:39:53.187Z</time></trkpt><trkpt lat="43.3190562" lon="12.283757"><ele>255.0</ele><time>2026-05-02T08:39:54.197Z</time></trkpt><trkpt lat="43.3190894" lon="12.2839881"><ele>255.0</ele><time>2026-05-02T08:39:55.205Z</time></trkpt><trkpt lat="43.3190962" lon="12.2842213"><ele>255.0</ele><time>2026-05-02T08:39:56.198Z</time></trkpt><trkpt lat="43.319084" lon="12.2844545"><ele>255.0</ele><time>2026-05-02T08:39:57.189Z</time></trkpt><trkpt lat="43.3190713" lon="12.2846977"><ele>255.0</ele><time>2026-05-02T08:39:58.206Z</time></trkpt><trkpt lat="43.3190726" lon="12.2849454"><ele>255.0</ele><time>2026-05-02T08:39:59.207Z</time></trkpt><trkpt lat="43.3190944" lon="12.2851869"><ele>254.33333333333331</ele><time>2026-05-02T08:40:00.176Z</time></trkpt><trkpt lat="43.3191304" lon="12.2854295"><ele>253.66666666666666</ele><time>2026-05-02T08:40:01.182Z</time></trkpt><trkpt lat="43.3191794" lon="12.2856657"><ele>253.0</ele><time>2026-05-02T08:40:02.199Z</time></trkpt><trkpt lat="43.319242" lon="12.2858998"><ele>252.33333333333331</ele><time>2026-05-02T08:40:03.199Z</time></trkpt><trkpt lat="43.3193088" lon="12.2861206"><ele>251.66666666666669</ele><time>2026-05-02T08:40:04.2Z</time></trkpt><trkpt lat="43.3193943" lon="12.2863482"><ele>251.0</ele><time>2026-05-02T08:40:05.204Z</time></trkpt><trkpt lat="43.3194812" lon="12.2865745"><ele>250.33333333333334</ele><time>2026-05-02T08:40:06.202Z</time></trkpt><trkpt lat="43.3195661" lon="12.2868012"><ele>249.66666666666669</ele><time>2026-05-02T08:40:07.194Z</time></trkpt><trkpt lat="43.3196512" lon="12.2870222"><ele>249.0</ele><time>2026-05-02T08:40:08.196Z</time></trkpt><trkpt lat="43.3197333" lon="12.2872397"><ele>251.66666666666669</ele><time>2026-05-02T08:40:09.205Z</time></trkpt><trkpt lat="43.3198098" lon="12.2874595"><ele>254.33333333333334</ele><time>2026-05-02T08:40:10.202Z</time></trkpt><trkpt lat="43.3198908" lon="12.287682"><ele>257.0</ele><time>2026-05-02T08:40:11.203Z</time></trkpt><trkpt lat="43.3199742" lon="12.2879065"><ele>256.6666666666667</ele><time>2026-05-02T08:40:12.202Z</time></trkpt><trkpt lat="43.3200599" lon="12.2881303"><ele>256.3333333333333</ele><time>2026-05-02T08:40:13.182Z</time></trkpt><trkpt lat="43.3201371" lon="12.2883549"><ele>256.0</ele><time>2026-05-02T08:40:14.187Z</time></trkpt><trkpt lat="43.3202203" lon="12.2885835"><ele>256.0</ele><time>2026-05-02T08:40:15.201Z</time></trkpt><trkpt lat="43.3203027" lon="12.288807"><ele>256.0</ele><time>2026-05-02T08:40:16.186Z</time></trkpt><trkpt lat="43.3203847" lon="12.2890307"><ele>256.0</ele><time>2026-05-02T08:40:17.191Z</time></trkpt><trkpt lat="43.3204652" lon="12.2892514"><ele>256.0</ele><time>2026-05-02T08:40:18.205Z</time></trkpt><trkpt lat="43.3205456" lon="12.2894764"><ele>256.0</ele><time>2026-05-02T08:40:19.191Z</time></trkpt><trkpt lat="43.3206301" lon="12.289706"><ele>256.0</ele><time>2026-05-02T08:40:20.207Z</time></trkpt><trkpt lat="43.3207168" lon="12.2899339"><ele>255.66666666666666</ele><time>2026-05-02T08:40:21.186Z</time></trkpt><trkpt lat="43.3208058" lon="12.2901614"><ele>255.33333333333331</ele><time>2026-05-02T08:40:22.201Z</time></trkpt><trkpt lat="43.3208918" lon="12.2903787"><ele>255.0</ele><time>2026-05-02T08:40:23.196Z</time></trkpt><trkpt lat="43.3209763" lon="12.2905933"><ele>255.0</ele><time>2026-05-02T08:40:24.212Z</time></trkpt><trkpt lat="43.3210562" lon="12.2908059"><ele>255.0</ele><time>2026-05-02T08:40:25.199Z</time></trkpt><trkpt lat="43.3211349" lon="12.291018"><ele>255.0</ele><time>2026-05-02T08:40:26.206Z</time></trkpt><trkpt lat="43.3212154" lon="12.2912269"><ele>254.0</ele><time>2026-05-02T08:40:27.193Z</time></trkpt><trkpt lat="43.321293" lon="12.2914295"><ele>253.0</ele><time>2026-05-02T08:40:28.201Z</time></trkpt><trkpt lat="43.3213684" lon="12.2916202"><ele>252.0</ele><time>2026-05-02T08:40:29.178Z</time></trkpt><trkpt lat="43.3214357" lon="12.2917992"><ele>253.2</ele><time>2026-05-02T08:40:30.204Z</time></trkpt><trkpt lat="43.3214973" lon="12.2919563"><ele>254.39999999999998</ele><time>2026-05-02T08:40:31.196Z</time></trkpt><trkpt lat="43.3215488" lon="12.2920986"><ele>255.60000000000002</ele><time>2026-05-02T08:40:32.212Z</time></trkpt><trkpt lat="43.3215862" lon="12.2922253"><ele>256.8</ele><time>2026-05-02T08:40:33.185Z</time></trkpt><trkpt lat="43.3216285" lon="12.2923324"><ele>258.0</ele><time>2026-05-02T08:40:34.203Z</time></trkpt><trkpt lat="43.3216686" lon="12.2924322"><ele>258.0</ele><time>2026-05-02T08:40:35.199Z</time></trkpt><trkpt lat="43.3217058" lon="12.2925208"><ele>258.0</ele><time>2026-05-02T08:40:36.179Z</time></trkpt><trkpt lat="43.3217583" lon="12.2926599"><ele>258.0</ele><time>2026-05-02T08:40:38.194Z</time></trkpt><trkpt lat="43.3218086" lon="12.2927925"><ele>258.0</ele><time>2026-05-02T08:40:40.186Z</time></trkpt><trkpt lat="43.3218508" lon="12.2929377"><ele>258.0</ele><time>2026-05-02T08:40:42.198Z</time></trkpt><trkpt lat="43.3218933" lon="12.2930795"><ele>257.5</ele><time>2026-05-02T08:40:44.201Z</time></trkpt><trkpt lat="43.3219347" lon="12.2932497"><ele>257.0</ele><time>2026-05-02T08:40:46.198Z</time></trkpt><trkpt lat="43.3219539" lon="12.2933423"><ele>256.5</ele><time>2026-05-02T08:40:47.192Z</time></trkpt><trkpt lat="43.3219645" lon="12.2934429"><ele>256.0</ele><time>2026-05-02T08:40:48.205Z</time></trkpt><trkpt lat="43.321971" lon="12.2935513"><ele>255.5</ele><time>2026-05-02T08:40:49.2Z</time></trkpt><trkpt lat="43.3219784" lon="12.2936505"><ele>255.0</ele><time>2026-05-02T08:40:50.196Z</time></trkpt><trkpt lat="43.321986" lon="12.2937501"><ele>255.0</ele><time>2026-05-02T08:40:51.192Z</time></trkpt><trkpt lat="43.3219907" lon="12.2938446"><ele>255.0</ele><time>2026-05-02T08:40:52.197Z</time></trkpt><trkpt lat="43.3219932" lon="12.293939"><ele>255.0</ele><time>2026-05-02T08:40:53.205Z</time></trkpt><trkpt lat="43.3219932" lon="12.2940439"><ele>255.0</ele><time>2026-05-02T08:40:54.207Z</time></trkpt><trkpt lat="43.3219925" lon="12.294146"><ele>255.0</ele><time>2026-05-02T08:40:55.201Z</time></trkpt><trkpt lat="43.3219791" lon="12.2942535"><ele>255.0</ele><time>2026-05-02T08:40:56.191Z</time></trkpt><trkpt lat="43.3219559" lon="12.2943679"><ele>255.0</ele><time>2026-05-02T08:40:57.194Z</time></trkpt><trkpt lat="43.3219271" lon="12.2944752"><ele>255.0</ele><time>2026-05-02T08:40:58.172Z</time></trkpt><trkpt lat="43.3218861" lon="12.2945701"><ele>255.0</ele><time>2026-05-02T08:40:59.203Z</time></trkpt><trkpt lat="43.3218329" lon="12.2946441"><ele>255.0</ele><time>2026-05-02T08:41:00.206Z</time></trkpt><trkpt lat="43.321774" lon="12.2947136"><ele>255.0</ele><time>2026-05-02T08:41:01.189Z</time></trkpt><trkpt lat="43.3217059" lon="12.2947881"><ele>255.0</ele><time>2026-05-02T08:41:02.204Z</time></trkpt><trkpt lat="43.3216401" lon="12.2948785"><ele>255.0</ele><time>2026-05-02T08:41:03.202Z</time></trkpt><trkpt lat="43.3215719" lon="12.2949636"><ele>255.0</ele><time>2026-05-02T08:41:04.199Z</time></trkpt><trkpt lat="43.3215083" lon="12.2950309"><ele>255.0</ele><time>2026-05-02T08:41:05.193Z</time></trkpt><trkpt lat="43.3214451" lon="12.2950959"><ele>255.0</ele><time>2026-05-02T08:41:06.205Z</time></trkpt><trkpt lat="43.3213787" lon="12.295162"><ele>255.0</ele><time>2026-05-02T08:41:07.203Z</time></trkpt><trkpt lat="43.3213071" lon="12.2952251"><ele>255.0</ele><time>2026-05-02T08:41:08.19Z</time></trkpt><trkpt lat="43.3212328" lon="12.2952783"><ele>253.83333333333334</ele><time>2026-05-02T08:41:09.197Z</time></trkpt><trkpt lat="43.3211558" lon="12.2953176"><ele>252.66666666666669</ele><time>2026-05-02T08:41:10.193Z</time></trkpt><trkpt lat="43.3210675" lon="12.2953476"><ele>251.5</ele><time>2026-05-02T08:41:11.213Z</time></trkpt><trkpt lat="43.3209851" lon="12.2953676"><ele>250.33333333333334</ele><time>2026-05-02T08:41:12.171Z</time></trkpt><trkpt lat="43.3209002" lon="12.2953795"><ele>249.16666666666669</ele><time>2026-05-02T08:41:13.195Z</time></trkpt><trkpt lat="43.3208142" lon="12.2953897"><ele>248.0</ele><time>2026-05-02T08:41:14.187Z</time></trkpt><trkpt lat="43.3207294" lon="12.2953995"><ele>248.00000000000003</ele><time>2026-05-02T08:41:15.191Z</time></trkpt><trkpt lat="43.3206461" lon="12.2954118"><ele>248.0</ele><time>2026-05-02T08:41:16.179Z</time></trkpt><trkpt lat="43.3205735" lon="12.2954256"><ele>248.0</ele><time>2026-05-02T08:41:17.206Z</time></trkpt><trkpt lat="43.3205023" lon="12.2954345"><ele>248.0</ele><time>2026-05-02T08:41:18.184Z</time></trkpt><trkpt lat="43.3204378" lon="12.2954392"><ele>248.00000000000003</ele><time>2026-05-02T08:41:19.204Z</time></trkpt><trkpt lat="43.3203339" lon="12.2954495"><ele>248.0</ele><time>2026-05-02T08:41:21.18Z</time></trkpt><trkpt lat="43.3202503" lon="12.2954736"><ele>247.66666666666669</ele><time>2026-05-02T08:41:23.195Z</time></trkpt><trkpt lat="43.3202092" lon="12.2955759"><ele>247.33333333333334</ele><time>2026-05-02T08:41:25.189Z</time></trkpt><trkpt lat="43.320228" lon="12.2957366"><ele>247.0</ele><time>2026-05-02T08:41:27.198Z</time></trkpt><trkpt lat="43.3202529" lon="12.2958276"><ele>246.66666666666669</ele><time>2026-05-02T08:41:28.196Z</time></trkpt><trkpt lat="43.3202712" lon="12.2959365"><ele>246.33333333333334</ele><time>2026-05-02T08:41:29.199Z</time></trkpt><trkpt lat="43.3202825" lon="12.2960294"><ele>246.0</ele><time>2026-05-02T08:41:30.191Z</time></trkpt><trkpt lat="43.3202981" lon="12.2961143"><ele>246.0</ele><time>2026-05-02T08:41:31.203Z</time></trkpt><trkpt lat="43.3203326" lon="12.296282"><ele>246.0</ele><time>2026-05-02T08:41:33.189Z</time></trkpt><trkpt lat="43.3203525" lon="12.2963696"><ele>246.0</ele><time>2026-05-02T08:41:34.195Z</time></trkpt><trkpt lat="43.3203663" lon="12.2964709"><ele>246.0</ele><time>2026-05-02T08:41:35.199Z</time></trkpt><trkpt lat="43.3203848" lon="12.2965701"><ele>246.0</ele><time>2026-05-02T08:41:36.203Z</time></trkpt><trkpt lat="43.3203971" lon="12.2966656"><ele>246.0</ele><time>2026-05-02T08:41:37.187Z</time></trkpt><trkpt lat="43.3204199" lon="12.2968075"><ele>246.0</ele><time>2026-05-02T08:41:39.199Z</time></trkpt><trkpt lat="43.3204385" lon="12.2969321"><ele>246.0</ele><time>2026-05-02T08:41:41.183Z</time></trkpt><trkpt lat="43.320458" lon="12.2970245"><ele>246.0</ele><time>2026-05-02T08:41:43.193Z</time></trkpt><trkpt lat="43.3205122" lon="12.2971481"><ele>246.0</ele><time>2026-05-02T08:41:45.199Z</time></trkpt><trkpt lat="43.3205634" lon="12.2972595"><ele>246.0</ele><time>2026-05-02T08:41:47.204Z</time></trkpt><trkpt lat="43.3206046" lon="12.2973517"><ele>246.0</ele><time>2026-05-02T08:41:49.194Z</time></trkpt><trkpt lat="43.3205887" lon="12.2974607"><ele>245.83333333333334</ele><time>2026-05-02T08:41:54.177Z</time></trkpt><trkpt lat="43.3204948" lon="12.2974649"><ele>245.66666666666669</ele><time>2026-05-02T08:41:56.184Z</time></trkpt><trkpt lat="43.3204317" lon="12.297448"><ele>245.5</ele><time>2026-05-02T08:41:57.2Z</time></trkpt><trkpt lat="43.3203585" lon="12.2974448"><ele>245.33333333333334</ele><time>2026-05-02T08:41:58.203Z</time></trkpt><trkpt lat="43.3202702" lon="12.2974335"><ele>245.16666666666669</ele><time>2026-05-02T08:41:59.196Z</time></trkpt><trkpt lat="43.3201804" lon="12.2974263"><ele>245.0</ele><time>2026-05-02T08:42:00.195Z</time></trkpt><trkpt lat="43.3200973" lon="12.2974054"><ele>245.0</ele><time>2026-05-02T08:42:01.195Z</time></trkpt><trkpt lat="43.3200011" lon="12.2973866"><ele>245.0</ele><time>2026-05-02T08:42:02.204Z</time></trkpt><trkpt lat="43.3198882" lon="12.2973639"><ele>245.0</ele><time>2026-05-02T08:42:03.181Z</time></trkpt><trkpt lat="43.3197731" lon="12.2973502"><ele>245.0</ele><time>2026-05-02T08:42:04.197Z</time></trkpt><trkpt lat="43.3196659" lon="12.2973267"><ele>245.0</ele><time>2026-05-02T08:42:05.206Z</time></trkpt><trkpt lat="43.3195613" lon="12.2973028"><ele>244.6</ele><time>2026-05-02T08:42:06.195Z</time></trkpt><trkpt lat="43.3194579" lon="12.2972851"><ele>244.2</ele><time>2026-05-02T08:42:07.218Z</time></trkpt><trkpt lat="43.3193426" lon="12.2972656"><ele>243.8</ele><time>2026-05-02T08:42:08.213Z</time></trkpt><trkpt lat="43.3192391" lon="12.2972421"><ele>243.4</ele><time>2026-05-02T08:42:09.194Z</time></trkpt><trkpt lat="43.3191278" lon="12.2972186"><ele>243.0</ele><time>2026-05-02T08:42:10.197Z</time></trkpt><trkpt lat="43.3190189" lon="12.2971953"><ele>242.75</ele><time>2026-05-02T08:42:11.198Z</time></trkpt><trkpt lat="43.3188991" lon="12.2971847"><ele>242.5</ele><time>2026-05-02T08:42:12.201Z</time></trkpt><trkpt lat="43.3187755" lon="12.2971802"><ele>242.25</ele><time>2026-05-02T08:42:13.198Z</time></trkpt><trkpt lat="43.318646" lon="12.2971987"><ele>242.0</ele><time>2026-05-02T08:42:14.192Z</time></trkpt><trkpt lat="43.3185147" lon="12.2972358"><ele>242.25</ele><time>2026-05-02T08:42:15.188Z</time></trkpt><trkpt lat="43.3183899" lon="12.2973048"><ele>242.5</ele><time>2026-05-02T08:42:16.184Z</time></trkpt><trkpt lat="43.3182556" lon="12.2973892"><ele>242.75</ele><time>2026-05-02T08:42:17.189Z</time></trkpt><trkpt lat="43.3181192" lon="12.2974857"><ele>243.0</ele><time>2026-05-02T08:42:18.19Z</time></trkpt><trkpt lat="43.3179946" lon="12.2975978"><ele>243.5</ele><time>2026-05-02T08:42:19.191Z</time></trkpt><trkpt lat="43.3178878" lon="12.2977231"><ele>244.0</ele><time>2026-05-02T08:42:20.195Z</time></trkpt><trkpt lat="43.3177935" lon="12.297849"><ele>244.5</ele><time>2026-05-02T08:42:21.199Z</time></trkpt><trkpt lat="43.3177109" lon="12.2979815"><ele>245.0</ele><time>2026-05-02T08:42:22.194Z</time></trkpt><trkpt lat="43.3176284" lon="12.298118"><ele>246.25</ele><time>2026-05-02T08:42:23.201Z</time></trkpt><trkpt lat="43.3175478" lon="12.2982659"><ele>247.5</ele><time>2026-05-02T08:42:24.202Z</time></trkpt><trkpt lat="43.3174753" lon="12.2984235"><ele>248.75</ele><time>2026-05-02T08:42:25.201Z</time></trkpt><trkpt lat="43.3173966" lon="12.298585"><ele>250.0</ele><time>2026-05-02T08:42:26.193Z</time></trkpt><trkpt lat="43.3173154" lon="12.2987592"><ele>254.66666666666666</ele><time>2026-05-02T08:42:27.201Z</time></trkpt><trkpt lat="43.3172256" lon="12.298924"><ele>259.3333333333333</ele><time>2026-05-02T08:42:28.183Z</time></trkpt><trkpt lat="43.3171346" lon="12.2991046"><ele>264.0</ele><time>2026-05-02T08:42:29.194Z</time></trkpt><trkpt lat="43.3170358" lon="12.2992984"><ele>264.0</ele><time>2026-05-02T08:42:30.185Z</time></trkpt><trkpt lat="43.3169386" lon="12.2994887"><ele>264.0</ele><time>2026-05-02T08:42:31.18Z</time></trkpt><trkpt lat="43.3168386" lon="12.2996605"><ele>264.0</ele><time>2026-05-02T08:42:32.183Z</time></trkpt><trkpt lat="43.3167213" lon="12.2998148"><ele>259.3333333333333</ele><time>2026-05-02T08:42:33.199Z</time></trkpt><trkpt lat="43.3165736" lon="12.2999412"><ele>254.66666666666666</ele><time>2026-05-02T08:42:34.186Z</time></trkpt><trkpt lat="43.3164067" lon="12.300014"><ele>250.0</ele><time>2026-05-02T08:42:35.209Z</time></trkpt><trkpt lat="43.3162243" lon="12.3000593"><ele>250.0</ele><time>2026-05-02T08:42:36.191Z</time></trkpt><trkpt lat="43.3160387" lon="12.3000963"><ele>250.0</ele><time>2026-05-02T08:42:37.205Z</time></trkpt><trkpt lat="43.3158582" lon="12.3001346"><ele>250.0</ele><time>2026-05-02T08:42:38.2Z</time></trkpt><trkpt lat="43.3156717" lon="12.3001689"><ele>255.33333333333331</ele><time>2026-05-02T08:42:39.201Z</time></trkpt><trkpt lat="43.3155019" lon="12.3002072"><ele>260.6666666666667</ele><time>2026-05-02T08:42:40.201Z</time></trkpt><trkpt lat="43.315332" lon="12.3002484"><ele>266.0</ele><time>2026-05-02T08:42:41.198Z</time></trkpt><trkpt lat="43.3151599" lon="12.3002878"><ele>266.0</ele><time>2026-05-02T08:42:42.194Z</time></trkpt><trkpt lat="43.3149811" lon="12.300328"><ele>266.0</ele><time>2026-05-02T08:42:43.174Z</time></trkpt><trkpt lat="43.3147902" lon="12.300382"><ele>266.0</ele><time>2026-05-02T08:42:44.199Z</time></trkpt><trkpt lat="43.3145904" lon="12.3004199"><ele>267.6666666666667</ele><time>2026-05-02T08:42:45.203Z</time></trkpt><trkpt lat="43.3143838" lon="12.3004338"><ele>269.3333333333333</ele><time>2026-05-02T08:42:46.205Z</time></trkpt><trkpt lat="43.3141956" lon="12.3004207"><ele>271.0</ele><time>2026-05-02T08:42:47.201Z</time></trkpt><trkpt lat="43.3140206" lon="12.3004219"><ele>269.25</ele><time>2026-05-02T08:42:48.205Z</time></trkpt><trkpt lat="43.3138794" lon="12.3004464"><ele>267.5</ele><time>2026-05-02T08:42:49.199Z</time></trkpt><trkpt lat="43.3137612" lon="12.3005138"><ele>265.75</ele><time>2026-05-02T08:42:50.186Z</time></trkpt><trkpt lat="43.3136851" lon="12.3006425"><ele>264.0</ele><time>2026-05-02T08:42:51.192Z</time></trkpt><trkpt lat="43.3136182" lon="12.300778"><ele>261.0</ele><time>2026-05-02T08:42:52.207Z</time></trkpt><trkpt lat="43.3135767" lon="12.3009483"><ele>258.0</ele><time>2026-05-02T08:42:53.189Z</time></trkpt><trkpt lat="43.3135204" lon="12.301109"><ele>255.0</ele><time>2026-05-02T08:42:54.201Z</time></trkpt><trkpt lat="43.3134245" lon="12.3012317"><ele>252.0</ele><time>2026-05-02T08:42:55.201Z</time></trkpt><trkpt lat="43.3132805" lon="12.3013266"><ele>252.0</ele><time>2026-05-02T08:42:56.189Z</time></trkpt><trkpt lat="43.3131191" lon="12.3014076"><ele>252.0</ele><time>2026-05-02T08:42:57.204Z</time></trkpt><trkpt lat="43.3129638" lon="12.3014871"><ele>252.0</ele><time>2026-05-02T08:42:58.202Z</time></trkpt><trkpt lat="43.3128115" lon="12.3015893"><ele>251.0</ele><time>2026-05-02T08:42:59.203Z</time></trkpt><trkpt lat="43.3126503" lon="12.3017242"><ele>250.0</ele><time>2026-05-02T08:43:00.193Z</time></trkpt><trkpt lat="43.3125032" lon="12.3018734"><ele>249.0</ele><time>2026-05-02T08:43:01.201Z</time></trkpt><trkpt lat="43.3123649" lon="12.3020481"><ele>249.0</ele><time>2026-05-02T08:43:02.198Z</time></trkpt><trkpt lat="43.3122342" lon="12.3022445"><ele>249.0</ele><time>2026-05-02T08:43:03.19Z</time></trkpt><trkpt lat="43.3121144" lon="12.3024459"><ele>249.0</ele><time>2026-05-02T08:43:04.193Z</time></trkpt><trkpt lat="43.3120041" lon="12.3026633"><ele>249.0</ele><time>2026-05-02T08:43:05.207Z</time></trkpt><trkpt lat="43.3118918" lon="12.3028835"><ele>249.0</ele><time>2026-05-02T08:43:06.185Z</time></trkpt><trkpt lat="43.3117884" lon="12.3031088"><ele>249.0</ele><time>2026-05-02T08:43:07.196Z</time></trkpt><trkpt lat="43.3116873" lon="12.3033271"><ele>247.66666666666669</ele><time>2026-05-02T08:43:08.197Z</time></trkpt><trkpt lat="43.3115846" lon="12.3035508"><ele>246.33333333333334</ele><time>2026-05-02T08:43:09.211Z</time></trkpt><trkpt lat="43.3114827" lon="12.3037637"><ele>245.0</ele><time>2026-05-02T08:43:10.202Z</time></trkpt><trkpt lat="43.3113777" lon="12.303973"><ele>245.0</ele><time>2026-05-02T08:43:11.21Z</time></trkpt><trkpt lat="43.311275" lon="12.3041905"><ele>245.0</ele><time>2026-05-02T08:43:12.194Z</time></trkpt><trkpt lat="43.3111726" lon="12.3044043"><ele>245.0</ele><time>2026-05-02T08:43:13.196Z</time></trkpt><trkpt lat="43.3110734" lon="12.30461"><ele>244.0</ele><time>2026-05-02T08:43:14.196Z</time></trkpt><trkpt lat="43.3109766" lon="12.304809"><ele>243.0</ele><time>2026-05-02T08:43:15.188Z</time></trkpt><trkpt lat="43.3108752" lon="12.3050009"><ele>242.0</ele><time>2026-05-02T08:43:16.175Z</time></trkpt><trkpt lat="43.3107614" lon="12.3051704"><ele>242.0</ele><time>2026-05-02T08:43:17.205Z</time></trkpt><trkpt lat="43.3106297" lon="12.305325"><ele>242.0</ele><time>2026-05-02T08:43:18.207Z</time></trkpt><trkpt lat="43.3104933" lon="12.3054803"><ele>242.0</ele><time>2026-05-02T08:43:19.196Z</time></trkpt><trkpt lat="43.3103501" lon="12.3056316"><ele>242.33333333333334</ele><time>2026-05-02T08:43:20.211Z</time></trkpt><trkpt lat="43.310209" lon="12.3057905"><ele>242.66666666666669</ele><time>2026-05-02T08:43:21.21Z</time></trkpt><trkpt lat="43.3100688" lon="12.3059692"><ele>243.0</ele><time>2026-05-02T08:43:22.201Z</time></trkpt><trkpt lat="43.3099362" lon="12.3061433"><ele>243.0</ele><time>2026-05-02T08:43:23.188Z</time></trkpt><trkpt lat="43.3098118" lon="12.3063319"><ele>243.0</ele><time>2026-05-02T08:43:24.198Z</time></trkpt><trkpt lat="43.309711" lon="12.3065476"><ele>243.0</ele><time>2026-05-02T08:43:25.198Z</time></trkpt><trkpt lat="43.3096305" lon="12.3067944"><ele>243.33333333333331</ele><time>2026-05-02T08:43:26.208Z</time></trkpt><trkpt lat="43.3095741" lon="12.3070601"><ele>243.66666666666666</ele><time>2026-05-02T08:43:27.199Z</time></trkpt><trkpt lat="43.3095158" lon="12.3073156"><ele>244.0</ele><time>2026-05-02T08:43:28.195Z</time></trkpt><trkpt lat="43.3094649" lon="12.3075633"><ele>244.0</ele><time>2026-05-02T08:43:29.205Z</time></trkpt><trkpt lat="43.3094" lon="12.3077974"><ele>244.0</ele><time>2026-05-02T08:43:30.208Z</time></trkpt><trkpt lat="43.3093051" lon="12.3080212"><ele>244.0</ele><time>2026-05-02T08:43:31.212Z</time></trkpt><trkpt lat="43.3091922" lon="12.30822"><ele>242.66666666666666</ele><time>2026-05-02T08:43:32.209Z</time></trkpt><trkpt lat="43.3090577" lon="12.3084008"><ele>241.33333333333331</ele><time>2026-05-02T08:43:33.199Z</time></trkpt><trkpt lat="43.3089317" lon="12.308583"><ele>240.0</ele><time>2026-05-02T08:43:34.194Z</time></trkpt><trkpt lat="43.3087982" lon="12.3087573"><ele>240.66666666666669</ele><time>2026-05-02T08:43:35.199Z</time></trkpt><trkpt lat="43.3086578" lon="12.3089334"><ele>241.33333333333334</ele><time>2026-05-02T08:43:36.192Z</time></trkpt><trkpt lat="43.3085168" lon="12.3091113"><ele>242.0</ele><time>2026-05-02T08:43:37.191Z</time></trkpt><trkpt lat="43.308371" lon="12.3093"><ele>242.0</ele><time>2026-05-02T08:43:38.197Z</time></trkpt><trkpt lat="43.3082312" lon="12.3094913"><ele>242.0</ele><time>2026-05-02T08:43:39.197Z</time></trkpt><trkpt lat="43.3080926" lon="12.3096881"><ele>242.0</ele><time>2026-05-02T08:43:40.19Z</time></trkpt><trkpt lat="43.3079615" lon="12.3098611"><ele>242.66666666666669</ele><time>2026-05-02T08:43:41.196Z</time></trkpt><trkpt lat="43.3078355" lon="12.3100243"><ele>243.33333333333331</ele><time>2026-05-02T08:43:42.195Z</time></trkpt><trkpt lat="43.3077031" lon="12.3101857"><ele>244.0</ele><time>2026-05-02T08:43:43.196Z</time></trkpt><trkpt lat="43.3075684" lon="12.3103469"><ele>244.0</ele><time>2026-05-02T08:43:44.203Z</time></trkpt><trkpt lat="43.3074433" lon="12.3105067"><ele>244.0</ele><time>2026-05-02T08:43:45.206Z</time></trkpt><trkpt lat="43.307325" lon="12.3106572"><ele>244.0</ele><time>2026-05-02T08:43:46.196Z</time></trkpt><trkpt lat="43.3072113" lon="12.310811"><ele>245.33333333333331</ele><time>2026-05-02T08:43:47.194Z</time></trkpt><trkpt lat="43.3071161" lon="12.3109748"><ele>246.66666666666669</ele><time>2026-05-02T08:43:48.196Z</time></trkpt><trkpt lat="43.3070418" lon="12.3111502"><ele>248.0</ele><time>2026-05-02T08:43:49.198Z</time></trkpt><trkpt lat="43.3069814" lon="12.311346"><ele>246.33333333333334</ele><time>2026-05-02T08:43:50.185Z</time></trkpt><trkpt lat="43.3069238" lon="12.3115528"><ele>244.66666666666669</ele><time>2026-05-02T08:43:51.199Z</time></trkpt><trkpt lat="43.3068786" lon="12.3117601"><ele>243.0</ele><time>2026-05-02T08:43:52.212Z</time></trkpt><trkpt lat="43.3068502" lon="12.3119772"><ele>243.0</ele><time>2026-05-02T08:43:53.194Z</time></trkpt><trkpt lat="43.3068175" lon="12.3121927"><ele>243.0</ele><time>2026-05-02T08:43:54.199Z</time></trkpt><trkpt lat="43.3067835" lon="12.3124043"><ele>243.0</ele><time>2026-05-02T08:43:55.194Z</time></trkpt><trkpt lat="43.3067466" lon="12.3126156"><ele>242.66666666666669</ele><time>2026-05-02T08:43:56.203Z</time></trkpt><trkpt lat="43.30671" lon="12.3128286"><ele>242.33333333333334</ele><time>2026-05-02T08:43:57.197Z</time></trkpt><trkpt lat="43.306676" lon="12.3130443"><ele>242.0</ele><time>2026-05-02T08:43:58.188Z</time></trkpt><trkpt lat="43.3066424" lon="12.3132655"><ele>242.0</ele><time>2026-05-02T08:43:59.206Z</time></trkpt><trkpt lat="43.3066078" lon="12.3134872"><ele>242.0</ele><time>2026-05-02T08:44:00.209Z</time></trkpt><trkpt lat="43.3065695" lon="12.3137072"><ele>242.0</ele><time>2026-05-02T08:44:01.203Z</time></trkpt><trkpt lat="43.3065306" lon="12.3139149"><ele>241.33333333333334</ele><time>2026-05-02T08:44:02.188Z</time></trkpt><trkpt lat="43.3064877" lon="12.31413"><ele>240.66666666666669</ele><time>2026-05-02T08:44:03.196Z</time></trkpt><trkpt lat="43.3064459" lon="12.3143461"><ele>240.0</ele><time>2026-05-02T08:44:04.21Z</time></trkpt><trkpt lat="43.3064009" lon="12.3145611"><ele>241.0</ele><time>2026-05-02T08:44:05.203Z</time></trkpt><trkpt lat="43.3063536" lon="12.3147832"><ele>242.0</ele><time>2026-05-02T08:44:06.198Z</time></trkpt><trkpt lat="43.3063024" lon="12.315001"><ele>243.0</ele><time>2026-05-02T08:44:07.203Z</time></trkpt><trkpt lat="43.3062424" lon="12.3152183"><ele>243.0</ele><time>2026-05-02T08:44:08.201Z</time></trkpt><trkpt lat="43.306167" lon="12.3154247"><ele>243.0</ele><time>2026-05-02T08:44:09.193Z</time></trkpt><trkpt lat="43.3060744" lon="12.3156198"><ele>243.0</ele><time>2026-05-02T08:44:10.191Z</time></trkpt><trkpt lat="43.3059772" lon="12.3158099"><ele>242.33333333333331</ele><time>2026-05-02T08:44:11.192Z</time></trkpt><trkpt lat="43.3058685" lon="12.3159925"><ele>241.66666666666666</ele><time>2026-05-02T08:44:12.182Z</time></trkpt><trkpt lat="43.3057611" lon="12.3161704"><ele>241.0</ele><time>2026-05-02T08:44:13.191Z</time></trkpt><trkpt lat="43.3056514" lon="12.3163449"><ele>244.0</ele><time>2026-05-02T08:44:14.196Z</time></trkpt><trkpt lat="43.3055613" lon="12.3165327"><ele>247.0</ele><time>2026-05-02T08:44:15.202Z</time></trkpt><trkpt lat="43.3054904" lon="12.316738"><ele>250.0</ele><time>2026-05-02T08:44:16.193Z</time></trkpt><trkpt lat="43.3054295" lon="12.3169438"><ele>250.0</ele><time>2026-05-02T08:44:17.191Z</time></trkpt><trkpt lat="43.3053812" lon="12.3171472"><ele>250.0</ele><time>2026-05-02T08:44:18.196Z</time></trkpt><trkpt lat="43.3053472" lon="12.3173611"><ele>250.0</ele><time>2026-05-02T08:44:19.201Z</time></trkpt><trkpt lat="43.3053366" lon="12.3175757"><ele>248.66666666666666</ele><time>2026-05-02T08:44:20.193Z</time></trkpt><trkpt lat="43.3053305" lon="12.3178134"><ele>247.33333333333331</ele><time>2026-05-02T08:44:21.191Z</time></trkpt><trkpt lat="43.3053324" lon="12.3180371"><ele>246.0</ele><time>2026-05-02T08:44:22.203Z</time></trkpt><trkpt lat="43.3053347" lon="12.3182494"><ele>245.5</ele><time>2026-05-02T08:44:23.197Z</time></trkpt><trkpt lat="43.3053397" lon="12.3184461"><ele>245.0</ele><time>2026-05-02T08:44:24.191Z</time></trkpt><trkpt lat="43.3053429" lon="12.3186467"><ele>244.5</ele><time>2026-05-02T08:44:25.201Z</time></trkpt><trkpt lat="43.3053494" lon="12.3188413"><ele>244.0</ele><time>2026-05-02T08:44:26.191Z</time></trkpt><trkpt lat="43.3053528" lon="12.3190333"><ele>243.5</ele><time>2026-05-02T08:44:27.204Z</time></trkpt><trkpt lat="43.3053648" lon="12.3192144"><ele>243.0</ele><time>2026-05-02T08:44:28.171Z</time></trkpt><trkpt lat="43.3053802" lon="12.3193985"><ele>242.5</ele><time>2026-05-02T08:44:29.2Z</time></trkpt><trkpt lat="43.305387" lon="12.3195782"><ele>242.0</ele><time>2026-05-02T08:44:30.175Z</time></trkpt><trkpt lat="43.3053881" lon="12.3197587"><ele>241.5</ele><time>2026-05-02T08:44:31.192Z</time></trkpt><trkpt lat="43.3053879" lon="12.3199434"><ele>241.0</ele><time>2026-05-02T08:44:32.214Z</time></trkpt><trkpt lat="43.3053978" lon="12.3201114"><ele>240.5</ele><time>2026-05-02T08:44:33.19Z</time></trkpt><trkpt lat="43.3054048" lon="12.320274"><ele>240.0</ele><time>2026-05-02T08:44:34.186Z</time></trkpt><trkpt lat="43.3054121" lon="12.3204275"><ele>240.5</ele><time>2026-05-02T08:44:35.203Z</time></trkpt><trkpt lat="43.3054194" lon="12.3205766"><ele>241.0</ele><time>2026-05-02T08:44:36.176Z</time></trkpt><trkpt lat="43.3054288" lon="12.3207306"><ele>241.5</ele><time>2026-05-02T08:44:37.197Z</time></trkpt><trkpt lat="43.3054402" lon="12.3208841"><ele>242.0</ele><time>2026-05-02T08:44:38.2Z</time></trkpt><trkpt lat="43.3054478" lon="12.3210603"><ele>242.0</ele><time>2026-05-02T08:44:39.2Z</time></trkpt><trkpt lat="43.3054559" lon="12.3212439"><ele>242.0</ele><time>2026-05-02T08:44:40.197Z</time></trkpt><trkpt lat="43.3054607" lon="12.3214195"><ele>242.0</ele><time>2026-05-02T08:44:41.201Z</time></trkpt><trkpt lat="43.3054635" lon="12.3215837"><ele>242.0</ele><time>2026-05-02T08:44:42.181Z</time></trkpt><trkpt lat="43.3054675" lon="12.3217415"><ele>241.8</ele><time>2026-05-02T08:44:43.221Z</time></trkpt><trkpt lat="43.3054706" lon="12.3218867"><ele>241.6</ele><time>2026-05-02T08:44:44.182Z</time></trkpt><trkpt lat="43.3054741" lon="12.3220362"><ele>241.40000000000003</ele><time>2026-05-02T08:44:45.189Z</time></trkpt><trkpt lat="43.3054751" lon="12.3221904"><ele>241.20000000000002</ele><time>2026-05-02T08:44:46.198Z</time></trkpt><trkpt lat="43.3054747" lon="12.3223529"><ele>241.0</ele><time>2026-05-02T08:44:47.188Z</time></trkpt><trkpt lat="43.305477" lon="12.3225234"><ele>240.75</ele><time>2026-05-02T08:44:48.19Z</time></trkpt><trkpt lat="43.3054798" lon="12.3226931"><ele>240.5</ele><time>2026-05-02T08:44:49.198Z</time></trkpt><trkpt lat="43.3054767" lon="12.3228621"><ele>240.25</ele><time>2026-05-02T08:44:50.189Z</time></trkpt><trkpt lat="43.3054799" lon="12.3230286"><ele>240.0</ele><time>2026-05-02T08:44:51.202Z</time></trkpt><trkpt lat="43.3054816" lon="12.3231928"><ele>239.75</ele><time>2026-05-02T08:44:52.2Z</time></trkpt><trkpt lat="43.305484" lon="12.3233558"><ele>239.5</ele><time>2026-05-02T08:44:53.199Z</time></trkpt><trkpt lat="43.3054861" lon="12.3235195"><ele>239.25</ele><time>2026-05-02T08:44:54.196Z</time></trkpt><trkpt lat="43.3054897" lon="12.3236745"><ele>239.0</ele><time>2026-05-02T08:44:55.2Z</time></trkpt><trkpt lat="43.3054947" lon="12.3238385"><ele>238.75</ele><time>2026-05-02T08:44:56.205Z</time></trkpt><trkpt lat="43.3054994" lon="12.3240017"><ele>238.5</ele><time>2026-05-02T08:44:57.207Z</time></trkpt><trkpt lat="43.3055025" lon="12.3241642"><ele>238.25</ele><time>2026-05-02T08:44:58.191Z</time></trkpt><trkpt lat="43.3055081" lon="12.3243307"><ele>238.0</ele><time>2026-05-02T08:44:59.201Z</time></trkpt><trkpt lat="43.3055116" lon="12.3244981"><ele>238.0</ele><time>2026-05-02T08:45:00.204Z</time></trkpt><trkpt lat="43.3055109" lon="12.3246612"><ele>238.0</ele><time>2026-05-02T08:45:01.198Z</time></trkpt><trkpt lat="43.3055159" lon="12.3248117"><ele>238.0</ele><time>2026-05-02T08:45:02.205Z</time></trkpt><trkpt lat="43.3055183" lon="12.3249669"><ele>238.0</ele><time>2026-05-02T08:45:03.2Z</time></trkpt><trkpt lat="43.3055303" lon="12.3251102"><ele>238.0</ele><time>2026-05-02T08:45:04.193Z</time></trkpt><trkpt lat="43.305539" lon="12.3252375"><ele>237.99999999999997</ele><time>2026-05-02T08:45:05.189Z</time></trkpt><trkpt lat="43.3055452" lon="12.3253615"><ele>238.0</ele><time>2026-05-02T08:45:06.209Z</time></trkpt><trkpt lat="43.3055458" lon="12.3254956"><ele>238.0</ele><time>2026-05-02T08:45:07.204Z</time></trkpt><trkpt lat="43.3055487" lon="12.3256158"><ele>238.0</ele><time>2026-05-02T08:45:08.196Z</time></trkpt><trkpt lat="43.3055582" lon="12.3257249"><ele>237.99999999999997</ele><time>2026-05-02T08:45:09.206Z</time></trkpt><trkpt lat="43.30556" lon="12.3258186"><ele>238.0</ele><time>2026-05-02T08:45:10.192Z</time></trkpt><trkpt lat="43.3055645" lon="12.3259121"><ele>238.0</ele><time>2026-05-02T08:45:11.203Z</time></trkpt><trkpt lat="43.3055681" lon="12.3260809"><ele>238.0</ele><time>2026-05-02T08:45:13.196Z</time></trkpt><trkpt lat="43.305572" lon="12.3262241"><ele>238.0</ele><time>2026-05-02T08:45:15.198Z</time></trkpt><trkpt lat="43.3055709" lon="12.3263649"><ele>238.0</ele><time>2026-05-02T08:45:17.201Z</time></trkpt><trkpt lat="43.3055792" lon="12.3264731"><ele>238.0</ele><time>2026-05-02T08:45:19.181Z</time></trkpt><trkpt lat="43.3055955" lon="12.3265763"><ele>239.8</ele><time>2026-05-02T08:45:23.19Z</time></trkpt><trkpt lat="43.3056054" lon="12.3267292"><ele>241.60000000000002</ele><time>2026-05-02T08:45:26.19Z</time></trkpt><trkpt lat="43.305593" lon="12.3268862"><ele>243.39999999999998</ele><time>2026-05-02T08:45:28.206Z</time></trkpt><trkpt lat="43.3055989" lon="12.3270655"><ele>245.2</ele><time>2026-05-02T08:45:30.211Z</time></trkpt><trkpt lat="43.3055959" lon="12.3271756"><ele>247.0</ele><time>2026-05-02T08:45:31.188Z</time></trkpt><trkpt lat="43.3055916" lon="12.327301"><ele>246.8</ele><time>2026-05-02T08:45:32.193Z</time></trkpt><trkpt lat="43.3055874" lon="12.3274372"><ele>246.6</ele><time>2026-05-02T08:45:33.198Z</time></trkpt><trkpt lat="43.3055896" lon="12.3275677"><ele>246.40000000000003</ele><time>2026-05-02T08:45:34.197Z</time></trkpt><trkpt lat="43.305584" lon="12.3277008"><ele>246.20000000000002</ele><time>2026-05-02T08:45:35.201Z</time></trkpt><trkpt lat="43.3055704" lon="12.3278423"><ele>246.0</ele><time>2026-05-02T08:45:36.205Z</time></trkpt><trkpt lat="43.3055523" lon="12.3279842"><ele>246.20000000000002</ele><time>2026-05-02T08:45:37.186Z</time></trkpt><trkpt lat="43.305539" lon="12.3281198"><ele>246.40000000000003</ele><time>2026-05-02T08:45:38.188Z</time></trkpt><trkpt lat="43.3055241" lon="12.328252"><ele>246.6</ele><time>2026-05-02T08:45:39.189Z</time></trkpt><trkpt lat="43.3055181" lon="12.3283842"><ele>246.8</ele><time>2026-05-02T08:45:40.19Z</time></trkpt><trkpt lat="43.3055307" lon="12.3285041"><ele>247.0</ele><time>2026-05-02T08:45:41.189Z</time></trkpt><trkpt lat="43.3055404" lon="12.3286183"><ele>246.99999999999997</ele><time>2026-05-02T08:45:42.192Z</time></trkpt><trkpt lat="43.3055527" lon="12.3287227"><ele>247.0</ele><time>2026-05-02T08:45:43.182Z</time></trkpt><trkpt lat="43.3055665" lon="12.3288146"><ele>247.0</ele><time>2026-05-02T08:45:44.207Z</time></trkpt><trkpt lat="43.3055754" lon="12.3289648"><ele>247.0</ele><time>2026-05-02T08:45:46.181Z</time></trkpt><trkpt lat="43.3055938" lon="12.3290573"><ele>246.99999999999997</ele><time>2026-05-02T08:45:48.192Z</time></trkpt><trkpt lat="43.3056973" lon="12.329101"><ele>247.0</ele><time>2026-05-02T08:45:51.171Z</time></trkpt><trkpt lat="43.3057871" lon="12.329122"><ele>247.49999999999997</ele><time>2026-05-02T08:45:53.188Z</time></trkpt><trkpt lat="43.3058628" lon="12.329099"><ele>248.0</ele><time>2026-05-02T08:45:55.195Z</time></trkpt><trkpt lat="43.3059363" lon="12.329049"><ele>248.5</ele><time>2026-05-02T08:45:57.192Z</time></trkpt><trkpt lat="43.3060084" lon="12.3290037"><ele>249.0</ele><time>2026-05-02T08:45:59.181Z</time></trkpt><trkpt lat="43.3060844" lon="12.3289691"><ele>249.49999999999997</ele><time>2026-05-02T08:46:02.178Z</time></trkpt><trkpt lat="43.3061486" lon="12.3289513"><ele>250.0</ele><time>2026-05-02T08:46:05.183Z</time></trkpt><trkpt lat="43.3062169" lon="12.3289499"><ele>249.99999999999997</ele><time>2026-05-02T08:46:08.198Z</time></trkpt><trkpt lat="43.3062819" lon="12.3289623"><ele>250.0</ele><time>2026-05-02T08:46:12.207Z</time></trkpt><trkpt lat="43.3063622" lon="12.3289234"><ele>250.0</ele><time>2026-05-02T08:46:16.183Z</time></trkpt><trkpt lat="43.3063974" lon="12.3288282"><ele>250.0</ele><time>2026-05-02T08:46:18.204Z</time></trkpt><trkpt lat="43.3064254" lon="12.3287415"><ele>249.99999999999997</ele><time>2026-05-02T08:46:20.171Z</time></trkpt><trkpt lat="43.3064935" lon="12.3286841"><ele>250.0</ele><time>2026-05-02T08:46:22.185Z</time></trkpt><trkpt lat="43.3065653" lon="12.3286483"><ele>249.42857142857142</ele><time>2026-05-02T08:46:24.195Z</time></trkpt><trkpt lat="43.3066338" lon="12.3286163"><ele>248.8571428571429</ele><time>2026-05-02T08:46:26.2Z</time></trkpt><trkpt lat="43.306696" lon="12.3285832"><ele>248.2857142857143</ele><time>2026-05-02T08:46:28.196Z</time></trkpt><trkpt lat="43.3067618" lon="12.3285508"><ele>247.71428571428572</ele><time>2026-05-02T08:46:30.173Z</time></trkpt><trkpt lat="43.3068256" lon="12.3285314"><ele>247.14285714285717</ele><time>2026-05-02T08:46:32.192Z</time></trkpt><trkpt lat="43.3068986" lon="12.32857"><ele>246.5714285714286</ele><time>2026-05-02T08:46:35.195Z</time></trkpt><trkpt lat="43.3069461" lon="12.3286643"><ele>246.00000000000003</ele><time>2026-05-02T08:46:38.193Z</time></trkpt><trkpt lat="43.3069889" lon="12.3287556"><ele>246.0</ele><time>2026-05-02T08:46:41.191Z</time></trkpt><trkpt lat="43.3069656" lon="12.3286271"><ele>246.00000000000003</ele><time>2026-05-02T08:47:11.172Z</time></trkpt><trkpt lat="43.3069242" lon="12.3285257"><ele>246.00000000000003</ele><time>2026-05-02T08:47:13.184Z</time></trkpt><trkpt lat="43.3068678" lon="12.3284829"><ele>246.0</ele><time>2026-05-02T08:47:15.191Z</time></trkpt><trkpt lat="43.3067504" lon="12.3284968"><ele>246.0</ele><time>2026-05-02T08:47:17.197Z</time></trkpt><trkpt lat="43.3066415" lon="12.328554"><ele>246.0</ele><time>2026-05-02T08:47:19.202Z</time></trkpt><trkpt lat="43.3065725" lon="12.3285794"><ele>246.0</ele><time>2026-05-02T08:47:21.183Z</time></trkpt><trkpt lat="43.3065037" lon="12.3286217"><ele>246.0</ele><time>2026-05-02T08:47:32.198Z</time></trkpt><trkpt lat="43.3064168" lon="12.3286601"><ele>246.0</ele><time>2026-05-02T08:47:35.181Z</time></trkpt><trkpt lat="43.3063331" lon="12.328682"><ele>246.0</ele><time>2026-05-02T08:47:38.188Z</time></trkpt><trkpt lat="43.3062872" lon="12.3287478"><ele>246.0</ele><time>2026-05-02T08:47:41.188Z</time></trkpt><trkpt lat="43.3063257" lon="12.3288535"><ele>246.33333333333334</ele><time>2026-05-02T08:47:44.195Z</time></trkpt><trkpt lat="43.3063519" lon="12.3289586"><ele>246.66666666666669</ele><time>2026-05-02T08:47:47.207Z</time></trkpt><trkpt lat="43.3063757" lon="12.3290738"><ele>247.0</ele><time>2026-05-02T08:47:55.182Z</time></trkpt><trkpt lat="43.3064034" lon="12.3291608"><ele>247.33333333333334</ele><time>2026-05-02T08:47:57.186Z</time></trkpt><trkpt lat="43.3064281" lon="12.3292583"><ele>247.66666666666669</ele><time>2026-05-02T08:47:59.192Z</time></trkpt><trkpt lat="43.3064485" lon="12.3293975"><ele>248.0</ele><time>2026-05-02T08:48:01.212Z</time></trkpt><trkpt lat="43.3064596" lon="12.3294885"><ele>248.00000000000003</ele><time>2026-05-02T08:48:02.204Z</time></trkpt><trkpt lat="43.3064739" lon="12.3295823"><ele>248.0</ele><time>2026-05-02T08:48:03.205Z</time></trkpt><trkpt lat="43.306497" lon="12.3296729"><ele>248.0</ele><time>2026-05-02T08:48:04.188Z</time></trkpt><trkpt lat="43.3065194" lon="12.329767"><ele>248.0</ele><time>2026-05-02T08:48:05.201Z</time></trkpt><trkpt lat="43.3065374" lon="12.3298533"><ele>248.00000000000003</ele><time>2026-05-02T08:48:06.195Z</time></trkpt><trkpt lat="43.3065638" lon="12.3300206"><ele>248.0</ele><time>2026-05-02T08:48:08.196Z</time></trkpt><trkpt lat="43.3065877" lon="12.3301657"><ele>248.00000000000003</ele><time>2026-05-02T08:48:10.194Z</time></trkpt><trkpt lat="43.3065388" lon="12.3302563"><ele>248.0</ele><time>2026-05-02T08:48:12.184Z</time></trkpt><trkpt lat="43.3064183" lon="12.3302891"><ele>248.0</ele><time>2026-05-02T08:48:14.196Z</time></trkpt><trkpt lat="43.3063449" lon="12.3303223"><ele>248.0</ele><time>2026-05-02T08:48:15.196Z</time></trkpt><trkpt lat="43.3062623" lon="12.330352"><ele>248.00000000000003</ele><time>2026-05-02T08:48:16.178Z</time></trkpt><trkpt lat="43.3061834" lon="12.3303789"><ele>248.0</ele><time>2026-05-02T08:48:17.2Z</time></trkpt><trkpt lat="43.3061046" lon="12.3304018"><ele>248.00000000000003</ele><time>2026-05-02T08:48:18.175Z</time></trkpt><trkpt lat="43.3060277" lon="12.3304312"><ele>248.0</ele><time>2026-05-02T08:48:19.209Z</time></trkpt><trkpt lat="43.3059463" lon="12.3304629"><ele>248.0</ele><time>2026-05-02T08:48:20.197Z</time></trkpt><trkpt lat="43.3058664" lon="12.3304955"><ele>248.0</ele><time>2026-05-02T08:48:21.19Z</time></trkpt><trkpt lat="43.305782" lon="12.330528"><ele>248.00000000000003</ele><time>2026-05-02T08:48:22.207Z</time></trkpt><trkpt lat="43.3057" lon="12.3305598"><ele>248.0</ele><time>2026-05-02T08:48:23.188Z</time></trkpt><trkpt lat="43.3056238" lon="12.330595"><ele>248.00000000000003</ele><time>2026-05-02T08:48:24.205Z</time></trkpt><trkpt lat="43.3055495" lon="12.3306281"><ele>248.0</ele><time>2026-05-02T08:48:25.196Z</time></trkpt><trkpt lat="43.3054818" lon="12.3306534"><ele>248.0</ele><time>2026-05-02T08:48:26.189Z</time></trkpt><trkpt lat="43.3054164" lon="12.3306799"><ele>248.0</ele><time>2026-05-02T08:48:27.196Z</time></trkpt><trkpt lat="43.3053534" lon="12.3306972"><ele>248.00000000000003</ele><time>2026-05-02T08:48:28.189Z</time></trkpt><trkpt lat="43.3052903" lon="12.3306961"><ele>248.0</ele><time>2026-05-02T08:48:29.193Z</time></trkpt><trkpt lat="43.3051877" lon="12.3306107"><ele>247.8</ele><time>2026-05-02T08:48:31.212Z</time></trkpt><trkpt lat="43.3050887" lon="12.3305142"><ele>247.60000000000002</ele><time>2026-05-02T08:48:33.203Z</time></trkpt><trkpt lat="43.3050124" lon="12.3304318"><ele>247.39999999999998</ele><time>2026-05-02T08:48:35.193Z</time></trkpt><trkpt lat="43.3049461" lon="12.3303376"><ele>247.2</ele><time>2026-05-02T08:48:37.197Z</time></trkpt><trkpt lat="43.3048994" lon="12.3302663"><ele>247.0</ele><time>2026-05-02T08:48:40.201Z</time></trkpt><trkpt lat="43.3048054" lon="12.3303096"><ele>246.99999999999997</ele><time>2026-05-02T08:49:03.186Z</time></trkpt><trkpt lat="43.304767" lon="12.3303805"><ele>247.0</ele><time>2026-05-02T08:49:04.175Z</time></trkpt><trkpt lat="43.3047249" lon="12.3304471"><ele>247.0</ele><time>2026-05-02T08:49:05.19Z</time></trkpt><trkpt lat="43.3046782" lon="12.3305297"><ele>247.0</ele><time>2026-05-02T08:49:06.185Z</time></trkpt><trkpt lat="43.3046238" lon="12.3306232"><ele>246.99999999999997</ele><time>2026-05-02T08:49:07.197Z</time></trkpt><trkpt lat="43.304559" lon="12.3307053"><ele>247.0</ele><time>2026-05-02T08:49:08.197Z</time></trkpt><trkpt lat="43.3044956" lon="12.330797"><ele>246.71428571428572</ele><time>2026-05-02T08:49:09.192Z</time></trkpt><trkpt lat="43.3044354" lon="12.3308863"><ele>246.42857142857142</ele><time>2026-05-02T08:49:10.205Z</time></trkpt><trkpt lat="43.3043914" lon="12.3309623"><ele>246.14285714285714</ele><time>2026-05-02T08:49:11.185Z</time></trkpt><trkpt lat="43.304346" lon="12.3310495"><ele>245.85714285714286</ele><time>2026-05-02T08:49:12.196Z</time></trkpt><trkpt lat="43.3042997" lon="12.3311296"><ele>245.57142857142856</ele><time>2026-05-02T08:49:13.182Z</time></trkpt><trkpt lat="43.3042568" lon="12.3311972"><ele>245.28571428571428</ele><time>2026-05-02T08:49:14.195Z</time></trkpt><trkpt lat="43.3042099" lon="12.33127"><ele>245.0</ele><time>2026-05-02T08:49:15.197Z</time></trkpt><trkpt lat="43.3041673" lon="12.3313375"><ele>245.00000000000003</ele><time>2026-05-02T08:49:16.189Z</time></trkpt><trkpt lat="43.3041213" lon="12.3314111"><ele>245.0</ele><time>2026-05-02T08:49:17.203Z</time></trkpt><trkpt lat="43.3040709" lon="12.3314807"><ele>245.0</ele><time>2026-05-02T08:49:18.203Z</time></trkpt><trkpt lat="43.3040196" lon="12.331564"><ele>245.0</ele><time>2026-05-02T08:49:19.209Z</time></trkpt><trkpt lat="43.3039676" lon="12.3316605"><ele>245.00000000000003</ele><time>2026-05-02T08:49:20.174Z</time></trkpt><trkpt lat="43.3039091" lon="12.3317492"><ele>245.0</ele><time>2026-05-02T08:49:21.201Z</time></trkpt><trkpt lat="43.3038439" lon="12.3318529"><ele>245.0</ele><time>2026-05-02T08:49:22.183Z</time></trkpt><trkpt lat="43.3037709" lon="12.3319794"><ele>245.0</ele><time>2026-05-02T08:49:23.185Z</time></trkpt><trkpt lat="43.3036924" lon="12.3321018"><ele>245.0</ele><time>2026-05-02T08:49:24.206Z</time></trkpt><trkpt lat="43.3036121" lon="12.3322289"><ele>245.0</ele><time>2026-05-02T08:49:25.197Z</time></trkpt><trkpt lat="43.3035266" lon="12.3323582"><ele>245.0</ele><time>2026-05-02T08:49:26.189Z</time></trkpt><trkpt lat="43.3034417" lon="12.3324934"><ele>245.0</ele><time>2026-05-02T08:49:27.195Z</time></trkpt><trkpt lat="43.3033592" lon="12.3326393"><ele>245.0</ele><time>2026-05-02T08:49:28.191Z</time></trkpt><trkpt lat="43.3032743" lon="12.3327893"><ele>245.0</ele><time>2026-05-02T08:49:29.216Z</time></trkpt><trkpt lat="43.3031798" lon="12.3329392"><ele>245.25</ele><time>2026-05-02T08:49:30.194Z</time></trkpt><trkpt lat="43.3030921" lon="12.3330935"><ele>245.5</ele><time>2026-05-02T08:49:31.204Z</time></trkpt><trkpt lat="43.3030028" lon="12.3332475"><ele>245.75</ele><time>2026-05-02T08:49:32.201Z</time></trkpt><trkpt lat="43.3029139" lon="12.3333929"><ele>246.0</ele><time>2026-05-02T08:49:33.204Z</time></trkpt><trkpt lat="43.302829" lon="12.3335345"><ele>245.75</ele><time>2026-05-02T08:49:34.199Z</time></trkpt><trkpt lat="43.302739" lon="12.3336764"><ele>245.5</ele><time>2026-05-02T08:49:35.208Z</time></trkpt><trkpt lat="43.3026526" lon="12.3338169"><ele>245.25</ele><time>2026-05-02T08:49:36.205Z</time></trkpt><trkpt lat="43.3025656" lon="12.3339506"><ele>245.0</ele><time>2026-05-02T08:49:37.202Z</time></trkpt><trkpt lat="43.3024814" lon="12.3340835"><ele>245.0</ele><time>2026-05-02T08:49:38.214Z</time></trkpt><trkpt lat="43.3023971" lon="12.3342212"><ele>245.0</ele><time>2026-05-02T08:49:39.177Z</time></trkpt><trkpt lat="43.3023141" lon="12.33435"><ele>245.0</ele><time>2026-05-02T08:49:40.2Z</time></trkpt><trkpt lat="43.3022309" lon="12.3344856"><ele>245.0</ele><time>2026-05-02T08:49:41.195Z</time></trkpt><trkpt lat="43.3021467" lon="12.3346259"><ele>244.75</ele><time>2026-05-02T08:49:42.203Z</time></trkpt><trkpt lat="43.3020667" lon="12.3347672"><ele>244.5</ele><time>2026-05-02T08:49:43.195Z</time></trkpt><trkpt lat="43.3019816" lon="12.3349074"><ele>244.25</ele><time>2026-05-02T08:49:44.2Z</time></trkpt><trkpt lat="43.3018904" lon="12.3350554"><ele>244.0</ele><time>2026-05-02T08:49:45.199Z</time></trkpt><trkpt lat="43.3018" lon="12.3352092"><ele>244.0</ele><time>2026-05-02T08:49:46.208Z</time></trkpt><trkpt lat="43.3017113" lon="12.3353509"><ele>244.0</ele><time>2026-05-02T08:49:47.198Z</time></trkpt><trkpt lat="43.3016288" lon="12.3354897"><ele>244.0</ele><time>2026-05-02T08:49:48.205Z</time></trkpt><trkpt lat="43.3015567" lon="12.3356315"><ele>244.0</ele><time>2026-05-02T08:49:49.207Z</time></trkpt><trkpt lat="43.3014829" lon="12.3357589"><ele>243.2</ele><time>2026-05-02T08:49:50.205Z</time></trkpt><trkpt lat="43.3014061" lon="12.3358844"><ele>242.39999999999998</ele><time>2026-05-02T08:49:51.209Z</time></trkpt><trkpt lat="43.3013344" lon="12.3360071"><ele>241.6</ele><time>2026-05-02T08:49:52.199Z</time></trkpt><trkpt lat="43.3012671" lon="12.3361263"><ele>240.8</ele><time>2026-05-02T08:49:53.199Z</time></trkpt><trkpt lat="43.3012041" lon="12.336213"><ele>240.0</ele><time>2026-05-02T08:49:54.207Z</time></trkpt><trkpt lat="43.3011423" lon="12.3362859"><ele>240.0</ele><time>2026-05-02T08:49:55.205Z</time></trkpt><trkpt lat="43.30108" lon="12.3363625"><ele>240.0</ele><time>2026-05-02T08:49:56.175Z</time></trkpt><trkpt lat="43.3010282" lon="12.3364477"><ele>240.0</ele><time>2026-05-02T08:49:57.193Z</time></trkpt><trkpt lat="43.3009791" lon="12.336555"><ele>240.0</ele><time>2026-05-02T08:49:58.201Z</time></trkpt><trkpt lat="43.3009175" lon="12.3366744"><ele>240.0</ele><time>2026-05-02T08:49:59.194Z</time></trkpt><trkpt lat="43.300833" lon="12.3368077"><ele>240.5</ele><time>2026-05-02T08:50:00.188Z</time></trkpt><trkpt lat="43.3007313" lon="12.3369548"><ele>241.0</ele><time>2026-05-02T08:50:01.2Z</time></trkpt><trkpt lat="43.300629" lon="12.337102"><ele>241.5</ele><time>2026-05-02T08:50:02.19Z</time></trkpt><trkpt lat="43.3005348" lon="12.337259"><ele>242.0</ele><time>2026-05-02T08:50:03.196Z</time></trkpt><trkpt lat="43.3004377" lon="12.3374333"><ele>242.0</ele><time>2026-05-02T08:50:04.208Z</time></trkpt><trkpt lat="43.3003384" lon="12.337604"><ele>242.0</ele><time>2026-05-02T08:50:05.196Z</time></trkpt><trkpt lat="43.3002302" lon="12.3377821"><ele>242.0</ele><time>2026-05-02T08:50:06.195Z</time></trkpt><trkpt lat="43.3001246" lon="12.3379568"><ele>242.66666666666669</ele><time>2026-05-02T08:50:07.2Z</time></trkpt><trkpt lat="43.3000188" lon="12.338118"><ele>243.33333333333331</ele><time>2026-05-02T08:50:08.2Z</time></trkpt><trkpt lat="43.2999188" lon="12.3382721"><ele>244.0</ele><time>2026-05-02T08:50:09.189Z</time></trkpt><trkpt lat="43.2998229" lon="12.3384231"><ele>243.0</ele><time>2026-05-02T08:50:10.194Z</time></trkpt><trkpt lat="43.2997283" lon="12.3385717"><ele>242.0</ele><time>2026-05-02T08:50:11.206Z</time></trkpt><trkpt lat="43.2996352" lon="12.3387169"><ele>241.0</ele><time>2026-05-02T08:50:12.208Z</time></trkpt><trkpt lat="43.2995403" lon="12.3388644"><ele>240.0</ele><time>2026-05-02T08:50:13.202Z</time></trkpt><trkpt lat="43.2994548" lon="12.3390033"><ele>239.8</ele><time>2026-05-02T08:50:14.19Z</time></trkpt><trkpt lat="43.2993775" lon="12.3391293"><ele>239.6</ele><time>2026-05-02T08:50:15.187Z</time></trkpt><trkpt lat="43.2993123" lon="12.3392452"><ele>239.39999999999998</ele><time>2026-05-02T08:50:16.188Z</time></trkpt><trkpt lat="43.2992537" lon="12.3393525"><ele>239.2</ele><time>2026-05-02T08:50:17.185Z</time></trkpt><trkpt lat="43.2991944" lon="12.3394573"><ele>239.0</ele><time>2026-05-02T08:50:18.201Z</time></trkpt><trkpt lat="43.2991277" lon="12.3395582"><ele>239.0</ele><time>2026-05-02T08:50:19.208Z</time></trkpt><trkpt lat="43.2990504" lon="12.3396712"><ele>239.0</ele><time>2026-05-02T08:50:20.206Z</time></trkpt><trkpt lat="43.2989674" lon="12.3397928"><ele>239.0</ele><time>2026-05-02T08:50:21.2Z</time></trkpt><trkpt lat="43.2988775" lon="12.3399469"><ele>239.0</ele><time>2026-05-02T08:50:22.2Z</time></trkpt><trkpt lat="43.298785" lon="12.3401031"><ele>239.0</ele><time>2026-05-02T08:50:23.207Z</time></trkpt><trkpt lat="43.2986922" lon="12.3402654"><ele>239.0</ele><time>2026-05-02T08:50:24.194Z</time></trkpt><trkpt lat="43.298598" lon="12.3404295"><ele>239.0</ele><time>2026-05-02T08:50:25.195Z</time></trkpt><trkpt lat="43.2984923" lon="12.3406029"><ele>239.66666666666669</ele><time>2026-05-02T08:50:26.183Z</time></trkpt><trkpt lat="43.2983763" lon="12.3408"><ele>240.33333333333331</ele><time>2026-05-02T08:50:27.208Z</time></trkpt><trkpt lat="43.2982437" lon="12.3410102"><ele>241.0</ele><time>2026-05-02T08:50:28.199Z</time></trkpt><trkpt lat="43.2981168" lon="12.3412208"><ele>240.33333333333331</ele><time>2026-05-02T08:50:29.204Z</time></trkpt><trkpt lat="43.2979934" lon="12.3414206"><ele>239.66666666666669</ele><time>2026-05-02T08:50:30.209Z</time></trkpt><trkpt lat="43.2978746" lon="12.3416151"><ele>239.0</ele><time>2026-05-02T08:50:31.201Z</time></trkpt><trkpt lat="43.2977591" lon="12.3418029"><ele>239.0</ele><time>2026-05-02T08:50:32.187Z</time></trkpt><trkpt lat="43.2976451" lon="12.3419854"><ele>239.0</ele><time>2026-05-02T08:50:33.208Z</time></trkpt><trkpt lat="43.2975232" lon="12.3421741"><ele>239.0</ele><time>2026-05-02T08:50:34.189Z</time></trkpt><trkpt lat="43.2974013" lon="12.3423782"><ele>238.66666666666669</ele><time>2026-05-02T08:50:35.204Z</time></trkpt><trkpt lat="43.2972799" lon="12.3425831"><ele>238.33333333333331</ele><time>2026-05-02T08:50:36.212Z</time></trkpt><trkpt lat="43.2971541" lon="12.3427878"><ele>238.0</ele><time>2026-05-02T08:50:37.215Z</time></trkpt><trkpt lat="43.2970282" lon="12.3429927"><ele>238.66666666666666</ele><time>2026-05-02T08:50:38.192Z</time></trkpt><trkpt lat="43.2968995" lon="12.3432021"><ele>239.33333333333331</ele><time>2026-05-02T08:50:39.202Z</time></trkpt><trkpt lat="43.2967715" lon="12.3434113"><ele>240.0</ele><time>2026-05-02T08:50:40.208Z</time></trkpt><trkpt lat="43.2966466" lon="12.3436123"><ele>240.0</ele><time>2026-05-02T08:50:41.184Z</time></trkpt><trkpt lat="43.2965244" lon="12.3438059"><ele>240.0</ele><time>2026-05-02T08:50:42.206Z</time></trkpt><trkpt lat="43.2964014" lon="12.3439943"><ele>240.0</ele><time>2026-05-02T08:50:43.204Z</time></trkpt><trkpt lat="43.2962876" lon="12.3441747"><ele>240.0</ele><time>2026-05-02T08:50:44.197Z</time></trkpt><trkpt lat="43.2961767" lon="12.3443518"><ele>240.0</ele><time>2026-05-02T08:50:45.204Z</time></trkpt><trkpt lat="43.2960678" lon="12.3445321"><ele>240.0</ele><time>2026-05-02T08:50:46.207Z</time></trkpt><trkpt lat="43.295959" lon="12.3447093"><ele>239.66666666666669</ele><time>2026-05-02T08:50:47.207Z</time></trkpt><trkpt lat="43.2958494" lon="12.3448895"><ele>239.33333333333334</ele><time>2026-05-02T08:50:48.198Z</time></trkpt><trkpt lat="43.2957414" lon="12.3450681"><ele>239.0</ele><time>2026-05-02T08:50:49.197Z</time></trkpt><trkpt lat="43.2956334" lon="12.345246"><ele>239.66666666666669</ele><time>2026-05-02T08:50:50.21Z</time></trkpt><trkpt lat="43.2955268" lon="12.3454215"><ele>240.33333333333331</ele><time>2026-05-02T08:50:51.208Z</time></trkpt><trkpt lat="43.2954106" lon="12.3456161"><ele>241.0</ele><time>2026-05-02T08:50:52.213Z</time></trkpt><trkpt lat="43.2952986" lon="12.3458046"><ele>241.0</ele><time>2026-05-02T08:50:53.195Z</time></trkpt><trkpt lat="43.2951893" lon="12.3459902"><ele>241.0</ele><time>2026-05-02T08:50:54.208Z</time></trkpt><trkpt lat="43.2950847" lon="12.346163"><ele>241.0</ele><time>2026-05-02T08:50:55.204Z</time></trkpt><trkpt lat="43.2949871" lon="12.3463366"><ele>241.33333333333331</ele><time>2026-05-02T08:50:56.193Z</time></trkpt><trkpt lat="43.2948797" lon="12.3465107"><ele>241.66666666666669</ele><time>2026-05-02T08:50:57.202Z</time></trkpt><trkpt lat="43.2947682" lon="12.3466841"><ele>242.0</ele><time>2026-05-02T08:50:58.202Z</time></trkpt><trkpt lat="43.2946606" lon="12.3468587"><ele>241.33333333333334</ele><time>2026-05-02T08:50:59.197Z</time></trkpt><trkpt lat="43.2945562" lon="12.3470294"><ele>240.66666666666669</ele><time>2026-05-02T08:51:00.209Z</time></trkpt><trkpt lat="43.294456" lon="12.3471922"><ele>240.0</ele><time>2026-05-02T08:51:01.204Z</time></trkpt><trkpt lat="43.294363" lon="12.347344"><ele>239.25</ele><time>2026-05-02T08:51:02.201Z</time></trkpt><trkpt lat="43.2942716" lon="12.3474867"><ele>238.5</ele><time>2026-05-02T08:51:03.199Z</time></trkpt><trkpt lat="43.2941784" lon="12.3476279"><ele>237.75</ele><time>2026-05-02T08:51:04.197Z</time></trkpt><trkpt lat="43.2940905" lon="12.3477672"><ele>237.0</ele><time>2026-05-02T08:51:05.201Z</time></trkpt><trkpt lat="43.2940057" lon="12.3478981"><ele>237.0</ele><time>2026-05-02T08:51:06.201Z</time></trkpt><trkpt lat="43.2939225" lon="12.3480363"><ele>237.0</ele><time>2026-05-02T08:51:07.186Z</time></trkpt><trkpt lat="43.293836" lon="12.3481674"><ele>237.0</ele><time>2026-05-02T08:51:08.219Z</time></trkpt><trkpt lat="43.2937553" lon="12.3483075"><ele>237.0</ele><time>2026-05-02T08:51:09.201Z</time></trkpt><trkpt lat="43.2936751" lon="12.3484401"><ele>237.5</ele><time>2026-05-02T08:51:10.206Z</time></trkpt><trkpt lat="43.2935971" lon="12.3485734"><ele>238.0</ele><time>2026-05-02T08:51:11.205Z</time></trkpt><trkpt lat="43.2935213" lon="12.3487067"><ele>238.5</ele><time>2026-05-02T08:51:12.187Z</time></trkpt><trkpt lat="43.2934384" lon="12.3488424"><ele>239.0</ele><time>2026-05-02T08:51:13.206Z</time></trkpt><trkpt lat="43.2933538" lon="12.3489844"><ele>239.25</ele><time>2026-05-02T08:51:14.208Z</time></trkpt><trkpt lat="43.2932676" lon="12.3491336"><ele>239.5</ele><time>2026-05-02T08:51:15.193Z</time></trkpt><trkpt lat="43.2931763" lon="12.3492932"><ele>239.75</ele><time>2026-05-02T08:51:16.172Z</time></trkpt><trkpt lat="43.293076" lon="12.349462"><ele>240.0</ele><time>2026-05-02T08:51:17.192Z</time></trkpt><trkpt lat="43.2929701" lon="12.3496318"><ele>239.0</ele><time>2026-05-02T08:51:18.199Z</time></trkpt><trkpt lat="43.2928613" lon="12.3497919"><ele>238.0</ele><time>2026-05-02T08:51:19.203Z</time></trkpt><trkpt lat="43.2927615" lon="12.3499466"><ele>237.0</ele><time>2026-05-02T08:51:20.209Z</time></trkpt><trkpt lat="43.2926715" lon="12.3500901"><ele>236.0</ele><time>2026-05-02T08:51:21.202Z</time></trkpt><trkpt lat="43.2925816" lon="12.3502269"><ele>236.0</ele><time>2026-05-02T08:51:22.199Z</time></trkpt><trkpt lat="43.2924943" lon="12.3503641"><ele>236.0</ele><time>2026-05-02T08:51:23.191Z</time></trkpt><trkpt lat="43.2924068" lon="12.3504998"><ele>236.0</ele><time>2026-05-02T08:51:24.203Z</time></trkpt><trkpt lat="43.2923176" lon="12.3506466"><ele>236.0</ele><time>2026-05-02T08:51:25.204Z</time></trkpt><trkpt lat="43.2922304" lon="12.3507944"><ele>235.5</ele><time>2026-05-02T08:51:26.193Z</time></trkpt><trkpt lat="43.2921386" lon="12.3509434"><ele>235.0</ele><time>2026-05-02T08:51:27.195Z</time></trkpt><trkpt lat="43.2920468" lon="12.3510975"><ele>234.5</ele><time>2026-05-02T08:51:28.189Z</time></trkpt><trkpt lat="43.2919514" lon="12.3512522"><ele>234.0</ele><time>2026-05-02T08:51:29.205Z</time></trkpt><trkpt lat="43.2918584" lon="12.3514092"><ele>234.0</ele><time>2026-05-02T08:51:30.196Z</time></trkpt><trkpt lat="43.2917714" lon="12.351553"><ele>234.0</ele><time>2026-05-02T08:51:31.206Z</time></trkpt><trkpt lat="43.2916843" lon="12.3516879"><ele>234.0</ele><time>2026-05-02T08:51:32.223Z</time></trkpt><trkpt lat="43.2915987" lon="12.3518185"><ele>234.0</ele><time>2026-05-02T08:51:33.195Z</time></trkpt><trkpt lat="43.2915077" lon="12.3519752"><ele>233.66666666666669</ele><time>2026-05-02T08:51:34.207Z</time></trkpt><trkpt lat="43.291411" lon="12.3521373"><ele>233.33333333333334</ele><time>2026-05-02T08:51:35.201Z</time></trkpt><trkpt lat="43.2913086" lon="12.3523055"><ele>233.0</ele><time>2026-05-02T08:51:36.203Z</time></trkpt><trkpt lat="43.2912036" lon="12.3524797"><ele>233.33333333333334</ele><time>2026-05-02T08:51:37.196Z</time></trkpt><trkpt lat="43.2910953" lon="12.3526598"><ele>233.66666666666669</ele><time>2026-05-02T08:51:38.206Z</time></trkpt><trkpt lat="43.2909835" lon="12.3528512"><ele>234.0</ele><time>2026-05-02T08:51:39.193Z</time></trkpt><trkpt lat="43.2908695" lon="12.3530532"><ele>234.0</ele><time>2026-05-02T08:51:40.204Z</time></trkpt><trkpt lat="43.2907519" lon="12.3532442"><ele>234.0</ele><time>2026-05-02T08:51:41.196Z</time></trkpt><trkpt lat="43.2906261" lon="12.353431"><ele>234.0</ele><time>2026-05-02T08:51:42.207Z</time></trkpt><trkpt lat="43.2905024" lon="12.3536218"><ele>234.0</ele><time>2026-05-02T08:51:43.197Z</time></trkpt><trkpt lat="43.2903759" lon="12.3538165"><ele>234.0</ele><time>2026-05-02T08:51:44.208Z</time></trkpt><trkpt lat="43.2902515" lon="12.3540182"><ele>234.0</ele><time>2026-05-02T08:51:45.207Z</time></trkpt><trkpt lat="43.2901229" lon="12.354227"><ele>234.33333333333331</ele><time>2026-05-02T08:51:46.192Z</time></trkpt><trkpt lat="43.2899932" lon="12.3544338"><ele>234.66666666666666</ele><time>2026-05-02T08:51:47.209Z</time></trkpt><trkpt lat="43.2898661" lon="12.3546447"><ele>235.0</ele><time>2026-05-02T08:51:48.195Z</time></trkpt><trkpt lat="43.2897372" lon="12.3548491"><ele>235.0</ele><time>2026-05-02T08:51:49.209Z</time></trkpt><trkpt lat="43.2896136" lon="12.3550513"><ele>235.0</ele><time>2026-05-02T08:51:50.195Z</time></trkpt><trkpt lat="43.2894942" lon="12.3552484"><ele>235.0</ele><time>2026-05-02T08:51:51.2Z</time></trkpt><trkpt lat="43.2893699" lon="12.3554462"><ele>235.66666666666666</ele><time>2026-05-02T08:51:52.196Z</time></trkpt><trkpt lat="43.2892495" lon="12.3556362"><ele>236.33333333333331</ele><time>2026-05-02T08:51:53.193Z</time></trkpt><trkpt lat="43.2891319" lon="12.3558247"><ele>237.0</ele><time>2026-05-02T08:51:54.184Z</time></trkpt><trkpt lat="43.2890211" lon="12.3560023"><ele>236.0</ele><time>2026-05-02T08:51:55.188Z</time></trkpt><trkpt lat="43.2889175" lon="12.3561759"><ele>235.0</ele><time>2026-05-02T08:51:56.199Z</time></trkpt><trkpt lat="43.2888252" lon="12.356345"><ele>234.0</ele><time>2026-05-02T08:51:57.201Z</time></trkpt><trkpt lat="43.2887304" lon="12.3565067"><ele>233.66666666666669</ele><time>2026-05-02T08:51:58.197Z</time></trkpt><trkpt lat="43.2886405" lon="12.3566814"><ele>233.33333333333334</ele><time>2026-05-02T08:51:59.205Z</time></trkpt><trkpt lat="43.2885647" lon="12.3568642"><ele>233.0</ele><time>2026-05-02T08:52:00.206Z</time></trkpt><trkpt lat="43.2885011" lon="12.3570694"><ele>233.66666666666669</ele><time>2026-05-02T08:52:01.2Z</time></trkpt><trkpt lat="43.2884429" lon="12.3572888"><ele>234.33333333333331</ele><time>2026-05-02T08:52:02.201Z</time></trkpt><trkpt lat="43.2884039" lon="12.357512"><ele>235.0</ele><time>2026-05-02T08:52:03.18Z</time></trkpt><trkpt lat="43.2883717" lon="12.3577367"><ele>235.0</ele><time>2026-05-02T08:52:04.19Z</time></trkpt><trkpt lat="43.2883484" lon="12.3579527"><ele>235.0</ele><time>2026-05-02T08:52:05.202Z</time></trkpt><trkpt lat="43.2883342" lon="12.3581734"><ele>235.0</ele><time>2026-05-02T08:52:06.199Z</time></trkpt><trkpt lat="43.288329" lon="12.3583966"><ele>236.0</ele><time>2026-05-02T08:52:07.192Z</time></trkpt><trkpt lat="43.2883216" lon="12.358625"><ele>237.0</ele><time>2026-05-02T08:52:08.194Z</time></trkpt><trkpt lat="43.2883125" lon="12.3588512"><ele>238.0</ele><time>2026-05-02T08:52:09.193Z</time></trkpt><trkpt lat="43.2883065" lon="12.3590634"><ele>238.25</ele><time>2026-05-02T08:52:10.212Z</time></trkpt><trkpt lat="43.2882974" lon="12.3592654"><ele>238.5</ele><time>2026-05-02T08:52:11.205Z</time></trkpt><trkpt lat="43.288293" lon="12.3594541"><ele>238.75</ele><time>2026-05-02T08:52:12.212Z</time></trkpt><trkpt lat="43.2882856" lon="12.359649"><ele>239.0</ele><time>2026-05-02T08:52:13.203Z</time></trkpt><trkpt lat="43.28828" lon="12.3598465"><ele>239.0</ele><time>2026-05-02T08:52:14.209Z</time></trkpt><trkpt lat="43.2882729" lon="12.3600481"><ele>239.0</ele><time>2026-05-02T08:52:15.204Z</time></trkpt><trkpt lat="43.2882659" lon="12.3602587"><ele>239.0</ele><time>2026-05-02T08:52:16.18Z</time></trkpt><trkpt lat="43.2882603" lon="12.3604729"><ele>237.66666666666669</ele><time>2026-05-02T08:52:17.189Z</time></trkpt><trkpt lat="43.2882498" lon="12.3607029"><ele>236.33333333333331</ele><time>2026-05-02T08:52:18.198Z</time></trkpt><trkpt lat="43.2882424" lon="12.3609414"><ele>235.0</ele><time>2026-05-02T08:52:19.219Z</time></trkpt><trkpt lat="43.2882367" lon="12.3612026"><ele>235.33333333333331</ele><time>2026-05-02T08:52:20.204Z</time></trkpt><trkpt lat="43.2882287" lon="12.3614792"><ele>235.66666666666669</ele><time>2026-05-02T08:52:21.184Z</time></trkpt><trkpt lat="43.2882196" lon="12.3617474"><ele>236.0</ele><time>2026-05-02T08:52:22.194Z</time></trkpt><trkpt lat="43.2882095" lon="12.3620005"><ele>236.0</ele><time>2026-05-02T08:52:23.177Z</time></trkpt><trkpt lat="43.2882039" lon="12.3622441"><ele>236.0</ele><time>2026-05-02T08:52:24.202Z</time></trkpt><trkpt lat="43.2881966" lon="12.3624856"><ele>236.0</ele><time>2026-05-02T08:52:25.199Z</time></trkpt><trkpt lat="43.2881853" lon="12.362733"><ele>236.0</ele><time>2026-05-02T08:52:26.188Z</time></trkpt><trkpt lat="43.2881734" lon="12.3629902"><ele>236.0</ele><time>2026-05-02T08:52:27.219Z</time></trkpt><trkpt lat="43.2881694" lon="12.3632596"><ele>236.0</ele><time>2026-05-02T08:52:28.195Z</time></trkpt><trkpt lat="43.2881648" lon="12.3635347"><ele>236.33333333333334</ele><time>2026-05-02T08:52:29.19Z</time></trkpt><trkpt lat="43.2881595" lon="12.3638152"><ele>236.66666666666669</ele><time>2026-05-02T08:52:30.195Z</time></trkpt><trkpt lat="43.2881417" lon="12.3640974"><ele>237.0</ele><time>2026-05-02T08:52:31.207Z</time></trkpt><trkpt lat="43.2881235" lon="12.3643776"><ele>237.0</ele><time>2026-05-02T08:52:32.202Z</time></trkpt><trkpt lat="43.288112" lon="12.364656"><ele>237.0</ele><time>2026-05-02T08:52:33.2Z</time></trkpt><trkpt lat="43.2881013" lon="12.3649282"><ele>237.0</ele><time>2026-05-02T08:52:34.191Z</time></trkpt><trkpt lat="43.2880922" lon="12.3652032"><ele>236.0</ele><time>2026-05-02T08:52:35.192Z</time></trkpt><trkpt lat="43.2880886" lon="12.3654739"><ele>235.0</ele><time>2026-05-02T08:52:36.203Z</time></trkpt><trkpt lat="43.2880823" lon="12.3657461"><ele>234.0</ele><time>2026-05-02T08:52:37.199Z</time></trkpt><trkpt lat="43.288074" lon="12.3660026"><ele>234.0</ele><time>2026-05-02T08:52:38.194Z</time></trkpt><trkpt lat="43.2880636" lon="12.3662504"><ele>234.0</ele><time>2026-05-02T08:52:39.193Z</time></trkpt><trkpt lat="43.2880496" lon="12.3664775"><ele>234.0</ele><time>2026-05-02T08:52:40.201Z</time></trkpt><trkpt lat="43.2880296" lon="12.3666908"><ele>234.0</ele><time>2026-05-02T08:52:41.2Z</time></trkpt><trkpt lat="43.2879897" lon="12.3669014"><ele>234.0</ele><time>2026-05-02T08:52:42.2Z</time></trkpt><trkpt lat="43.2879399" lon="12.3671183"><ele>234.0</ele><time>2026-05-02T08:52:43.208Z</time></trkpt><trkpt lat="43.2878815" lon="12.3673354"><ele>234.33333333333331</ele><time>2026-05-02T08:52:44.193Z</time></trkpt><trkpt lat="43.2878237" lon="12.3675615"><ele>234.66666666666666</ele><time>2026-05-02T08:52:45.192Z</time></trkpt><trkpt lat="43.2877623" lon="12.3677924"><ele>235.0</ele><time>2026-05-02T08:52:46.201Z</time></trkpt><trkpt lat="43.2876979" lon="12.368044"><ele>236.0</ele><time>2026-05-02T08:52:47.201Z</time></trkpt><trkpt lat="43.2876311" lon="12.3683007"><ele>237.0</ele><time>2026-05-02T08:52:48.198Z</time></trkpt><trkpt lat="43.2875645" lon="12.3685501"><ele>238.0</ele><time>2026-05-02T08:52:49.194Z</time></trkpt><trkpt lat="43.2875007" lon="12.3687942"><ele>237.33333333333331</ele><time>2026-05-02T08:52:50.187Z</time></trkpt><trkpt lat="43.2874414" lon="12.3690376"><ele>236.66666666666669</ele><time>2026-05-02T08:52:51.193Z</time></trkpt><trkpt lat="43.2873816" lon="12.3692709"><ele>236.0</ele><time>2026-05-02T08:52:52.199Z</time></trkpt><trkpt lat="43.2873268" lon="12.369492"><ele>235.66666666666669</ele><time>2026-05-02T08:52:53.191Z</time></trkpt><trkpt lat="43.2872729" lon="12.3697047"><ele>235.33333333333331</ele><time>2026-05-02T08:52:54.192Z</time></trkpt><trkpt lat="43.2872148" lon="12.3698992"><ele>235.0</ele><time>2026-05-02T08:52:55.191Z</time></trkpt><trkpt lat="43.2871482" lon="12.3700783"><ele>235.0</ele><time>2026-05-02T08:52:56.191Z</time></trkpt><trkpt lat="43.2870737" lon="12.3702224"><ele>235.0</ele><time>2026-05-02T08:52:57.189Z</time></trkpt><trkpt lat="43.2870037" lon="12.3703644"><ele>235.0</ele><time>2026-05-02T08:52:58.199Z</time></trkpt><trkpt lat="43.2869436" lon="12.3704711"><ele>235.0</ele><time>2026-05-02T08:52:59.201Z</time></trkpt><trkpt lat="43.2868889" lon="12.3705754"><ele>235.0</ele><time>2026-05-02T08:53:00.205Z</time></trkpt><trkpt lat="43.2868621" lon="12.370668"><ele>236.0</ele><time>2026-05-02T08:53:01.196Z</time></trkpt><trkpt lat="43.2868872" lon="12.3708066"><ele>237.0</ele><time>2026-05-02T08:53:03.203Z</time></trkpt><trkpt lat="43.2869351" lon="12.3708646"><ele>238.0</ele><time>2026-05-02T08:53:04.199Z</time></trkpt><trkpt lat="43.2870094" lon="12.3709164"><ele>239.0</ele><time>2026-05-02T08:53:05.19Z</time></trkpt><trkpt lat="43.2871034" lon="12.370956"><ele>240.0</ele><time>2026-05-02T08:53:06.186Z</time></trkpt><trkpt lat="43.2872138" lon="12.3710079"><ele>239.75</ele><time>2026-05-02T08:53:07.192Z</time></trkpt><trkpt lat="43.2873371" lon="12.3710766"><ele>239.5</ele><time>2026-05-02T08:53:08.19Z</time></trkpt><trkpt lat="43.287472" lon="12.3711562"><ele>239.25</ele><time>2026-05-02T08:53:09.187Z</time></trkpt><trkpt lat="43.2876135" lon="12.3712486"><ele>239.0</ele><time>2026-05-02T08:53:10.195Z</time></trkpt><trkpt lat="43.2877641" lon="12.3713419"><ele>239.66666666666669</ele><time>2026-05-02T08:53:11.204Z</time></trkpt><trkpt lat="43.2879146" lon="12.3714489"><ele>240.33333333333331</ele><time>2026-05-02T08:53:12.205Z</time></trkpt><trkpt lat="43.2880635" lon="12.3715494"><ele>241.0</ele><time>2026-05-02T08:53:13.195Z</time></trkpt><trkpt lat="43.2882133" lon="12.3716473"><ele>241.66666666666666</ele><time>2026-05-02T08:53:14.197Z</time></trkpt><trkpt lat="43.2883624" lon="12.3717559"><ele>242.33333333333331</ele><time>2026-05-02T08:53:15.205Z</time></trkpt><trkpt lat="43.2885077" lon="12.3718544"><ele>243.0</ele><time>2026-05-02T08:53:16.197Z</time></trkpt><trkpt lat="43.2886447" lon="12.3719452"><ele>243.0</ele><time>2026-05-02T08:53:17.2Z</time></trkpt><trkpt lat="43.288775" lon="12.372037"><ele>243.0</ele><time>2026-05-02T08:53:18.184Z</time></trkpt><trkpt lat="43.2889" lon="12.3721199"><ele>243.0</ele><time>2026-05-02T08:53:19.21Z</time></trkpt><trkpt lat="43.2890326" lon="12.3722058"><ele>243.0</ele><time>2026-05-02T08:53:20.204Z</time></trkpt><trkpt lat="43.2891661" lon="12.37229"><ele>241.33333333333331</ele><time>2026-05-02T08:53:21.204Z</time></trkpt><trkpt lat="43.2893061" lon="12.3723827"><ele>239.66666666666666</ele><time>2026-05-02T08:53:22.204Z</time></trkpt><trkpt lat="43.2894539" lon="12.3724762"><ele>238.0</ele><time>2026-05-02T08:53:23.208Z</time></trkpt><trkpt lat="43.2896023" lon="12.3725708"><ele>238.0</ele><time>2026-05-02T08:53:24.202Z</time></trkpt><trkpt lat="43.2897525" lon="12.3726675"><ele>238.0</ele><time>2026-05-02T08:53:25.213Z</time></trkpt><trkpt lat="43.2899009" lon="12.3727596"><ele>238.0</ele><time>2026-05-02T08:53:26.182Z</time></trkpt><trkpt lat="43.2900488" lon="12.3728528"><ele>238.33333333333331</ele><time>2026-05-02T08:53:27.208Z</time></trkpt><trkpt lat="43.2901993" lon="12.3729549"><ele>238.66666666666669</ele><time>2026-05-02T08:53:28.189Z</time></trkpt><trkpt lat="43.2903535" lon="12.3730564"><ele>239.0</ele><time>2026-05-02T08:53:29.195Z</time></trkpt><trkpt lat="43.2905008" lon="12.3731478"><ele>239.66666666666669</ele><time>2026-05-02T08:53:30.212Z</time></trkpt><trkpt lat="43.2906432" lon="12.3732455"><ele>240.33333333333331</ele><time>2026-05-02T08:53:31.191Z</time></trkpt><trkpt lat="43.290786" lon="12.3733432"><ele>241.0</ele><time>2026-05-02T08:53:32.21Z</time></trkpt><trkpt lat="43.2909377" lon="12.3734444"><ele>241.0</ele><time>2026-05-02T08:53:33.209Z</time></trkpt><trkpt lat="43.2910865" lon="12.3735489"><ele>241.0</ele><time>2026-05-02T08:53:34.194Z</time></trkpt><trkpt lat="43.2912381" lon="12.373667"><ele>241.0</ele><time>2026-05-02T08:53:35.202Z</time></trkpt><trkpt lat="43.2913846" lon="12.3737973"><ele>240.66666666666666</ele><time>2026-05-02T08:53:36.19Z</time></trkpt><trkpt lat="43.2915286" lon="12.3739394"><ele>240.33333333333331</ele><time>2026-05-02T08:53:37.209Z</time></trkpt><trkpt lat="43.2916698" lon="12.3740811"><ele>240.0</ele><time>2026-05-02T08:53:38.208Z</time></trkpt><trkpt lat="43.2918125" lon="12.3742255"><ele>240.0</ele><time>2026-05-02T08:53:39.212Z</time></trkpt><trkpt lat="43.2919488" lon="12.3743686"><ele>240.0</ele><time>2026-05-02T08:53:40.198Z</time></trkpt><trkpt lat="43.2920841" lon="12.3745081"><ele>240.0</ele><time>2026-05-02T08:53:41.202Z</time></trkpt><trkpt lat="43.2922237" lon="12.3746515"><ele>239.33333333333331</ele><time>2026-05-02T08:53:42.202Z</time></trkpt><trkpt lat="43.2923625" lon="12.3748006"><ele>238.66666666666666</ele><time>2026-05-02T08:53:43.212Z</time></trkpt><trkpt lat="43.292499" lon="12.3749455"><ele>238.0</ele><time>2026-05-02T08:53:44.212Z</time></trkpt><trkpt lat="43.2926387" lon="12.3750929"><ele>238.0</ele><time>2026-05-02T08:53:45.206Z</time></trkpt><trkpt lat="43.2927766" lon="12.3752376"><ele>238.0</ele><time>2026-05-02T08:53:46.206Z</time></trkpt><trkpt lat="43.2929154" lon="12.3753932"><ele>238.0</ele><time>2026-05-02T08:53:47.204Z</time></trkpt><trkpt lat="43.2930524" lon="12.3755407"><ele>239.0</ele><time>2026-05-02T08:53:48.185Z</time></trkpt><trkpt lat="43.2931792" lon="12.3756906"><ele>240.0</ele><time>2026-05-02T08:53:49.211Z</time></trkpt><trkpt lat="43.2933029" lon="12.3758334"><ele>241.0</ele><time>2026-05-02T08:53:50.218Z</time></trkpt><trkpt lat="43.2934291" lon="12.375968"><ele>241.0</ele><time>2026-05-02T08:53:51.206Z</time></trkpt><trkpt lat="43.2935595" lon="12.3761036"><ele>241.0</ele><time>2026-05-02T08:53:52.201Z</time></trkpt><trkpt lat="43.2936919" lon="12.3762464"><ele>241.0</ele><time>2026-05-02T08:53:53.196Z</time></trkpt><trkpt lat="43.2938289" lon="12.376393"><ele>240.66666666666666</ele><time>2026-05-02T08:53:54.203Z</time></trkpt><trkpt lat="43.2939666" lon="12.3765419"><ele>240.33333333333331</ele><time>2026-05-02T08:53:55.206Z</time></trkpt><trkpt lat="43.2941039" lon="12.3766813"><ele>240.0</ele><time>2026-05-02T08:53:56.204Z</time></trkpt><trkpt lat="43.2942415" lon="12.3768129"><ele>240.0</ele><time>2026-05-02T08:53:57.199Z</time></trkpt><trkpt lat="43.2943809" lon="12.3769455"><ele>240.0</ele><time>2026-05-02T08:53:58.203Z</time></trkpt><trkpt lat="43.2945251" lon="12.377076"><ele>240.0</ele><time>2026-05-02T08:53:59.205Z</time></trkpt><trkpt lat="43.2946689" lon="12.377205"><ele>242.33333333333331</ele><time>2026-05-02T08:54:00.171Z</time></trkpt><trkpt lat="43.2948043" lon="12.3773474"><ele>244.66666666666666</ele><time>2026-05-02T08:54:01.203Z</time></trkpt><trkpt lat="43.2949365" lon="12.3774888"><ele>247.0</ele><time>2026-05-02T08:54:02.199Z</time></trkpt><trkpt lat="43.29506" lon="12.3776186"><ele>247.0</ele><time>2026-05-02T08:54:03.194Z</time></trkpt><trkpt lat="43.2951755" lon="12.3777361"><ele>247.0</ele><time>2026-05-02T08:54:04.205Z</time></trkpt><trkpt lat="43.2952849" lon="12.3778536"><ele>247.0</ele><time>2026-05-02T08:54:05.195Z</time></trkpt><trkpt lat="43.2953933" lon="12.3779612"><ele>247.0</ele><time>2026-05-02T08:54:06.202Z</time></trkpt><trkpt lat="43.2955029" lon="12.3780715"><ele>246.25</ele><time>2026-05-02T08:54:07.198Z</time></trkpt><trkpt lat="43.2956129" lon="12.3781866"><ele>245.5</ele><time>2026-05-02T08:54:08.196Z</time></trkpt><trkpt lat="43.2957208" lon="12.3782995"><ele>244.75</ele><time>2026-05-02T08:54:09.201Z</time></trkpt><trkpt lat="43.2958298" lon="12.3784118"><ele>244.0</ele><time>2026-05-02T08:54:10.203Z</time></trkpt><trkpt lat="43.2959383" lon="12.3785243"><ele>244.0</ele><time>2026-05-02T08:54:11.199Z</time></trkpt><trkpt lat="43.2960427" lon="12.3786288"><ele>244.0</ele><time>2026-05-02T08:54:12.216Z</time></trkpt><trkpt lat="43.2961432" lon="12.3787356"><ele>244.0</ele><time>2026-05-02T08:54:13.199Z</time></trkpt><trkpt lat="43.2962448" lon="12.3788457"><ele>244.0</ele><time>2026-05-02T08:54:14.217Z</time></trkpt><trkpt lat="43.2963457" lon="12.3789522"><ele>245.0</ele><time>2026-05-02T08:54:15.2Z</time></trkpt><trkpt lat="43.2964462" lon="12.37905"><ele>246.0</ele><time>2026-05-02T08:54:16.191Z</time></trkpt><trkpt lat="43.2965418" lon="12.3791424"><ele>247.0</ele><time>2026-05-02T08:54:17.197Z</time></trkpt><trkpt lat="43.2966358" lon="12.3792413"><ele>248.0</ele><time>2026-05-02T08:54:18.207Z</time></trkpt><trkpt lat="43.2967355" lon="12.379344"><ele>248.0</ele><time>2026-05-02T08:54:19.176Z</time></trkpt><trkpt lat="43.2968432" lon="12.3794433"><ele>248.0</ele><time>2026-05-02T08:54:20.209Z</time></trkpt><trkpt lat="43.2969612" lon="12.3795291"><ele>248.0</ele><time>2026-05-02T08:54:21.204Z</time></trkpt><trkpt lat="43.2970782" lon="12.3796013"><ele>248.0</ele><time>2026-05-02T08:54:22.2Z</time></trkpt><trkpt lat="43.2971983" lon="12.3796684"><ele>249.0</ele><time>2026-05-02T08:54:23.217Z</time></trkpt><trkpt lat="43.2973176" lon="12.3797225"><ele>250.0</ele><time>2026-05-02T08:54:24.218Z</time></trkpt><trkpt lat="43.2974349" lon="12.3797711"><ele>251.0</ele><time>2026-05-02T08:54:25.204Z</time></trkpt><trkpt lat="43.2975571" lon="12.3798038"><ele>252.0</ele><time>2026-05-02T08:54:26.192Z</time></trkpt><trkpt lat="43.2976807" lon="12.3798232"><ele>252.0</ele><time>2026-05-02T08:54:27.201Z</time></trkpt><trkpt lat="43.2978026" lon="12.379829"><ele>252.0</ele><time>2026-05-02T08:54:28.21Z</time></trkpt><trkpt lat="43.2979174" lon="12.3798306"><ele>252.0</ele><time>2026-05-02T08:54:29.2Z</time></trkpt><trkpt lat="43.2980352" lon="12.3798324"><ele>252.0</ele><time>2026-05-02T08:54:30.207Z</time></trkpt><trkpt lat="43.2981527" lon="12.3798353"><ele>252.25</ele><time>2026-05-02T08:54:31.197Z</time></trkpt><trkpt lat="43.2982738" lon="12.379845"><ele>252.5</ele><time>2026-05-02T08:54:32.22Z</time></trkpt><trkpt lat="43.2983962" lon="12.3798514"><ele>252.75</ele><time>2026-05-02T08:54:33.187Z</time></trkpt><trkpt lat="43.2985198" lon="12.3798552"><ele>253.0</ele><time>2026-05-02T08:54:34.208Z</time></trkpt><trkpt lat="43.2986395" lon="12.3798629"><ele>253.0</ele><time>2026-05-02T08:54:35.215Z</time></trkpt><trkpt lat="43.29876" lon="12.3798645"><ele>253.0</ele><time>2026-05-02T08:54:36.205Z</time></trkpt><trkpt lat="43.2988814" lon="12.3798681"><ele>253.0</ele><time>2026-05-02T08:54:37.193Z</time></trkpt><trkpt lat="43.2989989" lon="12.37987"><ele>253.0</ele><time>2026-05-02T08:54:38.208Z</time></trkpt><trkpt lat="43.2991147" lon="12.3798808"><ele>253.75</ele><time>2026-05-02T08:54:39.205Z</time></trkpt><trkpt lat="43.29923" lon="12.3798819"><ele>254.5</ele><time>2026-05-02T08:54:40.208Z</time></trkpt><trkpt lat="43.2993513" lon="12.3798823"><ele>255.25</ele><time>2026-05-02T08:54:41.21Z</time></trkpt><trkpt lat="43.2994681" lon="12.3798815"><ele>256.0</ele><time>2026-05-02T08:54:42.197Z</time></trkpt><trkpt lat="43.2995906" lon="12.3798852"><ele>256.0</ele><time>2026-05-02T08:54:43.207Z</time></trkpt><trkpt lat="43.29971" lon="12.3798865"><ele>256.0</ele><time>2026-05-02T08:54:44.199Z</time></trkpt><trkpt lat="43.299828" lon="12.3798943"><ele>256.0</ele><time>2026-05-02T08:54:45.203Z</time></trkpt><trkpt lat="43.2999495" lon="12.3798941"><ele>256.0</ele><time>2026-05-02T08:54:46.201Z</time></trkpt><trkpt lat="43.3000691" lon="12.3798936"><ele>257.0</ele><time>2026-05-02T08:54:47.205Z</time></trkpt><trkpt lat="43.3001893" lon="12.3798978"><ele>258.0</ele><time>2026-05-02T08:54:48.214Z</time></trkpt><trkpt lat="43.3003147" lon="12.3799032"><ele>259.0</ele><time>2026-05-02T08:54:49.201Z</time></trkpt><trkpt lat="43.300439" lon="12.379909"><ele>260.0</ele><time>2026-05-02T08:54:50.2Z</time></trkpt><trkpt lat="43.3005721" lon="12.3799068"><ele>259.25</ele><time>2026-05-02T08:54:51.216Z</time></trkpt><trkpt lat="43.3007074" lon="12.3799083"><ele>258.5</ele><time>2026-05-02T08:54:52.21Z</time></trkpt><trkpt lat="43.3008523" lon="12.3799127"><ele>257.75</ele><time>2026-05-02T08:54:53.192Z</time></trkpt><trkpt lat="43.3009938" lon="12.3799173"><ele>257.0</ele><time>2026-05-02T08:54:54.192Z</time></trkpt><trkpt lat="43.3011334" lon="12.3799227"><ele>257.0</ele><time>2026-05-02T08:54:55.205Z</time></trkpt><trkpt lat="43.3012641" lon="12.3799274"><ele>257.0</ele><time>2026-05-02T08:54:56.194Z</time></trkpt><trkpt lat="43.3013947" lon="12.3799314"><ele>257.0</ele><time>2026-05-02T08:54:57.205Z</time></trkpt><trkpt lat="43.3015169" lon="12.3799354"><ele>257.0</ele><time>2026-05-02T08:54:58.213Z</time></trkpt><trkpt lat="43.3016421" lon="12.3799529"><ele>256.75</ele><time>2026-05-02T08:54:59.196Z</time></trkpt><trkpt lat="43.3017678" lon="12.3799555"><ele>256.5</ele><time>2026-05-02T08:55:00.182Z</time></trkpt><trkpt lat="43.3018949" lon="12.3799627"><ele>256.25</ele><time>2026-05-02T08:55:01.204Z</time></trkpt><trkpt lat="43.3020261" lon="12.3799689"><ele>256.0</ele><time>2026-05-02T08:55:02.203Z</time></trkpt><trkpt lat="43.3021572" lon="12.3799709"><ele>256.5</ele><time>2026-05-02T08:55:03.21Z</time></trkpt><trkpt lat="43.3022912" lon="12.3799733"><ele>257.0</ele><time>2026-05-02T08:55:04.207Z</time></trkpt><trkpt lat="43.3024228" lon="12.3799713"><ele>257.5</ele><time>2026-05-02T08:55:05.212Z</time></trkpt><trkpt lat="43.3025543" lon="12.37998"><ele>258.0</ele><time>2026-05-02T08:55:06.208Z</time></trkpt><trkpt lat="43.3026797" lon="12.3799901"><ele>258.0</ele><time>2026-05-02T08:55:07.205Z</time></trkpt><trkpt lat="43.3027987" lon="12.3799944"><ele>258.0</ele><time>2026-05-02T08:55:08.196Z</time></trkpt><trkpt lat="43.3029156" lon="12.3800069"><ele>258.0</ele><time>2026-05-02T08:55:09.197Z</time></trkpt><trkpt lat="43.3030437" lon="12.3800066"><ele>258.0</ele><time>2026-05-02T08:55:10.201Z</time></trkpt><trkpt lat="43.3031821" lon="12.3800063"><ele>258.5</ele><time>2026-05-02T08:55:11.203Z</time></trkpt><trkpt lat="43.3033262" lon="12.3800129"><ele>259.0</ele><time>2026-05-02T08:55:12.22Z</time></trkpt><trkpt lat="43.3034712" lon="12.3800142"><ele>259.5</ele><time>2026-05-02T08:55:13.198Z</time></trkpt><trkpt lat="43.3036156" lon="12.3800162"><ele>260.0</ele><time>2026-05-02T08:55:14.198Z</time></trkpt><trkpt lat="43.3037556" lon="12.3800147"><ele>260.0</ele><time>2026-05-02T08:55:15.197Z</time></trkpt><trkpt lat="43.3039" lon="12.3800179"><ele>260.0</ele><time>2026-05-02T08:55:16.195Z</time></trkpt><trkpt lat="43.3040545" lon="12.3800233"><ele>260.0</ele><time>2026-05-02T08:55:17.204Z</time></trkpt><trkpt lat="43.3042045" lon="12.3800305"><ele>260.0</ele><time>2026-05-02T08:55:18.212Z</time></trkpt><trkpt lat="43.3043452" lon="12.3800381"><ele>259.5</ele><time>2026-05-02T08:55:19.196Z</time></trkpt><trkpt lat="43.3044743" lon="12.3800464"><ele>259.0</ele><time>2026-05-02T08:55:20.198Z</time></trkpt><trkpt lat="43.3046077" lon="12.3800522"><ele>258.5</ele><time>2026-05-02T08:55:21.195Z</time></trkpt><trkpt lat="43.3047455" lon="12.3800568"><ele>258.0</ele><time>2026-05-02T08:55:22.193Z</time></trkpt><trkpt lat="43.3048872" lon="12.3800608"><ele>257.75</ele><time>2026-05-02T08:55:23.196Z</time></trkpt><trkpt lat="43.3050266" lon="12.3800784"><ele>257.5</ele><time>2026-05-02T08:55:24.192Z</time></trkpt><trkpt lat="43.3051683" lon="12.3801041"><ele>257.25</ele><time>2026-05-02T08:55:25.197Z</time></trkpt><trkpt lat="43.3053108" lon="12.3801363"><ele>257.0</ele><time>2026-05-02T08:55:26.202Z</time></trkpt><trkpt lat="43.3054468" lon="12.3802039"><ele>257.0</ele><time>2026-05-02T08:55:27.17Z</time></trkpt><trkpt lat="43.3055878" lon="12.3802813"><ele>257.0</ele><time>2026-05-02T08:55:28.186Z</time></trkpt><trkpt lat="43.3057315" lon="12.3803701"><ele>257.0</ele><time>2026-05-02T08:55:29.197Z</time></trkpt><trkpt lat="43.3058704" lon="12.380489"><ele>259.0</ele><time>2026-05-02T08:55:30.168Z</time></trkpt><trkpt lat="43.3060181" lon="12.380608"><ele>261.0</ele><time>2026-05-02T08:55:31.192Z</time></trkpt><trkpt lat="43.306172" lon="12.3807327"><ele>263.0</ele><time>2026-05-02T08:55:32.192Z</time></trkpt><trkpt lat="43.3063338" lon="12.3808705"><ele>262.33333333333337</ele><time>2026-05-02T08:55:33.214Z</time></trkpt><trkpt lat="43.3065134" lon="12.3810214"><ele>261.6666666666667</ele><time>2026-05-02T08:55:34.211Z</time></trkpt><trkpt lat="43.3067127" lon="12.3811856"><ele>261.0</ele><time>2026-05-02T08:55:35.207Z</time></trkpt><trkpt lat="43.3069141" lon="12.3813652"><ele>261.0</ele><time>2026-05-02T08:55:36.202Z</time></trkpt><trkpt lat="43.3071118" lon="12.3815462"><ele>261.0</ele><time>2026-05-02T08:55:37.167Z</time></trkpt><trkpt lat="43.3072947" lon="12.3817096"><ele>259.6666666666667</ele><time>2026-05-02T08:55:38.205Z</time></trkpt><trkpt lat="43.3074695" lon="12.3818582"><ele>258.33333333333337</ele><time>2026-05-02T08:55:39.2Z</time></trkpt><trkpt lat="43.3076467" lon="12.3819961"><ele>257.0</ele><time>2026-05-02T08:55:40.193Z</time></trkpt><trkpt lat="43.3078338" lon="12.3821132"><ele>260.33333333333337</ele><time>2026-05-02T08:55:41.201Z</time></trkpt><trkpt lat="43.3080286" lon="12.3822072"><ele>263.6666666666667</ele><time>2026-05-02T08:55:42.193Z</time></trkpt><trkpt lat="43.308236" lon="12.3822842"><ele>267.0</ele><time>2026-05-02T08:55:43.211Z</time></trkpt><trkpt lat="43.3084485" lon="12.3823239"><ele>266.3333333333333</ele><time>2026-05-02T08:55:44.181Z</time></trkpt><trkpt lat="43.3086575" lon="12.3823481"><ele>265.66666666666663</ele><time>2026-05-02T08:55:45.198Z</time></trkpt><trkpt lat="43.3088706" lon="12.3823609"><ele>265.0</ele><time>2026-05-02T08:55:46.2Z</time></trkpt><trkpt lat="43.3090766" lon="12.3823691"><ele>265.0</ele><time>2026-05-02T08:55:47.191Z</time></trkpt><trkpt lat="43.3092829" lon="12.3823741"><ele>265.0</ele><time>2026-05-02T08:55:48.194Z</time></trkpt><trkpt lat="43.3094869" lon="12.382379"><ele>265.0</ele><time>2026-05-02T08:55:49.19Z</time></trkpt><trkpt lat="43.3096875" lon="12.3823885"><ele>265.66666666666663</ele><time>2026-05-02T08:55:50.206Z</time></trkpt><trkpt lat="43.3098871" lon="12.3824022"><ele>266.3333333333333</ele><time>2026-05-02T08:55:51.191Z</time></trkpt><trkpt lat="43.3100869" lon="12.382407"><ele>267.0</ele><time>2026-05-02T08:55:52.201Z</time></trkpt><trkpt lat="43.3102887" lon="12.3824154"><ele>267.0</ele><time>2026-05-02T08:55:53.201Z</time></trkpt><trkpt lat="43.3104869" lon="12.3824237"><ele>267.0</ele><time>2026-05-02T08:55:54.192Z</time></trkpt><trkpt lat="43.3106819" lon="12.3824351"><ele>267.0</ele><time>2026-05-02T08:55:55.194Z</time></trkpt><trkpt lat="43.3108819" lon="12.3824495"><ele>267.0</ele><time>2026-05-02T08:55:56.197Z</time></trkpt><trkpt lat="43.3110753" lon="12.3824591"><ele>267.0</ele><time>2026-05-02T08:55:57.204Z</time></trkpt><trkpt lat="43.3112729" lon="12.3824606"><ele>267.0</ele><time>2026-05-02T08:55:58.202Z</time></trkpt><trkpt lat="43.3114683" lon="12.3824621"><ele>267.0</ele><time>2026-05-02T08:55:59.207Z</time></trkpt><trkpt lat="43.3116724" lon="12.3824711"><ele>267.0</ele><time>2026-05-02T08:56:00.201Z</time></trkpt><trkpt lat="43.3118801" lon="12.3824778"><ele>267.0</ele><time>2026-05-02T08:56:01.208Z</time></trkpt><trkpt lat="43.3120853" lon="12.3824861"><ele>266.3333333333333</ele><time>2026-05-02T08:56:02.201Z</time></trkpt><trkpt lat="43.3122892" lon="12.3824958"><ele>265.66666666666663</ele><time>2026-05-02T08:56:03.213Z</time></trkpt><trkpt lat="43.3124931" lon="12.3824997"><ele>265.0</ele><time>2026-05-02T08:56:04.211Z</time></trkpt><trkpt lat="43.3126921" lon="12.382505"><ele>265.0</ele><time>2026-05-02T08:56:05.197Z</time></trkpt><trkpt lat="43.3128876" lon="12.3825158"><ele>265.0</ele><time>2026-05-02T08:56:06.201Z</time></trkpt><trkpt lat="43.3130883" lon="12.3825331"><ele>265.0</ele><time>2026-05-02T08:56:07.191Z</time></trkpt><trkpt lat="43.3132826" lon="12.3825581"><ele>265.3333333333333</ele><time>2026-05-02T08:56:08.196Z</time></trkpt><trkpt lat="43.3134751" lon="12.3825865"><ele>265.6666666666667</ele><time>2026-05-02T08:56:09.207Z</time></trkpt><trkpt lat="43.3136667" lon="12.3826378"><ele>266.0</ele><time>2026-05-02T08:56:10.202Z</time></trkpt><trkpt lat="43.313837" lon="12.3827467"><ele>265.6666666666667</ele><time>2026-05-02T08:56:11.198Z</time></trkpt><trkpt lat="43.3139998" lon="12.3828937"><ele>265.3333333333333</ele><time>2026-05-02T08:56:12.201Z</time></trkpt><trkpt lat="43.3141295" lon="12.3830842"><ele>265.0</ele><time>2026-05-02T08:56:13.198Z</time></trkpt><trkpt lat="43.3142567" lon="12.3832844"><ele>266.3333333333333</ele><time>2026-05-02T08:56:14.194Z</time></trkpt><trkpt lat="43.314381" lon="12.3834859"><ele>267.6666666666667</ele><time>2026-05-02T08:56:15.206Z</time></trkpt><trkpt lat="43.3144955" lon="12.3836907"><ele>269.0</ele><time>2026-05-02T08:56:16.198Z</time></trkpt><trkpt lat="43.3146102" lon="12.3839003"><ele>271.33333333333337</ele><time>2026-05-02T08:56:17.195Z</time></trkpt><trkpt lat="43.3147235" lon="12.3840972"><ele>273.6666666666667</ele><time>2026-05-02T08:56:18.189Z</time></trkpt><trkpt lat="43.3148372" lon="12.3842699"><ele>276.0</ele><time>2026-05-02T08:56:19.199Z</time></trkpt><trkpt lat="43.3149637" lon="12.3844239"><ele>276.0</ele><time>2026-05-02T08:56:20.163Z</time></trkpt><trkpt lat="43.3151174" lon="12.3845134"><ele>276.0</ele><time>2026-05-02T08:56:21.185Z</time></trkpt><trkpt lat="43.3153002" lon="12.3845532"><ele>276.0</ele><time>2026-05-02T08:56:22.17Z</time></trkpt><trkpt lat="43.3154856" lon="12.3845324"><ele>276.6666666666667</ele><time>2026-05-02T08:56:23.165Z</time></trkpt><trkpt lat="43.3156752" lon="12.3844826"><ele>277.33333333333337</ele><time>2026-05-02T08:56:24.167Z</time></trkpt><trkpt lat="43.3158647" lon="12.3844305"><ele>278.0</ele><time>2026-05-02T08:56:25.173Z</time></trkpt><trkpt lat="43.3160438" lon="12.3843768"><ele>278.0</ele><time>2026-05-02T08:56:26.18Z</time></trkpt><trkpt lat="43.3162256" lon="12.3843375"><ele>278.0</ele><time>2026-05-02T08:56:27.197Z</time></trkpt><trkpt lat="43.3164118" lon="12.3842909"><ele>278.0</ele><time>2026-05-02T08:56:28.195Z</time></trkpt><trkpt lat="43.3165866" lon="12.3842587"><ele>278.33333333333337</ele><time>2026-05-02T08:56:29.202Z</time></trkpt><trkpt lat="43.3167708" lon="12.3842269"><ele>278.6666666666667</ele><time>2026-05-02T08:56:30.184Z</time></trkpt><trkpt lat="43.3169454" lon="12.3842091"><ele>279.0</ele><time>2026-05-02T08:56:31.203Z</time></trkpt><trkpt lat="43.3171149" lon="12.3842382"><ele>279.6666666666667</ele><time>2026-05-02T08:56:32.189Z</time></trkpt><trkpt lat="43.3172684" lon="12.3843395"><ele>280.33333333333337</ele><time>2026-05-02T08:56:33.185Z</time></trkpt><trkpt lat="43.317425" lon="12.3844594"><ele>281.0</ele><time>2026-05-02T08:56:34.205Z</time></trkpt><trkpt lat="43.3175767" lon="12.3845903"><ele>285.33333333333337</ele><time>2026-05-02T08:56:35.196Z</time></trkpt><trkpt lat="43.3177232" lon="12.3847333"><ele>289.6666666666667</ele><time>2026-05-02T08:56:36.202Z</time></trkpt><trkpt lat="43.3178719" lon="12.3848767"><ele>294.0</ele><time>2026-05-02T08:56:37.191Z</time></trkpt><trkpt lat="43.3180271" lon="12.3850211"><ele>290.6666666666667</ele><time>2026-05-02T08:56:38.193Z</time></trkpt><trkpt lat="43.3181857" lon="12.3851648"><ele>287.33333333333337</ele><time>2026-05-02T08:56:39.192Z</time></trkpt><trkpt lat="43.3183503" lon="12.3853104"><ele>284.0</ele><time>2026-05-02T08:56:40.202Z</time></trkpt><trkpt lat="43.3185149" lon="12.385444"><ele>287.33333333333337</ele><time>2026-05-02T08:56:41.2Z</time></trkpt><trkpt lat="43.3186823" lon="12.3855742"><ele>290.6666666666667</ele><time>2026-05-02T08:56:42.205Z</time></trkpt><trkpt lat="43.318873" lon="12.3856683"><ele>294.0</ele><time>2026-05-02T08:56:43.209Z</time></trkpt><trkpt lat="43.3190824" lon="12.3857351"><ele>294.0</ele><time>2026-05-02T08:56:44.188Z</time></trkpt><trkpt lat="43.3192952" lon="12.3857605"><ele>294.0</ele><time>2026-05-02T08:56:45.199Z</time></trkpt><trkpt lat="43.3195099" lon="12.3857295"><ele>294.0</ele><time>2026-05-02T08:56:46.187Z</time></trkpt><trkpt lat="43.3197228" lon="12.3856821"><ele>295.0</ele><time>2026-05-02T08:56:47.193Z</time></trkpt><trkpt lat="43.3199421" lon="12.3856245"><ele>296.0</ele><time>2026-05-02T08:56:48.197Z</time></trkpt><trkpt lat="43.3201523" lon="12.3855714"><ele>297.0</ele><time>2026-05-02T08:56:49.207Z</time></trkpt><trkpt lat="43.3203429" lon="12.3855199"><ele>294.0</ele><time>2026-05-02T08:56:50.197Z</time></trkpt><trkpt lat="43.3205321" lon="12.3854771"><ele>291.0</ele><time>2026-05-02T08:56:51.19Z</time></trkpt><trkpt lat="43.3207147" lon="12.3854277"><ele>288.0</ele><time>2026-05-02T08:56:52.2Z</time></trkpt><trkpt lat="43.3209007" lon="12.3853915"><ele>288.0</ele><time>2026-05-02T08:56:53.185Z</time></trkpt><trkpt lat="43.3210872" lon="12.3853693"><ele>288.0</ele><time>2026-05-02T08:56:54.213Z</time></trkpt><trkpt lat="43.3212666" lon="12.3853692"><ele>288.0</ele><time>2026-05-02T08:56:55.198Z</time></trkpt><trkpt lat="43.3214486" lon="12.3854227"><ele>291.0</ele><time>2026-05-02T08:56:56.206Z</time></trkpt><trkpt lat="43.3216324" lon="12.3855164"><ele>294.0</ele><time>2026-05-02T08:56:57.197Z</time></trkpt><trkpt lat="43.3218138" lon="12.3856365"><ele>297.0</ele><time>2026-05-02T08:56:58.186Z</time></trkpt><trkpt lat="43.3219973" lon="12.3857646"><ele>297.0</ele><time>2026-05-02T08:56:59.195Z</time></trkpt><trkpt lat="43.3221746" lon="12.3858962"><ele>297.0</ele><time>2026-05-02T08:57:00.196Z</time></trkpt><trkpt lat="43.3223623" lon="12.3860289"><ele>297.0</ele><time>2026-05-02T08:57:01.214Z</time></trkpt><trkpt lat="43.3225481" lon="12.3861652"><ele>296.3333333333333</ele><time>2026-05-02T08:57:02.219Z</time></trkpt><trkpt lat="43.3227237" lon="12.3863106"><ele>295.66666666666663</ele><time>2026-05-02T08:57:03.202Z</time></trkpt><trkpt lat="43.3228867" lon="12.3864624"><ele>295.0</ele><time>2026-05-02T08:57:04.216Z</time></trkpt><trkpt lat="43.3230315" lon="12.3866311"><ele>292.66666666666663</ele><time>2026-05-02T08:57:05.204Z</time></trkpt><trkpt lat="43.3231494" lon="12.3868285"><ele>290.3333333333333</ele><time>2026-05-02T08:57:06.203Z</time></trkpt><trkpt lat="43.3232297" lon="12.3870433"><ele>288.0</ele><time>2026-05-02T08:57:07.217Z</time></trkpt><trkpt lat="43.3232709" lon="12.3872708"><ele>287.6666666666667</ele><time>2026-05-02T08:57:08.199Z</time></trkpt><trkpt lat="43.3232789" lon="12.3875266"><ele>287.33333333333337</ele><time>2026-05-02T08:57:09.205Z</time></trkpt><trkpt lat="43.3232427" lon="12.3877895"><ele>287.0</ele><time>2026-05-02T08:57:10.197Z</time></trkpt><trkpt lat="43.3232066" lon="12.3880576"><ele>286.6666666666667</ele><time>2026-05-02T08:57:11.205Z</time></trkpt><trkpt lat="43.3231633" lon="12.3883185"><ele>286.3333333333333</ele><time>2026-05-02T08:57:12.21Z</time></trkpt><trkpt lat="43.323129" lon="12.3885613"><ele>286.0</ele><time>2026-05-02T08:57:13.209Z</time></trkpt><trkpt lat="43.3230985" lon="12.3887965"><ele>285.3333333333333</ele><time>2026-05-02T08:57:14.213Z</time></trkpt><trkpt lat="43.323074" lon="12.3890347"><ele>284.6666666666667</ele><time>2026-05-02T08:57:15.204Z</time></trkpt><trkpt lat="43.3230817" lon="12.3892938"><ele>284.0</ele><time>2026-05-02T08:57:16.181Z</time></trkpt><trkpt lat="43.3231472" lon="12.3895605"><ele>285.0</ele><time>2026-05-02T08:57:17.197Z</time></trkpt><trkpt lat="43.3232351" lon="12.3898196"><ele>286.0</ele><time>2026-05-02T08:57:18.205Z</time></trkpt><trkpt lat="43.3233174" lon="12.3900501"><ele>287.0</ele><time>2026-05-02T08:57:19.208Z</time></trkpt><trkpt lat="43.3234115" lon="12.3902545"><ele>287.0</ele><time>2026-05-02T08:57:20.198Z</time></trkpt><trkpt lat="43.3235436" lon="12.3904119"><ele>287.0</ele><time>2026-05-02T08:57:21.208Z</time></trkpt><trkpt lat="43.3237067" lon="12.3904912"><ele>287.0</ele><time>2026-05-02T08:57:22.196Z</time></trkpt><trkpt lat="43.3238772" lon="12.3905107"><ele>283.6666666666667</ele><time>2026-05-02T08:57:23.18Z</time></trkpt><trkpt lat="43.3240514" lon="12.3904968"><ele>280.3333333333333</ele><time>2026-05-02T08:57:24.197Z</time></trkpt><trkpt lat="43.324237" lon="12.3904764"><ele>277.0</ele><time>2026-05-02T08:57:25.18Z</time></trkpt><trkpt lat="43.3244295" lon="12.3904785"><ele>276.66666666666663</ele><time>2026-05-02T08:57:26.198Z</time></trkpt><trkpt lat="43.324619" lon="12.3905177"><ele>276.3333333333333</ele><time>2026-05-02T08:57:27.201Z</time></trkpt><trkpt lat="43.3248293" lon="12.390547"><ele>276.0</ele><time>2026-05-02T08:57:28.202Z</time></trkpt><trkpt lat="43.3250261" lon="12.3906128"><ele>276.0</ele><time>2026-05-02T08:57:29.219Z</time></trkpt><trkpt lat="43.325216" lon="12.3907017"><ele>276.0</ele><time>2026-05-02T08:57:30.212Z</time></trkpt><trkpt lat="43.325397" lon="12.390807"><ele>276.0</ele><time>2026-05-02T08:57:31.205Z</time></trkpt><trkpt lat="43.3255729" lon="12.3909139"><ele>277.6666666666667</ele><time>2026-05-02T08:57:32.201Z</time></trkpt><trkpt lat="43.3257445" lon="12.3910152"><ele>279.33333333333337</ele><time>2026-05-02T08:57:33.197Z</time></trkpt><trkpt lat="43.3258956" lon="12.3911175"><ele>281.0</ele><time>2026-05-02T08:57:34.206Z</time></trkpt><trkpt lat="43.3260367" lon="12.3912358"><ele>281.6666666666667</ele><time>2026-05-02T08:57:35.201Z</time></trkpt><trkpt lat="43.326152" lon="12.3913921"><ele>282.3333333333333</ele><time>2026-05-02T08:57:36.203Z</time></trkpt><trkpt lat="43.3262167" lon="12.3916216"><ele>283.0</ele><time>2026-05-02T08:57:37.203Z</time></trkpt><trkpt lat="43.3262357" lon="12.3918564"><ele>283.0</ele><time>2026-05-02T08:57:38.193Z</time></trkpt><trkpt lat="43.3262212" lon="12.3920939"><ele>283.0</ele><time>2026-05-02T08:57:39.184Z</time></trkpt><trkpt lat="43.3261988" lon="12.3923491"><ele>283.0</ele><time>2026-05-02T08:57:40.192Z</time></trkpt><trkpt lat="43.3261726" lon="12.3926109"><ele>283.0</ele><time>2026-05-02T08:57:41.216Z</time></trkpt><trkpt lat="43.326146" lon="12.3928632"><ele>283.0</ele><time>2026-05-02T08:57:42.203Z</time></trkpt><trkpt lat="43.3261196" lon="12.3931157"><ele>283.0</ele><time>2026-05-02T08:57:43.206Z</time></trkpt><trkpt lat="43.3260999" lon="12.3933706"><ele>283.0</ele><time>2026-05-02T08:57:44.199Z</time></trkpt><trkpt lat="43.3260821" lon="12.3936217"><ele>283.0</ele><time>2026-05-02T08:57:45.215Z</time></trkpt><trkpt lat="43.3260663" lon="12.3938652"><ele>283.0</ele><time>2026-05-02T08:57:46.2Z</time></trkpt><trkpt lat="43.3260479" lon="12.3940958"><ele>283.0</ele><time>2026-05-02T08:57:47.2Z</time></trkpt><trkpt lat="43.3260321" lon="12.3943287"><ele>283.0</ele><time>2026-05-02T08:57:48.204Z</time></trkpt><trkpt lat="43.3260139" lon="12.3945531"><ele>283.0</ele><time>2026-05-02T08:57:49.204Z</time></trkpt><trkpt lat="43.3260018" lon="12.3947668"><ele>282.66666666666663</ele><time>2026-05-02T08:57:50.206Z</time></trkpt><trkpt lat="43.3259842" lon="12.394995"><ele>282.3333333333333</ele><time>2026-05-02T08:57:51.199Z</time></trkpt><trkpt lat="43.3259701" lon="12.3952232"><ele>282.0</ele><time>2026-05-02T08:57:52.19Z</time></trkpt><trkpt lat="43.3259532" lon="12.3954643"><ele>282.0</ele><time>2026-05-02T08:57:53.194Z</time></trkpt><trkpt lat="43.3259298" lon="12.395706"><ele>282.0</ele><time>2026-05-02T08:57:54.203Z</time></trkpt><trkpt lat="43.3259109" lon="12.3959524"><ele>282.0</ele><time>2026-05-02T08:57:55.206Z</time></trkpt><trkpt lat="43.3258915" lon="12.3961996"><ele>281.6666666666667</ele><time>2026-05-02T08:57:56.202Z</time></trkpt><trkpt lat="43.3258708" lon="12.3964466"><ele>281.33333333333337</ele><time>2026-05-02T08:57:57.21Z</time></trkpt><trkpt lat="43.3258511" lon="12.3966884"><ele>281.0</ele><time>2026-05-02T08:57:58.214Z</time></trkpt><trkpt lat="43.3258325" lon="12.3969213"><ele>281.0</ele><time>2026-05-02T08:57:59.193Z</time></trkpt><trkpt lat="43.3258116" lon="12.3971554"><ele>281.0</ele><time>2026-05-02T08:58:00.204Z</time></trkpt><trkpt lat="43.325792" lon="12.3973906"><ele>281.0</ele><time>2026-05-02T08:58:01.206Z</time></trkpt><trkpt lat="43.325772" lon="12.3976208"><ele>281.5</ele><time>2026-05-02T08:58:02.205Z</time></trkpt><trkpt lat="43.3257566" lon="12.3978356"><ele>282.0</ele><time>2026-05-02T08:58:03.198Z</time></trkpt><trkpt lat="43.3257424" lon="12.398031"><ele>282.5</ele><time>2026-05-02T08:58:04.204Z</time></trkpt><trkpt lat="43.3257264" lon="12.3982131"><ele>283.0</ele><time>2026-05-02T08:58:05.202Z</time></trkpt><trkpt lat="43.3257045" lon="12.3983655"><ele>283.16666666666663</ele><time>2026-05-02T08:58:06.198Z</time></trkpt><trkpt lat="43.3256806" lon="12.3984848"><ele>283.3333333333333</ele><time>2026-05-02T08:58:07.205Z</time></trkpt><trkpt lat="43.3256658" lon="12.3985845"><ele>283.5</ele><time>2026-05-02T08:58:08.2Z</time></trkpt><trkpt lat="43.3256437" lon="12.3987131"><ele>283.6666666666667</ele><time>2026-05-02T08:58:10.202Z</time></trkpt><trkpt lat="43.3256348" lon="12.3988091"><ele>283.83333333333337</ele><time>2026-05-02T08:58:13.193Z</time></trkpt><trkpt lat="43.3256586" lon="12.3989097"><ele>284.0</ele><time>2026-05-02T09:00:37.197Z</time></trkpt><trkpt lat="43.3256591" lon="12.3990829"><ele>285.0</ele><time>2026-05-02T09:00:39.185Z</time></trkpt><trkpt lat="43.3256552" lon="12.3992246"><ele>286.0</ele><time>2026-05-02T09:00:40.209Z</time></trkpt><trkpt lat="43.3256542" lon="12.3993905"><ele>287.0</ele><time>2026-05-02T09:00:41.213Z</time></trkpt><trkpt lat="43.3256582" lon="12.3995671"><ele>288.0</ele><time>2026-05-02T09:00:42.206Z</time></trkpt><trkpt lat="43.3256872" lon="12.3997811"><ele>288.0</ele><time>2026-05-02T09:00:43.209Z</time></trkpt><trkpt lat="43.3257228" lon="12.4000163"><ele>288.0</ele><time>2026-05-02T09:00:44.209Z</time></trkpt><trkpt lat="43.3257546" lon="12.4002615"><ele>288.0</ele><time>2026-05-02T09:00:45.212Z</time></trkpt><trkpt lat="43.3257895" lon="12.400519"><ele>289.0</ele><time>2026-05-02T09:00:46.2Z</time></trkpt><trkpt lat="43.3258324" lon="12.4007731"><ele>290.0</ele><time>2026-05-02T09:00:47.199Z</time></trkpt><trkpt lat="43.3258862" lon="12.4010045"><ele>291.0</ele><time>2026-05-02T09:00:48.19Z</time></trkpt><trkpt lat="43.3259448" lon="12.4012205"><ele>291.6666666666667</ele><time>2026-05-02T09:00:49.182Z</time></trkpt><trkpt lat="43.3260127" lon="12.401425"><ele>292.33333333333337</ele><time>2026-05-02T09:00:50.218Z</time></trkpt><trkpt lat="43.3261271" lon="12.4016115"><ele>293.0</ele><time>2026-05-02T09:00:51.198Z</time></trkpt><trkpt lat="43.3262747" lon="12.4017949"><ele>293.33333333333337</ele><time>2026-05-02T09:00:52.188Z</time></trkpt><trkpt lat="43.3264202" lon="12.4019621"><ele>293.6666666666667</ele><time>2026-05-02T09:00:53.197Z</time></trkpt><trkpt lat="43.3265655" lon="12.4021213"><ele>294.0</ele><time>2026-05-02T09:00:54.199Z</time></trkpt><trkpt lat="43.3267138" lon="12.4022845"><ele>294.0</ele><time>2026-05-02T09:00:55.198Z</time></trkpt><trkpt lat="43.3268781" lon="12.4024435"><ele>294.0</ele><time>2026-05-02T09:00:56.203Z</time></trkpt><trkpt lat="43.3270447" lon="12.4025771"><ele>294.0</ele><time>2026-05-02T09:00:57.191Z</time></trkpt><trkpt lat="43.3272201" lon="12.4027025"><ele>296.6666666666667</ele><time>2026-05-02T09:00:58.205Z</time></trkpt><trkpt lat="43.3274055" lon="12.4028009"><ele>299.33333333333337</ele><time>2026-05-02T09:00:59.203Z</time></trkpt><trkpt lat="43.3275988" lon="12.4028883"><ele>302.0</ele><time>2026-05-02T09:01:00.182Z</time></trkpt><trkpt lat="43.3277932" lon="12.4029667"><ele>299.6666666666667</ele><time>2026-05-02T09:01:01.187Z</time></trkpt><trkpt lat="43.3279834" lon="12.4030583"><ele>297.3333333333333</ele><time>2026-05-02T09:01:02.216Z</time></trkpt><trkpt lat="43.3281692" lon="12.4031445"><ele>295.0</ele><time>2026-05-02T09:01:03.213Z</time></trkpt><trkpt lat="43.3283367" lon="12.4032708"><ele>295.0</ele><time>2026-05-02T09:01:04.198Z</time></trkpt><trkpt lat="43.3284905" lon="12.4034417"><ele>295.0</ele><time>2026-05-02T09:01:05.192Z</time></trkpt><trkpt lat="43.3286395" lon="12.4036297"><ele>295.0</ele><time>2026-05-02T09:01:06.194Z</time></trkpt><trkpt lat="43.3287809" lon="12.4038178"><ele>296.0</ele><time>2026-05-02T09:01:07.196Z</time></trkpt><trkpt lat="43.3289016" lon="12.4040342"><ele>297.0</ele><time>2026-05-02T09:01:08.197Z</time></trkpt><trkpt lat="43.3289963" lon="12.4042851"><ele>298.0</ele><time>2026-05-02T09:01:09.217Z</time></trkpt><trkpt lat="43.3290676" lon="12.4045491"><ele>298.0</ele><time>2026-05-02T09:01:10.192Z</time></trkpt><trkpt lat="43.3291133" lon="12.4048195"><ele>298.0</ele><time>2026-05-02T09:01:11.21Z</time></trkpt><trkpt lat="43.3291641" lon="12.4050879"><ele>298.0</ele><time>2026-05-02T09:01:12.202Z</time></trkpt><trkpt lat="43.3292198" lon="12.4053664"><ele>297.0</ele><time>2026-05-02T09:01:13.201Z</time></trkpt><trkpt lat="43.3292974" lon="12.4056369"><ele>296.0</ele><time>2026-05-02T09:01:14.209Z</time></trkpt><trkpt lat="43.3293922" lon="12.405882"><ele>295.0</ele><time>2026-05-02T09:01:15.208Z</time></trkpt><trkpt lat="43.3295124" lon="12.4061089"><ele>295.0</ele><time>2026-05-02T09:01:16.2Z</time></trkpt><trkpt lat="43.3296606" lon="12.4063118"><ele>295.0</ele><time>2026-05-02T09:01:17.217Z</time></trkpt><trkpt lat="43.3298339" lon="12.4065005"><ele>295.0</ele><time>2026-05-02T09:01:18.201Z</time></trkpt><trkpt lat="43.3300211" lon="12.4066632"><ele>297.5</ele><time>2026-05-02T09:01:19.213Z</time></trkpt><trkpt lat="43.330216" lon="12.4068282"><ele>300.0</ele><time>2026-05-02T09:01:20.192Z</time></trkpt><trkpt lat="43.3304082" lon="12.4069799"><ele>300.0</ele><time>2026-05-02T09:01:21.208Z</time></trkpt><trkpt lat="43.3306017" lon="12.407141"><ele>300.0</ele><time>2026-05-02T09:01:22.208Z</time></trkpt><trkpt lat="43.3307888" lon="12.4072978"><ele>300.0</ele><time>2026-05-02T09:01:23.203Z</time></trkpt><trkpt lat="43.330968" lon="12.4074433"><ele>300.0</ele><time>2026-05-02T09:01:24.206Z</time></trkpt><trkpt lat="43.3311394" lon="12.407591"><ele>300.0</ele><time>2026-05-02T09:01:25.201Z</time></trkpt><trkpt lat="43.3313072" lon="12.4077564"><ele>300.0</ele><time>2026-05-02T09:01:26.211Z</time></trkpt><trkpt lat="43.3314636" lon="12.4079437"><ele>301.3333333333333</ele><time>2026-05-02T09:01:27.171Z</time></trkpt><trkpt lat="43.3316156" lon="12.4081457"><ele>302.66666666666663</ele><time>2026-05-02T09:01:28.207Z</time></trkpt><trkpt lat="43.3317611" lon="12.4083619"><ele>304.0</ele><time>2026-05-02T09:01:29.197Z</time></trkpt><trkpt lat="43.3319079" lon="12.4085762"><ele>304.0</ele><time>2026-05-02T09:01:30.185Z</time></trkpt><trkpt lat="43.3320539" lon="12.4087938"><ele>304.0</ele><time>2026-05-02T09:01:31.194Z</time></trkpt><trkpt lat="43.3322078" lon="12.4090021"><ele>304.0</ele><time>2026-05-02T09:01:32.191Z</time></trkpt><trkpt lat="43.3323548" lon="12.4092132"><ele>304.0</ele><time>2026-05-02T09:01:33.21Z</time></trkpt><trkpt lat="43.3325037" lon="12.4094191"><ele>304.0</ele><time>2026-05-02T09:01:34.204Z</time></trkpt><trkpt lat="43.3326526" lon="12.4096141"><ele>304.0</ele><time>2026-05-02T09:01:35.203Z</time></trkpt><trkpt lat="43.332805" lon="12.4097992"><ele>304.0</ele><time>2026-05-02T09:01:36.206Z</time></trkpt><trkpt lat="43.332958" lon="12.4099801"><ele>304.0</ele><time>2026-05-02T09:01:37.207Z</time></trkpt><trkpt lat="43.3331151" lon="12.4101492"><ele>304.0</ele><time>2026-05-02T09:01:38.219Z</time></trkpt><trkpt lat="43.333267" lon="12.4103204"><ele>305.3333333333333</ele><time>2026-05-02T09:01:39.204Z</time></trkpt><trkpt lat="43.3334125" lon="12.4104897"><ele>306.6666666666667</ele><time>2026-05-02T09:01:40.212Z</time></trkpt><trkpt lat="43.3335543" lon="12.4106681"><ele>308.0</ele><time>2026-05-02T09:01:41.203Z</time></trkpt><trkpt lat="43.3336881" lon="12.4108622"><ele>308.0</ele><time>2026-05-02T09:01:42.198Z</time></trkpt><trkpt lat="43.3338196" lon="12.4110667"><ele>308.0</ele><time>2026-05-02T09:01:43.221Z</time></trkpt><trkpt lat="43.3339447" lon="12.4112794"><ele>308.0</ele><time>2026-05-02T09:01:44.199Z</time></trkpt><trkpt lat="43.3340642" lon="12.4115069"><ele>307.33333333333337</ele><time>2026-05-02T09:01:45.191Z</time></trkpt><trkpt lat="43.3341881" lon="12.4117478"><ele>306.6666666666667</ele><time>2026-05-02T09:01:46.194Z</time></trkpt><trkpt lat="43.3343061" lon="12.4119829"><ele>306.0</ele><time>2026-05-02T09:01:47.197Z</time></trkpt><trkpt lat="43.3344095" lon="12.4122121"><ele>306.0</ele><time>2026-05-02T09:01:48.205Z</time></trkpt><trkpt lat="43.3345094" lon="12.4124289"><ele>306.0</ele><time>2026-05-02T09:01:49.204Z</time></trkpt><trkpt lat="43.3346093" lon="12.4126379"><ele>306.0</ele><time>2026-05-02T09:01:50.199Z</time></trkpt><trkpt lat="43.3347126" lon="12.4128356"><ele>307.6666666666667</ele><time>2026-05-02T09:01:51.197Z</time></trkpt><trkpt lat="43.334823" lon="12.4130239"><ele>309.33333333333337</ele><time>2026-05-02T09:01:52.203Z</time></trkpt><trkpt lat="43.334953" lon="12.4131842"><ele>311.0</ele><time>2026-05-02T09:01:53.203Z</time></trkpt><trkpt lat="43.3350957" lon="12.4133105"><ele>311.0</ele><time>2026-05-02T09:01:54.183Z</time></trkpt><trkpt lat="43.3352493" lon="12.4134022"><ele>311.0</ele><time>2026-05-02T09:01:55.193Z</time></trkpt><trkpt lat="43.3354252" lon="12.4134573"><ele>311.0</ele><time>2026-05-02T09:01:56.207Z</time></trkpt><trkpt lat="43.3356022" lon="12.4134931"><ele>314.6666666666667</ele><time>2026-05-02T09:01:57.218Z</time></trkpt><trkpt lat="43.3357655" lon="12.4135432"><ele>318.3333333333333</ele><time>2026-05-02T09:01:58.203Z</time></trkpt><trkpt lat="43.3359294" lon="12.4136251"><ele>322.0</ele><time>2026-05-02T09:01:59.205Z</time></trkpt><trkpt lat="43.3360897" lon="12.4137453"><ele>321.3333333333333</ele><time>2026-05-02T09:02:00.211Z</time></trkpt><trkpt lat="43.3362453" lon="12.4138846"><ele>320.6666666666667</ele><time>2026-05-02T09:02:01.209Z</time></trkpt><trkpt lat="43.3363954" lon="12.4140502"><ele>320.0</ele><time>2026-05-02T09:02:02.216Z</time></trkpt><trkpt lat="43.3365374" lon="12.4142303"><ele>320.0</ele><time>2026-05-02T09:02:03.199Z</time></trkpt><trkpt lat="43.3366771" lon="12.4144236"><ele>320.0</ele><time>2026-05-02T09:02:04.198Z</time></trkpt><trkpt lat="43.3368087" lon="12.4146192"><ele>320.0</ele><time>2026-05-02T09:02:05.2Z</time></trkpt><trkpt lat="43.3369425" lon="12.4148026"><ele>322.0</ele><time>2026-05-02T09:02:06.213Z</time></trkpt><trkpt lat="43.3370699" lon="12.4149808"><ele>324.0</ele><time>2026-05-02T09:02:07.206Z</time></trkpt><trkpt lat="43.3371916" lon="12.4151627"><ele>326.0</ele><time>2026-05-02T09:02:08.211Z</time></trkpt><trkpt lat="43.3373268" lon="12.4153523"><ele>322.0</ele><time>2026-05-02T09:02:09.194Z</time></trkpt><trkpt lat="43.3374478" lon="12.4155414"><ele>318.0</ele><time>2026-05-02T09:02:10.188Z</time></trkpt><trkpt lat="43.3375594" lon="12.4157381"><ele>314.0</ele><time>2026-05-02T09:02:11.2Z</time></trkpt><trkpt lat="43.3376598" lon="12.4159387"><ele>314.0</ele><time>2026-05-02T09:02:12.201Z</time></trkpt><trkpt lat="43.3377503" lon="12.4161588"><ele>314.0</ele><time>2026-05-02T09:02:13.2Z</time></trkpt><trkpt lat="43.3378303" lon="12.4163816"><ele>314.0</ele><time>2026-05-02T09:02:14.2Z</time></trkpt><trkpt lat="43.3379022" lon="12.4166051"><ele>315.6666666666667</ele><time>2026-05-02T09:02:15.201Z</time></trkpt><trkpt lat="43.3379796" lon="12.4168255"><ele>317.3333333333333</ele><time>2026-05-02T09:02:16.2Z</time></trkpt><trkpt lat="43.3380687" lon="12.4170417"><ele>319.0</ele><time>2026-05-02T09:02:17.192Z</time></trkpt><trkpt lat="43.3381719" lon="12.4172596"><ele>319.0</ele><time>2026-05-02T09:02:18.19Z</time></trkpt><trkpt lat="43.3382848" lon="12.4174775"><ele>319.0</ele><time>2026-05-02T09:02:19.194Z</time></trkpt><trkpt lat="43.3384085" lon="12.4176842"><ele>319.0</ele><time>2026-05-02T09:02:20.192Z</time></trkpt><trkpt lat="43.3385522" lon="12.4178791"><ele>320.3333333333333</ele><time>2026-05-02T09:02:21.192Z</time></trkpt><trkpt lat="43.3387033" lon="12.4180618"><ele>321.6666666666667</ele><time>2026-05-02T09:02:22.196Z</time></trkpt><trkpt lat="43.3388543" lon="12.4182254"><ele>323.0</ele><time>2026-05-02T09:02:23.199Z</time></trkpt><trkpt lat="43.3390163" lon="12.4183588"><ele>323.0</ele><time>2026-05-02T09:02:24.175Z</time></trkpt><trkpt lat="43.3391829" lon="12.4184913"><ele>323.0</ele><time>2026-05-02T09:02:25.174Z</time></trkpt><trkpt lat="43.3393467" lon="12.4186237"><ele>323.0</ele><time>2026-05-02T09:02:26.162Z</time></trkpt><trkpt lat="43.3395138" lon="12.4187659"><ele>323.0</ele><time>2026-05-02T09:02:27.194Z</time></trkpt><trkpt lat="43.3396794" lon="12.4189235"><ele>323.0</ele><time>2026-05-02T09:02:28.188Z</time></trkpt><trkpt lat="43.3398393" lon="12.4190929"><ele>323.0</ele><time>2026-05-02T09:02:29.183Z</time></trkpt><trkpt lat="43.3399909" lon="12.4192722"><ele>323.0</ele><time>2026-05-02T09:02:30.172Z</time></trkpt><trkpt lat="43.3401413" lon="12.4194567"><ele>323.0</ele><time>2026-05-02T09:02:31.185Z</time></trkpt><trkpt lat="43.3402939" lon="12.4196341"><ele>323.0</ele><time>2026-05-02T09:02:32.206Z</time></trkpt><trkpt lat="43.3404489" lon="12.4197929"><ele>325.0</ele><time>2026-05-02T09:02:33.192Z</time></trkpt><trkpt lat="43.3406094" lon="12.4199479"><ele>327.0</ele><time>2026-05-02T09:02:34.199Z</time></trkpt><trkpt lat="43.3407693" lon="12.4200997"><ele>329.0</ele><time>2026-05-02T09:02:35.217Z</time></trkpt><trkpt lat="43.3409242" lon="12.4202416"><ele>329.0</ele><time>2026-05-02T09:02:36.205Z</time></trkpt><trkpt lat="43.3410763" lon="12.4203573"><ele>329.0</ele><time>2026-05-02T09:02:37.191Z</time></trkpt><trkpt lat="43.3412258" lon="12.4204538"><ele>329.0</ele><time>2026-05-02T09:02:38.204Z</time></trkpt><trkpt lat="43.3413722" lon="12.4205381"><ele>326.5</ele><time>2026-05-02T09:02:39.206Z</time></trkpt><trkpt lat="43.341509" lon="12.4206111"><ele>324.0</ele><time>2026-05-02T09:02:40.192Z</time></trkpt><trkpt lat="43.3416354" lon="12.4206767"><ele>321.5</ele><time>2026-05-02T09:02:41.204Z</time></trkpt><trkpt lat="43.3417513" lon="12.4207427"><ele>319.0</ele><time>2026-05-02T09:02:42.198Z</time></trkpt><trkpt lat="43.3418613" lon="12.4208006"><ele>319.0</ele><time>2026-05-02T09:02:43.196Z</time></trkpt><trkpt lat="43.3419687" lon="12.4208583"><ele>319.0</ele><time>2026-05-02T09:02:44.198Z</time></trkpt><trkpt lat="43.3420772" lon="12.4209153"><ele>319.0</ele><time>2026-05-02T09:02:45.179Z</time></trkpt><trkpt lat="43.3421973" lon="12.4209779"><ele>319.0</ele><time>2026-05-02T09:02:46.194Z</time></trkpt><trkpt lat="43.3423257" lon="12.4210448"><ele>321.0</ele><time>2026-05-02T09:02:47.197Z</time></trkpt><trkpt lat="43.3424631" lon="12.4211267"><ele>323.0</ele><time>2026-05-02T09:02:48.202Z</time></trkpt><trkpt lat="43.342603" lon="12.4211963"><ele>325.0</ele><time>2026-05-02T09:02:49.203Z</time></trkpt><trkpt lat="43.3427442" lon="12.4212732"><ele>323.3333333333333</ele><time>2026-05-02T09:02:50.208Z</time></trkpt><trkpt lat="43.3428811" lon="12.4213756"><ele>321.6666666666667</ele><time>2026-05-02T09:02:51.195Z</time></trkpt><trkpt lat="43.343002" lon="12.4215111"><ele>320.0</ele><time>2026-05-02T09:02:52.205Z</time></trkpt><trkpt lat="43.3431068" lon="12.4216995"><ele>320.0</ele><time>2026-05-02T09:02:53.211Z</time></trkpt><trkpt lat="43.343175" lon="12.4219154"><ele>320.0</ele><time>2026-05-02T09:02:54.201Z</time></trkpt><trkpt lat="43.3432396" lon="12.4221335"><ele>320.0</ele><time>2026-05-02T09:02:55.192Z</time></trkpt><trkpt lat="43.3433012" lon="12.4223484"><ele>321.33333333333337</ele><time>2026-05-02T09:02:56.204Z</time></trkpt><trkpt lat="43.3433566" lon="12.4225666"><ele>322.6666666666667</ele><time>2026-05-02T09:02:57.19Z</time></trkpt><trkpt lat="43.3434011" lon="12.4227913"><ele>324.0</ele><time>2026-05-02T09:02:58.199Z</time></trkpt><trkpt lat="43.343435" lon="12.4230086"><ele>325.25</ele><time>2026-05-02T09:02:59.198Z</time></trkpt><trkpt lat="43.3434498" lon="12.4231908"><ele>326.5</ele><time>2026-05-02T09:03:00.209Z</time></trkpt><trkpt lat="43.3434637" lon="12.4233458"><ele>327.75</ele><time>2026-05-02T09:03:01.196Z</time></trkpt><trkpt lat="43.3434722" lon="12.4234885"><ele>329.0</ele><time>2026-05-02T09:03:02.201Z</time></trkpt><trkpt lat="43.3434776" lon="12.4236408"><ele>329.0</ele><time>2026-05-02T09:03:03.195Z</time></trkpt><trkpt lat="43.3434825" lon="12.4237922"><ele>329.0</ele><time>2026-05-02T09:03:04.208Z</time></trkpt><trkpt lat="43.343489" lon="12.4239264"><ele>329.0</ele><time>2026-05-02T09:03:05.193Z</time></trkpt><trkpt lat="43.3434876" lon="12.4240642"><ele>329.0</ele><time>2026-05-02T09:03:06.169Z</time></trkpt><trkpt lat="43.3434872" lon="12.4242045"><ele>329.0</ele><time>2026-05-02T09:03:07.197Z</time></trkpt><trkpt lat="43.3434832" lon="12.4243521"><ele>329.75</ele><time>2026-05-02T09:03:08.197Z</time></trkpt><trkpt lat="43.3434716" lon="12.4245081"><ele>330.5</ele><time>2026-05-02T09:03:09.188Z</time></trkpt><trkpt lat="43.3434474" lon="12.4246637"><ele>331.25</ele><time>2026-05-02T09:03:10.195Z</time></trkpt><trkpt lat="43.3434234" lon="12.4248191"><ele>332.0</ele><time>2026-05-02T09:03:11.197Z</time></trkpt><trkpt lat="43.3433936" lon="12.4249737"><ele>332.25</ele><time>2026-05-02T09:03:12.191Z</time></trkpt><trkpt lat="43.3433755" lon="12.4251367"><ele>332.5</ele><time>2026-05-02T09:03:13.192Z</time></trkpt><trkpt lat="43.3433446" lon="12.4253297"><ele>332.75</ele><time>2026-05-02T09:03:14.184Z</time></trkpt><trkpt lat="43.3433119" lon="12.4255262"><ele>333.0</ele><time>2026-05-02T09:03:15.205Z</time></trkpt><trkpt lat="43.3432781" lon="12.4257295"><ele>334.3333333333333</ele><time>2026-05-02T09:03:16.205Z</time></trkpt><trkpt lat="43.3432432" lon="12.4259378"><ele>335.66666666666663</ele><time>2026-05-02T09:03:17.191Z</time></trkpt><trkpt lat="43.3432135" lon="12.426151"><ele>337.0</ele><time>2026-05-02T09:03:18.191Z</time></trkpt><trkpt lat="43.3431879" lon="12.4263529"><ele>339.75</ele><time>2026-05-02T09:03:19.195Z</time></trkpt><trkpt lat="43.3431549" lon="12.4265315"><ele>342.5</ele><time>2026-05-02T09:03:20.202Z</time></trkpt><trkpt lat="43.3431272" lon="12.426684"><ele>345.25</ele><time>2026-05-02T09:03:21.184Z</time></trkpt><trkpt lat="43.343103" lon="12.4268292"><ele>348.0</ele><time>2026-05-02T09:03:22.211Z</time></trkpt><trkpt lat="43.3430819" lon="12.4269879"><ele>351.25</ele><time>2026-05-02T09:03:23.211Z</time></trkpt><trkpt lat="43.3430495" lon="12.4271521"><ele>354.5</ele><time>2026-05-02T09:03:24.198Z</time></trkpt><trkpt lat="43.3430047" lon="12.4273165"><ele>357.75</ele><time>2026-05-02T09:03:25.196Z</time></trkpt><trkpt lat="43.3429481" lon="12.4274635"><ele>361.0</ele><time>2026-05-02T09:03:26.196Z</time></trkpt><trkpt lat="43.3428819" lon="12.4275861"><ele>355.4</ele><time>2026-05-02T09:03:27.188Z</time></trkpt><trkpt lat="43.3428299" lon="12.427697"><ele>349.8</ele><time>2026-05-02T09:03:28.197Z</time></trkpt><trkpt lat="43.3427819" lon="12.4278044"><ele>344.2</ele><time>2026-05-02T09:03:29.176Z</time></trkpt><trkpt lat="43.3427389" lon="12.4279257"><ele>338.59999999999997</ele><time>2026-05-02T09:03:30.189Z</time></trkpt><trkpt lat="43.3427242" lon="12.4280536"><ele>333.0</ele><time>2026-05-02T09:03:31.192Z</time></trkpt><trkpt lat="43.3427304" lon="12.4281679"><ele>333.0</ele><time>2026-05-02T09:03:32.202Z</time></trkpt><trkpt lat="43.3427547" lon="12.4282896"><ele>333.0</ele><time>2026-05-02T09:03:33.196Z</time></trkpt><trkpt lat="43.3428169" lon="12.4284112"><ele>333.0</ele><time>2026-05-02T09:03:34.201Z</time></trkpt><trkpt lat="43.3429121" lon="12.4285431"><ele>333.0</ele><time>2026-05-02T09:03:35.192Z</time></trkpt><trkpt lat="43.3430296" lon="12.428675"><ele>337.75</ele><time>2026-05-02T09:03:36.189Z</time></trkpt><trkpt lat="43.3431438" lon="12.428815"><ele>342.5</ele><time>2026-05-02T09:03:37.189Z</time></trkpt><trkpt lat="43.3432323" lon="12.428951"><ele>347.25</ele><time>2026-05-02T09:03:38.209Z</time></trkpt><trkpt lat="43.343314" lon="12.4290693"><ele>352.0</ele><time>2026-05-02T09:03:39.191Z</time></trkpt><trkpt lat="43.3433965" lon="12.4291843"><ele>352.0</ele><time>2026-05-02T09:03:40.201Z</time></trkpt><trkpt lat="43.3434861" lon="12.4293078"><ele>352.0</ele><time>2026-05-02T09:03:41.209Z</time></trkpt><trkpt lat="43.343567" lon="12.4294256"><ele>352.0</ele><time>2026-05-02T09:03:42.194Z</time></trkpt><trkpt lat="43.3436392" lon="12.4295296"><ele>352.0</ele><time>2026-05-02T09:03:43.207Z</time></trkpt><trkpt lat="43.3437007" lon="12.4296326"><ele>352.0</ele><time>2026-05-02T09:03:44.198Z</time></trkpt><trkpt lat="43.3437593" lon="12.4297219"><ele>352.5</ele><time>2026-05-02T09:03:45.198Z</time></trkpt><trkpt lat="43.3438183" lon="12.4298032"><ele>353.0</ele><time>2026-05-02T09:03:46.208Z</time></trkpt><trkpt lat="43.3438786" lon="12.4298804"><ele>353.5</ele><time>2026-05-02T09:03:47.199Z</time></trkpt><trkpt lat="43.343948" lon="12.4299442"><ele>354.0</ele><time>2026-05-02T09:03:48.197Z</time></trkpt><trkpt lat="43.3440257" lon="12.4300067"><ele>354.5</ele><time>2026-05-02T09:03:49.195Z</time></trkpt><trkpt lat="43.344118" lon="12.430056"><ele>355.0</ele><time>2026-05-02T09:03:50.197Z</time></trkpt><trkpt lat="43.3442288" lon="12.4300758"><ele>355.0</ele><time>2026-05-02T09:03:51.189Z</time></trkpt><trkpt lat="43.3443564" lon="12.4300727"><ele>355.0</ele><time>2026-05-02T09:03:52.194Z</time></trkpt><trkpt lat="43.3444865" lon="12.4300576"><ele>355.0</ele><time>2026-05-02T09:03:53.202Z</time></trkpt><trkpt lat="43.3445958" lon="12.4300359"><ele>355.0</ele><time>2026-05-02T09:03:54.189Z</time></trkpt><trkpt lat="43.3446945" lon="12.4300257"><ele>357.8</ele><time>2026-05-02T09:03:55.204Z</time></trkpt><trkpt lat="43.3447892" lon="12.4300244"><ele>360.6</ele><time>2026-05-02T09:03:56.196Z</time></trkpt><trkpt lat="43.3448753" lon="12.4300471"><ele>363.4</ele><time>2026-05-02T09:03:57.189Z</time></trkpt><trkpt lat="43.3449482" lon="12.4301181"><ele>366.2</ele><time>2026-05-02T09:03:58.195Z</time></trkpt><trkpt lat="43.3449969" lon="12.4302357"><ele>369.0</ele><time>2026-05-02T09:03:59.192Z</time></trkpt><trkpt lat="43.3450279" lon="12.4303771"><ele>367.5</ele><time>2026-05-02T09:04:00.187Z</time></trkpt><trkpt lat="43.3450239" lon="12.4305543"><ele>366.0</ele><time>2026-05-02T09:04:01.191Z</time></trkpt><trkpt lat="43.3450188" lon="12.4307684"><ele>364.5</ele><time>2026-05-02T09:04:02.206Z</time></trkpt><trkpt lat="43.3450223" lon="12.4309822"><ele>363.0</ele><time>2026-05-02T09:04:03.203Z</time></trkpt><trkpt lat="43.345018" lon="12.4311713"><ele>363.59999999999997</ele><time>2026-05-02T09:04:04.201Z</time></trkpt><trkpt lat="43.3450255" lon="12.4313345"><ele>364.2</ele><time>2026-05-02T09:04:05.187Z</time></trkpt><trkpt lat="43.3450275" lon="12.4314839"><ele>364.8</ele><time>2026-05-02T09:04:06.189Z</time></trkpt><trkpt lat="43.3450299" lon="12.431616"><ele>365.4</ele><time>2026-05-02T09:04:07.193Z</time></trkpt><trkpt lat="43.3450179" lon="12.4317346"><ele>366.0</ele><time>2026-05-02T09:04:08.204Z</time></trkpt><trkpt lat="43.3449925" lon="12.4318597"><ele>366.0</ele><time>2026-05-02T09:04:09.19Z</time></trkpt><trkpt lat="43.3449593" lon="12.4319892"><ele>366.0</ele><time>2026-05-02T09:04:10.201Z</time></trkpt><trkpt lat="43.3449413" lon="12.4321097"><ele>366.0</ele><time>2026-05-02T09:04:11.194Z</time></trkpt><trkpt lat="43.344933" lon="12.4322486"><ele>366.0</ele><time>2026-05-02T09:04:12.179Z</time></trkpt><trkpt lat="43.3449281" lon="12.4324261"><ele>366.0</ele><time>2026-05-02T09:04:13.203Z</time></trkpt><trkpt lat="43.3449305" lon="12.4326212"><ele>366.20000000000005</ele><time>2026-05-02T09:04:14.199Z</time></trkpt><trkpt lat="43.3449327" lon="12.4327911"><ele>366.40000000000003</ele><time>2026-05-02T09:04:15.198Z</time></trkpt><trkpt lat="43.3449485" lon="12.4329341"><ele>366.6</ele><time>2026-05-02T09:04:16.188Z</time></trkpt><trkpt lat="43.3449534" lon="12.4330647"><ele>366.8</ele><time>2026-05-02T09:04:17.19Z</time></trkpt><trkpt lat="43.3449654" lon="12.4331921"><ele>367.0</ele><time>2026-05-02T09:04:18.188Z</time></trkpt><trkpt lat="43.344981" lon="12.4333207"><ele>367.0</ele><time>2026-05-02T09:04:19.192Z</time></trkpt><trkpt lat="43.3450003" lon="12.4334526"><ele>367.0</ele><time>2026-05-02T09:04:20.211Z</time></trkpt><trkpt lat="43.3450203" lon="12.4335837"><ele>367.0</ele><time>2026-05-02T09:04:21.188Z</time></trkpt><trkpt lat="43.3450557" lon="12.4337111"><ele>367.0</ele><time>2026-05-02T09:04:22.203Z</time></trkpt><trkpt lat="43.3451" lon="12.4338245"><ele>367.0</ele><time>2026-05-02T09:04:23.203Z</time></trkpt><trkpt lat="43.3451487" lon="12.4339267"><ele>364.40000000000003</ele><time>2026-05-02T09:04:24.201Z</time></trkpt><trkpt lat="43.3452138" lon="12.4340313"><ele>361.8</ele><time>2026-05-02T09:04:25.196Z</time></trkpt><trkpt lat="43.3452997" lon="12.4341131"><ele>359.2</ele><time>2026-05-02T09:04:26.208Z</time></trkpt><trkpt lat="43.3453859" lon="12.4341713"><ele>356.6</ele><time>2026-05-02T09:04:27.209Z</time></trkpt><trkpt lat="43.3454732" lon="12.4342193"><ele>354.0</ele><time>2026-05-02T09:04:28.19Z</time></trkpt><trkpt lat="43.3455617" lon="12.434256"><ele>359.1666666666667</ele><time>2026-05-02T09:04:29.204Z</time></trkpt><trkpt lat="43.3456573" lon="12.4342828"><ele>364.33333333333337</ele><time>2026-05-02T09:04:30.19Z</time></trkpt><trkpt lat="43.3457448" lon="12.4343026"><ele>369.5</ele><time>2026-05-02T09:04:31.202Z</time></trkpt><trkpt lat="43.3458281" lon="12.4343172"><ele>374.6666666666667</ele><time>2026-05-02T09:04:32.202Z</time></trkpt><trkpt lat="43.3459082" lon="12.4343312"><ele>379.83333333333337</ele><time>2026-05-02T09:04:33.199Z</time></trkpt><trkpt lat="43.3459797" lon="12.4343507"><ele>385.0</ele><time>2026-05-02T09:04:34.193Z</time></trkpt><trkpt lat="43.346069" lon="12.4343591"><ele>385.0</ele><time>2026-05-02T09:04:35.197Z</time></trkpt><trkpt lat="43.3461765" lon="12.4343368"><ele>385.0</ele><time>2026-05-02T09:04:36.203Z</time></trkpt><trkpt lat="43.3462994" lon="12.4342697"><ele>385.0</ele><time>2026-05-02T09:04:37.214Z</time></trkpt><trkpt lat="43.3464059" lon="12.4341893"><ele>385.0</ele><time>2026-05-02T09:04:38.192Z</time></trkpt><trkpt lat="43.3465299" lon="12.4341265"><ele>388.0</ele><time>2026-05-02T09:04:39.197Z</time></trkpt><trkpt lat="43.3466607" lon="12.4341409"><ele>391.0</ele><time>2026-05-02T09:04:40.175Z</time></trkpt><trkpt lat="43.3468036" lon="12.4342514"><ele>394.0</ele><time>2026-05-02T09:04:41.192Z</time></trkpt><trkpt lat="43.3469477" lon="12.4343893"><ele>394.0</ele><time>2026-05-02T09:04:42.204Z</time></trkpt><trkpt lat="43.3470876" lon="12.4345432"><ele>394.0</ele><time>2026-05-02T09:04:43.201Z</time></trkpt><trkpt lat="43.3472417" lon="12.4347167"><ele>394.0</ele><time>2026-05-02T09:04:44.199Z</time></trkpt><trkpt lat="43.3473882" lon="12.4348808"><ele>390.33333333333337</ele><time>2026-05-02T09:04:45.194Z</time></trkpt><trkpt lat="43.3475157" lon="12.4350423"><ele>386.6666666666667</ele><time>2026-05-02T09:04:46.202Z</time></trkpt><trkpt lat="43.3476263" lon="12.4351734"><ele>383.0</ele><time>2026-05-02T09:04:47.19Z</time></trkpt><trkpt lat="43.3477419" lon="12.4352775"><ele>383.0</ele><time>2026-05-02T09:04:48.197Z</time></trkpt><trkpt lat="43.3478637" lon="12.4353185"><ele>383.0</ele><time>2026-05-02T09:04:49.189Z</time></trkpt><trkpt lat="43.3479847" lon="12.4352963"><ele>383.0</ele><time>2026-05-02T09:04:50.202Z</time></trkpt><trkpt lat="43.3480968" lon="12.4352137"><ele>383.0</ele><time>2026-05-02T09:04:51.185Z</time></trkpt><trkpt lat="43.3481824" lon="12.4350866"><ele>381.0</ele><time>2026-05-02T09:04:52.187Z</time></trkpt><trkpt lat="43.3482562" lon="12.4349218"><ele>379.0</ele><time>2026-05-02T09:04:53.204Z</time></trkpt><trkpt lat="43.3483171" lon="12.4347249"><ele>377.0</ele><time>2026-05-02T09:04:54.207Z</time></trkpt><trkpt lat="43.3484057" lon="12.4345321"><ele>388.33333333333337</ele><time>2026-05-02T09:04:55.186Z</time></trkpt><trkpt lat="43.3485322" lon="12.4343552"><ele>399.6666666666667</ele><time>2026-05-02T09:04:56.203Z</time></trkpt><trkpt lat="43.3486793" lon="12.4341939"><ele>411.0</ele><time>2026-05-02T09:04:57.199Z</time></trkpt><trkpt lat="43.3488363" lon="12.4340442"><ele>413.33333333333337</ele><time>2026-05-02T09:04:58.184Z</time></trkpt><trkpt lat="43.348996" lon="12.433923"><ele>415.6666666666667</ele><time>2026-05-02T09:04:59.199Z</time></trkpt><trkpt lat="43.3491542" lon="12.4338141"><ele>418.0</ele><time>2026-05-02T09:05:00.195Z</time></trkpt><trkpt lat="43.3492842" lon="12.4336847"><ele>418.0</ele><time>2026-05-02T09:05:01.202Z</time></trkpt><trkpt lat="43.3493917" lon="12.4335619"><ele>418.0</ele><time>2026-05-02T09:05:02.208Z</time></trkpt><trkpt lat="43.3495108" lon="12.433447"><ele>418.0</ele><time>2026-05-02T09:05:03.201Z</time></trkpt><trkpt lat="43.3496455" lon="12.4333716"><ele>418.0</ele><time>2026-05-02T09:05:04.191Z</time></trkpt><trkpt lat="43.3498068" lon="12.4333628"><ele>411.0</ele><time>2026-05-02T09:05:05.194Z</time></trkpt><trkpt lat="43.3499873" lon="12.4334086"><ele>404.0</ele><time>2026-05-02T09:05:06.192Z</time></trkpt><trkpt lat="43.3501747" lon="12.4334602"><ele>397.0</ele><time>2026-05-02T09:05:07.194Z</time></trkpt><trkpt lat="43.3503642" lon="12.4335126"><ele>402.6666666666667</ele><time>2026-05-02T09:05:08.196Z</time></trkpt><trkpt lat="43.3505629" lon="12.4335687"><ele>408.33333333333337</ele><time>2026-05-02T09:05:09.197Z</time></trkpt><trkpt lat="43.3507571" lon="12.433618"><ele>414.0</ele><time>2026-05-02T09:05:10.197Z</time></trkpt><trkpt lat="43.3509462" lon="12.4336814"><ele>414.0</ele><time>2026-05-02T09:05:11.19Z</time></trkpt><trkpt lat="43.3511258" lon="12.4337323"><ele>414.0</ele><time>2026-05-02T09:05:12.209Z</time></trkpt><trkpt lat="43.3512978" lon="12.4337897"><ele>414.0</ele><time>2026-05-02T09:05:13.193Z</time></trkpt><trkpt lat="43.3514501" lon="12.4338912"><ele>405.33333333333337</ele><time>2026-05-02T09:05:14.194Z</time></trkpt><trkpt lat="43.3515921" lon="12.4340381"><ele>396.6666666666667</ele><time>2026-05-02T09:05:15.203Z</time></trkpt><trkpt lat="43.3517219" lon="12.4342299"><ele>388.0</ele><time>2026-05-02T09:05:16.202Z</time></trkpt><trkpt lat="43.3518611" lon="12.4344179"><ele>388.0</ele><time>2026-05-02T09:05:17.202Z</time></trkpt><trkpt lat="43.3520184" lon="12.4345785"><ele>388.0</ele><time>2026-05-02T09:05:18.192Z</time></trkpt><trkpt lat="43.3521923" lon="12.4347396"><ele>388.0</ele><time>2026-05-02T09:05:19.196Z</time></trkpt><trkpt lat="43.3523726" lon="12.4348917"><ele>387.0</ele><time>2026-05-02T09:05:20.201Z</time></trkpt><trkpt lat="43.3525524" lon="12.4350306"><ele>386.0</ele><time>2026-05-02T09:05:21.201Z</time></trkpt><trkpt lat="43.3527293" lon="12.4351658"><ele>385.0</ele><time>2026-05-02T09:05:22.206Z</time></trkpt><trkpt lat="43.352898" lon="12.4352847"><ele>385.6666666666667</ele><time>2026-05-02T09:05:23.191Z</time></trkpt><trkpt lat="43.3530556" lon="12.4354081"><ele>386.33333333333337</ele><time>2026-05-02T09:05:24.2Z</time></trkpt><trkpt lat="43.3532012" lon="12.4355419"><ele>387.0</ele><time>2026-05-02T09:05:25.185Z</time></trkpt><trkpt lat="43.3533093" lon="12.435717"><ele>387.0</ele><time>2026-05-02T09:05:26.216Z</time></trkpt><trkpt lat="43.3534192" lon="12.435893"><ele>387.0</ele><time>2026-05-02T09:05:27.206Z</time></trkpt><trkpt lat="43.3535315" lon="12.4360598"><ele>387.0</ele><time>2026-05-02T09:05:28.202Z</time></trkpt><trkpt lat="43.3536622" lon="12.4362039"><ele>384.0</ele><time>2026-05-02T09:05:29.191Z</time></trkpt><trkpt lat="43.3538154" lon="12.4363307"><ele>381.0</ele><time>2026-05-02T09:05:30.203Z</time></trkpt><trkpt lat="43.353987" lon="12.4364301"><ele>378.0</ele><time>2026-05-02T09:05:31.172Z</time></trkpt><trkpt lat="43.3541833" lon="12.4365184"><ele>378.0</ele><time>2026-05-02T09:05:32.196Z</time></trkpt><trkpt lat="43.3543909" lon="12.4366084"><ele>378.0</ele><time>2026-05-02T09:05:33.201Z</time></trkpt><trkpt lat="43.3545917" lon="12.4367055"><ele>378.0</ele><time>2026-05-02T09:05:34.193Z</time></trkpt><trkpt lat="43.3547827" lon="12.4367872"><ele>383.33333333333337</ele><time>2026-05-02T09:05:35.21Z</time></trkpt><trkpt lat="43.3549802" lon="12.4368518"><ele>388.6666666666667</ele><time>2026-05-02T09:05:36.203Z</time></trkpt><trkpt lat="43.3551818" lon="12.436886"><ele>394.0</ele><time>2026-05-02T09:05:37.203Z</time></trkpt><trkpt lat="43.3553867" lon="12.4368853"><ele>391.0</ele><time>2026-05-02T09:05:38.197Z</time></trkpt><trkpt lat="43.3555879" lon="12.4368631"><ele>388.0</ele><time>2026-05-02T09:05:39.193Z</time></trkpt><trkpt lat="43.3557852" lon="12.4368072"><ele>385.0</ele><time>2026-05-02T09:05:40.206Z</time></trkpt><trkpt lat="43.3559734" lon="12.4367218"><ele>385.0</ele><time>2026-05-02T09:05:41.208Z</time></trkpt><trkpt lat="43.3561602" lon="12.4366128"><ele>385.0</ele><time>2026-05-02T09:05:42.186Z</time></trkpt><trkpt lat="43.3563419" lon="12.436515"><ele>385.0</ele><time>2026-05-02T09:05:43.189Z</time></trkpt><trkpt lat="43.3565335" lon="12.4364416"><ele>379.6666666666667</ele><time>2026-05-02T09:05:44.198Z</time></trkpt><trkpt lat="43.3567166" lon="12.4363912"><ele>374.33333333333337</ele><time>2026-05-02T09:05:45.193Z</time></trkpt><trkpt lat="43.3568924" lon="12.4363169"><ele>369.0</ele><time>2026-05-02T09:05:46.201Z</time></trkpt><trkpt lat="43.3570551" lon="12.4362255"><ele>375.66666666666663</ele><time>2026-05-02T09:05:47.197Z</time></trkpt><trkpt lat="43.35721" lon="12.4361342"><ele>382.3333333333333</ele><time>2026-05-02T09:05:48.204Z</time></trkpt><trkpt lat="43.3573605" lon="12.4360632"><ele>389.0</ele><time>2026-05-02T09:05:49.194Z</time></trkpt><trkpt lat="43.3575275" lon="12.436019"><ele>389.0</ele><time>2026-05-02T09:05:50.201Z</time></trkpt><trkpt lat="43.3577061" lon="12.4359935"><ele>389.0</ele><time>2026-05-02T09:05:51.205Z</time></trkpt><trkpt lat="43.3578957" lon="12.4359862"><ele>389.0</ele><time>2026-05-02T09:05:52.203Z</time></trkpt><trkpt lat="43.3580882" lon="12.4359826"><ele>387.66666666666663</ele><time>2026-05-02T09:05:53.188Z</time></trkpt><trkpt lat="43.3582733" lon="12.4359833"><ele>386.33333333333337</ele><time>2026-05-02T09:05:54.205Z</time></trkpt><trkpt lat="43.3584548" lon="12.4359918"><ele>385.0</ele><time>2026-05-02T09:05:55.196Z</time></trkpt><trkpt lat="43.3586463" lon="12.4360374"><ele>385.0</ele><time>2026-05-02T09:05:56.207Z</time></trkpt><trkpt lat="43.3588465" lon="12.4361297"><ele>385.0</ele><time>2026-05-02T09:05:57.199Z</time></trkpt><trkpt lat="43.3590381" lon="12.4362498"><ele>385.0</ele><time>2026-05-02T09:05:58.186Z</time></trkpt><trkpt lat="43.3592268" lon="12.4363878"><ele>383.33333333333337</ele><time>2026-05-02T09:05:59.198Z</time></trkpt><trkpt lat="43.3594182" lon="12.4365208"><ele>381.6666666666667</ele><time>2026-05-02T09:06:00.208Z</time></trkpt><trkpt lat="43.3596022" lon="12.4366365"><ele>380.0</ele><time>2026-05-02T09:06:01.195Z</time></trkpt><trkpt lat="43.3597772" lon="12.4367505"><ele>380.0</ele><time>2026-05-02T09:06:02.208Z</time></trkpt><trkpt lat="43.359942" lon="12.4368614"><ele>380.0</ele><time>2026-05-02T09:06:03.203Z</time></trkpt><trkpt lat="43.3600809" lon="12.4369909"><ele>380.0</ele><time>2026-05-02T09:06:04.196Z</time></trkpt><trkpt lat="43.360202" lon="12.4371629"><ele>380.0</ele><time>2026-05-02T09:06:05.199Z</time></trkpt><trkpt lat="43.3603219" lon="12.4373604"><ele>380.0</ele><time>2026-05-02T09:06:06.207Z</time></trkpt><trkpt lat="43.3604462" lon="12.4375627"><ele>380.0</ele><time>2026-05-02T09:06:07.201Z</time></trkpt><trkpt lat="43.3605732" lon="12.437742"><ele>380.0</ele><time>2026-05-02T09:06:08.199Z</time></trkpt><trkpt lat="43.3607292" lon="12.4378969"><ele>380.0</ele><time>2026-05-02T09:06:09.2Z</time></trkpt><trkpt lat="43.3609077" lon="12.438011"><ele>380.0</ele><time>2026-05-02T09:06:10.206Z</time></trkpt><trkpt lat="43.3611149" lon="12.438116"><ele>374.5</ele><time>2026-05-02T09:06:11.189Z</time></trkpt><trkpt lat="43.3613394" lon="12.4382316"><ele>369.0</ele><time>2026-05-02T09:06:12.203Z</time></trkpt><trkpt lat="43.3615564" lon="12.4383538"><ele>369.0</ele><time>2026-05-02T09:06:13.214Z</time></trkpt><trkpt lat="43.3617657" lon="12.4384581"><ele>369.0</ele><time>2026-05-02T09:06:14.195Z</time></trkpt><trkpt lat="43.3619775" lon="12.4385485"><ele>369.0</ele><time>2026-05-02T09:06:15.205Z</time></trkpt><trkpt lat="43.3621726" lon="12.4386173"><ele>376.33333333333337</ele><time>2026-05-02T09:06:16.194Z</time></trkpt><trkpt lat="43.362364" lon="12.4386855"><ele>383.6666666666667</ele><time>2026-05-02T09:06:17.2Z</time></trkpt><trkpt lat="43.3625423" lon="12.4387423"><ele>391.0</ele><time>2026-05-02T09:06:18.193Z</time></trkpt><trkpt lat="43.3627134" lon="12.4387979"><ele>384.6666666666667</ele><time>2026-05-02T09:06:19.197Z</time></trkpt><trkpt lat="43.3628711" lon="12.4388632"><ele>378.33333333333337</ele><time>2026-05-02T09:06:20.195Z</time></trkpt><trkpt lat="43.3630201" lon="12.4389746"><ele>372.0</ele><time>2026-05-02T09:06:21.203Z</time></trkpt><trkpt lat="43.3631636" lon="12.4391448"><ele>372.0</ele><time>2026-05-02T09:06:22.201Z</time></trkpt><trkpt lat="43.363299" lon="12.4393354"><ele>372.0</ele><time>2026-05-02T09:06:23.203Z</time></trkpt><trkpt lat="43.3634314" lon="12.439523"><ele>372.0</ele><time>2026-05-02T09:06:24.206Z</time></trkpt><trkpt lat="43.3635535" lon="12.4397376"><ele>374.0</ele><time>2026-05-02T09:06:25.2Z</time></trkpt><trkpt lat="43.363669" lon="12.4399485"><ele>376.0</ele><time>2026-05-02T09:06:26.183Z</time></trkpt><trkpt lat="43.363778" lon="12.4401637"><ele>378.0</ele><time>2026-05-02T09:06:27.206Z</time></trkpt><trkpt lat="43.3638701" lon="12.4403899"><ele>375.3333333333333</ele><time>2026-05-02T09:06:28.206Z</time></trkpt><trkpt lat="43.3639479" lon="12.440625"><ele>372.66666666666663</ele><time>2026-05-02T09:06:29.208Z</time></trkpt><trkpt lat="43.36401" lon="12.4408804"><ele>370.0</ele><time>2026-05-02T09:06:30.2Z</time></trkpt><trkpt lat="43.3640357" lon="12.441172"><ele>370.66666666666663</ele><time>2026-05-02T09:06:31.216Z</time></trkpt><trkpt lat="43.3640674" lon="12.4414546"><ele>371.3333333333333</ele><time>2026-05-02T09:06:32.189Z</time></trkpt><trkpt lat="43.3640937" lon="12.4417321"><ele>372.0</ele><time>2026-05-02T09:06:33.212Z</time></trkpt><trkpt lat="43.3641325" lon="12.4419882"><ele>368.0</ele><time>2026-05-02T09:06:34.206Z</time></trkpt><trkpt lat="43.3641896" lon="12.442223"><ele>364.0</ele><time>2026-05-02T09:06:35.2Z</time></trkpt><trkpt lat="43.3642827" lon="12.4424577"><ele>360.0</ele><time>2026-05-02T09:06:36.205Z</time></trkpt><trkpt lat="43.3644099" lon="12.4426839"><ele>360.0</ele><time>2026-05-02T09:06:37.204Z</time></trkpt><trkpt lat="43.3645407" lon="12.4429131"><ele>360.0</ele><time>2026-05-02T09:06:38.211Z</time></trkpt><trkpt lat="43.3646834" lon="12.4431538"><ele>360.0</ele><time>2026-05-02T09:06:39.201Z</time></trkpt><trkpt lat="43.3648248" lon="12.4434134"><ele>362.0</ele><time>2026-05-02T09:06:40.182Z</time></trkpt><trkpt lat="43.3649706" lon="12.4436601"><ele>364.0</ele><time>2026-05-02T09:06:41.192Z</time></trkpt><trkpt lat="43.3651112" lon="12.4439132"><ele>364.0</ele><time>2026-05-02T09:06:42.168Z</time></trkpt><trkpt lat="43.3652488" lon="12.4441638"><ele>364.0</ele><time>2026-05-02T09:06:43.17Z</time></trkpt><trkpt lat="43.3653875" lon="12.4444126"><ele>359.5</ele><time>2026-05-02T09:06:44.187Z</time></trkpt><trkpt lat="43.3655148" lon="12.4446756"><ele>355.0</ele><time>2026-05-02T09:06:45.204Z</time></trkpt><trkpt lat="43.3656365" lon="12.4449388"><ele>361.0</ele><time>2026-05-02T09:06:46.202Z</time></trkpt><trkpt lat="43.3657562" lon="12.4451956"><ele>367.0</ele><time>2026-05-02T09:06:47.196Z</time></trkpt><trkpt lat="43.3658777" lon="12.445449"><ele>373.0</ele><time>2026-05-02T09:06:48.184Z</time></trkpt><trkpt lat="43.3660105" lon="12.4456986"><ele>373.0</ele><time>2026-05-02T09:06:49.205Z</time></trkpt><trkpt lat="43.366152" lon="12.4459334"><ele>373.0</ele><time>2026-05-02T09:06:50.207Z</time></trkpt><trkpt lat="43.3663011" lon="12.4461572"><ele>373.0</ele><time>2026-05-02T09:06:51.198Z</time></trkpt><trkpt lat="43.3664499" lon="12.4463648"><ele>376.0</ele><time>2026-05-02T09:06:52.208Z</time></trkpt><trkpt lat="43.3665881" lon="12.4465544"><ele>379.0</ele><time>2026-05-02T09:06:53.2Z</time></trkpt><trkpt lat="43.3667205" lon="12.4467192"><ele>382.0</ele><time>2026-05-02T09:06:54.192Z</time></trkpt><trkpt lat="43.3668523" lon="12.4468572"><ele>382.0</ele><time>2026-05-02T09:06:55.201Z</time></trkpt><trkpt lat="43.3670122" lon="12.4469648"><ele>382.0</ele><time>2026-05-02T09:06:56.192Z</time></trkpt><trkpt lat="43.3672038" lon="12.4470471"><ele>382.0</ele><time>2026-05-02T09:06:57.197Z</time></trkpt><trkpt lat="43.3674009" lon="12.4471193"><ele>380.0</ele><time>2026-05-02T09:06:58.206Z</time></trkpt><trkpt lat="43.3675996" lon="12.4471983"><ele>378.0</ele><time>2026-05-02T09:06:59.194Z</time></trkpt><trkpt lat="43.3678014" lon="12.4472916"><ele>376.0</ele><time>2026-05-02T09:07:00.197Z</time></trkpt><trkpt lat="43.3680046" lon="12.4473835"><ele>380.66666666666663</ele><time>2026-05-02T09:07:01.193Z</time></trkpt><trkpt lat="43.3682046" lon="12.4474814"><ele>385.3333333333333</ele><time>2026-05-02T09:07:02.203Z</time></trkpt><trkpt lat="43.3683937" lon="12.4475817"><ele>390.0</ele><time>2026-05-02T09:07:03.198Z</time></trkpt><trkpt lat="43.3685893" lon="12.4476866"><ele>390.0</ele><time>2026-05-02T09:07:04.204Z</time></trkpt><trkpt lat="43.3687805" lon="12.4477958"><ele>390.0</ele><time>2026-05-02T09:07:05.211Z</time></trkpt><trkpt lat="43.3689597" lon="12.4479115"><ele>390.0</ele><time>2026-05-02T09:07:06.197Z</time></trkpt><trkpt lat="43.3691312" lon="12.4480318"><ele>387.0</ele><time>2026-05-02T09:07:07.203Z</time></trkpt><trkpt lat="43.3693095" lon="12.4481594"><ele>384.0</ele><time>2026-05-02T09:07:08.209Z</time></trkpt><trkpt lat="43.3694929" lon="12.4482928"><ele>381.0</ele><time>2026-05-02T09:07:09.193Z</time></trkpt><trkpt lat="43.3696747" lon="12.4484166"><ele>378.0</ele><time>2026-05-02T09:07:10.172Z</time></trkpt><trkpt lat="43.3698609" lon="12.4485509"><ele>375.0</ele><time>2026-05-02T09:07:11.197Z</time></trkpt><trkpt lat="43.3700418" lon="12.4487033"><ele>372.0</ele><time>2026-05-02T09:07:12.197Z</time></trkpt><trkpt lat="43.37021" lon="12.4488798"><ele>372.0</ele><time>2026-05-02T09:07:13.193Z</time></trkpt><trkpt lat="43.3703656" lon="12.4490929"><ele>372.0</ele><time>2026-05-02T09:07:14.202Z</time></trkpt><trkpt lat="43.3705131" lon="12.4493176"><ele>372.0</ele><time>2026-05-02T09:07:15.205Z</time></trkpt><trkpt lat="43.3706426" lon="12.4495719"><ele>372.3333333333333</ele><time>2026-05-02T09:07:16.201Z</time></trkpt><trkpt lat="43.3707557" lon="12.449837"><ele>372.66666666666663</ele><time>2026-05-02T09:07:17.195Z</time></trkpt><trkpt lat="43.3708742" lon="12.4500807"><ele>373.0</ele><time>2026-05-02T09:07:18.197Z</time></trkpt><trkpt lat="43.3709849" lon="12.4503202"><ele>370.3333333333333</ele><time>2026-05-02T09:07:19.195Z</time></trkpt><trkpt lat="43.3710785" lon="12.4505546"><ele>367.6666666666667</ele><time>2026-05-02T09:07:20.195Z</time></trkpt><trkpt lat="43.3711748" lon="12.4507919"><ele>365.0</ele><time>2026-05-02T09:07:21.2Z</time></trkpt><trkpt lat="43.3712567" lon="12.4510411"><ele>365.0</ele><time>2026-05-02T09:07:22.203Z</time></trkpt><trkpt lat="43.3713152" lon="12.4512891"><ele>365.0</ele><time>2026-05-02T09:07:23.196Z</time></trkpt><trkpt lat="43.3713496" lon="12.4515415"><ele>365.0</ele><time>2026-05-02T09:07:24.21Z</time></trkpt><trkpt lat="43.3713624" lon="12.4518006"><ele>363.0</ele><time>2026-05-02T09:07:25.203Z</time></trkpt><trkpt lat="43.3713613" lon="12.4520729"><ele>361.0</ele><time>2026-05-02T09:07:26.195Z</time></trkpt><trkpt lat="43.3713541" lon="12.4523429"><ele>359.0</ele><time>2026-05-02T09:07:27.208Z</time></trkpt><trkpt lat="43.3713476" lon="12.4526087"><ele>359.0</ele><time>2026-05-02T09:07:28.203Z</time></trkpt><trkpt lat="43.3713442" lon="12.4528712"><ele>359.0</ele><time>2026-05-02T09:07:29.211Z</time></trkpt><trkpt lat="43.3713426" lon="12.4531419"><ele>359.0</ele><time>2026-05-02T09:07:30.209Z</time></trkpt><trkpt lat="43.3713445" lon="12.4534064"><ele>359.33333333333337</ele><time>2026-05-02T09:07:31.206Z</time></trkpt><trkpt lat="43.3713474" lon="12.4536836"><ele>359.6666666666667</ele><time>2026-05-02T09:07:32.216Z</time></trkpt><trkpt lat="43.3713495" lon="12.4539554"><ele>360.0</ele><time>2026-05-02T09:07:33.187Z</time></trkpt><trkpt lat="43.3713572" lon="12.4542108"><ele>363.6666666666667</ele><time>2026-05-02T09:07:34.208Z</time></trkpt><trkpt lat="43.371361" lon="12.4544682"><ele>367.33333333333337</ele><time>2026-05-02T09:07:35.206Z</time></trkpt><trkpt lat="43.3713647" lon="12.4547157"><ele>371.0</ele><time>2026-05-02T09:07:36.198Z</time></trkpt><trkpt lat="43.3713717" lon="12.4549548"><ele>371.0</ele><time>2026-05-02T09:07:37.2Z</time></trkpt><trkpt lat="43.3713786" lon="12.4551806"><ele>371.0</ele><time>2026-05-02T09:07:38.203Z</time></trkpt><trkpt lat="43.3713862" lon="12.4553941"><ele>371.0</ele><time>2026-05-02T09:07:39.199Z</time></trkpt><trkpt lat="43.3714073" lon="12.4555923"><ele>370.5</ele><time>2026-05-02T09:07:40.205Z</time></trkpt><trkpt lat="43.3714454" lon="12.4557816"><ele>370.0</ele><time>2026-05-02T09:07:41.205Z</time></trkpt><trkpt lat="43.3715118" lon="12.4559616"><ele>369.5</ele><time>2026-05-02T09:07:42.203Z</time></trkpt><trkpt lat="43.371599" lon="12.4561368"><ele>369.0</ele><time>2026-05-02T09:07:43.209Z</time></trkpt><trkpt lat="43.3716969" lon="12.4563014"><ele>368.0</ele><time>2026-05-02T09:07:44.197Z</time></trkpt><trkpt lat="43.371788" lon="12.4564688"><ele>367.0</ele><time>2026-05-02T09:07:45.198Z</time></trkpt><trkpt lat="43.371864" lon="12.4566385"><ele>366.0</ele><time>2026-05-02T09:07:46.2Z</time></trkpt><trkpt lat="43.3719174" lon="12.4567967"><ele>365.0</ele><time>2026-05-02T09:07:47.209Z</time></trkpt><trkpt lat="43.3719571" lon="12.4569744"><ele>365.5</ele><time>2026-05-02T09:07:48.194Z</time></trkpt><trkpt lat="43.3719758" lon="12.4571581"><ele>366.0</ele><time>2026-05-02T09:07:49.207Z</time></trkpt><trkpt lat="43.3719757" lon="12.4573599"><ele>366.5</ele><time>2026-05-02T09:07:50.189Z</time></trkpt><trkpt lat="43.3719647" lon="12.4575649"><ele>367.0</ele><time>2026-05-02T09:07:51.197Z</time></trkpt><trkpt lat="43.3719492" lon="12.4577832"><ele>367.66666666666663</ele><time>2026-05-02T09:07:52.19Z</time></trkpt><trkpt lat="43.3719444" lon="12.4580247"><ele>368.3333333333333</ele><time>2026-05-02T09:07:53.199Z</time></trkpt><trkpt lat="43.3719722" lon="12.4582653"><ele>369.0</ele><time>2026-05-02T09:07:54.202Z</time></trkpt><trkpt lat="43.3720134" lon="12.4585088"><ele>369.0</ele><time>2026-05-02T09:07:55.199Z</time></trkpt><trkpt lat="43.3720592" lon="12.4587605"><ele>369.0</ele><time>2026-05-02T09:07:56.203Z</time></trkpt><trkpt lat="43.3721034" lon="12.4590145"><ele>369.0</ele><time>2026-05-02T09:07:57.184Z</time></trkpt><trkpt lat="43.372143" lon="12.4592723"><ele>369.0</ele><time>2026-05-02T09:07:58.204Z</time></trkpt><trkpt lat="43.3721811" lon="12.4595101"><ele>369.0</ele><time>2026-05-02T09:07:59.192Z</time></trkpt><trkpt lat="43.3722066" lon="12.4597364"><ele>369.0</ele><time>2026-05-02T09:08:00.207Z</time></trkpt><trkpt lat="43.3722301" lon="12.4599696"><ele>377.0</ele><time>2026-05-02T09:08:01.208Z</time></trkpt><trkpt lat="43.3722362" lon="12.460208"><ele>385.0</ele><time>2026-05-02T09:08:02.184Z</time></trkpt><trkpt lat="43.3722239" lon="12.4604458"><ele>393.0</ele><time>2026-05-02T09:08:03.189Z</time></trkpt><trkpt lat="43.3722098" lon="12.4606694"><ele>384.6666666666667</ele><time>2026-05-02T09:08:04.203Z</time></trkpt><trkpt lat="43.3721881" lon="12.4608863"><ele>376.33333333333337</ele><time>2026-05-02T09:08:05.193Z</time></trkpt><trkpt lat="43.372171" lon="12.4611061"><ele>368.0</ele><time>2026-05-02T09:08:06.19Z</time></trkpt><trkpt lat="43.3721581" lon="12.4613255"><ele>368.0</ele><time>2026-05-02T09:08:07.198Z</time></trkpt><trkpt lat="43.3721544" lon="12.4615472"><ele>368.0</ele><time>2026-05-02T09:08:08.194Z</time></trkpt><trkpt lat="43.3721654" lon="12.4617625"><ele>368.0</ele><time>2026-05-02T09:08:09.182Z</time></trkpt><trkpt lat="43.3721994" lon="12.4619803"><ele>372.6666666666667</ele><time>2026-05-02T09:08:10.192Z</time></trkpt><trkpt lat="43.3722439" lon="12.4621835"><ele>377.3333333333333</ele><time>2026-05-02T09:08:11.215Z</time></trkpt><trkpt lat="43.372302" lon="12.4623752"><ele>382.0</ele><time>2026-05-02T09:08:12.207Z</time></trkpt><trkpt lat="43.3723784" lon="12.4625451"><ele>382.0</ele><time>2026-05-02T09:08:13.189Z</time></trkpt><trkpt lat="43.3724459" lon="12.4627173"><ele>382.0</ele><time>2026-05-02T09:08:14.205Z</time></trkpt><trkpt lat="43.3725138" lon="12.4628662"><ele>382.0</ele><time>2026-05-02T09:08:15.203Z</time></trkpt><trkpt lat="43.372581" lon="12.4629934"><ele>382.0</ele><time>2026-05-02T09:08:16.188Z</time></trkpt><trkpt lat="43.3726596" lon="12.4631076"><ele>382.25</ele><time>2026-05-02T09:08:17.201Z</time></trkpt><trkpt lat="43.37275" lon="12.4632056"><ele>382.5</ele><time>2026-05-02T09:08:18.204Z</time></trkpt><trkpt lat="43.3728489" lon="12.4632868"><ele>382.75</ele><time>2026-05-02T09:08:19.2Z</time></trkpt><trkpt lat="43.3729562" lon="12.4633432"><ele>383.0</ele><time>2026-05-02T09:08:20.211Z</time></trkpt><trkpt lat="43.3730694" lon="12.4633838"><ele>383.0</ele><time>2026-05-02T09:08:21.195Z</time></trkpt><trkpt lat="43.3731733" lon="12.463405"><ele>383.0</ele><time>2026-05-02T09:08:22.204Z</time></trkpt><trkpt lat="43.373285" lon="12.4634337"><ele>383.0</ele><time>2026-05-02T09:08:23.201Z</time></trkpt><trkpt lat="43.3733949" lon="12.4634715"><ele>383.0</ele><time>2026-05-02T09:08:24.202Z</time></trkpt><trkpt lat="43.3735092" lon="12.4635361"><ele>383.0</ele><time>2026-05-02T09:08:25.203Z</time></trkpt><trkpt lat="43.3736201" lon="12.4635999"><ele>383.0</ele><time>2026-05-02T09:08:26.204Z</time></trkpt><trkpt lat="43.3737208" lon="12.4636651"><ele>383.0</ele><time>2026-05-02T09:08:27.21Z</time></trkpt><trkpt lat="43.3738237" lon="12.463723"><ele>383.0</ele><time>2026-05-02T09:08:28.202Z</time></trkpt><trkpt lat="43.3739156" lon="12.4637759"><ele>383.0</ele><time>2026-05-02T09:08:29.199Z</time></trkpt><trkpt lat="43.3740151" lon="12.463832"><ele>381.0</ele><time>2026-05-02T09:08:30.194Z</time></trkpt><trkpt lat="43.3741184" lon="12.4638958"><ele>379.0</ele><time>2026-05-02T09:08:31.175Z</time></trkpt><trkpt lat="43.3742168" lon="12.46398"><ele>377.0</ele><time>2026-05-02T09:08:32.2Z</time></trkpt><trkpt lat="43.374313" lon="12.464086"><ele>375.0</ele><time>2026-05-02T09:08:33.204Z</time></trkpt><trkpt lat="43.3743943" lon="12.4642085"><ele>375.0</ele><time>2026-05-02T09:08:34.176Z</time></trkpt><trkpt lat="43.3744424" lon="12.464336"><ele>375.0</ele><time>2026-05-02T09:08:35.199Z</time></trkpt><trkpt lat="43.3744774" lon="12.4644696"><ele>375.0</ele><time>2026-05-02T09:08:36.221Z</time></trkpt><trkpt lat="43.3745017" lon="12.4646175"><ele>375.0</ele><time>2026-05-02T09:08:37.203Z</time></trkpt><trkpt lat="43.3745239" lon="12.4647551"><ele>375.0</ele><time>2026-05-02T09:08:38.209Z</time></trkpt><trkpt lat="43.3745433" lon="12.4648808"><ele>374.5</ele><time>2026-05-02T09:08:39.212Z</time></trkpt><trkpt lat="43.3745609" lon="12.4649939"><ele>374.0</ele><time>2026-05-02T09:08:40.197Z</time></trkpt><trkpt lat="43.3745747" lon="12.4650802"><ele>373.5</ele><time>2026-05-02T09:08:41.196Z</time></trkpt><trkpt lat="43.3745795" lon="12.4652046"><ele>373.0</ele><time>2026-05-02T09:08:43.211Z</time></trkpt><trkpt lat="43.3745699" lon="12.4653313"><ele>372.5</ele><time>2026-05-02T09:08:45.215Z</time></trkpt><trkpt lat="43.3745855" lon="12.4654254"><ele>372.0</ele><time>2026-05-02T09:08:47.186Z</time></trkpt><trkpt lat="43.3746176" lon="12.4655136"><ele>372.0</ele><time>2026-05-02T09:08:50.19Z</time></trkpt><trkpt lat="43.3746503" lon="12.4656572"><ele>372.0</ele><time>2026-05-02T09:11:39.198Z</time></trkpt><trkpt lat="43.3746624" lon="12.465747"><ele>372.0</ele><time>2026-05-02T09:11:40.195Z</time></trkpt><trkpt lat="43.3746789" lon="12.4658623"><ele>372.0</ele><time>2026-05-02T09:11:41.201Z</time></trkpt><trkpt lat="43.3747025" lon="12.4659935"><ele>372.0</ele><time>2026-05-02T09:11:42.195Z</time></trkpt><trkpt lat="43.3747226" lon="12.4661354"><ele>376.5</ele><time>2026-05-02T09:11:43.197Z</time></trkpt><trkpt lat="43.3747427" lon="12.4663005"><ele>381.0</ele><time>2026-05-02T09:11:44.193Z</time></trkpt><trkpt lat="43.3747677" lon="12.466458"><ele>385.5</ele><time>2026-05-02T09:11:45.207Z</time></trkpt><trkpt lat="43.3747961" lon="12.4666332"><ele>390.0</ele><time>2026-05-02T09:11:46.196Z</time></trkpt><trkpt lat="43.3748315" lon="12.4668258"><ele>390.0</ele><time>2026-05-02T09:11:47.189Z</time></trkpt><trkpt lat="43.3748719" lon="12.4670376"><ele>390.0</ele><time>2026-05-02T09:11:48.214Z</time></trkpt><trkpt lat="43.3749097" lon="12.4672554"><ele>390.0</ele><time>2026-05-02T09:11:49.188Z</time></trkpt><trkpt lat="43.3749497" lon="12.4674706"><ele>390.0</ele><time>2026-05-02T09:11:50.192Z</time></trkpt><trkpt lat="43.374978" lon="12.4676867"><ele>390.0</ele><time>2026-05-02T09:11:51.191Z</time></trkpt><trkpt lat="43.3749932" lon="12.4679073"><ele>390.0</ele><time>2026-05-02T09:11:52.195Z</time></trkpt><trkpt lat="43.3749872" lon="12.4681328"><ele>391.0</ele><time>2026-05-02T09:11:53.211Z</time></trkpt><trkpt lat="43.3749571" lon="12.4683597"><ele>392.0</ele><time>2026-05-02T09:11:54.192Z</time></trkpt><trkpt lat="43.3749183" lon="12.4685719"><ele>393.0</ele><time>2026-05-02T09:11:55.195Z</time></trkpt><trkpt lat="43.3748792" lon="12.4687574"><ele>393.0</ele><time>2026-05-02T09:11:56.207Z</time></trkpt><trkpt lat="43.3748452" lon="12.4689481"><ele>393.0</ele><time>2026-05-02T09:11:57.205Z</time></trkpt><trkpt lat="43.3748308" lon="12.469148"><ele>393.0</ele><time>2026-05-02T09:11:58.192Z</time></trkpt><trkpt lat="43.3748609" lon="12.4693574"><ele>393.0</ele><time>2026-05-02T09:11:59.211Z</time></trkpt><trkpt lat="43.3749049" lon="12.4695595"><ele>390.33333333333337</ele><time>2026-05-02T09:12:00.204Z</time></trkpt><trkpt lat="43.3749883" lon="12.4697552"><ele>387.6666666666667</ele><time>2026-05-02T09:12:01.181Z</time></trkpt><trkpt lat="43.3750795" lon="12.4699371"><ele>385.0</ele><time>2026-05-02T09:12:02.183Z</time></trkpt><trkpt lat="43.3751829" lon="12.4700944"><ele>385.0</ele><time>2026-05-02T09:12:03.197Z</time></trkpt><trkpt lat="43.3752932" lon="12.4702365"><ele>385.0</ele><time>2026-05-02T09:12:04.198Z</time></trkpt><trkpt lat="43.3754067" lon="12.4703644"><ele>385.0</ele><time>2026-05-02T09:12:05.196Z</time></trkpt><trkpt lat="43.3755139" lon="12.4704943"><ele>385.0</ele><time>2026-05-02T09:12:06.196Z</time></trkpt><trkpt lat="43.3756157" lon="12.470639"><ele>386.5</ele><time>2026-05-02T09:12:07.198Z</time></trkpt><trkpt lat="43.3757013" lon="12.4708058"><ele>388.0</ele><time>2026-05-02T09:12:08.201Z</time></trkpt><trkpt lat="43.375743" lon="12.4709938"><ele>389.5</ele><time>2026-05-02T09:12:09.201Z</time></trkpt><trkpt lat="43.3757605" lon="12.4712079"><ele>391.0</ele><time>2026-05-02T09:12:10.201Z</time></trkpt><trkpt lat="43.3757561" lon="12.4714258"><ele>391.0</ele><time>2026-05-02T09:12:11.183Z</time></trkpt><trkpt lat="43.375738" lon="12.4716638"><ele>391.0</ele><time>2026-05-02T09:12:12.215Z</time></trkpt><trkpt lat="43.3757188" lon="12.4719304"><ele>391.0</ele><time>2026-05-02T09:12:13.202Z</time></trkpt><trkpt lat="43.3756999" lon="12.4722157"><ele>393.33333333333337</ele><time>2026-05-02T09:12:14.205Z</time></trkpt><trkpt lat="43.3756797" lon="12.4724883"><ele>395.66666666666663</ele><time>2026-05-02T09:12:15.177Z</time></trkpt><trkpt lat="43.3756637" lon="12.4727675"><ele>398.0</ele><time>2026-05-02T09:12:16.185Z</time></trkpt><trkpt lat="43.3756432" lon="12.4730523"><ele>399.3333333333333</ele><time>2026-05-02T09:12:17.208Z</time></trkpt><trkpt lat="43.3756214" lon="12.4733401"><ele>400.66666666666663</ele><time>2026-05-02T09:12:18.202Z</time></trkpt><trkpt lat="43.3756026" lon="12.4736257"><ele>402.0</ele><time>2026-05-02T09:12:19.199Z</time></trkpt><trkpt lat="43.3755841" lon="12.4739146"><ele>403.66666666666663</ele><time>2026-05-02T09:12:20.198Z</time></trkpt><trkpt lat="43.3755661" lon="12.4742049"><ele>405.3333333333333</ele><time>2026-05-02T09:12:21.19Z</time></trkpt><trkpt lat="43.375547" lon="12.4744956"><ele>407.0</ele><time>2026-05-02T09:12:22.204Z</time></trkpt><trkpt lat="43.3755274" lon="12.47479"><ele>399.3333333333333</ele><time>2026-05-02T09:12:23.207Z</time></trkpt><trkpt lat="43.37551" lon="12.4750762"><ele>391.66666666666663</ele><time>2026-05-02T09:12:24.204Z</time></trkpt><trkpt lat="43.3754892" lon="12.4753696"><ele>384.0</ele><time>2026-05-02T09:12:25.205Z</time></trkpt><trkpt lat="43.3754652" lon="12.4756594"><ele>384.0</ele><time>2026-05-02T09:12:26.172Z</time></trkpt><trkpt lat="43.3754446" lon="12.4759385"><ele>384.0</ele><time>2026-05-02T09:12:27.201Z</time></trkpt><trkpt lat="43.3754221" lon="12.476202"><ele>384.0</ele><time>2026-05-02T09:12:28.183Z</time></trkpt><trkpt lat="43.3753896" lon="12.4764557"><ele>384.0</ele><time>2026-05-02T09:12:29.189Z</time></trkpt><trkpt lat="43.375339" lon="12.4767061"><ele>384.0</ele><time>2026-05-02T09:12:30.18Z</time></trkpt><trkpt lat="43.375269" lon="12.4769517"><ele>384.0</ele><time>2026-05-02T09:12:31.188Z</time></trkpt><trkpt lat="43.3751737" lon="12.4771897"><ele>388.66666666666663</ele><time>2026-05-02T09:12:32.181Z</time></trkpt><trkpt lat="43.3750539" lon="12.4774189"><ele>393.3333333333333</ele><time>2026-05-02T09:12:33.198Z</time></trkpt><trkpt lat="43.3749278" lon="12.4776291"><ele>398.0</ele><time>2026-05-02T09:12:34.201Z</time></trkpt><trkpt lat="43.3747887" lon="12.4778357"><ele>396.66666666666663</ele><time>2026-05-02T09:12:35.202Z</time></trkpt><trkpt lat="43.3746542" lon="12.4780088"><ele>395.33333333333337</ele><time>2026-05-02T09:12:36.187Z</time></trkpt><trkpt lat="43.3745147" lon="12.4781698"><ele>394.0</ele><time>2026-05-02T09:12:37.188Z</time></trkpt><trkpt lat="43.374388" lon="12.4783301"><ele>394.0</ele><time>2026-05-02T09:12:38.179Z</time></trkpt><trkpt lat="43.3742567" lon="12.4784832"><ele>394.0</ele><time>2026-05-02T09:12:39.169Z</time></trkpt><trkpt lat="43.3741228" lon="12.4786306"><ele>394.0</ele><time>2026-05-02T09:12:40.202Z</time></trkpt><trkpt lat="43.373987" lon="12.4787785"><ele>393.0</ele><time>2026-05-02T09:12:41.193Z</time></trkpt><trkpt lat="43.3738479" lon="12.4789325"><ele>392.0</ele><time>2026-05-02T09:12:42.204Z</time></trkpt><trkpt lat="43.373715" lon="12.4790961"><ele>391.0</ele><time>2026-05-02T09:12:43.197Z</time></trkpt><trkpt lat="43.3735875" lon="12.4792776"><ele>391.0</ele><time>2026-05-02T09:12:44.201Z</time></trkpt><trkpt lat="43.3734619" lon="12.4794679"><ele>391.0</ele><time>2026-05-02T09:12:45.187Z</time></trkpt><trkpt lat="43.3733471" lon="12.4796655"><ele>391.0</ele><time>2026-05-02T09:12:46.177Z</time></trkpt><trkpt lat="43.3732471" lon="12.4798693"><ele>394.6666666666667</ele><time>2026-05-02T09:12:47.19Z</time></trkpt><trkpt lat="43.3731541" lon="12.4800756"><ele>398.33333333333337</ele><time>2026-05-02T09:12:48.178Z</time></trkpt><trkpt lat="43.3731135" lon="12.4802885"><ele>402.0</ele><time>2026-05-02T09:12:49.176Z</time></trkpt><trkpt lat="43.3731223" lon="12.480493"><ele>402.0</ele><time>2026-05-02T09:12:50.199Z</time></trkpt><trkpt lat="43.3731409" lon="12.4806952"><ele>402.0</ele><time>2026-05-02T09:12:51.188Z</time></trkpt><trkpt lat="43.3731899" lon="12.4808953"><ele>402.0</ele><time>2026-05-02T09:12:52.197Z</time></trkpt><trkpt lat="43.3732524" lon="12.4810921"><ele>400.0</ele><time>2026-05-02T09:12:53.203Z</time></trkpt><trkpt lat="43.3733524" lon="12.4812907"><ele>398.0</ele><time>2026-05-02T09:12:54.208Z</time></trkpt><trkpt lat="43.3734854" lon="12.4814676"><ele>396.0</ele><time>2026-05-02T09:12:55.187Z</time></trkpt><trkpt lat="43.3736423" lon="12.4816141"><ele>396.0</ele><time>2026-05-02T09:12:56.196Z</time></trkpt><trkpt lat="43.3738078" lon="12.4817729"><ele>396.0</ele><time>2026-05-02T09:12:57.198Z</time></trkpt><trkpt lat="43.3739856" lon="12.4819327"><ele>396.0</ele><time>2026-05-02T09:12:58.201Z</time></trkpt><trkpt lat="43.3741741" lon="12.4821228"><ele>397.0</ele><time>2026-05-02T09:12:59.199Z</time></trkpt><trkpt lat="43.3743603" lon="12.4823269"><ele>398.0</ele><time>2026-05-02T09:13:00.213Z</time></trkpt><trkpt lat="43.3745313" lon="12.4825371"><ele>400.0</ele><time>2026-05-02T09:13:01.205Z</time></trkpt><trkpt lat="43.374694" lon="12.4827704"><ele>402.0</ele><time>2026-05-02T09:13:02.205Z</time></trkpt><trkpt lat="43.3748504" lon="12.483021"><ele>402.0</ele><time>2026-05-02T09:13:03.203Z</time></trkpt><trkpt lat="43.3749948" lon="12.4832798"><ele>402.0</ele><time>2026-05-02T09:13:04.22Z</time></trkpt><trkpt lat="43.3751363" lon="12.4835329"><ele>399.5</ele><time>2026-05-02T09:13:05.2Z</time></trkpt><trkpt lat="43.3752789" lon="12.4837864"><ele>397.0</ele><time>2026-05-02T09:13:06.185Z</time></trkpt><trkpt lat="43.375422" lon="12.4840316"><ele>401.0</ele><time>2026-05-02T09:13:07.195Z</time></trkpt><trkpt lat="43.3755668" lon="12.4842752"><ele>405.0</ele><time>2026-05-02T09:13:08.197Z</time></trkpt><trkpt lat="43.3757092" lon="12.4845136"><ele>402.66666666666663</ele><time>2026-05-02T09:13:09.209Z</time></trkpt><trkpt lat="43.3758473" lon="12.4847537"><ele>400.3333333333333</ele><time>2026-05-02T09:13:10.21Z</time></trkpt><trkpt lat="43.3759835" lon="12.484991"><ele>398.0</ele><time>2026-05-02T09:13:11.174Z</time></trkpt><trkpt lat="43.3761208" lon="12.4852222"><ele>398.66666666666663</ele><time>2026-05-02T09:13:12.183Z</time></trkpt><trkpt lat="43.3762577" lon="12.4854539"><ele>399.33333333333337</ele><time>2026-05-02T09:13:13.192Z</time></trkpt><trkpt lat="43.3763923" lon="12.4856853"><ele>400.0</ele><time>2026-05-02T09:13:14.186Z</time></trkpt><trkpt lat="43.3765297" lon="12.4859109"><ele>400.0</ele><time>2026-05-02T09:13:15.187Z</time></trkpt><trkpt lat="43.3766631" lon="12.4861342"><ele>400.0</ele><time>2026-05-02T09:13:16.182Z</time></trkpt><trkpt lat="43.3767958" lon="12.4863548"><ele>400.0</ele><time>2026-05-02T09:13:17.187Z</time></trkpt><trkpt lat="43.3769235" lon="12.4865648"><ele>400.0</ele><time>2026-05-02T09:13:18.192Z</time></trkpt><trkpt lat="43.3770531" lon="12.4867735"><ele>400.0</ele><time>2026-05-02T09:13:19.202Z</time></trkpt><trkpt lat="43.3771766" lon="12.4869818"><ele>400.0</ele><time>2026-05-02T09:13:20.208Z</time></trkpt><trkpt lat="43.3772984" lon="12.4871863"><ele>400.6666666666667</ele><time>2026-05-02T09:13:21.202Z</time></trkpt><trkpt lat="43.3774039" lon="12.4873795"><ele>401.33333333333337</ele><time>2026-05-02T09:13:22.203Z</time></trkpt><trkpt lat="43.377496" lon="12.4875722"><ele>402.0</ele><time>2026-05-02T09:13:23.193Z</time></trkpt><trkpt lat="43.3775609" lon="12.4877727"><ele>402.0</ele><time>2026-05-02T09:13:24.213Z</time></trkpt><trkpt lat="43.3776017" lon="12.4879827"><ele>402.0</ele><time>2026-05-02T09:13:25.196Z</time></trkpt><trkpt lat="43.3776108" lon="12.4882025"><ele>402.0</ele><time>2026-05-02T09:13:26.195Z</time></trkpt><trkpt lat="43.3775916" lon="12.4884286"><ele>402.0</ele><time>2026-05-02T09:13:27.186Z</time></trkpt><trkpt lat="43.3775549" lon="12.4886807"><ele>402.0</ele><time>2026-05-02T09:13:28.204Z</time></trkpt><trkpt lat="43.3774984" lon="12.488946"><ele>402.0</ele><time>2026-05-02T09:13:29.189Z</time></trkpt><trkpt lat="43.3774426" lon="12.4892129"><ele>402.66666666666663</ele><time>2026-05-02T09:13:30.202Z</time></trkpt><trkpt lat="43.3773868" lon="12.4894837"><ele>403.3333333333333</ele><time>2026-05-02T09:13:31.215Z</time></trkpt><trkpt lat="43.3773355" lon="12.4897415"><ele>404.0</ele><time>2026-05-02T09:13:32.206Z</time></trkpt><trkpt lat="43.3772942" lon="12.4899812"><ele>405.3333333333333</ele><time>2026-05-02T09:13:33.188Z</time></trkpt><trkpt lat="43.3772487" lon="12.4902167"><ele>406.66666666666663</ele><time>2026-05-02T09:13:34.194Z</time></trkpt><trkpt lat="43.3772038" lon="12.490453"><ele>408.0</ele><time>2026-05-02T09:13:35.204Z</time></trkpt><trkpt lat="43.3771745" lon="12.4906896"><ele>408.66666666666663</ele><time>2026-05-02T09:13:36.206Z</time></trkpt><trkpt lat="43.377164" lon="12.4909242"><ele>409.3333333333333</ele><time>2026-05-02T09:13:37.214Z</time></trkpt><trkpt lat="43.3771824" lon="12.4911488"><ele>410.0</ele><time>2026-05-02T09:13:38.199Z</time></trkpt><trkpt lat="43.3772287" lon="12.491377"><ele>410.0</ele><time>2026-05-02T09:13:39.195Z</time></trkpt><trkpt lat="43.377297" lon="12.4915979"><ele>410.0</ele><time>2026-05-02T09:13:40.189Z</time></trkpt><trkpt lat="43.3773758" lon="12.4918023"><ele>410.0</ele><time>2026-05-02T09:13:41.199Z</time></trkpt><trkpt lat="43.3774494" lon="12.4919929"><ele>410.0</ele><time>2026-05-02T09:13:42.191Z</time></trkpt><trkpt lat="43.3775168" lon="12.4921751"><ele>410.0</ele><time>2026-05-02T09:13:43.209Z</time></trkpt><trkpt lat="43.3775813" lon="12.4923579"><ele>410.0</ele><time>2026-05-02T09:13:44.213Z</time></trkpt><trkpt lat="43.3776442" lon="12.4925259"><ele>410.0</ele><time>2026-05-02T09:13:45.201Z</time></trkpt><trkpt lat="43.3776963" lon="12.4926732"><ele>409.99999999999994</ele><time>2026-05-02T09:13:46.211Z</time></trkpt><trkpt lat="43.3777399" lon="12.4928051"><ele>410.0</ele><time>2026-05-02T09:13:47.176Z</time></trkpt><trkpt lat="43.3777574" lon="12.4929226"><ele>410.0</ele><time>2026-05-02T09:13:48.201Z</time></trkpt><trkpt lat="43.3777451" lon="12.4930365"><ele>410.0</ele><time>2026-05-02T09:13:49.214Z</time></trkpt><trkpt lat="43.377696" lon="12.4931336"><ele>409.99999999999994</ele><time>2026-05-02T09:13:50.191Z</time></trkpt><trkpt lat="43.377623" lon="12.4931899"><ele>410.0</ele><time>2026-05-02T09:13:51.199Z</time></trkpt><trkpt lat="43.377536" lon="12.4932097"><ele>410.25</ele><time>2026-05-02T09:13:52.178Z</time></trkpt><trkpt lat="43.3774334" lon="12.4932078"><ele>410.5</ele><time>2026-05-02T09:13:53.21Z</time></trkpt><trkpt lat="43.3773172" lon="12.4931773"><ele>410.75</ele><time>2026-05-02T09:13:54.192Z</time></trkpt><trkpt lat="43.37719" lon="12.4931593"><ele>411.0</ele><time>2026-05-02T09:13:55.197Z</time></trkpt><trkpt lat="43.3770556" lon="12.4931286"><ele>411.0</ele><time>2026-05-02T09:13:56.193Z</time></trkpt><trkpt lat="43.3769158" lon="12.4930947"><ele>411.0</ele><time>2026-05-02T09:13:57.199Z</time></trkpt><trkpt lat="43.3767741" lon="12.4930646"><ele>411.0</ele><time>2026-05-02T09:13:58.202Z</time></trkpt><trkpt lat="43.3766337" lon="12.4930403"><ele>411.0</ele><time>2026-05-02T09:13:59.201Z</time></trkpt><trkpt lat="43.376493" lon="12.4930313"><ele>411.0</ele><time>2026-05-02T09:14:00.201Z</time></trkpt><trkpt lat="43.3763633" lon="12.4930523"><ele>411.0</ele><time>2026-05-02T09:14:01.202Z</time></trkpt><trkpt lat="43.3762651" lon="12.4931362"><ele>411.0</ele><time>2026-05-02T09:14:02.205Z</time></trkpt><trkpt lat="43.3761787" lon="12.4932586"><ele>411.0</ele><time>2026-05-02T09:14:03.204Z</time></trkpt><trkpt lat="43.376118" lon="12.493412"><ele>411.5</ele><time>2026-05-02T09:14:04.168Z</time></trkpt><trkpt lat="43.3760925" lon="12.4935819"><ele>412.0</ele><time>2026-05-02T09:14:05.21Z</time></trkpt><trkpt lat="43.3761151" lon="12.4937443"><ele>412.5</ele><time>2026-05-02T09:14:06.207Z</time></trkpt><trkpt lat="43.3761736" lon="12.4938857"><ele>413.0</ele><time>2026-05-02T09:14:07.2Z</time></trkpt><trkpt lat="43.3762592" lon="12.4940178"><ele>413.0</ele><time>2026-05-02T09:14:08.198Z</time></trkpt><trkpt lat="43.3763527" lon="12.4941358"><ele>413.0</ele><time>2026-05-02T09:14:09.2Z</time></trkpt><trkpt lat="43.376457" lon="12.4942532"><ele>413.0</ele><time>2026-05-02T09:14:10.2Z</time></trkpt><trkpt lat="43.3765596" lon="12.4943817"><ele>413.0</ele><time>2026-05-02T09:14:11.189Z</time></trkpt><trkpt lat="43.3766496" lon="12.494543"><ele>412.66666666666663</ele><time>2026-05-02T09:14:12.2Z</time></trkpt><trkpt lat="43.3767079" lon="12.4947322"><ele>412.33333333333337</ele><time>2026-05-02T09:14:13.233Z</time></trkpt><trkpt lat="43.3767339" lon="12.4949575"><ele>412.0</ele><time>2026-05-02T09:14:14.19Z</time></trkpt><trkpt lat="43.3767245" lon="12.4951953"><ele>412.0</ele><time>2026-05-02T09:14:15.195Z</time></trkpt><trkpt lat="43.3766982" lon="12.495446"><ele>412.0</ele><time>2026-05-02T09:14:16.208Z</time></trkpt><trkpt lat="43.3766694" lon="12.4957065"><ele>412.0</ele><time>2026-05-02T09:14:17.21Z</time></trkpt><trkpt lat="43.3766453" lon="12.4959617"><ele>412.0</ele><time>2026-05-02T09:14:18.205Z</time></trkpt><trkpt lat="43.3766185" lon="12.4962187"><ele>412.0</ele><time>2026-05-02T09:14:19.217Z</time></trkpt><trkpt lat="43.376592" lon="12.4964812"><ele>412.0</ele><time>2026-05-02T09:14:20.192Z</time></trkpt><trkpt lat="43.3765652" lon="12.496736"><ele>411.6666666666667</ele><time>2026-05-02T09:14:21.199Z</time></trkpt><trkpt lat="43.3765381" lon="12.4969958"><ele>411.33333333333337</ele><time>2026-05-02T09:14:22.208Z</time></trkpt><trkpt lat="43.3765087" lon="12.4972613"><ele>411.0</ele><time>2026-05-02T09:14:23.185Z</time></trkpt><trkpt lat="43.3764754" lon="12.4975258"><ele>410.66666666666663</ele><time>2026-05-02T09:14:24.196Z</time></trkpt><trkpt lat="43.3764371" lon="12.4977992"><ele>410.3333333333333</ele><time>2026-05-02T09:14:25.184Z</time></trkpt><trkpt lat="43.3763915" lon="12.4980774"><ele>410.0</ele><time>2026-05-02T09:14:26.207Z</time></trkpt><trkpt lat="43.3763418" lon="12.498352"><ele>410.66666666666663</ele><time>2026-05-02T09:14:27.19Z</time></trkpt><trkpt lat="43.3762771" lon="12.4986314"><ele>411.33333333333337</ele><time>2026-05-02T09:14:28.205Z</time></trkpt><trkpt lat="43.3762025" lon="12.4989063"><ele>412.0</ele><time>2026-05-02T09:14:29.198Z</time></trkpt><trkpt lat="43.3761129" lon="12.499181"><ele>412.0</ele><time>2026-05-02T09:14:30.197Z</time></trkpt><trkpt lat="43.3760152" lon="12.4994483"><ele>412.0</ele><time>2026-05-02T09:14:31.195Z</time></trkpt><trkpt lat="43.3759063" lon="12.4997099"><ele>412.0</ele><time>2026-05-02T09:14:32.211Z</time></trkpt><trkpt lat="43.3757858" lon="12.4999657"><ele>411.5</ele><time>2026-05-02T09:14:33.225Z</time></trkpt><trkpt lat="43.3756619" lon="12.5002262"><ele>411.0</ele><time>2026-05-02T09:14:34.213Z</time></trkpt><trkpt lat="43.3755325" lon="12.5004977"><ele>411.0</ele><time>2026-05-02T09:14:35.196Z</time></trkpt><trkpt lat="43.3753929" lon="12.5007706"><ele>411.0</ele><time>2026-05-02T09:14:36.202Z</time></trkpt><trkpt lat="43.3752536" lon="12.5010441"><ele>411.0</ele><time>2026-05-02T09:14:37.204Z</time></trkpt><trkpt lat="43.3751097" lon="12.5013273"><ele>411.0</ele><time>2026-05-02T09:14:38.189Z</time></trkpt><trkpt lat="43.374958" lon="12.5016137"><ele>411.0</ele><time>2026-05-02T09:14:39.205Z</time></trkpt><trkpt lat="43.3748122" lon="12.5019044"><ele>411.0</ele><time>2026-05-02T09:14:40.195Z</time></trkpt><trkpt lat="43.3746629" lon="12.5021955"><ele>408.5</ele><time>2026-05-02T09:14:41.198Z</time></trkpt><trkpt lat="43.374509" lon="12.5024962"><ele>406.0</ele><time>2026-05-02T09:14:42.19Z</time></trkpt><trkpt lat="43.3743513" lon="12.502799"><ele>405.5</ele><time>2026-05-02T09:14:43.202Z</time></trkpt><trkpt lat="43.3741946" lon="12.5030996"><ele>405.0</ele><time>2026-05-02T09:14:44.198Z</time></trkpt><trkpt lat="43.3740358" lon="12.5034002"><ele>405.0</ele><time>2026-05-02T09:14:45.193Z</time></trkpt><trkpt lat="43.3738726" lon="12.503703"><ele>405.0</ele><time>2026-05-02T09:14:46.199Z</time></trkpt><trkpt lat="43.373706" lon="12.5040113"><ele>404.5</ele><time>2026-05-02T09:14:47.211Z</time></trkpt><trkpt lat="43.3735457" lon="12.5043189"><ele>404.0</ele><time>2026-05-02T09:14:48.204Z</time></trkpt><trkpt lat="43.3733816" lon="12.5046245"><ele>404.0</ele><time>2026-05-02T09:14:49.199Z</time></trkpt><trkpt lat="43.3732176" lon="12.504932"><ele>404.0</ele><time>2026-05-02T09:14:50.19Z</time></trkpt><trkpt lat="43.3730555" lon="12.5052425"><ele>402.0</ele><time>2026-05-02T09:14:51.211Z</time></trkpt><trkpt lat="43.3728896" lon="12.505554"><ele>400.0</ele><time>2026-05-02T09:14:52.199Z</time></trkpt><trkpt lat="43.3727277" lon="12.5058623"><ele>400.0</ele><time>2026-05-02T09:14:53.199Z</time></trkpt><trkpt lat="43.3725643" lon="12.5061753"><ele>400.0</ele><time>2026-05-02T09:14:54.196Z</time></trkpt><trkpt lat="43.372407" lon="12.5064881"><ele>399.5</ele><time>2026-05-02T09:14:55.195Z</time></trkpt><trkpt lat="43.3722427" lon="12.5067976"><ele>399.0</ele><time>2026-05-02T09:14:56.196Z</time></trkpt><trkpt lat="43.3720742" lon="12.5071033"><ele>398.5</ele><time>2026-05-02T09:14:57.2Z</time></trkpt><trkpt lat="43.3719054" lon="12.5074073"><ele>398.0</ele><time>2026-05-02T09:14:58.187Z</time></trkpt><trkpt lat="43.3717376" lon="12.5077108"><ele>398.5</ele><time>2026-05-02T09:14:59.2Z</time></trkpt><trkpt lat="43.3715688" lon="12.5080082"><ele>399.0</ele><time>2026-05-02T09:15:00.199Z</time></trkpt><trkpt lat="43.3713996" lon="12.5083028"><ele>399.0</ele><time>2026-05-02T09:15:01.206Z</time></trkpt><trkpt lat="43.3712246" lon="12.5085946"><ele>399.0</ele><time>2026-05-02T09:15:02.193Z</time></trkpt><trkpt lat="43.371053" lon="12.5088811"><ele>400.0</ele><time>2026-05-02T09:15:03.199Z</time></trkpt><trkpt lat="43.370881" lon="12.5091762"><ele>401.0</ele><time>2026-05-02T09:15:04.203Z</time></trkpt><trkpt lat="43.3707049" lon="12.5094652"><ele>400.0</ele><time>2026-05-02T09:15:05.205Z</time></trkpt><trkpt lat="43.3705301" lon="12.5097586"><ele>399.0</ele><time>2026-05-02T09:15:06.194Z</time></trkpt><trkpt lat="43.3703565" lon="12.5100461"><ele>398.5</ele><time>2026-05-02T09:15:07.2Z</time></trkpt><trkpt lat="43.3701758" lon="12.5103414"><ele>398.0</ele><time>2026-05-02T09:15:08.212Z</time></trkpt><trkpt lat="43.3699984" lon="12.5106267"><ele>399.5</ele><time>2026-05-02T09:15:09.2Z</time></trkpt><trkpt lat="43.3698197" lon="12.5109157"><ele>401.0</ele><time>2026-05-02T09:15:10.2Z</time></trkpt><trkpt lat="43.3696416" lon="12.5112127"><ele>401.0</ele><time>2026-05-02T09:15:11.191Z</time></trkpt><trkpt lat="43.3694674" lon="12.5115089"><ele>401.0</ele><time>2026-05-02T09:15:12.201Z</time></trkpt><trkpt lat="43.3692906" lon="12.5118093"><ele>401.0</ele><time>2026-05-02T09:15:13.201Z</time></trkpt><trkpt lat="43.3691188" lon="12.5120995"><ele>401.0</ele><time>2026-05-02T09:15:14.177Z</time></trkpt><trkpt lat="43.3689478" lon="12.5124003"><ele>401.5</ele><time>2026-05-02T09:15:15.207Z</time></trkpt><trkpt lat="43.3687789" lon="12.5126995"><ele>402.0</ele><time>2026-05-02T09:15:16.199Z</time></trkpt><trkpt lat="43.3686115" lon="12.5130003"><ele>402.5</ele><time>2026-05-02T09:15:17.201Z</time></trkpt><trkpt lat="43.3684353" lon="12.5133025"><ele>403.0</ele><time>2026-05-02T09:15:18.203Z</time></trkpt><trkpt lat="43.368271" lon="12.5136017"><ele>403.5</ele><time>2026-05-02T09:15:19.191Z</time></trkpt><trkpt lat="43.3681081" lon="12.513905"><ele>404.0</ele><time>2026-05-02T09:15:20.2Z</time></trkpt><trkpt lat="43.3679453" lon="12.5142156"><ele>404.0</ele><time>2026-05-02T09:15:21.208Z</time></trkpt><trkpt lat="43.3677845" lon="12.5145244"><ele>404.0</ele><time>2026-05-02T09:15:22.195Z</time></trkpt><trkpt lat="43.3676263" lon="12.5148321"><ele>404.0</ele><time>2026-05-02T09:15:23.2Z</time></trkpt><trkpt lat="43.3674741" lon="12.5151406"><ele>404.0</ele><time>2026-05-02T09:15:24.201Z</time></trkpt><trkpt lat="43.3673208" lon="12.5154492"><ele>404.5</ele><time>2026-05-02T09:15:25.208Z</time></trkpt><trkpt lat="43.3671698" lon="12.515758"><ele>405.0</ele><time>2026-05-02T09:15:26.197Z</time></trkpt><trkpt lat="43.3670121" lon="12.51606"><ele>406.5</ele><time>2026-05-02T09:15:27.2Z</time></trkpt><trkpt lat="43.3668645" lon="12.5163637"><ele>408.0</ele><time>2026-05-02T09:15:28.209Z</time></trkpt><trkpt lat="43.3667176" lon="12.516669"><ele>408.0</ele><time>2026-05-02T09:15:29.19Z</time></trkpt><trkpt lat="43.3665627" lon="12.5169758"><ele>408.0</ele><time>2026-05-02T09:15:30.193Z</time></trkpt><trkpt lat="43.3664147" lon="12.5172832"><ele>409.0</ele><time>2026-05-02T09:15:31.199Z</time></trkpt><trkpt lat="43.3662636" lon="12.5175887"><ele>410.0</ele><time>2026-05-02T09:15:32.197Z</time></trkpt><trkpt lat="43.3661125" lon="12.5178973"><ele>410.0</ele><time>2026-05-02T09:15:33.197Z</time></trkpt><trkpt lat="43.3659642" lon="12.5182039"><ele>410.0</ele><time>2026-05-02T09:15:34.189Z</time></trkpt><trkpt lat="43.36581" lon="12.5185052"><ele>410.5</ele><time>2026-05-02T09:15:35.194Z</time></trkpt><trkpt lat="43.3656557" lon="12.5188008"><ele>411.0</ele><time>2026-05-02T09:15:36.206Z</time></trkpt><trkpt lat="43.3654985" lon="12.5191054"><ele>411.0</ele><time>2026-05-02T09:15:37.187Z</time></trkpt><trkpt lat="43.3653396" lon="12.5194055"><ele>411.0</ele><time>2026-05-02T09:15:38.201Z</time></trkpt><trkpt lat="43.3651794" lon="12.5197098"><ele>412.5</ele><time>2026-05-02T09:15:39.206Z</time></trkpt><trkpt lat="43.3650192" lon="12.5200208"><ele>414.0</ele><time>2026-05-02T09:15:40.215Z</time></trkpt><trkpt lat="43.3648596" lon="12.520326"><ele>414.0</ele><time>2026-05-02T09:15:41.197Z</time></trkpt><trkpt lat="43.364692" lon="12.5206365"><ele>414.0</ele><time>2026-05-02T09:15:42.187Z</time></trkpt><trkpt lat="43.3645218" lon="12.5209439"><ele>414.5</ele><time>2026-05-02T09:15:43.193Z</time></trkpt><trkpt lat="43.3643483" lon="12.5212577"><ele>415.0</ele><time>2026-05-02T09:15:44.202Z</time></trkpt><trkpt lat="43.364178" lon="12.5215609"><ele>415.0</ele><time>2026-05-02T09:15:45.189Z</time></trkpt><trkpt lat="43.3640039" lon="12.5218666"><ele>415.0</ele><time>2026-05-02T09:15:46.19Z</time></trkpt><trkpt lat="43.3638333" lon="12.5221738"><ele>415.0</ele><time>2026-05-02T09:15:47.203Z</time></trkpt><trkpt lat="43.3636598" lon="12.5224814"><ele>415.0</ele><time>2026-05-02T09:15:48.205Z</time></trkpt><trkpt lat="43.3634865" lon="12.5227831"><ele>416.5</ele><time>2026-05-02T09:15:49.201Z</time></trkpt><trkpt lat="43.363313" lon="12.5230926"><ele>418.0</ele><time>2026-05-02T09:15:50.209Z</time></trkpt><trkpt lat="43.3631384" lon="12.523396"><ele>418.0</ele><time>2026-05-02T09:15:51.201Z</time></trkpt><trkpt lat="43.3629613" lon="12.5237008"><ele>418.0</ele><time>2026-05-02T09:15:52.194Z</time></trkpt><trkpt lat="43.3627849" lon="12.5240023"><ele>419.5</ele><time>2026-05-02T09:15:53.203Z</time></trkpt><trkpt lat="43.3626102" lon="12.5243053"><ele>421.0</ele><time>2026-05-02T09:15:54.196Z</time></trkpt><trkpt lat="43.3624363" lon="12.5246122"><ele>421.0</ele><time>2026-05-02T09:15:55.19Z</time></trkpt><trkpt lat="43.3622612" lon="12.5249156"><ele>421.0</ele><time>2026-05-02T09:15:56.208Z</time></trkpt><trkpt lat="43.3620875" lon="12.5252195"><ele>421.5</ele><time>2026-05-02T09:15:57.196Z</time></trkpt><trkpt lat="43.3619132" lon="12.5255194"><ele>422.0</ele><time>2026-05-02T09:15:58.193Z</time></trkpt><trkpt lat="43.3617413" lon="12.5258228"><ele>422.0</ele><time>2026-05-02T09:15:59.189Z</time></trkpt><trkpt lat="43.3615762" lon="12.5261302"><ele>422.0</ele><time>2026-05-02T09:16:00.188Z</time></trkpt><trkpt lat="43.3614039" lon="12.5264232"><ele>423.5</ele><time>2026-05-02T09:16:01.202Z</time></trkpt><trkpt lat="43.3612287" lon="12.5267294"><ele>425.0</ele><time>2026-05-02T09:16:02.212Z</time></trkpt><trkpt lat="43.3610583" lon="12.5270398"><ele>425.5</ele><time>2026-05-02T09:16:03.204Z</time></trkpt><trkpt lat="43.3608816" lon="12.5273529"><ele>426.0</ele><time>2026-05-02T09:16:04.205Z</time></trkpt><trkpt lat="43.3606978" lon="12.527672"><ele>426.5</ele><time>2026-05-02T09:16:05.198Z</time></trkpt><trkpt lat="43.3605145" lon="12.5279931"><ele>427.0</ele><time>2026-05-02T09:16:06.182Z</time></trkpt><trkpt lat="43.3603247" lon="12.5283097"><ele>427.0</ele><time>2026-05-02T09:16:07.216Z</time></trkpt><trkpt lat="43.3601395" lon="12.5286375"><ele>427.0</ele><time>2026-05-02T09:16:08.195Z</time></trkpt><trkpt lat="43.3599561" lon="12.5289659"><ele>428.5</ele><time>2026-05-02T09:16:09.176Z</time></trkpt><trkpt lat="43.3597708" lon="12.5292877"><ele>430.0</ele><time>2026-05-02T09:16:10.171Z</time></trkpt><trkpt lat="43.3595872" lon="12.5296079"><ele>430.0</ele><time>2026-05-02T09:16:11.177Z</time></trkpt><trkpt lat="43.3594044" lon="12.5299283"><ele>430.0</ele><time>2026-05-02T09:16:12.194Z</time></trkpt><trkpt lat="43.3592225" lon="12.5302433"><ele>429.5</ele><time>2026-05-02T09:16:13.21Z</time></trkpt><trkpt lat="43.3590395" lon="12.5305575"><ele>429.0</ele><time>2026-05-02T09:16:14.195Z</time></trkpt><trkpt lat="43.3588618" lon="12.530881"><ele>429.0</ele><time>2026-05-02T09:16:15.204Z</time></trkpt><trkpt lat="43.3586858" lon="12.5311902"><ele>429.0</ele><time>2026-05-02T09:16:16.209Z</time></trkpt><trkpt lat="43.358516" lon="12.5315089"><ele>430.0</ele><time>2026-05-02T09:16:17.19Z</time></trkpt><trkpt lat="43.3583546" lon="12.5318326"><ele>431.0</ele><time>2026-05-02T09:16:18.203Z</time></trkpt><trkpt lat="43.358211" lon="12.5321645"><ele>433.0</ele><time>2026-05-02T09:16:19.194Z</time></trkpt><trkpt lat="43.3580786" lon="12.5325057"><ele>435.0</ele><time>2026-05-02T09:16:20.204Z</time></trkpt><trkpt lat="43.3579645" lon="12.5328639"><ele>435.0</ele><time>2026-05-02T09:16:21.198Z</time></trkpt><trkpt lat="43.3578671" lon="12.533228"><ele>435.0</ele><time>2026-05-02T09:16:22.206Z</time></trkpt><trkpt lat="43.3577803" lon="12.5336111"><ele>436.0</ele><time>2026-05-02T09:16:23.19Z</time></trkpt><trkpt lat="43.3577099" lon="12.5339935"><ele>437.0</ele><time>2026-05-02T09:16:24.176Z</time></trkpt><trkpt lat="43.3576537" lon="12.5343736"><ele>437.0</ele><time>2026-05-02T09:16:25.205Z</time></trkpt><trkpt lat="43.3576067" lon="12.5347566"><ele>437.0</ele><time>2026-05-02T09:16:26.202Z</time></trkpt><trkpt lat="43.3575629" lon="12.5351397"><ele>438.5</ele><time>2026-05-02T09:16:27.208Z</time></trkpt><trkpt lat="43.3575159" lon="12.535517"><ele>440.0</ele><time>2026-05-02T09:16:28.189Z</time></trkpt><trkpt lat="43.357467" lon="12.5358978"><ele>440.5</ele><time>2026-05-02T09:16:29.189Z</time></trkpt><trkpt lat="43.3574151" lon="12.5362771"><ele>441.0</ele><time>2026-05-02T09:16:30.199Z</time></trkpt><trkpt lat="43.3573696" lon="12.5366528"><ele>441.0</ele><time>2026-05-02T09:16:31.205Z</time></trkpt><trkpt lat="43.3573184" lon="12.5370299"><ele>441.0</ele><time>2026-05-02T09:16:32.195Z</time></trkpt><trkpt lat="43.3572691" lon="12.5374002"><ele>442.0</ele><time>2026-05-02T09:16:33.196Z</time></trkpt><trkpt lat="43.3572228" lon="12.5377669"><ele>443.0</ele><time>2026-05-02T09:16:34.192Z</time></trkpt><trkpt lat="43.357176" lon="12.5381329"><ele>444.0</ele><time>2026-05-02T09:16:35.191Z</time></trkpt><trkpt lat="43.3571274" lon="12.5384978"><ele>445.0</ele><time>2026-05-02T09:16:36.202Z</time></trkpt><trkpt lat="43.3570824" lon="12.5388588"><ele>445.5</ele><time>2026-05-02T09:16:37.191Z</time></trkpt><trkpt lat="43.3570398" lon="12.5392176"><ele>446.0</ele><time>2026-05-02T09:16:38.185Z</time></trkpt><trkpt lat="43.3569947" lon="12.5395823"><ele>446.0</ele><time>2026-05-02T09:16:39.197Z</time></trkpt><trkpt lat="43.3569468" lon="12.5399432"><ele>446.0</ele><time>2026-05-02T09:16:40.19Z</time></trkpt><trkpt lat="43.356903" lon="12.5403015"><ele>447.5</ele><time>2026-05-02T09:16:41.208Z</time></trkpt><trkpt lat="43.356859" lon="12.5406557"><ele>449.0</ele><time>2026-05-02T09:16:42.2Z</time></trkpt><trkpt lat="43.356809" lon="12.5410117"><ele>449.5</ele><time>2026-05-02T09:16:43.22Z</time></trkpt><trkpt lat="43.3567669" lon="12.5413639"><ele>450.0</ele><time>2026-05-02T09:16:44.192Z</time></trkpt><trkpt lat="43.3567263" lon="12.5417137"><ele>451.0</ele><time>2026-05-02T09:16:45.197Z</time></trkpt><trkpt lat="43.3566841" lon="12.5420638"><ele>452.0</ele><time>2026-05-02T09:16:46.195Z</time></trkpt><trkpt lat="43.3566369" lon="12.5424057"><ele>452.0</ele><time>2026-05-02T09:16:47.197Z</time></trkpt><trkpt lat="43.35659" lon="12.5427487"><ele>452.0</ele><time>2026-05-02T09:16:48.204Z</time></trkpt><trkpt lat="43.3565433" lon="12.5430946"><ele>452.5</ele><time>2026-05-02T09:16:49.211Z</time></trkpt><trkpt lat="43.3564987" lon="12.5434356"><ele>453.0</ele><time>2026-05-02T09:16:50.192Z</time></trkpt><trkpt lat="43.3564598" lon="12.5437716"><ele>454.5</ele><time>2026-05-02T09:16:51.175Z</time></trkpt><trkpt lat="43.3564181" lon="12.5441052"><ele>456.0</ele><time>2026-05-02T09:16:52.189Z</time></trkpt><trkpt lat="43.3563751" lon="12.5444328"><ele>454.5</ele><time>2026-05-02T09:16:53.218Z</time></trkpt><trkpt lat="43.3563326" lon="12.5447569"><ele>453.0</ele><time>2026-05-02T09:16:54.197Z</time></trkpt><trkpt lat="43.3562984" lon="12.545079"><ele>454.5</ele><time>2026-05-02T09:16:55.194Z</time></trkpt><trkpt lat="43.3562547" lon="12.5454042"><ele>456.0</ele><time>2026-05-02T09:16:56.195Z</time></trkpt><trkpt lat="43.3562154" lon="12.5457213"><ele>456.0</ele><time>2026-05-02T09:16:57.202Z</time></trkpt><trkpt lat="43.3561696" lon="12.5460276"><ele>456.0</ele><time>2026-05-02T09:16:58.187Z</time></trkpt><trkpt lat="43.3561308" lon="12.5463296"><ele>456.0</ele><time>2026-05-02T09:16:59.196Z</time></trkpt><trkpt lat="43.3560919" lon="12.5466244"><ele>456.0</ele><time>2026-05-02T09:17:00.206Z</time></trkpt><trkpt lat="43.3560503" lon="12.5469062"><ele>456.0</ele><time>2026-05-02T09:17:01.194Z</time></trkpt><trkpt lat="43.3560126" lon="12.5471833"><ele>456.33333333333337</ele><time>2026-05-02T09:17:02.189Z</time></trkpt><trkpt lat="43.3559693" lon="12.5474587"><ele>456.6666666666667</ele><time>2026-05-02T09:17:03.196Z</time></trkpt><trkpt lat="43.3559266" lon="12.5477236"><ele>457.0</ele><time>2026-05-02T09:17:04.193Z</time></trkpt><trkpt lat="43.3558835" lon="12.547965"><ele>458.33333333333337</ele><time>2026-05-02T09:17:05.213Z</time></trkpt><trkpt lat="43.3558401" lon="12.548197"><ele>459.66666666666663</ele><time>2026-05-02T09:17:06.192Z</time></trkpt><trkpt lat="43.3557965" lon="12.5484144"><ele>461.0</ele><time>2026-05-02T09:17:07.191Z</time></trkpt><trkpt lat="43.3557472" lon="12.5486253"><ele>461.3333333333333</ele><time>2026-05-02T09:17:08.199Z</time></trkpt><trkpt lat="43.3556927" lon="12.5488236"><ele>461.66666666666663</ele><time>2026-05-02T09:17:09.203Z</time></trkpt><trkpt lat="43.3556116" lon="12.549003"><ele>462.0</ele><time>2026-05-02T09:17:10.208Z</time></trkpt><trkpt lat="43.3555014" lon="12.5491556"><ele>460.33333333333337</ele><time>2026-05-02T09:17:11.191Z</time></trkpt><trkpt lat="43.3553766" lon="12.549252"><ele>458.6666666666667</ele><time>2026-05-02T09:17:12.172Z</time></trkpt><trkpt lat="43.3552153" lon="12.5493377"><ele>457.0</ele><time>2026-05-02T09:17:13.213Z</time></trkpt><trkpt lat="43.3550354" lon="12.549379"><ele>457.0</ele><time>2026-05-02T09:17:14.193Z</time></trkpt><trkpt lat="43.3548745" lon="12.5494023"><ele>457.0</ele><time>2026-05-02T09:17:15.198Z</time></trkpt><trkpt lat="43.3547258" lon="12.5494248"><ele>457.0</ele><time>2026-05-02T09:17:16.194Z</time></trkpt><trkpt lat="43.354588" lon="12.5494936"><ele>457.0</ele><time>2026-05-02T09:17:17.2Z</time></trkpt><trkpt lat="43.3544779" lon="12.5495999"><ele>457.0</ele><time>2026-05-02T09:17:18.207Z</time></trkpt><trkpt lat="43.3543755" lon="12.5497604"><ele>457.0</ele><time>2026-05-02T09:17:19.199Z</time></trkpt><trkpt lat="43.354327" lon="12.549954"><ele>457.0</ele><time>2026-05-02T09:17:20.18Z</time></trkpt><trkpt lat="43.3543216" lon="12.550148"><ele>457.0</ele><time>2026-05-02T09:17:21.199Z</time></trkpt><trkpt lat="43.3543435" lon="12.550333"><ele>457.0</ele><time>2026-05-02T09:17:22.209Z</time></trkpt><trkpt lat="43.354406" lon="12.5505193"><ele>457.0</ele><time>2026-05-02T09:17:23.2Z</time></trkpt><trkpt lat="43.3544988" lon="12.5506415"><ele>457.0</ele><time>2026-05-02T09:17:24.207Z</time></trkpt><trkpt lat="43.3546299" lon="12.5507395"><ele>457.33333333333337</ele><time>2026-05-02T09:17:25.2Z</time></trkpt><trkpt lat="43.3547815" lon="12.5507969"><ele>457.66666666666663</ele><time>2026-05-02T09:17:26.19Z</time></trkpt><trkpt lat="43.3549466" lon="12.5508282"><ele>458.0</ele><time>2026-05-02T09:17:27.206Z</time></trkpt><trkpt lat="43.3551188" lon="12.5508491"><ele>458.0</ele><time>2026-05-02T09:17:28.209Z</time></trkpt><trkpt lat="43.3552981" lon="12.5508756"><ele>458.0</ele><time>2026-05-02T09:17:29.204Z</time></trkpt><trkpt lat="43.3554817" lon="12.5508975"><ele>458.0</ele><time>2026-05-02T09:17:30.217Z</time></trkpt><trkpt lat="43.3556737" lon="12.5509275"><ele>458.66666666666663</ele><time>2026-05-02T09:17:31.198Z</time></trkpt><trkpt lat="43.3558594" lon="12.5509524"><ele>459.33333333333337</ele><time>2026-05-02T09:17:32.214Z</time></trkpt><trkpt lat="43.3560391" lon="12.5509784"><ele>460.0</ele><time>2026-05-02T09:17:33.196Z</time></trkpt><trkpt lat="43.3562204" lon="12.5510082"><ele>461.33333333333337</ele><time>2026-05-02T09:17:34.192Z</time></trkpt><trkpt lat="43.3564054" lon="12.5510367"><ele>462.66666666666663</ele><time>2026-05-02T09:17:35.215Z</time></trkpt><trkpt lat="43.356589" lon="12.5510691"><ele>464.0</ele><time>2026-05-02T09:17:36.197Z</time></trkpt><trkpt lat="43.3567785" lon="12.5510984"><ele>464.0</ele><time>2026-05-02T09:17:37.2Z</time></trkpt><trkpt lat="43.3569674" lon="12.5511284"><ele>464.0</ele><time>2026-05-02T09:17:38.187Z</time></trkpt><trkpt lat="43.3571644" lon="12.5511557"><ele>464.0</ele><time>2026-05-02T09:17:39.201Z</time></trkpt><trkpt lat="43.3573587" lon="12.5511863"><ele>464.66666666666663</ele><time>2026-05-02T09:17:40.2Z</time></trkpt><trkpt lat="43.3575545" lon="12.5512167"><ele>465.33333333333337</ele><time>2026-05-02T09:17:41.19Z</time></trkpt><trkpt lat="43.3577531" lon="12.5512461"><ele>466.0</ele><time>2026-05-02T09:17:42.194Z</time></trkpt><trkpt lat="43.3579497" lon="12.5512826"><ele>466.33333333333337</ele><time>2026-05-02T09:17:43.202Z</time></trkpt><trkpt lat="43.3581488" lon="12.5513211"><ele>466.66666666666663</ele><time>2026-05-02T09:17:44.203Z</time></trkpt><trkpt lat="43.3583517" lon="12.5513627"><ele>467.0</ele><time>2026-05-02T09:17:45.194Z</time></trkpt><trkpt lat="43.3585554" lon="12.5514159"><ele>467.0</ele><time>2026-05-02T09:17:46.178Z</time></trkpt><trkpt lat="43.3587576" lon="12.5514739"><ele>467.0</ele><time>2026-05-02T09:17:47.219Z</time></trkpt><trkpt lat="43.3589589" lon="12.5515433"><ele>467.0</ele><time>2026-05-02T09:17:48.188Z</time></trkpt><trkpt lat="43.3591568" lon="12.5516231"><ele>467.3333333333333</ele><time>2026-05-02T09:17:49.207Z</time></trkpt><trkpt lat="43.3593436" lon="12.5517147"><ele>467.66666666666663</ele><time>2026-05-02T09:17:50.207Z</time></trkpt><trkpt lat="43.3595116" lon="12.5518215"><ele>468.0</ele><time>2026-05-02T09:17:51.196Z</time></trkpt><trkpt lat="43.359672" lon="12.5519303"><ele>468.66666666666663</ele><time>2026-05-02T09:17:52.198Z</time></trkpt><trkpt lat="43.3598355" lon="12.552045"><ele>469.3333333333333</ele><time>2026-05-02T09:17:53.197Z</time></trkpt><trkpt lat="43.3599976" lon="12.5521685"><ele>470.0</ele><time>2026-05-02T09:17:54.201Z</time></trkpt><trkpt lat="43.3601529" lon="12.5522922"><ele>470.0</ele><time>2026-05-02T09:17:55.195Z</time></trkpt><trkpt lat="43.3603053" lon="12.552411"><ele>470.0</ele><time>2026-05-02T09:17:56.202Z</time></trkpt><trkpt lat="43.3604505" lon="12.5525268"><ele>470.0</ele><time>2026-05-02T09:17:57.206Z</time></trkpt><trkpt lat="43.3605864" lon="12.5526425"><ele>471.0</ele><time>2026-05-02T09:17:58.203Z</time></trkpt><trkpt lat="43.36071" lon="12.5527524"><ele>472.0</ele><time>2026-05-02T09:17:59.21Z</time></trkpt><trkpt lat="43.3608346" lon="12.5528488"><ele>473.0</ele><time>2026-05-02T09:18:00.199Z</time></trkpt><trkpt lat="43.3609448" lon="12.5529388"><ele>474.0</ele><time>2026-05-02T09:18:01.205Z</time></trkpt><trkpt lat="43.3610333" lon="12.5530187"><ele>474.0</ele><time>2026-05-02T09:18:02.201Z</time></trkpt><trkpt lat="43.361103" lon="12.5530894"><ele>474.0</ele><time>2026-05-02T09:18:03.203Z</time></trkpt><trkpt lat="43.3611484" lon="12.5531559"><ele>474.0</ele><time>2026-05-02T09:18:04.185Z</time></trkpt><trkpt lat="43.3612158" lon="12.5532794"><ele>474.0</ele><time>2026-05-02T09:18:06.2Z</time></trkpt><trkpt lat="43.3612348" lon="12.5533881"><ele>474.0</ele><time>2026-05-02T09:18:08.213Z</time></trkpt><trkpt lat="43.3612697" lon="12.553546"><ele>473.99999999999994</ele><time>2026-05-02T09:18:10.188Z</time></trkpt><trkpt lat="43.3612959" lon="12.553625"><ele>474.0</ele><time>2026-05-02T09:18:11.195Z</time></trkpt><trkpt lat="43.3613311" lon="12.5537005"><ele>473.99999999999994</ele><time>2026-05-02T09:18:12.202Z</time></trkpt><trkpt lat="43.3613722" lon="12.5537802"><ele>473.99999999999994</ele><time>2026-05-02T09:18:13.186Z</time></trkpt><trkpt lat="43.3614096" lon="12.5538699"><ele>474.0</ele><time>2026-05-02T09:18:14.202Z</time></trkpt><trkpt lat="43.3614419" lon="12.5539597"><ele>473.99999999999994</ele><time>2026-05-02T09:18:15.195Z</time></trkpt><trkpt lat="43.3614632" lon="12.5540667"><ele>473.99999999999994</ele><time>2026-05-02T09:18:16.194Z</time></trkpt><trkpt lat="43.3614681" lon="12.554178"><ele>474.8333333333333</ele><time>2026-05-02T09:18:17.182Z</time></trkpt><trkpt lat="43.3614601" lon="12.5542777"><ele>475.66666666666663</ele><time>2026-05-02T09:18:18.182Z</time></trkpt><trkpt lat="43.3614243" lon="12.5544131"><ele>476.5</ele><time>2026-05-02T09:18:20.183Z</time></trkpt><trkpt lat="43.3613916" lon="12.5544997"><ele>477.3333333333333</ele><time>2026-05-02T09:18:22.199Z</time></trkpt><trkpt lat="43.3613542" lon="12.5545877"><ele>478.16666666666663</ele><time>2026-05-02T09:18:24.187Z</time></trkpt><trkpt lat="43.3612969" lon="12.5546887"><ele>479.0</ele><time>2026-05-02T09:18:26.188Z</time></trkpt><trkpt lat="43.3612423" lon="12.5548366"><ele>479.16666666666663</ele><time>2026-05-02T09:18:28.196Z</time></trkpt><trkpt lat="43.3612625" lon="12.5549737"><ele>479.3333333333333</ele><time>2026-05-02T09:18:30.212Z</time></trkpt><trkpt lat="43.3612821" lon="12.5551109"><ele>479.5</ele><time>2026-05-02T09:18:32.193Z</time></trkpt><trkpt lat="43.3612764" lon="12.5552067"><ele>479.66666666666663</ele><time>2026-05-02T09:18:33.177Z</time></trkpt><trkpt lat="43.3612555" lon="12.5553"><ele>479.8333333333333</ele><time>2026-05-02T09:18:34.192Z</time></trkpt><trkpt lat="43.3612303" lon="12.5554022"><ele>480.0</ele><time>2026-05-02T09:18:35.203Z</time></trkpt><trkpt lat="43.3612044" lon="12.5555183"><ele>480.2</ele><time>2026-05-02T09:18:36.198Z</time></trkpt><trkpt lat="43.3611786" lon="12.5556377"><ele>480.4</ele><time>2026-05-02T09:18:37.195Z</time></trkpt><trkpt lat="43.3611513" lon="12.555752"><ele>480.6</ele><time>2026-05-02T09:18:38.218Z</time></trkpt><trkpt lat="43.3611257" lon="12.5558664"><ele>480.8</ele><time>2026-05-02T09:18:39.191Z</time></trkpt><trkpt lat="43.3610928" lon="12.555991"><ele>481.0</ele><time>2026-05-02T09:18:40.2Z</time></trkpt><trkpt lat="43.3610603" lon="12.5561241"><ele>481.0</ele><time>2026-05-02T09:18:41.194Z</time></trkpt><trkpt lat="43.3610252" lon="12.5562634"><ele>481.0</ele><time>2026-05-02T09:18:42.195Z</time></trkpt><trkpt lat="43.3609881" lon="12.5563899"><ele>481.0</ele><time>2026-05-02T09:18:43.201Z</time></trkpt><trkpt lat="43.3609505" lon="12.5565199"><ele>481.0</ele><time>2026-05-02T09:18:44.193Z</time></trkpt><trkpt lat="43.3609131" lon="12.5566426"><ele>481.0</ele><time>2026-05-02T09:18:45.193Z</time></trkpt><trkpt lat="43.3608714" lon="12.5567649"><ele>481.0</ele><time>2026-05-02T09:18:46.189Z</time></trkpt><trkpt lat="43.3608174" lon="12.5568794"><ele>481.0</ele><time>2026-05-02T09:18:47.196Z</time></trkpt><trkpt lat="43.3607616" lon="12.5569895"><ele>481.0</ele><time>2026-05-02T09:18:48.195Z</time></trkpt><trkpt lat="43.360708" lon="12.5570912"><ele>481.0</ele><time>2026-05-02T09:18:49.205Z</time></trkpt><trkpt lat="43.3606533" lon="12.5571924"><ele>481.0</ele><time>2026-05-02T09:18:50.19Z</time></trkpt><trkpt lat="43.360593" lon="12.5572804"><ele>481.00000000000006</ele><time>2026-05-02T09:18:51.193Z</time></trkpt><trkpt lat="43.3605403" lon="12.5573732"><ele>481.0</ele><time>2026-05-02T09:18:52.197Z</time></trkpt><trkpt lat="43.3604767" lon="12.5574635"><ele>481.0</ele><time>2026-05-02T09:18:53.202Z</time></trkpt><trkpt lat="43.3604163" lon="12.5575446"><ele>481.0</ele><time>2026-05-02T09:18:54.199Z</time></trkpt><trkpt lat="43.3603643" lon="12.5576158"><ele>481.00000000000006</ele><time>2026-05-02T09:18:55.196Z</time></trkpt><trkpt lat="43.3603117" lon="12.5576894"><ele>481.0</ele><time>2026-05-02T09:18:56.198Z</time></trkpt><trkpt lat="43.3602593" lon="12.5577621"><ele>481.00000000000006</ele><time>2026-05-02T09:18:57.198Z</time></trkpt><trkpt lat="43.3602108" lon="12.5578323"><ele>481.0</ele><time>2026-05-02T09:18:58.213Z</time></trkpt><trkpt lat="43.3601621" lon="12.5579035"><ele>481.0</ele><time>2026-05-02T09:18:59.186Z</time></trkpt><trkpt lat="43.3601063" lon="12.557982"><ele>481.0</ele><time>2026-05-02T09:19:00.198Z</time></trkpt><trkpt lat="43.3600525" lon="12.5580604"><ele>481.00000000000006</ele><time>2026-05-02T09:19:01.177Z</time></trkpt><trkpt lat="43.3599951" lon="12.5581419"><ele>481.0</ele><time>2026-05-02T09:19:02.209Z</time></trkpt><trkpt lat="43.3599394" lon="12.5582252"><ele>481.00000000000006</ele><time>2026-05-02T09:19:03.206Z</time></trkpt><trkpt lat="43.3598788" lon="12.5583074"><ele>481.0</ele><time>2026-05-02T09:19:04.197Z</time></trkpt><trkpt lat="43.3598197" lon="12.5583881"><ele>481.0</ele><time>2026-05-02T09:19:05.195Z</time></trkpt><trkpt lat="43.3597527" lon="12.5584725"><ele>481.0</ele><time>2026-05-02T09:19:06.2Z</time></trkpt><trkpt lat="43.3596907" lon="12.5585593"><ele>481.00000000000006</ele><time>2026-05-02T09:19:07.192Z</time></trkpt><trkpt lat="43.3596237" lon="12.5586497"><ele>481.0</ele><time>2026-05-02T09:19:08.172Z</time></trkpt><trkpt lat="43.3595572" lon="12.5587385"><ele>481.20000000000005</ele><time>2026-05-02T09:19:09.17Z</time></trkpt><trkpt lat="43.3594939" lon="12.5588359"><ele>481.40000000000003</ele><time>2026-05-02T09:19:10.188Z</time></trkpt><trkpt lat="43.3594302" lon="12.5589358"><ele>481.6</ele><time>2026-05-02T09:19:11.198Z</time></trkpt><trkpt lat="43.3593677" lon="12.5590371"><ele>481.8</ele><time>2026-05-02T09:19:12.189Z</time></trkpt><trkpt lat="43.3593013" lon="12.5591472"><ele>482.0</ele><time>2026-05-02T09:19:13.191Z</time></trkpt><trkpt lat="43.3592432" lon="12.5592595"><ele>482.0</ele><time>2026-05-02T09:19:14.196Z</time></trkpt><trkpt lat="43.3591758" lon="12.5593733"><ele>482.00000000000006</ele><time>2026-05-02T09:19:15.208Z</time></trkpt><trkpt lat="43.3591094" lon="12.5594842"><ele>482.00000000000006</ele><time>2026-05-02T09:19:16.178Z</time></trkpt><trkpt lat="43.3590474" lon="12.559602"><ele>482.0</ele><time>2026-05-02T09:19:17.217Z</time></trkpt><trkpt lat="43.358982" lon="12.5597225"><ele>482.0</ele><time>2026-05-02T09:19:18.211Z</time></trkpt><trkpt lat="43.3589199" lon="12.5598408"><ele>482.0</ele><time>2026-05-02T09:19:19.187Z</time></trkpt><trkpt lat="43.3588615" lon="12.5599635"><ele>482.00000000000006</ele><time>2026-05-02T09:19:20.2Z</time></trkpt><trkpt lat="43.3588027" lon="12.5600819"><ele>482.00000000000006</ele><time>2026-05-02T09:19:21.196Z</time></trkpt><trkpt lat="43.3587436" lon="12.5602048"><ele>482.0</ele><time>2026-05-02T09:19:22.188Z</time></trkpt><trkpt lat="43.3586856" lon="12.5603283"><ele>482.0</ele><time>2026-05-02T09:19:23.188Z</time></trkpt><trkpt lat="43.3586287" lon="12.5604622"><ele>482.40000000000003</ele><time>2026-05-02T09:19:24.213Z</time></trkpt><trkpt lat="43.3585761" lon="12.5605873"><ele>482.80000000000007</ele><time>2026-05-02T09:19:25.198Z</time></trkpt><trkpt lat="43.3585263" lon="12.5607162"><ele>483.2</ele><time>2026-05-02T09:19:26.203Z</time></trkpt><trkpt lat="43.3584756" lon="12.5608422"><ele>483.6</ele><time>2026-05-02T09:19:27.169Z</time></trkpt><trkpt lat="43.3584266" lon="12.560969"><ele>484.0</ele><time>2026-05-02T09:19:28.203Z</time></trkpt><trkpt lat="43.3583756" lon="12.5611016"><ele>484.79999999999995</ele><time>2026-05-02T09:19:29.188Z</time></trkpt><trkpt lat="43.3583266" lon="12.5612329"><ele>485.59999999999997</ele><time>2026-05-02T09:19:30.182Z</time></trkpt><trkpt lat="43.3582772" lon="12.5613645"><ele>486.4</ele><time>2026-05-02T09:19:31.192Z</time></trkpt><trkpt lat="43.358223" lon="12.5614891"><ele>487.2</ele><time>2026-05-02T09:19:32.195Z</time></trkpt><trkpt lat="43.3581665" lon="12.5616072"><ele>488.0</ele><time>2026-05-02T09:19:33.19Z</time></trkpt><trkpt lat="43.3581117" lon="12.5617222"><ele>487.99999999999994</ele><time>2026-05-02T09:19:34.195Z</time></trkpt><trkpt lat="43.3580668" lon="12.5618287"><ele>488.0</ele><time>2026-05-02T09:19:35.184Z</time></trkpt><trkpt lat="43.3580275" lon="12.5619105"><ele>487.99999999999994</ele><time>2026-05-02T09:19:36.185Z</time></trkpt><trkpt lat="43.3579981" lon="12.5619902"><ele>487.99999999999994</ele><time>2026-05-02T09:19:37.182Z</time></trkpt><trkpt lat="43.357967" lon="12.5620754"><ele>488.0</ele><time>2026-05-02T09:19:38.2Z</time></trkpt><trkpt lat="43.3579353" lon="12.5621582"><ele>487.99999999999994</ele><time>2026-05-02T09:19:39.19Z</time></trkpt><trkpt lat="43.3579011" lon="12.5622493"><ele>487.99999999999994</ele><time>2026-05-02T09:19:40.188Z</time></trkpt><trkpt lat="43.3578573" lon="12.5623532"><ele>487.4</ele><time>2026-05-02T09:19:41.194Z</time></trkpt><trkpt lat="43.3578091" lon="12.5624793"><ele>486.79999999999995</ele><time>2026-05-02T09:19:42.202Z</time></trkpt><trkpt lat="43.3577684" lon="12.5626015"><ele>486.2</ele><time>2026-05-02T09:19:43.195Z</time></trkpt><trkpt lat="43.3577275" lon="12.5627141"><ele>485.6</ele><time>2026-05-02T09:19:44.189Z</time></trkpt><trkpt lat="43.3576822" lon="12.5628261"><ele>485.0</ele><time>2026-05-02T09:19:45.194Z</time></trkpt><trkpt lat="43.3576375" lon="12.5629449"><ele>485.0</ele><time>2026-05-02T09:19:46.2Z</time></trkpt><trkpt lat="43.3575897" lon="12.5630675"><ele>485.0</ele><time>2026-05-02T09:19:47.198Z</time></trkpt><trkpt lat="43.3575421" lon="12.5631847"><ele>485.0</ele><time>2026-05-02T09:19:48.201Z</time></trkpt><trkpt lat="43.3574976" lon="12.563305"><ele>485.0</ele><time>2026-05-02T09:19:49.197Z</time></trkpt><trkpt lat="43.3574508" lon="12.5634342"><ele>485.0</ele><time>2026-05-02T09:19:50.199Z</time></trkpt><trkpt lat="43.3573948" lon="12.5635614"><ele>485.0</ele><time>2026-05-02T09:19:51.202Z</time></trkpt><trkpt lat="43.3573431" lon="12.5636876"><ele>485.0</ele><time>2026-05-02T09:19:52.196Z</time></trkpt><trkpt lat="43.357295" lon="12.563815"><ele>485.0</ele><time>2026-05-02T09:19:53.191Z</time></trkpt><trkpt lat="43.3572517" lon="12.5639451"><ele>485.0</ele><time>2026-05-02T09:19:54.194Z</time></trkpt><trkpt lat="43.3571951" lon="12.5640662"><ele>485.0</ele><time>2026-05-02T09:19:55.199Z</time></trkpt><trkpt lat="43.3571439" lon="12.5641867"><ele>484.8333333333333</ele><time>2026-05-02T09:19:56.202Z</time></trkpt><trkpt lat="43.3570941" lon="12.5642959"><ele>484.66666666666663</ele><time>2026-05-02T09:19:57.204Z</time></trkpt><trkpt lat="43.3570447" lon="12.5644066"><ele>484.5</ele><time>2026-05-02T09:19:58.201Z</time></trkpt><trkpt lat="43.3570045" lon="12.5645091"><ele>484.33333333333337</ele><time>2026-05-02T09:19:59.191Z</time></trkpt><trkpt lat="43.3569597" lon="12.5646112"><ele>484.1666666666667</ele><time>2026-05-02T09:20:00.198Z</time></trkpt><trkpt lat="43.356918" lon="12.5647106"><ele>484.0</ele><time>2026-05-02T09:20:01.199Z</time></trkpt><trkpt lat="43.3568828" lon="12.5648039"><ele>484.00000000000006</ele><time>2026-05-02T09:20:02.188Z</time></trkpt><trkpt lat="43.3568524" lon="12.5648919"><ele>484.0</ele><time>2026-05-02T09:20:03.192Z</time></trkpt><trkpt lat="43.3568289" lon="12.5649763"><ele>484.0</ele><time>2026-05-02T09:20:04.196Z</time></trkpt><trkpt lat="43.3567692" lon="12.5650976"><ele>484.0</ele><time>2026-05-02T09:20:06.207Z</time></trkpt><trkpt lat="43.3566864" lon="12.5651318"><ele>484.00000000000006</ele><time>2026-05-02T09:20:08.186Z</time></trkpt><trkpt lat="43.3566314" lon="12.5652235"><ele>484.0</ele><time>2026-05-02T09:20:11.183Z</time></trkpt><trkpt lat="43.3566806" lon="12.5653276"><ele>484.4</ele><time>2026-05-02T09:20:13.184Z</time></trkpt><trkpt lat="43.3567047" lon="12.5654413"><ele>484.79999999999995</ele><time>2026-05-02T09:20:16.176Z</time></trkpt><trkpt lat="43.3566779" lon="12.5655832"><ele>485.20000000000005</ele><time>2026-05-02T09:20:18.194Z</time></trkpt><trkpt lat="43.3566545" lon="12.5656647"><ele>485.6</ele><time>2026-05-02T09:20:19.197Z</time></trkpt><trkpt lat="43.3566039" lon="12.5658353"><ele>486.0</ele><time>2026-05-02T09:20:21.197Z</time></trkpt><trkpt lat="43.3565832" lon="12.565943"><ele>486.0</ele><time>2026-05-02T09:20:22.196Z</time></trkpt><trkpt lat="43.3565596" lon="12.5660361"><ele>486.0</ele><time>2026-05-02T09:20:23.182Z</time></trkpt><trkpt lat="43.3565189" lon="12.5661859"><ele>486.0</ele><time>2026-05-02T09:20:25.193Z</time></trkpt><trkpt lat="43.3564735" lon="12.566324"><ele>486.0</ele><time>2026-05-02T09:20:27.189Z</time></trkpt><trkpt lat="43.3564322" lon="12.5664845"><ele>486.0</ele><time>2026-05-02T09:20:29.196Z</time></trkpt><trkpt lat="43.3563951" lon="12.5666417"><ele>486.6</ele><time>2026-05-02T09:20:31.198Z</time></trkpt><trkpt lat="43.3563486" lon="12.5667822"><ele>487.20000000000005</ele><time>2026-05-02T09:20:33.204Z</time></trkpt><trkpt lat="43.3563113" lon="12.5669293"><ele>487.79999999999995</ele><time>2026-05-02T09:20:35.201Z</time></trkpt><trkpt lat="43.3562688" lon="12.5670717"><ele>488.4</ele><time>2026-05-02T09:20:37.196Z</time></trkpt><trkpt lat="43.3562475" lon="12.5671654"><ele>489.0</ele><time>2026-05-02T09:20:38.195Z</time></trkpt><trkpt lat="43.3562232" lon="12.5672718"><ele>489.1666666666667</ele><time>2026-05-02T09:20:39.211Z</time></trkpt><trkpt lat="43.3561941" lon="12.5673775"><ele>489.33333333333337</ele><time>2026-05-02T09:20:40.189Z</time></trkpt><trkpt lat="43.3561635" lon="12.5674748"><ele>489.5</ele><time>2026-05-02T09:20:41.205Z</time></trkpt><trkpt lat="43.3561323" lon="12.5675773"><ele>489.6666666666667</ele><time>2026-05-02T09:20:42.194Z</time></trkpt><trkpt lat="43.3561034" lon="12.5676706"><ele>489.83333333333337</ele><time>2026-05-02T09:20:43.196Z</time></trkpt><trkpt lat="43.3560829" lon="12.5677626"><ele>490.0</ele><time>2026-05-02T09:20:44.197Z</time></trkpt><trkpt lat="43.3560548" lon="12.5678467"><ele>490.50000000000006</ele><time>2026-05-02T09:20:45.185Z</time></trkpt><trkpt lat="43.3560313" lon="12.5679374"><ele>491.0</ele><time>2026-05-02T09:20:46.2Z</time></trkpt><trkpt lat="43.3560087" lon="12.5680289"><ele>491.5</ele><time>2026-05-02T09:20:47.225Z</time></trkpt><trkpt lat="43.3559829" lon="12.5681147"><ele>492.0</ele><time>2026-05-02T09:20:48.204Z</time></trkpt><trkpt lat="43.3559602" lon="12.5681959"><ele>492.50000000000006</ele><time>2026-05-02T09:20:49.197Z</time></trkpt><trkpt lat="43.3559371" lon="12.5682785"><ele>493.0</ele><time>2026-05-02T09:20:50.197Z</time></trkpt><trkpt lat="43.3559027" lon="12.5684393"><ele>493.0</ele><time>2026-05-02T09:20:52.213Z</time></trkpt><trkpt lat="43.3558546" lon="12.56859"><ele>492.99999999999994</ele><time>2026-05-02T09:20:54.211Z</time></trkpt><trkpt lat="43.3558285" lon="12.5686728"><ele>492.99999999999994</ele><time>2026-05-02T09:20:55.203Z</time></trkpt><trkpt lat="43.3557875" lon="12.568813"><ele>493.0</ele><time>2026-05-02T09:20:57.206Z</time></trkpt><trkpt lat="43.3557438" lon="12.5689713"><ele>493.0</ele><time>2026-05-02T09:20:59.19Z</time></trkpt><trkpt lat="43.3557181" lon="12.5690568"><ele>494.00000000000006</ele><time>2026-05-02T09:21:00.21Z</time></trkpt><trkpt lat="43.3556923" lon="12.5691453"><ele>495.0</ele><time>2026-05-02T09:21:01.197Z</time></trkpt><trkpt lat="43.3556493" lon="12.5693094"><ele>496.0</ele><time>2026-05-02T09:21:03.207Z</time></trkpt><trkpt lat="43.3556197" lon="12.5693895"><ele>497.0</ele><time>2026-05-02T09:21:04.217Z</time></trkpt><trkpt lat="43.3555874" lon="12.5694697"><ele>498.00000000000006</ele><time>2026-05-02T09:21:05.213Z</time></trkpt><trkpt lat="43.3555483" lon="12.5696214"><ele>499.0</ele><time>2026-05-02T09:21:07.194Z</time></trkpt><trkpt lat="43.3555214" lon="12.5697505"><ele>499.00000000000006</ele><time>2026-05-02T09:21:09.202Z</time></trkpt><trkpt lat="43.3554838" lon="12.5698876"><ele>499.0</ele><time>2026-05-02T09:21:11.203Z</time></trkpt><trkpt lat="43.3554574" lon="12.5699695"><ele>499.0</ele><time>2026-05-02T09:21:12.203Z</time></trkpt><trkpt lat="43.3554243" lon="12.5700509"><ele>499.0</ele><time>2026-05-02T09:21:13.202Z</time></trkpt><trkpt lat="43.3553875" lon="12.5701329"><ele>499.00000000000006</ele><time>2026-05-02T09:21:14.207Z</time></trkpt><trkpt lat="43.3553478" lon="12.5702032"><ele>499.0</ele><time>2026-05-02T09:21:15.204Z</time></trkpt><trkpt lat="43.3552859" lon="12.5703415"><ele>499.33333333333337</ele><time>2026-05-02T09:21:17.204Z</time></trkpt><trkpt lat="43.3552244" lon="12.5704792"><ele>499.6666666666667</ele><time>2026-05-02T09:21:19.193Z</time></trkpt><trkpt lat="43.3551963" lon="12.5705644"><ele>500.0</ele><time>2026-05-02T09:21:20.193Z</time></trkpt><trkpt lat="43.35518" lon="12.5706544"><ele>500.33333333333337</ele><time>2026-05-02T09:21:21.192Z</time></trkpt><trkpt lat="43.3551746" lon="12.570747"><ele>500.6666666666667</ele><time>2026-05-02T09:21:22.207Z</time></trkpt><trkpt lat="43.3551722" lon="12.5708476"><ele>501.0</ele><time>2026-05-02T09:21:23.191Z</time></trkpt><trkpt lat="43.3551641" lon="12.5709522"><ele>501.0</ele><time>2026-05-02T09:21:24.197Z</time></trkpt><trkpt lat="43.3551633" lon="12.5710622"><ele>501.0</ele><time>2026-05-02T09:21:25.192Z</time></trkpt><trkpt lat="43.3551613" lon="12.5711621"><ele>501.0</ele><time>2026-05-02T09:21:26.203Z</time></trkpt><trkpt lat="43.3551556" lon="12.5712628"><ele>501.0</ele><time>2026-05-02T09:21:27.193Z</time></trkpt><trkpt lat="43.3551474" lon="12.5713615"><ele>501.0</ele><time>2026-05-02T09:21:28.188Z</time></trkpt><trkpt lat="43.3551421" lon="12.5714524"><ele>501.0</ele><time>2026-05-02T09:21:29.196Z</time></trkpt><trkpt lat="43.3551346" lon="12.5715524"><ele>501.0</ele><time>2026-05-02T09:21:30.201Z</time></trkpt><trkpt lat="43.3551269" lon="12.5716542"><ele>500.8333333333333</ele><time>2026-05-02T09:21:31.193Z</time></trkpt><trkpt lat="43.3551239" lon="12.5717509"><ele>500.66666666666663</ele><time>2026-05-02T09:21:32.195Z</time></trkpt><trkpt lat="43.3551123" lon="12.5719142"><ele>500.5</ele><time>2026-05-02T09:21:34.193Z</time></trkpt><trkpt lat="43.3551026" lon="12.5720511"><ele>500.3333333333333</ele><time>2026-05-02T09:21:36.187Z</time></trkpt><trkpt lat="43.3551027" lon="12.5721583"><ele>500.16666666666663</ele><time>2026-05-02T09:21:38.188Z</time></trkpt><trkpt lat="43.355105" lon="12.5722449"><ele>500.0</ele><time>2026-05-02T09:21:40.178Z</time></trkpt><trkpt lat="43.3551173" lon="12.5723394"><ele>500.66666666666663</ele><time>2026-05-02T09:21:47.198Z</time></trkpt><trkpt lat="43.3550992" lon="12.5724594"><ele>501.3333333333333</ele><time>2026-05-02T09:21:50.182Z</time></trkpt><trkpt lat="43.355083" lon="12.572561"><ele>502.0</ele><time>2026-05-02T09:21:53.2Z</time></trkpt><trkpt lat="43.3550294" lon="12.5726502"><ele>502.66666666666663</ele><time>2026-05-02T09:21:56.174Z</time></trkpt><trkpt lat="43.3549673" lon="12.5726874"><ele>503.3333333333333</ele><time>2026-05-02T09:21:58.194Z</time></trkpt><trkpt lat="43.3548981" lon="12.5727074"><ele>504.0</ele><time>2026-05-02T09:22:00.181Z</time></trkpt><trkpt lat="43.3548325" lon="12.5727294"><ele>504.0</ele><time>2026-05-02T09:22:02.179Z</time></trkpt><trkpt lat="43.3547482" lon="12.5727531"><ele>504.0</ele><time>2026-05-02T09:22:05.199Z</time></trkpt><trkpt lat="43.3546839" lon="12.572787"><ele>504.0</ele><time>2026-05-02T09:22:07.205Z</time></trkpt><trkpt lat="43.3546213" lon="12.5728265"><ele>504.0</ele><time>2026-05-02T09:22:09.198Z</time></trkpt><trkpt lat="43.3545435" lon="12.5728761"><ele>504.0</ele><time>2026-05-02T09:22:12.206Z</time></trkpt><trkpt lat="43.3544632" lon="12.5729512"><ele>504.0</ele><time>2026-05-02T09:22:15.196Z</time></trkpt><trkpt lat="43.3543927" lon="12.5730197"><ele>503.1428571428571</ele><time>2026-05-02T09:22:17.211Z</time></trkpt><trkpt lat="43.3543268" lon="12.5730755"><ele>502.2857142857143</ele><time>2026-05-02T09:22:19.175Z</time></trkpt><trkpt lat="43.3542691" lon="12.5731211"><ele>501.42857142857144</ele><time>2026-05-02T09:22:21.189Z</time></trkpt><trkpt lat="43.3542142" lon="12.5731729"><ele>500.57142857142856</ele><time>2026-05-02T09:22:23.194Z</time></trkpt><trkpt lat="43.354138" lon="12.5732185"><ele>499.71428571428567</ele><time>2026-05-02T09:22:25.183Z</time></trkpt><trkpt lat="43.3540733" lon="12.5732229"><ele>498.85714285714283</ele><time>2026-05-02T09:22:27.199Z</time></trkpt><trkpt lat="43.3539908" lon="12.5732291"><ele>498.0</ele><time>2026-05-02T09:22:30.185Z</time></trkpt><trkpt lat="43.3539346" lon="12.5732794"><ele>498.0</ele><time>2026-05-02T09:22:34.186Z</time></trkpt><trkpt lat="43.3538922" lon="12.5733792"><ele>498.0</ele><time>2026-05-02T09:22:38.177Z</time></trkpt><trkpt lat="43.3538461" lon="12.5734476"><ele>498.0</ele><time>2026-05-02T09:22:40.184Z</time></trkpt><trkpt lat="43.3537806" lon="12.5735151"><ele>498.0</ele><time>2026-05-02T09:22:43.177Z</time></trkpt><trkpt lat="43.353729" lon="12.5735686"><ele>498.0</ele><time>2026-05-02T09:22:45.191Z</time></trkpt><trkpt lat="43.3536563" lon="12.5736469"><ele>498.0</ele><time>2026-05-02T09:22:48.177Z</time></trkpt><trkpt lat="43.3536025" lon="12.5737047"><ele>498.57142857142856</ele><time>2026-05-02T09:22:50.187Z</time></trkpt><trkpt lat="43.3535445" lon="12.5737504"><ele>499.1428571428571</ele><time>2026-05-02T09:22:52.183Z</time></trkpt><trkpt lat="43.3534878" lon="12.5738074"><ele>499.71428571428567</ele><time>2026-05-02T09:22:54.181Z</time></trkpt><trkpt lat="43.3534325" lon="12.5738594"><ele>500.2857142857142</ele><time>2026-05-02T09:22:56.189Z</time></trkpt><trkpt lat="43.3533772" lon="12.5739015"><ele>500.85714285714283</ele><time>2026-05-02T09:22:58.187Z</time></trkpt><trkpt lat="43.353324" lon="12.5739506"><ele>501.42857142857133</ele><time>2026-05-02T09:23:00.198Z</time></trkpt><trkpt lat="43.3532544" lon="12.5740064"><ele>501.99999999999994</ele><time>2026-05-02T09:23:02.179Z</time></trkpt><trkpt lat="43.3531831" lon="12.5740703"><ele>502.00000000000006</ele><time>2026-05-02T09:23:04.182Z</time></trkpt><trkpt lat="43.3531139" lon="12.5741379"><ele>502.0</ele><time>2026-05-02T09:23:06.186Z</time></trkpt><trkpt lat="43.3530559" lon="12.574198"><ele>502.0</ele><time>2026-05-02T09:23:08.184Z</time></trkpt><trkpt lat="43.3529847" lon="12.574262"><ele>502.0</ele><time>2026-05-02T09:23:10.184Z</time></trkpt><trkpt lat="43.3529068" lon="12.5743391"><ele>502.00000000000006</ele><time>2026-05-02T09:23:12.179Z</time></trkpt><trkpt lat="43.3528269" lon="12.5744059"><ele>502.0</ele><time>2026-05-02T09:23:14.188Z</time></trkpt><trkpt lat="43.3527499" lon="12.5744479"><ele>501.8</ele><time>2026-05-02T09:23:16.19Z</time></trkpt><trkpt lat="43.3526685" lon="12.5744964"><ele>501.6</ele><time>2026-05-02T09:23:18.181Z</time></trkpt><trkpt lat="43.3525768" lon="12.5745451"><ele>501.40000000000003</ele><time>2026-05-02T09:23:20.181Z</time></trkpt><trkpt lat="43.3524686" lon="12.5746044"><ele>501.20000000000005</ele><time>2026-05-02T09:23:22.192Z</time></trkpt><trkpt lat="43.3523579" lon="12.5746669"><ele>501.0</ele><time>2026-05-02T09:23:24.195Z</time></trkpt><trkpt lat="43.3522957" lon="12.5747062"><ele>501.0</ele><time>2026-05-02T09:23:25.201Z</time></trkpt><trkpt lat="43.3522327" lon="12.5747409"><ele>501.0</ele><time>2026-05-02T09:23:26.2Z</time></trkpt><trkpt lat="43.3521686" lon="12.5747629"><ele>501.0</ele><time>2026-05-02T09:23:27.203Z</time></trkpt><trkpt lat="43.3520517" lon="12.5748211"><ele>501.0</ele><time>2026-05-02T09:23:29.188Z</time></trkpt><trkpt lat="43.3519437" lon="12.5748833"><ele>501.0</ele><time>2026-05-02T09:23:31.191Z</time></trkpt><trkpt lat="43.3518442" lon="12.5749404"><ele>499.6</ele><time>2026-05-02T09:23:33.186Z</time></trkpt><trkpt lat="43.3517486" lon="12.5749951"><ele>498.20000000000005</ele><time>2026-05-02T09:23:35.183Z</time></trkpt><trkpt lat="43.3516613" lon="12.5750409"><ele>496.79999999999995</ele><time>2026-05-02T09:23:37.189Z</time></trkpt><trkpt lat="43.3515834" lon="12.5751061"><ele>495.4</ele><time>2026-05-02T09:23:39.178Z</time></trkpt><trkpt lat="43.3514988" lon="12.5751438"><ele>494.0</ele><time>2026-05-02T09:23:41.186Z</time></trkpt><trkpt lat="43.3514168" lon="12.5751929"><ele>494.0</ele><time>2026-05-02T09:23:43.187Z</time></trkpt><trkpt lat="43.3513301" lon="12.5752558"><ele>494.0</ele><time>2026-05-02T09:23:45.195Z</time></trkpt><trkpt lat="43.3512678" lon="12.5753238"><ele>494.0</ele><time>2026-05-02T09:23:47.191Z</time></trkpt><trkpt lat="43.3511828" lon="12.5754154"><ele>494.0</ele><time>2026-05-02T09:23:49.189Z</time></trkpt><trkpt lat="43.3510938" lon="12.5755133"><ele>494.0</ele><time>2026-05-02T09:23:51.201Z</time></trkpt><trkpt lat="43.3510084" lon="12.5756203"><ele>494.0</ele><time>2026-05-02T09:23:53.188Z</time></trkpt><trkpt lat="43.3509458" lon="12.5757247"><ele>494.0</ele><time>2026-05-02T09:23:55.201Z</time></trkpt><trkpt lat="43.3508721" lon="12.5758314"><ele>494.0</ele><time>2026-05-02T09:23:57.196Z</time></trkpt><trkpt lat="43.3507987" lon="12.5759532"><ele>494.0</ele><time>2026-05-02T09:23:59.186Z</time></trkpt><trkpt lat="43.3507411" lon="12.5760757"><ele>494.0</ele><time>2026-05-02T09:24:01.203Z</time></trkpt><trkpt lat="43.3506935" lon="12.5761788"><ele>493.8333333333333</ele><time>2026-05-02T09:24:03.204Z</time></trkpt><trkpt lat="43.3506517" lon="12.5763083"><ele>493.66666666666663</ele><time>2026-05-02T09:24:05.202Z</time></trkpt><trkpt lat="43.3506132" lon="12.5764062"><ele>493.5</ele><time>2026-05-02T09:24:07.204Z</time></trkpt><trkpt lat="43.3505808" lon="12.5764834"><ele>493.33333333333337</ele><time>2026-05-02T09:24:09.187Z</time></trkpt><trkpt lat="43.3505524" lon="12.5765736"><ele>493.1666666666667</ele><time>2026-05-02T09:24:13.188Z</time></trkpt><trkpt lat="43.3505155" lon="12.5766615"><ele>493.0</ele><time>2026-05-02T09:24:24.188Z</time></trkpt><trkpt lat="43.3505132" lon="12.5767633"><ele>493.0</ele><time>2026-05-02T09:24:27.188Z</time></trkpt><trkpt lat="43.3505497" lon="12.5768751"><ele>493.0</ele><time>2026-05-02T09:24:29.184Z</time></trkpt><trkpt lat="43.3506061" lon="12.5769155"><ele>493.0</ele><time>2026-05-02T09:24:31.185Z</time></trkpt><trkpt lat="43.3506753" lon="12.5769484"><ele>493.0</ele><time>2026-05-02T09:24:34.202Z</time></trkpt><trkpt lat="43.35074" lon="12.5769213"><ele>493.0</ele><time>2026-05-02T09:24:36.188Z</time></trkpt><trkpt lat="43.3508119" lon="12.57688"><ele>493.0</ele><time>2026-05-02T09:24:38.201Z</time></trkpt><trkpt lat="43.3508794" lon="12.5768524"><ele>493.0</ele><time>2026-05-02T09:24:40.2Z</time></trkpt><trkpt lat="43.3509615" lon="12.5768533"><ele>493.0</ele><time>2026-05-02T09:24:42.188Z</time></trkpt><trkpt lat="43.3510487" lon="12.5768549"><ele>492.99999999999994</ele><time>2026-05-02T09:24:44.194Z</time></trkpt><trkpt lat="43.3511377" lon="12.576861"><ele>492.99999999999994</ele><time>2026-05-02T09:24:46.19Z</time></trkpt><trkpt lat="43.3512369" lon="12.5768956"><ele>493.0</ele><time>2026-05-02T09:24:48.182Z</time></trkpt><trkpt lat="43.3513405" lon="12.5769634"><ele>493.0</ele><time>2026-05-02T09:24:50.195Z</time></trkpt><trkpt lat="43.3514241" lon="12.5770523"><ele>493.50000000000006</ele><time>2026-05-02T09:24:52.191Z</time></trkpt><trkpt lat="43.3514705" lon="12.5771334"><ele>494.0</ele><time>2026-05-02T09:24:54.193Z</time></trkpt><trkpt lat="43.3515216" lon="12.5772123"><ele>494.5</ele><time>2026-05-02T09:24:57.195Z</time></trkpt><trkpt lat="43.3515475" lon="12.5773015"><ele>495.0</ele><time>2026-05-02T09:25:02.189Z</time></trkpt><trkpt lat="43.3516213" lon="12.5772711"><ele>495.50000000000006</ele><time>2026-05-02T09:26:00.191Z</time></trkpt><trkpt lat="43.3516562" lon="12.5771699"><ele>496.0</ele><time>2026-05-02T09:26:03.188Z</time></trkpt><trkpt lat="43.3517026" lon="12.5770763"><ele>496.1666666666667</ele><time>2026-05-02T09:26:05.19Z</time></trkpt><trkpt lat="43.3517386" lon="12.5769334"><ele>496.33333333333337</ele><time>2026-05-02T09:26:07.197Z</time></trkpt><trkpt lat="43.3517541" lon="12.5768452"><ele>496.5</ele><time>2026-05-02T09:26:08.189Z</time></trkpt><trkpt lat="43.3517725" lon="12.576757"><ele>496.66666666666663</ele><time>2026-05-02T09:26:09.191Z</time></trkpt><trkpt lat="43.3517956" lon="12.5766682"><ele>496.8333333333333</ele><time>2026-05-02T09:26:10.192Z</time></trkpt><trkpt lat="43.3518482" lon="12.5765132"><ele>497.0</ele><time>2026-05-02T09:26:12.178Z</time></trkpt><trkpt lat="43.3518984" lon="12.5763902"><ele>496.99999999999994</ele><time>2026-05-02T09:26:14.185Z</time></trkpt><trkpt lat="43.3519466" lon="12.576284"><ele>497.0</ele><time>2026-05-02T09:26:16.192Z</time></trkpt><trkpt lat="43.3519346" lon="12.5761631"><ele>497.0</ele><time>2026-05-02T09:26:19.178Z</time></trkpt><trkpt lat="43.3518573" lon="12.5761257"><ele>497.0</ele><time>2026-05-02T09:26:22.198Z</time></trkpt><trkpt lat="43.3517973" lon="12.5760739"><ele>496.99999999999994</ele><time>2026-05-02T09:26:26.191Z</time></trkpt><trkpt lat="43.35173" lon="12.5760237"><ele>497.0</ele><time>2026-05-02T09:26:30.187Z</time></trkpt><trkpt lat="43.3517943" lon="12.5759918"><ele>497.0</ele><time>2026-05-02T09:29:54.202Z</time></trkpt><trkpt lat="43.3517784" lon="12.5760909"><ele>497.0</ele><time>2026-05-02T09:33:34.17Z</time></trkpt><trkpt lat="43.3518268" lon="12.5761545"><ele>497.0</ele><time>2026-05-02T09:34:13.2Z</time></trkpt><trkpt lat="43.3518768" lon="12.576208"><ele>497.0</ele><time>2026-05-02T09:34:22.201Z</time></trkpt><trkpt lat="43.3519416" lon="12.5763156"><ele>497.0</ele><time>2026-05-02T09:34:38.166Z</time></trkpt><trkpt lat="43.3519569" lon="12.5764134"><ele>497.0</ele><time>2026-05-02T09:34:47.187Z</time></trkpt><trkpt lat="43.3519293" lon="12.5764913"><ele>497.0</ele><time>2026-05-02T09:34:51.205Z</time></trkpt><trkpt lat="43.3518747" lon="12.5765572"><ele>497.0</ele><time>2026-05-02T09:34:56.196Z</time></trkpt><trkpt lat="43.3518314" lon="12.5766376"><ele>497.0</ele><time>2026-05-02T09:35:01.186Z</time></trkpt><trkpt lat="43.3518087" lon="12.5767295"><ele>497.0</ele><time>2026-05-02T09:35:08.189Z</time></trkpt><trkpt lat="43.3517878" lon="12.5768148"><ele>497.0</ele><time>2026-05-02T09:35:14.189Z</time></trkpt><trkpt lat="43.3517628" lon="12.5769019"><ele>497.0</ele><time>2026-05-02T09:35:19.189Z</time></trkpt><trkpt lat="43.3517775" lon="12.5769878"><ele>497.0</ele><time>2026-05-02T09:35:30.186Z</time></trkpt><trkpt lat="43.3517894" lon="12.5770825"><ele>497.0</ele><time>2026-05-02T09:35:39.184Z</time></trkpt><trkpt lat="43.3517734" lon="12.5771813"><ele>496.8571428571429</ele><time>2026-05-02T09:35:46.2Z</time></trkpt><trkpt lat="43.3518393" lon="12.5772064"><ele>496.7142857142857</ele><time>2026-05-02T09:35:52.224Z</time></trkpt><trkpt lat="43.3518569" lon="12.5772896"><ele>496.57142857142856</ele><time>2026-05-02T09:36:02.205Z</time></trkpt><trkpt lat="43.3518607" lon="12.5773846"><ele>496.42857142857144</ele><time>2026-05-02T09:36:10.196Z</time></trkpt><trkpt lat="43.3518422" lon="12.5774805"><ele>496.28571428571433</ele><time>2026-05-02T09:36:17.208Z</time></trkpt><trkpt lat="43.3518006" lon="12.5775593"><ele>496.14285714285717</ele><time>2026-05-02T09:36:22.157Z</time></trkpt><trkpt lat="43.3518003" lon="12.5776499"><ele>496.0</ele><time>2026-05-02T09:36:30.189Z</time></trkpt><trkpt lat="43.3517872" lon="12.5777471"><ele>496.00000000000006</ele><time>2026-05-02T09:36:37.206Z</time></trkpt><trkpt lat="43.3518389" lon="12.5778157"><ele>496.0</ele><time>2026-05-02T09:36:42.197Z</time></trkpt><trkpt lat="43.351876" lon="12.5778884"><ele>496.0</ele><time>2026-05-02T09:36:49.191Z</time></trkpt><trkpt lat="43.351901" lon="12.5779773"><ele>496.0</ele><time>2026-05-02T09:36:54.197Z</time></trkpt><trkpt lat="43.3519405" lon="12.5780585"><ele>496.00000000000006</ele><time>2026-05-02T09:37:01.193Z</time></trkpt><trkpt lat="43.3520446" lon="12.5782096"><ele>496.0</ele><time>2026-05-02T09:37:25.203Z</time></trkpt><trkpt lat="43.3520717" lon="12.5782917"><ele>496.7142857142857</ele><time>2026-05-02T09:37:35.184Z</time></trkpt><trkpt lat="43.3520887" lon="12.5783899"><ele>497.42857142857144</ele><time>2026-05-02T09:37:44.181Z</time></trkpt><trkpt lat="43.3521156" lon="12.5784746"><ele>498.14285714285717</ele><time>2026-05-02T09:37:52.183Z</time></trkpt><trkpt lat="43.3521382" lon="12.5785589"><ele>498.8571428571429</ele><time>2026-05-02T09:38:00.202Z</time></trkpt><trkpt lat="43.3521948" lon="12.5786069"><ele>499.57142857142856</ele><time>2026-05-02T09:38:08.209Z</time></trkpt><trkpt lat="43.3522432" lon="12.5786682"><ele>500.28571428571433</ele><time>2026-05-02T09:38:15.185Z</time></trkpt><trkpt lat="43.3522894" lon="12.578728"><ele>501.0</ele><time>2026-05-02T09:38:25.201Z</time></trkpt><trkpt lat="43.3523387" lon="12.5787859"><ele>503.0</ele><time>2026-05-02T09:38:31.148Z</time></trkpt><trkpt lat="43.35239" lon="12.578845"><ele>505.0</ele><time>2026-05-02T09:38:39.198Z</time></trkpt><trkpt lat="43.3524323" lon="12.5789113"><ele>507.0</ele><time>2026-05-02T09:38:46.19Z</time></trkpt><trkpt lat="43.352472" lon="12.5789875"><ele>509.0</ele><time>2026-05-02T09:39:48.201Z</time></trkpt><trkpt lat="43.3525358" lon="12.5790036"><ele>511.0</ele><time>2026-05-02T09:40:03.166Z</time></trkpt><trkpt lat="43.352585" lon="12.5790704"><ele>513.0</ele><time>2026-05-02T09:40:11.23Z</time></trkpt><trkpt lat="43.3526331" lon="12.5791364"><ele>515.0</ele><time>2026-05-02T09:40:22.195Z</time></trkpt><trkpt lat="43.352687" lon="12.5791864"><ele>515.0</ele><time>2026-05-02T09:40:30.198Z</time></trkpt><trkpt lat="43.3527371" lon="12.5792465"><ele>515.0</ele><time>2026-05-02T09:40:38.187Z</time></trkpt><trkpt lat="43.3527998" lon="12.5793618"><ele>515.0</ele><time>2026-05-02T09:41:14.684Z</time></trkpt><trkpt lat="43.3528663" lon="12.5793565"><ele>515.0</ele><time>2026-05-02T09:41:21.569Z</time></trkpt><trkpt lat="43.3521774" lon="12.5800257"><ele>515.7142857142858</ele><time>2026-05-02T09:44:07.197Z</time></trkpt><trkpt lat="43.3522284" lon="12.5799721"><ele>516.4285714285714</ele><time>2026-05-02T09:44:11.194Z</time></trkpt><trkpt lat="43.3521987" lon="12.5798903"><ele>517.1428571428571</ele><time>2026-05-02T09:44:17.202Z</time></trkpt><trkpt lat="43.3522701" lon="12.579859"><ele>517.8571428571429</ele><time>2026-05-02T09:44:24.195Z</time></trkpt><trkpt lat="43.3523389" lon="12.5798396"><ele>518.5714285714286</ele><time>2026-05-02T09:44:32.192Z</time></trkpt><trkpt lat="43.3524123" lon="12.5798238"><ele>519.2857142857143</ele><time>2026-05-02T09:44:35.176Z</time></trkpt><trkpt lat="43.352464" lon="12.5797558"><ele>520.0</ele><time>2026-05-02T09:44:40.195Z</time></trkpt><trkpt lat="43.3525361" lon="12.5797379"><ele>519.2857142857143</ele><time>2026-05-02T09:44:45.212Z</time></trkpt><trkpt lat="43.3525869" lon="12.5796825"><ele>518.5714285714286</ele><time>2026-05-02T09:44:50.199Z</time></trkpt><trkpt lat="43.3525838" lon="12.5795811"><ele>517.8571428571429</ele><time>2026-05-02T09:44:54.205Z</time></trkpt><trkpt lat="43.352651" lon="12.5795399"><ele>517.1428571428571</ele><time>2026-05-02T09:45:25.221Z</time></trkpt><trkpt lat="43.3526998" lon="12.5794169"><ele>516.4285714285714</ele><time>2026-05-02T09:45:31.167Z</time></trkpt><trkpt lat="43.3527509" lon="12.579363"><ele>515.7142857142858</ele><time>2026-05-02T09:45:50.171Z</time></trkpt><trkpt lat="43.3527928" lon="12.5792957"><ele>515.0</ele><time>2026-05-02T09:46:42.213Z</time></trkpt><trkpt lat="43.3528693" lon="12.5790109"><ele>515.0</ele><time>2026-05-02T09:47:43.176Z</time></trkpt><trkpt lat="43.3529402" lon="12.578858"><ele>515.0</ele><time>2026-05-02T09:48:18.186Z</time></trkpt><trkpt lat="43.353002" lon="12.5788285"><ele>515.0</ele><time>2026-05-02T09:48:28.15Z</time></trkpt><trkpt lat="43.3530487" lon="12.5788995"><ele>515.0</ele><time>2026-05-02T09:48:34.127Z</time></trkpt><trkpt lat="43.3530832" lon="12.5789778"><ele>515.0</ele><time>2026-05-02T09:48:38.198Z</time></trkpt><trkpt lat="43.3531274" lon="12.5790512"><ele>515.0</ele><time>2026-05-02T09:48:45.199Z</time></trkpt><trkpt lat="43.3531697" lon="12.5791256"><ele>518.1428571428571</ele><time>2026-05-02T09:48:52.189Z</time></trkpt><trkpt lat="43.3531912" lon="12.5792077"><ele>521.2857142857142</ele><time>2026-05-02T09:48:58.185Z</time></trkpt><trkpt lat="43.3531898" lon="12.5792989"><ele>524.4285714285713</ele><time>2026-05-02T09:49:05.161Z</time></trkpt><trkpt lat="43.3531483" lon="12.5793661"><ele>527.5714285714286</ele><time>2026-05-02T09:49:14.806Z</time></trkpt><trkpt lat="43.3531361" lon="12.5794717"><ele>530.7142857142857</ele><time>2026-05-02T09:49:22.585Z</time></trkpt><trkpt lat="43.3531303" lon="12.5795602"><ele>533.8571428571428</ele><time>2026-05-02T09:49:29.067Z</time></trkpt><trkpt lat="43.3531218" lon="12.5796676"><ele>537.0</ele><time>2026-05-02T09:50:04.827Z</time></trkpt><trkpt lat="43.3530845" lon="12.5797585"><ele>535.9999999999999</ele><time>2026-05-02T09:50:12.767Z</time></trkpt><trkpt lat="43.353025" lon="12.5797938"><ele>535.0</ele><time>2026-05-02T09:50:19.627Z</time></trkpt><trkpt lat="43.3529848" lon="12.5798615"><ele>534.0</ele><time>2026-05-02T09:50:27.184Z</time></trkpt><trkpt lat="43.3529348" lon="12.5799248"><ele>533.0</ele><time>2026-05-02T09:50:40.185Z</time></trkpt><trkpt lat="43.352902" lon="12.5800036"><ele>532.0</ele><time>2026-05-02T09:50:46.17Z</time></trkpt><trkpt lat="43.3528426" lon="12.5800539"><ele>530.9999999999999</ele><time>2026-05-02T09:50:54.178Z</time></trkpt><trkpt lat="43.3527662" lon="12.5800373"><ele>530.0</ele><time>2026-05-02T09:50:59.175Z</time></trkpt><trkpt lat="43.3527248" lon="12.5801686"><ele>530.0</ele><time>2026-05-02T09:51:17.189Z</time></trkpt><trkpt lat="43.3526857" lon="12.5800431"><ele>530.0</ele><time>2026-05-02T09:51:18.174Z</time></trkpt><trkpt lat="43.3526104" lon="12.5799811"><ele>530.0</ele><time>2026-05-02T09:51:26.187Z</time></trkpt><trkpt lat="43.3526107" lon="12.5800993"><ele>530.0</ele><time>2026-05-02T09:51:29.185Z</time></trkpt><trkpt lat="43.352611" lon="12.5802108"><ele>530.0</ele><time>2026-05-02T09:51:32.189Z</time></trkpt><trkpt lat="43.3526197" lon="12.5803352"><ele>530.0</ele><time>2026-05-02T09:51:35.199Z</time></trkpt><trkpt lat="43.3526121" lon="12.5804352"><ele>531.7142857142857</ele><time>2026-05-02T09:52:05.193Z</time></trkpt><trkpt lat="43.3525768" lon="12.5805259"><ele>533.4285714285714</ele><time>2026-05-02T09:52:11.182Z</time></trkpt><trkpt lat="43.3525379" lon="12.5806045"><ele>535.1428571428571</ele><time>2026-05-02T09:52:18.203Z</time></trkpt><trkpt lat="43.3524974" lon="12.5806793"><ele>536.8571428571429</ele><time>2026-05-02T09:52:26.192Z</time></trkpt><trkpt lat="43.352465" lon="12.5807649"><ele>538.5714285714286</ele><time>2026-05-02T09:52:34.19Z</time></trkpt><trkpt lat="43.3524055" lon="12.5808129"><ele>540.2857142857142</ele><time>2026-05-02T09:52:43.189Z</time></trkpt><trkpt lat="43.3523664" lon="12.5808808"><ele>542.0</ele><time>2026-05-02T09:52:48.189Z</time></trkpt><trkpt lat="43.3523065" lon="12.5809314"><ele>542.0</ele><time>2026-05-02T09:52:56.158Z</time></trkpt><trkpt lat="43.3522461" lon="12.5809696"><ele>542.0</ele><time>2026-05-02T09:53:03.106Z</time></trkpt><trkpt lat="43.3522135" lon="12.5810437"><ele>542.0</ele><time>2026-05-02T09:53:11.206Z</time></trkpt><trkpt lat="43.352155" lon="12.5810795"><ele>542.0</ele><time>2026-05-02T09:53:16.166Z</time></trkpt><trkpt lat="43.3521524" lon="12.5811685"><ele>542.0</ele><time>2026-05-02T09:53:21.108Z</time></trkpt><trkpt lat="43.3521073" lon="12.5812392"><ele>542.0</ele><time>2026-05-02T09:53:28.084Z</time></trkpt><trkpt lat="43.3520613" lon="12.5812991"><ele>542.0</ele><time>2026-05-02T09:53:34.198Z</time></trkpt><trkpt lat="43.3520281" lon="12.5813781"><ele>540.4285714285714</ele><time>2026-05-02T09:53:42.141Z</time></trkpt><trkpt lat="43.3519911" lon="12.5814561"><ele>538.8571428571429</ele><time>2026-05-02T09:53:48.128Z</time></trkpt><trkpt lat="43.351963" lon="12.5815385"><ele>537.2857142857143</ele><time>2026-05-02T09:53:56.198Z</time></trkpt><trkpt lat="43.351917" lon="12.581606"><ele>535.7142857142858</ele><time>2026-05-02T09:54:50.178Z</time></trkpt><trkpt lat="43.3518694" lon="12.5816645"><ele>534.1428571428572</ele><time>2026-05-02T09:55:09.196Z</time></trkpt><trkpt lat="43.3518278" lon="12.5817311"><ele>532.5714285714286</ele><time>2026-05-02T09:55:13.196Z</time></trkpt><trkpt lat="43.3517899" lon="12.5818235"><ele>531.0</ele><time>2026-05-02T09:55:19.175Z</time></trkpt><trkpt lat="43.3517578" lon="12.5819035"><ele>531.0</ele><time>2026-05-02T09:55:24.176Z</time></trkpt><trkpt lat="43.3517122" lon="12.5819708"><ele>531.0</ele><time>2026-05-02T09:55:30.185Z</time></trkpt><trkpt lat="43.3516668" lon="12.5820453"><ele>531.0</ele><time>2026-05-02T09:55:37.132Z</time></trkpt><trkpt lat="43.3516192" lon="12.5821111"><ele>531.0</ele><time>2026-05-02T09:55:43.158Z</time></trkpt><trkpt lat="43.3515899" lon="12.5822016"><ele>531.0</ele><time>2026-05-02T09:55:51.158Z</time></trkpt><trkpt lat="43.3515353" lon="12.582268"><ele>531.0</ele><time>2026-05-02T09:55:57.176Z</time></trkpt><trkpt lat="43.3514897" lon="12.5823318"><ele>531.0</ele><time>2026-05-02T09:56:03.147Z</time></trkpt><trkpt lat="43.3514458" lon="12.5824091"><ele>530.8571428571429</ele><time>2026-05-02T09:56:10.172Z</time></trkpt><trkpt lat="43.3514018" lon="12.5824781"><ele>530.7142857142858</ele><time>2026-05-02T09:56:16.189Z</time></trkpt><trkpt lat="43.3513568" lon="12.5825522"><ele>530.5714285714286</ele><time>2026-05-02T09:56:21.18Z</time></trkpt><trkpt lat="43.3513128" lon="12.5826242"><ele>530.4285714285714</ele><time>2026-05-02T09:56:26.203Z</time></trkpt><trkpt lat="43.351258" lon="12.582684"><ele>530.2857142857142</ele><time>2026-05-02T09:56:41.201Z</time></trkpt><trkpt lat="43.3512099" lon="12.5827515"><ele>530.1428571428571</ele><time>2026-05-02T09:56:48.194Z</time></trkpt><trkpt lat="43.3511649" lon="12.5828235"><ele>530.0</ele><time>2026-05-02T09:56:54.174Z</time></trkpt><trkpt lat="43.3511139" lon="12.5828849"><ele>531.1428571428571</ele><time>2026-05-02T09:57:02.2Z</time></trkpt><trkpt lat="43.3510639" lon="12.5829404"><ele>532.2857142857142</ele><time>2026-05-02T09:57:07.207Z</time></trkpt><trkpt lat="43.3510262" lon="12.5830229"><ele>533.4285714285714</ele><time>2026-05-02T09:57:13.192Z</time></trkpt><trkpt lat="43.3509778" lon="12.5831"><ele>534.5714285714286</ele><time>2026-05-02T09:57:20.195Z</time></trkpt><trkpt lat="43.3509247" lon="12.5831565"><ele>535.7142857142858</ele><time>2026-05-02T09:57:26.171Z</time></trkpt><trkpt lat="43.3508702" lon="12.583209"><ele>536.8571428571429</ele><time>2026-05-02T09:57:30.089Z</time></trkpt><trkpt lat="43.3508155" lon="12.5832535"><ele>538.0</ele><time>2026-05-02T09:57:36.197Z</time></trkpt><trkpt lat="43.3508157" lon="12.5833515"><ele>538.0</ele><time>2026-05-02T09:57:46.186Z</time></trkpt><trkpt lat="43.350767" lon="12.5834143"><ele>538.0</ele><time>2026-05-02T09:57:54.232Z</time></trkpt><trkpt lat="43.3507397" lon="12.5834934"><ele>538.0</ele><time>2026-05-02T09:58:00.174Z</time></trkpt><trkpt lat="43.350743" lon="12.5834062"><ele>538.0</ele><time>2026-05-02T09:58:20.188Z</time></trkpt><trkpt lat="43.3507962" lon="12.5833524"><ele>538.0</ele><time>2026-05-02T09:58:29.198Z</time></trkpt><trkpt lat="43.3508455" lon="12.5832871"><ele>538.0</ele><time>2026-05-02T09:58:37.202Z</time></trkpt><trkpt lat="43.350891" lon="12.5832179"><ele>538.0</ele><time>2026-05-02T09:58:45.111Z</time></trkpt><trkpt lat="43.3509418" lon="12.5831526"><ele>538.0</ele><time>2026-05-02T09:58:52.205Z</time></trkpt><trkpt lat="43.3509927" lon="12.5830857"><ele>538.0</ele><time>2026-05-02T09:58:57.171Z</time></trkpt><trkpt lat="43.3510435" lon="12.5830216"><ele>538.0</ele><time>2026-05-02T09:59:03.199Z</time></trkpt><trkpt lat="43.3510975" lon="12.5829477"><ele>538.0</ele><time>2026-05-02T09:59:08.17Z</time></trkpt><trkpt lat="43.3511623" lon="12.5829595"><ele>538.0</ele><time>2026-05-02T09:59:21.193Z</time></trkpt><trkpt lat="43.3512135" lon="12.5830101"><ele>538.0</ele><time>2026-05-02T09:59:28.19Z</time></trkpt><trkpt lat="43.3512617" lon="12.5830673"><ele>538.0</ele><time>2026-05-02T09:59:46.191Z</time></trkpt><trkpt lat="43.3512864" lon="12.583152"><ele>538.0</ele><time>2026-05-02T10:00:01.13Z</time></trkpt><trkpt lat="43.3513297" lon="12.5832156"><ele>538.0</ele><time>2026-05-02T10:00:11.129Z</time></trkpt><trkpt lat="43.3513761" lon="12.5832774"><ele>538.0</ele><time>2026-05-02T10:00:19.19Z</time></trkpt><trkpt lat="43.3514349" lon="12.5833117"><ele>538.0</ele><time>2026-05-02T10:00:26.187Z</time></trkpt><trkpt lat="43.3514917" lon="12.5833593"><ele>538.0</ele><time>2026-05-02T10:00:35.183Z</time></trkpt><trkpt lat="43.3514845" lon="12.5834541"><ele>538.0</ele><time>2026-05-02T10:00:53.129Z</time></trkpt><trkpt lat="43.3515004" lon="12.5835485"><ele>538.0</ele><time>2026-05-02T10:00:59.928Z</time></trkpt><trkpt lat="43.3515198" lon="12.5836312"><ele>540.7142857142858</ele><time>2026-05-02T10:01:03.208Z</time></trkpt><trkpt lat="43.3515854" lon="12.5836548"><ele>543.4285714285714</ele><time>2026-05-02T10:01:08.174Z</time></trkpt><trkpt lat="43.3516513" lon="12.583644"><ele>546.1428571428571</ele><time>2026-05-02T10:01:15.192Z</time></trkpt><trkpt lat="43.3517177" lon="12.5836132"><ele>548.8571428571429</ele><time>2026-05-02T10:01:21.184Z</time></trkpt><trkpt lat="43.3517786" lon="12.5835845"><ele>551.5714285714286</ele><time>2026-05-02T10:01:35.15Z</time></trkpt><trkpt lat="43.3518043" lon="12.5835043"><ele>554.2857142857143</ele><time>2026-05-02T10:01:50.19Z</time></trkpt><trkpt lat="43.3518669" lon="12.583474"><ele>557.0</ele><time>2026-05-02T10:02:00.204Z</time></trkpt><trkpt lat="43.3519279" lon="12.5834289"><ele>557.0</ele><time>2026-05-02T10:02:06.193Z</time></trkpt><trkpt lat="43.3519932" lon="12.5833861"><ele>557.0</ele><time>2026-05-02T10:02:12.175Z</time></trkpt><trkpt lat="43.3520563" lon="12.5833459"><ele>557.0</ele><time>2026-05-02T10:02:19.207Z</time></trkpt><trkpt lat="43.3521219" lon="12.5833294"><ele>557.0</ele><time>2026-05-02T10:02:26.188Z</time></trkpt><trkpt lat="43.3521799" lon="12.5832914"><ele>557.0</ele><time>2026-05-02T10:02:34.169Z</time></trkpt><trkpt lat="43.3522372" lon="12.5832428"><ele>557.0</ele><time>2026-05-02T10:02:43.159Z</time></trkpt><trkpt lat="43.3522955" lon="12.5832101"><ele>557.0</ele><time>2026-05-02T10:02:51.192Z</time></trkpt><trkpt lat="43.3523168" lon="12.5831226"><ele>558.7142857142858</ele><time>2026-05-02T10:02:57.21Z</time></trkpt><trkpt lat="43.3523776" lon="12.5830603"><ele>560.4285714285714</ele><time>2026-05-02T10:03:04.126Z</time></trkpt><trkpt lat="43.3524397" lon="12.5830132"><ele>562.1428571428571</ele><time>2026-05-02T10:03:12.194Z</time></trkpt><trkpt lat="43.3524933" lon="12.5829554"><ele>563.8571428571429</ele><time>2026-05-02T10:03:21.174Z</time></trkpt><trkpt lat="43.3525467" lon="12.5829046"><ele>565.5714285714286</ele><time>2026-05-02T10:03:29.193Z</time></trkpt><trkpt lat="43.3525999" lon="12.5828466"><ele>567.2857142857143</ele><time>2026-05-02T10:03:38.194Z</time></trkpt><trkpt lat="43.3526577" lon="12.5828119"><ele>569.0</ele><time>2026-05-02T10:03:45.194Z</time></trkpt><trkpt lat="43.3527118" lon="12.5827599"><ele>569.0000000000001</ele><time>2026-05-02T10:03:53.201Z</time></trkpt><trkpt lat="43.3527687" lon="12.5827088"><ele>569.0</ele><time>2026-05-02T10:04:02.21Z</time></trkpt><trkpt lat="43.3528258" lon="12.5826667"><ele>569.0</ele><time>2026-05-02T10:04:11.199Z</time></trkpt><trkpt lat="43.352884" lon="12.5826056"><ele>569.0</ele><time>2026-05-02T10:04:29.208Z</time></trkpt><trkpt lat="43.3529415" lon="12.5825479"><ele>569.0</ele><time>2026-05-02T10:04:37.2Z</time></trkpt><trkpt lat="43.3529853" lon="12.5824743"><ele>569.0000000000001</ele><time>2026-05-02T10:04:45.201Z</time></trkpt><trkpt lat="43.3530376" lon="12.5824131"><ele>569.0</ele><time>2026-05-02T10:04:53.204Z</time></trkpt><trkpt lat="43.353096" lon="12.5823664"><ele>574.2857142857143</ele><time>2026-05-02T10:05:02.128Z</time></trkpt><trkpt lat="43.3531456" lon="12.5823109"><ele>579.5714285714286</ele><time>2026-05-02T10:05:10.22Z</time></trkpt><trkpt lat="43.3532007" lon="12.5822542"><ele>584.8571428571429</ele><time>2026-05-02T10:05:18.209Z</time></trkpt><trkpt lat="43.3532566" lon="12.5822103"><ele>590.1428571428571</ele><time>2026-05-02T10:05:25.196Z</time></trkpt><trkpt lat="43.3533057" lon="12.5821532"><ele>595.4285714285714</ele><time>2026-05-02T10:05:32.195Z</time></trkpt><trkpt lat="43.3532828" lon="12.5822378"><ele>600.7142857142858</ele><time>2026-05-02T10:05:47.164Z</time></trkpt><trkpt lat="43.3532263" lon="12.582278"><ele>606.0</ele><time>2026-05-02T10:05:57.181Z</time></trkpt><trkpt lat="43.3532011" lon="12.582361"><ele>606.0</ele><time>2026-05-02T10:06:13.163Z</time></trkpt><trkpt lat="43.3531903" lon="12.5824521"><ele>606.0</ele><time>2026-05-02T10:06:21.201Z</time></trkpt><trkpt lat="43.3532441" lon="12.5823768"><ele>606.0</ele><time>2026-05-02T10:07:35.161Z</time></trkpt><trkpt lat="43.3532503" lon="12.5822839"><ele>606.0</ele><time>2026-05-02T10:07:41.171Z</time></trkpt><trkpt lat="43.3532456" lon="12.5821943"><ele>606.0</ele><time>2026-05-02T10:07:47.16Z</time></trkpt><trkpt lat="43.3532803" lon="12.5821082"><ele>606.0</ele><time>2026-05-02T10:07:55.163Z</time></trkpt><trkpt lat="43.3533386" lon="12.5820503"><ele>606.0</ele><time>2026-05-02T10:08:03.167Z</time></trkpt><trkpt lat="43.3533698" lon="12.5819617"><ele>602.8571428571429</ele><time>2026-05-02T10:08:11.13Z</time></trkpt><trkpt lat="43.3533705" lon="12.581864"><ele>599.7142857142857</ele><time>2026-05-02T10:08:19.129Z</time></trkpt><trkpt lat="43.3533759" lon="12.5817631"><ele>596.5714285714286</ele><time>2026-05-02T10:08:25.191Z</time></trkpt><trkpt lat="43.3533761" lon="12.5816751"><ele>593.4285714285714</ele><time>2026-05-02T10:08:34.158Z</time></trkpt><trkpt lat="43.3533809" lon="12.5815827"><ele>590.2857142857143</ele><time>2026-05-02T10:08:43.165Z</time></trkpt><trkpt lat="43.3534053" lon="12.5815006"><ele>587.1428571428571</ele><time>2026-05-02T10:08:50.17Z</time></trkpt><trkpt lat="43.3534126" lon="12.5814094"><ele>584.0</ele><time>2026-05-02T10:08:57.183Z</time></trkpt><trkpt lat="43.3534315" lon="12.5813175"><ele>584.0</ele><time>2026-05-02T10:09:03.206Z</time></trkpt><trkpt lat="43.3534534" lon="12.581234"><ele>584.0</ele><time>2026-05-02T10:09:10.209Z</time></trkpt><trkpt lat="43.3534795" lon="12.5811492"><ele>584.0</ele><time>2026-05-02T10:09:18.205Z</time></trkpt><trkpt lat="43.3535094" lon="12.5810557"><ele>584.0</ele><time>2026-05-02T10:09:24.156Z</time></trkpt><trkpt lat="43.3535295" lon="12.5809707"><ele>584.0</ele><time>2026-05-02T10:09:29.201Z</time></trkpt><trkpt lat="43.3535459" lon="12.5808851"><ele>584.0</ele><time>2026-05-02T10:09:36.166Z</time></trkpt><trkpt lat="43.3535684" lon="12.5807938"><ele>584.0</ele><time>2026-05-02T10:09:44.204Z</time></trkpt><trkpt lat="43.3535854" lon="12.580706"><ele>581.5714285714286</ele><time>2026-05-02T10:10:20.195Z</time></trkpt><trkpt lat="43.3536207" lon="12.5806257"><ele>579.1428571428571</ele><time>2026-05-02T10:10:26.194Z</time></trkpt><trkpt lat="43.353665" lon="12.580546"><ele>576.7142857142858</ele><time>2026-05-02T10:10:33.215Z</time></trkpt><trkpt lat="43.3537033" lon="12.5804652"><ele>574.2857142857142</ele><time>2026-05-02T10:10:39.995Z</time></trkpt><trkpt lat="43.353744" lon="12.5803934"><ele>571.8571428571429</ele><time>2026-05-02T10:10:48.209Z</time></trkpt><trkpt lat="43.3537736" lon="12.5803163"><ele>569.4285714285714</ele><time>2026-05-02T10:10:56.204Z</time></trkpt><trkpt lat="43.3538219" lon="12.5802488"><ele>567.0</ele><time>2026-05-02T10:11:02.18Z</time></trkpt><trkpt lat="43.3538536" lon="12.5801671"><ele>568.8571428571429</ele><time>2026-05-02T10:11:08.193Z</time></trkpt><trkpt lat="43.3538844" lon="12.5800783"><ele>570.7142857142858</ele><time>2026-05-02T10:11:15.169Z</time></trkpt><trkpt lat="43.353916" lon="12.5800007"><ele>572.5714285714286</ele><time>2026-05-02T10:11:22.112Z</time></trkpt><trkpt lat="43.3539552" lon="12.5799328"><ele>574.4285714285714</ele><time>2026-05-02T10:11:33.204Z</time></trkpt><trkpt lat="43.3539031" lon="12.5798778"><ele>576.2857142857143</ele><time>2026-05-02T10:11:50.093Z</time></trkpt><trkpt lat="43.3539094" lon="12.5799886"><ele>578.1428571428571</ele><time>2026-05-02T10:12:19.185Z</time></trkpt><trkpt lat="43.3539244" lon="12.5798955"><ele>580.0</ele><time>2026-05-02T10:12:33.194Z</time></trkpt><trkpt lat="43.3538913" lon="12.579817"><ele>576.1428571428571</ele><time>2026-05-02T10:12:40.198Z</time></trkpt><trkpt lat="43.3538268" lon="12.5798401"><ele>572.2857142857143</ele><time>2026-05-02T10:12:51.181Z</time></trkpt><trkpt lat="43.3537548" lon="12.5798111"><ele>568.4285714285714</ele><time>2026-05-02T10:12:59.112Z</time></trkpt><trkpt lat="43.3537121" lon="12.5797343"><ele>564.5714285714286</ele><time>2026-05-02T10:13:04.171Z</time></trkpt><trkpt lat="43.3536738" lon="12.5796634"><ele>560.7142857142858</ele><time>2026-05-02T10:13:10.212Z</time></trkpt><trkpt lat="43.3536825" lon="12.5795657"><ele>556.8571428571429</ele><time>2026-05-02T10:13:38.168Z</time></trkpt><trkpt lat="43.3537068" lon="12.579479"><ele>553.0</ele><time>2026-05-02T10:13:42.189Z</time></trkpt><trkpt lat="43.3536797" lon="12.5793978"><ele>553.0</ele><time>2026-05-02T10:13:57.205Z</time></trkpt><trkpt lat="43.35362" lon="12.5793446"><ele>553.0</ele><time>2026-05-02T10:14:03.194Z</time></trkpt><trkpt lat="43.3535796" lon="12.5792752"><ele>553.0</ele><time>2026-05-02T10:15:00.119Z</time></trkpt><trkpt lat="43.3536366" lon="12.5793344"><ele>553.0</ele><time>2026-05-02T10:15:07.197Z</time></trkpt><trkpt lat="43.3536822" lon="12.5794044"><ele>553.0</ele><time>2026-05-02T10:15:16.199Z</time></trkpt><trkpt lat="43.3537256" lon="12.5794716"><ele>553.0</ele><time>2026-05-02T10:15:22.184Z</time></trkpt><trkpt lat="43.3537344" lon="12.5795648"><ele>553.0</ele><time>2026-05-02T10:15:36.753Z</time></trkpt><trkpt lat="43.3537951" lon="12.5795278"><ele>554.5</ele><time>2026-05-02T10:15:50.738Z</time></trkpt><trkpt lat="43.3538441" lon="12.5794517"><ele>556.0</ele><time>2026-05-02T10:15:55.42Z</time></trkpt><trkpt lat="43.354045" lon="12.579283"><ele>557.5</ele><time>2026-05-02T10:16:29.193Z</time></trkpt><trkpt lat="43.3540414" lon="12.579174"><ele>559.0</ele><time>2026-05-02T10:16:38.174Z</time></trkpt><trkpt lat="43.3540767" lon="12.5790909"><ele>559.0</ele><time>2026-05-02T10:16:42.197Z</time></trkpt><trkpt lat="43.354118" lon="12.5790177"><ele>559.0</ele><time>2026-05-02T10:16:47.186Z</time></trkpt><trkpt lat="43.3541548" lon="12.5789379"><ele>559.0</ele><time>2026-05-02T10:16:54.207Z</time></trkpt><trkpt lat="43.3541839" lon="12.5788515"><ele>559.0</ele><time>2026-05-02T10:17:00.198Z</time></trkpt><trkpt lat="43.3542194" lon="12.5787703"><ele>559.0</ele><time>2026-05-02T10:17:05.201Z</time></trkpt><trkpt lat="43.3542646" lon="12.5787051"><ele>559.0</ele><time>2026-05-02T10:17:12.198Z</time></trkpt><trkpt lat="43.3543149" lon="12.5786423"><ele>559.0</ele><time>2026-05-02T10:17:19.191Z</time></trkpt><trkpt lat="43.3543309" lon="12.5785576"><ele>556.4285714285714</ele><time>2026-05-02T10:17:30.177Z</time></trkpt><trkpt lat="43.3543806" lon="12.5784597"><ele>553.8571428571429</ele><time>2026-05-02T10:17:48.199Z</time></trkpt><trkpt lat="43.3544174" lon="12.5783892"><ele>551.2857142857143</ele><time>2026-05-02T10:17:53.199Z</time></trkpt><trkpt lat="43.3544585" lon="12.5783107"><ele>548.7142857142858</ele><time>2026-05-02T10:18:00.19Z</time></trkpt><trkpt lat="43.3544947" lon="12.5782385"><ele>546.1428571428571</ele><time>2026-05-02T10:18:08.205Z</time></trkpt><trkpt lat="43.354521" lon="12.5781562"><ele>543.5714285714287</ele><time>2026-05-02T10:18:17.18Z</time></trkpt><trkpt lat="43.3545488" lon="12.5780767"><ele>541.0</ele><time>2026-05-02T10:18:26.194Z</time></trkpt><trkpt lat="43.3545663" lon="12.5779865"><ele>541.0000000000001</ele><time>2026-05-02T10:18:33.209Z</time></trkpt><trkpt lat="43.3545637" lon="12.5778864"><ele>541.0</ele><time>2026-05-02T10:18:40.216Z</time></trkpt><trkpt lat="43.3545668" lon="12.577787"><ele>541.0</ele><time>2026-05-02T10:18:47.187Z</time></trkpt><trkpt lat="43.3545402" lon="12.577705"><ele>541.0</ele><time>2026-05-02T10:18:53.197Z</time></trkpt><trkpt lat="43.3545361" lon="12.5776162"><ele>541.0</ele><time>2026-05-02T10:18:59.201Z</time></trkpt><trkpt lat="43.354576" lon="12.5775314"><ele>541.0000000000001</ele><time>2026-05-02T10:19:05.08Z</time></trkpt><trkpt lat="43.3546165" lon="12.5774583"><ele>541.0</ele><time>2026-05-02T10:19:12.186Z</time></trkpt><trkpt lat="43.354618" lon="12.5773635"><ele>540.7142857142858</ele><time>2026-05-02T10:19:36.182Z</time></trkpt><trkpt lat="43.3546732" lon="12.5773049"><ele>540.4285714285714</ele><time>2026-05-02T10:19:43.177Z</time></trkpt><trkpt lat="43.354728" lon="12.5772419"><ele>540.1428571428571</ele><time>2026-05-02T10:19:49.198Z</time></trkpt><trkpt lat="43.3547877" lon="12.5771969"><ele>539.8571428571429</ele><time>2026-05-02T10:19:54.202Z</time></trkpt><trkpt lat="43.3548457" lon="12.5771408"><ele>539.5714285714286</ele><time>2026-05-02T10:20:04.214Z</time></trkpt><trkpt lat="43.3548756" lon="12.5770618"><ele>539.2857142857143</ele><time>2026-05-02T10:20:11.208Z</time></trkpt><trkpt lat="43.3548312" lon="12.5769999"><ele>539.0</ele><time>2026-05-02T10:20:16.203Z</time></trkpt><trkpt lat="43.3547724" lon="12.5769629"><ele>535.4285714285714</ele><time>2026-05-02T10:20:23.193Z</time></trkpt><trkpt lat="43.3547135" lon="12.5769246"><ele>531.8571428571429</ele><time>2026-05-02T10:20:29.159Z</time></trkpt><trkpt lat="43.3546483" lon="12.5768846"><ele>528.2857142857142</ele><time>2026-05-02T10:20:35.186Z</time></trkpt><trkpt lat="43.3545774" lon="12.5768573"><ele>524.7142857142858</ele><time>2026-05-02T10:20:41.198Z</time></trkpt><trkpt lat="43.3545063" lon="12.5768403"><ele>521.1428571428571</ele><time>2026-05-02T10:20:47.171Z</time></trkpt><trkpt lat="43.3545171" lon="12.5767445"><ele>517.5714285714286</ele><time>2026-05-02T10:21:19.204Z</time></trkpt><trkpt lat="43.3545281" lon="12.5766579"><ele>514.0</ele><time>2026-05-02T10:21:23.203Z</time></trkpt><trkpt lat="43.3545478" lon="12.5765675"><ele>513.4285714285714</ele><time>2026-05-02T10:21:28.169Z</time></trkpt><trkpt lat="43.3545646" lon="12.5764795"><ele>512.8571428571429</ele><time>2026-05-02T10:21:32.196Z</time></trkpt><trkpt lat="43.3545727" lon="12.5763914"><ele>512.2857142857143</ele><time>2026-05-02T10:21:35.163Z</time></trkpt><trkpt lat="43.3545786" lon="12.5763002"><ele>511.7142857142857</ele><time>2026-05-02T10:21:40.163Z</time></trkpt><trkpt lat="43.3545815" lon="12.576404"><ele>511.1428571428572</ele><time>2026-05-02T10:22:29.455Z</time></trkpt><trkpt lat="43.3546308" lon="12.5764697"><ele>510.5714285714286</ele><time>2026-05-02T10:22:49.22Z</time></trkpt><trkpt lat="43.3546331" lon="12.5763826"><ele>510.0</ele><time>2026-05-02T10:24:06.918Z</time></trkpt><trkpt lat="43.3545762" lon="12.5763253"><ele>510.0</ele><time>2026-05-02T10:28:00.957Z</time></trkpt><trkpt lat="43.3545583" lon="12.5762345"><ele>510.00000000000006</ele><time>2026-05-02T10:28:06.637Z</time></trkpt><trkpt lat="43.3545576" lon="12.5761412"><ele>510.0</ele><time>2026-05-02T10:28:12.236Z</time></trkpt><trkpt lat="43.3545878" lon="12.5760448"><ele>510.0</ele><time>2026-05-02T10:28:17.82Z</time></trkpt><trkpt lat="43.3546566" lon="12.5760269"><ele>510.00000000000006</ele><time>2026-05-02T10:28:30.191Z</time></trkpt><trkpt lat="43.3547194" lon="12.5760391"><ele>510.0</ele><time>2026-05-02T10:28:36.035Z</time></trkpt><trkpt lat="43.3547778" lon="12.5761141"><ele>510.0</ele><time>2026-05-02T10:28:39.189Z</time></trkpt><trkpt lat="43.3548394" lon="12.5761636"><ele>509.8571428571429</ele><time>2026-05-02T10:28:43.188Z</time></trkpt><trkpt lat="43.3548493" lon="12.5760711"><ele>509.7142857142858</ele><time>2026-05-02T10:29:05.192Z</time></trkpt><trkpt lat="43.3547623" lon="12.5759928"><ele>509.57142857142856</ele><time>2026-05-02T10:32:08.171Z</time></trkpt><trkpt lat="43.3546951" lon="12.5760002"><ele>509.42857142857144</ele><time>2026-05-02T10:39:18.186Z</time></trkpt><trkpt lat="43.3546291" lon="12.5759825"><ele>509.2857142857143</ele><time>2026-05-02T10:39:31.175Z</time></trkpt><trkpt lat="43.3546186" lon="12.5758929"><ele>509.1428571428571</ele><time>2026-05-02T10:39:40.197Z</time></trkpt><trkpt lat="43.3546211" lon="12.5758042"><ele>508.99999999999994</ele><time>2026-05-02T10:40:02.383Z</time></trkpt><trkpt lat="43.3547828" lon="12.5757282"><ele>508.99999999999994</ele><time>2026-05-02T10:42:34.772Z</time></trkpt><trkpt lat="43.3547108" lon="12.575715"><ele>509.0</ele><time>2026-05-02T10:43:44.379Z</time></trkpt><trkpt lat="43.354645" lon="12.5757099"><ele>508.99999999999994</ele><time>2026-05-02T10:43:49.113Z</time></trkpt><trkpt lat="43.35459" lon="12.5757683"><ele>508.99999999999994</ele><time>2026-05-02T10:43:55.035Z</time></trkpt><trkpt lat="43.3545236" lon="12.5758078"><ele>509.0</ele><time>2026-05-02T10:44:00.753Z</time></trkpt><trkpt lat="43.3545636" lon="12.5757353"><ele>508.99999999999994</ele><time>2026-05-02T10:44:11.031Z</time></trkpt><trkpt lat="43.3545765" lon="12.575622"><ele>508.99999999999994</ele><time>2026-05-02T10:44:14.171Z</time></trkpt><trkpt lat="43.3545761" lon="12.5754826"><ele>508.8571428571428</ele><time>2026-05-02T10:44:16.175Z</time></trkpt><trkpt lat="43.3545621" lon="12.5753969"><ele>508.71428571428567</ele><time>2026-05-02T10:44:24.187Z</time></trkpt><trkpt lat="43.3545186" lon="12.5753288"><ele>508.57142857142856</ele><time>2026-05-02T10:44:40.196Z</time></trkpt><trkpt lat="43.3544706" lon="12.5752607"><ele>508.4285714285714</ele><time>2026-05-02T10:45:04.177Z</time></trkpt><trkpt lat="43.354412" lon="12.5752271"><ele>508.2857142857142</ele><time>2026-05-02T10:45:08.116Z</time></trkpt><trkpt lat="43.3543505" lon="12.5751939"><ele>508.14285714285717</ele><time>2026-05-02T10:45:15.148Z</time></trkpt><trkpt lat="43.3542826" lon="12.5751856"><ele>508.0</ele><time>2026-05-02T10:45:23.159Z</time></trkpt><trkpt lat="43.3542194" lon="12.5751433"><ele>508.0</ele><time>2026-05-02T10:45:30.18Z</time></trkpt><trkpt lat="43.3541559" lon="12.575108"><ele>508.0</ele><time>2026-05-02T10:45:36.199Z</time></trkpt><trkpt lat="43.3540939" lon="12.5750865"><ele>508.0</ele><time>2026-05-02T10:45:44.185Z</time></trkpt><trkpt lat="43.3540322" lon="12.5750559"><ele>508.0</ele><time>2026-05-02T10:45:50.183Z</time></trkpt><trkpt lat="43.3539723" lon="12.5750153"><ele>508.0</ele><time>2026-05-02T10:45:56.193Z</time></trkpt><trkpt lat="43.3539007" lon="12.5749758"><ele>508.0</ele><time>2026-05-02T10:46:02.183Z</time></trkpt><trkpt lat="43.3538415" lon="12.5749414"><ele>508.0</ele><time>2026-05-02T10:46:08.196Z</time></trkpt><trkpt lat="43.3537888" lon="12.5748894"><ele>507.8571428571429</ele><time>2026-05-02T10:46:13.185Z</time></trkpt><trkpt lat="43.3537288" lon="12.5748429"><ele>507.71428571428567</ele><time>2026-05-02T10:46:22.183Z</time></trkpt><trkpt lat="43.3536713" lon="12.5747968"><ele>507.57142857142856</ele><time>2026-05-02T10:46:30.211Z</time></trkpt><trkpt lat="43.3536042" lon="12.5747477"><ele>507.42857142857144</ele><time>2026-05-02T10:46:39.17Z</time></trkpt><trkpt lat="43.3535478" lon="12.5747092"><ele>507.28571428571433</ele><time>2026-05-02T10:46:46.201Z</time></trkpt><trkpt lat="43.3534847" lon="12.5747391"><ele>507.1428571428571</ele><time>2026-05-02T10:46:52.2Z</time></trkpt><trkpt lat="43.3534398" lon="12.5748226"><ele>507.0</ele><time>2026-05-02T10:46:59.207Z</time></trkpt><trkpt lat="43.3534116" lon="12.5749057"><ele>507.0</ele><time>2026-05-02T10:47:05.202Z</time></trkpt><trkpt lat="43.3533858" lon="12.5749882"><ele>507.0</ele><time>2026-05-02T10:47:11.188Z</time></trkpt><trkpt lat="43.353348" lon="12.5750669"><ele>507.0</ele><time>2026-05-02T10:47:18.182Z</time></trkpt><trkpt lat="43.35331" lon="12.5751472"><ele>507.0</ele><time>2026-05-02T10:47:24.195Z</time></trkpt><trkpt lat="43.353267" lon="12.5752291"><ele>507.0</ele><time>2026-05-02T10:47:30.198Z</time></trkpt><trkpt lat="43.353225" lon="12.5753044"><ele>507.0</ele><time>2026-05-02T10:47:36.181Z</time></trkpt><trkpt lat="43.3531798" lon="12.5753815"><ele>507.0</ele><time>2026-05-02T10:47:42.199Z</time></trkpt><trkpt lat="43.3531422" lon="12.575454"><ele>506.42857142857144</ele><time>2026-05-02T10:47:55.196Z</time></trkpt><trkpt lat="43.3530922" lon="12.5755136"><ele>505.8571428571429</ele><time>2026-05-02T10:48:02.19Z</time></trkpt><trkpt lat="43.3530589" lon="12.5755887"><ele>505.28571428571433</ele><time>2026-05-02T10:48:07.191Z</time></trkpt><trkpt lat="43.3530291" lon="12.5756653"><ele>504.7142857142857</ele><time>2026-05-02T10:48:14.23Z</time></trkpt><trkpt lat="43.3529948" lon="12.575739"><ele>504.1428571428572</ele><time>2026-05-02T10:48:22.192Z</time></trkpt><trkpt lat="43.3529534" lon="12.5758147"><ele>503.5714285714286</ele><time>2026-05-02T10:48:29.205Z</time></trkpt><trkpt lat="43.3529102" lon="12.5758901"><ele>503.0</ele><time>2026-05-02T10:48:37.211Z</time></trkpt><trkpt lat="43.3528743" lon="12.5759639"><ele>503.0</ele><time>2026-05-02T10:48:43.207Z</time></trkpt><trkpt lat="43.3528483" lon="12.5760438"><ele>503.00000000000006</ele><time>2026-05-02T10:48:50.195Z</time></trkpt><trkpt lat="43.3528188" lon="12.5761204"><ele>503.0</ele><time>2026-05-02T10:48:57.214Z</time></trkpt><trkpt lat="43.3528017" lon="12.5762078"><ele>503.0</ele><time>2026-05-02T10:49:03.214Z</time></trkpt><trkpt lat="43.3527776" lon="12.5763029"><ele>503.00000000000006</ele><time>2026-05-02T10:49:10.197Z</time></trkpt><trkpt lat="43.3527496" lon="12.576382"><ele>503.0</ele><time>2026-05-02T10:49:16.216Z</time></trkpt><trkpt lat="43.352682" lon="12.5763926"><ele>503.0</ele><time>2026-05-02T10:49:24.17Z</time></trkpt><trkpt lat="43.3526787" lon="12.5763021"><ele>502.42857142857144</ele><time>2026-05-02T10:49:30.198Z</time></trkpt><trkpt lat="43.3526258" lon="12.576255"><ele>501.8571428571429</ele><time>2026-05-02T10:49:36.205Z</time></trkpt><trkpt lat="43.3525718" lon="12.5763039"><ele>501.28571428571433</ele><time>2026-05-02T10:49:42.204Z</time></trkpt><trkpt lat="43.35251" lon="12.5762767"><ele>500.7142857142858</ele><time>2026-05-02T10:49:50.153Z</time></trkpt><trkpt lat="43.3524464" lon="12.5762561"><ele>500.14285714285717</ele><time>2026-05-02T10:49:58.187Z</time></trkpt><trkpt lat="43.3524025" lon="12.5763244"><ele>499.57142857142867</ele><time>2026-05-02T10:50:05.153Z</time></trkpt><trkpt lat="43.3523344" lon="12.5763679"><ele>499.00000000000006</ele><time>2026-05-02T10:50:18.215Z</time></trkpt><trkpt lat="43.352271" lon="12.5763672"><ele>499.1428571428572</ele><time>2026-05-02T10:50:23.21Z</time></trkpt><trkpt lat="43.3522044" lon="12.5763516"><ele>499.28571428571433</ele><time>2026-05-02T10:50:28.209Z</time></trkpt><trkpt lat="43.3521347" lon="12.5763499"><ele>499.42857142857144</ele><time>2026-05-02T10:50:35.198Z</time></trkpt><trkpt lat="43.352078" lon="12.5763064"><ele>499.5714285714286</ele><time>2026-05-02T10:50:43.185Z</time></trkpt><trkpt lat="43.3520301" lon="12.576246"><ele>499.7142857142858</ele><time>2026-05-02T10:50:49.131Z</time></trkpt><trkpt lat="43.3519746" lon="12.5762049"><ele>499.85714285714283</ele><time>2026-05-02T10:50:55.17Z</time></trkpt><trkpt lat="43.3519093" lon="12.5761654"><ele>500.0</ele><time>2026-05-02T10:51:01.166Z</time></trkpt><trkpt lat="43.3518572" lon="12.5761016"><ele>500.0</ele><time>2026-05-02T10:51:08.169Z</time></trkpt><trkpt lat="43.3518278" lon="12.5760191"><ele>500.0</ele><time>2026-05-02T10:51:14.171Z</time></trkpt><trkpt lat="43.3517577" lon="12.5759445"><ele>500.0</ele><time>2026-05-02T10:52:16.173Z</time></trkpt><trkpt lat="43.3517767" lon="12.5760331"><ele>500.0</ele><time>2026-05-02T10:58:41.219Z</time></trkpt><trkpt lat="43.3518451" lon="12.5760796"><ele>500.0</ele><time>2026-05-02T10:58:46.209Z</time></trkpt><trkpt lat="43.3518981" lon="12.5761445"><ele>500.0</ele><time>2026-05-02T10:58:52.215Z</time></trkpt><trkpt lat="43.3519516" lon="12.5762022"><ele>500.0</ele><time>2026-05-02T10:58:59.214Z</time></trkpt><trkpt lat="43.3520146" lon="12.57625"><ele>500.0</ele><time>2026-05-02T10:59:06.185Z</time></trkpt><trkpt lat="43.3520602" lon="12.5763106"><ele>500.0</ele><time>2026-05-02T10:59:11.212Z</time></trkpt><trkpt lat="43.3521241" lon="12.5763544"><ele>500.0</ele><time>2026-05-02T10:59:18.201Z</time></trkpt><trkpt lat="43.352195" lon="12.5763205"><ele>500.0</ele><time>2026-05-02T10:59:23.2Z</time></trkpt><trkpt lat="43.3521794" lon="12.5762323"><ele>500.0</ele><time>2026-05-02T11:07:21.194Z</time></trkpt><trkpt lat="43.3521635" lon="12.5761353"><ele>500.0</ele><time>2026-05-02T11:07:29.204Z</time></trkpt><trkpt lat="43.3521004" lon="12.5761331"><ele>500.0</ele><time>2026-05-02T11:07:35.161Z</time></trkpt><trkpt lat="43.3520344" lon="12.5761698"><ele>499.99999999999994</ele><time>2026-05-02T11:07:42.225Z</time></trkpt><trkpt lat="43.3519675" lon="12.5761784"><ele>500.0</ele><time>2026-05-02T11:07:50.202Z</time></trkpt><trkpt lat="43.3519001" lon="12.5761598"><ele>500.0</ele><time>2026-05-02T11:07:59.214Z</time></trkpt><trkpt lat="43.3518593" lon="12.5760878"><ele>500.0</ele><time>2026-05-02T11:08:06.112Z</time></trkpt><trkpt lat="43.3517938" lon="12.5760563"><ele>499.99999999999994</ele><time>2026-05-02T11:08:12.176Z</time></trkpt><trkpt lat="43.3519061" lon="12.5762269"><ele>500.0</ele><time>2026-05-02T11:17:07.168Z</time></trkpt><trkpt lat="43.3518843" lon="12.5763786"><ele>499.4</ele><time>2026-05-02T11:17:09.177Z</time></trkpt><trkpt lat="43.3518527" lon="12.5764724"><ele>498.8</ele><time>2026-05-02T11:17:10.165Z</time></trkpt><trkpt lat="43.351801" lon="12.5766145"><ele>498.20000000000005</ele><time>2026-05-02T11:17:12.172Z</time></trkpt><trkpt lat="43.3517603" lon="12.5767467"><ele>497.6</ele><time>2026-05-02T11:17:14.182Z</time></trkpt><trkpt lat="43.3517249" lon="12.5768676"><ele>497.0</ele><time>2026-05-02T11:17:16.19Z</time></trkpt><trkpt lat="43.3516766" lon="12.5769776"><ele>497.0</ele><time>2026-05-02T11:17:18.166Z</time></trkpt><trkpt lat="43.3515819" lon="12.5770051"><ele>497.00000000000006</ele><time>2026-05-02T11:17:20.188Z</time></trkpt><trkpt lat="43.3515065" lon="12.5769968"><ele>497.00000000000006</ele><time>2026-05-02T11:17:22.18Z</time></trkpt><trkpt lat="43.3513765" lon="12.5769215"><ele>497.0</ele><time>2026-05-02T11:17:24.174Z</time></trkpt><trkpt lat="43.3512835" lon="12.5768675"><ele>497.0</ele><time>2026-05-02T11:17:25.186Z</time></trkpt><trkpt lat="43.3511938" lon="12.5768238"><ele>496.3333333333333</ele><time>2026-05-02T11:17:26.19Z</time></trkpt><trkpt lat="43.351111" lon="12.5767903"><ele>495.66666666666663</ele><time>2026-05-02T11:17:27.183Z</time></trkpt><trkpt lat="43.3510326" lon="12.5767675"><ele>495.0</ele><time>2026-05-02T11:17:28.196Z</time></trkpt><trkpt lat="43.3509599" lon="12.5767684"><ele>494.33333333333337</ele><time>2026-05-02T11:17:29.203Z</time></trkpt><trkpt lat="43.3508905" lon="12.5767726"><ele>493.6666666666667</ele><time>2026-05-02T11:17:30.198Z</time></trkpt><trkpt lat="43.3507946" lon="12.5767575"><ele>493.0</ele><time>2026-05-02T11:17:32.18Z</time></trkpt><trkpt lat="43.3507038" lon="12.5766939"><ele>493.0</ele><time>2026-05-02T11:17:34.162Z</time></trkpt><trkpt lat="43.35062" lon="12.5766043"><ele>492.99999999999994</ele><time>2026-05-02T11:17:36.183Z</time></trkpt><trkpt lat="43.3506032" lon="12.5765208"><ele>492.99999999999994</ele><time>2026-05-02T11:17:37.187Z</time></trkpt><trkpt lat="43.3506619" lon="12.5763778"><ele>493.0</ele><time>2026-05-02T11:17:39.157Z</time></trkpt><trkpt lat="43.350739" lon="12.576228"><ele>493.0</ele><time>2026-05-02T11:17:41.166Z</time></trkpt><trkpt lat="43.3507675" lon="12.5761447"><ele>493.1666666666667</ele><time>2026-05-02T11:17:42.169Z</time></trkpt><trkpt lat="43.3508005" lon="12.576064"><ele>493.33333333333337</ele><time>2026-05-02T11:17:43.17Z</time></trkpt><trkpt lat="43.3508397" lon="12.5759752"><ele>493.5</ele><time>2026-05-02T11:17:44.164Z</time></trkpt><trkpt lat="43.3508933" lon="12.5758879"><ele>493.66666666666663</ele><time>2026-05-02T11:17:45.157Z</time></trkpt><trkpt lat="43.3509424" lon="12.5758072"><ele>493.8333333333333</ele><time>2026-05-02T11:17:46.164Z</time></trkpt><trkpt lat="43.3509964" lon="12.5757339"><ele>494.0</ele><time>2026-05-02T11:17:47.162Z</time></trkpt><trkpt lat="43.3510558" lon="12.5756577"><ele>493.99999999999994</ele><time>2026-05-02T11:17:48.171Z</time></trkpt><trkpt lat="43.3511209" lon="12.5755784"><ele>494.0</ele><time>2026-05-02T11:17:49.156Z</time></trkpt><trkpt lat="43.3511831" lon="12.5754925"><ele>494.0</ele><time>2026-05-02T11:17:50.162Z</time></trkpt><trkpt lat="43.3512447" lon="12.5754081"><ele>494.0</ele><time>2026-05-02T11:17:51.173Z</time></trkpt><trkpt lat="43.3513182" lon="12.5753357"><ele>493.99999999999994</ele><time>2026-05-02T11:17:52.18Z</time></trkpt><trkpt lat="43.3513989" lon="12.5752786"><ele>494.0</ele><time>2026-05-02T11:17:53.163Z</time></trkpt><trkpt lat="43.3514764" lon="12.5752216"><ele>494.0</ele><time>2026-05-02T11:17:54.172Z</time></trkpt><trkpt lat="43.3515619" lon="12.5751659"><ele>494.0</ele><time>2026-05-02T11:17:55.165Z</time></trkpt><trkpt lat="43.3516496" lon="12.5751139"><ele>494.0</ele><time>2026-05-02T11:17:56.156Z</time></trkpt><trkpt lat="43.3517383" lon="12.5750612"><ele>494.0</ele><time>2026-05-02T11:17:57.182Z</time></trkpt><trkpt lat="43.3518244" lon="12.5750133"><ele>494.0</ele><time>2026-05-02T11:17:58.171Z</time></trkpt><trkpt lat="43.3519084" lon="12.5749612"><ele>494.0</ele><time>2026-05-02T11:17:59.153Z</time></trkpt><trkpt lat="43.3520002" lon="12.5749043"><ele>494.0</ele><time>2026-05-02T11:18:00.177Z</time></trkpt><trkpt lat="43.3520908" lon="12.5748506"><ele>494.0</ele><time>2026-05-02T11:18:01.175Z</time></trkpt><trkpt lat="43.3521785" lon="12.5747968"><ele>494.0</ele><time>2026-05-02T11:18:02.155Z</time></trkpt><trkpt lat="43.3522649" lon="12.5747497"><ele>494.0</ele><time>2026-05-02T11:18:03.165Z</time></trkpt><trkpt lat="43.3523522" lon="12.5747024"><ele>494.6</ele><time>2026-05-02T11:18:04.181Z</time></trkpt><trkpt lat="43.3524413" lon="12.5746528"><ele>495.2</ele><time>2026-05-02T11:18:05.18Z</time></trkpt><trkpt lat="43.3525251" lon="12.5746133"><ele>495.80000000000007</ele><time>2026-05-02T11:18:06.183Z</time></trkpt><trkpt lat="43.3526096" lon="12.5745676"><ele>496.40000000000003</ele><time>2026-05-02T11:18:07.163Z</time></trkpt><trkpt lat="43.3526904" lon="12.5745218"><ele>497.0</ele><time>2026-05-02T11:18:08.172Z</time></trkpt><trkpt lat="43.3527787" lon="12.5744731"><ele>496.99999999999994</ele><time>2026-05-02T11:18:09.158Z</time></trkpt><trkpt lat="43.3528654" lon="12.5744189"><ele>497.0</ele><time>2026-05-02T11:18:10.175Z</time></trkpt><trkpt lat="43.3529512" lon="12.5743742"><ele>497.0</ele><time>2026-05-02T11:18:11.19Z</time></trkpt><trkpt lat="43.3530209" lon="12.5743181"><ele>497.0</ele><time>2026-05-02T11:18:12.171Z</time></trkpt><trkpt lat="43.353082" lon="12.5742613"><ele>496.99999999999994</ele><time>2026-05-02T11:18:13.158Z</time></trkpt><trkpt lat="43.3531366" lon="12.5741949"><ele>497.0</ele><time>2026-05-02T11:18:14.179Z</time></trkpt><trkpt lat="43.3531914" lon="12.5741345"><ele>497.8333333333333</ele><time>2026-05-02T11:18:15.177Z</time></trkpt><trkpt lat="43.3532478" lon="12.574082"><ele>498.66666666666663</ele><time>2026-05-02T11:18:16.199Z</time></trkpt><trkpt lat="43.3533434" lon="12.5740062"><ele>499.5</ele><time>2026-05-02T11:18:18.183Z</time></trkpt><trkpt lat="43.3534129" lon="12.5739494"><ele>500.33333333333337</ele><time>2026-05-02T11:18:20.169Z</time></trkpt><trkpt lat="43.3534672" lon="12.5738955"><ele>501.1666666666667</ele><time>2026-05-02T11:18:22.192Z</time></trkpt><trkpt lat="43.3535234" lon="12.5738402"><ele>502.0</ele><time>2026-05-02T11:18:24.194Z</time></trkpt><trkpt lat="43.3535806" lon="12.5737719"><ele>502.00000000000006</ele><time>2026-05-02T11:18:26.191Z</time></trkpt><trkpt lat="43.3536404" lon="12.5737308"><ele>502.0</ele><time>2026-05-02T11:18:28.175Z</time></trkpt><trkpt lat="43.3537041" lon="12.5736816"><ele>502.0</ele><time>2026-05-02T11:18:30.171Z</time></trkpt><trkpt lat="43.3537803" lon="12.5736115"><ele>502.0</ele><time>2026-05-02T11:18:32.171Z</time></trkpt><trkpt lat="43.3538497" lon="12.5735401"><ele>502.00000000000006</ele><time>2026-05-02T11:18:34.194Z</time></trkpt><trkpt lat="43.353929" lon="12.5734813"><ele>502.0</ele><time>2026-05-02T11:18:37.185Z</time></trkpt><trkpt lat="43.3540101" lon="12.5734136"><ele>501.33333333333337</ele><time>2026-05-02T11:18:40.178Z</time></trkpt><trkpt lat="43.3541179" lon="12.5733178"><ele>500.6666666666667</ele><time>2026-05-02T11:18:42.193Z</time></trkpt><trkpt lat="43.3541781" lon="12.5732631"><ele>500.0</ele><time>2026-05-02T11:18:43.181Z</time></trkpt><trkpt lat="43.3542404" lon="12.5732012"><ele>499.33333333333337</ele><time>2026-05-02T11:18:44.183Z</time></trkpt><trkpt lat="43.3542937" lon="12.573146"><ele>498.6666666666667</ele><time>2026-05-02T11:18:45.193Z</time></trkpt><trkpt lat="43.3543825" lon="12.5730705"><ele>498.0</ele><time>2026-05-02T11:18:47.172Z</time></trkpt><trkpt lat="43.3544644" lon="12.5729969"><ele>498.0</ele><time>2026-05-02T11:18:49.186Z</time></trkpt><trkpt lat="43.3545467" lon="12.5729253"><ele>498.0</ele><time>2026-05-02T11:18:51.178Z</time></trkpt><trkpt lat="43.3546526" lon="12.5728475"><ele>498.0</ele><time>2026-05-02T11:18:53.184Z</time></trkpt><trkpt lat="43.3547197" lon="12.5728095"><ele>498.0</ele><time>2026-05-02T11:18:54.2Z</time></trkpt><trkpt lat="43.3547865" lon="12.5727835"><ele>498.0</ele><time>2026-05-02T11:18:55.202Z</time></trkpt><trkpt lat="43.3548513" lon="12.5727732"><ele>498.0</ele><time>2026-05-02T11:18:56.201Z</time></trkpt><trkpt lat="43.3549184" lon="12.5727726"><ele>499.0</ele><time>2026-05-02T11:18:57.172Z</time></trkpt><trkpt lat="43.3549853" lon="12.5727694"><ele>500.0</ele><time>2026-05-02T11:18:58.192Z</time></trkpt><trkpt lat="43.3551144" lon="12.5727812"><ele>501.0</ele><time>2026-05-02T11:19:00.185Z</time></trkpt><trkpt lat="43.3551814" lon="12.5728002"><ele>502.0</ele><time>2026-05-02T11:19:01.19Z</time></trkpt><trkpt lat="43.3552471" lon="12.5728415"><ele>503.0</ele><time>2026-05-02T11:19:02.19Z</time></trkpt><trkpt lat="43.3553076" lon="12.5729047"><ele>504.0</ele><time>2026-05-02T11:19:50.174Z</time></trkpt><trkpt lat="43.3553657" lon="12.5730246"><ele>504.0</ele><time>2026-05-02T11:19:52.186Z</time></trkpt><trkpt lat="43.3554383" lon="12.5731607"><ele>504.0</ele><time>2026-05-02T11:19:54.171Z</time></trkpt><trkpt lat="43.3554842" lon="12.5732372"><ele>504.0</ele><time>2026-05-02T11:19:55.181Z</time></trkpt><trkpt lat="43.3555382" lon="12.5733143"><ele>504.0</ele><time>2026-05-02T11:19:56.191Z</time></trkpt><trkpt lat="43.3555785" lon="12.5733966"><ele>504.0</ele><time>2026-05-02T11:19:57.185Z</time></trkpt><trkpt lat="43.3556185" lon="12.5734865"><ele>504.0</ele><time>2026-05-02T11:19:58.176Z</time></trkpt><trkpt lat="43.3556589" lon="12.5735683"><ele>505.0</ele><time>2026-05-02T11:19:59.19Z</time></trkpt><trkpt lat="43.3556979" lon="12.573647"><ele>506.0</ele><time>2026-05-02T11:20:00.192Z</time></trkpt><trkpt lat="43.355739" lon="12.5737923"><ele>507.0</ele><time>2026-05-02T11:20:02.187Z</time></trkpt><trkpt lat="43.3557917" lon="12.5739096"><ele>508.0</ele><time>2026-05-02T11:20:04.174Z</time></trkpt><trkpt lat="43.3559011" lon="12.5739898"><ele>509.0</ele><time>2026-05-02T11:20:06.191Z</time></trkpt><trkpt lat="43.3559718" lon="12.5740452"><ele>508.99999999999994</ele><time>2026-05-02T11:20:07.187Z</time></trkpt><trkpt lat="43.3560271" lon="12.5741161"><ele>509.0</ele><time>2026-05-02T11:20:08.188Z</time></trkpt><trkpt lat="43.3560653" lon="12.5742084"><ele>509.0</ele><time>2026-05-02T11:20:09.186Z</time></trkpt><trkpt lat="43.3561106" lon="12.5743204"><ele>509.0</ele><time>2026-05-02T11:20:10.182Z</time></trkpt><trkpt lat="43.3561542" lon="12.5744299"><ele>508.99999999999994</ele><time>2026-05-02T11:20:11.189Z</time></trkpt><trkpt lat="43.356202" lon="12.5745549"><ele>509.0</ele><time>2026-05-02T11:20:12.192Z</time></trkpt><trkpt lat="43.3562626" lon="12.5746873"><ele>509.75</ele><time>2026-05-02T11:20:13.192Z</time></trkpt><trkpt lat="43.3563203" lon="12.5748391"><ele>510.5</ele><time>2026-05-02T11:20:14.193Z</time></trkpt><trkpt lat="43.3563737" lon="12.5749923"><ele>511.25</ele><time>2026-05-02T11:20:15.186Z</time></trkpt><trkpt lat="43.3564245" lon="12.5751457"><ele>512.0</ele><time>2026-05-02T11:20:16.188Z</time></trkpt><trkpt lat="43.3564634" lon="12.5752913"><ele>513.6</ele><time>2026-05-02T11:20:17.194Z</time></trkpt><trkpt lat="43.3564917" lon="12.5754319"><ele>515.2</ele><time>2026-05-02T11:20:18.162Z</time></trkpt><trkpt lat="43.356526" lon="12.5755645"><ele>516.8</ele><time>2026-05-02T11:20:19.161Z</time></trkpt><trkpt lat="43.3565626" lon="12.5756984"><ele>518.4</ele><time>2026-05-02T11:20:20.192Z</time></trkpt><trkpt lat="43.3565981" lon="12.5758184"><ele>520.0</ele><time>2026-05-02T11:20:21.178Z</time></trkpt><trkpt lat="43.3566321" lon="12.5759261"><ele>520.0</ele><time>2026-05-02T11:20:22.186Z</time></trkpt><trkpt lat="43.356682" lon="12.5760109"><ele>520.0</ele><time>2026-05-02T11:20:23.199Z</time></trkpt><trkpt lat="43.3567454" lon="12.5760891"><ele>520.0</ele><time>2026-05-02T11:20:24.175Z</time></trkpt><trkpt lat="43.3568269" lon="12.5761478"><ele>520.0</ele><time>2026-05-02T11:20:25.181Z</time></trkpt><trkpt lat="43.3569212" lon="12.5761893"><ele>520.0</ele><time>2026-05-02T11:20:26.189Z</time></trkpt><trkpt lat="43.357017" lon="12.5762306"><ele>520.6</ele><time>2026-05-02T11:20:27.194Z</time></trkpt><trkpt lat="43.3571205" lon="12.5762795"><ele>521.2</ele><time>2026-05-02T11:20:28.188Z</time></trkpt><trkpt lat="43.3572143" lon="12.5763291"><ele>521.8</ele><time>2026-05-02T11:20:29.188Z</time></trkpt><trkpt lat="43.3573119" lon="12.5763825"><ele>522.4</ele><time>2026-05-02T11:20:30.185Z</time></trkpt><trkpt lat="43.3574097" lon="12.5764342"><ele>523.0</ele><time>2026-05-02T11:20:31.191Z</time></trkpt><trkpt lat="43.3575139" lon="12.5764853"><ele>523.0</ele><time>2026-05-02T11:20:32.187Z</time></trkpt><trkpt lat="43.3576183" lon="12.576543"><ele>523.0</ele><time>2026-05-02T11:20:33.196Z</time></trkpt><trkpt lat="43.3577102" lon="12.5766077"><ele>523.0</ele><time>2026-05-02T11:20:34.183Z</time></trkpt><trkpt lat="43.3577937" lon="12.5766876"><ele>523.0</ele><time>2026-05-02T11:20:35.194Z</time></trkpt><trkpt lat="43.3578731" lon="12.5767945"><ele>523.0</ele><time>2026-05-02T11:20:36.193Z</time></trkpt><trkpt lat="43.3579599" lon="12.5769258"><ele>524.25</ele><time>2026-05-02T11:20:37.182Z</time></trkpt><trkpt lat="43.3580398" lon="12.5770715"><ele>525.5</ele><time>2026-05-02T11:20:38.184Z</time></trkpt><trkpt lat="43.358119" lon="12.5772377"><ele>526.75</ele><time>2026-05-02T11:20:39.188Z</time></trkpt><trkpt lat="43.3582002" lon="12.5774043"><ele>528.0</ele><time>2026-05-02T11:20:40.19Z</time></trkpt><trkpt lat="43.3582797" lon="12.5775773"><ele>528.0</ele><time>2026-05-02T11:20:41.179Z</time></trkpt><trkpt lat="43.3583618" lon="12.5777468"><ele>528.0</ele><time>2026-05-02T11:20:42.177Z</time></trkpt><trkpt lat="43.358446" lon="12.577911"><ele>528.0</ele><time>2026-05-02T11:20:43.176Z</time></trkpt><trkpt lat="43.3585313" lon="12.5780704"><ele>528.0</ele><time>2026-05-02T11:20:44.152Z</time></trkpt><trkpt lat="43.3586167" lon="12.5782417"><ele>528.0</ele><time>2026-05-02T11:20:45.177Z</time></trkpt><trkpt lat="43.3586993" lon="12.5784103"><ele>528.0</ele><time>2026-05-02T11:20:46.207Z</time></trkpt><trkpt lat="43.3587807" lon="12.5785751"><ele>528.0</ele><time>2026-05-02T11:20:47.192Z</time></trkpt><trkpt lat="43.3588581" lon="12.5787443"><ele>528.0</ele><time>2026-05-02T11:20:48.185Z</time></trkpt><trkpt lat="43.3589251" lon="12.5789179"><ele>529.25</ele><time>2026-05-02T11:20:49.167Z</time></trkpt><trkpt lat="43.3589908" lon="12.5790881"><ele>530.5</ele><time>2026-05-02T11:20:50.193Z</time></trkpt><trkpt lat="43.3590503" lon="12.5792416"><ele>531.75</ele><time>2026-05-02T11:20:51.173Z</time></trkpt><trkpt lat="43.3591093" lon="12.5793856"><ele>533.0</ele><time>2026-05-02T11:20:52.174Z</time></trkpt><trkpt lat="43.3591793" lon="12.5795247"><ele>546.5</ele><time>2026-05-02T11:20:53.176Z</time></trkpt><trkpt lat="43.3592613" lon="12.579661"><ele>560.0</ele><time>2026-05-02T11:20:54.192Z</time></trkpt><trkpt lat="43.3593567" lon="12.5797941"><ele>573.5</ele><time>2026-05-02T11:20:55.171Z</time></trkpt><trkpt lat="43.359479" lon="12.5798747"><ele>587.0</ele><time>2026-05-02T11:20:56.178Z</time></trkpt><trkpt lat="43.359618" lon="12.5799325"><ele>576.25</ele><time>2026-05-02T11:20:57.18Z</time></trkpt><trkpt lat="43.3597432" lon="12.5799982"><ele>565.5</ele><time>2026-05-02T11:20:58.168Z</time></trkpt><trkpt lat="43.3598688" lon="12.5800715"><ele>554.75</ele><time>2026-05-02T11:20:59.181Z</time></trkpt><trkpt lat="43.3599937" lon="12.5801458"><ele>544.0</ele><time>2026-05-02T11:21:00.171Z</time></trkpt><trkpt lat="43.3601153" lon="12.5802274"><ele>544.0</ele><time>2026-05-02T11:21:01.183Z</time></trkpt><trkpt lat="43.3602259" lon="12.5803175"><ele>544.0</ele><time>2026-05-02T11:21:02.179Z</time></trkpt><trkpt lat="43.3603388" lon="12.5804227"><ele>544.0</ele><time>2026-05-02T11:21:03.171Z</time></trkpt><trkpt lat="43.3604324" lon="12.5805529"><ele>544.0</ele><time>2026-05-02T11:21:04.154Z</time></trkpt><trkpt lat="43.3605091" lon="12.5807125"><ele>546.0</ele><time>2026-05-02T11:21:05.156Z</time></trkpt><trkpt lat="43.3605839" lon="12.5808706"><ele>548.0</ele><time>2026-05-02T11:21:06.177Z</time></trkpt><trkpt lat="43.3606731" lon="12.5810217"><ele>550.0</ele><time>2026-05-02T11:21:07.154Z</time></trkpt><trkpt lat="43.3607873" lon="12.581149"><ele>552.0</ele><time>2026-05-02T11:21:08.155Z</time></trkpt><trkpt lat="43.3609212" lon="12.5812543"><ele>552.25</ele><time>2026-05-02T11:21:09.16Z</time></trkpt><trkpt lat="43.3610512" lon="12.5813516"><ele>552.5</ele><time>2026-05-02T11:21:10.164Z</time></trkpt><trkpt lat="43.3611782" lon="12.5814538"><ele>552.75</ele><time>2026-05-02T11:21:11.147Z</time></trkpt><trkpt lat="43.3613093" lon="12.5815653"><ele>553.0</ele><time>2026-05-02T11:21:12.158Z</time></trkpt><trkpt lat="43.3614426" lon="12.581674"><ele>553.0</ele><time>2026-05-02T11:21:13.151Z</time></trkpt><trkpt lat="43.3615755" lon="12.5817921"><ele>553.0</ele><time>2026-05-02T11:21:14.162Z</time></trkpt><trkpt lat="43.3617094" lon="12.5819158"><ele>553.0</ele><time>2026-05-02T11:21:15.174Z</time></trkpt><trkpt lat="43.3618365" lon="12.5820515"><ele>561.3333333333334</ele><time>2026-05-02T11:21:16.164Z</time></trkpt><trkpt lat="43.3619573" lon="12.5821922"><ele>569.6666666666666</ele><time>2026-05-02T11:21:17.17Z</time></trkpt><trkpt lat="43.3620815" lon="12.5823266"><ele>578.0</ele><time>2026-05-02T11:21:18.152Z</time></trkpt><trkpt lat="43.3621975" lon="12.5824554"><ele>573.75</ele><time>2026-05-02T11:21:19.17Z</time></trkpt><trkpt lat="43.3623087" lon="12.5825716"><ele>569.5</ele><time>2026-05-02T11:21:20.171Z</time></trkpt><trkpt lat="43.362418" lon="12.5826716"><ele>565.25</ele><time>2026-05-02T11:21:21.159Z</time></trkpt><trkpt lat="43.3625398" lon="12.5827574"><ele>561.0</ele><time>2026-05-02T11:21:22.176Z</time></trkpt><trkpt lat="43.3626683" lon="12.5828318"><ele>564.25</ele><time>2026-05-02T11:21:23.167Z</time></trkpt><trkpt lat="43.3627959" lon="12.5829216"><ele>567.5</ele><time>2026-05-02T11:21:24.171Z</time></trkpt><trkpt lat="43.362924" lon="12.5830078"><ele>570.75</ele><time>2026-05-02T11:21:25.168Z</time></trkpt><trkpt lat="43.3630497" lon="12.5830958"><ele>574.0</ele><time>2026-05-02T11:21:26.165Z</time></trkpt><trkpt lat="43.3631729" lon="12.5831751"><ele>574.0</ele><time>2026-05-02T11:21:27.173Z</time></trkpt><trkpt lat="43.3633027" lon="12.5832388"><ele>574.0</ele><time>2026-05-02T11:21:28.169Z</time></trkpt><trkpt lat="43.3634349" lon="12.5832605"><ele>574.0</ele><time>2026-05-02T11:21:29.156Z</time></trkpt><trkpt lat="43.3635716" lon="12.583229"><ele>574.0</ele><time>2026-05-02T11:21:30.176Z</time></trkpt><trkpt lat="43.3636937" lon="12.5831498"><ele>574.0</ele><time>2026-05-02T11:21:31.146Z</time></trkpt><trkpt lat="43.3638193" lon="12.5830366"><ele>574.0</ele><time>2026-05-02T11:21:32.154Z</time></trkpt><trkpt lat="43.363939" lon="12.5829277"><ele>574.0</ele><time>2026-05-02T11:21:33.167Z</time></trkpt><trkpt lat="43.3640703" lon="12.5828456"><ele>574.0</ele><time>2026-05-02T11:21:34.166Z</time></trkpt><trkpt lat="43.3642088" lon="12.5828218"><ele>572.75</ele><time>2026-05-02T11:21:35.184Z</time></trkpt><trkpt lat="43.3643578" lon="12.5828445"><ele>571.5</ele><time>2026-05-02T11:21:36.177Z</time></trkpt><trkpt lat="43.3645044" lon="12.5828947"><ele>570.25</ele><time>2026-05-02T11:21:37.174Z</time></trkpt><trkpt lat="43.3646469" lon="12.5829266"><ele>569.0</ele><time>2026-05-02T11:21:38.175Z</time></trkpt><trkpt lat="43.3647824" lon="12.5829321"><ele>572.6666666666666</ele><time>2026-05-02T11:21:39.19Z</time></trkpt><trkpt lat="43.3649274" lon="12.5828866"><ele>576.3333333333334</ele><time>2026-05-02T11:21:40.16Z</time></trkpt><trkpt lat="43.3650654" lon="12.5828029"><ele>580.0</ele><time>2026-05-02T11:21:41.164Z</time></trkpt><trkpt lat="43.3652074" lon="12.5826948"><ele>580.0</ele><time>2026-05-02T11:21:42.179Z</time></trkpt><trkpt lat="43.3653419" lon="12.5825987"><ele>580.0</ele><time>2026-05-02T11:21:43.186Z</time></trkpt><trkpt lat="43.3654835" lon="12.5825243"><ele>580.0</ele><time>2026-05-02T11:21:44.173Z</time></trkpt><trkpt lat="43.3656288" lon="12.5825001"><ele>580.0</ele><time>2026-05-02T11:21:45.155Z</time></trkpt><trkpt lat="43.3657686" lon="12.5825472"><ele>582.0</ele><time>2026-05-02T11:21:46.19Z</time></trkpt><trkpt lat="43.365908" lon="12.5826052"><ele>584.0</ele><time>2026-05-02T11:21:47.159Z</time></trkpt><trkpt lat="43.3660412" lon="12.5826952"><ele>586.0</ele><time>2026-05-02T11:21:48.17Z</time></trkpt><trkpt lat="43.3661646" lon="12.5828147"><ele>588.0</ele><time>2026-05-02T11:21:49.196Z</time></trkpt><trkpt lat="43.366271" lon="12.5829586"><ele>591.75</ele><time>2026-05-02T11:21:50.183Z</time></trkpt><trkpt lat="43.3663805" lon="12.5830896"><ele>595.5</ele><time>2026-05-02T11:21:51.194Z</time></trkpt><trkpt lat="43.3665015" lon="12.5831886"><ele>599.25</ele><time>2026-05-02T11:21:52.172Z</time></trkpt><trkpt lat="43.3666539" lon="12.5832355"><ele>603.0</ele><time>2026-05-02T11:21:53.184Z</time></trkpt><trkpt lat="43.3668017" lon="12.5832709"><ele>603.0</ele><time>2026-05-02T11:21:54.196Z</time></trkpt><trkpt lat="43.3669466" lon="12.583288"><ele>603.0</ele><time>2026-05-02T11:21:55.196Z</time></trkpt><trkpt lat="43.3670969" lon="12.5833063"><ele>603.0</ele><time>2026-05-02T11:21:56.187Z</time></trkpt><trkpt lat="43.3672436" lon="12.5833294"><ele>603.0</ele><time>2026-05-02T11:21:57.197Z</time></trkpt><trkpt lat="43.3673969" lon="12.5833778"><ele>603.5</ele><time>2026-05-02T11:21:58.183Z</time></trkpt><trkpt lat="43.3675315" lon="12.583451"><ele>604.0</ele><time>2026-05-02T11:21:59.188Z</time></trkpt><trkpt lat="43.3676548" lon="12.5835503"><ele>604.5</ele><time>2026-05-02T11:22:00.181Z</time></trkpt><trkpt lat="43.3677762" lon="12.5836494"><ele>605.0</ele><time>2026-05-02T11:22:01.185Z</time></trkpt><trkpt lat="43.3678899" lon="12.5837541"><ele>605.0</ele><time>2026-05-02T11:22:02.183Z</time></trkpt><trkpt lat="43.3679952" lon="12.5838951"><ele>605.0</ele><time>2026-05-02T11:22:03.179Z</time></trkpt><trkpt lat="43.368053" lon="12.5840906"><ele>605.0</ele><time>2026-05-02T11:22:04.178Z</time></trkpt><trkpt lat="43.3680883" lon="12.5843106"><ele>611.0</ele><time>2026-05-02T11:22:05.188Z</time></trkpt><trkpt lat="43.3681419" lon="12.5845183"><ele>617.0</ele><time>2026-05-02T11:22:06.195Z</time></trkpt><trkpt lat="43.3681927" lon="12.5847301"><ele>623.0</ele><time>2026-05-02T11:22:07.176Z</time></trkpt><trkpt lat="43.3682095" lon="12.5849628"><ele>623.0</ele><time>2026-05-02T11:22:08.185Z</time></trkpt><trkpt lat="43.3681844" lon="12.5852014"><ele>623.0</ele><time>2026-05-02T11:22:09.19Z</time></trkpt><trkpt lat="43.3681442" lon="12.5854396"><ele>623.0</ele><time>2026-05-02T11:22:10.181Z</time></trkpt><trkpt lat="43.3680966" lon="12.5856655"><ele>624.3333333333333</ele><time>2026-05-02T11:22:11.193Z</time></trkpt><trkpt lat="43.368039" lon="12.5858972"><ele>625.6666666666666</ele><time>2026-05-02T11:22:12.197Z</time></trkpt><trkpt lat="43.3679766" lon="12.5861228"><ele>627.0</ele><time>2026-05-02T11:22:13.186Z</time></trkpt><trkpt lat="43.3679073" lon="12.5863244"><ele>629.75</ele><time>2026-05-02T11:22:14.182Z</time></trkpt><trkpt lat="43.3678436" lon="12.5865132"><ele>632.5</ele><time>2026-05-02T11:22:15.158Z</time></trkpt><trkpt lat="43.3677929" lon="12.5866922"><ele>635.25</ele><time>2026-05-02T11:22:16.191Z</time></trkpt><trkpt lat="43.3677797" lon="12.5868714"><ele>638.0</ele><time>2026-05-02T11:22:17.208Z</time></trkpt><trkpt lat="43.3677969" lon="12.587067"><ele>638.0</ele><time>2026-05-02T11:22:18.183Z</time></trkpt><trkpt lat="43.3678511" lon="12.5872525"><ele>638.0</ele><time>2026-05-02T11:22:19.167Z</time></trkpt><trkpt lat="43.3679238" lon="12.5873998"><ele>638.0</ele><time>2026-05-02T11:22:20.186Z</time></trkpt><trkpt lat="43.3680175" lon="12.5875161"><ele>638.0</ele><time>2026-05-02T11:22:21.183Z</time></trkpt><trkpt lat="43.3681232" lon="12.587617"><ele>635.25</ele><time>2026-05-02T11:22:22.193Z</time></trkpt><trkpt lat="43.3682463" lon="12.5877051"><ele>632.5</ele><time>2026-05-02T11:22:23.185Z</time></trkpt><trkpt lat="43.3683569" lon="12.5877922"><ele>629.75</ele><time>2026-05-02T11:22:24.192Z</time></trkpt><trkpt lat="43.3684453" lon="12.5878792"><ele>627.0</ele><time>2026-05-02T11:22:25.196Z</time></trkpt><trkpt lat="43.3685301" lon="12.58796"><ele>627.0</ele><time>2026-05-02T11:22:26.176Z</time></trkpt><trkpt lat="43.3685876" lon="12.5880627"><ele>627.0</ele><time>2026-05-02T11:22:27.187Z</time></trkpt><trkpt lat="43.3686295" lon="12.5881838"><ele>627.0</ele><time>2026-05-02T11:22:28.192Z</time></trkpt><trkpt lat="43.3686457" lon="12.5883226"><ele>627.0</ele><time>2026-05-02T11:22:29.184Z</time></trkpt><trkpt lat="43.3686476" lon="12.5884446"><ele>627.0</ele><time>2026-05-02T11:22:30.18Z</time></trkpt><trkpt lat="43.368643" lon="12.588555"><ele>627.0</ele><time>2026-05-02T11:22:31.19Z</time></trkpt><trkpt lat="43.3686117" lon="12.5886722"><ele>627.0</ele><time>2026-05-02T11:22:33.192Z</time></trkpt><trkpt lat="43.3685391" lon="12.5885212"><ele>627.0</ele><time>2026-05-02T11:22:36.183Z</time></trkpt><trkpt lat="43.3685278" lon="12.5884042"><ele>627.0</ele><time>2026-05-02T11:22:37.192Z</time></trkpt><trkpt lat="43.3685057" lon="12.5882893"><ele>627.0</ele><time>2026-05-02T11:22:38.186Z</time></trkpt><trkpt lat="43.3684896" lon="12.5881835"><ele>627.0</ele><time>2026-05-02T11:22:39.19Z</time></trkpt><trkpt lat="43.3684408" lon="12.5880912"><ele>627.0</ele><time>2026-05-02T11:22:40.18Z</time></trkpt><trkpt lat="43.3683392" lon="12.5880207"><ele>627.0</ele><time>2026-05-02T11:22:41.198Z</time></trkpt><trkpt lat="43.3682201" lon="12.5879701"><ele>627.0</ele><time>2026-05-02T11:22:42.19Z</time></trkpt><trkpt lat="43.368095" lon="12.5879352"><ele>627.0</ele><time>2026-05-02T11:22:43.198Z</time></trkpt><trkpt lat="43.3679702" lon="12.5879126"><ele>629.2</ele><time>2026-05-02T11:22:44.188Z</time></trkpt><trkpt lat="43.3678506" lon="12.5878821"><ele>631.4000000000001</ele><time>2026-05-02T11:22:45.186Z</time></trkpt><trkpt lat="43.3677555" lon="12.5878487"><ele>633.5999999999999</ele><time>2026-05-02T11:22:46.193Z</time></trkpt><trkpt lat="43.3676699" lon="12.5878222"><ele>635.8</ele><time>2026-05-02T11:22:47.203Z</time></trkpt><trkpt lat="43.3675968" lon="12.5878252"><ele>638.0</ele><time>2026-05-02T11:22:48.161Z</time></trkpt><trkpt lat="43.3675425" lon="12.5879634"><ele>642.8</ele><time>2026-05-02T11:22:50.183Z</time></trkpt><trkpt lat="43.3676152" lon="12.5881056"><ele>647.5999999999999</ele><time>2026-05-02T11:22:52.19Z</time></trkpt><trkpt lat="43.3676748" lon="12.5881386"><ele>652.4000000000001</ele><time>2026-05-02T11:22:53.187Z</time></trkpt><trkpt lat="43.3677736" lon="12.5881559"><ele>657.2</ele><time>2026-05-02T11:22:54.185Z</time></trkpt><trkpt lat="43.3678925" lon="12.588174"><ele>662.0</ele><time>2026-05-02T11:22:55.16Z</time></trkpt><trkpt lat="43.3679939" lon="12.5882236"><ele>657.6</ele><time>2026-05-02T11:22:56.183Z</time></trkpt><trkpt lat="43.3680748" lon="12.5883127"><ele>653.2</ele><time>2026-05-02T11:22:57.196Z</time></trkpt><trkpt lat="43.3681425" lon="12.5884161"><ele>648.8</ele><time>2026-05-02T11:22:58.188Z</time></trkpt><trkpt lat="43.3681651" lon="12.5885221"><ele>644.4</ele><time>2026-05-02T11:22:59.193Z</time></trkpt><trkpt lat="43.3681588" lon="12.5886639"><ele>640.0</ele><time>2026-05-02T11:23:00.185Z</time></trkpt><trkpt lat="43.3681506" lon="12.5888173"><ele>640.0</ele><time>2026-05-02T11:23:01.177Z</time></trkpt><trkpt lat="43.3681248" lon="12.5889964"><ele>640.0</ele><time>2026-05-02T11:23:02.181Z</time></trkpt><trkpt lat="43.3681007" lon="12.5891921"><ele>640.0</ele><time>2026-05-02T11:23:03.191Z</time></trkpt><trkpt lat="43.3680821" lon="12.5893855"><ele>640.0</ele><time>2026-05-02T11:23:04.201Z</time></trkpt><trkpt lat="43.3680838" lon="12.5895793"><ele>643.0</ele><time>2026-05-02T11:23:05.177Z</time></trkpt><trkpt lat="43.3681031" lon="12.5897586"><ele>646.0</ele><time>2026-05-02T11:23:06.17Z</time></trkpt><trkpt lat="43.368135" lon="12.5899203"><ele>649.0</ele><time>2026-05-02T11:23:07.186Z</time></trkpt><trkpt lat="43.3681815" lon="12.5900737"><ele>652.0</ele><time>2026-05-02T11:23:08.181Z</time></trkpt><trkpt lat="43.3682287" lon="12.5902223"><ele>652.25</ele><time>2026-05-02T11:23:09.177Z</time></trkpt><trkpt lat="43.3682759" lon="12.5903812"><ele>652.5</ele><time>2026-05-02T11:23:10.182Z</time></trkpt><trkpt lat="43.3683039" lon="12.5905448"><ele>652.75</ele><time>2026-05-02T11:23:11.182Z</time></trkpt><trkpt lat="43.3683063" lon="12.5907128"><ele>653.0</ele><time>2026-05-02T11:23:12.191Z</time></trkpt><trkpt lat="43.3682879" lon="12.5908608"><ele>653.0</ele><time>2026-05-02T11:23:13.188Z</time></trkpt><trkpt lat="43.368239" lon="12.5909805"><ele>653.0</ele><time>2026-05-02T11:23:14.179Z</time></trkpt><trkpt lat="43.3681797" lon="12.5910955"><ele>653.0</ele><time>2026-05-02T11:23:15.177Z</time></trkpt><trkpt lat="43.3681107" lon="12.5911825"><ele>653.0</ele><time>2026-05-02T11:23:16.187Z</time></trkpt><trkpt lat="43.3680085" lon="12.5912287"><ele>653.0</ele><time>2026-05-02T11:23:17.176Z</time></trkpt><trkpt lat="43.3678941" lon="12.5912571"><ele>656.5999999999999</ele><time>2026-05-02T11:23:18.165Z</time></trkpt><trkpt lat="43.3677922" lon="12.5913094"><ele>660.1999999999999</ele><time>2026-05-02T11:23:19.188Z</time></trkpt><trkpt lat="43.3677028" lon="12.5913854"><ele>663.8</ele><time>2026-05-02T11:23:20.206Z</time></trkpt><trkpt lat="43.3676386" lon="12.5914669"><ele>667.4</ele><time>2026-05-02T11:23:21.186Z</time></trkpt><trkpt lat="43.3675711" lon="12.591571"><ele>671.0</ele><time>2026-05-02T11:23:22.193Z</time></trkpt><trkpt lat="43.3675067" lon="12.5916466"><ele>671.0</ele><time>2026-05-02T11:23:23.19Z</time></trkpt><trkpt lat="43.3674296" lon="12.5916795"><ele>671.0</ele><time>2026-05-02T11:23:24.192Z</time></trkpt><trkpt lat="43.3673439" lon="12.5916893"><ele>671.0</ele><time>2026-05-02T11:23:25.194Z</time></trkpt><trkpt lat="43.3672351" lon="12.5916656"><ele>671.0</ele><time>2026-05-02T11:23:26.181Z</time></trkpt><trkpt lat="43.3670967" lon="12.5916549"><ele>671.0</ele><time>2026-05-02T11:23:27.2Z</time></trkpt><trkpt lat="43.3669717" lon="12.5916565"><ele>674.5</ele><time>2026-05-02T11:23:28.187Z</time></trkpt><trkpt lat="43.3668395" lon="12.5916695"><ele>678.0</ele><time>2026-05-02T11:23:29.195Z</time></trkpt><trkpt lat="43.3667117" lon="12.5916755"><ele>681.5</ele><time>2026-05-02T11:23:30.187Z</time></trkpt><trkpt lat="43.3665943" lon="12.5916858"><ele>685.0</ele><time>2026-05-02T11:23:31.18Z</time></trkpt><trkpt lat="43.3664781" lon="12.591701"><ele>685.0</ele><time>2026-05-02T11:23:32.195Z</time></trkpt><trkpt lat="43.3663623" lon="12.5917198"><ele>685.0</ele><time>2026-05-02T11:23:33.185Z</time></trkpt><trkpt lat="43.3662499" lon="12.5917509"><ele>685.0</ele><time>2026-05-02T11:23:34.178Z</time></trkpt><trkpt lat="43.3661594" lon="12.5918101"><ele>685.0</ele><time>2026-05-02T11:23:35.187Z</time></trkpt><trkpt lat="43.366057" lon="12.5918932"><ele>686.0</ele><time>2026-05-02T11:23:36.196Z</time></trkpt><trkpt lat="43.3659661" lon="12.5919981"><ele>687.0</ele><time>2026-05-02T11:23:37.186Z</time></trkpt><trkpt lat="43.3658945" lon="12.5921294"><ele>688.0</ele><time>2026-05-02T11:23:38.204Z</time></trkpt><trkpt lat="43.3658305" lon="12.5922738"><ele>689.0</ele><time>2026-05-02T11:23:39.19Z</time></trkpt><trkpt lat="43.365764" lon="12.5923713"><ele>689.0</ele><time>2026-05-02T11:23:40.19Z</time></trkpt><trkpt lat="43.3656886" lon="12.5923804"><ele>689.0</ele><time>2026-05-02T11:23:41.169Z</time></trkpt><trkpt lat="43.3656662" lon="12.5922145"><ele>689.0</ele><time>2026-05-02T11:23:43.192Z</time></trkpt><trkpt lat="43.365729" lon="12.5921021"><ele>689.0</ele><time>2026-05-02T11:23:44.186Z</time></trkpt><trkpt lat="43.3658374" lon="12.5919917"><ele>689.0</ele><time>2026-05-02T11:23:45.171Z</time></trkpt><trkpt lat="43.3659432" lon="12.591889"><ele>694.5</ele><time>2026-05-02T11:23:46.192Z</time></trkpt><trkpt lat="43.366035" lon="12.5917765"><ele>700.0</ele><time>2026-05-02T11:23:47.181Z</time></trkpt><trkpt lat="43.3661229" lon="12.5916393"><ele>705.5</ele><time>2026-05-02T11:23:48.185Z</time></trkpt><trkpt lat="43.3662045" lon="12.5914789"><ele>711.0</ele><time>2026-05-02T11:23:49.184Z</time></trkpt><trkpt lat="43.3662879" lon="12.5913294"><ele>712.0</ele><time>2026-05-02T11:23:50.17Z</time></trkpt><trkpt lat="43.3663965" lon="12.5912025"><ele>713.0</ele><time>2026-05-02T11:23:51.194Z</time></trkpt><trkpt lat="43.3665298" lon="12.5911206"><ele>714.0</ele><time>2026-05-02T11:23:52.183Z</time></trkpt><trkpt lat="43.3666635" lon="12.5910562"><ele>715.0</ele><time>2026-05-02T11:23:53.186Z</time></trkpt><trkpt lat="43.366809" lon="12.5909988"><ele>715.0</ele><time>2026-05-02T11:23:54.181Z</time></trkpt><trkpt lat="43.3669525" lon="12.5909484"><ele>715.0</ele><time>2026-05-02T11:23:55.178Z</time></trkpt><trkpt lat="43.3670916" lon="12.5908842"><ele>715.0</ele><time>2026-05-02T11:23:56.193Z</time></trkpt><trkpt lat="43.3672082" lon="12.5908249"><ele>715.0</ele><time>2026-05-02T11:23:57.19Z</time></trkpt><trkpt lat="43.3673014" lon="12.5907639"><ele>710.8</ele><time>2026-05-02T11:23:58.191Z</time></trkpt><trkpt lat="43.3673841" lon="12.5906764"><ele>706.6</ele><time>2026-05-02T11:23:59.193Z</time></trkpt><trkpt lat="43.3674395" lon="12.5905621"><ele>702.4000000000001</ele><time>2026-05-02T11:24:00.188Z</time></trkpt><trkpt lat="43.3674712" lon="12.5904422"><ele>698.2</ele><time>2026-05-02T11:24:01.191Z</time></trkpt><trkpt lat="43.3674783" lon="12.5903251"><ele>694.0</ele><time>2026-05-02T11:24:02.18Z</time></trkpt><trkpt lat="43.3674545" lon="12.5902113"><ele>694.0</ele><time>2026-05-02T11:24:03.19Z</time></trkpt><trkpt lat="43.367426" lon="12.5900982"><ele>694.0</ele><time>2026-05-02T11:24:04.194Z</time></trkpt><trkpt lat="43.3673546" lon="12.5900196"><ele>694.0</ele><time>2026-05-02T11:24:05.189Z</time></trkpt><trkpt lat="43.3672501" lon="12.5899866"><ele>694.0</ele><time>2026-05-02T11:24:06.181Z</time></trkpt><trkpt lat="43.3671128" lon="12.5899601"><ele>694.0</ele><time>2026-05-02T11:24:07.191Z</time></trkpt><trkpt lat="43.3669834" lon="12.5899484"><ele>698.2</ele><time>2026-05-02T11:24:08.191Z</time></trkpt><trkpt lat="43.3668701" lon="12.5899155"><ele>702.4000000000001</ele><time>2026-05-02T11:24:09.184Z</time></trkpt><trkpt lat="43.3667668" lon="12.5898592"><ele>706.6</ele><time>2026-05-02T11:24:10.194Z</time></trkpt><trkpt lat="43.3666745" lon="12.5897787"><ele>710.8</ele><time>2026-05-02T11:24:11.209Z</time></trkpt><trkpt lat="43.3666066" lon="12.589667"><ele>715.0</ele><time>2026-05-02T11:24:12.198Z</time></trkpt><trkpt lat="43.3665374" lon="12.5895001"><ele>715.0</ele><time>2026-05-02T11:24:13.195Z</time></trkpt><trkpt lat="43.3664472" lon="12.5893378"><ele>715.0</ele><time>2026-05-02T11:24:14.177Z</time></trkpt><trkpt lat="43.3663525" lon="12.5891847"><ele>715.0</ele><time>2026-05-02T11:24:15.191Z</time></trkpt><trkpt lat="43.366259" lon="12.5890635"><ele>715.0</ele><time>2026-05-02T11:24:16.195Z</time></trkpt><trkpt lat="43.3661838" lon="12.5889871"><ele>716.6</ele><time>2026-05-02T11:24:17.199Z</time></trkpt><trkpt lat="43.3661167" lon="12.5889609"><ele>718.2</ele><time>2026-05-02T11:24:18.172Z</time></trkpt><trkpt lat="43.3660449" lon="12.5890191"><ele>719.8</ele><time>2026-05-02T11:24:19.184Z</time></trkpt><trkpt lat="43.3659498" lon="12.5891215"><ele>721.4</ele><time>2026-05-02T11:24:20.187Z</time></trkpt><trkpt lat="43.365834" lon="12.5892336"><ele>723.0</ele><time>2026-05-02T11:24:21.194Z</time></trkpt><trkpt lat="43.3657057" lon="12.5893541"><ele>723.0</ele><time>2026-05-02T11:24:22.196Z</time></trkpt><trkpt lat="43.3655767" lon="12.5894741"><ele>723.0</ele><time>2026-05-02T11:24:23.201Z</time></trkpt><trkpt lat="43.3654221" lon="12.5896181"><ele>723.0</ele><time>2026-05-02T11:24:24.171Z</time></trkpt><trkpt lat="43.3652694" lon="12.5897875"><ele>728.6666666666666</ele><time>2026-05-02T11:24:25.204Z</time></trkpt><trkpt lat="43.3651177" lon="12.5899502"><ele>734.3333333333333</ele><time>2026-05-02T11:24:26.159Z</time></trkpt><trkpt lat="43.3649921" lon="12.5900945"><ele>740.0</ele><time>2026-05-02T11:24:27.196Z</time></trkpt><trkpt lat="43.3648661" lon="12.5902331"><ele>744.0</ele><time>2026-05-02T11:24:28.189Z</time></trkpt><trkpt lat="43.3647561" lon="12.5903555"><ele>748.0</ele><time>2026-05-02T11:24:29.184Z</time></trkpt><trkpt lat="43.3646427" lon="12.5904612"><ele>752.0</ele><time>2026-05-02T11:24:30.195Z</time></trkpt><trkpt lat="43.3645387" lon="12.5905687"><ele>756.0</ele><time>2026-05-02T11:24:31.203Z</time></trkpt><trkpt lat="43.3644063" lon="12.5906304"><ele>757.3333333333334</ele><time>2026-05-02T11:24:32.191Z</time></trkpt><trkpt lat="43.3642401" lon="12.5906499"><ele>758.6666666666667</ele><time>2026-05-02T11:24:33.182Z</time></trkpt><trkpt lat="43.3640565" lon="12.5906301"><ele>760.0</ele><time>2026-05-02T11:24:34.188Z</time></trkpt><trkpt lat="43.3638736" lon="12.5905966"><ele>763.3333333333334</ele><time>2026-05-02T11:24:35.187Z</time></trkpt><trkpt lat="43.3636921" lon="12.590573"><ele>766.6666666666667</ele><time>2026-05-02T11:24:36.163Z</time></trkpt><trkpt lat="43.3635111" lon="12.5905684"><ele>770.0</ele><time>2026-05-02T11:24:37.175Z</time></trkpt><trkpt lat="43.3633381" lon="12.5905869"><ele>770.0</ele><time>2026-05-02T11:24:38.191Z</time></trkpt><trkpt lat="43.3631666" lon="12.5906277"><ele>770.0</ele><time>2026-05-02T11:24:39.191Z</time></trkpt><trkpt lat="43.3629928" lon="12.5906907"><ele>770.0</ele><time>2026-05-02T11:24:40.173Z</time></trkpt><trkpt lat="43.3628346" lon="12.5907617"><ele>770.0</ele><time>2026-05-02T11:24:41.17Z</time></trkpt><trkpt lat="43.3626735" lon="12.5908342"><ele>770.0</ele><time>2026-05-02T11:24:42.181Z</time></trkpt><trkpt lat="43.3625236" lon="12.5908808"><ele>770.0</ele><time>2026-05-02T11:24:43.184Z</time></trkpt><trkpt lat="43.3623731" lon="12.59088"><ele>770.0</ele><time>2026-05-02T11:24:44.181Z</time></trkpt><trkpt lat="43.3622185" lon="12.590832"><ele>770.0</ele><time>2026-05-02T11:24:45.178Z</time></trkpt><trkpt lat="43.3620577" lon="12.5907623"><ele>770.0</ele><time>2026-05-02T11:24:46.18Z</time></trkpt><trkpt lat="43.3618961" lon="12.5906755"><ele>769.3333333333334</ele><time>2026-05-02T11:24:47.182Z</time></trkpt><trkpt lat="43.3617198" lon="12.5905899"><ele>768.6666666666667</ele><time>2026-05-02T11:24:48.191Z</time></trkpt><trkpt lat="43.3615408" lon="12.5905319"><ele>768.0</ele><time>2026-05-02T11:24:49.184Z</time></trkpt><trkpt lat="43.361387" lon="12.5904752"><ele>767.75</ele><time>2026-05-02T11:24:50.192Z</time></trkpt><trkpt lat="43.3612453" lon="12.5904224"><ele>767.5</ele><time>2026-05-02T11:24:51.181Z</time></trkpt><trkpt lat="43.3611187" lon="12.5903758"><ele>767.25</ele><time>2026-05-02T11:24:52.198Z</time></trkpt><trkpt lat="43.3610095" lon="12.590334"><ele>767.0</ele><time>2026-05-02T11:24:53.197Z</time></trkpt><trkpt lat="43.3609257" lon="12.5902974"><ele>767.0</ele><time>2026-05-02T11:24:54.194Z</time></trkpt><trkpt lat="43.3608606" lon="12.5902486"><ele>767.0</ele><time>2026-05-02T11:24:55.19Z</time></trkpt><trkpt lat="43.3607938" lon="12.5901915"><ele>767.0</ele><time>2026-05-02T11:24:57.191Z</time></trkpt><trkpt lat="43.3607456" lon="12.5901315"><ele>767.0</ele><time>2026-05-02T11:25:01.187Z</time></trkpt><trkpt lat="43.3607696" lon="12.59004"><ele>767.0</ele><time>2026-05-02T11:25:16.183Z</time></trkpt><trkpt lat="43.3608172" lon="12.5899645"><ele>767.0</ele><time>2026-05-02T11:25:17.196Z</time></trkpt><trkpt lat="43.3608809" lon="12.5898757"><ele>767.0</ele><time>2026-05-02T11:25:18.201Z</time></trkpt><trkpt lat="43.360945" lon="12.5897809"><ele>767.0</ele><time>2026-05-02T11:25:19.199Z</time></trkpt><trkpt lat="43.3610098" lon="12.5896637"><ele>767.0</ele><time>2026-05-02T11:25:20.179Z</time></trkpt><trkpt lat="43.3610625" lon="12.5895502"><ele>767.0</ele><time>2026-05-02T11:25:21.182Z</time></trkpt><trkpt lat="43.3610922" lon="12.5894478"><ele>767.0</ele><time>2026-05-02T11:25:22.206Z</time></trkpt><trkpt lat="43.3610943" lon="12.5893605"><ele>767.0</ele><time>2026-05-02T11:25:23.192Z</time></trkpt><trkpt lat="43.3610687" lon="12.5892708"><ele>770.0</ele><time>2026-05-02T11:25:24.181Z</time></trkpt><trkpt lat="43.3610136" lon="12.5891947"><ele>773.0</ele><time>2026-05-02T11:25:25.187Z</time></trkpt><trkpt lat="43.3609173" lon="12.5891472"><ele>776.0</ele><time>2026-05-02T11:25:26.184Z</time></trkpt><trkpt lat="43.3607955" lon="12.5891138"><ele>779.0</ele><time>2026-05-02T11:25:27.17Z</time></trkpt><trkpt lat="43.3606628" lon="12.5890952"><ele>782.0</ele><time>2026-05-02T11:25:28.188Z</time></trkpt><trkpt lat="43.360512" lon="12.5890757"><ele>782.0</ele><time>2026-05-02T11:25:29.202Z</time></trkpt><trkpt lat="43.3603508" lon="12.5890523"><ele>782.0</ele><time>2026-05-02T11:25:30.195Z</time></trkpt><trkpt lat="43.360176" lon="12.5890261"><ele>782.0</ele><time>2026-05-02T11:25:31.199Z</time></trkpt><trkpt lat="43.3600001" lon="12.5890021"><ele>782.0</ele><time>2026-05-02T11:25:32.194Z</time></trkpt><trkpt lat="43.359825" lon="12.5889918"><ele>782.0</ele><time>2026-05-02T11:25:33.188Z</time></trkpt><trkpt lat="43.3596796" lon="12.588979"><ele>782.0</ele><time>2026-05-02T11:25:34.193Z</time></trkpt><trkpt lat="43.3595503" lon="12.5889667"><ele>780.5</ele><time>2026-05-02T11:25:35.189Z</time></trkpt><trkpt lat="43.3594253" lon="12.5889649"><ele>779.0</ele><time>2026-05-02T11:25:36.196Z</time></trkpt><trkpt lat="43.3593109" lon="12.5889473"><ele>777.5</ele><time>2026-05-02T11:25:37.192Z</time></trkpt><trkpt lat="43.3591848" lon="12.5888973"><ele>776.0</ele><time>2026-05-02T11:25:38.197Z</time></trkpt><trkpt lat="43.3590567" lon="12.5888256"><ele>776.0</ele><time>2026-05-02T11:25:39.189Z</time></trkpt><trkpt lat="43.358942" lon="12.5887325"><ele>776.0</ele><time>2026-05-02T11:25:40.212Z</time></trkpt><trkpt lat="43.3588392" lon="12.5886242"><ele>776.0</ele><time>2026-05-02T11:25:41.19Z</time></trkpt><trkpt lat="43.3587594" lon="12.5885041"><ele>776.0</ele><time>2026-05-02T11:25:42.211Z</time></trkpt><trkpt lat="43.358718" lon="12.5883625"><ele>775.75</ele><time>2026-05-02T11:25:43.196Z</time></trkpt><trkpt lat="43.3587037" lon="12.5882066"><ele>775.5</ele><time>2026-05-02T11:25:44.194Z</time></trkpt><trkpt lat="43.3587105" lon="12.5880463"><ele>775.25</ele><time>2026-05-02T11:25:45.183Z</time></trkpt><trkpt lat="43.3587032" lon="12.5878895"><ele>775.0</ele><time>2026-05-02T11:25:46.207Z</time></trkpt><trkpt lat="43.3587008" lon="12.5877342"><ele>782.0</ele><time>2026-05-02T11:25:47.188Z</time></trkpt><trkpt lat="43.3586681" lon="12.5875778"><ele>789.0</ele><time>2026-05-02T11:25:48.197Z</time></trkpt><trkpt lat="43.3585953" lon="12.5874364"><ele>796.0</ele><time>2026-05-02T11:25:49.193Z</time></trkpt><trkpt lat="43.3585044" lon="12.5872862"><ele>803.0</ele><time>2026-05-02T11:25:50.197Z</time></trkpt><trkpt lat="43.3584044" lon="12.5871387"><ele>802.75</ele><time>2026-05-02T11:25:51.175Z</time></trkpt><trkpt lat="43.3583099" lon="12.5869847"><ele>802.5</ele><time>2026-05-02T11:25:52.187Z</time></trkpt><trkpt lat="43.3582199" lon="12.5868352"><ele>802.25</ele><time>2026-05-02T11:25:53.201Z</time></trkpt><trkpt lat="43.3581283" lon="12.586693"><ele>802.0</ele><time>2026-05-02T11:25:54.197Z</time></trkpt><trkpt lat="43.3580325" lon="12.5865509"><ele>802.0</ele><time>2026-05-02T11:25:55.205Z</time></trkpt><trkpt lat="43.3579369" lon="12.586413"><ele>802.0</ele><time>2026-05-02T11:25:56.173Z</time></trkpt><trkpt lat="43.3578354" lon="12.586299"><ele>802.0</ele><time>2026-05-02T11:25:57.181Z</time></trkpt><trkpt lat="43.3577252" lon="12.5861846"><ele>802.0</ele><time>2026-05-02T11:25:58.183Z</time></trkpt><trkpt lat="43.3576102" lon="12.5860815"><ele>805.0</ele><time>2026-05-02T11:25:59.176Z</time></trkpt><trkpt lat="43.3574986" lon="12.5859838"><ele>808.0</ele><time>2026-05-02T11:26:00.178Z</time></trkpt><trkpt lat="43.3573908" lon="12.5858846"><ele>811.0</ele><time>2026-05-02T11:26:01.194Z</time></trkpt><trkpt lat="43.3572917" lon="12.5857907"><ele>814.0</ele><time>2026-05-02T11:26:02.195Z</time></trkpt><trkpt lat="43.3572005" lon="12.5856965"><ele>814.0</ele><time>2026-05-02T11:26:03.207Z</time></trkpt><trkpt lat="43.3571119" lon="12.5856156"><ele>814.0</ele><time>2026-05-02T11:26:04.197Z</time></trkpt><trkpt lat="43.3570346" lon="12.5855424"><ele>814.0</ele><time>2026-05-02T11:26:05.195Z</time></trkpt><trkpt lat="43.3569646" lon="12.5854842"><ele>814.0</ele><time>2026-05-02T11:26:06.189Z</time></trkpt><trkpt lat="43.3569057" lon="12.5854371"><ele>814.0</ele><time>2026-05-02T11:26:07.185Z</time></trkpt><trkpt lat="43.3568107" lon="12.5853531"><ele>818.0</ele><time>2026-05-02T11:26:09.196Z</time></trkpt><trkpt lat="43.3567348" lon="12.5852699"><ele>822.0</ele><time>2026-05-02T11:26:11.189Z</time></trkpt><trkpt lat="43.356667" lon="12.5851366"><ele>826.0</ele><time>2026-05-02T11:26:13.208Z</time></trkpt><trkpt lat="43.3566584" lon="12.5850057"><ele>830.0</ele><time>2026-05-02T11:26:15.188Z</time></trkpt><trkpt lat="43.3566561" lon="12.584887"><ele>834.0</ele><time>2026-05-02T11:26:17.185Z</time></trkpt><trkpt lat="43.3566465" lon="12.5847747"><ele>834.0</ele><time>2026-05-02T11:26:19.176Z</time></trkpt><trkpt lat="43.3566391" lon="12.5846416"><ele>834.0</ele><time>2026-05-02T11:26:21.203Z</time></trkpt><trkpt lat="43.3566317" lon="12.5844979"><ele>834.0</ele><time>2026-05-02T11:26:23.205Z</time></trkpt><trkpt lat="43.3566212" lon="12.5843551"><ele>834.0</ele><time>2026-05-02T11:26:25.183Z</time></trkpt><trkpt lat="43.3566339" lon="12.5842403"><ele>834.0</ele><time>2026-05-02T11:26:27.198Z</time></trkpt><trkpt lat="43.3566518" lon="12.5841376"><ele>834.0</ele><time>2026-05-02T11:26:29.182Z</time></trkpt><trkpt lat="43.3566729" lon="12.5840422"><ele>834.0</ele><time>2026-05-02T11:26:33.185Z</time></trkpt><trkpt lat="43.3566388" lon="12.5841405"><ele>834.0</ele><time>2026-05-02T11:27:12.195Z</time></trkpt><trkpt lat="43.3566314" lon="12.5842601"><ele>834.0</ele><time>2026-05-02T11:27:14.191Z</time></trkpt><trkpt lat="43.356625" lon="12.5843522"><ele>834.0</ele><time>2026-05-02T11:27:16.172Z</time></trkpt><trkpt lat="43.3566179" lon="12.5844489"><ele>834.0</ele><time>2026-05-02T11:27:18.178Z</time></trkpt><trkpt lat="43.3566037" lon="12.5845644"><ele>834.0</ele><time>2026-05-02T11:27:20.187Z</time></trkpt><trkpt lat="43.356595" lon="12.5846701"><ele>834.0</ele><time>2026-05-02T11:27:22.172Z</time></trkpt><trkpt lat="43.3565892" lon="12.5847898"><ele>834.0</ele><time>2026-05-02T11:27:25.194Z</time></trkpt><trkpt lat="43.356618" lon="12.5848973"><ele>834.0</ele><time>2026-05-02T11:27:28.198Z</time></trkpt><trkpt lat="43.3566394" lon="12.5850219"><ele>834.0</ele><time>2026-05-02T11:27:31.188Z</time></trkpt><trkpt lat="43.3566514" lon="12.5851366"><ele>834.0</ele><time>2026-05-02T11:27:34.174Z</time></trkpt><trkpt lat="43.356662" lon="12.585244"><ele>834.0</ele><time>2026-05-02T11:27:37.202Z</time></trkpt><trkpt lat="43.3566959" lon="12.5853253"><ele>834.0</ele><time>2026-05-02T11:27:40.194Z</time></trkpt><trkpt lat="43.3567376" lon="12.5853922"><ele>834.0</ele><time>2026-05-02T11:29:52.183Z</time></trkpt><trkpt lat="43.3568011" lon="12.5854508"><ele>834.0</ele><time>2026-05-02T11:29:54.21Z</time></trkpt><trkpt lat="43.3569182" lon="12.5855395"><ele>834.0</ele><time>2026-05-02T11:29:56.196Z</time></trkpt><trkpt lat="43.3569898" lon="12.585599"><ele>834.0</ele><time>2026-05-02T11:29:57.173Z</time></trkpt><trkpt lat="43.3570661" lon="12.585679"><ele>835.2</ele><time>2026-05-02T11:29:58.184Z</time></trkpt><trkpt lat="43.357152" lon="12.5857569"><ele>836.4000000000001</ele><time>2026-05-02T11:29:59.181Z</time></trkpt><trkpt lat="43.3572422" lon="12.5858361"><ele>837.6</ele><time>2026-05-02T11:30:00.193Z</time></trkpt><trkpt lat="43.3573303" lon="12.5859045"><ele>838.8</ele><time>2026-05-02T11:30:01.2Z</time></trkpt><trkpt lat="43.3574168" lon="12.5859765"><ele>840.0</ele><time>2026-05-02T11:30:02.175Z</time></trkpt><trkpt lat="43.3574997" lon="12.586051"><ele>840.0</ele><time>2026-05-02T11:30:03.193Z</time></trkpt><trkpt lat="43.3575895" lon="12.586134"><ele>840.0</ele><time>2026-05-02T11:30:04.201Z</time></trkpt><trkpt lat="43.3576814" lon="12.5862149"><ele>840.0</ele><time>2026-05-02T11:30:05.197Z</time></trkpt><trkpt lat="43.357773" lon="12.5862889"><ele>840.0</ele><time>2026-05-02T11:30:06.216Z</time></trkpt><trkpt lat="43.3578589" lon="12.5863694"><ele>840.0</ele><time>2026-05-02T11:30:07.192Z</time></trkpt><trkpt lat="43.3579425" lon="12.5864577"><ele>839.8</ele><time>2026-05-02T11:30:08.194Z</time></trkpt><trkpt lat="43.3580169" lon="12.5865681"><ele>839.6</ele><time>2026-05-02T11:30:09.194Z</time></trkpt><trkpt lat="43.3580824" lon="12.586679"><ele>839.4000000000001</ele><time>2026-05-02T11:30:10.198Z</time></trkpt><trkpt lat="43.358149" lon="12.5867804"><ele>839.2</ele><time>2026-05-02T11:30:11.173Z</time></trkpt><trkpt lat="43.3582174" lon="12.5868889"><ele>839.0</ele><time>2026-05-02T11:30:12.175Z</time></trkpt><trkpt lat="43.3582867" lon="12.5869936"><ele>831.8000000000001</ele><time>2026-05-02T11:30:13.177Z</time></trkpt><trkpt lat="43.3583594" lon="12.5870865"><ele>824.6</ele><time>2026-05-02T11:30:14.177Z</time></trkpt><trkpt lat="43.3584267" lon="12.5871892"><ele>817.4</ele><time>2026-05-02T11:30:15.203Z</time></trkpt><trkpt lat="43.358489" lon="12.5872979"><ele>810.2</ele><time>2026-05-02T11:30:16.197Z</time></trkpt><trkpt lat="43.3585536" lon="12.5874045"><ele>803.0</ele><time>2026-05-02T11:30:17.184Z</time></trkpt><trkpt lat="43.3586089" lon="12.5875128"><ele>803.0</ele><time>2026-05-02T11:30:18.214Z</time></trkpt><trkpt lat="43.3586588" lon="12.5876378"><ele>803.0</ele><time>2026-05-02T11:30:19.189Z</time></trkpt><trkpt lat="43.3586874" lon="12.5877771"><ele>803.0</ele><time>2026-05-02T11:30:20.201Z</time></trkpt><trkpt lat="43.3586968" lon="12.5879041"><ele>803.0</ele><time>2026-05-02T11:30:21.204Z</time></trkpt><trkpt lat="43.3586953" lon="12.5880387"><ele>803.0</ele><time>2026-05-02T11:30:22.184Z</time></trkpt><trkpt lat="43.3586989" lon="12.5881657"><ele>797.5999999999999</ele><time>2026-05-02T11:30:23.214Z</time></trkpt><trkpt lat="43.3587038" lon="12.5882946"><ele>792.1999999999999</ele><time>2026-05-02T11:30:24.198Z</time></trkpt><trkpt lat="43.3587131" lon="12.58842"><ele>786.8</ele><time>2026-05-02T11:30:25.187Z</time></trkpt><trkpt lat="43.3587444" lon="12.5885482"><ele>781.4</ele><time>2026-05-02T11:30:26.188Z</time></trkpt><trkpt lat="43.358801" lon="12.5886543"><ele>776.0</ele><time>2026-05-02T11:30:27.196Z</time></trkpt><trkpt lat="43.3588702" lon="12.5887331"><ele>776.0</ele><time>2026-05-02T11:30:28.225Z</time></trkpt><trkpt lat="43.3589615" lon="12.5888053"><ele>776.0</ele><time>2026-05-02T11:30:29.191Z</time></trkpt><trkpt lat="43.3590627" lon="12.58886"><ele>776.0</ele><time>2026-05-02T11:30:30.19Z</time></trkpt><trkpt lat="43.3591651" lon="12.5889129"><ele>776.0</ele><time>2026-05-02T11:30:31.198Z</time></trkpt><trkpt lat="43.3592759" lon="12.5889545"><ele>776.0</ele><time>2026-05-02T11:30:32.203Z</time></trkpt><trkpt lat="43.359393" lon="12.588988"><ele>776.0</ele><time>2026-05-02T11:30:33.176Z</time></trkpt><trkpt lat="43.35951" lon="12.5890096"><ele>776.0</ele><time>2026-05-02T11:30:34.195Z</time></trkpt><trkpt lat="43.3596326" lon="12.5890147"><ele>776.0</ele><time>2026-05-02T11:30:35.182Z</time></trkpt><trkpt lat="43.3597582" lon="12.5890157"><ele>776.0</ele><time>2026-05-02T11:30:36.201Z</time></trkpt><trkpt lat="43.359873" lon="12.5890269"><ele>777.5</ele><time>2026-05-02T11:30:37.185Z</time></trkpt><trkpt lat="43.3599851" lon="12.5890401"><ele>779.0</ele><time>2026-05-02T11:30:38.188Z</time></trkpt><trkpt lat="43.3600978" lon="12.5890549"><ele>780.5</ele><time>2026-05-02T11:30:39.187Z</time></trkpt><trkpt lat="43.3602197" lon="12.589071"><ele>782.0</ele><time>2026-05-02T11:30:40.194Z</time></trkpt><trkpt lat="43.3603357" lon="12.5890873"><ele>782.0</ele><time>2026-05-02T11:30:41.212Z</time></trkpt><trkpt lat="43.3604484" lon="12.5891025"><ele>782.0</ele><time>2026-05-02T11:30:42.176Z</time></trkpt><trkpt lat="43.3605591" lon="12.5891207"><ele>782.0</ele><time>2026-05-02T11:30:43.196Z</time></trkpt><trkpt lat="43.3606719" lon="12.5891364"><ele>782.0</ele><time>2026-05-02T11:30:44.212Z</time></trkpt><trkpt lat="43.3607822" lon="12.5891504"><ele>782.0</ele><time>2026-05-02T11:30:45.214Z</time></trkpt><trkpt lat="43.3608866" lon="12.5891685"><ele>782.1666666666667</ele><time>2026-05-02T11:30:46.197Z</time></trkpt><trkpt lat="43.3609696" lon="12.5892094"><ele>782.3333333333334</ele><time>2026-05-02T11:30:47.174Z</time></trkpt><trkpt lat="43.361028" lon="12.5892893"><ele>782.5</ele><time>2026-05-02T11:30:48.197Z</time></trkpt><trkpt lat="43.3610545" lon="12.5893867"><ele>782.6666666666667</ele><time>2026-05-02T11:30:49.188Z</time></trkpt><trkpt lat="43.3610445" lon="12.5894966"><ele>782.8333333333334</ele><time>2026-05-02T11:30:50.194Z</time></trkpt><trkpt lat="43.3610094" lon="12.5895922"><ele>783.0</ele><time>2026-05-02T11:30:51.197Z</time></trkpt><trkpt lat="43.3609475" lon="12.5896922"><ele>780.3333333333334</ele><time>2026-05-02T11:30:52.207Z</time></trkpt><trkpt lat="43.3608907" lon="12.5897822"><ele>777.6666666666666</ele><time>2026-05-02T11:30:53.205Z</time></trkpt><trkpt lat="43.3608374" lon="12.5898742"><ele>775.0</ele><time>2026-05-02T11:30:54.197Z</time></trkpt><trkpt lat="43.3607921" lon="12.5899761"><ele>772.3333333333333</ele><time>2026-05-02T11:30:55.191Z</time></trkpt><trkpt lat="43.3607589" lon="12.5900547"><ele>769.6666666666666</ele><time>2026-05-02T11:30:56.175Z</time></trkpt><trkpt lat="43.3607244" lon="12.590146"><ele>767.0</ele><time>2026-05-02T11:30:58.197Z</time></trkpt><trkpt lat="43.3606831" lon="12.5902221"><ele>767.0</ele><time>2026-05-02T11:31:02.19Z</time></trkpt><trkpt lat="43.3607126" lon="12.5903145"><ele>767.0</ele><time>2026-05-02T11:31:05.17Z</time></trkpt><trkpt lat="43.3607823" lon="12.5902874"><ele>767.0</ele><time>2026-05-02T11:31:07.173Z</time></trkpt><trkpt lat="43.3608599" lon="12.5902853"><ele>767.0</ele><time>2026-05-02T11:31:10.197Z</time></trkpt><trkpt lat="43.3609238" lon="12.590316"><ele>767.0</ele><time>2026-05-02T11:31:11.188Z</time></trkpt><trkpt lat="43.3609979" lon="12.590362"><ele>767.0</ele><time>2026-05-02T11:31:12.177Z</time></trkpt><trkpt lat="43.361091" lon="12.5904062"><ele>767.25</ele><time>2026-05-02T11:31:13.193Z</time></trkpt><trkpt lat="43.3612114" lon="12.59043"><ele>767.5</ele><time>2026-05-02T11:31:14.178Z</time></trkpt><trkpt lat="43.361346" lon="12.5904728"><ele>767.75</ele><time>2026-05-02T11:31:15.196Z</time></trkpt><trkpt lat="43.3614828" lon="12.5905185"><ele>768.0</ele><time>2026-05-02T11:31:16.207Z</time></trkpt><trkpt lat="43.3616141" lon="12.5905686"><ele>768.0</ele><time>2026-05-02T11:31:17.203Z</time></trkpt><trkpt lat="43.3617469" lon="12.590622"><ele>768.0</ele><time>2026-05-02T11:31:18.2Z</time></trkpt><trkpt lat="43.3618825" lon="12.5906777"><ele>768.0</ele><time>2026-05-02T11:31:19.2Z</time></trkpt><trkpt lat="43.3620211" lon="12.5907312"><ele>768.0</ele><time>2026-05-02T11:31:20.201Z</time></trkpt><trkpt lat="43.3621644" lon="12.5907875"><ele>768.5</ele><time>2026-05-02T11:31:21.211Z</time></trkpt><trkpt lat="43.3623048" lon="12.5908308"><ele>769.0</ele><time>2026-05-02T11:31:22.198Z</time></trkpt><trkpt lat="43.36245" lon="12.5908603"><ele>769.5</ele><time>2026-05-02T11:31:23.208Z</time></trkpt><trkpt lat="43.3626019" lon="12.5908485"><ele>770.0</ele><time>2026-05-02T11:31:24.18Z</time></trkpt><trkpt lat="43.3627469" lon="12.5907918"><ele>770.0</ele><time>2026-05-02T11:31:25.185Z</time></trkpt><trkpt lat="43.3628896" lon="12.5907056"><ele>770.0</ele><time>2026-05-02T11:31:26.182Z</time></trkpt><trkpt lat="43.3630312" lon="12.5906334"><ele>770.0</ele><time>2026-05-02T11:31:27.193Z</time></trkpt><trkpt lat="43.3631734" lon="12.5905828"><ele>770.0</ele><time>2026-05-02T11:31:28.209Z</time></trkpt><trkpt lat="43.3633171" lon="12.590549"><ele>770.0</ele><time>2026-05-02T11:31:29.202Z</time></trkpt><trkpt lat="43.3634645" lon="12.5905272"><ele>770.0</ele><time>2026-05-02T11:31:30.177Z</time></trkpt><trkpt lat="43.3636079" lon="12.5905319"><ele>770.0</ele><time>2026-05-02T11:31:31.189Z</time></trkpt><trkpt lat="43.363759" lon="12.5905417"><ele>766.6666666666667</ele><time>2026-05-02T11:31:32.186Z</time></trkpt><trkpt lat="43.3639133" lon="12.5905559"><ele>763.3333333333334</ele><time>2026-05-02T11:31:33.199Z</time></trkpt><trkpt lat="43.3640662" lon="12.5905775"><ele>760.0</ele><time>2026-05-02T11:31:34.204Z</time></trkpt><trkpt lat="43.3642134" lon="12.5905744"><ele>760.0</ele><time>2026-05-02T11:31:35.198Z</time></trkpt><trkpt lat="43.3643537" lon="12.5905317"><ele>760.0</ele><time>2026-05-02T11:31:36.183Z</time></trkpt><trkpt lat="43.3644854" lon="12.5904677"><ele>760.0</ele><time>2026-05-02T11:31:37.198Z</time></trkpt><trkpt lat="43.364614" lon="12.5903912"><ele>760.0</ele><time>2026-05-02T11:31:38.2Z</time></trkpt><trkpt lat="43.3647305" lon="12.5902983"><ele>755.0</ele><time>2026-05-02T11:31:39.203Z</time></trkpt><trkpt lat="43.3648495" lon="12.5902042"><ele>750.0</ele><time>2026-05-02T11:31:40.192Z</time></trkpt><trkpt lat="43.3649652" lon="12.5900939"><ele>745.0</ele><time>2026-05-02T11:31:41.187Z</time></trkpt><trkpt lat="43.365085" lon="12.5899812"><ele>740.0</ele><time>2026-05-02T11:31:42.206Z</time></trkpt><trkpt lat="43.3651991" lon="12.5898656"><ele>740.0</ele><time>2026-05-02T11:31:43.205Z</time></trkpt><trkpt lat="43.3653044" lon="12.5897502"><ele>740.0</ele><time>2026-05-02T11:31:44.192Z</time></trkpt><trkpt lat="43.3654144" lon="12.5896381"><ele>740.0</ele><time>2026-05-02T11:31:45.188Z</time></trkpt><trkpt lat="43.3655197" lon="12.5895307"><ele>740.0</ele><time>2026-05-02T11:31:46.201Z</time></trkpt><trkpt lat="43.3656346" lon="12.5894404"><ele>735.75</ele><time>2026-05-02T11:31:47.189Z</time></trkpt><trkpt lat="43.3657556" lon="12.5893556"><ele>731.5</ele><time>2026-05-02T11:31:48.194Z</time></trkpt><trkpt lat="43.3658714" lon="12.5892666"><ele>727.25</ele><time>2026-05-02T11:31:49.186Z</time></trkpt><trkpt lat="43.3659806" lon="12.589169"><ele>723.0</ele><time>2026-05-02T11:31:50.199Z</time></trkpt><trkpt lat="43.366079" lon="12.5890743"><ele>723.0</ele><time>2026-05-02T11:31:51.199Z</time></trkpt><trkpt lat="43.3661581" lon="12.5889984"><ele>723.0</ele><time>2026-05-02T11:31:52.182Z</time></trkpt><trkpt lat="43.3662234" lon="12.588949"><ele>723.0</ele><time>2026-05-02T11:31:53.198Z</time></trkpt><trkpt lat="43.3663055" lon="12.5889228"><ele>723.0</ele><time>2026-05-02T11:31:54.199Z</time></trkpt><trkpt lat="43.3663818" lon="12.588919"><ele>723.0</ele><time>2026-05-02T11:31:55.203Z</time></trkpt><trkpt lat="43.366457" lon="12.5889851"><ele>723.0</ele><time>2026-05-02T11:31:56.197Z</time></trkpt><trkpt lat="43.3665301" lon="12.5890844"><ele>724.4</ele><time>2026-05-02T11:31:57.188Z</time></trkpt><trkpt lat="43.3666053" lon="12.589205"><ele>725.8</ele><time>2026-05-02T11:31:58.194Z</time></trkpt><trkpt lat="43.3666784" lon="12.5893171"><ele>727.2</ele><time>2026-05-02T11:31:59.204Z</time></trkpt><trkpt lat="43.3667455" lon="12.5894322"><ele>728.6</ele><time>2026-05-02T11:32:00.2Z</time></trkpt><trkpt lat="43.3667984" lon="12.5895486"><ele>730.0</ele><time>2026-05-02T11:32:01.197Z</time></trkpt><trkpt lat="43.3668319" lon="12.5896794"><ele>730.0</ele><time>2026-05-02T11:32:02.184Z</time></trkpt><trkpt lat="43.3668715" lon="12.5898151"><ele>730.0</ele><time>2026-05-02T11:32:03.167Z</time></trkpt><trkpt lat="43.3669322" lon="12.5899125"><ele>730.0</ele><time>2026-05-02T11:32:04.169Z</time></trkpt><trkpt lat="43.3670152" lon="12.589969"><ele>730.0</ele><time>2026-05-02T11:32:05.188Z</time></trkpt><trkpt lat="43.367093" lon="12.5899942"><ele>730.0</ele><time>2026-05-02T11:32:06.178Z</time></trkpt><trkpt lat="43.3671779" lon="12.5900203"><ele>722.8</ele><time>2026-05-02T11:32:07.177Z</time></trkpt><trkpt lat="43.3672742" lon="12.5900507"><ele>715.6</ele><time>2026-05-02T11:32:08.194Z</time></trkpt><trkpt lat="43.3673604" lon="12.5901179"><ele>708.4000000000001</ele><time>2026-05-02T11:32:09.186Z</time></trkpt><trkpt lat="43.3674243" lon="12.5902073"><ele>701.2</ele><time>2026-05-02T11:32:10.196Z</time></trkpt><trkpt lat="43.367444" lon="12.5903438"><ele>694.0</ele><time>2026-05-02T11:32:11.198Z</time></trkpt><trkpt lat="43.3674285" lon="12.5904807"><ele>693.4000000000001</ele><time>2026-05-02T11:32:12.196Z</time></trkpt><trkpt lat="43.3673758" lon="12.5906168"><ele>692.8</ele><time>2026-05-02T11:32:13.192Z</time></trkpt><trkpt lat="43.3673014" lon="12.5907355"><ele>692.2</ele><time>2026-05-02T11:32:14.192Z</time></trkpt><trkpt lat="43.3672206" lon="12.590822"><ele>691.5999999999999</ele><time>2026-05-02T11:32:15.197Z</time></trkpt><trkpt lat="43.3671163" lon="12.590886"><ele>691.0</ele><time>2026-05-02T11:32:16.188Z</time></trkpt><trkpt lat="43.3670027" lon="12.5909468"><ele>689.5</ele><time>2026-05-02T11:32:17.186Z</time></trkpt><trkpt lat="43.3668909" lon="12.5910126"><ele>688.0</ele><time>2026-05-02T11:32:18.173Z</time></trkpt><trkpt lat="43.3667785" lon="12.5910732"><ele>686.5</ele><time>2026-05-02T11:32:19.187Z</time></trkpt><trkpt lat="43.3666668" lon="12.5911331"><ele>685.0</ele><time>2026-05-02T11:32:20.197Z</time></trkpt><trkpt lat="43.366552" lon="12.5911906"><ele>685.0</ele><time>2026-05-02T11:32:21.192Z</time></trkpt><trkpt lat="43.3664479" lon="12.5912488"><ele>685.0</ele><time>2026-05-02T11:32:22.191Z</time></trkpt><trkpt lat="43.3663478" lon="12.5913079"><ele>685.0</ele><time>2026-05-02T11:32:23.199Z</time></trkpt><trkpt lat="43.3662566" lon="12.5913742"><ele>685.0</ele><time>2026-05-02T11:32:24.208Z</time></trkpt><trkpt lat="43.3661867" lon="12.591452"><ele>685.0</ele><time>2026-05-02T11:32:25.191Z</time></trkpt><trkpt lat="43.3661206" lon="12.5915555"><ele>685.8</ele><time>2026-05-02T11:32:26.196Z</time></trkpt><trkpt lat="43.366051" lon="12.591686"><ele>686.6</ele><time>2026-05-02T11:32:27.193Z</time></trkpt><trkpt lat="43.3659813" lon="12.5918138"><ele>687.4000000000001</ele><time>2026-05-02T11:32:28.19Z</time></trkpt><trkpt lat="43.3659096" lon="12.5919117"><ele>688.2</ele><time>2026-05-02T11:32:29.196Z</time></trkpt><trkpt lat="43.3658391" lon="12.5920201"><ele>689.0</ele><time>2026-05-02T11:32:30.201Z</time></trkpt><trkpt lat="43.365771" lon="12.5921101"><ele>689.0</ele><time>2026-05-02T11:32:31.194Z</time></trkpt><trkpt lat="43.3657057" lon="12.5921908"><ele>689.0</ele><time>2026-05-02T11:32:32.193Z</time></trkpt><trkpt lat="43.3656515" lon="12.5922811"><ele>689.0</ele><time>2026-05-02T11:32:33.186Z</time></trkpt><trkpt lat="43.3656236" lon="12.5923754"><ele>689.0</ele><time>2026-05-02T11:32:34.188Z</time></trkpt><trkpt lat="43.3656329" lon="12.5924634"><ele>689.0</ele><time>2026-05-02T11:32:35.19Z</time></trkpt><trkpt lat="43.3657817" lon="12.5924675"><ele>689.0</ele><time>2026-05-02T11:32:37.188Z</time></trkpt><trkpt lat="43.3658714" lon="12.5923907"><ele>689.0</ele><time>2026-05-02T11:32:38.178Z</time></trkpt><trkpt lat="43.3659479" lon="12.5922995"><ele>689.0</ele><time>2026-05-02T11:32:39.179Z</time></trkpt><trkpt lat="43.3660168" lon="12.5921878"><ele>689.0</ele><time>2026-05-02T11:32:40.189Z</time></trkpt><trkpt lat="43.3660936" lon="12.5920784"><ele>689.0</ele><time>2026-05-02T11:32:41.184Z</time></trkpt><trkpt lat="43.366189" lon="12.591974"><ele>688.0</ele><time>2026-05-02T11:32:42.184Z</time></trkpt><trkpt lat="43.3662802" lon="12.5918781"><ele>687.0</ele><time>2026-05-02T11:32:43.187Z</time></trkpt><trkpt lat="43.3663753" lon="12.5917966"><ele>686.0</ele><time>2026-05-02T11:32:44.189Z</time></trkpt><trkpt lat="43.3664789" lon="12.5917197"><ele>685.0</ele><time>2026-05-02T11:32:45.184Z</time></trkpt><trkpt lat="43.3665791" lon="12.591674"><ele>685.0</ele><time>2026-05-02T11:32:46.175Z</time></trkpt><trkpt lat="43.3666819" lon="12.5916637"><ele>685.0</ele><time>2026-05-02T11:32:47.184Z</time></trkpt><trkpt lat="43.3667945" lon="12.5916606"><ele>685.0</ele><time>2026-05-02T11:32:48.179Z</time></trkpt><trkpt lat="43.3669255" lon="12.5916531"><ele>685.0</ele><time>2026-05-02T11:32:49.182Z</time></trkpt><trkpt lat="43.3670567" lon="12.5916242"><ele>685.0</ele><time>2026-05-02T11:32:50.18Z</time></trkpt><trkpt lat="43.3671895" lon="12.5916068"><ele>685.0</ele><time>2026-05-02T11:32:51.176Z</time></trkpt><trkpt lat="43.3673077" lon="12.5916052"><ele>685.0</ele><time>2026-05-02T11:32:52.186Z</time></trkpt><trkpt lat="43.3674017" lon="12.5916453"><ele>685.0</ele><time>2026-05-02T11:32:53.185Z</time></trkpt><trkpt lat="43.3674908" lon="12.5916895"><ele>685.0</ele><time>2026-05-02T11:32:54.183Z</time></trkpt><trkpt lat="43.3675742" lon="12.5917092"><ele>682.2</ele><time>2026-05-02T11:32:55.193Z</time></trkpt><trkpt lat="43.367656" lon="12.5916641"><ele>679.4</ele><time>2026-05-02T11:32:56.163Z</time></trkpt><trkpt lat="43.3677204" lon="12.5915478"><ele>676.5999999999999</ele><time>2026-05-02T11:32:57.207Z</time></trkpt><trkpt lat="43.3677679" lon="12.591428"><ele>673.8</ele><time>2026-05-02T11:32:58.177Z</time></trkpt><trkpt lat="43.3678331" lon="12.5913226"><ele>671.0</ele><time>2026-05-02T11:32:59.19Z</time></trkpt><trkpt lat="43.3679056" lon="12.5912595"><ele>671.0</ele><time>2026-05-02T11:33:00.179Z</time></trkpt><trkpt lat="43.3679892" lon="12.5912117"><ele>671.0</ele><time>2026-05-02T11:33:01.189Z</time></trkpt><trkpt lat="43.3680778" lon="12.5911488"><ele>671.0</ele><time>2026-05-02T11:33:02.178Z</time></trkpt><trkpt lat="43.3681645" lon="12.5910552"><ele>671.0</ele><time>2026-05-02T11:33:03.187Z</time></trkpt><trkpt lat="43.3682331" lon="12.5909393"><ele>671.0</ele><time>2026-05-02T11:33:04.185Z</time></trkpt><trkpt lat="43.3682899" lon="12.5907776"><ele>666.5</ele><time>2026-05-02T11:33:05.177Z</time></trkpt><trkpt lat="43.3683258" lon="12.5906023"><ele>662.0</ele><time>2026-05-02T11:33:06.189Z</time></trkpt><trkpt lat="43.3683373" lon="12.5904172"><ele>657.5</ele><time>2026-05-02T11:33:07.179Z</time></trkpt><trkpt lat="43.3683277" lon="12.5902406"><ele>653.0</ele><time>2026-05-02T11:33:08.182Z</time></trkpt><trkpt lat="43.3682924" lon="12.5900745"><ele>652.75</ele><time>2026-05-02T11:33:09.206Z</time></trkpt><trkpt lat="43.3682468" lon="12.589919"><ele>652.5</ele><time>2026-05-02T11:33:10.19Z</time></trkpt><trkpt lat="43.3681945" lon="12.5897565"><ele>652.25</ele><time>2026-05-02T11:33:11.166Z</time></trkpt><trkpt lat="43.3681642" lon="12.589593"><ele>652.0</ele><time>2026-05-02T11:33:12.189Z</time></trkpt><trkpt lat="43.3681415" lon="12.5894259"><ele>649.0</ele><time>2026-05-02T11:33:13.183Z</time></trkpt><trkpt lat="43.3681337" lon="12.5892645"><ele>646.0</ele><time>2026-05-02T11:33:14.188Z</time></trkpt><trkpt lat="43.3681426" lon="12.5890972"><ele>643.0</ele><time>2026-05-02T11:33:15.196Z</time></trkpt><trkpt lat="43.3681543" lon="12.5889313"><ele>640.0</ele><time>2026-05-02T11:33:16.176Z</time></trkpt><trkpt lat="43.3681683" lon="12.588768"><ele>637.4</ele><time>2026-05-02T11:33:17.176Z</time></trkpt><trkpt lat="43.3681937" lon="12.5886331"><ele>634.8</ele><time>2026-05-02T11:33:18.195Z</time></trkpt><trkpt lat="43.368217" lon="12.5885089"><ele>632.2</ele><time>2026-05-02T11:33:19.202Z</time></trkpt><trkpt lat="43.36821" lon="12.5883904"><ele>629.6</ele><time>2026-05-02T11:33:20.201Z</time></trkpt><trkpt lat="43.368168" lon="12.5882853"><ele>627.0</ele><time>2026-05-02T11:33:21.188Z</time></trkpt><trkpt lat="43.3681002" lon="12.5882112"><ele>634.0</ele><time>2026-05-02T11:33:22.192Z</time></trkpt><trkpt lat="43.3679999" lon="12.5881655"><ele>641.0</ele><time>2026-05-02T11:33:23.197Z</time></trkpt><trkpt lat="43.3678892" lon="12.5881382"><ele>648.0</ele><time>2026-05-02T11:33:24.18Z</time></trkpt><trkpt lat="43.3677838" lon="12.5881052"><ele>655.0</ele><time>2026-05-02T11:33:25.174Z</time></trkpt><trkpt lat="43.3677044" lon="12.5880806"><ele>662.0</ele><time>2026-05-02T11:33:26.183Z</time></trkpt><trkpt lat="43.3676195" lon="12.5879901"><ele>662.0</ele><time>2026-05-02T11:33:28.175Z</time></trkpt><trkpt lat="43.367645" lon="12.5878527"><ele>662.0</ele><time>2026-05-02T11:33:30.197Z</time></trkpt><trkpt lat="43.367724" lon="12.5878502"><ele>662.0</ele><time>2026-05-02T11:33:31.189Z</time></trkpt><trkpt lat="43.367822" lon="12.5878745"><ele>662.0</ele><time>2026-05-02T11:33:32.182Z</time></trkpt><trkpt lat="43.3679284" lon="12.5879214"><ele>662.0</ele><time>2026-05-02T11:33:33.196Z</time></trkpt><trkpt lat="43.3680398" lon="12.5879481"><ele>655.0</ele><time>2026-05-02T11:33:34.186Z</time></trkpt><trkpt lat="43.3681438" lon="12.587966"><ele>648.0</ele><time>2026-05-02T11:33:35.184Z</time></trkpt><trkpt lat="43.3682532" lon="12.5880025"><ele>641.0</ele><time>2026-05-02T11:33:36.183Z</time></trkpt><trkpt lat="43.3683433" lon="12.5880577"><ele>634.0</ele><time>2026-05-02T11:33:37.196Z</time></trkpt><trkpt lat="43.3684249" lon="12.5881755"><ele>627.0</ele><time>2026-05-02T11:33:38.179Z</time></trkpt><trkpt lat="43.3684787" lon="12.588307"><ele>627.0</ele><time>2026-05-02T11:33:39.189Z</time></trkpt><trkpt lat="43.3685044" lon="12.5884586"><ele>627.0</ele><time>2026-05-02T11:33:40.192Z</time></trkpt><trkpt lat="43.368518" lon="12.5885741"><ele>627.0</ele><time>2026-05-02T11:33:41.162Z</time></trkpt><trkpt lat="43.3685496" lon="12.588678"><ele>627.0</ele><time>2026-05-02T11:33:42.171Z</time></trkpt><trkpt lat="43.368598" lon="12.5887337"><ele>627.0</ele><time>2026-05-02T11:33:43.177Z</time></trkpt><trkpt lat="43.3686773" lon="12.588631"><ele>627.0</ele><time>2026-05-02T11:33:45.177Z</time></trkpt><trkpt lat="43.3686931" lon="12.5885448"><ele>627.0</ele><time>2026-05-02T11:33:46.184Z</time></trkpt><trkpt lat="43.3686905" lon="12.5884578"><ele>627.0</ele><time>2026-05-02T11:33:47.181Z</time></trkpt><trkpt lat="43.3686931" lon="12.5883496"><ele>627.0</ele><time>2026-05-02T11:33:48.185Z</time></trkpt><trkpt lat="43.3687121" lon="12.588253"><ele>627.0</ele><time>2026-05-02T11:33:49.191Z</time></trkpt><trkpt lat="43.3687565" lon="12.5881837"><ele>627.0</ele><time>2026-05-02T11:33:50.19Z</time></trkpt><trkpt lat="43.3688146" lon="12.5881426"><ele>627.0</ele><time>2026-05-02T11:33:51.183Z</time></trkpt><trkpt lat="43.3688938" lon="12.5881219"><ele>625.0</ele><time>2026-05-02T11:33:52.185Z</time></trkpt><trkpt lat="43.3689717" lon="12.5880991"><ele>623.0</ele><time>2026-05-02T11:33:53.182Z</time></trkpt><trkpt lat="43.3690748" lon="12.5880988"><ele>621.0</ele><time>2026-05-02T11:33:54.192Z</time></trkpt><trkpt lat="43.3691911" lon="12.5880941"><ele>619.0</ele><time>2026-05-02T11:33:55.199Z</time></trkpt><trkpt lat="43.369323" lon="12.5880945"><ele>617.0</ele><time>2026-05-02T11:33:56.195Z</time></trkpt><trkpt lat="43.3694586" lon="12.5880896"><ele>617.0</ele><time>2026-05-02T11:33:57.208Z</time></trkpt><trkpt lat="43.3695907" lon="12.588125"><ele>617.0</ele><time>2026-05-02T11:33:58.186Z</time></trkpt><trkpt lat="43.3697048" lon="12.5882448"><ele>617.0</ele><time>2026-05-02T11:33:59.195Z</time></trkpt><trkpt lat="43.369805" lon="12.5883935"><ele>617.0</ele><time>2026-05-02T11:34:00.189Z</time></trkpt><trkpt lat="43.3698941" lon="12.5885643"><ele>624.3333333333333</ele><time>2026-05-02T11:34:01.187Z</time></trkpt><trkpt lat="43.3700034" lon="12.5887243"><ele>631.6666666666666</ele><time>2026-05-02T11:34:02.2Z</time></trkpt><trkpt lat="43.3701423" lon="12.5888724"><ele>639.0</ele><time>2026-05-02T11:34:03.203Z</time></trkpt><trkpt lat="43.3702867" lon="12.5889971"><ele>639.0</ele><time>2026-05-02T11:34:04.203Z</time></trkpt><trkpt lat="43.370447" lon="12.5890903"><ele>639.0</ele><time>2026-05-02T11:34:05.184Z</time></trkpt><trkpt lat="43.3706112" lon="12.5891531"><ele>639.0</ele><time>2026-05-02T11:34:06.187Z</time></trkpt><trkpt lat="43.3707717" lon="12.5891933"><ele>634.6666666666666</ele><time>2026-05-02T11:34:07.195Z</time></trkpt><trkpt lat="43.3709323" lon="12.5891975"><ele>630.3333333333333</ele><time>2026-05-02T11:34:08.183Z</time></trkpt><trkpt lat="43.3710903" lon="12.5891761"><ele>626.0</ele><time>2026-05-02T11:34:09.199Z</time></trkpt><trkpt lat="43.3712347" lon="12.5891932"><ele>625.25</ele><time>2026-05-02T11:34:10.196Z</time></trkpt><trkpt lat="43.3713685" lon="12.5892659"><ele>624.5</ele><time>2026-05-02T11:34:11.197Z</time></trkpt><trkpt lat="43.3714949" lon="12.5893702"><ele>623.75</ele><time>2026-05-02T11:34:12.193Z</time></trkpt><trkpt lat="43.3716179" lon="12.5894748"><ele>623.0</ele><time>2026-05-02T11:34:13.191Z</time></trkpt><trkpt lat="43.371738" lon="12.5895843"><ele>626.3333333333333</ele><time>2026-05-02T11:34:14.189Z</time></trkpt><trkpt lat="43.3718638" lon="12.5897046"><ele>629.6666666666666</ele><time>2026-05-02T11:34:15.184Z</time></trkpt><trkpt lat="43.3719914" lon="12.5898272"><ele>633.0</ele><time>2026-05-02T11:34:16.188Z</time></trkpt><trkpt lat="43.3721335" lon="12.5899436"><ele>631.6666666666666</ele><time>2026-05-02T11:34:17.191Z</time></trkpt><trkpt lat="43.3722886" lon="12.5900445"><ele>630.3333333333333</ele><time>2026-05-02T11:34:18.194Z</time></trkpt><trkpt lat="43.3724504" lon="12.5901213"><ele>629.0</ele><time>2026-05-02T11:34:19.207Z</time></trkpt><trkpt lat="43.3726197" lon="12.5901621"><ele>629.0</ele><time>2026-05-02T11:34:20.195Z</time></trkpt><trkpt lat="43.3727672" lon="12.5901838"><ele>629.0</ele><time>2026-05-02T11:34:21.2Z</time></trkpt><trkpt lat="43.3728889" lon="12.590196"><ele>629.0</ele><time>2026-05-02T11:34:22.186Z</time></trkpt><trkpt lat="43.3729921" lon="12.5902138"><ele>629.0</ele><time>2026-05-02T11:34:23.189Z</time></trkpt><trkpt lat="43.3730739" lon="12.5902699"><ele>632.2</ele><time>2026-05-02T11:34:24.19Z</time></trkpt><trkpt lat="43.3731293" lon="12.5903607"><ele>635.4</ele><time>2026-05-02T11:34:25.192Z</time></trkpt><trkpt lat="43.373144" lon="12.5904875"><ele>638.6</ele><time>2026-05-02T11:34:26.175Z</time></trkpt><trkpt lat="43.3731094" lon="12.5905946"><ele>641.8</ele><time>2026-05-02T11:34:27.184Z</time></trkpt><trkpt lat="43.3730092" lon="12.5906527"><ele>645.0</ele><time>2026-05-02T11:34:28.184Z</time></trkpt><trkpt lat="43.3729017" lon="12.5906445"><ele>645.0</ele><time>2026-05-02T11:34:29.176Z</time></trkpt><trkpt lat="43.3727814" lon="12.5905982"><ele>645.0</ele><time>2026-05-02T11:34:30.186Z</time></trkpt><trkpt lat="43.3726506" lon="12.5905573"><ele>645.0</ele><time>2026-05-02T11:34:31.19Z</time></trkpt><trkpt lat="43.3725374" lon="12.5905246"><ele>645.0</ele><time>2026-05-02T11:34:32.174Z</time></trkpt><trkpt lat="43.3724271" lon="12.5905225"><ele>645.0</ele><time>2026-05-02T11:34:33.198Z</time></trkpt><trkpt lat="43.3723342" lon="12.5905662"><ele>645.0</ele><time>2026-05-02T11:34:34.197Z</time></trkpt><trkpt lat="43.372259" lon="12.5906681"><ele>645.0</ele><time>2026-05-02T11:34:35.213Z</time></trkpt><trkpt lat="43.3722119" lon="12.5908086"><ele>645.0</ele><time>2026-05-02T11:34:36.176Z</time></trkpt><trkpt lat="43.3721723" lon="12.5910001"><ele>645.3333333333334</ele><time>2026-05-02T11:34:37.184Z</time></trkpt><trkpt lat="43.3721458" lon="12.5912095"><ele>645.6666666666667</ele><time>2026-05-02T11:34:38.18Z</time></trkpt><trkpt lat="43.3721255" lon="12.5914297"><ele>646.0</ele><time>2026-05-02T11:34:39.184Z</time></trkpt><trkpt lat="43.3721148" lon="12.5916894"><ele>646.0</ele><time>2026-05-02T11:34:40.185Z</time></trkpt><trkpt lat="43.3721098" lon="12.5919533"><ele>646.0</ele><time>2026-05-02T11:34:41.191Z</time></trkpt><trkpt lat="43.372088" lon="12.5921823"><ele>646.0</ele><time>2026-05-02T11:34:42.184Z</time></trkpt><trkpt lat="43.3720486" lon="12.592381"><ele>646.5</ele><time>2026-05-02T11:34:43.189Z</time></trkpt><trkpt lat="43.3720285" lon="12.5925553"><ele>647.0</ele><time>2026-05-02T11:34:44.186Z</time></trkpt><trkpt lat="43.3720529" lon="12.5927349"><ele>647.5</ele><time>2026-05-02T11:34:45.191Z</time></trkpt><trkpt lat="43.3721464" lon="12.5928789"><ele>648.0</ele><time>2026-05-02T11:34:46.175Z</time></trkpt><trkpt lat="43.3722431" lon="12.5930163"><ele>655.75</ele><time>2026-05-02T11:34:47.196Z</time></trkpt><trkpt lat="43.3723412" lon="12.5931676"><ele>663.5</ele><time>2026-05-02T11:34:48.191Z</time></trkpt><trkpt lat="43.3724045" lon="12.593345"><ele>671.25</ele><time>2026-05-02T11:34:49.19Z</time></trkpt><trkpt lat="43.3724295" lon="12.5935472"><ele>679.0</ele><time>2026-05-02T11:34:50.191Z</time></trkpt><trkpt lat="43.3723904" lon="12.5937684"><ele>679.0</ele><time>2026-05-02T11:34:51.179Z</time></trkpt><trkpt lat="43.37236" lon="12.5939865"><ele>679.0</ele><time>2026-05-02T11:34:52.188Z</time></trkpt><trkpt lat="43.3723466" lon="12.5941947"><ele>679.0</ele><time>2026-05-02T11:34:53.188Z</time></trkpt><trkpt lat="43.3723581" lon="12.5944125"><ele>680.0</ele><time>2026-05-02T11:34:54.205Z</time></trkpt><trkpt lat="43.3724352" lon="12.5946199"><ele>681.0</ele><time>2026-05-02T11:34:55.192Z</time></trkpt><trkpt lat="43.3725417" lon="12.5948277"><ele>682.0</ele><time>2026-05-02T11:34:56.178Z</time></trkpt><trkpt lat="43.3726288" lon="12.5950427"><ele>682.0</ele><time>2026-05-02T11:34:57.182Z</time></trkpt><trkpt lat="43.3727053" lon="12.5952396"><ele>682.0</ele><time>2026-05-02T11:34:58.186Z</time></trkpt><trkpt lat="43.3727923" lon="12.5954324"><ele>682.0</ele><time>2026-05-02T11:34:59.195Z</time></trkpt><trkpt lat="43.3729105" lon="12.5956016"><ele>688.3333333333334</ele><time>2026-05-02T11:35:00.197Z</time></trkpt><trkpt lat="43.3730453" lon="12.5957715"><ele>694.6666666666666</ele><time>2026-05-02T11:35:01.191Z</time></trkpt><trkpt lat="43.3731817" lon="12.5959502"><ele>701.0</ele><time>2026-05-02T11:35:02.202Z</time></trkpt><trkpt lat="43.3733142" lon="12.5961498"><ele>698.6666666666666</ele><time>2026-05-02T11:35:03.18Z</time></trkpt><trkpt lat="43.3734364" lon="12.5963628"><ele>696.3333333333334</ele><time>2026-05-02T11:35:04.187Z</time></trkpt><trkpt lat="43.3735523" lon="12.5965757"><ele>694.0</ele><time>2026-05-02T11:35:05.2Z</time></trkpt><trkpt lat="43.3736646" lon="12.5967995"><ele>696.6666666666667</ele><time>2026-05-02T11:35:06.191Z</time></trkpt><trkpt lat="43.3737768" lon="12.5970226"><ele>699.3333333333334</ele><time>2026-05-02T11:35:07.184Z</time></trkpt><trkpt lat="43.3738831" lon="12.5972441"><ele>702.0</ele><time>2026-05-02T11:35:08.193Z</time></trkpt><trkpt lat="43.3739913" lon="12.5974727"><ele>702.3333333333334</ele><time>2026-05-02T11:35:09.198Z</time></trkpt><trkpt lat="43.3740939" lon="12.5977087"><ele>702.6666666666667</ele><time>2026-05-02T11:35:10.196Z</time></trkpt><trkpt lat="43.3741784" lon="12.5979557"><ele>703.0</ele><time>2026-05-02T11:35:11.191Z</time></trkpt><trkpt lat="43.3742668" lon="12.5981891"><ele>703.0</ele><time>2026-05-02T11:35:12.19Z</time></trkpt><trkpt lat="43.374357" lon="12.5984214"><ele>703.0</ele><time>2026-05-02T11:35:13.183Z</time></trkpt><trkpt lat="43.374453" lon="12.5986429"><ele>703.0</ele><time>2026-05-02T11:35:14.202Z</time></trkpt><trkpt lat="43.3745634" lon="12.5988527"><ele>704.0</ele><time>2026-05-02T11:35:15.184Z</time></trkpt><trkpt lat="43.3746854" lon="12.5990478"><ele>705.0</ele><time>2026-05-02T11:35:16.194Z</time></trkpt><trkpt lat="43.3748104" lon="12.5992293"><ele>706.0</ele><time>2026-05-02T11:35:17.192Z</time></trkpt><trkpt lat="43.3749342" lon="12.5994179"><ele>709.3333333333334</ele><time>2026-05-02T11:35:18.191Z</time></trkpt><trkpt lat="43.3750464" lon="12.5996204"><ele>712.6666666666666</ele><time>2026-05-02T11:35:19.185Z</time></trkpt><trkpt lat="43.3751493" lon="12.5998245"><ele>716.0</ele><time>2026-05-02T11:35:20.19Z</time></trkpt><trkpt lat="43.3752631" lon="12.600012"><ele>716.0</ele><time>2026-05-02T11:35:21.19Z</time></trkpt><trkpt lat="43.3753979" lon="12.6001732"><ele>716.0</ele><time>2026-05-02T11:35:22.185Z</time></trkpt><trkpt lat="43.3755318" lon="12.6003324"><ele>716.0</ele><time>2026-05-02T11:35:23.19Z</time></trkpt><trkpt lat="43.3756603" lon="12.6004883"><ele>719.0</ele><time>2026-05-02T11:35:24.191Z</time></trkpt><trkpt lat="43.375775" lon="12.6006633"><ele>722.0</ele><time>2026-05-02T11:35:25.197Z</time></trkpt><trkpt lat="43.3758912" lon="12.6008467"><ele>725.0</ele><time>2026-05-02T11:35:26.196Z</time></trkpt><trkpt lat="43.3759874" lon="12.6010391"><ele>726.5</ele><time>2026-05-02T11:35:27.191Z</time></trkpt><trkpt lat="43.376062" lon="12.6012266"><ele>728.0</ele><time>2026-05-02T11:35:28.194Z</time></trkpt><trkpt lat="43.3761029" lon="12.6014073"><ele>729.5</ele><time>2026-05-02T11:35:29.191Z</time></trkpt><trkpt lat="43.3761216" lon="12.6015912"><ele>731.0</ele><time>2026-05-02T11:35:30.196Z</time></trkpt><trkpt lat="43.3761019" lon="12.6017672"><ele>731.0</ele><time>2026-05-02T11:35:31.196Z</time></trkpt><trkpt lat="43.3760407" lon="12.6019203"><ele>731.0</ele><time>2026-05-02T11:35:32.196Z</time></trkpt><trkpt lat="43.375973" lon="12.6020641"><ele>731.0</ele><time>2026-05-02T11:35:33.194Z</time></trkpt><trkpt lat="43.3759326" lon="12.602205"><ele>731.0</ele><time>2026-05-02T11:35:34.201Z</time></trkpt><trkpt lat="43.3759402" lon="12.6023342"><ele>733.25</ele><time>2026-05-02T11:35:35.196Z</time></trkpt><trkpt lat="43.3760151" lon="12.6024405"><ele>735.5</ele><time>2026-05-02T11:35:36.183Z</time></trkpt><trkpt lat="43.376134" lon="12.6024772"><ele>737.75</ele><time>2026-05-02T11:35:37.189Z</time></trkpt><trkpt lat="43.3762667" lon="12.6024463"><ele>740.0</ele><time>2026-05-02T11:35:38.195Z</time></trkpt><trkpt lat="43.3763996" lon="12.6024034"><ele>740.25</ele><time>2026-05-02T11:35:39.192Z</time></trkpt><trkpt lat="43.3765267" lon="12.6023706"><ele>740.5</ele><time>2026-05-02T11:35:40.192Z</time></trkpt><trkpt lat="43.3766455" lon="12.6023431"><ele>740.75</ele><time>2026-05-02T11:35:41.199Z</time></trkpt><trkpt lat="43.3767507" lon="12.6023841"><ele>741.0</ele><time>2026-05-02T11:35:42.194Z</time></trkpt><trkpt lat="43.3768233" lon="12.6024905"><ele>741.0</ele><time>2026-05-02T11:35:43.194Z</time></trkpt><trkpt lat="43.3768446" lon="12.6026357"><ele>741.0</ele><time>2026-05-02T11:35:44.193Z</time></trkpt><trkpt lat="43.376806" lon="12.6027582"><ele>741.0</ele><time>2026-05-02T11:35:45.196Z</time></trkpt><trkpt lat="43.3767148" lon="12.6028447"><ele>741.0</ele><time>2026-05-02T11:35:46.201Z</time></trkpt><trkpt lat="43.376594" lon="12.6029093"><ele>741.0</ele><time>2026-05-02T11:35:47.187Z</time></trkpt><trkpt lat="43.376453" lon="12.6029797"><ele>743.75</ele><time>2026-05-02T11:35:48.191Z</time></trkpt><trkpt lat="43.3763253" lon="12.603066"><ele>746.5</ele><time>2026-05-02T11:35:49.192Z</time></trkpt><trkpt lat="43.3762178" lon="12.6031387"><ele>749.25</ele><time>2026-05-02T11:35:50.181Z</time></trkpt><trkpt lat="43.3761378" lon="12.6032334"><ele>752.0</ele><time>2026-05-02T11:35:51.195Z</time></trkpt><trkpt lat="43.3760883" lon="12.6033675"><ele>752.0</ele><time>2026-05-02T11:35:52.188Z</time></trkpt><trkpt lat="43.376091" lon="12.6035211"><ele>752.0</ele><time>2026-05-02T11:35:53.204Z</time></trkpt><trkpt lat="43.3761468" lon="12.6036608"><ele>752.0</ele><time>2026-05-02T11:35:54.195Z</time></trkpt><trkpt lat="43.3762375" lon="12.6037577"><ele>752.0</ele><time>2026-05-02T11:35:55.165Z</time></trkpt><trkpt lat="43.3763622" lon="12.6037682"><ele>752.5</ele><time>2026-05-02T11:35:56.2Z</time></trkpt><trkpt lat="43.3765023" lon="12.6037336"><ele>753.0</ele><time>2026-05-02T11:35:57.2Z</time></trkpt><trkpt lat="43.3766414" lon="12.6036958"><ele>753.5</ele><time>2026-05-02T11:35:58.187Z</time></trkpt><trkpt lat="43.376776" lon="12.6036495"><ele>754.0</ele><time>2026-05-02T11:35:59.187Z</time></trkpt><trkpt lat="43.3769231" lon="12.6036161"><ele>754.0</ele><time>2026-05-02T11:36:00.201Z</time></trkpt><trkpt lat="43.3770676" lon="12.6036218"><ele>754.0</ele><time>2026-05-02T11:36:01.198Z</time></trkpt><trkpt lat="43.3772042" lon="12.6036758"><ele>754.0</ele><time>2026-05-02T11:36:02.19Z</time></trkpt><trkpt lat="43.3773477" lon="12.6037567"><ele>754.0</ele><time>2026-05-02T11:36:03.184Z</time></trkpt><trkpt lat="43.3774751" lon="12.6038177"><ele>760.0</ele><time>2026-05-02T11:36:04.196Z</time></trkpt><trkpt lat="43.3776019" lon="12.603853"><ele>766.0</ele><time>2026-05-02T11:36:05.197Z</time></trkpt><trkpt lat="43.3777305" lon="12.6038614"><ele>772.0</ele><time>2026-05-02T11:36:06.196Z</time></trkpt><trkpt lat="43.3778578" lon="12.6038582"><ele>778.0</ele><time>2026-05-02T11:36:07.203Z</time></trkpt><trkpt lat="43.3779864" lon="12.6038588"><ele>778.4</ele><time>2026-05-02T11:36:08.187Z</time></trkpt><trkpt lat="43.3781093" lon="12.6038571"><ele>778.8</ele><time>2026-05-02T11:36:09.189Z</time></trkpt><trkpt lat="43.3782185" lon="12.6038713"><ele>779.2</ele><time>2026-05-02T11:36:10.177Z</time></trkpt><trkpt lat="43.3783182" lon="12.6038838"><ele>779.6</ele><time>2026-05-02T11:36:11.194Z</time></trkpt><trkpt lat="43.3784057" lon="12.6038976"><ele>780.0</ele><time>2026-05-02T11:36:12.194Z</time></trkpt><trkpt lat="43.3784797" lon="12.6039466"><ele>780.0</ele><time>2026-05-02T11:36:13.194Z</time></trkpt><trkpt lat="43.3785433" lon="12.6040222"><ele>780.0</ele><time>2026-05-02T11:36:14.184Z</time></trkpt><trkpt lat="43.37859" lon="12.6041418"><ele>780.0</ele><time>2026-05-02T11:36:15.205Z</time></trkpt><trkpt lat="43.3785983" lon="12.6043082"><ele>780.0</ele><time>2026-05-02T11:36:16.194Z</time></trkpt><trkpt lat="43.3785933" lon="12.604503"><ele>780.0</ele><time>2026-05-02T11:36:17.198Z</time></trkpt><trkpt lat="43.3785789" lon="12.6046962"><ele>778.25</ele><time>2026-05-02T11:36:18.186Z</time></trkpt><trkpt lat="43.3785417" lon="12.6048895"><ele>776.5</ele><time>2026-05-02T11:36:19.205Z</time></trkpt><trkpt lat="43.3784752" lon="12.6050458"><ele>774.75</ele><time>2026-05-02T11:36:20.196Z</time></trkpt><trkpt lat="43.3783635" lon="12.6051512"><ele>773.0</ele><time>2026-05-02T11:36:21.185Z</time></trkpt><trkpt lat="43.3782283" lon="12.6051999"><ele>773.0</ele><time>2026-05-02T11:36:22.158Z</time></trkpt><trkpt lat="43.3780653" lon="12.6052325"><ele>773.0</ele><time>2026-05-02T11:36:23.183Z</time></trkpt><trkpt lat="43.377898" lon="12.6052588"><ele>773.0</ele><time>2026-05-02T11:36:24.171Z</time></trkpt><trkpt lat="43.3777383" lon="12.605294"><ele>771.0</ele><time>2026-05-02T11:36:25.195Z</time></trkpt><trkpt lat="43.37759" lon="12.6053785"><ele>769.0</ele><time>2026-05-02T11:36:26.203Z</time></trkpt><trkpt lat="43.3774512" lon="12.6055386"><ele>767.0</ele><time>2026-05-02T11:36:27.168Z</time></trkpt><trkpt lat="43.3773573" lon="12.605723"><ele>767.0</ele><time>2026-05-02T11:36:28.189Z</time></trkpt><trkpt lat="43.3772648" lon="12.6059176"><ele>767.0</ele><time>2026-05-02T11:36:29.189Z</time></trkpt><trkpt lat="43.3771855" lon="12.6060883"><ele>767.0</ele><time>2026-05-02T11:36:30.209Z</time></trkpt><trkpt lat="43.3771169" lon="12.6062638"><ele>767.5</ele><time>2026-05-02T11:36:31.19Z</time></trkpt><trkpt lat="43.3770957" lon="12.6064519"><ele>768.0</ele><time>2026-05-02T11:36:32.191Z</time></trkpt><trkpt lat="43.3771185" lon="12.6066262"><ele>768.5</ele><time>2026-05-02T11:36:33.213Z</time></trkpt><trkpt lat="43.3771889" lon="12.6067876"><ele>769.0</ele><time>2026-05-02T11:36:34.169Z</time></trkpt><trkpt lat="43.3772881" lon="12.6068898"><ele>769.0</ele><time>2026-05-02T11:36:35.193Z</time></trkpt><trkpt lat="43.3774132" lon="12.6069271"><ele>769.0</ele><time>2026-05-02T11:36:36.183Z</time></trkpt><trkpt lat="43.3775498" lon="12.6069119"><ele>769.0</ele><time>2026-05-02T11:36:37.19Z</time></trkpt><trkpt lat="43.3776981" lon="12.6068819"><ele>769.0</ele><time>2026-05-02T11:36:38.182Z</time></trkpt><trkpt lat="43.3778439" lon="12.6068432"><ele>769.0</ele><time>2026-05-02T11:36:39.188Z</time></trkpt><trkpt lat="43.3779936" lon="12.6068"><ele>769.0</ele><time>2026-05-02T11:36:40.193Z</time></trkpt><trkpt lat="43.378142" lon="12.6067507"><ele>769.0</ele><time>2026-05-02T11:36:41.208Z</time></trkpt><trkpt lat="43.3782856" lon="12.6067072"><ele>766.25</ele><time>2026-05-02T11:36:42.2Z</time></trkpt><trkpt lat="43.3784234" lon="12.6066703"><ele>763.5</ele><time>2026-05-02T11:36:43.192Z</time></trkpt><trkpt lat="43.3785551" lon="12.6066446"><ele>760.75</ele><time>2026-05-02T11:36:44.201Z</time></trkpt><trkpt lat="43.3786951" lon="12.6066228"><ele>758.0</ele><time>2026-05-02T11:36:45.194Z</time></trkpt><trkpt lat="43.3788252" lon="12.6065947"><ele>756.5</ele><time>2026-05-02T11:36:46.185Z</time></trkpt><trkpt lat="43.3789585" lon="12.6065704"><ele>755.0</ele><time>2026-05-02T11:36:47.184Z</time></trkpt><trkpt lat="43.3790934" lon="12.6065561"><ele>753.5</ele><time>2026-05-02T11:36:48.184Z</time></trkpt><trkpt lat="43.3792235" lon="12.6065347"><ele>752.0</ele><time>2026-05-02T11:36:49.19Z</time></trkpt><trkpt lat="43.3793482" lon="12.6065125"><ele>752.0</ele><time>2026-05-02T11:36:50.193Z</time></trkpt><trkpt lat="43.3794724" lon="12.606502"><ele>752.0</ele><time>2026-05-02T11:36:51.206Z</time></trkpt><trkpt lat="43.3796029" lon="12.6065"><ele>752.0</ele><time>2026-05-02T11:36:52.169Z</time></trkpt><trkpt lat="43.3797309" lon="12.6064955"><ele>752.0</ele><time>2026-05-02T11:36:53.189Z</time></trkpt><trkpt lat="43.3798516" lon="12.6064976"><ele>750.25</ele><time>2026-05-02T11:36:54.193Z</time></trkpt><trkpt lat="43.3799653" lon="12.6065497"><ele>748.5</ele><time>2026-05-02T11:36:55.184Z</time></trkpt><trkpt lat="43.3800951" lon="12.6066377"><ele>746.75</ele><time>2026-05-02T11:36:56.191Z</time></trkpt><trkpt lat="43.3802359" lon="12.6067518"><ele>745.0</ele><time>2026-05-02T11:36:57.185Z</time></trkpt><trkpt lat="43.3803739" lon="12.6068787"><ele>742.3333333333334</ele><time>2026-05-02T11:36:58.162Z</time></trkpt><trkpt lat="43.3805174" lon="12.6070029"><ele>739.6666666666666</ele><time>2026-05-02T11:36:59.2Z</time></trkpt><trkpt lat="43.3806641" lon="12.6071314"><ele>737.0</ele><time>2026-05-02T11:37:00.208Z</time></trkpt><trkpt lat="43.3808131" lon="12.6072711"><ele>737.0</ele><time>2026-05-02T11:37:01.191Z</time></trkpt><trkpt lat="43.3809457" lon="12.6074082"><ele>737.0</ele><time>2026-05-02T11:37:02.204Z</time></trkpt><trkpt lat="43.3810774" lon="12.6075561"><ele>737.0</ele><time>2026-05-02T11:37:03.189Z</time></trkpt><trkpt lat="43.3812072" lon="12.607712"><ele>738.6666666666666</ele><time>2026-05-02T11:37:04.204Z</time></trkpt><trkpt lat="43.3813289" lon="12.6078686"><ele>740.3333333333334</ele><time>2026-05-02T11:37:05.191Z</time></trkpt><trkpt lat="43.381443" lon="12.6080234"><ele>742.0</ele><time>2026-05-02T11:37:06.193Z</time></trkpt><trkpt lat="43.3815562" lon="12.6081868"><ele>740.0</ele><time>2026-05-02T11:37:07.193Z</time></trkpt><trkpt lat="43.3816716" lon="12.6083606"><ele>738.0</ele><time>2026-05-02T11:37:08.188Z</time></trkpt><trkpt lat="43.3817924" lon="12.6085306"><ele>736.0</ele><time>2026-05-02T11:37:09.202Z</time></trkpt><trkpt lat="43.3819068" lon="12.6086888"><ele>736.0</ele><time>2026-05-02T11:37:10.184Z</time></trkpt><trkpt lat="43.3820221" lon="12.6088386"><ele>736.0</ele><time>2026-05-02T11:37:11.193Z</time></trkpt><trkpt lat="43.3821327" lon="12.6089854"><ele>736.0</ele><time>2026-05-02T11:37:12.196Z</time></trkpt><trkpt lat="43.3822377" lon="12.6091369"><ele>731.0</ele><time>2026-05-02T11:37:13.196Z</time></trkpt><trkpt lat="43.3823375" lon="12.6092674"><ele>726.0</ele><time>2026-05-02T11:37:14.187Z</time></trkpt><trkpt lat="43.3824401" lon="12.6093559"><ele>721.0</ele><time>2026-05-02T11:37:15.182Z</time></trkpt><trkpt lat="43.3825513" lon="12.609398"><ele>716.0</ele><time>2026-05-02T11:37:16.187Z</time></trkpt><trkpt lat="43.3826748" lon="12.6093754"><ele>716.0</ele><time>2026-05-02T11:37:17.191Z</time></trkpt><trkpt lat="43.3827728" lon="12.6093052"><ele>716.0</ele><time>2026-05-02T11:37:18.199Z</time></trkpt><trkpt lat="43.3828784" lon="12.6092149"><ele>716.0</ele><time>2026-05-02T11:37:19.191Z</time></trkpt><trkpt lat="43.3829833" lon="12.6091304"><ele>716.0</ele><time>2026-05-02T11:37:20.204Z</time></trkpt><trkpt lat="43.3831025" lon="12.6090948"><ele>716.5</ele><time>2026-05-02T11:37:21.201Z</time></trkpt><trkpt lat="43.3832325" lon="12.6091365"><ele>717.0</ele><time>2026-05-02T11:37:22.193Z</time></trkpt><trkpt lat="43.383338" lon="12.6092286"><ele>717.5</ele><time>2026-05-02T11:37:23.189Z</time></trkpt><trkpt lat="43.3834471" lon="12.6093846"><ele>718.0</ele><time>2026-05-02T11:37:24.189Z</time></trkpt><trkpt lat="43.3835442" lon="12.609561"><ele>715.0</ele><time>2026-05-02T11:37:25.162Z</time></trkpt><trkpt lat="43.3836408" lon="12.6097278"><ele>712.0</ele><time>2026-05-02T11:37:26.2Z</time></trkpt><trkpt lat="43.3837448" lon="12.6098775"><ele>709.0</ele><time>2026-05-02T11:37:27.193Z</time></trkpt><trkpt lat="43.383873" lon="12.6099946"><ele>709.0</ele><time>2026-05-02T11:37:28.224Z</time></trkpt><trkpt lat="43.3840305" lon="12.6100836"><ele>709.0</ele><time>2026-05-02T11:37:29.194Z</time></trkpt><trkpt lat="43.3841943" lon="12.6101738"><ele>709.0</ele><time>2026-05-02T11:37:30.189Z</time></trkpt><trkpt lat="43.3843572" lon="12.6102496"><ele>709.0</ele><time>2026-05-02T11:37:31.186Z</time></trkpt><trkpt lat="43.3845105" lon="12.6103137"><ele>709.0</ele><time>2026-05-02T11:37:32.188Z</time></trkpt><trkpt lat="43.3846394" lon="12.6104007"><ele>709.0</ele><time>2026-05-02T11:37:33.199Z</time></trkpt><trkpt lat="43.3847494" lon="12.6105203"><ele>709.0</ele><time>2026-05-02T11:37:34.169Z</time></trkpt><trkpt lat="43.3848493" lon="12.6106911"><ele>707.3333333333334</ele><time>2026-05-02T11:37:35.166Z</time></trkpt><trkpt lat="43.384944" lon="12.610873"><ele>705.6666666666666</ele><time>2026-05-02T11:37:36.155Z</time></trkpt><trkpt lat="43.3850393" lon="12.6110684"><ele>704.0</ele><time>2026-05-02T11:37:37.163Z</time></trkpt><trkpt lat="43.3851319" lon="12.6112564"><ele>700.3333333333333</ele><time>2026-05-02T11:37:38.186Z</time></trkpt><trkpt lat="43.3852324" lon="12.6114512"><ele>696.6666666666666</ele><time>2026-05-02T11:37:39.193Z</time></trkpt><trkpt lat="43.3853313" lon="12.6116501"><ele>693.0</ele><time>2026-05-02T11:37:40.171Z</time></trkpt><trkpt lat="43.38543" lon="12.6118527"><ele>694.0</ele><time>2026-05-02T11:37:41.196Z</time></trkpt><trkpt lat="43.3855224" lon="12.6120319"><ele>695.0</ele><time>2026-05-02T11:37:42.183Z</time></trkpt><trkpt lat="43.3856161" lon="12.6121948"><ele>696.0</ele><time>2026-05-02T11:37:43.191Z</time></trkpt><trkpt lat="43.3857296" lon="12.6123354"><ele>696.0</ele><time>2026-05-02T11:37:44.173Z</time></trkpt><trkpt lat="43.3858616" lon="12.6124233"><ele>696.0</ele><time>2026-05-02T11:37:45.168Z</time></trkpt><trkpt lat="43.386011" lon="12.6124857"><ele>696.0</ele><time>2026-05-02T11:37:46.174Z</time></trkpt><trkpt lat="43.3861747" lon="12.6124957"><ele>701.0</ele><time>2026-05-02T11:37:47.181Z</time></trkpt><trkpt lat="43.386349" lon="12.6124769"><ele>706.0</ele><time>2026-05-02T11:37:48.195Z</time></trkpt><trkpt lat="43.3865173" lon="12.6124655"><ele>711.0</ele><time>2026-05-02T11:37:49.16Z</time></trkpt><trkpt lat="43.3866958" lon="12.6124392"><ele>711.0</ele><time>2026-05-02T11:37:50.155Z</time></trkpt><trkpt lat="43.3868703" lon="12.6124053"><ele>711.0</ele><time>2026-05-02T11:37:51.182Z</time></trkpt><trkpt lat="43.3870402" lon="12.6123703"><ele>711.0</ele><time>2026-05-02T11:37:52.163Z</time></trkpt><trkpt lat="43.3871911" lon="12.6123341"><ele>712.25</ele><time>2026-05-02T11:37:53.164Z</time></trkpt><trkpt lat="43.3873323" lon="12.6123071"><ele>713.5</ele><time>2026-05-02T11:37:54.187Z</time></trkpt><trkpt lat="43.3874743" lon="12.6122775"><ele>714.75</ele><time>2026-05-02T11:37:55.192Z</time></trkpt><trkpt lat="43.387599" lon="12.6122883"><ele>716.0</ele><time>2026-05-02T11:37:56.195Z</time></trkpt><trkpt lat="43.3877011" lon="12.6123321"><ele>716.0</ele><time>2026-05-02T11:37:57.195Z</time></trkpt><trkpt lat="43.3877926" lon="12.6124496"><ele>716.0</ele><time>2026-05-02T11:37:58.209Z</time></trkpt><trkpt lat="43.387849" lon="12.6126324"><ele>716.0</ele><time>2026-05-02T11:37:59.168Z</time></trkpt><trkpt lat="43.3878679" lon="12.6128361"><ele>716.0</ele><time>2026-05-02T11:38:00.192Z</time></trkpt><trkpt lat="43.3878788" lon="12.6130439"><ele>713.0</ele><time>2026-05-02T11:38:01.188Z</time></trkpt><trkpt lat="43.3878803" lon="12.6132658"><ele>710.0</ele><time>2026-05-02T11:38:02.204Z</time></trkpt><trkpt lat="43.3878835" lon="12.6134746"><ele>707.0</ele><time>2026-05-02T11:38:03.197Z</time></trkpt><trkpt lat="43.387874" lon="12.6136829"><ele>706.5</ele><time>2026-05-02T11:38:04.181Z</time></trkpt><trkpt lat="43.3878386" lon="12.6138748"><ele>706.0</ele><time>2026-05-02T11:38:05.201Z</time></trkpt><trkpt lat="43.3877959" lon="12.6140542"><ele>705.5</ele><time>2026-05-02T11:38:06.184Z</time></trkpt><trkpt lat="43.3877639" lon="12.6142127"><ele>705.0</ele><time>2026-05-02T11:38:07.175Z</time></trkpt><trkpt lat="43.3877709" lon="12.6143794"><ele>706.25</ele><time>2026-05-02T11:38:08.197Z</time></trkpt><trkpt lat="43.3878274" lon="12.6145437"><ele>707.5</ele><time>2026-05-02T11:38:09.181Z</time></trkpt><trkpt lat="43.3879255" lon="12.6146961"><ele>708.75</ele><time>2026-05-02T11:38:10.188Z</time></trkpt><trkpt lat="43.3880501" lon="12.6148203"><ele>710.0</ele><time>2026-05-02T11:38:11.188Z</time></trkpt><trkpt lat="43.3881898" lon="12.6149467"><ele>710.0</ele><time>2026-05-02T11:38:12.184Z</time></trkpt><trkpt lat="43.3883278" lon="12.6150656"><ele>710.0</ele><time>2026-05-02T11:38:13.193Z</time></trkpt><trkpt lat="43.3884665" lon="12.6151842"><ele>710.0</ele><time>2026-05-02T11:38:14.192Z</time></trkpt><trkpt lat="43.3885985" lon="12.6152948"><ele>708.0</ele><time>2026-05-02T11:38:15.19Z</time></trkpt><trkpt lat="43.3887231" lon="12.6154052"><ele>706.0</ele><time>2026-05-02T11:38:16.18Z</time></trkpt><trkpt lat="43.3888482" lon="12.6154952"><ele>704.0</ele><time>2026-05-02T11:38:17.185Z</time></trkpt><trkpt lat="43.388975" lon="12.6155692"><ele>702.0</ele><time>2026-05-02T11:38:18.206Z</time></trkpt><trkpt lat="43.3891067" lon="12.6156251"><ele>702.0</ele><time>2026-05-02T11:38:19.197Z</time></trkpt><trkpt lat="43.3892539" lon="12.6156708"><ele>702.0</ele><time>2026-05-02T11:38:20.197Z</time></trkpt><trkpt lat="43.3894134" lon="12.615721"><ele>702.0</ele><time>2026-05-02T11:38:21.206Z</time></trkpt><trkpt lat="43.3895694" lon="12.6157722"><ele>701.3333333333334</ele><time>2026-05-02T11:38:22.21Z</time></trkpt><trkpt lat="43.3897317" lon="12.6158212"><ele>700.6666666666667</ele><time>2026-05-02T11:38:23.195Z</time></trkpt><trkpt lat="43.3898927" lon="12.6158569"><ele>700.0</ele><time>2026-05-02T11:38:24.184Z</time></trkpt><trkpt lat="43.3900544" lon="12.6158645"><ele>700.0</ele><time>2026-05-02T11:38:25.168Z</time></trkpt><trkpt lat="43.3902304" lon="12.6158314"><ele>700.0</ele><time>2026-05-02T11:38:26.167Z</time></trkpt><trkpt lat="43.3903948" lon="12.6157811"><ele>700.0</ele><time>2026-05-02T11:38:27.197Z</time></trkpt><trkpt lat="43.3905598" lon="12.6157204"><ele>697.0</ele><time>2026-05-02T11:38:28.201Z</time></trkpt><trkpt lat="43.3907278" lon="12.615659"><ele>694.0</ele><time>2026-05-02T11:38:29.195Z</time></trkpt><trkpt lat="43.3909032" lon="12.6156011"><ele>691.0</ele><time>2026-05-02T11:38:30.186Z</time></trkpt><trkpt lat="43.3910683" lon="12.615573"><ele>691.0</ele><time>2026-05-02T11:38:31.193Z</time></trkpt><trkpt lat="43.3912393" lon="12.6155721"><ele>691.0</ele><time>2026-05-02T11:38:32.19Z</time></trkpt><trkpt lat="43.3914218" lon="12.6156242"><ele>691.0</ele><time>2026-05-02T11:38:33.157Z</time></trkpt><trkpt lat="43.3915906" lon="12.6157069"><ele>691.0</ele><time>2026-05-02T11:38:34.202Z</time></trkpt><trkpt lat="43.3917597" lon="12.6158049"><ele>691.0</ele><time>2026-05-02T11:38:35.188Z</time></trkpt><trkpt lat="43.3919125" lon="12.6159446"><ele>691.0</ele><time>2026-05-02T11:38:36.203Z</time></trkpt><trkpt lat="43.3920421" lon="12.6161096"><ele>690.6666666666667</ele><time>2026-05-02T11:38:37.192Z</time></trkpt><trkpt lat="43.3921792" lon="12.6162756"><ele>690.3333333333334</ele><time>2026-05-02T11:38:38.185Z</time></trkpt><trkpt lat="43.3923087" lon="12.616436"><ele>690.0</ele><time>2026-05-02T11:38:39.212Z</time></trkpt><trkpt lat="43.3924513" lon="12.6165978"><ele>690.0</ele><time>2026-05-02T11:38:40.212Z</time></trkpt><trkpt lat="43.3925991" lon="12.6167584"><ele>690.0</ele><time>2026-05-02T11:38:41.199Z</time></trkpt><trkpt lat="43.3927382" lon="12.6169175"><ele>690.0</ele><time>2026-05-02T11:38:42.198Z</time></trkpt><trkpt lat="43.3928634" lon="12.6170832"><ele>691.6666666666666</ele><time>2026-05-02T11:38:43.194Z</time></trkpt><trkpt lat="43.3929781" lon="12.6172731"><ele>693.3333333333333</ele><time>2026-05-02T11:38:44.179Z</time></trkpt><trkpt lat="43.3930734" lon="12.6174725"><ele>695.0</ele><time>2026-05-02T11:38:45.208Z</time></trkpt><trkpt lat="43.3931395" lon="12.6176881"><ele>693.3333333333333</ele><time>2026-05-02T11:38:46.191Z</time></trkpt><trkpt lat="43.3931885" lon="12.6179258"><ele>691.6666666666666</ele><time>2026-05-02T11:38:47.206Z</time></trkpt><trkpt lat="43.3932133" lon="12.6181733"><ele>690.0</ele><time>2026-05-02T11:38:48.196Z</time></trkpt><trkpt lat="43.3932189" lon="12.6184044"><ele>690.0</ele><time>2026-05-02T11:38:49.195Z</time></trkpt><trkpt lat="43.3931981" lon="12.6186382"><ele>690.0</ele><time>2026-05-02T11:38:50.209Z</time></trkpt><trkpt lat="43.3931648" lon="12.6188728"><ele>690.0</ele><time>2026-05-02T11:38:51.201Z</time></trkpt><trkpt lat="43.3931112" lon="12.6191042"><ele>688.6666666666666</ele><time>2026-05-02T11:38:52.204Z</time></trkpt><trkpt lat="43.3930273" lon="12.6193166"><ele>687.3333333333333</ele><time>2026-05-02T11:38:53.201Z</time></trkpt><trkpt lat="43.3929278" lon="12.6195278"><ele>686.0</ele><time>2026-05-02T11:38:54.199Z</time></trkpt><trkpt lat="43.392831" lon="12.6197373"><ele>685.6666666666666</ele><time>2026-05-02T11:38:55.194Z</time></trkpt><trkpt lat="43.392736" lon="12.619947"><ele>685.3333333333334</ele><time>2026-05-02T11:38:56.196Z</time></trkpt><trkpt lat="43.3926511" lon="12.620152"><ele>685.0</ele><time>2026-05-02T11:38:57.2Z</time></trkpt><trkpt lat="43.3925677" lon="12.6203542"><ele>685.0</ele><time>2026-05-02T11:38:58.208Z</time></trkpt><trkpt lat="43.3924777" lon="12.6205635"><ele>685.0</ele><time>2026-05-02T11:38:59.198Z</time></trkpt><trkpt lat="43.3923827" lon="12.6207723"><ele>685.0</ele><time>2026-05-02T11:39:00.199Z</time></trkpt><trkpt lat="43.3922895" lon="12.6209769"><ele>684.6666666666667</ele><time>2026-05-02T11:39:01.197Z</time></trkpt><trkpt lat="43.3922031" lon="12.6211785"><ele>684.3333333333334</ele><time>2026-05-02T11:39:02.191Z</time></trkpt><trkpt lat="43.3921251" lon="12.6213737"><ele>684.0</ele><time>2026-05-02T11:39:03.195Z</time></trkpt><trkpt lat="43.39205" lon="12.6215784"><ele>678.3333333333334</ele><time>2026-05-02T11:39:04.204Z</time></trkpt><trkpt lat="43.3920204" lon="12.6217851"><ele>672.6666666666667</ele><time>2026-05-02T11:39:05.199Z</time></trkpt><trkpt lat="43.3920303" lon="12.6219966"><ele>667.0</ele><time>2026-05-02T11:39:06.201Z</time></trkpt><trkpt lat="43.3920753" lon="12.6221906"><ele>669.0</ele><time>2026-05-02T11:39:07.193Z</time></trkpt><trkpt lat="43.3921544" lon="12.622374"><ele>671.0</ele><time>2026-05-02T11:39:08.184Z</time></trkpt><trkpt lat="43.3922553" lon="12.6225459"><ele>673.0</ele><time>2026-05-02T11:39:09.176Z</time></trkpt><trkpt lat="43.3923687" lon="12.6227069"><ele>666.6666666666667</ele><time>2026-05-02T11:39:10.193Z</time></trkpt><trkpt lat="43.3924897" lon="12.6228785"><ele>660.3333333333334</ele><time>2026-05-02T11:39:11.199Z</time></trkpt><trkpt lat="43.3926052" lon="12.6230581"><ele>654.0</ele><time>2026-05-02T11:39:12.2Z</time></trkpt><trkpt lat="43.3927191" lon="12.6232333"><ele>654.0</ele><time>2026-05-02T11:39:13.196Z</time></trkpt><trkpt lat="43.3928179" lon="12.6234228"><ele>654.0</ele><time>2026-05-02T11:39:14.203Z</time></trkpt><trkpt lat="43.3928868" lon="12.6236422"><ele>654.0</ele><time>2026-05-02T11:39:15.198Z</time></trkpt><trkpt lat="43.3929401" lon="12.6238756"><ele>650.0</ele><time>2026-05-02T11:39:16.204Z</time></trkpt><trkpt lat="43.3929725" lon="12.6241257"><ele>646.0</ele><time>2026-05-02T11:39:17.198Z</time></trkpt><trkpt lat="43.3929798" lon="12.6243931"><ele>642.0</ele><time>2026-05-02T11:39:18.194Z</time></trkpt><trkpt lat="43.3929812" lon="12.6246687"><ele>642.0</ele><time>2026-05-02T11:39:19.204Z</time></trkpt><trkpt lat="43.3929927" lon="12.6249475"><ele>642.0</ele><time>2026-05-02T11:39:20.2Z</time></trkpt><trkpt lat="43.3930064" lon="12.6252312"><ele>642.0</ele><time>2026-05-02T11:39:21.188Z</time></trkpt><trkpt lat="43.393023" lon="12.6255152"><ele>642.0</ele><time>2026-05-02T11:39:22.199Z</time></trkpt><trkpt lat="43.3930372" lon="12.6257986"><ele>642.0</ele><time>2026-05-02T11:39:23.205Z</time></trkpt><trkpt lat="43.3930501" lon="12.6260885"><ele>642.0</ele><time>2026-05-02T11:39:24.189Z</time></trkpt><trkpt lat="43.3930588" lon="12.626377"><ele>639.6666666666666</ele><time>2026-05-02T11:39:25.181Z</time></trkpt><trkpt lat="43.3930712" lon="12.6266661"><ele>637.3333333333333</ele><time>2026-05-02T11:39:26.188Z</time></trkpt><trkpt lat="43.3930833" lon="12.6269488"><ele>635.0</ele><time>2026-05-02T11:39:27.168Z</time></trkpt><trkpt lat="43.3930999" lon="12.6272207"><ele>635.0</ele><time>2026-05-02T11:39:28.199Z</time></trkpt><trkpt lat="43.3931113" lon="12.6274836"><ele>635.0</ele><time>2026-05-02T11:39:29.196Z</time></trkpt><trkpt lat="43.3931218" lon="12.6277358"><ele>635.0</ele><time>2026-05-02T11:39:30.194Z</time></trkpt><trkpt lat="43.3931296" lon="12.6279808"><ele>636.6666666666666</ele><time>2026-05-02T11:39:31.2Z</time></trkpt><trkpt lat="43.3931372" lon="12.6282162"><ele>638.3333333333334</ele><time>2026-05-02T11:39:32.202Z</time></trkpt><trkpt lat="43.3931274" lon="12.6284457"><ele>640.0</ele><time>2026-05-02T11:39:33.197Z</time></trkpt><trkpt lat="43.3930989" lon="12.6286676"><ele>640.0</ele><time>2026-05-02T11:39:34.196Z</time></trkpt><trkpt lat="43.3930497" lon="12.6288871"><ele>640.0</ele><time>2026-05-02T11:39:35.192Z</time></trkpt><trkpt lat="43.3929937" lon="12.6291112"><ele>640.0</ele><time>2026-05-02T11:39:36.192Z</time></trkpt><trkpt lat="43.3929302" lon="12.6293375"><ele>638.3333333333334</ele><time>2026-05-02T11:39:37.201Z</time></trkpt><trkpt lat="43.3928639" lon="12.6295758"><ele>636.6666666666666</ele><time>2026-05-02T11:39:38.187Z</time></trkpt><trkpt lat="43.3927929" lon="12.6298204"><ele>635.0</ele><time>2026-05-02T11:39:39.204Z</time></trkpt><trkpt lat="43.3927281" lon="12.6300715"><ele>634.3333333333333</ele><time>2026-05-02T11:39:40.2Z</time></trkpt><trkpt lat="43.3926572" lon="12.63032"><ele>633.6666666666666</ele><time>2026-05-02T11:39:41.195Z</time></trkpt><trkpt lat="43.3925818" lon="12.6305752"><ele>633.0</ele><time>2026-05-02T11:39:42.204Z</time></trkpt><trkpt lat="43.3925104" lon="12.6308307"><ele>633.0</ele><time>2026-05-02T11:39:43.192Z</time></trkpt><trkpt lat="43.3924427" lon="12.6310859"><ele>633.0</ele><time>2026-05-02T11:39:44.187Z</time></trkpt><trkpt lat="43.3923754" lon="12.6313421"><ele>633.0</ele><time>2026-05-02T11:39:45.194Z</time></trkpt><trkpt lat="43.3923053" lon="12.631589"><ele>632.3333333333334</ele><time>2026-05-02T11:39:46.189Z</time></trkpt><trkpt lat="43.3922356" lon="12.6318333"><ele>631.6666666666667</ele><time>2026-05-02T11:39:47.198Z</time></trkpt><trkpt lat="43.3921649" lon="12.6320716"><ele>631.0</ele><time>2026-05-02T11:39:48.192Z</time></trkpt><trkpt lat="43.3920982" lon="12.6323094"><ele>631.0</ele><time>2026-05-02T11:39:49.2Z</time></trkpt><trkpt lat="43.3920384" lon="12.6325404"><ele>631.0</ele><time>2026-05-02T11:39:50.194Z</time></trkpt><trkpt lat="43.3919754" lon="12.6327569"><ele>631.0</ele><time>2026-05-02T11:39:51.193Z</time></trkpt><trkpt lat="43.3919173" lon="12.6329606"><ele>631.5</ele><time>2026-05-02T11:39:52.205Z</time></trkpt><trkpt lat="43.3918644" lon="12.6331564"><ele>632.0</ele><time>2026-05-02T11:39:53.196Z</time></trkpt><trkpt lat="43.3918138" lon="12.6333451"><ele>632.5</ele><time>2026-05-02T11:39:54.216Z</time></trkpt><trkpt lat="43.3917751" lon="12.6335351"><ele>633.0</ele><time>2026-05-02T11:39:55.212Z</time></trkpt><trkpt lat="43.3917611" lon="12.633722"><ele>633.0</ele><time>2026-05-02T11:39:56.206Z</time></trkpt><trkpt lat="43.3917734" lon="12.6339247"><ele>633.0</ele><time>2026-05-02T11:39:57.196Z</time></trkpt><trkpt lat="43.3918095" lon="12.6341395"><ele>633.0</ele><time>2026-05-02T11:39:58.197Z</time></trkpt><trkpt lat="43.3918592" lon="12.6343706"><ele>630.3333333333334</ele><time>2026-05-02T11:39:59.188Z</time></trkpt><trkpt lat="43.3919101" lon="12.6346015"><ele>627.6666666666667</ele><time>2026-05-02T11:40:00.192Z</time></trkpt><trkpt lat="43.3919556" lon="12.6348311"><ele>625.0</ele><time>2026-05-02T11:40:01.193Z</time></trkpt><trkpt lat="43.3920019" lon="12.6350704"><ele>623.6666666666667</ele><time>2026-05-02T11:40:02.194Z</time></trkpt><trkpt lat="43.3920506" lon="12.6353128"><ele>622.3333333333334</ele><time>2026-05-02T11:40:03.212Z</time></trkpt><trkpt lat="43.3920965" lon="12.6355548"><ele>621.0</ele><time>2026-05-02T11:40:04.176Z</time></trkpt><trkpt lat="43.3921426" lon="12.6357906"><ele>623.6666666666666</ele><time>2026-05-02T11:40:05.198Z</time></trkpt><trkpt lat="43.3921896" lon="12.6360311"><ele>626.3333333333333</ele><time>2026-05-02T11:40:06.19Z</time></trkpt><trkpt lat="43.3922472" lon="12.6362787"><ele>629.0</ele><time>2026-05-02T11:40:07.196Z</time></trkpt><trkpt lat="43.392312" lon="12.6365274"><ele>629.0</ele><time>2026-05-02T11:40:08.191Z</time></trkpt><trkpt lat="43.3923814" lon="12.6367692"><ele>629.0</ele><time>2026-05-02T11:40:09.2Z</time></trkpt><trkpt lat="43.3924592" lon="12.6370096"><ele>629.0</ele><time>2026-05-02T11:40:10.17Z</time></trkpt><trkpt lat="43.3925346" lon="12.6372455"><ele>625.3333333333333</ele><time>2026-05-02T11:40:11.189Z</time></trkpt><trkpt lat="43.3926088" lon="12.6374799"><ele>621.6666666666666</ele><time>2026-05-02T11:40:12.179Z</time></trkpt><trkpt lat="43.3926821" lon="12.6377104"><ele>618.0</ele><time>2026-05-02T11:40:13.196Z</time></trkpt><trkpt lat="43.3927516" lon="12.6379332"><ele>617.6666666666666</ele><time>2026-05-02T11:40:14.198Z</time></trkpt><trkpt lat="43.3928322" lon="12.6381423"><ele>617.3333333333333</ele><time>2026-05-02T11:40:15.205Z</time></trkpt><trkpt lat="43.3929379" lon="12.6383329"><ele>617.0</ele><time>2026-05-02T11:40:16.197Z</time></trkpt><trkpt lat="43.3930672" lon="12.6385185"><ele>619.3333333333333</ele><time>2026-05-02T11:40:17.194Z</time></trkpt><trkpt lat="43.3932057" lon="12.6386887"><ele>621.6666666666666</ele><time>2026-05-02T11:40:18.196Z</time></trkpt><trkpt lat="43.3933488" lon="12.6388576"><ele>624.0</ele><time>2026-05-02T11:40:19.189Z</time></trkpt><trkpt lat="43.3934849" lon="12.6390306"><ele>624.0</ele><time>2026-05-02T11:40:20.187Z</time></trkpt><trkpt lat="43.3936182" lon="12.6392123"><ele>624.0</ele><time>2026-05-02T11:40:21.193Z</time></trkpt><trkpt lat="43.3937476" lon="12.6393985"><ele>624.0</ele><time>2026-05-02T11:40:22.194Z</time></trkpt><trkpt lat="43.3938858" lon="12.6395833"><ele>623.0</ele><time>2026-05-02T11:40:23.202Z</time></trkpt><trkpt lat="43.3940256" lon="12.6397721"><ele>622.0</ele><time>2026-05-02T11:40:24.194Z</time></trkpt><trkpt lat="43.3941685" lon="12.6399659"><ele>621.0</ele><time>2026-05-02T11:40:25.184Z</time></trkpt><trkpt lat="43.3943195" lon="12.6401577"><ele>621.3333333333334</ele><time>2026-05-02T11:40:26.197Z</time></trkpt><trkpt lat="43.3944692" lon="12.6403506"><ele>621.6666666666667</ele><time>2026-05-02T11:40:27.2Z</time></trkpt><trkpt lat="43.3946179" lon="12.6405444"><ele>622.0</ele><time>2026-05-02T11:40:28.211Z</time></trkpt><trkpt lat="43.3947658" lon="12.6407382"><ele>622.0</ele><time>2026-05-02T11:40:29.199Z</time></trkpt><trkpt lat="43.3949073" lon="12.6409328"><ele>622.0</ele><time>2026-05-02T11:40:30.199Z</time></trkpt><trkpt lat="43.3950475" lon="12.6411244"><ele>622.0</ele><time>2026-05-02T11:40:31.21Z</time></trkpt><trkpt lat="43.3951869" lon="12.6413111"><ele>619.6666666666667</ele><time>2026-05-02T11:40:32.198Z</time></trkpt><trkpt lat="43.3953254" lon="12.6414947"><ele>617.3333333333334</ele><time>2026-05-02T11:40:33.192Z</time></trkpt><trkpt lat="43.395464" lon="12.6416802"><ele>615.0</ele><time>2026-05-02T11:40:34.195Z</time></trkpt><trkpt lat="43.395606" lon="12.6418648"><ele>615.3333333333334</ele><time>2026-05-02T11:40:35.195Z</time></trkpt><trkpt lat="43.3957436" lon="12.642043"><ele>615.6666666666667</ele><time>2026-05-02T11:40:36.203Z</time></trkpt><trkpt lat="43.3958801" lon="12.6422258"><ele>616.0</ele><time>2026-05-02T11:40:37.199Z</time></trkpt><trkpt lat="43.396017" lon="12.6424085"><ele>616.0</ele><time>2026-05-02T11:40:38.202Z</time></trkpt><trkpt lat="43.396151" lon="12.6426073"><ele>616.0</ele><time>2026-05-02T11:40:39.194Z</time></trkpt><trkpt lat="43.3962748" lon="12.6428144"><ele>616.0</ele><time>2026-05-02T11:40:40.195Z</time></trkpt><trkpt lat="43.3963913" lon="12.6430238"><ele>615.3333333333334</ele><time>2026-05-02T11:40:41.211Z</time></trkpt><trkpt lat="43.3965032" lon="12.6432406"><ele>614.6666666666666</ele><time>2026-05-02T11:40:42.197Z</time></trkpt><trkpt lat="43.3966104" lon="12.6434509"><ele>614.0</ele><time>2026-05-02T11:40:43.191Z</time></trkpt><trkpt lat="43.3967228" lon="12.6436628"><ele>614.0</ele><time>2026-05-02T11:40:44.189Z</time></trkpt><trkpt lat="43.3968359" lon="12.6438688"><ele>614.0</ele><time>2026-05-02T11:40:45.193Z</time></trkpt><trkpt lat="43.3969474" lon="12.6440775"><ele>614.0</ele><time>2026-05-02T11:40:46.168Z</time></trkpt><trkpt lat="43.3970493" lon="12.6442998"><ele>613.0</ele><time>2026-05-02T11:40:47.183Z</time></trkpt><trkpt lat="43.3971444" lon="12.6445236"><ele>612.0</ele><time>2026-05-02T11:40:48.204Z</time></trkpt><trkpt lat="43.3972296" lon="12.64476"><ele>611.0</ele><time>2026-05-02T11:40:49.191Z</time></trkpt><trkpt lat="43.3973167" lon="12.6449835"><ele>613.6666666666666</ele><time>2026-05-02T11:40:50.198Z</time></trkpt><trkpt lat="43.3973947" lon="12.6452035"><ele>616.3333333333334</ele><time>2026-05-02T11:40:51.177Z</time></trkpt><trkpt lat="43.3974724" lon="12.6454187"><ele>619.0</ele><time>2026-05-02T11:40:52.195Z</time></trkpt><trkpt lat="43.3975472" lon="12.645629"><ele>619.0</ele><time>2026-05-02T11:40:53.207Z</time></trkpt><trkpt lat="43.3976283" lon="12.6458445"><ele>619.0</ele><time>2026-05-02T11:40:54.197Z</time></trkpt><trkpt lat="43.3977142" lon="12.6460573"><ele>619.0</ele><time>2026-05-02T11:40:55.189Z</time></trkpt><trkpt lat="43.3978086" lon="12.6462596"><ele>620.6666666666667</ele><time>2026-05-02T11:40:56.188Z</time></trkpt><trkpt lat="43.3979219" lon="12.646455"><ele>622.3333333333334</ele><time>2026-05-02T11:40:57.191Z</time></trkpt><trkpt lat="43.3980544" lon="12.6466298"><ele>624.0</ele><time>2026-05-02T11:40:58.209Z</time></trkpt><trkpt lat="43.3981804" lon="12.6468214"><ele>623.3333333333334</ele><time>2026-05-02T11:40:59.197Z</time></trkpt><trkpt lat="43.398278" lon="12.6470254"><ele>622.6666666666667</ele><time>2026-05-02T11:41:00.2Z</time></trkpt><trkpt lat="43.3983696" lon="12.6472326"><ele>622.0</ele><time>2026-05-02T11:41:01.196Z</time></trkpt><trkpt lat="43.3984494" lon="12.647446"><ele>622.0</ele><time>2026-05-02T11:41:02.206Z</time></trkpt><trkpt lat="43.398536" lon="12.6476585"><ele>622.0</ele><time>2026-05-02T11:41:03.207Z</time></trkpt><trkpt lat="43.3986063" lon="12.6478634"><ele>622.0</ele><time>2026-05-02T11:41:04.176Z</time></trkpt><trkpt lat="43.3986623" lon="12.6480787"><ele>620.0</ele><time>2026-05-02T11:41:05.171Z</time></trkpt><trkpt lat="43.3986962" lon="12.6482879"><ele>618.0</ele><time>2026-05-02T11:41:06.2Z</time></trkpt><trkpt lat="43.3987141" lon="12.648505"><ele>616.0</ele><time>2026-05-02T11:41:07.179Z</time></trkpt><trkpt lat="43.3987366" lon="12.6487171"><ele>617.3333333333334</ele><time>2026-05-02T11:41:08.229Z</time></trkpt><trkpt lat="43.3987856" lon="12.6489247"><ele>618.6666666666666</ele><time>2026-05-02T11:41:09.184Z</time></trkpt><trkpt lat="43.3988691" lon="12.6491355"><ele>620.0</ele><time>2026-05-02T11:41:10.191Z</time></trkpt><trkpt lat="43.3989698" lon="12.6493229"><ele>614.6666666666666</ele><time>2026-05-02T11:41:11.176Z</time></trkpt><trkpt lat="43.3990976" lon="12.6494979"><ele>609.3333333333334</ele><time>2026-05-02T11:41:12.191Z</time></trkpt><trkpt lat="43.3992318" lon="12.649683"><ele>604.0</ele><time>2026-05-02T11:41:13.185Z</time></trkpt><trkpt lat="43.3993784" lon="12.6498663"><ele>604.0</ele><time>2026-05-02T11:41:14.203Z</time></trkpt><trkpt lat="43.3995264" lon="12.6500543"><ele>604.0</ele><time>2026-05-02T11:41:15.198Z</time></trkpt><trkpt lat="43.3996739" lon="12.6502207"><ele>604.0</ele><time>2026-05-02T11:41:16.188Z</time></trkpt><trkpt lat="43.399825" lon="12.6503734"><ele>603.0</ele><time>2026-05-02T11:41:17.202Z</time></trkpt><trkpt lat="43.3999774" lon="12.6505182"><ele>602.0</ele><time>2026-05-02T11:41:18.181Z</time></trkpt><trkpt lat="43.4001306" lon="12.6506611"><ele>601.0</ele><time>2026-05-02T11:41:19.192Z</time></trkpt><trkpt lat="43.4002885" lon="12.6507947"><ele>601.0</ele><time>2026-05-02T11:41:20.2Z</time></trkpt><trkpt lat="43.4004468" lon="12.6509267"><ele>601.0</ele><time>2026-05-02T11:41:21.192Z</time></trkpt><trkpt lat="43.4006009" lon="12.651055"><ele>601.0</ele><time>2026-05-02T11:41:22.212Z</time></trkpt><trkpt lat="43.4007463" lon="12.6511837"><ele>599.0</ele><time>2026-05-02T11:41:23.204Z</time></trkpt><trkpt lat="43.4008796" lon="12.6513312"><ele>597.0</ele><time>2026-05-02T11:41:24.19Z</time></trkpt><trkpt lat="43.4010081" lon="12.6514982"><ele>595.0</ele><time>2026-05-02T11:41:25.207Z</time></trkpt><trkpt lat="43.4011291" lon="12.6516708"><ele>595.0</ele><time>2026-05-02T11:41:26.204Z</time></trkpt><trkpt lat="43.4012365" lon="12.6518653"><ele>595.0</ele><time>2026-05-02T11:41:27.196Z</time></trkpt><trkpt lat="43.4013383" lon="12.6520666"><ele>595.0</ele><time>2026-05-02T11:41:28.19Z</time></trkpt><trkpt lat="43.4014287" lon="12.6522792"><ele>594.3333333333334</ele><time>2026-05-02T11:41:29.187Z</time></trkpt><trkpt lat="43.4015076" lon="12.6524997"><ele>593.6666666666666</ele><time>2026-05-02T11:41:30.188Z</time></trkpt><trkpt lat="43.4015896" lon="12.6527256"><ele>593.0</ele><time>2026-05-02T11:41:31.193Z</time></trkpt><trkpt lat="43.4016744" lon="12.6529565"><ele>593.0</ele><time>2026-05-02T11:41:32.195Z</time></trkpt><trkpt lat="43.40176" lon="12.6531966"><ele>593.0</ele><time>2026-05-02T11:41:33.18Z</time></trkpt><trkpt lat="43.4018481" lon="12.6534318"><ele>593.0</ele><time>2026-05-02T11:41:34.201Z</time></trkpt><trkpt lat="43.4019397" lon="12.6536702"><ele>591.3333333333333</ele><time>2026-05-02T11:41:35.189Z</time></trkpt><trkpt lat="43.4020251" lon="12.653905"><ele>589.6666666666666</ele><time>2026-05-02T11:41:36.202Z</time></trkpt><trkpt lat="43.4021151" lon="12.6541231"><ele>588.0</ele><time>2026-05-02T11:41:37.191Z</time></trkpt><trkpt lat="43.4022105" lon="12.6543372"><ele>588.6666666666666</ele><time>2026-05-02T11:41:38.203Z</time></trkpt><trkpt lat="43.4023134" lon="12.6545361"><ele>589.3333333333333</ele><time>2026-05-02T11:41:39.189Z</time></trkpt><trkpt lat="43.4024245" lon="12.6547297"><ele>590.0</ele><time>2026-05-02T11:41:40.194Z</time></trkpt><trkpt lat="43.4025376" lon="12.6549054"><ele>590.0</ele><time>2026-05-02T11:41:41.174Z</time></trkpt><trkpt lat="43.4026427" lon="12.6550749"><ele>590.0</ele><time>2026-05-02T11:41:42.196Z</time></trkpt><trkpt lat="43.4027408" lon="12.6552452"><ele>590.0</ele><time>2026-05-02T11:41:43.201Z</time></trkpt><trkpt lat="43.4028195" lon="12.6554072"><ele>590.25</ele><time>2026-05-02T11:41:44.182Z</time></trkpt><trkpt lat="43.4028765" lon="12.6555865"><ele>590.5</ele><time>2026-05-02T11:41:45.189Z</time></trkpt><trkpt lat="43.4028864" lon="12.6557826"><ele>590.75</ele><time>2026-05-02T11:41:46.188Z</time></trkpt><trkpt lat="43.4028416" lon="12.6559826"><ele>591.0</ele><time>2026-05-02T11:41:47.198Z</time></trkpt><trkpt lat="43.4027847" lon="12.6561989"><ele>591.0</ele><time>2026-05-02T11:41:48.186Z</time></trkpt><trkpt lat="43.4027226" lon="12.6564103"><ele>591.0</ele><time>2026-05-02T11:41:49.208Z</time></trkpt><trkpt lat="43.4026593" lon="12.6566217"><ele>591.0</ele><time>2026-05-02T11:41:50.198Z</time></trkpt><trkpt lat="43.4026265" lon="12.6568441"><ele>590.3333333333334</ele><time>2026-05-02T11:41:51.198Z</time></trkpt><trkpt lat="43.4026335" lon="12.6570739"><ele>589.6666666666667</ele><time>2026-05-02T11:41:52.203Z</time></trkpt><trkpt lat="43.402664" lon="12.6573125"><ele>589.0</ele><time>2026-05-02T11:41:53.189Z</time></trkpt><trkpt lat="43.4027042" lon="12.6575445"><ele>589.0</ele><time>2026-05-02T11:41:54.191Z</time></trkpt><trkpt lat="43.4027265" lon="12.657782"><ele>589.0</ele><time>2026-05-02T11:41:55.195Z</time></trkpt><trkpt lat="43.4027297" lon="12.6580179"><ele>589.0</ele><time>2026-05-02T11:41:56.196Z</time></trkpt><trkpt lat="43.4027179" lon="12.6582544"><ele>589.3333333333334</ele><time>2026-05-02T11:41:57.186Z</time></trkpt><trkpt lat="43.402702" lon="12.6584818"><ele>589.6666666666666</ele><time>2026-05-02T11:41:58.199Z</time></trkpt><trkpt lat="43.4026843" lon="12.65869"><ele>590.0</ele><time>2026-05-02T11:41:59.207Z</time></trkpt><trkpt lat="43.4026683" lon="12.6588966"><ele>590.0</ele><time>2026-05-02T11:42:00.197Z</time></trkpt><trkpt lat="43.4026488" lon="12.6590964"><ele>590.0</ele><time>2026-05-02T11:42:01.201Z</time></trkpt><trkpt lat="43.4026313" lon="12.659306"><ele>590.0</ele><time>2026-05-02T11:42:02.212Z</time></trkpt><trkpt lat="43.4026237" lon="12.6595134"><ele>589.6666666666666</ele><time>2026-05-02T11:42:03.21Z</time></trkpt><trkpt lat="43.4026176" lon="12.6597274"><ele>589.3333333333334</ele><time>2026-05-02T11:42:04.192Z</time></trkpt><trkpt lat="43.402606" lon="12.6599348"><ele>589.0</ele><time>2026-05-02T11:42:05.19Z</time></trkpt><trkpt lat="43.4025922" lon="12.6601426"><ele>588.5</ele><time>2026-05-02T11:42:06.21Z</time></trkpt><trkpt lat="43.4025762" lon="12.6603495"><ele>588.0</ele><time>2026-05-02T11:42:07.185Z</time></trkpt><trkpt lat="43.4025637" lon="12.6605492"><ele>587.5</ele><time>2026-05-02T11:42:08.19Z</time></trkpt><trkpt lat="43.4025477" lon="12.6607442"><ele>587.0</ele><time>2026-05-02T11:42:09.196Z</time></trkpt><trkpt lat="43.4025383" lon="12.6609294"><ele>587.0</ele><time>2026-05-02T11:42:10.197Z</time></trkpt><trkpt lat="43.4025303" lon="12.6611151"><ele>587.0</ele><time>2026-05-02T11:42:11.19Z</time></trkpt><trkpt lat="43.4025208" lon="12.6613037"><ele>587.0</ele><time>2026-05-02T11:42:12.203Z</time></trkpt><trkpt lat="43.4025103" lon="12.6614777"><ele>587.0</ele><time>2026-05-02T11:42:13.197Z</time></trkpt><trkpt lat="43.4025007" lon="12.6616535"><ele>587.25</ele><time>2026-05-02T11:42:14.199Z</time></trkpt><trkpt lat="43.4024874" lon="12.6618196"><ele>587.5</ele><time>2026-05-02T11:42:15.2Z</time></trkpt><trkpt lat="43.4024836" lon="12.6619857"><ele>587.75</ele><time>2026-05-02T11:42:16.19Z</time></trkpt><trkpt lat="43.4024716" lon="12.6621526"><ele>588.0</ele><time>2026-05-02T11:42:17.193Z</time></trkpt><trkpt lat="43.4024624" lon="12.6623201"><ele>587.5</ele><time>2026-05-02T11:42:18.208Z</time></trkpt><trkpt lat="43.4024567" lon="12.6624866"><ele>587.0</ele><time>2026-05-02T11:42:19.204Z</time></trkpt><trkpt lat="43.4024462" lon="12.662653"><ele>586.5</ele><time>2026-05-02T11:42:20.202Z</time></trkpt><trkpt lat="43.4024382" lon="12.6628198"><ele>586.0</ele><time>2026-05-02T11:42:21.19Z</time></trkpt><trkpt lat="43.4024355" lon="12.6629849"><ele>585.75</ele><time>2026-05-02T11:42:22.203Z</time></trkpt><trkpt lat="43.4024267" lon="12.6631455"><ele>585.5</ele><time>2026-05-02T11:42:23.198Z</time></trkpt><trkpt lat="43.402428" lon="12.6633159"><ele>585.25</ele><time>2026-05-02T11:42:24.19Z</time></trkpt><trkpt lat="43.4024308" lon="12.6634814"><ele>585.0</ele><time>2026-05-02T11:42:25.196Z</time></trkpt><trkpt lat="43.4024471" lon="12.6636499"><ele>585.5</ele><time>2026-05-02T11:42:26.201Z</time></trkpt><trkpt lat="43.4024666" lon="12.6638122"><ele>586.0</ele><time>2026-05-02T11:42:27.201Z</time></trkpt><trkpt lat="43.4024834" lon="12.663981"><ele>586.5</ele><time>2026-05-02T11:42:28.213Z</time></trkpt><trkpt lat="43.4024976" lon="12.6641473"><ele>587.0</ele><time>2026-05-02T11:42:29.205Z</time></trkpt><trkpt lat="43.4025125" lon="12.6643183"><ele>586.75</ele><time>2026-05-02T11:42:30.205Z</time></trkpt><trkpt lat="43.4025274" lon="12.6644823"><ele>586.5</ele><time>2026-05-02T11:42:31.205Z</time></trkpt><trkpt lat="43.4025496" lon="12.6646542"><ele>586.25</ele><time>2026-05-02T11:42:32.199Z</time></trkpt><trkpt lat="43.4025673" lon="12.6648238"><ele>586.0</ele><time>2026-05-02T11:42:33.203Z</time></trkpt><trkpt lat="43.4025875" lon="12.6649894"><ele>586.0</ele><time>2026-05-02T11:42:34.166Z</time></trkpt><trkpt lat="43.4026071" lon="12.6651611"><ele>586.0</ele><time>2026-05-02T11:42:35.198Z</time></trkpt><trkpt lat="43.4026248" lon="12.6653278"><ele>586.0</ele><time>2026-05-02T11:42:36.164Z</time></trkpt><trkpt lat="43.4026439" lon="12.665487"><ele>586.0</ele><time>2026-05-02T11:42:37.198Z</time></trkpt><trkpt lat="43.4026644" lon="12.665647"><ele>585.6666666666667</ele><time>2026-05-02T11:42:38.196Z</time></trkpt><trkpt lat="43.4026902" lon="12.6658036"><ele>585.3333333333334</ele><time>2026-05-02T11:42:39.196Z</time></trkpt><trkpt lat="43.4027217" lon="12.6659429"><ele>585.0</ele><time>2026-05-02T11:42:40.189Z</time></trkpt><trkpt lat="43.4027491" lon="12.666043"><ele>584.6666666666666</ele><time>2026-05-02T11:42:41.186Z</time></trkpt><trkpt lat="43.4027726" lon="12.6661257"><ele>584.3333333333333</ele><time>2026-05-02T11:42:42.193Z</time></trkpt><trkpt lat="43.4027979" lon="12.6662055"><ele>584.0</ele><time>2026-05-02T11:42:43.199Z</time></trkpt><trkpt lat="43.402841" lon="12.666354"><ele>584.0</ele><time>2026-05-02T11:42:45.205Z</time></trkpt><trkpt lat="43.4028951" lon="12.6665085"><ele>584.0</ele><time>2026-05-02T11:42:47.188Z</time></trkpt><trkpt lat="43.4029304" lon="12.666611"><ele>584.0</ele><time>2026-05-02T11:42:49.203Z</time></trkpt><trkpt lat="43.4029436" lon="12.6667296"><ele>584.0</ele><time>2026-05-02T11:42:51.2Z</time></trkpt><trkpt lat="43.4029391" lon="12.6668273"><ele>584.0</ele><time>2026-05-02T11:42:52.194Z</time></trkpt><trkpt lat="43.4029423" lon="12.6669487"><ele>583.4</ele><time>2026-05-02T11:42:53.184Z</time></trkpt><trkpt lat="43.4029458" lon="12.6670787"><ele>582.8</ele><time>2026-05-02T11:42:54.206Z</time></trkpt><trkpt lat="43.4029543" lon="12.6672124"><ele>582.2</ele><time>2026-05-02T11:42:55.192Z</time></trkpt><trkpt lat="43.4029511" lon="12.6673489"><ele>581.6</ele><time>2026-05-02T11:42:56.2Z</time></trkpt><trkpt lat="43.4029484" lon="12.6674958"><ele>581.0</ele><time>2026-05-02T11:42:57.192Z</time></trkpt><trkpt lat="43.4029317" lon="12.6676462"><ele>580.0</ele><time>2026-05-02T11:42:58.189Z</time></trkpt><trkpt lat="43.4029076" lon="12.6677818"><ele>579.0</ele><time>2026-05-02T11:42:59.201Z</time></trkpt><trkpt lat="43.4028703" lon="12.6679293"><ele>578.0</ele><time>2026-05-02T11:43:00.213Z</time></trkpt><trkpt lat="43.402821" lon="12.6680738"><ele>577.0</ele><time>2026-05-02T11:43:01.193Z</time></trkpt><trkpt lat="43.4027552" lon="12.6682284"><ele>577.0</ele><time>2026-05-02T11:43:02.19Z</time></trkpt><trkpt lat="43.4026898" lon="12.6683721"><ele>577.0</ele><time>2026-05-02T11:43:03.191Z</time></trkpt><trkpt lat="43.4026191" lon="12.6685163"><ele>577.0</ele><time>2026-05-02T11:43:04.196Z</time></trkpt><trkpt lat="43.4025445" lon="12.6686473"><ele>577.0</ele><time>2026-05-02T11:43:05.185Z</time></trkpt><trkpt lat="43.4024667" lon="12.6687797"><ele>577.0</ele><time>2026-05-02T11:43:06.192Z</time></trkpt><trkpt lat="43.4023946" lon="12.6689197"><ele>577.0</ele><time>2026-05-02T11:43:07.188Z</time></trkpt><trkpt lat="43.4023236" lon="12.669046"><ele>577.0</ele><time>2026-05-02T11:43:08.185Z</time></trkpt><trkpt lat="43.4022552" lon="12.6691598"><ele>577.0</ele><time>2026-05-02T11:43:09.187Z</time></trkpt><trkpt lat="43.4021962" lon="12.6692669"><ele>577.0</ele><time>2026-05-02T11:43:10.203Z</time></trkpt><trkpt lat="43.4021329" lon="12.6693687"><ele>577.6666666666667</ele><time>2026-05-02T11:43:11.194Z</time></trkpt><trkpt lat="43.4020753" lon="12.6694588"><ele>578.3333333333334</ele><time>2026-05-02T11:43:12.19Z</time></trkpt><trkpt lat="43.4020298" lon="12.6695329"><ele>579.0</ele><time>2026-05-02T11:43:13.192Z</time></trkpt><trkpt lat="43.4019827" lon="12.6696833"><ele>579.6666666666666</ele><time>2026-05-02T11:43:15.193Z</time></trkpt><trkpt lat="43.4019674" lon="12.6697842"><ele>580.3333333333333</ele><time>2026-05-02T11:43:17.19Z</time></trkpt><trkpt lat="43.402014" lon="12.669852"><ele>581.0</ele><time>2026-05-02T11:43:20.181Z</time></trkpt><trkpt lat="43.4020931" lon="12.669858"><ele>581.6</ele><time>2026-05-02T11:44:20.195Z</time></trkpt><trkpt lat="43.402213" lon="12.6698288"><ele>582.2</ele><time>2026-05-02T11:44:22.192Z</time></trkpt><trkpt lat="43.4022938" lon="12.6698254"><ele>582.8</ele><time>2026-05-02T11:44:23.196Z</time></trkpt><trkpt lat="43.4024072" lon="12.6698121"><ele>583.4</ele><time>2026-05-02T11:44:24.205Z</time></trkpt><trkpt lat="43.4025302" lon="12.6697951"><ele>584.0</ele><time>2026-05-02T11:44:25.19Z</time></trkpt><trkpt lat="43.4026553" lon="12.6697703"><ele>584.0</ele><time>2026-05-02T11:44:26.192Z</time></trkpt><trkpt lat="43.4027812" lon="12.6697606"><ele>584.0</ele><time>2026-05-02T11:44:27.19Z</time></trkpt><trkpt lat="43.4028922" lon="12.6697506"><ele>584.0</ele><time>2026-05-02T11:44:28.192Z</time></trkpt><trkpt lat="43.4029854" lon="12.6697372"><ele>584.0</ele><time>2026-05-02T11:44:29.189Z</time></trkpt><trkpt lat="43.4030793" lon="12.6697308"><ele>584.0</ele><time>2026-05-02T11:44:30.186Z</time></trkpt><trkpt lat="43.4031673" lon="12.6697246"><ele>583.8</ele><time>2026-05-02T11:44:31.189Z</time></trkpt><trkpt lat="43.4032493" lon="12.6697202"><ele>583.5999999999999</ele><time>2026-05-02T11:44:32.193Z</time></trkpt><trkpt lat="43.403328" lon="12.6697265"><ele>583.4</ele><time>2026-05-02T11:44:33.193Z</time></trkpt><trkpt lat="43.4034183" lon="12.6697502"><ele>583.1999999999999</ele><time>2026-05-02T11:44:34.197Z</time></trkpt><trkpt lat="43.4035071" lon="12.6698273"><ele>583.0</ele><time>2026-05-02T11:44:35.192Z</time></trkpt><trkpt lat="43.4035939" lon="12.6699207"><ele>583.0</ele><time>2026-05-02T11:44:36.2Z</time></trkpt><trkpt lat="43.4036902" lon="12.6700288"><ele>583.0</ele><time>2026-05-02T11:44:37.181Z</time></trkpt><trkpt lat="43.4037934" lon="12.6701624"><ele>583.0</ele><time>2026-05-02T11:44:38.189Z</time></trkpt><trkpt lat="43.4039032" lon="12.6703166"><ele>583.0</ele><time>2026-05-02T11:44:39.187Z</time></trkpt><trkpt lat="43.4040065" lon="12.6704856"><ele>583.6666666666667</ele><time>2026-05-02T11:44:40.19Z</time></trkpt><trkpt lat="43.404103" lon="12.6706619"><ele>584.3333333333334</ele><time>2026-05-02T11:44:41.192Z</time></trkpt><trkpt lat="43.4042033" lon="12.670838"><ele>585.0</ele><time>2026-05-02T11:44:42.18Z</time></trkpt><trkpt lat="43.404309" lon="12.6710177"><ele>586.6666666666666</ele><time>2026-05-02T11:44:43.187Z</time></trkpt><trkpt lat="43.4044175" lon="12.6712009"><ele>588.3333333333333</ele><time>2026-05-02T11:44:44.201Z</time></trkpt><trkpt lat="43.4045318" lon="12.6713985"><ele>590.0</ele><time>2026-05-02T11:44:45.188Z</time></trkpt><trkpt lat="43.4046398" lon="12.671602"><ele>587.6666666666666</ele><time>2026-05-02T11:44:46.198Z</time></trkpt><trkpt lat="43.404743" lon="12.6718066"><ele>585.3333333333334</ele><time>2026-05-02T11:44:47.185Z</time></trkpt><trkpt lat="43.4048456" lon="12.6720045"><ele>583.0</ele><time>2026-05-02T11:44:48.191Z</time></trkpt><trkpt lat="43.4049503" lon="12.6722076"><ele>583.0</ele><time>2026-05-02T11:44:49.19Z</time></trkpt><trkpt lat="43.4050516" lon="12.6724156"><ele>583.0</ele><time>2026-05-02T11:44:50.2Z</time></trkpt><trkpt lat="43.4051563" lon="12.6726285"><ele>583.0</ele><time>2026-05-02T11:44:51.195Z</time></trkpt><trkpt lat="43.4052634" lon="12.6728465"><ele>582.0</ele><time>2026-05-02T11:44:52.199Z</time></trkpt><trkpt lat="43.405368" lon="12.6730706"><ele>581.0</ele><time>2026-05-02T11:44:53.204Z</time></trkpt><trkpt lat="43.4054731" lon="12.6732796"><ele>580.0</ele><time>2026-05-02T11:44:54.185Z</time></trkpt><trkpt lat="43.4055838" lon="12.6735029"><ele>580.3333333333334</ele><time>2026-05-02T11:44:55.187Z</time></trkpt><trkpt lat="43.4056916" lon="12.6737243"><ele>580.6666666666666</ele><time>2026-05-02T11:44:56.202Z</time></trkpt><trkpt lat="43.4058019" lon="12.6739498"><ele>581.0</ele><time>2026-05-02T11:44:57.203Z</time></trkpt><trkpt lat="43.4059166" lon="12.6741719"><ele>581.0</ele><time>2026-05-02T11:44:58.196Z</time></trkpt><trkpt lat="43.4060245" lon="12.6744102"><ele>581.0</ele><time>2026-05-02T11:44:59.197Z</time></trkpt><trkpt lat="43.406124" lon="12.6746505"><ele>581.0</ele><time>2026-05-02T11:45:00.191Z</time></trkpt><trkpt lat="43.4062137" lon="12.6749055"><ele>579.6666666666666</ele><time>2026-05-02T11:45:01.185Z</time></trkpt><trkpt lat="43.4062914" lon="12.6751701"><ele>578.3333333333334</ele><time>2026-05-02T11:45:02.198Z</time></trkpt><trkpt lat="43.4063597" lon="12.6754389"><ele>577.0</ele><time>2026-05-02T11:45:03.184Z</time></trkpt><trkpt lat="43.4064249" lon="12.6757083"><ele>579.0</ele><time>2026-05-02T11:45:04.187Z</time></trkpt><trkpt lat="43.406485" lon="12.6759748"><ele>581.0</ele><time>2026-05-02T11:45:05.189Z</time></trkpt><trkpt lat="43.406537" lon="12.6762359"><ele>583.0</ele><time>2026-05-02T11:45:06.194Z</time></trkpt><trkpt lat="43.4065858" lon="12.6764857"><ele>583.0</ele><time>2026-05-02T11:45:07.197Z</time></trkpt><trkpt lat="43.4066306" lon="12.6767273"><ele>583.0</ele><time>2026-05-02T11:45:08.174Z</time></trkpt><trkpt lat="43.4066939" lon="12.6769613"><ele>583.0</ele><time>2026-05-02T11:45:09.192Z</time></trkpt><trkpt lat="43.4067713" lon="12.677187"><ele>582.3333333333334</ele><time>2026-05-02T11:45:10.191Z</time></trkpt><trkpt lat="43.4068744" lon="12.677398"><ele>581.6666666666666</ele><time>2026-05-02T11:45:11.185Z</time></trkpt><trkpt lat="43.4069823" lon="12.6776136"><ele>581.0</ele><time>2026-05-02T11:45:12.179Z</time></trkpt><trkpt lat="43.407087" lon="12.677828"><ele>583.0</ele><time>2026-05-02T11:45:13.175Z</time></trkpt><trkpt lat="43.4071987" lon="12.678052"><ele>585.0</ele><time>2026-05-02T11:45:14.178Z</time></trkpt><trkpt lat="43.4073038" lon="12.6782804"><ele>587.0</ele><time>2026-05-02T11:45:15.165Z</time></trkpt><trkpt lat="43.4074159" lon="12.6785157"><ele>582.0</ele><time>2026-05-02T11:45:16.187Z</time></trkpt><trkpt lat="43.4075293" lon="12.6787516"><ele>577.0</ele><time>2026-05-02T11:45:17.196Z</time></trkpt><trkpt lat="43.4076378" lon="12.678989"><ele>572.0</ele><time>2026-05-02T11:45:18.198Z</time></trkpt><trkpt lat="43.4077344" lon="12.6792196"><ele>573.0</ele><time>2026-05-02T11:45:19.189Z</time></trkpt><trkpt lat="43.4078232" lon="12.6794382"><ele>574.0</ele><time>2026-05-02T11:45:20.183Z</time></trkpt><trkpt lat="43.4079001" lon="12.6796503"><ele>575.0</ele><time>2026-05-02T11:45:21.189Z</time></trkpt><trkpt lat="43.4079707" lon="12.6798543"><ele>574.0</ele><time>2026-05-02T11:45:22.202Z</time></trkpt><trkpt lat="43.4080346" lon="12.6800501"><ele>573.0</ele><time>2026-05-02T11:45:23.199Z</time></trkpt><trkpt lat="43.4080956" lon="12.6802426"><ele>572.0</ele><time>2026-05-02T11:45:24.179Z</time></trkpt><trkpt lat="43.4081602" lon="12.6804214"><ele>572.0</ele><time>2026-05-02T11:45:25.2Z</time></trkpt><trkpt lat="43.4082223" lon="12.6805934"><ele>572.0</ele><time>2026-05-02T11:45:26.184Z</time></trkpt><trkpt lat="43.4082939" lon="12.6807392"><ele>572.0</ele><time>2026-05-02T11:45:27.192Z</time></trkpt><trkpt lat="43.4083653" lon="12.6808801"><ele>572.0</ele><time>2026-05-02T11:45:28.199Z</time></trkpt><trkpt lat="43.4084356" lon="12.6810234"><ele>570.5</ele><time>2026-05-02T11:45:29.21Z</time></trkpt><trkpt lat="43.4085088" lon="12.6811604"><ele>569.0</ele><time>2026-05-02T11:45:30.194Z</time></trkpt><trkpt lat="43.4085779" lon="12.6812899"><ele>567.5</ele><time>2026-05-02T11:45:31.194Z</time></trkpt><trkpt lat="43.4086489" lon="12.6814156"><ele>566.0</ele><time>2026-05-02T11:45:32.193Z</time></trkpt><trkpt lat="43.4087171" lon="12.681542"><ele>566.0</ele><time>2026-05-02T11:45:33.189Z</time></trkpt><trkpt lat="43.4087843" lon="12.6816681"><ele>566.0</ele><time>2026-05-02T11:45:34.177Z</time></trkpt><trkpt lat="43.4088409" lon="12.6817845"><ele>566.0</ele><time>2026-05-02T11:45:35.205Z</time></trkpt><trkpt lat="43.4089022" lon="12.6819011"><ele>566.0</ele><time>2026-05-02T11:45:36.19Z</time></trkpt><trkpt lat="43.4089617" lon="12.6820171"><ele>566.0</ele><time>2026-05-02T11:45:37.188Z</time></trkpt><trkpt lat="43.4090213" lon="12.6821286"><ele>566.0</ele><time>2026-05-02T11:45:38.188Z</time></trkpt><trkpt lat="43.4090795" lon="12.6822331"><ele>566.0</ele><time>2026-05-02T11:45:39.195Z</time></trkpt><trkpt lat="43.4091339" lon="12.6823403"><ele>566.0</ele><time>2026-05-02T11:45:40.191Z</time></trkpt><trkpt lat="43.4091865" lon="12.6824396"><ele>566.0</ele><time>2026-05-02T11:45:41.198Z</time></trkpt><trkpt lat="43.4092376" lon="12.6825341"><ele>566.0</ele><time>2026-05-02T11:45:42.193Z</time></trkpt><trkpt lat="43.4092883" lon="12.6826283"><ele>566.0</ele><time>2026-05-02T11:45:43.199Z</time></trkpt><trkpt lat="43.4093312" lon="12.6827111"><ele>566.0</ele><time>2026-05-02T11:45:44.189Z</time></trkpt><trkpt lat="43.4093787" lon="12.6827895"><ele>566.0</ele><time>2026-05-02T11:45:45.198Z</time></trkpt><trkpt lat="43.4094221" lon="12.682868"><ele>566.0</ele><time>2026-05-02T11:45:46.189Z</time></trkpt><trkpt lat="43.409471" lon="12.6829448"><ele>566.0</ele><time>2026-05-02T11:45:47.166Z</time></trkpt><trkpt lat="43.4095206" lon="12.6830386"><ele>566.0</ele><time>2026-05-02T11:45:48.178Z</time></trkpt><trkpt lat="43.4095779" lon="12.6831529"><ele>566.2</ele><time>2026-05-02T11:45:49.2Z</time></trkpt><trkpt lat="43.409634" lon="12.6832785"><ele>566.4000000000001</ele><time>2026-05-02T11:45:50.183Z</time></trkpt><trkpt lat="43.4096858" lon="12.6834129"><ele>566.6</ele><time>2026-05-02T11:45:51.186Z</time></trkpt><trkpt lat="43.4097382" lon="12.6835495"><ele>566.8000000000001</ele><time>2026-05-02T11:45:52.183Z</time></trkpt><trkpt lat="43.4097926" lon="12.6836851"><ele>567.0</ele><time>2026-05-02T11:45:53.187Z</time></trkpt><trkpt lat="43.4098511" lon="12.6838046"><ele>567.5</ele><time>2026-05-02T11:45:54.184Z</time></trkpt><trkpt lat="43.4099302" lon="12.6839105"><ele>568.0</ele><time>2026-05-02T11:45:55.177Z</time></trkpt><trkpt lat="43.4100154" lon="12.6840331"><ele>568.5</ele><time>2026-05-02T11:45:56.19Z</time></trkpt><trkpt lat="43.4101174" lon="12.684142"><ele>569.0</ele><time>2026-05-02T11:45:57.195Z</time></trkpt><trkpt lat="43.4102219" lon="12.6842516"><ele>569.0</ele><time>2026-05-02T11:45:58.189Z</time></trkpt><trkpt lat="43.4103146" lon="12.6843955"><ele>569.0</ele><time>2026-05-02T11:45:59.187Z</time></trkpt><trkpt lat="43.4103849" lon="12.6845719"><ele>569.0</ele><time>2026-05-02T11:46:00.201Z</time></trkpt><trkpt lat="43.410455" lon="12.6847482"><ele>569.0</ele><time>2026-05-02T11:46:01.197Z</time></trkpt><trkpt lat="43.4105302" lon="12.6849314"><ele>570.0</ele><time>2026-05-02T11:46:02.196Z</time></trkpt><trkpt lat="43.4106312" lon="12.6850963"><ele>571.0</ele><time>2026-05-02T11:46:03.21Z</time></trkpt><trkpt lat="43.4107517" lon="12.6852317"><ele>572.0</ele><time>2026-05-02T11:46:04.176Z</time></trkpt><trkpt lat="43.4108753" lon="12.6853533"><ele>572.0</ele><time>2026-05-02T11:46:05.196Z</time></trkpt><trkpt lat="43.4110163" lon="12.6854339"><ele>572.0</ele><time>2026-05-02T11:46:06.18Z</time></trkpt><trkpt lat="43.4111555" lon="12.6854928"><ele>572.0</ele><time>2026-05-02T11:46:07.178Z</time></trkpt><trkpt lat="43.4112814" lon="12.685551"><ele>572.0</ele><time>2026-05-02T11:46:08.189Z</time></trkpt><trkpt lat="43.4113914" lon="12.68563"><ele>572.5</ele><time>2026-05-02T11:46:09.182Z</time></trkpt><trkpt lat="43.4114897" lon="12.685724"><ele>573.0</ele><time>2026-05-02T11:46:10.19Z</time></trkpt><trkpt lat="43.4115705" lon="12.6858662"><ele>573.5</ele><time>2026-05-02T11:46:11.184Z</time></trkpt><trkpt lat="43.4116192" lon="12.6860571"><ele>574.0</ele><time>2026-05-02T11:46:12.19Z</time></trkpt><trkpt lat="43.4116349" lon="12.6862568"><ele>574.0</ele><time>2026-05-02T11:46:13.172Z</time></trkpt><trkpt lat="43.4116513" lon="12.6864694"><ele>574.0</ele><time>2026-05-02T11:46:14.182Z</time></trkpt><trkpt lat="43.4116749" lon="12.6866861"><ele>574.0</ele><time>2026-05-02T11:46:15.195Z</time></trkpt><trkpt lat="43.4117146" lon="12.6869154"><ele>571.0</ele><time>2026-05-02T11:46:16.168Z</time></trkpt><trkpt lat="43.4117684" lon="12.6871345"><ele>568.0</ele><time>2026-05-02T11:46:17.186Z</time></trkpt><trkpt lat="43.411831" lon="12.687354"><ele>565.0</ele><time>2026-05-02T11:46:18.193Z</time></trkpt><trkpt lat="43.4118902" lon="12.6875745"><ele>564.6666666666667</ele><time>2026-05-02T11:46:19.182Z</time></trkpt><trkpt lat="43.411948" lon="12.6877965"><ele>564.3333333333334</ele><time>2026-05-02T11:46:20.189Z</time></trkpt><trkpt lat="43.4120083" lon="12.6880301"><ele>564.0</ele><time>2026-05-02T11:46:21.178Z</time></trkpt><trkpt lat="43.4120601" lon="12.6882701"><ele>564.0</ele><time>2026-05-02T11:46:22.196Z</time></trkpt><trkpt lat="43.4121172" lon="12.6885171"><ele>564.0</ele><time>2026-05-02T11:46:23.184Z</time></trkpt><trkpt lat="43.4121665" lon="12.6887656"><ele>564.0</ele><time>2026-05-02T11:46:24.184Z</time></trkpt><trkpt lat="43.4122093" lon="12.6890108"><ele>566.6666666666666</ele><time>2026-05-02T11:46:25.178Z</time></trkpt><trkpt lat="43.4122518" lon="12.6892473"><ele>569.3333333333333</ele><time>2026-05-02T11:46:26.191Z</time></trkpt><trkpt lat="43.4122846" lon="12.6894862"><ele>572.0</ele><time>2026-05-02T11:46:27.172Z</time></trkpt><trkpt lat="43.4123317" lon="12.6897189"><ele>572.0</ele><time>2026-05-02T11:46:28.197Z</time></trkpt><trkpt lat="43.4124142" lon="12.6899445"><ele>572.0</ele><time>2026-05-02T11:46:29.178Z</time></trkpt><trkpt lat="43.4125152" lon="12.6901553"><ele>572.0</ele><time>2026-05-02T11:46:30.184Z</time></trkpt><trkpt lat="43.4126307" lon="12.6903774"><ele>567.0</ele><time>2026-05-02T11:46:31.178Z</time></trkpt><trkpt lat="43.4127471" lon="12.6905941"><ele>562.0</ele><time>2026-05-02T11:46:32.194Z</time></trkpt><trkpt lat="43.4128621" lon="12.690811"><ele>557.0</ele><time>2026-05-02T11:46:33.193Z</time></trkpt><trkpt lat="43.4129824" lon="12.691026"><ele>559.6666666666666</ele><time>2026-05-02T11:46:34.177Z</time></trkpt><trkpt lat="43.4131013" lon="12.6912461"><ele>562.3333333333334</ele><time>2026-05-02T11:46:35.183Z</time></trkpt><trkpt lat="43.4132226" lon="12.6914744"><ele>565.0</ele><time>2026-05-02T11:46:36.186Z</time></trkpt><trkpt lat="43.4133382" lon="12.6916966"><ele>565.0</ele><time>2026-05-02T11:46:37.187Z</time></trkpt><trkpt lat="43.4134506" lon="12.6919199"><ele>565.0</ele><time>2026-05-02T11:46:38.193Z</time></trkpt><trkpt lat="43.4135478" lon="12.692153"><ele>565.0</ele><time>2026-05-02T11:46:39.18Z</time></trkpt><trkpt lat="43.4136327" lon="12.6923935"><ele>563.0</ele><time>2026-05-02T11:46:40.19Z</time></trkpt><trkpt lat="43.413715" lon="12.6926416"><ele>561.0</ele><time>2026-05-02T11:46:41.175Z</time></trkpt><trkpt lat="43.4137931" lon="12.6928956"><ele>559.0</ele><time>2026-05-02T11:46:42.186Z</time></trkpt><trkpt lat="43.4138685" lon="12.6931497"><ele>559.0</ele><time>2026-05-02T11:46:43.179Z</time></trkpt><trkpt lat="43.4139451" lon="12.6934004"><ele>559.0</ele><time>2026-05-02T11:46:44.182Z</time></trkpt><trkpt lat="43.4140206" lon="12.6936466"><ele>559.0</ele><time>2026-05-02T11:46:45.181Z</time></trkpt><trkpt lat="43.4140935" lon="12.6938779"><ele>559.6666666666667</ele><time>2026-05-02T11:46:46.162Z</time></trkpt><trkpt lat="43.4141611" lon="12.6940921"><ele>560.3333333333334</ele><time>2026-05-02T11:46:47.182Z</time></trkpt><trkpt lat="43.4142181" lon="12.6943096"><ele>561.0</ele><time>2026-05-02T11:46:48.19Z</time></trkpt><trkpt lat="43.4142576" lon="12.6945391"><ele>561.0</ele><time>2026-05-02T11:46:49.196Z</time></trkpt><trkpt lat="43.4142629" lon="12.6947816"><ele>561.0</ele><time>2026-05-02T11:46:50.181Z</time></trkpt><trkpt lat="43.4142534" lon="12.695022"><ele>561.0</ele><time>2026-05-02T11:46:51.198Z</time></trkpt><trkpt lat="43.4142268" lon="12.6952653"><ele>561.0</ele><time>2026-05-02T11:46:52.204Z</time></trkpt><trkpt lat="43.4141948" lon="12.6955054"><ele>561.0</ele><time>2026-05-02T11:46:53.197Z</time></trkpt><trkpt lat="43.4141614" lon="12.6957529"><ele>561.0</ele><time>2026-05-02T11:46:54.186Z</time></trkpt><trkpt lat="43.4141375" lon="12.6960009"><ele>562.0</ele><time>2026-05-02T11:46:55.181Z</time></trkpt><trkpt lat="43.4141342" lon="12.6962547"><ele>563.0</ele><time>2026-05-02T11:46:56.192Z</time></trkpt><trkpt lat="43.4141481" lon="12.6965053"><ele>564.0</ele><time>2026-05-02T11:46:57.186Z</time></trkpt><trkpt lat="43.4141638" lon="12.696756"><ele>564.6666666666666</ele><time>2026-05-02T11:46:58.188Z</time></trkpt><trkpt lat="43.4142068" lon="12.6970079"><ele>565.3333333333333</ele><time>2026-05-02T11:46:59.195Z</time></trkpt><trkpt lat="43.4142549" lon="12.6972594"><ele>566.0</ele><time>2026-05-02T11:47:00.197Z</time></trkpt><trkpt lat="43.4143068" lon="12.6975067"><ele>566.0</ele><time>2026-05-02T11:47:01.187Z</time></trkpt><trkpt lat="43.4143699" lon="12.6977444"><ele>566.0</ele><time>2026-05-02T11:47:02.183Z</time></trkpt><trkpt lat="43.4144429" lon="12.6979768"><ele>566.0</ele><time>2026-05-02T11:47:03.186Z</time></trkpt><trkpt lat="43.4145389" lon="12.6982008"><ele>564.3333333333333</ele><time>2026-05-02T11:47:04.187Z</time></trkpt><trkpt lat="43.4146234" lon="12.6984069"><ele>562.6666666666666</ele><time>2026-05-02T11:47:05.191Z</time></trkpt><trkpt lat="43.414695" lon="12.6986033"><ele>561.0</ele><time>2026-05-02T11:47:06.176Z</time></trkpt><trkpt lat="43.4147472" lon="12.6987982"><ele>560.0</ele><time>2026-05-02T11:47:07.189Z</time></trkpt><trkpt lat="43.4147755" lon="12.6989984"><ele>559.0</ele><time>2026-05-02T11:47:08.178Z</time></trkpt><trkpt lat="43.4147915" lon="12.6991897"><ele>558.0</ele><time>2026-05-02T11:47:09.182Z</time></trkpt><trkpt lat="43.414813" lon="12.6993996"><ele>557.0</ele><time>2026-05-02T11:47:10.177Z</time></trkpt><trkpt lat="43.4148348" lon="12.6996179"><ele>557.0</ele><time>2026-05-02T11:47:11.186Z</time></trkpt><trkpt lat="43.4148534" lon="12.699837"><ele>557.0</ele><time>2026-05-02T11:47:12.187Z</time></trkpt><trkpt lat="43.4148749" lon="12.7000375"><ele>557.0</ele><time>2026-05-02T11:47:13.179Z</time></trkpt><trkpt lat="43.4148929" lon="12.7002225"><ele>557.0</ele><time>2026-05-02T11:47:14.181Z</time></trkpt><trkpt lat="43.4149209" lon="12.7003928"><ele>555.0</ele><time>2026-05-02T11:47:15.172Z</time></trkpt><trkpt lat="43.4149814" lon="12.7005283"><ele>553.0</ele><time>2026-05-02T11:47:16.196Z</time></trkpt><trkpt lat="43.4150679" lon="12.7006262"><ele>551.0</ele><time>2026-05-02T11:47:17.187Z</time></trkpt><trkpt lat="43.4151837" lon="12.7006757"><ele>549.0</ele><time>2026-05-02T11:47:18.184Z</time></trkpt><trkpt lat="43.4153115" lon="12.7007021"><ele>549.0</ele><time>2026-05-02T11:47:19.194Z</time></trkpt><trkpt lat="43.4154414" lon="12.7007356"><ele>549.0</ele><time>2026-05-02T11:47:20.178Z</time></trkpt><trkpt lat="43.4155787" lon="12.7007869"><ele>549.0</ele><time>2026-05-02T11:47:21.191Z</time></trkpt><trkpt lat="43.4157177" lon="12.7008671"><ele>549.0</ele><time>2026-05-02T11:47:22.173Z</time></trkpt><trkpt lat="43.4158649" lon="12.7009708"><ele>548.3333333333334</ele><time>2026-05-02T11:47:23.184Z</time></trkpt><trkpt lat="43.4160038" lon="12.7011046"><ele>547.6666666666667</ele><time>2026-05-02T11:47:24.183Z</time></trkpt><trkpt lat="43.4161331" lon="12.701253"><ele>547.0</ele><time>2026-05-02T11:47:25.17Z</time></trkpt><trkpt lat="43.4162409" lon="12.701417"><ele>547.0</ele><time>2026-05-02T11:47:26.178Z</time></trkpt><trkpt lat="43.4163088" lon="12.7016017"><ele>547.0</ele><time>2026-05-02T11:47:27.185Z</time></trkpt><trkpt lat="43.4163364" lon="12.7018042"><ele>547.0</ele><time>2026-05-02T11:47:28.187Z</time></trkpt><trkpt lat="43.4163308" lon="12.7020234"><ele>546.6666666666667</ele><time>2026-05-02T11:47:29.154Z</time></trkpt><trkpt lat="43.416294" lon="12.702233"><ele>546.3333333333334</ele><time>2026-05-02T11:47:30.171Z</time></trkpt><trkpt lat="43.4162258" lon="12.7024329"><ele>546.0</ele><time>2026-05-02T11:47:31.193Z</time></trkpt><trkpt lat="43.4161375" lon="12.7026085"><ele>547.0</ele><time>2026-05-02T11:47:32.177Z</time></trkpt><trkpt lat="43.4160341" lon="12.7027543"><ele>548.0</ele><time>2026-05-02T11:47:33.185Z</time></trkpt><trkpt lat="43.4159279" lon="12.7028694"><ele>549.0</ele><time>2026-05-02T11:47:34.183Z</time></trkpt><trkpt lat="43.4158289" lon="12.7029913"><ele>550.0</ele><time>2026-05-02T11:47:35.186Z</time></trkpt><trkpt lat="43.4157348" lon="12.7031146"><ele>550.0</ele><time>2026-05-02T11:47:36.196Z</time></trkpt><trkpt lat="43.4156559" lon="12.7032479"><ele>550.0</ele><time>2026-05-02T11:47:37.182Z</time></trkpt><trkpt lat="43.4156128" lon="12.7034037"><ele>550.0</ele><time>2026-05-02T11:47:38.195Z</time></trkpt><trkpt lat="43.4156071" lon="12.7035909"><ele>550.0</ele><time>2026-05-02T11:47:39.196Z</time></trkpt><trkpt lat="43.4156293" lon="12.7037933"><ele>548.6666666666667</ele><time>2026-05-02T11:47:40.176Z</time></trkpt><trkpt lat="43.4156716" lon="12.7040107"><ele>547.3333333333334</ele><time>2026-05-02T11:47:41.195Z</time></trkpt><trkpt lat="43.4157133" lon="12.704245"><ele>546.0</ele><time>2026-05-02T11:47:42.189Z</time></trkpt><trkpt lat="43.4157755" lon="12.7044811"><ele>544.0</ele><time>2026-05-02T11:47:43.198Z</time></trkpt><trkpt lat="43.4158311" lon="12.7047194"><ele>542.0</ele><time>2026-05-02T11:47:44.181Z</time></trkpt><trkpt lat="43.4158883" lon="12.7049515"><ele>540.0</ele><time>2026-05-02T11:47:45.208Z</time></trkpt><trkpt lat="43.4159403" lon="12.7051863"><ele>541.3333333333334</ele><time>2026-05-02T11:47:46.186Z</time></trkpt><trkpt lat="43.4159909" lon="12.705412"><ele>542.6666666666667</ele><time>2026-05-02T11:47:47.187Z</time></trkpt><trkpt lat="43.4160427" lon="12.7056435"><ele>544.0</ele><time>2026-05-02T11:47:48.193Z</time></trkpt><trkpt lat="43.4161075" lon="12.7058589"><ele>544.0</ele><time>2026-05-02T11:47:49.18Z</time></trkpt><trkpt lat="43.4162171" lon="12.7060453"><ele>544.0</ele><time>2026-05-02T11:47:50.182Z</time></trkpt><trkpt lat="43.4163612" lon="12.7062041"><ele>544.0</ele><time>2026-05-02T11:47:51.184Z</time></trkpt><trkpt lat="43.4165083" lon="12.7063503"><ele>543.6666666666667</ele><time>2026-05-02T11:47:52.181Z</time></trkpt><trkpt lat="43.4166581" lon="12.7064993"><ele>543.3333333333334</ele><time>2026-05-02T11:47:53.196Z</time></trkpt><trkpt lat="43.416792" lon="12.7066485"><ele>543.0</ele><time>2026-05-02T11:47:54.186Z</time></trkpt><trkpt lat="43.4169066" lon="12.706763"><ele>543.0</ele><time>2026-05-02T11:47:55.193Z</time></trkpt><trkpt lat="43.4170307" lon="12.7068236"><ele>543.0</ele><time>2026-05-02T11:47:56.201Z</time></trkpt><trkpt lat="43.4171655" lon="12.7067883"><ele>543.0</ele><time>2026-05-02T11:47:57.194Z</time></trkpt><trkpt lat="43.4173156" lon="12.7067417"><ele>543.0</ele><time>2026-05-02T11:47:58.181Z</time></trkpt><trkpt lat="43.4174671" lon="12.7066748"><ele>545.6666666666666</ele><time>2026-05-02T11:47:59.181Z</time></trkpt><trkpt lat="43.4176218" lon="12.7066023"><ele>548.3333333333333</ele><time>2026-05-02T11:48:00.178Z</time></trkpt><trkpt lat="43.4177754" lon="12.7065284"><ele>551.0</ele><time>2026-05-02T11:48:01.187Z</time></trkpt><trkpt lat="43.4179302" lon="12.7064665"><ele>549.0</ele><time>2026-05-02T11:48:02.19Z</time></trkpt><trkpt lat="43.4180862" lon="12.7064107"><ele>547.0</ele><time>2026-05-02T11:48:03.189Z</time></trkpt><trkpt lat="43.418246" lon="12.7063672"><ele>545.0</ele><time>2026-05-02T11:48:04.177Z</time></trkpt><trkpt lat="43.4184091" lon="12.706379"><ele>545.0</ele><time>2026-05-02T11:48:05.191Z</time></trkpt><trkpt lat="43.4185764" lon="12.7064251"><ele>545.0</ele><time>2026-05-02T11:48:06.186Z</time></trkpt><trkpt lat="43.4187353" lon="12.7065081"><ele>545.0</ele><time>2026-05-02T11:48:07.18Z</time></trkpt><trkpt lat="43.4188905" lon="12.7066065"><ele>543.6666666666666</ele><time>2026-05-02T11:48:08.176Z</time></trkpt><trkpt lat="43.4190356" lon="12.7067323"><ele>542.3333333333334</ele><time>2026-05-02T11:48:09.18Z</time></trkpt><trkpt lat="43.419155" lon="12.706879"><ele>541.0</ele><time>2026-05-02T11:48:10.185Z</time></trkpt><trkpt lat="43.4192522" lon="12.7070567"><ele>541.0</ele><time>2026-05-02T11:48:11.178Z</time></trkpt><trkpt lat="43.419334" lon="12.7072549"><ele>541.0</ele><time>2026-05-02T11:48:12.188Z</time></trkpt><trkpt lat="43.4193719" lon="12.7074693"><ele>541.0</ele><time>2026-05-02T11:48:13.174Z</time></trkpt><trkpt lat="43.4193769" lon="12.7076929"><ele>540.75</ele><time>2026-05-02T11:48:14.181Z</time></trkpt><trkpt lat="43.4193907" lon="12.7078951"><ele>540.5</ele><time>2026-05-02T11:48:15.183Z</time></trkpt><trkpt lat="43.4194218" lon="12.7080951"><ele>540.25</ele><time>2026-05-02T11:48:16.191Z</time></trkpt><trkpt lat="43.4194789" lon="12.7082761"><ele>540.0</ele><time>2026-05-02T11:48:17.185Z</time></trkpt><trkpt lat="43.4195703" lon="12.7084356"><ele>541.0</ele><time>2026-05-02T11:48:18.188Z</time></trkpt><trkpt lat="43.4196669" lon="12.7085759"><ele>542.0</ele><time>2026-05-02T11:48:19.182Z</time></trkpt><trkpt lat="43.4197753" lon="12.708687"><ele>543.0</ele><time>2026-05-02T11:48:20.187Z</time></trkpt><trkpt lat="43.4198841" lon="12.7087464"><ele>544.0</ele><time>2026-05-02T11:48:21.186Z</time></trkpt><trkpt lat="43.4200135" lon="12.7087293"><ele>544.0</ele><time>2026-05-02T11:48:22.192Z</time></trkpt><trkpt lat="43.420144" lon="12.7086734"><ele>544.0</ele><time>2026-05-02T11:48:23.185Z</time></trkpt><trkpt lat="43.4202847" lon="12.7085803"><ele>544.0</ele><time>2026-05-02T11:48:24.175Z</time></trkpt><trkpt lat="43.4204213" lon="12.7084665"><ele>541.6666666666667</ele><time>2026-05-02T11:48:25.184Z</time></trkpt><trkpt lat="43.4205531" lon="12.708318"><ele>539.3333333333334</ele><time>2026-05-02T11:48:26.185Z</time></trkpt><trkpt lat="43.4206672" lon="12.7081343"><ele>537.0</ele><time>2026-05-02T11:48:27.177Z</time></trkpt><trkpt lat="43.4207972" lon="12.7079561"><ele>537.0</ele><time>2026-05-02T11:48:28.18Z</time></trkpt><trkpt lat="43.420924" lon="12.7077829"><ele>537.0</ele><time>2026-05-02T11:48:29.175Z</time></trkpt><trkpt lat="43.4210643" lon="12.7076527"><ele>537.0</ele><time>2026-05-02T11:48:30.18Z</time></trkpt><trkpt lat="43.4212009" lon="12.7075815"><ele>536.25</ele><time>2026-05-02T11:48:31.19Z</time></trkpt><trkpt lat="43.421328" lon="12.7075907"><ele>535.5</ele><time>2026-05-02T11:48:32.185Z</time></trkpt><trkpt lat="43.4214589" lon="12.7076739"><ele>534.75</ele><time>2026-05-02T11:48:33.191Z</time></trkpt><trkpt lat="43.4215842" lon="12.7077922"><ele>534.0</ele><time>2026-05-02T11:48:34.187Z</time></trkpt><trkpt lat="43.4217137" lon="12.7078674"><ele>534.0</ele><time>2026-05-02T11:48:35.182Z</time></trkpt><trkpt lat="43.4218616" lon="12.7078744"><ele>534.0</ele><time>2026-05-02T11:48:36.193Z</time></trkpt><trkpt lat="43.4220082" lon="12.7078295"><ele>534.0</ele><time>2026-05-02T11:48:37.195Z</time></trkpt><trkpt lat="43.4221421" lon="12.7077664"><ele>534.0</ele><time>2026-05-02T11:48:38.186Z</time></trkpt><trkpt lat="43.4222582" lon="12.7077308"><ele>533.75</ele><time>2026-05-02T11:48:39.184Z</time></trkpt><trkpt lat="43.4223749" lon="12.7077531"><ele>533.5</ele><time>2026-05-02T11:48:40.174Z</time></trkpt><trkpt lat="43.4225109" lon="12.7078633"><ele>533.25</ele><time>2026-05-02T11:48:41.163Z</time></trkpt><trkpt lat="43.4226327" lon="12.7079899"><ele>533.0</ele><time>2026-05-02T11:48:42.169Z</time></trkpt><trkpt lat="43.4227663" lon="12.7081082"><ele>533.0</ele><time>2026-05-02T11:48:43.178Z</time></trkpt><trkpt lat="43.422914" lon="12.7081992"><ele>533.0</ele><time>2026-05-02T11:48:44.166Z</time></trkpt><trkpt lat="43.4230589" lon="12.7082669"><ele>533.0</ele><time>2026-05-02T11:48:45.176Z</time></trkpt><trkpt lat="43.4232063" lon="12.7083136"><ele>531.5</ele><time>2026-05-02T11:48:46.181Z</time></trkpt><trkpt lat="43.4233415" lon="12.7083855"><ele>530.0</ele><time>2026-05-02T11:48:47.189Z</time></trkpt><trkpt lat="43.4234552" lon="12.70851"><ele>528.5</ele><time>2026-05-02T11:48:48.181Z</time></trkpt><trkpt lat="43.4235585" lon="12.7086597"><ele>527.0</ele><time>2026-05-02T11:48:49.184Z</time></trkpt><trkpt lat="43.423641" lon="12.7088081"><ele>527.0</ele><time>2026-05-02T11:48:50.188Z</time></trkpt><trkpt lat="43.4237072" lon="12.7089632"><ele>527.0</ele><time>2026-05-02T11:48:51.181Z</time></trkpt><trkpt lat="43.4237364" lon="12.7091534"><ele>527.0</ele><time>2026-05-02T11:48:52.193Z</time></trkpt><trkpt lat="43.4237469" lon="12.7093454"><ele>527.0</ele><time>2026-05-02T11:48:53.187Z</time></trkpt><trkpt lat="43.4237782" lon="12.7095297"><ele>527.25</ele><time>2026-05-02T11:48:54.186Z</time></trkpt><trkpt lat="43.4238335" lon="12.7097151"><ele>527.5</ele><time>2026-05-02T11:48:55.201Z</time></trkpt><trkpt lat="43.4239267" lon="12.7098857"><ele>527.75</ele><time>2026-05-02T11:48:56.187Z</time></trkpt><trkpt lat="43.424035" lon="12.7100201"><ele>528.0</ele><time>2026-05-02T11:48:57.194Z</time></trkpt><trkpt lat="43.4241487" lon="12.7101402"><ele>528.0</ele><time>2026-05-02T11:48:58.189Z</time></trkpt><trkpt lat="43.4242665" lon="12.710226"><ele>528.0</ele><time>2026-05-02T11:48:59.171Z</time></trkpt><trkpt lat="43.4244056" lon="12.7102992"><ele>528.0</ele><time>2026-05-02T11:49:00.174Z</time></trkpt><trkpt lat="43.424539" lon="12.7103809"><ele>528.0</ele><time>2026-05-02T11:49:01.185Z</time></trkpt><trkpt lat="43.4246624" lon="12.7104579"><ele>526.6</ele><time>2026-05-02T11:49:02.183Z</time></trkpt><trkpt lat="43.4247812" lon="12.7105261"><ele>525.1999999999999</ele><time>2026-05-02T11:49:03.179Z</time></trkpt><trkpt lat="43.4248831" lon="12.7105886"><ele>523.8</ele><time>2026-05-02T11:49:04.175Z</time></trkpt><trkpt lat="43.4249607" lon="12.7106448"><ele>522.4</ele><time>2026-05-02T11:49:05.197Z</time></trkpt><trkpt lat="43.4250588" lon="12.7107008"><ele>521.0</ele><time>2026-05-02T11:49:07.182Z</time></trkpt><trkpt lat="43.4251234" lon="12.7107284"><ele>521.0</ele><time>2026-05-02T11:49:09.2Z</time></trkpt><trkpt lat="43.4252265" lon="12.7107098"><ele>521.0</ele><time>2026-05-02T11:49:44.179Z</time></trkpt><trkpt lat="43.4252757" lon="12.7106406"><ele>521.0</ele><time>2026-05-02T11:49:45.174Z</time></trkpt><trkpt lat="43.4253202" lon="12.7105591"><ele>521.0</ele><time>2026-05-02T11:49:46.176Z</time></trkpt><trkpt lat="43.4253772" lon="12.7104416"><ele>521.0</ele><time>2026-05-02T11:49:47.196Z</time></trkpt><trkpt lat="43.4254427" lon="12.7102975"><ele>523.0</ele><time>2026-05-02T11:49:48.171Z</time></trkpt><trkpt lat="43.4255162" lon="12.7101342"><ele>525.0</ele><time>2026-05-02T11:49:49.189Z</time></trkpt><trkpt lat="43.4255967" lon="12.7099607"><ele>527.0</ele><time>2026-05-02T11:49:50.178Z</time></trkpt><trkpt lat="43.4256843" lon="12.7097886"><ele>529.0</ele><time>2026-05-02T11:49:51.179Z</time></trkpt><trkpt lat="43.4257879" lon="12.7096259"><ele>529.0</ele><time>2026-05-02T11:49:52.177Z</time></trkpt><trkpt lat="43.4259074" lon="12.7094674"><ele>529.0</ele><time>2026-05-02T11:49:53.177Z</time></trkpt><trkpt lat="43.4260246" lon="12.7093291"><ele>529.0</ele><time>2026-05-02T11:49:54.151Z</time></trkpt><trkpt lat="43.4261346" lon="12.709193"><ele>528.25</ele><time>2026-05-02T11:49:55.184Z</time></trkpt><trkpt lat="43.4262312" lon="12.7090607"><ele>527.5</ele><time>2026-05-02T11:49:56.178Z</time></trkpt><trkpt lat="43.4263192" lon="12.7089247"><ele>526.75</ele><time>2026-05-02T11:49:57.176Z</time></trkpt><trkpt lat="43.426392" lon="12.7087865"><ele>526.0</ele><time>2026-05-02T11:49:58.177Z</time></trkpt><trkpt lat="43.4264635" lon="12.7086504"><ele>529.25</ele><time>2026-05-02T11:49:59.179Z</time></trkpt><trkpt lat="43.426552" lon="12.7085429"><ele>532.5</ele><time>2026-05-02T11:50:00.179Z</time></trkpt><trkpt lat="43.4266653" lon="12.7084686"><ele>535.75</ele><time>2026-05-02T11:50:01.179Z</time></trkpt><trkpt lat="43.426823" lon="12.7084386"><ele>539.0</ele><time>2026-05-02T11:50:02.172Z</time></trkpt><trkpt lat="43.4269972" lon="12.7084453"><ele>537.0</ele><time>2026-05-02T11:50:03.171Z</time></trkpt><trkpt lat="43.4271502" lon="12.7084475"><ele>535.0</ele><time>2026-05-02T11:50:04.158Z</time></trkpt><trkpt lat="43.427292" lon="12.7084318"><ele>533.0</ele><time>2026-05-02T11:50:05.167Z</time></trkpt><trkpt lat="43.4274209" lon="12.7083849"><ele>531.0</ele><time>2026-05-02T11:50:06.186Z</time></trkpt><trkpt lat="43.4275526" lon="12.7083059"><ele>531.0</ele><time>2026-05-02T11:50:07.179Z</time></trkpt><trkpt lat="43.4276801" lon="12.7081758"><ele>531.0</ele><time>2026-05-02T11:50:08.173Z</time></trkpt><trkpt lat="43.4278089" lon="12.7080612"><ele>531.0</ele><time>2026-05-02T11:50:09.166Z</time></trkpt><trkpt lat="43.4279373" lon="12.7079961"><ele>531.0</ele><time>2026-05-02T11:50:10.192Z</time></trkpt><trkpt lat="43.4280695" lon="12.7079741"><ele>532.25</ele><time>2026-05-02T11:50:11.171Z</time></trkpt><trkpt lat="43.4281998" lon="12.7079922"><ele>533.5</ele><time>2026-05-02T11:50:12.172Z</time></trkpt><trkpt lat="43.4283306" lon="12.7080396"><ele>534.75</ele><time>2026-05-02T11:50:13.18Z</time></trkpt><trkpt lat="43.4284512" lon="12.7080454"><ele>536.0</ele><time>2026-05-02T11:50:14.156Z</time></trkpt><trkpt lat="43.4285823" lon="12.7080074"><ele>536.0</ele><time>2026-05-02T11:50:15.173Z</time></trkpt><trkpt lat="43.4287225" lon="12.7079083"><ele>536.0</ele><time>2026-05-02T11:50:16.177Z</time></trkpt><trkpt lat="43.4288729" lon="12.7078"><ele>536.0</ele><time>2026-05-02T11:50:17.165Z</time></trkpt><trkpt lat="43.4290356" lon="12.707691"><ele>540.3333333333333</ele><time>2026-05-02T11:50:18.181Z</time></trkpt><trkpt lat="43.4291942" lon="12.7075943"><ele>544.6666666666666</ele><time>2026-05-02T11:50:19.189Z</time></trkpt><trkpt lat="43.4293475" lon="12.7075111"><ele>549.0</ele><time>2026-05-02T11:50:20.172Z</time></trkpt><trkpt lat="43.4294989" lon="12.7074344"><ele>547.6666666666666</ele><time>2026-05-02T11:50:21.177Z</time></trkpt><trkpt lat="43.4296556" lon="12.7073884"><ele>546.3333333333333</ele><time>2026-05-02T11:50:22.175Z</time></trkpt><trkpt lat="43.4298102" lon="12.7073534"><ele>545.0</ele><time>2026-05-02T11:50:23.174Z</time></trkpt><trkpt lat="43.4299522" lon="12.7072973"><ele>545.0</ele><time>2026-05-02T11:50:24.188Z</time></trkpt><trkpt lat="43.430089" lon="12.7072228"><ele>545.0</ele><time>2026-05-02T11:50:25.186Z</time></trkpt><trkpt lat="43.4302233" lon="12.7071225"><ele>545.0</ele><time>2026-05-02T11:50:26.18Z</time></trkpt><trkpt lat="43.4303464" lon="12.7069852"><ele>545.6666666666666</ele><time>2026-05-02T11:50:27.176Z</time></trkpt><trkpt lat="43.4304701" lon="12.7068085"><ele>546.3333333333334</ele><time>2026-05-02T11:50:28.18Z</time></trkpt><trkpt lat="43.430608" lon="12.7066371"><ele>547.0</ele><time>2026-05-02T11:50:29.17Z</time></trkpt><trkpt lat="43.4307471" lon="12.7064578"><ele>547.0</ele><time>2026-05-02T11:50:30.18Z</time></trkpt><trkpt lat="43.4308812" lon="12.7062823"><ele>547.0</ele><time>2026-05-02T11:50:31.18Z</time></trkpt><trkpt lat="43.4310034" lon="12.7060946"><ele>547.0</ele><time>2026-05-02T11:50:32.189Z</time></trkpt><trkpt lat="43.431128" lon="12.7059028"><ele>550.0</ele><time>2026-05-02T11:50:33.174Z</time></trkpt><trkpt lat="43.4312482" lon="12.7057015"><ele>553.0</ele><time>2026-05-02T11:50:34.186Z</time></trkpt><trkpt lat="43.4313698" lon="12.7055065"><ele>556.0</ele><time>2026-05-02T11:50:35.178Z</time></trkpt><trkpt lat="43.4314848" lon="12.7053016"><ele>560.6666666666667</ele><time>2026-05-02T11:50:36.166Z</time></trkpt><trkpt lat="43.4316026" lon="12.7050968"><ele>565.3333333333334</ele><time>2026-05-02T11:50:37.186Z</time></trkpt><trkpt lat="43.4317235" lon="12.7049004"><ele>570.0</ele><time>2026-05-02T11:50:38.173Z</time></trkpt><trkpt lat="43.4318426" lon="12.7047185"><ele>570.0</ele><time>2026-05-02T11:50:39.182Z</time></trkpt><trkpt lat="43.4319617" lon="12.7045625"><ele>570.0</ele><time>2026-05-02T11:50:40.176Z</time></trkpt><trkpt lat="43.4320817" lon="12.7044236"><ele>570.0</ele><time>2026-05-02T11:50:41.182Z</time></trkpt><trkpt lat="43.4322068" lon="12.7043066"><ele>569.3333333333334</ele><time>2026-05-02T11:50:42.179Z</time></trkpt><trkpt lat="43.4323301" lon="12.7041712"><ele>568.6666666666667</ele><time>2026-05-02T11:50:43.187Z</time></trkpt><trkpt lat="43.4324428" lon="12.7040184"><ele>568.0</ele><time>2026-05-02T11:50:44.149Z</time></trkpt><trkpt lat="43.4325407" lon="12.7038336"><ele>568.0</ele><time>2026-05-02T11:50:45.185Z</time></trkpt><trkpt lat="43.4326245" lon="12.7036398"><ele>568.0</ele><time>2026-05-02T11:50:46.195Z</time></trkpt><trkpt lat="43.4327089" lon="12.7034452"><ele>568.0</ele><time>2026-05-02T11:50:47.177Z</time></trkpt><trkpt lat="43.4327898" lon="12.7032474"><ele>569.0</ele><time>2026-05-02T11:50:48.185Z</time></trkpt><trkpt lat="43.4328789" lon="12.703046"><ele>570.0</ele><time>2026-05-02T11:50:49.171Z</time></trkpt><trkpt lat="43.4329742" lon="12.7028575"><ele>571.0</ele><time>2026-05-02T11:50:50.179Z</time></trkpt><trkpt lat="43.4330734" lon="12.7026821"><ele>572.0</ele><time>2026-05-02T11:50:51.172Z</time></trkpt><trkpt lat="43.4331745" lon="12.702502"><ele>573.0</ele><time>2026-05-02T11:50:52.186Z</time></trkpt><trkpt lat="43.4332725" lon="12.7023281"><ele>574.0</ele><time>2026-05-02T11:50:53.177Z</time></trkpt><trkpt lat="43.4333616" lon="12.7021638"><ele>574.0</ele><time>2026-05-02T11:50:54.19Z</time></trkpt><trkpt lat="43.4334382" lon="12.7020053"><ele>574.0</ele><time>2026-05-02T11:50:55.18Z</time></trkpt><trkpt lat="43.4334972" lon="12.7018356"><ele>574.0</ele><time>2026-05-02T11:50:56.181Z</time></trkpt><trkpt lat="43.4335483" lon="12.7016525"><ele>574.0</ele><time>2026-05-02T11:50:57.181Z</time></trkpt><trkpt lat="43.4335859" lon="12.7014653"><ele>576.75</ele><time>2026-05-02T11:50:58.19Z</time></trkpt><trkpt lat="43.4336351" lon="12.7012789"><ele>579.5</ele><time>2026-05-02T11:50:59.173Z</time></trkpt><trkpt lat="43.4337133" lon="12.7011122"><ele>582.25</ele><time>2026-05-02T11:51:00.172Z</time></trkpt><trkpt lat="43.4338035" lon="12.7009553"><ele>585.0</ele><time>2026-05-02T11:51:01.179Z</time></trkpt><trkpt lat="43.4338934" lon="12.7007987"><ele>585.0</ele><time>2026-05-02T11:51:02.172Z</time></trkpt><trkpt lat="43.4339675" lon="12.7006406"><ele>585.0</ele><time>2026-05-02T11:51:03.178Z</time></trkpt><trkpt lat="43.4340083" lon="12.7004742"><ele>585.0</ele><time>2026-05-02T11:51:04.195Z</time></trkpt><trkpt lat="43.4340131" lon="12.7003318"><ele>585.0</ele><time>2026-05-02T11:51:05.176Z</time></trkpt><trkpt lat="43.4339836" lon="12.7001749"><ele>586.5</ele><time>2026-05-02T11:51:06.187Z</time></trkpt><trkpt lat="43.4339347" lon="12.7000268"><ele>588.0</ele><time>2026-05-02T11:51:07.164Z</time></trkpt><trkpt lat="43.4338988" lon="12.6998849"><ele>589.5</ele><time>2026-05-02T11:51:08.19Z</time></trkpt><trkpt lat="43.433889" lon="12.6997402"><ele>591.0</ele><time>2026-05-02T11:51:09.169Z</time></trkpt><trkpt lat="43.4339027" lon="12.6995684"><ele>594.25</ele><time>2026-05-02T11:51:10.164Z</time></trkpt><trkpt lat="43.4339652" lon="12.6993984"><ele>597.5</ele><time>2026-05-02T11:51:11.184Z</time></trkpt><trkpt lat="43.4340271" lon="12.6992329"><ele>600.75</ele><time>2026-05-02T11:51:12.19Z</time></trkpt><trkpt lat="43.4340866" lon="12.6990617"><ele>604.0</ele><time>2026-05-02T11:51:13.178Z</time></trkpt><trkpt lat="43.4341346" lon="12.6988969"><ele>604.0</ele><time>2026-05-02T11:51:14.173Z</time></trkpt><trkpt lat="43.4341608" lon="12.6987174"><ele>604.0</ele><time>2026-05-02T11:51:15.169Z</time></trkpt><trkpt lat="43.4341983" lon="12.6985463"><ele>604.0</ele><time>2026-05-02T11:51:16.172Z</time></trkpt><trkpt lat="43.4342226" lon="12.6983951"><ele>604.0</ele><time>2026-05-02T11:51:17.172Z</time></trkpt><trkpt lat="43.4342348" lon="12.698236"><ele>606.25</ele><time>2026-05-02T11:51:18.176Z</time></trkpt><trkpt lat="43.4342387" lon="12.6980724"><ele>608.5</ele><time>2026-05-02T11:51:19.161Z</time></trkpt><trkpt lat="43.4342505" lon="12.697887"><ele>610.75</ele><time>2026-05-02T11:51:20.174Z</time></trkpt><trkpt lat="43.4342834" lon="12.6977049"><ele>613.0</ele><time>2026-05-02T11:51:21.168Z</time></trkpt><trkpt lat="43.4343356" lon="12.6975213"><ele>615.0</ele><time>2026-05-02T11:51:22.183Z</time></trkpt><trkpt lat="43.4344084" lon="12.6973303"><ele>617.0</ele><time>2026-05-02T11:51:23.184Z</time></trkpt><trkpt lat="43.4344786" lon="12.6971279"><ele>619.0</ele><time>2026-05-02T11:51:24.176Z</time></trkpt><trkpt lat="43.4345351" lon="12.6969204"><ele>617.5</ele><time>2026-05-02T11:51:25.184Z</time></trkpt><trkpt lat="43.4345988" lon="12.6967291"><ele>616.0</ele><time>2026-05-02T11:51:26.179Z</time></trkpt><trkpt lat="43.4346699" lon="12.6965457"><ele>614.5</ele><time>2026-05-02T11:51:27.175Z</time></trkpt><trkpt lat="43.4347357" lon="12.6963894"><ele>613.0</ele><time>2026-05-02T11:51:28.18Z</time></trkpt><trkpt lat="43.4347821" lon="12.6962363"><ele>613.0</ele><time>2026-05-02T11:51:29.175Z</time></trkpt><trkpt lat="43.4348025" lon="12.6960951"><ele>613.0</ele><time>2026-05-02T11:51:30.177Z</time></trkpt><trkpt lat="43.4347937" lon="12.6959584"><ele>613.0</ele><time>2026-05-02T11:51:31.194Z</time></trkpt><trkpt lat="43.4348045" lon="12.6958247"><ele>613.0</ele><time>2026-05-02T11:51:32.181Z</time></trkpt><trkpt lat="43.4348235" lon="12.6956962"><ele>613.0</ele><time>2026-05-02T11:51:33.183Z</time></trkpt><trkpt lat="43.4349037" lon="12.6955861"><ele>614.0</ele><time>2026-05-02T11:51:34.181Z</time></trkpt><trkpt lat="43.435023" lon="12.6954906"><ele>615.0</ele><time>2026-05-02T11:51:35.179Z</time></trkpt><trkpt lat="43.4351276" lon="12.695373"><ele>616.0</ele><time>2026-05-02T11:51:36.177Z</time></trkpt><trkpt lat="43.4352296" lon="12.6952038"><ele>617.0</ele><time>2026-05-02T11:51:37.184Z</time></trkpt><trkpt lat="43.4353138" lon="12.6949829"><ele>616.0</ele><time>2026-05-02T11:51:38.205Z</time></trkpt><trkpt lat="43.4353949" lon="12.6947612"><ele>615.0</ele><time>2026-05-02T11:51:39.191Z</time></trkpt><trkpt lat="43.4354695" lon="12.6945452"><ele>614.0</ele><time>2026-05-02T11:51:40.182Z</time></trkpt><trkpt lat="43.4355477" lon="12.6943596"><ele>614.0</ele><time>2026-05-02T11:51:41.182Z</time></trkpt><trkpt lat="43.4356144" lon="12.6941723"><ele>614.0</ele><time>2026-05-02T11:51:42.17Z</time></trkpt><trkpt lat="43.4356658" lon="12.6939919"><ele>614.0</ele><time>2026-05-02T11:51:43.179Z</time></trkpt><trkpt lat="43.4357049" lon="12.6938055"><ele>614.0</ele><time>2026-05-02T11:51:44.17Z</time></trkpt><trkpt lat="43.4357395" lon="12.6936263"><ele>615.25</ele><time>2026-05-02T11:51:45.183Z</time></trkpt><trkpt lat="43.435758" lon="12.6934411"><ele>616.5</ele><time>2026-05-02T11:51:46.182Z</time></trkpt><trkpt lat="43.4357607" lon="12.6932499"><ele>617.75</ele><time>2026-05-02T11:51:47.18Z</time></trkpt><trkpt lat="43.4357492" lon="12.693045"><ele>619.0</ele><time>2026-05-02T11:51:48.199Z</time></trkpt><trkpt lat="43.4357412" lon="12.6928433"><ele>618.75</ele><time>2026-05-02T11:51:49.194Z</time></trkpt><trkpt lat="43.4357317" lon="12.6926487"><ele>618.5</ele><time>2026-05-02T11:51:50.192Z</time></trkpt><trkpt lat="43.435726" lon="12.6924532"><ele>618.25</ele><time>2026-05-02T11:51:51.193Z</time></trkpt><trkpt lat="43.4357335" lon="12.6922636"><ele>618.0</ele><time>2026-05-02T11:51:52.175Z</time></trkpt><trkpt lat="43.4357458" lon="12.69208"><ele>617.5</ele><time>2026-05-02T11:51:53.19Z</time></trkpt><trkpt lat="43.4357641" lon="12.6918933"><ele>617.0</ele><time>2026-05-02T11:51:54.176Z</time></trkpt><trkpt lat="43.4357868" lon="12.6917026"><ele>616.5</ele><time>2026-05-02T11:51:55.188Z</time></trkpt><trkpt lat="43.4358131" lon="12.6915111"><ele>616.0</ele><time>2026-05-02T11:51:56.187Z</time></trkpt><trkpt lat="43.435845" lon="12.6913137"><ele>616.0</ele><time>2026-05-02T11:51:57.194Z</time></trkpt><trkpt lat="43.4358831" lon="12.6911165"><ele>616.0</ele><time>2026-05-02T11:51:58.179Z</time></trkpt><trkpt lat="43.4359219" lon="12.6909279"><ele>616.0</ele><time>2026-05-02T11:51:59.191Z</time></trkpt><trkpt lat="43.4359804" lon="12.690739"><ele>616.0</ele><time>2026-05-02T11:52:00.198Z</time></trkpt><trkpt lat="43.4360538" lon="12.6905588"><ele>619.6666666666667</ele><time>2026-05-02T11:52:01.168Z</time></trkpt><trkpt lat="43.4361403" lon="12.6903809"><ele>623.3333333333334</ele><time>2026-05-02T11:52:02.178Z</time></trkpt><trkpt lat="43.4362342" lon="12.6902126"><ele>627.0</ele><time>2026-05-02T11:52:03.187Z</time></trkpt><trkpt lat="43.4363313" lon="12.6900597"><ele>627.0</ele><time>2026-05-02T11:52:04.181Z</time></trkpt><trkpt lat="43.436427" lon="12.6899282"><ele>627.0</ele><time>2026-05-02T11:52:05.17Z</time></trkpt><trkpt lat="43.43651" lon="12.6898014"><ele>627.0</ele><time>2026-05-02T11:52:06.174Z</time></trkpt><trkpt lat="43.4365867" lon="12.6896798"><ele>627.0</ele><time>2026-05-02T11:52:07.188Z</time></trkpt><trkpt lat="43.4366549" lon="12.6895384"><ele>630.0</ele><time>2026-05-02T11:52:08.2Z</time></trkpt><trkpt lat="43.436719" lon="12.6893834"><ele>633.0</ele><time>2026-05-02T11:52:09.187Z</time></trkpt><trkpt lat="43.4367912" lon="12.6892248"><ele>636.0</ele><time>2026-05-02T11:52:10.196Z</time></trkpt><trkpt lat="43.4368732" lon="12.6890477"><ele>639.0</ele><time>2026-05-02T11:52:11.191Z</time></trkpt><trkpt lat="43.4369585" lon="12.6888552"><ele>639.0</ele><time>2026-05-02T11:52:12.19Z</time></trkpt><trkpt lat="43.4370565" lon="12.6886516"><ele>639.0</ele><time>2026-05-02T11:52:13.199Z</time></trkpt><trkpt lat="43.4371608" lon="12.688448"><ele>639.0</ele><time>2026-05-02T11:52:14.191Z</time></trkpt><trkpt lat="43.4372642" lon="12.688234"><ele>638.3333333333334</ele><time>2026-05-02T11:52:15.189Z</time></trkpt><trkpt lat="43.4373681" lon="12.6880166"><ele>637.6666666666667</ele><time>2026-05-02T11:52:16.183Z</time></trkpt><trkpt lat="43.4374732" lon="12.6878021"><ele>637.0</ele><time>2026-05-02T11:52:17.188Z</time></trkpt><trkpt lat="43.4375744" lon="12.6875955"><ele>641.0</ele><time>2026-05-02T11:52:18.199Z</time></trkpt><trkpt lat="43.4376705" lon="12.6873875"><ele>645.0</ele><time>2026-05-02T11:52:19.196Z</time></trkpt><trkpt lat="43.4377668" lon="12.6871794"><ele>649.0</ele><time>2026-05-02T11:52:20.17Z</time></trkpt><trkpt lat="43.4378609" lon="12.6869625"><ele>646.0</ele><time>2026-05-02T11:52:21.187Z</time></trkpt><trkpt lat="43.437954" lon="12.6867522"><ele>643.0</ele><time>2026-05-02T11:52:22.182Z</time></trkpt><trkpt lat="43.4380488" lon="12.6865515"><ele>640.0</ele><time>2026-05-02T11:52:23.18Z</time></trkpt><trkpt lat="43.438143" lon="12.6863501"><ele>640.0</ele><time>2026-05-02T11:52:24.198Z</time></trkpt><trkpt lat="43.4382389" lon="12.6861502"><ele>640.0</ele><time>2026-05-02T11:52:25.186Z</time></trkpt><trkpt lat="43.4383453" lon="12.6859513"><ele>640.0</ele><time>2026-05-02T11:52:26.198Z</time></trkpt><trkpt lat="43.4384605" lon="12.6857635"><ele>645.3333333333334</ele><time>2026-05-02T11:52:27.193Z</time></trkpt><trkpt lat="43.4385721" lon="12.6855691"><ele>650.6666666666666</ele><time>2026-05-02T11:52:28.185Z</time></trkpt><trkpt lat="43.4386824" lon="12.6853768"><ele>656.0</ele><time>2026-05-02T11:52:29.187Z</time></trkpt><trkpt lat="43.4387936" lon="12.6851864"><ele>657.0</ele><time>2026-05-02T11:52:30.197Z</time></trkpt><trkpt lat="43.4389114" lon="12.6850076"><ele>658.0</ele><time>2026-05-02T11:52:31.188Z</time></trkpt><trkpt lat="43.4390327" lon="12.6848343"><ele>659.0</ele><time>2026-05-02T11:52:32.19Z</time></trkpt><trkpt lat="43.4391506" lon="12.6846652"><ele>659.0</ele><time>2026-05-02T11:52:33.191Z</time></trkpt><trkpt lat="43.4392672" lon="12.684494"><ele>659.0</ele><time>2026-05-02T11:52:34.192Z</time></trkpt><trkpt lat="43.4393828" lon="12.6843129"><ele>659.0</ele><time>2026-05-02T11:52:35.184Z</time></trkpt><trkpt lat="43.4394997" lon="12.6841249"><ele>661.3333333333333</ele><time>2026-05-02T11:52:36.194Z</time></trkpt><trkpt lat="43.4396101" lon="12.6839476"><ele>663.6666666666666</ele><time>2026-05-02T11:52:37.182Z</time></trkpt><trkpt lat="43.4397139" lon="12.6837856"><ele>666.0</ele><time>2026-05-02T11:52:38.204Z</time></trkpt><trkpt lat="43.439819" lon="12.6836425"><ele>663.6666666666666</ele><time>2026-05-02T11:52:39.197Z</time></trkpt><trkpt lat="43.439937" lon="12.6834945"><ele>661.3333333333333</ele><time>2026-05-02T11:52:40.182Z</time></trkpt><trkpt lat="43.4400675" lon="12.6833419"><ele>659.0</ele><time>2026-05-02T11:52:41.175Z</time></trkpt><trkpt lat="43.440201" lon="12.6831819"><ele>659.0</ele><time>2026-05-02T11:52:42.196Z</time></trkpt><trkpt lat="43.4403299" lon="12.6830279"><ele>659.0</ele><time>2026-05-02T11:52:43.182Z</time></trkpt><trkpt lat="43.4404595" lon="12.6828761"><ele>659.0</ele><time>2026-05-02T11:52:44.188Z</time></trkpt><trkpt lat="43.4405933" lon="12.6827243"><ele>656.6666666666666</ele><time>2026-05-02T11:52:45.193Z</time></trkpt><trkpt lat="43.4407291" lon="12.6825781"><ele>654.3333333333334</ele><time>2026-05-02T11:52:46.19Z</time></trkpt><trkpt lat="43.4408595" lon="12.6824378"><ele>652.0</ele><time>2026-05-02T11:52:47.188Z</time></trkpt><trkpt lat="43.4409831" lon="12.6823091"><ele>652.0</ele><time>2026-05-02T11:52:48.196Z</time></trkpt><trkpt lat="43.4411087" lon="12.682195"><ele>652.0</ele><time>2026-05-02T11:52:49.199Z</time></trkpt><trkpt lat="43.4412427" lon="12.6821032"><ele>652.0</ele><time>2026-05-02T11:52:50.188Z</time></trkpt><trkpt lat="43.4413942" lon="12.6820255"><ele>648.6666666666667</ele><time>2026-05-02T11:52:51.179Z</time></trkpt><trkpt lat="43.4415519" lon="12.6819572"><ele>645.3333333333334</ele><time>2026-05-02T11:52:52.185Z</time></trkpt><trkpt lat="43.4417086" lon="12.681889"><ele>642.0</ele><time>2026-05-02T11:52:53.171Z</time></trkpt><trkpt lat="43.441853" lon="12.6818152"><ele>642.0</ele><time>2026-05-02T11:52:54.175Z</time></trkpt><trkpt lat="43.441989" lon="12.6817315"><ele>642.0</ele><time>2026-05-02T11:52:55.157Z</time></trkpt><trkpt lat="43.4421293" lon="12.6816146"><ele>642.0</ele><time>2026-05-02T11:52:56.179Z</time></trkpt><trkpt lat="43.4422633" lon="12.6814668"><ele>640.0</ele><time>2026-05-02T11:52:57.195Z</time></trkpt><trkpt lat="43.442387" lon="12.6813097"><ele>638.0</ele><time>2026-05-02T11:52:58.163Z</time></trkpt><trkpt lat="43.4425098" lon="12.6811446"><ele>636.0</ele><time>2026-05-02T11:52:59.179Z</time></trkpt><trkpt lat="43.4426338" lon="12.6809842"><ele>636.0</ele><time>2026-05-02T11:53:00.188Z</time></trkpt><trkpt lat="43.4427614" lon="12.6808421"><ele>636.0</ele><time>2026-05-02T11:53:01.177Z</time></trkpt><trkpt lat="43.4428902" lon="12.6807216"><ele>636.0</ele><time>2026-05-02T11:53:02.194Z</time></trkpt><trkpt lat="43.4430175" lon="12.6806036"><ele>636.3333333333334</ele><time>2026-05-02T11:53:03.185Z</time></trkpt><trkpt lat="43.4431303" lon="12.6804645"><ele>636.6666666666667</ele><time>2026-05-02T11:53:04.161Z</time></trkpt><trkpt lat="43.4432321" lon="12.6802902"><ele>637.0</ele><time>2026-05-02T11:53:05.178Z</time></trkpt><trkpt lat="43.4433358" lon="12.6801272"><ele>637.0</ele><time>2026-05-02T11:53:06.2Z</time></trkpt><trkpt lat="43.4434506" lon="12.679997"><ele>637.0</ele><time>2026-05-02T11:53:07.187Z</time></trkpt><trkpt lat="43.4435841" lon="12.6798811"><ele>637.0</ele><time>2026-05-02T11:53:08.192Z</time></trkpt><trkpt lat="43.4437162" lon="12.6797724"><ele>637.8</ele><time>2026-05-02T11:53:09.165Z</time></trkpt><trkpt lat="43.4438289" lon="12.6796563"><ele>638.6</ele><time>2026-05-02T11:53:10.185Z</time></trkpt><trkpt lat="43.4439128" lon="12.6795523"><ele>639.4</ele><time>2026-05-02T11:53:11.209Z</time></trkpt><trkpt lat="43.4439664" lon="12.6794624"><ele>640.1999999999999</ele><time>2026-05-02T11:53:12.207Z</time></trkpt><trkpt lat="43.4439912" lon="12.6793784"><ele>641.0</ele><time>2026-05-02T11:53:13.19Z</time></trkpt><trkpt lat="43.4439582" lon="12.6792346"><ele>641.0</ele><time>2026-05-02T11:53:15.19Z</time></trkpt><trkpt lat="43.4438353" lon="12.6792853"><ele>641.0</ele><time>2026-05-02T11:53:17.191Z</time></trkpt><trkpt lat="43.4437614" lon="12.6794034"><ele>641.0</ele><time>2026-05-02T11:53:18.206Z</time></trkpt><trkpt lat="43.4436896" lon="12.6795388"><ele>641.0</ele><time>2026-05-02T11:53:19.186Z</time></trkpt><trkpt lat="43.4435877" lon="12.6796454"><ele>639.6666666666666</ele><time>2026-05-02T11:53:20.164Z</time></trkpt><trkpt lat="43.4434514" lon="12.6797392"><ele>638.3333333333334</ele><time>2026-05-02T11:53:21.181Z</time></trkpt><trkpt lat="43.4433008" lon="12.6798206"><ele>637.0</ele><time>2026-05-02T11:53:22.189Z</time></trkpt><trkpt lat="43.4431397" lon="12.6799136"><ele>637.0</ele><time>2026-05-02T11:53:23.186Z</time></trkpt><trkpt lat="43.442966" lon="12.680013"><ele>637.0</ele><time>2026-05-02T11:53:24.193Z</time></trkpt><trkpt lat="43.4428014" lon="12.6800979"><ele>637.0</ele><time>2026-05-02T11:53:25.193Z</time></trkpt><trkpt lat="43.4426526" lon="12.6801847"><ele>636.75</ele><time>2026-05-02T11:53:26.187Z</time></trkpt><trkpt lat="43.4425271" lon="12.6802829"><ele>636.5</ele><time>2026-05-02T11:53:27.192Z</time></trkpt><trkpt lat="43.4424259" lon="12.6804075"><ele>636.25</ele><time>2026-05-02T11:53:28.159Z</time></trkpt><trkpt lat="43.4423546" lon="12.6805509"><ele>636.0</ele><time>2026-05-02T11:53:29.203Z</time></trkpt><trkpt lat="43.4423158" lon="12.6806709"><ele>636.0</ele><time>2026-05-02T11:53:30.183Z</time></trkpt><trkpt lat="43.4422784" lon="12.6807651"><ele>636.0</ele><time>2026-05-02T11:53:31.19Z</time></trkpt><trkpt lat="43.4422225" lon="12.6808144"><ele>636.0</ele><time>2026-05-02T11:53:32.19Z</time></trkpt><trkpt lat="43.442149" lon="12.6808079"><ele>636.0</ele><time>2026-05-02T11:53:33.185Z</time></trkpt><trkpt lat="43.4420762" lon="12.6807338"><ele>636.0</ele><time>2026-05-02T11:53:34.18Z</time></trkpt><trkpt lat="43.4420354" lon="12.6806105"><ele>636.0</ele><time>2026-05-02T11:53:35.194Z</time></trkpt><trkpt lat="43.4420342" lon="12.680475"><ele>632.25</ele><time>2026-05-02T11:53:36.182Z</time></trkpt><trkpt lat="43.4420809" lon="12.680338"><ele>628.5</ele><time>2026-05-02T11:53:37.165Z</time></trkpt><trkpt lat="43.4421724" lon="12.6802053"><ele>624.75</ele><time>2026-05-02T11:53:38.193Z</time></trkpt><trkpt lat="43.4422834" lon="12.6800951"><ele>621.0</ele><time>2026-05-02T11:53:39.176Z</time></trkpt><trkpt lat="43.4424141" lon="12.6800114"><ele>620.25</ele><time>2026-05-02T11:53:40.192Z</time></trkpt><trkpt lat="43.4425523" lon="12.679938"><ele>619.5</ele><time>2026-05-02T11:53:41.183Z</time></trkpt><trkpt lat="43.442691" lon="12.6798605"><ele>618.75</ele><time>2026-05-02T11:53:42.189Z</time></trkpt><trkpt lat="43.4428204" lon="12.679773"><ele>618.0</ele><time>2026-05-02T11:53:43.188Z</time></trkpt><trkpt lat="43.4429442" lon="12.6796609"><ele>617.3333333333334</ele><time>2026-05-02T11:53:44.154Z</time></trkpt><trkpt lat="43.4430641" lon="12.679509"><ele>616.6666666666667</ele><time>2026-05-02T11:53:45.181Z</time></trkpt><trkpt lat="43.4431713" lon="12.6793388"><ele>616.0</ele><time>2026-05-02T11:53:46.183Z</time></trkpt><trkpt lat="43.4432798" lon="12.6791666"><ele>616.0</ele><time>2026-05-02T11:53:47.195Z</time></trkpt><trkpt lat="43.4433935" lon="12.679013"><ele>616.0</ele><time>2026-05-02T11:53:48.187Z</time></trkpt><trkpt lat="43.443505" lon="12.6788687"><ele>616.0</ele><time>2026-05-02T11:53:49.198Z</time></trkpt><trkpt lat="43.4436191" lon="12.678735"><ele>616.25</ele><time>2026-05-02T11:53:50.194Z</time></trkpt><trkpt lat="43.4437264" lon="12.6785986"><ele>616.5</ele><time>2026-05-02T11:53:51.193Z</time></trkpt><trkpt lat="43.4438209" lon="12.6784485"><ele>616.75</ele><time>2026-05-02T11:53:52.184Z</time></trkpt><trkpt lat="43.4439026" lon="12.6782816"><ele>617.0</ele><time>2026-05-02T11:53:53.184Z</time></trkpt><trkpt lat="43.443967" lon="12.6780955"><ele>617.0</ele><time>2026-05-02T11:53:54.192Z</time></trkpt><trkpt lat="43.4440244" lon="12.6779104"><ele>617.0</ele><time>2026-05-02T11:53:55.188Z</time></trkpt><trkpt lat="43.4440859" lon="12.6777306"><ele>617.0</ele><time>2026-05-02T11:53:56.194Z</time></trkpt><trkpt lat="43.4441487" lon="12.6775613"><ele>617.0</ele><time>2026-05-02T11:53:57.178Z</time></trkpt><trkpt lat="43.4442262" lon="12.6774018"><ele>617.0</ele><time>2026-05-02T11:53:58.194Z</time></trkpt><trkpt lat="43.4443285" lon="12.6772775"><ele>617.0</ele><time>2026-05-02T11:53:59.199Z</time></trkpt><trkpt lat="43.4444565" lon="12.6771874"><ele>617.0</ele><time>2026-05-02T11:54:00.19Z</time></trkpt><trkpt lat="43.4446006" lon="12.6771211"><ele>617.0</ele><time>2026-05-02T11:54:01.2Z</time></trkpt><trkpt lat="43.4447403" lon="12.6770591"><ele>617.0</ele><time>2026-05-02T11:54:02.177Z</time></trkpt><trkpt lat="43.4448876" lon="12.6769924"><ele>617.0</ele><time>2026-05-02T11:54:03.2Z</time></trkpt><trkpt lat="43.4450239" lon="12.6769134"><ele>617.0</ele><time>2026-05-02T11:54:04.178Z</time></trkpt><trkpt lat="43.4451659" lon="12.6768206"><ele>610.3333333333333</ele><time>2026-05-02T11:54:05.18Z</time></trkpt><trkpt lat="43.4453018" lon="12.6767248"><ele>603.6666666666666</ele><time>2026-05-02T11:54:06.184Z</time></trkpt><trkpt lat="43.4454332" lon="12.676624"><ele>597.0</ele><time>2026-05-02T11:54:07.178Z</time></trkpt><trkpt lat="43.4455634" lon="12.6765237"><ele>597.0</ele><time>2026-05-02T11:54:08.175Z</time></trkpt><trkpt lat="43.4456883" lon="12.67642"><ele>597.0</ele><time>2026-05-02T11:54:09.186Z</time></trkpt><trkpt lat="43.4458102" lon="12.6762896"><ele>597.0</ele><time>2026-05-02T11:54:10.181Z</time></trkpt><trkpt lat="43.4459268" lon="12.6761206"><ele>595.0</ele><time>2026-05-02T11:54:11.196Z</time></trkpt><trkpt lat="43.446045" lon="12.6759345"><ele>593.0</ele><time>2026-05-02T11:54:12.198Z</time></trkpt><trkpt lat="43.4461661" lon="12.675757"><ele>591.0</ele><time>2026-05-02T11:54:13.185Z</time></trkpt><trkpt lat="43.4462978" lon="12.6755937"><ele>591.0</ele><time>2026-05-02T11:54:14.181Z</time></trkpt><trkpt lat="43.4464205" lon="12.6754261"><ele>591.0</ele><time>2026-05-02T11:54:15.187Z</time></trkpt><trkpt lat="43.4465331" lon="12.6752511"><ele>591.0</ele><time>2026-05-02T11:54:16.181Z</time></trkpt><trkpt lat="43.4466415" lon="12.6750745"><ele>583.6666666666666</ele><time>2026-05-02T11:54:17.18Z</time></trkpt><trkpt lat="43.4467541" lon="12.6749039"><ele>576.3333333333333</ele><time>2026-05-02T11:54:18.191Z</time></trkpt><trkpt lat="43.4468632" lon="12.6747355"><ele>569.0</ele><time>2026-05-02T11:54:19.171Z</time></trkpt><trkpt lat="43.4469625" lon="12.6745624"><ele>567.3333333333333</ele><time>2026-05-02T11:54:20.188Z</time></trkpt><trkpt lat="43.4470493" lon="12.6743869"><ele>565.6666666666666</ele><time>2026-05-02T11:54:21.186Z</time></trkpt><trkpt lat="43.447136" lon="12.6742193"><ele>564.0</ele><time>2026-05-02T11:54:22.185Z</time></trkpt><trkpt lat="43.4472378" lon="12.6740569"><ele>564.0</ele><time>2026-05-02T11:54:23.192Z</time></trkpt><trkpt lat="43.4473662" lon="12.6739131"><ele>564.0</ele><time>2026-05-02T11:54:24.182Z</time></trkpt><trkpt lat="43.4475099" lon="12.6737626"><ele>564.0</ele><time>2026-05-02T11:54:25.182Z</time></trkpt><trkpt lat="43.4476531" lon="12.6736107"><ele>564.3333333333334</ele><time>2026-05-02T11:54:26.189Z</time></trkpt><trkpt lat="43.4478003" lon="12.6734527"><ele>564.6666666666667</ele><time>2026-05-02T11:54:27.194Z</time></trkpt><trkpt lat="43.447938" lon="12.6733107"><ele>565.0</ele><time>2026-05-02T11:54:28.173Z</time></trkpt><trkpt lat="43.4480477" lon="12.6731847"><ele>565.0</ele><time>2026-05-02T11:54:29.19Z</time></trkpt><trkpt lat="43.4481351" lon="12.673083"><ele>565.0</ele><time>2026-05-02T11:54:30.188Z</time></trkpt><trkpt lat="43.4482022" lon="12.6730026"><ele>565.0</ele><time>2026-05-02T11:54:31.175Z</time></trkpt><trkpt lat="43.4482449" lon="12.6729223"><ele>565.0</ele><time>2026-05-02T11:54:32.183Z</time></trkpt><trkpt lat="43.4481905" lon="12.6727872"><ele>565.0</ele><time>2026-05-02T11:54:34.174Z</time></trkpt><trkpt lat="43.4481236" lon="12.6727833"><ele>565.0</ele><time>2026-05-02T11:54:35.188Z</time></trkpt><trkpt lat="43.4480349" lon="12.6728149"><ele>565.0</ele><time>2026-05-02T11:54:36.208Z</time></trkpt><trkpt lat="43.4479475" lon="12.6728818"><ele>565.0</ele><time>2026-05-02T11:54:37.182Z</time></trkpt><trkpt lat="43.4478414" lon="12.6729801"><ele>565.0</ele><time>2026-05-02T11:54:38.177Z</time></trkpt><trkpt lat="43.447727" lon="12.6730827"><ele>560.25</ele><time>2026-05-02T11:54:39.162Z</time></trkpt><trkpt lat="43.4476109" lon="12.6731778"><ele>555.5</ele><time>2026-05-02T11:54:40.16Z</time></trkpt><trkpt lat="43.4475088" lon="12.6732734"><ele>550.75</ele><time>2026-05-02T11:54:41.163Z</time></trkpt><trkpt lat="43.4474374" lon="12.6733847"><ele>546.0</ele><time>2026-05-02T11:54:42.161Z</time></trkpt><trkpt lat="43.447384" lon="12.6734771"><ele>546.0</ele><time>2026-05-02T11:54:43.158Z</time></trkpt><trkpt lat="43.447328" lon="12.6735368"><ele>546.0</ele><time>2026-05-02T11:54:44.17Z</time></trkpt><trkpt lat="43.4472652" lon="12.6735547"><ele>546.0</ele><time>2026-05-02T11:54:45.175Z</time></trkpt><trkpt lat="43.44722" lon="12.673412"><ele>546.0</ele><time>2026-05-02T11:54:47.161Z</time></trkpt><trkpt lat="43.4472508" lon="12.6732915"><ele>546.0</ele><time>2026-05-02T11:54:48.16Z</time></trkpt><trkpt lat="43.4473134" lon="12.6731711"><ele>546.0</ele><time>2026-05-02T11:54:49.173Z</time></trkpt><trkpt lat="43.4473899" lon="12.6730355"><ele>546.0</ele><time>2026-05-02T11:54:50.168Z</time></trkpt><trkpt lat="43.4474788" lon="12.6728961"><ele>546.0</ele><time>2026-05-02T11:54:51.183Z</time></trkpt><trkpt lat="43.447587" lon="12.6727466"><ele>546.0</ele><time>2026-05-02T11:54:52.176Z</time></trkpt><trkpt lat="43.4477118" lon="12.6726139"><ele>546.0</ele><time>2026-05-02T11:54:53.156Z</time></trkpt><trkpt lat="43.4478345" lon="12.6724836"><ele>547.0</ele><time>2026-05-02T11:54:54.195Z</time></trkpt><trkpt lat="43.4479604" lon="12.6723526"><ele>548.0</ele><time>2026-05-02T11:54:55.177Z</time></trkpt><trkpt lat="43.448078" lon="12.6722336"><ele>549.0</ele><time>2026-05-02T11:54:56.187Z</time></trkpt><trkpt lat="43.448183" lon="12.6721065"><ele>550.0</ele><time>2026-05-02T11:54:57.183Z</time></trkpt><trkpt lat="43.4482764" lon="12.6719464"><ele>544.0</ele><time>2026-05-02T11:54:58.191Z</time></trkpt><trkpt lat="43.4483418" lon="12.6717534"><ele>538.0</ele><time>2026-05-02T11:54:59.191Z</time></trkpt><trkpt lat="43.4483949" lon="12.6715477"><ele>532.0</ele><time>2026-05-02T11:55:00.18Z</time></trkpt><trkpt lat="43.4484436" lon="12.6713491"><ele>532.0</ele><time>2026-05-02T11:55:01.168Z</time></trkpt><trkpt lat="43.4485093" lon="12.6711586"><ele>532.0</ele><time>2026-05-02T11:55:02.183Z</time></trkpt><trkpt lat="43.4485873" lon="12.6709731"><ele>532.0</ele><time>2026-05-02T11:55:03.189Z</time></trkpt><trkpt lat="43.44867" lon="12.670797"><ele>531.5</ele><time>2026-05-02T11:55:04.161Z</time></trkpt><trkpt lat="43.4487503" lon="12.6706245"><ele>531.0</ele><time>2026-05-02T11:55:05.187Z</time></trkpt><trkpt lat="43.4488252" lon="12.6704531"><ele>530.5</ele><time>2026-05-02T11:55:06.181Z</time></trkpt><trkpt lat="43.4488928" lon="12.6702775"><ele>530.0</ele><time>2026-05-02T11:55:07.188Z</time></trkpt><trkpt lat="43.448956" lon="12.6700985"><ele>530.0</ele><time>2026-05-02T11:55:08.182Z</time></trkpt><trkpt lat="43.4490103" lon="12.6699154"><ele>530.0</ele><time>2026-05-02T11:55:09.183Z</time></trkpt><trkpt lat="43.4490665" lon="12.6697245"><ele>530.0</ele><time>2026-05-02T11:55:10.182Z</time></trkpt><trkpt lat="43.4491226" lon="12.6695243"><ele>530.0</ele><time>2026-05-02T11:55:11.181Z</time></trkpt><trkpt lat="43.4491711" lon="12.6693276"><ele>526.5</ele><time>2026-05-02T11:55:12.186Z</time></trkpt><trkpt lat="43.4492222" lon="12.6691419"><ele>523.0</ele><time>2026-05-02T11:55:13.187Z</time></trkpt><trkpt lat="43.4492831" lon="12.6689651"><ele>519.5</ele><time>2026-05-02T11:55:14.186Z</time></trkpt><trkpt lat="43.4493522" lon="12.6687968"><ele>516.0</ele><time>2026-05-02T11:55:15.191Z</time></trkpt><trkpt lat="43.4494157" lon="12.668621"><ele>513.75</ele><time>2026-05-02T11:55:16.185Z</time></trkpt><trkpt lat="43.449468" lon="12.6684395"><ele>511.5</ele><time>2026-05-02T11:55:17.192Z</time></trkpt><trkpt lat="43.4495011" lon="12.6682517"><ele>509.25</ele><time>2026-05-02T11:55:18.195Z</time></trkpt><trkpt lat="43.4495152" lon="12.6680493"><ele>507.0</ele><time>2026-05-02T11:55:19.184Z</time></trkpt><trkpt lat="43.4495378" lon="12.6678512"><ele>508.5</ele><time>2026-05-02T11:55:20.195Z</time></trkpt><trkpt lat="43.4495806" lon="12.6676595"><ele>510.0</ele><time>2026-05-02T11:55:21.189Z</time></trkpt><trkpt lat="43.4496567" lon="12.6674996"><ele>511.5</ele><time>2026-05-02T11:55:22.189Z</time></trkpt><trkpt lat="43.4497321" lon="12.6673296"><ele>513.0</ele><time>2026-05-02T11:55:23.183Z</time></trkpt><trkpt lat="43.4498002" lon="12.6671619"><ele>513.0</ele><time>2026-05-02T11:55:24.178Z</time></trkpt><trkpt lat="43.449861" lon="12.6669969"><ele>513.0</ele><time>2026-05-02T11:55:25.175Z</time></trkpt><trkpt lat="43.4499269" lon="12.6668196"><ele>513.0</ele><time>2026-05-02T11:55:26.176Z</time></trkpt><trkpt lat="43.4499869" lon="12.6666379"><ele>513.0</ele><time>2026-05-02T11:55:27.189Z</time></trkpt><trkpt lat="43.4500511" lon="12.6664526"><ele>510.25</ele><time>2026-05-02T11:55:28.173Z</time></trkpt><trkpt lat="43.4501126" lon="12.6662698"><ele>507.5</ele><time>2026-05-02T11:55:29.18Z</time></trkpt><trkpt lat="43.4501734" lon="12.6660978"><ele>504.75</ele><time>2026-05-02T11:55:30.177Z</time></trkpt><trkpt lat="43.4502358" lon="12.6659262"><ele>502.0</ele><time>2026-05-02T11:55:31.182Z</time></trkpt><trkpt lat="43.4502868" lon="12.6657728"><ele>500.5</ele><time>2026-05-02T11:55:32.194Z</time></trkpt><trkpt lat="43.4503448" lon="12.6656231"><ele>499.0</ele><time>2026-05-02T11:55:33.176Z</time></trkpt><trkpt lat="43.4504086" lon="12.6654917"><ele>497.5</ele><time>2026-05-02T11:55:34.189Z</time></trkpt><trkpt lat="43.450495" lon="12.6653795"><ele>496.0</ele><time>2026-05-02T11:55:35.198Z</time></trkpt><trkpt lat="43.4506145" lon="12.6652739"><ele>494.5</ele><time>2026-05-02T11:55:36.194Z</time></trkpt><trkpt lat="43.45073" lon="12.665157"><ele>493.0</ele><time>2026-05-02T11:55:37.2Z</time></trkpt><trkpt lat="43.4508434" lon="12.6650223"><ele>491.5</ele><time>2026-05-02T11:55:38.184Z</time></trkpt><trkpt lat="43.4509462" lon="12.6648855"><ele>490.0</ele><time>2026-05-02T11:55:39.179Z</time></trkpt><trkpt lat="43.4510432" lon="12.6647461"><ele>490.0</ele><time>2026-05-02T11:55:40.188Z</time></trkpt><trkpt lat="43.4511393" lon="12.6646016"><ele>490.0</ele><time>2026-05-02T11:55:41.182Z</time></trkpt><trkpt lat="43.4512317" lon="12.6644612"><ele>490.0</ele><time>2026-05-02T11:55:42.171Z</time></trkpt><trkpt lat="43.4513268" lon="12.6643272"><ele>490.0</ele><time>2026-05-02T11:55:43.184Z</time></trkpt><trkpt lat="43.4514147" lon="12.6641841"><ele>489.25</ele><time>2026-05-02T11:55:44.176Z</time></trkpt><trkpt lat="43.4515032" lon="12.6640427"><ele>488.5</ele><time>2026-05-02T11:55:45.165Z</time></trkpt><trkpt lat="43.4515853" lon="12.6638979"><ele>487.75</ele><time>2026-05-02T11:55:46.188Z</time></trkpt><trkpt lat="43.4516661" lon="12.6637707"><ele>487.0</ele><time>2026-05-02T11:55:47.179Z</time></trkpt><trkpt lat="43.4517458" lon="12.6636412"><ele>486.5</ele><time>2026-05-02T11:55:48.182Z</time></trkpt><trkpt lat="43.4518181" lon="12.6635059"><ele>486.0</ele><time>2026-05-02T11:55:49.18Z</time></trkpt><trkpt lat="43.4518817" lon="12.6633688"><ele>485.5</ele><time>2026-05-02T11:55:50.18Z</time></trkpt><trkpt lat="43.451933" lon="12.6632305"><ele>485.0</ele><time>2026-05-02T11:55:51.181Z</time></trkpt><trkpt lat="43.4519772" lon="12.6630911"><ele>485.0</ele><time>2026-05-02T11:55:52.182Z</time></trkpt><trkpt lat="43.4520171" lon="12.6629564"><ele>485.0</ele><time>2026-05-02T11:55:53.172Z</time></trkpt><trkpt lat="43.4520502" lon="12.66284"><ele>485.0</ele><time>2026-05-02T11:55:54.178Z</time></trkpt><trkpt lat="43.4520719" lon="12.6627396"><ele>485.0</ele><time>2026-05-02T11:55:55.163Z</time></trkpt><trkpt lat="43.4521659" lon="12.662644"><ele>485.0</ele><time>2026-05-02T11:55:57.189Z</time></trkpt><trkpt lat="43.4522574" lon="12.6626744"><ele>484.8</ele><time>2026-05-02T11:55:58.175Z</time></trkpt><trkpt lat="43.45234" lon="12.6627149"><ele>484.6</ele><time>2026-05-02T11:55:59.174Z</time></trkpt><trkpt lat="43.4524463" lon="12.6627697"><ele>484.4</ele><time>2026-05-02T11:56:00.186Z</time></trkpt><trkpt lat="43.4525399" lon="12.6627901"><ele>484.2</ele><time>2026-05-02T11:56:01.185Z</time></trkpt><trkpt lat="43.452627" lon="12.6628001"><ele>484.0</ele><time>2026-05-02T11:56:02.196Z</time></trkpt><trkpt lat="43.4527" lon="12.6627675"><ele>483.5</ele><time>2026-05-02T11:56:03.185Z</time></trkpt><trkpt lat="43.4527711" lon="12.6626801"><ele>483.0</ele><time>2026-05-02T11:56:04.19Z</time></trkpt><trkpt lat="43.4528387" lon="12.6625357"><ele>482.5</ele><time>2026-05-02T11:56:05.193Z</time></trkpt><trkpt lat="43.4529013" lon="12.6623702"><ele>482.0</ele><time>2026-05-02T11:56:06.185Z</time></trkpt><trkpt lat="43.4529473" lon="12.6622074"><ele>481.5</ele><time>2026-05-02T11:56:07.182Z</time></trkpt><trkpt lat="43.4530005" lon="12.6620591"><ele>481.0</ele><time>2026-05-02T11:56:08.179Z</time></trkpt><trkpt lat="43.4530458" lon="12.6619148"><ele>480.5</ele><time>2026-05-02T11:56:09.18Z</time></trkpt><trkpt lat="43.4530944" lon="12.6617737"><ele>480.0</ele><time>2026-05-02T11:56:10.183Z</time></trkpt><trkpt lat="43.4531478" lon="12.6616366"><ele>478.5</ele><time>2026-05-02T11:56:11.196Z</time></trkpt><trkpt lat="43.4532049" lon="12.6615061"><ele>477.0</ele><time>2026-05-02T11:56:12.182Z</time></trkpt><trkpt lat="43.453267" lon="12.6613705"><ele>475.5</ele><time>2026-05-02T11:56:13.179Z</time></trkpt><trkpt lat="43.4533385" lon="12.6612341"><ele>474.0</ele><time>2026-05-02T11:56:14.195Z</time></trkpt><trkpt lat="43.4534129" lon="12.6611001"><ele>473.75</ele><time>2026-05-02T11:56:15.189Z</time></trkpt><trkpt lat="43.4534899" lon="12.6609721"><ele>473.5</ele><time>2026-05-02T11:56:16.183Z</time></trkpt><trkpt lat="43.4535713" lon="12.6608429"><ele>473.25</ele><time>2026-05-02T11:56:17.182Z</time></trkpt><trkpt lat="43.4536473" lon="12.6607115"><ele>473.0</ele><time>2026-05-02T11:56:18.187Z</time></trkpt><trkpt lat="43.4537209" lon="12.6605915"><ele>473.5</ele><time>2026-05-02T11:56:19.186Z</time></trkpt><trkpt lat="43.4537993" lon="12.6604745"><ele>474.0</ele><time>2026-05-02T11:56:20.184Z</time></trkpt><trkpt lat="43.4538781" lon="12.6603507"><ele>474.5</ele><time>2026-05-02T11:56:21.191Z</time></trkpt><trkpt lat="43.4539596" lon="12.6602102"><ele>475.0</ele><time>2026-05-02T11:56:22.191Z</time></trkpt><trkpt lat="43.4540394" lon="12.6600666"><ele>473.0</ele><time>2026-05-02T11:56:23.176Z</time></trkpt><trkpt lat="43.4541331" lon="12.659909"><ele>471.0</ele><time>2026-05-02T11:56:24.173Z</time></trkpt><trkpt lat="43.4542201" lon="12.6597441"><ele>469.0</ele><time>2026-05-02T11:56:25.174Z</time></trkpt><trkpt lat="43.4543057" lon="12.659561"><ele>467.33333333333337</ele><time>2026-05-02T11:56:26.184Z</time></trkpt><trkpt lat="43.4543882" lon="12.6593674"><ele>465.66666666666663</ele><time>2026-05-02T11:56:27.181Z</time></trkpt><trkpt lat="43.4544686" lon="12.659171"><ele>464.0</ele><time>2026-05-02T11:56:28.189Z</time></trkpt><trkpt lat="43.4545479" lon="12.6589856"><ele>464.66666666666663</ele><time>2026-05-02T11:56:29.195Z</time></trkpt><trkpt lat="43.4546274" lon="12.6588026"><ele>465.33333333333337</ele><time>2026-05-02T11:56:30.193Z</time></trkpt><trkpt lat="43.4547108" lon="12.6586188"><ele>466.0</ele><time>2026-05-02T11:56:31.191Z</time></trkpt><trkpt lat="43.4547941" lon="12.6584287"><ele>464.0</ele><time>2026-05-02T11:56:32.2Z</time></trkpt><trkpt lat="43.4548912" lon="12.6582589"><ele>462.0</ele><time>2026-05-02T11:56:33.184Z</time></trkpt><trkpt lat="43.4550082" lon="12.6581146"><ele>460.0</ele><time>2026-05-02T11:56:34.18Z</time></trkpt><trkpt lat="43.4551283" lon="12.6579899"><ele>460.0</ele><time>2026-05-02T11:56:35.19Z</time></trkpt><trkpt lat="43.4552631" lon="12.6578705"><ele>460.0</ele><time>2026-05-02T11:56:36.171Z</time></trkpt><trkpt lat="43.4554106" lon="12.6577771"><ele>460.0</ele><time>2026-05-02T11:56:37.18Z</time></trkpt><trkpt lat="43.4555593" lon="12.6576888"><ele>459.33333333333337</ele><time>2026-05-02T11:56:38.197Z</time></trkpt><trkpt lat="43.4557113" lon="12.6576068"><ele>458.66666666666663</ele><time>2026-05-02T11:56:39.185Z</time></trkpt><trkpt lat="43.4558613" lon="12.6575044"><ele>458.0</ele><time>2026-05-02T11:56:40.19Z</time></trkpt><trkpt lat="43.4560025" lon="12.6573817"><ele>458.0</ele><time>2026-05-02T11:56:41.183Z</time></trkpt><trkpt lat="43.4561381" lon="12.6572666"><ele>458.0</ele><time>2026-05-02T11:56:42.178Z</time></trkpt><trkpt lat="43.4562594" lon="12.6571469"><ele>458.0</ele><time>2026-05-02T11:56:43.16Z</time></trkpt><trkpt lat="43.4563631" lon="12.6570319"><ele>458.0</ele><time>2026-05-02T11:56:44.177Z</time></trkpt><trkpt lat="43.4564498" lon="12.6568879"><ele>459.66666666666663</ele><time>2026-05-02T11:56:45.177Z</time></trkpt><trkpt lat="43.4565214" lon="12.656729"><ele>461.33333333333337</ele><time>2026-05-02T11:56:46.16Z</time></trkpt><trkpt lat="43.4565805" lon="12.6565319"><ele>463.0</ele><time>2026-05-02T11:56:47.167Z</time></trkpt><trkpt lat="43.4566385" lon="12.6563278"><ele>463.0</ele><time>2026-05-02T11:56:48.158Z</time></trkpt><trkpt lat="43.4567016" lon="12.6561242"><ele>463.0</ele><time>2026-05-02T11:56:49.162Z</time></trkpt><trkpt lat="43.4567721" lon="12.6559344"><ele>463.0</ele><time>2026-05-02T11:56:50.161Z</time></trkpt><trkpt lat="43.4568474" lon="12.6557459"><ele>461.5</ele><time>2026-05-02T11:56:51.159Z</time></trkpt><trkpt lat="43.456921" lon="12.6555737"><ele>460.0</ele><time>2026-05-02T11:56:52.167Z</time></trkpt><trkpt lat="43.4569942" lon="12.6554056"><ele>458.5</ele><time>2026-05-02T11:56:53.179Z</time></trkpt><trkpt lat="43.4570678" lon="12.6552368"><ele>457.0</ele><time>2026-05-02T11:56:54.161Z</time></trkpt><trkpt lat="43.4571377" lon="12.655074"><ele>457.0</ele><time>2026-05-02T11:56:55.165Z</time></trkpt><trkpt lat="43.4572122" lon="12.6549222"><ele>457.0</ele><time>2026-05-02T11:56:56.168Z</time></trkpt><trkpt lat="43.4572957" lon="12.6547853"><ele>457.0</ele><time>2026-05-02T11:56:57.177Z</time></trkpt><trkpt lat="43.4573887" lon="12.6546599"><ele>457.0</ele><time>2026-05-02T11:56:58.16Z</time></trkpt><trkpt lat="43.4574909" lon="12.654555"><ele>455.0</ele><time>2026-05-02T11:56:59.171Z</time></trkpt><trkpt lat="43.4575874" lon="12.6544418"><ele>453.0</ele><time>2026-05-02T11:57:00.193Z</time></trkpt><trkpt lat="43.4576926" lon="12.6543207"><ele>451.0</ele><time>2026-05-02T11:57:01.19Z</time></trkpt><trkpt lat="43.4578032" lon="12.6541927"><ele>449.0</ele><time>2026-05-02T11:57:02.164Z</time></trkpt><trkpt lat="43.4579121" lon="12.6540396"><ele>448.3333333333333</ele><time>2026-05-02T11:57:03.179Z</time></trkpt><trkpt lat="43.4580009" lon="12.6538416"><ele>447.66666666666663</ele><time>2026-05-02T11:57:04.185Z</time></trkpt><trkpt lat="43.4580833" lon="12.6536322"><ele>447.0</ele><time>2026-05-02T11:57:05.16Z</time></trkpt><trkpt lat="43.4581633" lon="12.6534131"><ele>447.0</ele><time>2026-05-02T11:57:06.179Z</time></trkpt><trkpt lat="43.4582336" lon="12.6531817"><ele>447.0</ele><time>2026-05-02T11:57:07.186Z</time></trkpt><trkpt lat="43.4583052" lon="12.6529316"><ele>447.0</ele><time>2026-05-02T11:57:08.191Z</time></trkpt><trkpt lat="43.458378" lon="12.652666"><ele>446.0</ele><time>2026-05-02T11:57:09.192Z</time></trkpt><trkpt lat="43.4584502" lon="12.6524092"><ele>445.0</ele><time>2026-05-02T11:57:10.184Z</time></trkpt><trkpt lat="43.4585179" lon="12.6521731"><ele>444.0</ele><time>2026-05-02T11:57:11.194Z</time></trkpt><trkpt lat="43.4585839" lon="12.6519424"><ele>442.66666666666663</ele><time>2026-05-02T11:57:12.194Z</time></trkpt><trkpt lat="43.4586467" lon="12.6517108"><ele>441.3333333333333</ele><time>2026-05-02T11:57:13.195Z</time></trkpt><trkpt lat="43.4587055" lon="12.6514941"><ele>440.0</ele><time>2026-05-02T11:57:14.195Z</time></trkpt><trkpt lat="43.4587622" lon="12.6512928"><ele>441.0</ele><time>2026-05-02T11:57:15.195Z</time></trkpt><trkpt lat="43.4588191" lon="12.6511088"><ele>442.0</ele><time>2026-05-02T11:57:16.181Z</time></trkpt><trkpt lat="43.4588757" lon="12.6509317"><ele>443.0</ele><time>2026-05-02T11:57:17.175Z</time></trkpt><trkpt lat="43.4589307" lon="12.6507632"><ele>444.0</ele><time>2026-05-02T11:57:18.188Z</time></trkpt><trkpt lat="43.4589918" lon="12.6505991"><ele>444.0</ele><time>2026-05-02T11:57:19.188Z</time></trkpt><trkpt lat="43.4590495" lon="12.6504444"><ele>444.0</ele><time>2026-05-02T11:57:20.193Z</time></trkpt><trkpt lat="43.459108" lon="12.6502964"><ele>444.0</ele><time>2026-05-02T11:57:21.19Z</time></trkpt><trkpt lat="43.4591816" lon="12.6501276"><ele>444.0</ele><time>2026-05-02T11:57:22.203Z</time></trkpt><trkpt lat="43.4592725" lon="12.6499451"><ele>442.0</ele><time>2026-05-02T11:57:23.202Z</time></trkpt><trkpt lat="43.4593679" lon="12.6497595"><ele>440.0</ele><time>2026-05-02T11:57:24.198Z</time></trkpt><trkpt lat="43.4594623" lon="12.6495648"><ele>438.0</ele><time>2026-05-02T11:57:25.181Z</time></trkpt><trkpt lat="43.459569" lon="12.6493475"><ele>438.66666666666663</ele><time>2026-05-02T11:57:26.185Z</time></trkpt><trkpt lat="43.4596839" lon="12.6491098"><ele>439.3333333333333</ele><time>2026-05-02T11:57:27.195Z</time></trkpt><trkpt lat="43.4598012" lon="12.6488792"><ele>440.0</ele><time>2026-05-02T11:57:28.196Z</time></trkpt><trkpt lat="43.4599149" lon="12.6486541"><ele>438.3333333333333</ele><time>2026-05-02T11:57:29.185Z</time></trkpt><trkpt lat="43.4600249" lon="12.648425"><ele>436.66666666666663</ele><time>2026-05-02T11:57:30.206Z</time></trkpt><trkpt lat="43.4601145" lon="12.6481979"><ele>435.0</ele><time>2026-05-02T11:57:31.16Z</time></trkpt><trkpt lat="43.460182" lon="12.6479492"><ele>432.33333333333337</ele><time>2026-05-02T11:57:32.159Z</time></trkpt><trkpt lat="43.4602544" lon="12.6476943"><ele>429.6666666666667</ele><time>2026-05-02T11:57:33.183Z</time></trkpt><trkpt lat="43.4603357" lon="12.6474636"><ele>427.0</ele><time>2026-05-02T11:57:34.171Z</time></trkpt><trkpt lat="43.4604313" lon="12.6472553"><ele>427.6666666666667</ele><time>2026-05-02T11:57:35.164Z</time></trkpt><trkpt lat="43.4605268" lon="12.6470726"><ele>428.33333333333337</ele><time>2026-05-02T11:57:36.162Z</time></trkpt><trkpt lat="43.4606281" lon="12.6469044"><ele>429.0</ele><time>2026-05-02T11:57:37.166Z</time></trkpt><trkpt lat="43.4607364" lon="12.6467465"><ele>429.0</ele><time>2026-05-02T11:57:38.17Z</time></trkpt><trkpt lat="43.4608667" lon="12.6466245"><ele>429.0</ele><time>2026-05-02T11:57:39.165Z</time></trkpt><trkpt lat="43.4610201" lon="12.6465316"><ele>429.0</ele><time>2026-05-02T11:57:40.17Z</time></trkpt><trkpt lat="43.4611785" lon="12.6464398"><ele>429.33333333333337</ele><time>2026-05-02T11:57:41.179Z</time></trkpt><trkpt lat="43.4613246" lon="12.6463395"><ele>429.6666666666667</ele><time>2026-05-02T11:57:42.162Z</time></trkpt><trkpt lat="43.4614492" lon="12.6462032"><ele>430.0</ele><time>2026-05-02T11:57:43.163Z</time></trkpt><trkpt lat="43.4615419" lon="12.646007"><ele>430.0</ele><time>2026-05-02T11:57:44.186Z</time></trkpt><trkpt lat="43.4616073" lon="12.6457823"><ele>430.0</ele><time>2026-05-02T11:57:45.173Z</time></trkpt><trkpt lat="43.461657" lon="12.6455434"><ele>430.0</ele><time>2026-05-02T11:57:46.167Z</time></trkpt><trkpt lat="43.4617082" lon="12.6453359"><ele>429.0</ele><time>2026-05-02T11:57:47.161Z</time></trkpt><trkpt lat="43.4617737" lon="12.6451611"><ele>428.0</ele><time>2026-05-02T11:57:48.164Z</time></trkpt><trkpt lat="43.4618657" lon="12.6450204"><ele>427.0</ele><time>2026-05-02T11:57:49.184Z</time></trkpt><trkpt lat="43.4619949" lon="12.644908"><ele>426.0</ele><time>2026-05-02T11:57:50.165Z</time></trkpt><trkpt lat="43.4621521" lon="12.6447954"><ele>426.0</ele><time>2026-05-02T11:57:51.173Z</time></trkpt><trkpt lat="43.4623168" lon="12.6446721"><ele>426.0</ele><time>2026-05-02T11:57:52.18Z</time></trkpt><trkpt lat="43.4624868" lon="12.6445489"><ele>426.0</ele><time>2026-05-02T11:57:53.182Z</time></trkpt><trkpt lat="43.4626648" lon="12.6444432"><ele>424.0</ele><time>2026-05-02T11:57:54.185Z</time></trkpt><trkpt lat="43.4628458" lon="12.6443416"><ele>422.0</ele><time>2026-05-02T11:57:55.178Z</time></trkpt><trkpt lat="43.4630185" lon="12.6442299"><ele>420.0</ele><time>2026-05-02T11:57:56.177Z</time></trkpt><trkpt lat="43.4631879" lon="12.6441163"><ele>420.0</ele><time>2026-05-02T11:57:57.18Z</time></trkpt><trkpt lat="43.4633399" lon="12.6439775"><ele>420.0</ele><time>2026-05-02T11:57:58.171Z</time></trkpt><trkpt lat="43.4634859" lon="12.643831"><ele>420.0</ele><time>2026-05-02T11:57:59.171Z</time></trkpt><trkpt lat="43.463629" lon="12.64368"><ele>418.33333333333337</ele><time>2026-05-02T11:58:00.178Z</time></trkpt><trkpt lat="43.4637735" lon="12.643531"><ele>416.6666666666667</ele><time>2026-05-02T11:58:01.176Z</time></trkpt><trkpt lat="43.4639117" lon="12.6433793"><ele>415.0</ele><time>2026-05-02T11:58:02.183Z</time></trkpt><trkpt lat="43.4640705" lon="12.64325"><ele>415.0</ele><time>2026-05-02T11:58:03.159Z</time></trkpt><trkpt lat="43.4642335" lon="12.643129"><ele>415.0</ele><time>2026-05-02T11:58:04.175Z</time></trkpt><trkpt lat="43.464401" lon="12.6430194"><ele>415.0</ele><time>2026-05-02T11:58:05.185Z</time></trkpt><trkpt lat="43.4645719" lon="12.6429163"><ele>413.33333333333337</ele><time>2026-05-02T11:58:06.16Z</time></trkpt><trkpt lat="43.4647438" lon="12.6428064"><ele>411.66666666666663</ele><time>2026-05-02T11:58:07.182Z</time></trkpt><trkpt lat="43.4649139" lon="12.642695"><ele>410.0</ele><time>2026-05-02T11:58:08.165Z</time></trkpt><trkpt lat="43.4650816" lon="12.6425813"><ele>410.0</ele><time>2026-05-02T11:58:09.176Z</time></trkpt><trkpt lat="43.4652483" lon="12.642472"><ele>410.0</ele><time>2026-05-02T11:58:10.174Z</time></trkpt><trkpt lat="43.4654055" lon="12.6423635"><ele>410.0</ele><time>2026-05-02T11:58:11.166Z</time></trkpt><trkpt lat="43.465559" lon="12.6422676"><ele>410.3333333333333</ele><time>2026-05-02T11:58:12.179Z</time></trkpt><trkpt lat="43.4657164" lon="12.6421815"><ele>410.66666666666663</ele><time>2026-05-02T11:58:13.183Z</time></trkpt><trkpt lat="43.4658749" lon="12.6421189"><ele>411.0</ele><time>2026-05-02T11:58:14.149Z</time></trkpt><trkpt lat="43.4660374" lon="12.6420822"><ele>411.0</ele><time>2026-05-02T11:58:15.182Z</time></trkpt><trkpt lat="43.4662012" lon="12.6420479"><ele>411.0</ele><time>2026-05-02T11:58:16.182Z</time></trkpt><trkpt lat="43.4663613" lon="12.6419712"><ele>411.0</ele><time>2026-05-02T11:58:17.166Z</time></trkpt><trkpt lat="43.4665168" lon="12.6418739"><ele>408.0</ele><time>2026-05-02T11:58:18.157Z</time></trkpt><trkpt lat="43.4666612" lon="12.6417481"><ele>405.0</ele><time>2026-05-02T11:58:19.174Z</time></trkpt><trkpt lat="43.4667971" lon="12.6415524"><ele>402.0</ele><time>2026-05-02T11:58:20.188Z</time></trkpt><trkpt lat="43.4669237" lon="12.6413052"><ele>401.33333333333337</ele><time>2026-05-02T11:58:21.164Z</time></trkpt><trkpt lat="43.4670395" lon="12.6410777"><ele>400.6666666666667</ele><time>2026-05-02T11:58:22.167Z</time></trkpt><trkpt lat="43.4671465" lon="12.6408356"><ele>400.0</ele><time>2026-05-02T11:58:23.177Z</time></trkpt><trkpt lat="43.4672534" lon="12.6405996"><ele>400.0</ele><time>2026-05-02T11:58:24.162Z</time></trkpt><trkpt lat="43.467354" lon="12.640366"><ele>400.0</ele><time>2026-05-02T11:58:25.174Z</time></trkpt><trkpt lat="43.467454" lon="12.640136"><ele>400.0</ele><time>2026-05-02T11:58:26.19Z</time></trkpt><trkpt lat="43.4675526" lon="12.639909"><ele>398.0</ele><time>2026-05-02T11:58:27.184Z</time></trkpt><trkpt lat="43.467651" lon="12.6396864"><ele>396.0</ele><time>2026-05-02T11:58:28.189Z</time></trkpt><trkpt lat="43.4677453" lon="12.6394619"><ele>394.0</ele><time>2026-05-02T11:58:29.188Z</time></trkpt><trkpt lat="43.4678383" lon="12.6392334"><ele>393.0</ele><time>2026-05-02T11:58:30.201Z</time></trkpt><trkpt lat="43.4679352" lon="12.6390088"><ele>392.0</ele><time>2026-05-02T11:58:31.165Z</time></trkpt><trkpt lat="43.4680293" lon="12.6387894"><ele>391.0</ele><time>2026-05-02T11:58:32.178Z</time></trkpt><trkpt lat="43.4681175" lon="12.6385756"><ele>390.0</ele><time>2026-05-02T11:58:33.185Z</time></trkpt><trkpt lat="43.4682046" lon="12.6383584"><ele>389.0</ele><time>2026-05-02T11:58:34.201Z</time></trkpt><trkpt lat="43.4682951" lon="12.6381481"><ele>388.0</ele><time>2026-05-02T11:58:35.154Z</time></trkpt><trkpt lat="43.4683809" lon="12.637936"><ele>387.33333333333337</ele><time>2026-05-02T11:58:36.178Z</time></trkpt><trkpt lat="43.4684695" lon="12.6377259"><ele>386.66666666666663</ele><time>2026-05-02T11:58:37.182Z</time></trkpt><trkpt lat="43.4685514" lon="12.6375226"><ele>386.0</ele><time>2026-05-02T11:58:38.193Z</time></trkpt><trkpt lat="43.4686283" lon="12.6373193"><ele>386.0</ele><time>2026-05-02T11:58:39.199Z</time></trkpt><trkpt lat="43.4687024" lon="12.6371174"><ele>386.0</ele><time>2026-05-02T11:58:40.173Z</time></trkpt><trkpt lat="43.4687816" lon="12.6369132"><ele>386.0</ele><time>2026-05-02T11:58:41.173Z</time></trkpt><trkpt lat="43.4688608" lon="12.6367019"><ele>387.0</ele><time>2026-05-02T11:58:42.161Z</time></trkpt><trkpt lat="43.4689402" lon="12.6365001"><ele>388.0</ele><time>2026-05-02T11:58:43.183Z</time></trkpt><trkpt lat="43.469033" lon="12.6363063"><ele>389.0</ele><time>2026-05-02T11:58:44.188Z</time></trkpt><trkpt lat="43.4691306" lon="12.6361222"><ele>387.0</ele><time>2026-05-02T11:58:45.172Z</time></trkpt><trkpt lat="43.4692242" lon="12.6359408"><ele>385.0</ele><time>2026-05-02T11:58:46.19Z</time></trkpt><trkpt lat="43.469314" lon="12.6357445"><ele>383.0</ele><time>2026-05-02T11:58:47.185Z</time></trkpt><trkpt lat="43.4693941" lon="12.635549"><ele>383.0</ele><time>2026-05-02T11:58:48.188Z</time></trkpt><trkpt lat="43.4694685" lon="12.6353501"><ele>383.0</ele><time>2026-05-02T11:58:49.194Z</time></trkpt><trkpt lat="43.4695295" lon="12.6351403"><ele>383.0</ele><time>2026-05-02T11:58:50.179Z</time></trkpt><trkpt lat="43.4695686" lon="12.6349025"><ele>381.33333333333337</ele><time>2026-05-02T11:58:51.182Z</time></trkpt><trkpt lat="43.4696033" lon="12.6346535"><ele>379.6666666666667</ele><time>2026-05-02T11:58:52.183Z</time></trkpt><trkpt lat="43.4696237" lon="12.6344107"><ele>378.0</ele><time>2026-05-02T11:58:53.18Z</time></trkpt><trkpt lat="43.4696405" lon="12.6341786"><ele>378.0</ele><time>2026-05-02T11:58:54.185Z</time></trkpt><trkpt lat="43.469657" lon="12.633956"><ele>378.0</ele><time>2026-05-02T11:58:55.191Z</time></trkpt><trkpt lat="43.4696789" lon="12.6337461"><ele>378.0</ele><time>2026-05-02T11:58:56.184Z</time></trkpt><trkpt lat="43.4697184" lon="12.6335472"><ele>378.0</ele><time>2026-05-02T11:58:57.189Z</time></trkpt><trkpt lat="43.4697817" lon="12.6333643"><ele>378.0</ele><time>2026-05-02T11:58:58.164Z</time></trkpt><trkpt lat="43.4698726" lon="12.6331858"><ele>378.0</ele><time>2026-05-02T11:58:59.174Z</time></trkpt><trkpt lat="43.4699783" lon="12.6330429"><ele>378.0</ele><time>2026-05-02T11:59:00.186Z</time></trkpt><trkpt lat="43.4700919" lon="12.6329341"><ele>378.0</ele><time>2026-05-02T11:59:01.181Z</time></trkpt><trkpt lat="43.4702107" lon="12.6328492"><ele>378.0</ele><time>2026-05-02T11:59:02.177Z</time></trkpt><trkpt lat="43.470319" lon="12.6327728"><ele>378.0</ele><time>2026-05-02T11:59:03.19Z</time></trkpt><trkpt lat="43.470432" lon="12.6327001"><ele>377.0</ele><time>2026-05-02T11:59:04.181Z</time></trkpt><trkpt lat="43.47054" lon="12.6326176"><ele>376.0</ele><time>2026-05-02T11:59:05.17Z</time></trkpt><trkpt lat="43.4706441" lon="12.6325385"><ele>375.0</ele><time>2026-05-02T11:59:06.179Z</time></trkpt><trkpt lat="43.4707503" lon="12.6324566"><ele>374.0</ele><time>2026-05-02T11:59:07.169Z</time></trkpt><trkpt lat="43.4708457" lon="12.6323701"><ele>374.0</ele><time>2026-05-02T11:59:08.19Z</time></trkpt><trkpt lat="43.4709399" lon="12.6322819"><ele>374.0</ele><time>2026-05-02T11:59:09.179Z</time></trkpt><trkpt lat="43.4710241" lon="12.6322039"><ele>374.0</ele><time>2026-05-02T11:59:10.198Z</time></trkpt><trkpt lat="43.4711121" lon="12.6321302"><ele>374.0</ele><time>2026-05-02T11:59:11.16Z</time></trkpt><trkpt lat="43.471197" lon="12.6320608"><ele>374.0</ele><time>2026-05-02T11:59:12.163Z</time></trkpt><trkpt lat="43.4712839" lon="12.6319866"><ele>373.79999999999995</ele><time>2026-05-02T11:59:13.153Z</time></trkpt><trkpt lat="43.4713725" lon="12.6319109"><ele>373.59999999999997</ele><time>2026-05-02T11:59:14.162Z</time></trkpt><trkpt lat="43.4714627" lon="12.6318423"><ele>373.4</ele><time>2026-05-02T11:59:15.187Z</time></trkpt><trkpt lat="43.4715595" lon="12.6317574"><ele>373.2</ele><time>2026-05-02T11:59:16.184Z</time></trkpt><trkpt lat="43.4716636" lon="12.6316745"><ele>373.0</ele><time>2026-05-02T11:59:17.172Z</time></trkpt><trkpt lat="43.4717638" lon="12.6315844"><ele>373.0</ele><time>2026-05-02T11:59:18.185Z</time></trkpt><trkpt lat="43.4718662" lon="12.6314904"><ele>373.0</ele><time>2026-05-02T11:59:19.201Z</time></trkpt><trkpt lat="43.4719689" lon="12.6313998"><ele>373.0</ele><time>2026-05-02T11:59:20.17Z</time></trkpt><trkpt lat="43.472072" lon="12.6313137"><ele>373.0</ele><time>2026-05-02T11:59:21.181Z</time></trkpt><trkpt lat="43.4721791" lon="12.6312288"><ele>373.5</ele><time>2026-05-02T11:59:22.196Z</time></trkpt><trkpt lat="43.4722831" lon="12.6311453"><ele>374.0</ele><time>2026-05-02T11:59:23.183Z</time></trkpt><trkpt lat="43.4723875" lon="12.6310614"><ele>374.5</ele><time>2026-05-02T11:59:24.196Z</time></trkpt><trkpt lat="43.4724855" lon="12.6309792"><ele>375.0</ele><time>2026-05-02T11:59:25.199Z</time></trkpt><trkpt lat="43.4725827" lon="12.6309051"><ele>375.0</ele><time>2026-05-02T11:59:26.191Z</time></trkpt><trkpt lat="43.472681" lon="12.6308317"><ele>375.0</ele><time>2026-05-02T11:59:27.182Z</time></trkpt><trkpt lat="43.4727734" lon="12.6307559"><ele>375.0</ele><time>2026-05-02T11:59:28.177Z</time></trkpt><trkpt lat="43.472869" lon="12.6306829"><ele>375.0</ele><time>2026-05-02T11:59:29.195Z</time></trkpt><trkpt lat="43.4729584" lon="12.6306131"><ele>375.0</ele><time>2026-05-02T11:59:30.185Z</time></trkpt><trkpt lat="43.4730461" lon="12.630538"><ele>375.0</ele><time>2026-05-02T11:59:31.191Z</time></trkpt><trkpt lat="43.4731463" lon="12.6304824"><ele>375.0</ele><time>2026-05-02T11:59:32.183Z</time></trkpt><trkpt lat="43.4732544" lon="12.63046"><ele>375.0</ele><time>2026-05-02T11:59:33.181Z</time></trkpt><trkpt lat="43.4733766" lon="12.630455"><ele>375.0</ele><time>2026-05-02T11:59:34.186Z</time></trkpt><trkpt lat="43.4735019" lon="12.6304845"><ele>375.0</ele><time>2026-05-02T11:59:35.195Z</time></trkpt><trkpt lat="43.4736378" lon="12.6305213"><ele>375.0</ele><time>2026-05-02T11:59:36.191Z</time></trkpt><trkpt lat="43.4737733" lon="12.6305654"><ele>375.0</ele><time>2026-05-02T11:59:37.199Z</time></trkpt><trkpt lat="43.4739066" lon="12.6306106"><ele>375.0</ele><time>2026-05-02T11:59:38.179Z</time></trkpt><trkpt lat="43.474032" lon="12.6306636"><ele>374.8</ele><time>2026-05-02T11:59:39.176Z</time></trkpt><trkpt lat="43.4741436" lon="12.6307072"><ele>374.6</ele><time>2026-05-02T11:59:40.192Z</time></trkpt><trkpt lat="43.4742441" lon="12.6307445"><ele>374.4</ele><time>2026-05-02T11:59:41.192Z</time></trkpt><trkpt lat="43.4743377" lon="12.6307504"><ele>374.2</ele><time>2026-05-02T11:59:42.187Z</time></trkpt><trkpt lat="43.4744292" lon="12.6307129"><ele>374.0</ele><time>2026-05-02T11:59:43.179Z</time></trkpt><trkpt lat="43.4745184" lon="12.6306301"><ele>374.0</ele><time>2026-05-02T11:59:44.197Z</time></trkpt><trkpt lat="43.4745683" lon="12.630511"><ele>374.0</ele><time>2026-05-02T11:59:45.197Z</time></trkpt><trkpt lat="43.4745841" lon="12.6303724"><ele>374.0</ele><time>2026-05-02T11:59:46.204Z</time></trkpt><trkpt lat="43.4745642" lon="12.6302177"><ele>374.0</ele><time>2026-05-02T11:59:47.176Z</time></trkpt><trkpt lat="43.4745222" lon="12.630059"><ele>374.0</ele><time>2026-05-02T11:59:48.179Z</time></trkpt><trkpt lat="43.4744856" lon="12.6299017"><ele>373.4</ele><time>2026-05-02T11:59:49.178Z</time></trkpt><trkpt lat="43.4744502" lon="12.6297485"><ele>372.79999999999995</ele><time>2026-05-02T11:59:50.193Z</time></trkpt><trkpt lat="43.4744224" lon="12.6296069"><ele>372.20000000000005</ele><time>2026-05-02T11:59:51.201Z</time></trkpt><trkpt lat="43.4743933" lon="12.6294625"><ele>371.6</ele><time>2026-05-02T11:59:52.196Z</time></trkpt><trkpt lat="43.4743602" lon="12.629321"><ele>371.0</ele><time>2026-05-02T11:59:53.191Z</time></trkpt><trkpt lat="43.4743275" lon="12.6291856"><ele>371.0</ele><time>2026-05-02T11:59:54.192Z</time></trkpt><trkpt lat="43.4742983" lon="12.6290547"><ele>371.0</ele><time>2026-05-02T11:59:55.195Z</time></trkpt><trkpt lat="43.4742728" lon="12.6289216"><ele>371.0</ele><time>2026-05-02T11:59:56.185Z</time></trkpt><trkpt lat="43.4742493" lon="12.6287893"><ele>371.0</ele><time>2026-05-02T11:59:57.192Z</time></trkpt><trkpt lat="43.4742265" lon="12.6286511"><ele>371.0</ele><time>2026-05-02T11:59:58.19Z</time></trkpt><trkpt lat="43.4742029" lon="12.6285276"><ele>370.33333333333337</ele><time>2026-05-02T11:59:59.195Z</time></trkpt><trkpt lat="43.4741933" lon="12.6284071"><ele>369.6666666666667</ele><time>2026-05-02T12:00:00.166Z</time></trkpt><trkpt lat="43.4741826" lon="12.6282797"><ele>369.0</ele><time>2026-05-02T12:00:01.158Z</time></trkpt><trkpt lat="43.4741856" lon="12.6281715"><ele>368.3333333333333</ele><time>2026-05-02T12:00:02.167Z</time></trkpt><trkpt lat="43.4742039" lon="12.6280557"><ele>367.66666666666663</ele><time>2026-05-02T12:00:03.158Z</time></trkpt><trkpt lat="43.4742357" lon="12.6279493"><ele>367.0</ele><time>2026-05-02T12:00:04.2Z</time></trkpt><trkpt lat="43.4742819" lon="12.6278384"><ele>366.8</ele><time>2026-05-02T12:00:05.177Z</time></trkpt><trkpt lat="43.4743477" lon="12.6277292"><ele>366.6</ele><time>2026-05-02T12:00:06.159Z</time></trkpt><trkpt lat="43.4744282" lon="12.6276244"><ele>366.40000000000003</ele><time>2026-05-02T12:00:07.161Z</time></trkpt><trkpt lat="43.4745214" lon="12.6275307"><ele>366.20000000000005</ele><time>2026-05-02T12:00:08.191Z</time></trkpt><trkpt lat="43.4746067" lon="12.6274412"><ele>366.0</ele><time>2026-05-02T12:00:09.188Z</time></trkpt><trkpt lat="43.4746868" lon="12.6273585"><ele>366.0</ele><time>2026-05-02T12:00:10.184Z</time></trkpt><trkpt lat="43.4747825" lon="12.6273145"><ele>366.0</ele><time>2026-05-02T12:00:11.167Z</time></trkpt><trkpt lat="43.4748921" lon="12.6272722"><ele>366.0</ele><time>2026-05-02T12:00:12.184Z</time></trkpt><trkpt lat="43.4750092" lon="12.6272627"><ele>366.0</ele><time>2026-05-02T12:00:13.193Z</time></trkpt><trkpt lat="43.4751203" lon="12.6272682"><ele>366.0</ele><time>2026-05-02T12:00:14.184Z</time></trkpt><trkpt lat="43.47523" lon="12.6272799"><ele>366.0</ele><time>2026-05-02T12:00:15.186Z</time></trkpt><trkpt lat="43.4753425" lon="12.6272868"><ele>366.0</ele><time>2026-05-02T12:00:16.187Z</time></trkpt><trkpt lat="43.4754534" lon="12.6272826"><ele>366.0</ele><time>2026-05-02T12:00:17.207Z</time></trkpt><trkpt lat="43.4755691" lon="12.6272819"><ele>366.0</ele><time>2026-05-02T12:00:18.198Z</time></trkpt><trkpt lat="43.4756804" lon="12.6272893"><ele>365.0</ele><time>2026-05-02T12:00:19.193Z</time></trkpt><trkpt lat="43.4757942" lon="12.6272973"><ele>364.0</ele><time>2026-05-02T12:00:20.16Z</time></trkpt><trkpt lat="43.4759289" lon="12.6273146"><ele>363.0</ele><time>2026-05-02T12:00:21.184Z</time></trkpt><trkpt lat="43.4760812" lon="12.6273244"><ele>362.0</ele><time>2026-05-02T12:00:22.198Z</time></trkpt><trkpt lat="43.4762459" lon="12.6273344"><ele>361.0</ele><time>2026-05-02T12:00:23.189Z</time></trkpt><trkpt lat="43.4764156" lon="12.6273494"><ele>360.0</ele><time>2026-05-02T12:00:24.205Z</time></trkpt><trkpt lat="43.4765858" lon="12.6273572"><ele>359.0</ele><time>2026-05-02T12:00:25.184Z</time></trkpt><trkpt lat="43.4767581" lon="12.6273683"><ele>359.0</ele><time>2026-05-02T12:00:26.185Z</time></trkpt><trkpt lat="43.4769278" lon="12.6273747"><ele>359.0</ele><time>2026-05-02T12:00:27.185Z</time></trkpt><trkpt lat="43.4770973" lon="12.6273722"><ele>359.0</ele><time>2026-05-02T12:00:28.199Z</time></trkpt><trkpt lat="43.4772684" lon="12.627368"><ele>358.0</ele><time>2026-05-02T12:00:29.191Z</time></trkpt><trkpt lat="43.4774384" lon="12.627359"><ele>357.0</ele><time>2026-05-02T12:00:30.183Z</time></trkpt><trkpt lat="43.4776066" lon="12.6273408"><ele>356.0</ele><time>2026-05-02T12:00:31.189Z</time></trkpt><trkpt lat="43.477773" lon="12.6273172"><ele>356.33333333333337</ele><time>2026-05-02T12:00:32.198Z</time></trkpt><trkpt lat="43.477937" lon="12.6272878"><ele>356.6666666666667</ele><time>2026-05-02T12:00:33.206Z</time></trkpt><trkpt lat="43.4780999" lon="12.6272583"><ele>357.0</ele><time>2026-05-02T12:00:34.187Z</time></trkpt><trkpt lat="43.4782662" lon="12.6272231"><ele>357.0</ele><time>2026-05-02T12:00:35.19Z</time></trkpt><trkpt lat="43.4784381" lon="12.6271583"><ele>357.0</ele><time>2026-05-02T12:00:36.195Z</time></trkpt><trkpt lat="43.4786121" lon="12.6270832"><ele>357.0</ele><time>2026-05-02T12:00:37.191Z</time></trkpt><trkpt lat="43.4787882" lon="12.6269959"><ele>356.0</ele><time>2026-05-02T12:00:38.181Z</time></trkpt><trkpt lat="43.4789623" lon="12.6269102"><ele>355.0</ele><time>2026-05-02T12:00:39.189Z</time></trkpt><trkpt lat="43.4791238" lon="12.6268214"><ele>354.0</ele><time>2026-05-02T12:00:40.198Z</time></trkpt><trkpt lat="43.4792776" lon="12.6267363"><ele>354.0</ele><time>2026-05-02T12:00:41.187Z</time></trkpt><trkpt lat="43.4794204" lon="12.6266611"><ele>354.0</ele><time>2026-05-02T12:00:42.191Z</time></trkpt><trkpt lat="43.4795615" lon="12.6265893"><ele>354.0</ele><time>2026-05-02T12:00:43.188Z</time></trkpt><trkpt lat="43.4797009" lon="12.6265128"><ele>355.0</ele><time>2026-05-02T12:00:44.202Z</time></trkpt><trkpt lat="43.4798428" lon="12.6264374"><ele>356.0</ele><time>2026-05-02T12:00:45.191Z</time></trkpt><trkpt lat="43.4799848" lon="12.6263702"><ele>357.0</ele><time>2026-05-02T12:00:46.156Z</time></trkpt><trkpt lat="43.4801238" lon="12.6262977"><ele>357.0</ele><time>2026-05-02T12:00:47.184Z</time></trkpt><trkpt lat="43.4802658" lon="12.6262178"><ele>357.0</ele><time>2026-05-02T12:00:48.206Z</time></trkpt><trkpt lat="43.4804084" lon="12.6261419"><ele>357.0</ele><time>2026-05-02T12:00:49.191Z</time></trkpt><trkpt lat="43.4805513" lon="12.6260713"><ele>354.75</ele><time>2026-05-02T12:00:50.171Z</time></trkpt><trkpt lat="43.4806912" lon="12.6259996"><ele>352.5</ele><time>2026-05-02T12:00:51.198Z</time></trkpt><trkpt lat="43.480825" lon="12.6259255"><ele>350.25</ele><time>2026-05-02T12:00:52.157Z</time></trkpt><trkpt lat="43.4809559" lon="12.625855"><ele>348.0</ele><time>2026-05-02T12:00:53.182Z</time></trkpt><trkpt lat="43.4810809" lon="12.6257818"><ele>348.0</ele><time>2026-05-02T12:00:54.189Z</time></trkpt><trkpt lat="43.4811978" lon="12.6257153"><ele>348.0</ele><time>2026-05-02T12:00:55.187Z</time></trkpt><trkpt lat="43.4813106" lon="12.6256561"><ele>348.0</ele><time>2026-05-02T12:00:56.177Z</time></trkpt><trkpt lat="43.4814138" lon="12.6255887"><ele>348.0</ele><time>2026-05-02T12:00:57.193Z</time></trkpt><trkpt lat="43.4815049" lon="12.625521"><ele>348.3333333333333</ele><time>2026-05-02T12:00:58.193Z</time></trkpt><trkpt lat="43.4815816" lon="12.6254635"><ele>348.6666666666667</ele><time>2026-05-02T12:00:59.182Z</time></trkpt><trkpt lat="43.4816428" lon="12.6254085"><ele>349.0</ele><time>2026-05-02T12:01:00.199Z</time></trkpt><trkpt lat="43.4817042" lon="12.6253705"><ele>349.33333333333337</ele><time>2026-05-02T12:01:01.182Z</time></trkpt><trkpt lat="43.4817682" lon="12.6253372"><ele>349.6666666666667</ele><time>2026-05-02T12:01:02.16Z</time></trkpt><trkpt lat="43.4818082" lon="12.6251929"><ele>350.0</ele><time>2026-05-02T12:01:04.182Z</time></trkpt><trkpt lat="43.4817797" lon="12.6251116"><ele>350.0</ele><time>2026-05-02T12:01:05.184Z</time></trkpt><trkpt lat="43.4817301" lon="12.6250273"><ele>350.0</ele><time>2026-05-02T12:01:06.173Z</time></trkpt><trkpt lat="43.4816795" lon="12.6249024"><ele>350.0</ele><time>2026-05-02T12:01:07.187Z</time></trkpt><trkpt lat="43.4816116" lon="12.624752"><ele>350.0</ele><time>2026-05-02T12:01:08.192Z</time></trkpt><trkpt lat="43.4815509" lon="12.6245719"><ele>349.33333333333337</ele><time>2026-05-02T12:01:09.191Z</time></trkpt><trkpt lat="43.4814785" lon="12.6243735"><ele>348.6666666666667</ele><time>2026-05-02T12:01:10.176Z</time></trkpt><trkpt lat="43.4814016" lon="12.6241471"><ele>348.0</ele><time>2026-05-02T12:01:11.178Z</time></trkpt><trkpt lat="43.481321" lon="12.6239266"><ele>348.6666666666667</ele><time>2026-05-02T12:01:12.175Z</time></trkpt><trkpt lat="43.4812407" lon="12.6237197"><ele>349.33333333333337</ele><time>2026-05-02T12:01:13.185Z</time></trkpt><trkpt lat="43.4811611" lon="12.6235277"><ele>350.0</ele><time>2026-05-02T12:01:14.202Z</time></trkpt><trkpt lat="43.4810769" lon="12.6233306"><ele>350.0</ele><time>2026-05-02T12:01:15.178Z</time></trkpt><trkpt lat="43.4809968" lon="12.6231344"><ele>350.0</ele><time>2026-05-02T12:01:16.186Z</time></trkpt><trkpt lat="43.4809202" lon="12.6229496"><ele>350.0</ele><time>2026-05-02T12:01:17.181Z</time></trkpt><trkpt lat="43.4808634" lon="12.6227733"><ele>349.8</ele><time>2026-05-02T12:01:18.191Z</time></trkpt><trkpt lat="43.4808346" lon="12.6226019"><ele>349.6</ele><time>2026-05-02T12:01:19.194Z</time></trkpt><trkpt lat="43.4808416" lon="12.6224398"><ele>349.4</ele><time>2026-05-02T12:01:20.184Z</time></trkpt><trkpt lat="43.4808807" lon="12.6223217"><ele>349.2</ele><time>2026-05-02T12:01:21.2Z</time></trkpt><trkpt lat="43.4809541" lon="12.6222204"><ele>349.0</ele><time>2026-05-02T12:01:22.173Z</time></trkpt><trkpt lat="43.4810333" lon="12.6221419"><ele>349.0</ele><time>2026-05-02T12:01:23.187Z</time></trkpt><trkpt lat="43.4811291" lon="12.6220863"><ele>349.0</ele><time>2026-05-02T12:01:24.187Z</time></trkpt><trkpt lat="43.4812151" lon="12.6220385"><ele>349.0</ele><time>2026-05-02T12:01:25.197Z</time></trkpt><trkpt lat="43.4812959" lon="12.6220024"><ele>349.0</ele><time>2026-05-02T12:01:26.187Z</time></trkpt><trkpt lat="43.4813622" lon="12.6219631"><ele>349.0</ele><time>2026-05-02T12:01:27.199Z</time></trkpt><trkpt lat="43.4814262" lon="12.6219278"><ele>349.0</ele><time>2026-05-02T12:01:28.201Z</time></trkpt><trkpt lat="43.4815233" lon="12.6218625"><ele>348.6</ele><time>2026-05-02T12:01:30.185Z</time></trkpt><trkpt lat="43.4815985" lon="12.6217912"><ele>348.2</ele><time>2026-05-02T12:01:32.185Z</time></trkpt><trkpt lat="43.4816579" lon="12.6217519"><ele>347.8</ele><time>2026-05-02T12:01:34.189Z</time></trkpt><trkpt lat="43.4817216" lon="12.6217092"><ele>347.40000000000003</ele><time>2026-05-02T12:02:12.192Z</time></trkpt><trkpt lat="43.4818321" lon="12.621618"><ele>347.0</ele><time>2026-05-02T12:02:14.173Z</time></trkpt><trkpt lat="43.4819522" lon="12.6215384"><ele>347.0</ele><time>2026-05-02T12:02:15.163Z</time></trkpt><trkpt lat="43.4820851" lon="12.6214497"><ele>347.0</ele><time>2026-05-02T12:02:16.166Z</time></trkpt><trkpt lat="43.4822083" lon="12.6213383"><ele>347.0</ele><time>2026-05-02T12:02:17.183Z</time></trkpt><trkpt lat="43.4823063" lon="12.621182"><ele>347.0</ele><time>2026-05-02T12:02:18.18Z</time></trkpt><trkpt lat="43.4823957" lon="12.6210202"><ele>348.0</ele><time>2026-05-02T12:02:19.192Z</time></trkpt><trkpt lat="43.4824851" lon="12.620886"><ele>349.0</ele><time>2026-05-02T12:02:20.187Z</time></trkpt><trkpt lat="43.4825834" lon="12.6207751"><ele>350.0</ele><time>2026-05-02T12:02:21.187Z</time></trkpt><trkpt lat="43.4826925" lon="12.620699"><ele>351.0</ele><time>2026-05-02T12:02:22.18Z</time></trkpt><trkpt lat="43.4828131" lon="12.6206257"><ele>350.25</ele><time>2026-05-02T12:02:23.193Z</time></trkpt><trkpt lat="43.4829405" lon="12.6205797"><ele>349.5</ele><time>2026-05-02T12:02:24.202Z</time></trkpt><trkpt lat="43.4830796" lon="12.6205355"><ele>348.75</ele><time>2026-05-02T12:02:25.186Z</time></trkpt><trkpt lat="43.4832288" lon="12.6204822"><ele>348.0</ele><time>2026-05-02T12:02:26.187Z</time></trkpt><trkpt lat="43.4833852" lon="12.6204416"><ele>348.0</ele><time>2026-05-02T12:02:27.184Z</time></trkpt><trkpt lat="43.4835461" lon="12.6203934"><ele>348.0</ele><time>2026-05-02T12:02:28.183Z</time></trkpt><trkpt lat="43.4837195" lon="12.6203509"><ele>348.0</ele><time>2026-05-02T12:02:29.183Z</time></trkpt><trkpt lat="43.4839106" lon="12.6203058"><ele>346.3333333333333</ele><time>2026-05-02T12:02:30.176Z</time></trkpt><trkpt lat="43.4841139" lon="12.620267"><ele>344.66666666666663</ele><time>2026-05-02T12:02:31.188Z</time></trkpt><trkpt lat="43.4843408" lon="12.6202211"><ele>343.0</ele><time>2026-05-02T12:02:32.176Z</time></trkpt><trkpt lat="43.484573" lon="12.6201796"><ele>342.5</ele><time>2026-05-02T12:02:33.187Z</time></trkpt><trkpt lat="43.4848053" lon="12.6201404"><ele>342.0</ele><time>2026-05-02T12:02:34.188Z</time></trkpt><trkpt lat="43.4850383" lon="12.6201073"><ele>342.0</ele><time>2026-05-02T12:02:35.196Z</time></trkpt><trkpt lat="43.4852809" lon="12.6200864"><ele>342.0</ele><time>2026-05-02T12:02:36.179Z</time></trkpt><trkpt lat="43.485532" lon="12.6200694"><ele>342.0</ele><time>2026-05-02T12:02:37.193Z</time></trkpt><trkpt lat="43.4857796" lon="12.6200714"><ele>342.0</ele><time>2026-05-02T12:02:38.182Z</time></trkpt><trkpt lat="43.4860245" lon="12.6200729"><ele>342.5</ele><time>2026-05-02T12:02:39.194Z</time></trkpt><trkpt lat="43.4862709" lon="12.6200821"><ele>343.0</ele><time>2026-05-02T12:02:40.19Z</time></trkpt><trkpt lat="43.4865199" lon="12.6201047"><ele>343.0</ele><time>2026-05-02T12:02:41.18Z</time></trkpt><trkpt lat="43.4867707" lon="12.6201439"><ele>343.0</ele><time>2026-05-02T12:02:42.198Z</time></trkpt><trkpt lat="43.4870165" lon="12.6201964"><ele>342.0</ele><time>2026-05-02T12:02:43.189Z</time></trkpt><trkpt lat="43.4872539" lon="12.6202679"><ele>341.0</ele><time>2026-05-02T12:02:44.184Z</time></trkpt><trkpt lat="43.4874876" lon="12.6203462"><ele>341.0</ele><time>2026-05-02T12:02:45.189Z</time></trkpt><trkpt lat="43.4877073" lon="12.6204317"><ele>341.0</ele><time>2026-05-02T12:02:46.183Z</time></trkpt><trkpt lat="43.4879143" lon="12.620533"><ele>341.0</ele><time>2026-05-02T12:02:47.179Z</time></trkpt><trkpt lat="43.4881252" lon="12.6206391"><ele>341.0</ele><time>2026-05-02T12:02:48.193Z</time></trkpt><trkpt lat="43.4883259" lon="12.6207514"><ele>341.0</ele><time>2026-05-02T12:02:49.191Z</time></trkpt><trkpt lat="43.4885133" lon="12.6208745"><ele>341.0</ele><time>2026-05-02T12:02:50.166Z</time></trkpt><trkpt lat="43.4886984" lon="12.6210165"><ele>346.33333333333337</ele><time>2026-05-02T12:02:51.185Z</time></trkpt><trkpt lat="43.4888811" lon="12.6211684"><ele>351.6666666666667</ele><time>2026-05-02T12:02:52.184Z</time></trkpt><trkpt lat="43.4890571" lon="12.6213273"><ele>357.0</ele><time>2026-05-02T12:02:53.188Z</time></trkpt><trkpt lat="43.4892271" lon="12.6214965"><ele>357.0</ele><time>2026-05-02T12:02:54.193Z</time></trkpt><trkpt lat="43.4893925" lon="12.6216648"><ele>357.0</ele><time>2026-05-02T12:02:55.157Z</time></trkpt><trkpt lat="43.4895559" lon="12.6218363"><ele>357.0</ele><time>2026-05-02T12:02:56.166Z</time></trkpt><trkpt lat="43.489719" lon="12.6220018"><ele>358.3333333333333</ele><time>2026-05-02T12:02:57.19Z</time></trkpt><trkpt lat="43.4898798" lon="12.6221594"><ele>359.66666666666663</ele><time>2026-05-02T12:02:58.185Z</time></trkpt><trkpt lat="43.4900496" lon="12.622316"><ele>361.0</ele><time>2026-05-02T12:02:59.18Z</time></trkpt><trkpt lat="43.4902197" lon="12.6224595"><ele>361.0</ele><time>2026-05-02T12:03:00.181Z</time></trkpt><trkpt lat="43.4903999" lon="12.6225873"><ele>361.0</ele><time>2026-05-02T12:03:01.188Z</time></trkpt><trkpt lat="43.4905902" lon="12.622696"><ele>361.0</ele><time>2026-05-02T12:03:02.186Z</time></trkpt><trkpt lat="43.4907885" lon="12.6227955"><ele>362.66666666666663</ele><time>2026-05-02T12:03:03.181Z</time></trkpt><trkpt lat="43.490995" lon="12.6228752"><ele>364.3333333333333</ele><time>2026-05-02T12:03:04.186Z</time></trkpt><trkpt lat="43.4911983" lon="12.6229284"><ele>366.0</ele><time>2026-05-02T12:03:05.191Z</time></trkpt><trkpt lat="43.4914142" lon="12.6229701"><ele>366.0</ele><time>2026-05-02T12:03:06.176Z</time></trkpt><trkpt lat="43.4916288" lon="12.6230044"><ele>366.0</ele><time>2026-05-02T12:03:07.179Z</time></trkpt><trkpt lat="43.4918424" lon="12.6230505"><ele>366.0</ele><time>2026-05-02T12:03:08.183Z</time></trkpt><trkpt lat="43.4920506" lon="12.6230927"><ele>364.0</ele><time>2026-05-02T12:03:09.174Z</time></trkpt><trkpt lat="43.4922587" lon="12.6231405"><ele>362.0</ele><time>2026-05-02T12:03:10.173Z</time></trkpt><trkpt lat="43.4924622" lon="12.6231971"><ele>360.0</ele><time>2026-05-02T12:03:11.194Z</time></trkpt><trkpt lat="43.49266" lon="12.6232753"><ele>360.0</ele><time>2026-05-02T12:03:12.194Z</time></trkpt><trkpt lat="43.4928604" lon="12.6233747"><ele>360.0</ele><time>2026-05-02T12:03:13.193Z</time></trkpt><trkpt lat="43.4930623" lon="12.6234986"><ele>360.0</ele><time>2026-05-02T12:03:14.192Z</time></trkpt><trkpt lat="43.4932528" lon="12.6236448"><ele>357.0</ele><time>2026-05-02T12:03:15.186Z</time></trkpt><trkpt lat="43.4934287" lon="12.6238083"><ele>354.0</ele><time>2026-05-02T12:03:16.185Z</time></trkpt><trkpt lat="43.4935972" lon="12.6239864"><ele>351.0</ele><time>2026-05-02T12:03:17.163Z</time></trkpt><trkpt lat="43.4937588" lon="12.624187"><ele>351.0</ele><time>2026-05-02T12:03:18.176Z</time></trkpt><trkpt lat="43.4939255" lon="12.6243905"><ele>351.0</ele><time>2026-05-02T12:03:19.183Z</time></trkpt><trkpt lat="43.4940821" lon="12.6246097"><ele>351.0</ele><time>2026-05-02T12:03:20.188Z</time></trkpt><trkpt lat="43.4942256" lon="12.6248368"><ele>350.3333333333333</ele><time>2026-05-02T12:03:21.189Z</time></trkpt><trkpt lat="43.4943647" lon="12.625066"><ele>349.66666666666663</ele><time>2026-05-02T12:03:22.201Z</time></trkpt><trkpt lat="43.4945034" lon="12.6253017"><ele>349.0</ele><time>2026-05-02T12:03:23.188Z</time></trkpt><trkpt lat="43.4946377" lon="12.625547"><ele>348.3333333333333</ele><time>2026-05-02T12:03:24.19Z</time></trkpt><trkpt lat="43.4947741" lon="12.6257877"><ele>347.6666666666667</ele><time>2026-05-02T12:03:25.194Z</time></trkpt><trkpt lat="43.4949105" lon="12.6260311"><ele>347.0</ele><time>2026-05-02T12:03:26.182Z</time></trkpt><trkpt lat="43.4950485" lon="12.626267"><ele>347.0</ele><time>2026-05-02T12:03:27.181Z</time></trkpt><trkpt lat="43.4951856" lon="12.6265044"><ele>347.0</ele><time>2026-05-02T12:03:28.177Z</time></trkpt><trkpt lat="43.4953365" lon="12.626732"><ele>347.0</ele><time>2026-05-02T12:03:29.186Z</time></trkpt><trkpt lat="43.4954893" lon="12.6269454"><ele>343.5</ele><time>2026-05-02T12:03:30.181Z</time></trkpt><trkpt lat="43.4956398" lon="12.6271617"><ele>340.0</ele><time>2026-05-02T12:03:31.184Z</time></trkpt><trkpt lat="43.4975312" lon="12.6288058"><ele>340.0</ele><time>2026-05-02T12:03:41.179Z</time></trkpt><trkpt lat="43.4976736" lon="12.6289377"><ele>340.0</ele><time>2026-05-02T12:03:42.177Z</time></trkpt><trkpt lat="43.4978998" lon="12.6290547"><ele>340.0</ele><time>2026-05-02T12:03:43.181Z</time></trkpt><trkpt lat="43.4981124" lon="12.6291663"><ele>340.0</ele><time>2026-05-02T12:03:44.183Z</time></trkpt><trkpt lat="43.4983136" lon="12.6292667"><ele>340.0</ele><time>2026-05-02T12:03:45.175Z</time></trkpt><trkpt lat="43.4985073" lon="12.6293739"><ele>340.0</ele><time>2026-05-02T12:03:46.188Z</time></trkpt><trkpt lat="43.4987013" lon="12.6294853"><ele>342.0</ele><time>2026-05-02T12:03:47.17Z</time></trkpt><trkpt lat="43.4988908" lon="12.6295972"><ele>344.0</ele><time>2026-05-02T12:03:48.18Z</time></trkpt><trkpt lat="43.4990768" lon="12.6297196"><ele>346.0</ele><time>2026-05-02T12:03:49.173Z</time></trkpt><trkpt lat="43.4992614" lon="12.6298459"><ele>346.0</ele><time>2026-05-02T12:03:50.175Z</time></trkpt><trkpt lat="43.4994399" lon="12.6299836"><ele>346.0</ele><time>2026-05-02T12:03:51.184Z</time></trkpt><trkpt lat="43.4996138" lon="12.6301298"><ele>346.0</ele><time>2026-05-02T12:03:52.173Z</time></trkpt><trkpt lat="43.4997737" lon="12.6302869"><ele>343.66666666666663</ele><time>2026-05-02T12:03:53.18Z</time></trkpt><trkpt lat="43.4999296" lon="12.6304535"><ele>341.3333333333333</ele><time>2026-05-02T12:03:54.18Z</time></trkpt><trkpt lat="43.5000842" lon="12.6306221"><ele>339.0</ele><time>2026-05-02T12:03:55.176Z</time></trkpt><trkpt lat="43.5002248" lon="12.6308123"><ele>339.0</ele><time>2026-05-02T12:03:56.176Z</time></trkpt><trkpt lat="43.5003536" lon="12.6310216"><ele>339.0</ele><time>2026-05-02T12:03:57.175Z</time></trkpt><trkpt lat="43.5004774" lon="12.6312469"><ele>339.0</ele><time>2026-05-02T12:03:58.178Z</time></trkpt><trkpt lat="43.5005968" lon="12.6314765"><ele>337.6666666666667</ele><time>2026-05-02T12:03:59.182Z</time></trkpt><trkpt lat="43.5007114" lon="12.6317242"><ele>336.33333333333337</ele><time>2026-05-02T12:04:00.185Z</time></trkpt><trkpt lat="43.5008156" lon="12.6319639"><ele>335.0</ele><time>2026-05-02T12:04:01.185Z</time></trkpt><trkpt lat="43.5009108" lon="12.6322044"><ele>333.6666666666667</ele><time>2026-05-02T12:04:02.175Z</time></trkpt><trkpt lat="43.5010048" lon="12.6324446"><ele>332.3333333333333</ele><time>2026-05-02T12:04:03.186Z</time></trkpt><trkpt lat="43.5011004" lon="12.6326797"><ele>331.0</ele><time>2026-05-02T12:04:04.181Z</time></trkpt><trkpt lat="43.5011951" lon="12.6329149"><ele>336.0</ele><time>2026-05-02T12:04:05.177Z</time></trkpt><trkpt lat="43.5012891" lon="12.6331503"><ele>341.0</ele><time>2026-05-02T12:04:06.181Z</time></trkpt><trkpt lat="43.501388" lon="12.6333873"><ele>346.0</ele><time>2026-05-02T12:04:07.192Z</time></trkpt><trkpt lat="43.501497" lon="12.6336096"><ele>341.66666666666663</ele><time>2026-05-02T12:04:08.172Z</time></trkpt><trkpt lat="43.5016063" lon="12.6338178"><ele>337.3333333333333</ele><time>2026-05-02T12:04:09.181Z</time></trkpt><trkpt lat="43.5017163" lon="12.6340276"><ele>333.0</ele><time>2026-05-02T12:04:10.179Z</time></trkpt><trkpt lat="43.5018463" lon="12.6342254"><ele>333.0</ele><time>2026-05-02T12:04:11.194Z</time></trkpt><trkpt lat="43.501985" lon="12.6344132"><ele>333.0</ele><time>2026-05-02T12:04:12.188Z</time></trkpt><trkpt lat="43.5021308" lon="12.634598"><ele>333.0</ele><time>2026-05-02T12:04:13.174Z</time></trkpt><trkpt lat="43.5022892" lon="12.6347741"><ele>331.3333333333333</ele><time>2026-05-02T12:04:14.186Z</time></trkpt><trkpt lat="43.5024613" lon="12.6349377"><ele>329.66666666666663</ele><time>2026-05-02T12:04:15.197Z</time></trkpt><trkpt lat="43.5026402" lon="12.6350854"><ele>328.0</ele><time>2026-05-02T12:04:16.191Z</time></trkpt><trkpt lat="43.5028246" lon="12.6352296"><ele>328.0</ele><time>2026-05-02T12:04:17.17Z</time></trkpt><trkpt lat="43.5030118" lon="12.6353555"><ele>328.0</ele><time>2026-05-02T12:04:18.187Z</time></trkpt><trkpt lat="43.5031983" lon="12.6354674"><ele>328.0</ele><time>2026-05-02T12:04:19.184Z</time></trkpt><trkpt lat="43.5033825" lon="12.6355627"><ele>328.0</ele><time>2026-05-02T12:04:20.16Z</time></trkpt><trkpt lat="43.5035764" lon="12.6356417"><ele>328.0</ele><time>2026-05-02T12:04:21.184Z</time></trkpt><trkpt lat="43.5037727" lon="12.6357101"><ele>328.0</ele><time>2026-05-02T12:04:22.158Z</time></trkpt><trkpt lat="43.5039716" lon="12.6357688"><ele>327.0</ele><time>2026-05-02T12:04:23.18Z</time></trkpt><trkpt lat="43.5041641" lon="12.6358245"><ele>326.0</ele><time>2026-05-02T12:04:24.18Z</time></trkpt><trkpt lat="43.5043555" lon="12.6358722"><ele>325.0</ele><time>2026-05-02T12:04:25.171Z</time></trkpt><trkpt lat="43.5045522" lon="12.6359268"><ele>324.3333333333333</ele><time>2026-05-02T12:04:26.157Z</time></trkpt><trkpt lat="43.5047548" lon="12.6359886"><ele>323.6666666666667</ele><time>2026-05-02T12:04:27.183Z</time></trkpt><trkpt lat="43.5049686" lon="12.6360492"><ele>323.0</ele><time>2026-05-02T12:04:28.173Z</time></trkpt><trkpt lat="43.5051926" lon="12.636114"><ele>325.5</ele><time>2026-05-02T12:04:29.188Z</time></trkpt><trkpt lat="43.505417" lon="12.6361762"><ele>328.0</ele><time>2026-05-02T12:04:30.172Z</time></trkpt><trkpt lat="43.5056445" lon="12.6362383"><ele>328.0</ele><time>2026-05-02T12:04:31.177Z</time></trkpt><trkpt lat="43.5058642" lon="12.6363002"><ele>328.0</ele><time>2026-05-02T12:04:32.151Z</time></trkpt><trkpt lat="43.5060851" lon="12.6363697"><ele>324.5</ele><time>2026-05-02T12:04:33.155Z</time></trkpt><trkpt lat="43.5063065" lon="12.6364489"><ele>321.0</ele><time>2026-05-02T12:04:34.147Z</time></trkpt><trkpt lat="43.5065277" lon="12.6365286"><ele>321.0</ele><time>2026-05-02T12:04:35.151Z</time></trkpt><trkpt lat="43.5067433" lon="12.6366113"><ele>321.0</ele><time>2026-05-02T12:04:36.149Z</time></trkpt><trkpt lat="43.5069493" lon="12.636699"><ele>321.0</ele><time>2026-05-02T12:04:37.157Z</time></trkpt><trkpt lat="43.5071579" lon="12.6368026"><ele>320.0</ele><time>2026-05-02T12:04:38.158Z</time></trkpt><trkpt lat="43.5073665" lon="12.6369103"><ele>319.0</ele><time>2026-05-02T12:04:39.155Z</time></trkpt><trkpt lat="43.5075685" lon="12.6370205"><ele>318.0</ele><time>2026-05-02T12:04:40.155Z</time></trkpt><trkpt lat="43.5077707" lon="12.6371416"><ele>319.3333333333333</ele><time>2026-05-02T12:04:41.169Z</time></trkpt><trkpt lat="43.5079729" lon="12.6372609"><ele>320.66666666666663</ele><time>2026-05-02T12:04:42.157Z</time></trkpt><trkpt lat="43.508171" lon="12.6373889"><ele>322.0</ele><time>2026-05-02T12:04:43.174Z</time></trkpt><trkpt lat="43.5083646" lon="12.6375229"><ele>322.0</ele><time>2026-05-02T12:04:44.174Z</time></trkpt><trkpt lat="43.5085497" lon="12.6376558"><ele>322.0</ele><time>2026-05-02T12:04:45.16Z</time></trkpt><trkpt lat="43.5087326" lon="12.637794"><ele>322.0</ele><time>2026-05-02T12:04:46.187Z</time></trkpt><trkpt lat="43.508916" lon="12.6379307"><ele>320.66666666666663</ele><time>2026-05-02T12:04:47.178Z</time></trkpt><trkpt lat="43.5090976" lon="12.6380777"><ele>319.3333333333333</ele><time>2026-05-02T12:04:48.17Z</time></trkpt><trkpt lat="43.5092736" lon="12.6382285"><ele>318.0</ele><time>2026-05-02T12:04:49.169Z</time></trkpt><trkpt lat="43.5094402" lon="12.6383788"><ele>318.3333333333333</ele><time>2026-05-02T12:04:50.159Z</time></trkpt><trkpt lat="43.50961" lon="12.6385333"><ele>318.66666666666663</ele><time>2026-05-02T12:04:51.179Z</time></trkpt><trkpt lat="43.5097837" lon="12.6387026"><ele>319.0</ele><time>2026-05-02T12:04:52.182Z</time></trkpt><trkpt lat="43.5099571" lon="12.6388677"><ele>317.66666666666663</ele><time>2026-05-02T12:04:53.179Z</time></trkpt><trkpt lat="43.5101272" lon="12.6390348"><ele>316.3333333333333</ele><time>2026-05-02T12:04:54.182Z</time></trkpt><trkpt lat="43.5103006" lon="12.6391932"><ele>315.0</ele><time>2026-05-02T12:04:55.178Z</time></trkpt><trkpt lat="43.510477" lon="12.6393494"><ele>315.3333333333333</ele><time>2026-05-02T12:04:56.175Z</time></trkpt><trkpt lat="43.5106554" lon="12.6395057"><ele>315.66666666666663</ele><time>2026-05-02T12:04:57.175Z</time></trkpt><trkpt lat="43.5108401" lon="12.639667"><ele>316.0</ele><time>2026-05-02T12:04:58.174Z</time></trkpt><trkpt lat="43.5110342" lon="12.6398218"><ele>316.0</ele><time>2026-05-02T12:04:59.185Z</time></trkpt><trkpt lat="43.5112342" lon="12.6399715"><ele>316.0</ele><time>2026-05-02T12:05:00.171Z</time></trkpt><trkpt lat="43.511438" lon="12.6401046"><ele>315.66666666666663</ele><time>2026-05-02T12:05:01.177Z</time></trkpt><trkpt lat="43.5116434" lon="12.6402301"><ele>315.3333333333333</ele><time>2026-05-02T12:05:02.176Z</time></trkpt><trkpt lat="43.5118512" lon="12.6403421"><ele>315.0</ele><time>2026-05-02T12:05:03.172Z</time></trkpt><trkpt lat="43.5120641" lon="12.6404345"><ele>323.0</ele><time>2026-05-02T12:05:04.186Z</time></trkpt><trkpt lat="43.512281" lon="12.640511"><ele>331.0</ele><time>2026-05-02T12:05:05.183Z</time></trkpt><trkpt lat="43.5124957" lon="12.640564"><ele>339.0</ele><time>2026-05-02T12:05:06.171Z</time></trkpt><trkpt lat="43.5127167" lon="12.6405981"><ele>338.0</ele><time>2026-05-02T12:05:07.173Z</time></trkpt><trkpt lat="43.5129244" lon="12.6406187"><ele>337.0</ele><time>2026-05-02T12:05:08.175Z</time></trkpt><trkpt lat="43.513129" lon="12.6406228"><ele>336.0</ele><time>2026-05-02T12:05:09.175Z</time></trkpt><trkpt lat="43.5133413" lon="12.6406067"><ele>336.0</ele><time>2026-05-02T12:05:10.169Z</time></trkpt><trkpt lat="43.5135522" lon="12.6405781"><ele>336.0</ele><time>2026-05-02T12:05:11.179Z</time></trkpt><trkpt lat="43.5137675" lon="12.6405511"><ele>336.0</ele><time>2026-05-02T12:05:12.171Z</time></trkpt><trkpt lat="43.5139787" lon="12.6405179"><ele>337.0</ele><time>2026-05-02T12:05:13.175Z</time></trkpt><trkpt lat="43.5141916" lon="12.6404836"><ele>338.0</ele><time>2026-05-02T12:05:14.182Z</time></trkpt><trkpt lat="43.5143997" lon="12.6404359"><ele>339.0</ele><time>2026-05-02T12:05:15.174Z</time></trkpt><trkpt lat="43.5146089" lon="12.6403992"><ele>326.0</ele><time>2026-05-02T12:05:16.169Z</time></trkpt><trkpt lat="43.5148273" lon="12.6403603"><ele>313.0</ele><time>2026-05-02T12:05:17.168Z</time></trkpt><trkpt lat="43.5167457" lon="12.6404017"><ele>313.0</ele><time>2026-05-02T12:05:26.179Z</time></trkpt><trkpt lat="43.5169662" lon="12.640511"><ele>313.0</ele><time>2026-05-02T12:05:27.18Z</time></trkpt><trkpt lat="43.5171803" lon="12.6405784"><ele>311.66666666666663</ele><time>2026-05-02T12:05:28.173Z</time></trkpt><trkpt lat="43.517387" lon="12.6406578"><ele>310.3333333333333</ele><time>2026-05-02T12:05:29.186Z</time></trkpt><trkpt lat="43.517587" lon="12.6407359"><ele>309.0</ele><time>2026-05-02T12:05:30.175Z</time></trkpt><trkpt lat="43.517802" lon="12.6408237"><ele>306.0</ele><time>2026-05-02T12:05:31.181Z</time></trkpt><trkpt lat="43.5180124" lon="12.6409284"><ele>303.0</ele><time>2026-05-02T12:05:32.181Z</time></trkpt><trkpt lat="43.5182089" lon="12.6410422"><ele>300.0</ele><time>2026-05-02T12:05:33.182Z</time></trkpt><trkpt lat="43.5184135" lon="12.6411664"><ele>302.3333333333333</ele><time>2026-05-02T12:05:34.184Z</time></trkpt><trkpt lat="43.5186141" lon="12.641301"><ele>304.66666666666663</ele><time>2026-05-02T12:05:35.178Z</time></trkpt><trkpt lat="43.5188168" lon="12.6414388"><ele>307.0</ele><time>2026-05-02T12:05:36.184Z</time></trkpt><trkpt lat="43.5190173" lon="12.641583"><ele>307.0</ele><time>2026-05-02T12:05:37.189Z</time></trkpt><trkpt lat="43.5192209" lon="12.6417279"><ele>307.0</ele><time>2026-05-02T12:05:38.173Z</time></trkpt><trkpt lat="43.5194271" lon="12.641876"><ele>305.0</ele><time>2026-05-02T12:05:39.173Z</time></trkpt><trkpt lat="43.519632" lon="12.6420375"><ele>303.0</ele><time>2026-05-02T12:05:40.192Z</time></trkpt><trkpt lat="43.5198313" lon="12.6422034"><ele>303.0</ele><time>2026-05-02T12:05:41.166Z</time></trkpt><trkpt lat="43.5200372" lon="12.6423656"><ele>303.0</ele><time>2026-05-02T12:05:42.189Z</time></trkpt><trkpt lat="43.5202449" lon="12.6425243"><ele>304.5</ele><time>2026-05-02T12:05:43.183Z</time></trkpt><trkpt lat="43.5204488" lon="12.6426694"><ele>306.0</ele><time>2026-05-02T12:05:44.181Z</time></trkpt><trkpt lat="43.520655" lon="12.6428118"><ele>304.6666666666667</ele><time>2026-05-02T12:05:45.175Z</time></trkpt><trkpt lat="43.5208602" lon="12.6429326"><ele>303.33333333333337</ele><time>2026-05-02T12:05:46.175Z</time></trkpt><trkpt lat="43.5210632" lon="12.6430466"><ele>302.0</ele><time>2026-05-02T12:05:47.19Z</time></trkpt><trkpt lat="43.5212751" lon="12.6431367"><ele>302.0</ele><time>2026-05-02T12:05:48.179Z</time></trkpt><trkpt lat="43.5214911" lon="12.6432124"><ele>302.0</ele><time>2026-05-02T12:05:49.18Z</time></trkpt><trkpt lat="43.5217163" lon="12.6432687"><ele>302.0</ele><time>2026-05-02T12:05:50.185Z</time></trkpt><trkpt lat="43.5219405" lon="12.6433089"><ele>302.0</ele><time>2026-05-02T12:05:51.206Z</time></trkpt><trkpt lat="43.5221644" lon="12.6433248"><ele>303.0</ele><time>2026-05-02T12:05:52.181Z</time></trkpt><trkpt lat="43.5223833" lon="12.6433291"><ele>304.0</ele><time>2026-05-02T12:05:53.179Z</time></trkpt><trkpt lat="43.5225995" lon="12.6433064"><ele>305.0</ele><time>2026-05-02T12:05:54.163Z</time></trkpt><trkpt lat="43.5228226" lon="12.6432697"><ele>301.6666666666667</ele><time>2026-05-02T12:05:55.173Z</time></trkpt><trkpt lat="43.523041" lon="12.6432126"><ele>298.3333333333333</ele><time>2026-05-02T12:05:56.18Z</time></trkpt><trkpt lat="43.523255" lon="12.6431373"><ele>295.0</ele><time>2026-05-02T12:05:57.184Z</time></trkpt><trkpt lat="43.5234623" lon="12.6430436"><ele>295.0</ele><time>2026-05-02T12:05:58.177Z</time></trkpt><trkpt lat="43.5236615" lon="12.642939"><ele>295.0</ele><time>2026-05-02T12:05:59.187Z</time></trkpt><trkpt lat="43.5238573" lon="12.6428173"><ele>295.0</ele><time>2026-05-02T12:06:00.182Z</time></trkpt><trkpt lat="43.5240468" lon="12.6426766"><ele>294.3333333333333</ele><time>2026-05-02T12:06:01.186Z</time></trkpt><trkpt lat="43.5242341" lon="12.6425307"><ele>293.6666666666667</ele><time>2026-05-02T12:06:02.182Z</time></trkpt><trkpt lat="43.5244203" lon="12.6423748"><ele>293.0</ele><time>2026-05-02T12:06:03.177Z</time></trkpt><trkpt lat="43.5246125" lon="12.6421904"><ele>293.0</ele><time>2026-05-02T12:06:04.179Z</time></trkpt><trkpt lat="43.5247896" lon="12.6420135"><ele>293.0</ele><time>2026-05-02T12:06:05.175Z</time></trkpt><trkpt lat="43.5249677" lon="12.6418434"><ele>293.0</ele><time>2026-05-02T12:06:06.168Z</time></trkpt><trkpt lat="43.5251497" lon="12.6416727"><ele>292.6666666666667</ele><time>2026-05-02T12:06:07.181Z</time></trkpt><trkpt lat="43.5253419" lon="12.6414987"><ele>292.3333333333333</ele><time>2026-05-02T12:06:08.17Z</time></trkpt><trkpt lat="43.5255286" lon="12.6413414"><ele>292.0</ele><time>2026-05-02T12:06:09.199Z</time></trkpt><trkpt lat="43.5257278" lon="12.6412026"><ele>295.66666666666663</ele><time>2026-05-02T12:06:10.191Z</time></trkpt><trkpt lat="43.5259288" lon="12.6410836"><ele>299.3333333333333</ele><time>2026-05-02T12:06:11.198Z</time></trkpt><trkpt lat="43.5261375" lon="12.6409958"><ele>303.0</ele><time>2026-05-02T12:06:12.183Z</time></trkpt><trkpt lat="43.5263518" lon="12.6409354"><ele>303.0</ele><time>2026-05-02T12:06:13.172Z</time></trkpt><trkpt lat="43.5265692" lon="12.6408961"><ele>303.0</ele><time>2026-05-02T12:06:14.175Z</time></trkpt><trkpt lat="43.5267871" lon="12.6408866"><ele>303.0</ele><time>2026-05-02T12:06:15.182Z</time></trkpt><trkpt lat="43.527003" lon="12.6409223"><ele>306.0</ele><time>2026-05-02T12:06:16.186Z</time></trkpt><trkpt lat="43.5272158" lon="12.6409943"><ele>309.0</ele><time>2026-05-02T12:06:17.175Z</time></trkpt><trkpt lat="43.5274253" lon="12.6410816"><ele>312.0</ele><time>2026-05-02T12:06:18.179Z</time></trkpt><trkpt lat="43.5276357" lon="12.6412075"><ele>308.5</ele><time>2026-05-02T12:06:19.186Z</time></trkpt><trkpt lat="43.5278292" lon="12.6413502"><ele>305.0</ele><time>2026-05-02T12:06:20.18Z</time></trkpt><trkpt lat="43.5280359" lon="12.6415092"><ele>305.0</ele><time>2026-05-02T12:06:21.172Z</time></trkpt><trkpt lat="43.5282426" lon="12.6416795"><ele>305.0</ele><time>2026-05-02T12:06:22.156Z</time></trkpt><trkpt lat="43.5284493" lon="12.6418502"><ele>300.5</ele><time>2026-05-02T12:06:23.181Z</time></trkpt><trkpt lat="43.5286502" lon="12.642011"><ele>296.0</ele><time>2026-05-02T12:06:24.19Z</time></trkpt><trkpt lat="43.5288503" lon="12.6421852"><ele>296.0</ele><time>2026-05-02T12:06:25.177Z</time></trkpt><trkpt lat="43.5290546" lon="12.6423547"><ele>296.0</ele><time>2026-05-02T12:06:26.171Z</time></trkpt><trkpt lat="43.5292545" lon="12.6425179"><ele>296.0</ele><time>2026-05-02T12:06:27.176Z</time></trkpt><trkpt lat="43.529455" lon="12.642682"><ele>296.0</ele><time>2026-05-02T12:06:28.179Z</time></trkpt><trkpt lat="43.5296534" lon="12.6428475"><ele>291.5</ele><time>2026-05-02T12:06:29.178Z</time></trkpt><trkpt lat="43.5298507" lon="12.6430104"><ele>287.0</ele><time>2026-05-02T12:06:30.188Z</time></trkpt><trkpt lat="43.530039" lon="12.6431748"><ele>287.0</ele><time>2026-05-02T12:06:31.193Z</time></trkpt><trkpt lat="43.5302279" lon="12.6433448"><ele>287.0</ele><time>2026-05-02T12:06:32.167Z</time></trkpt><trkpt lat="43.5304073" lon="12.6435122"><ele>287.0</ele><time>2026-05-02T12:06:33.18Z</time></trkpt><trkpt lat="43.5305814" lon="12.6436823"><ele>288.6666666666667</ele><time>2026-05-02T12:06:34.172Z</time></trkpt><trkpt lat="43.530749" lon="12.6438578"><ele>290.3333333333333</ele><time>2026-05-02T12:06:35.173Z</time></trkpt><trkpt lat="43.5309006" lon="12.6440286"><ele>292.0</ele><time>2026-05-02T12:06:36.175Z</time></trkpt><trkpt lat="43.5310534" lon="12.6442051"><ele>292.0</ele><time>2026-05-02T12:06:37.189Z</time></trkpt><trkpt lat="43.53121" lon="12.6443878"><ele>292.0</ele><time>2026-05-02T12:06:38.177Z</time></trkpt><trkpt lat="43.5313637" lon="12.6445651"><ele>292.0</ele><time>2026-05-02T12:06:39.187Z</time></trkpt><trkpt lat="43.531515" lon="12.6447391"><ele>292.3333333333333</ele><time>2026-05-02T12:06:40.186Z</time></trkpt><trkpt lat="43.5316685" lon="12.644913"><ele>292.6666666666667</ele><time>2026-05-02T12:06:41.177Z</time></trkpt><trkpt lat="43.5318236" lon="12.6450887"><ele>293.0</ele><time>2026-05-02T12:06:42.196Z</time></trkpt><trkpt lat="43.531976" lon="12.6452689"><ele>291.0</ele><time>2026-05-02T12:06:43.193Z</time></trkpt><trkpt lat="43.5321261" lon="12.6454339"><ele>289.0</ele><time>2026-05-02T12:06:44.181Z</time></trkpt><trkpt lat="43.532275" lon="12.6455871"><ele>287.0</ele><time>2026-05-02T12:06:45.172Z</time></trkpt><trkpt lat="43.532425" lon="12.6457322"><ele>287.0</ele><time>2026-05-02T12:06:46.182Z</time></trkpt><trkpt lat="43.5325798" lon="12.6458758"><ele>287.0</ele><time>2026-05-02T12:06:47.177Z</time></trkpt><trkpt lat="43.5327445" lon="12.6460068"><ele>287.0</ele><time>2026-05-02T12:06:48.173Z</time></trkpt><trkpt lat="43.5329131" lon="12.6461347"><ele>283.33333333333337</ele><time>2026-05-02T12:06:49.155Z</time></trkpt><trkpt lat="43.533099" lon="12.6462617"><ele>279.6666666666667</ele><time>2026-05-02T12:06:50.164Z</time></trkpt><trkpt lat="43.5332898" lon="12.6463706"><ele>276.0</ele><time>2026-05-02T12:06:51.17Z</time></trkpt><trkpt lat="43.5334808" lon="12.6464612"><ele>276.0</ele><time>2026-05-02T12:06:52.183Z</time></trkpt><trkpt lat="43.5336743" lon="12.6465453"><ele>276.0</ele><time>2026-05-02T12:06:53.177Z</time></trkpt><trkpt lat="43.5338645" lon="12.6466211"><ele>276.0</ele><time>2026-05-02T12:06:54.156Z</time></trkpt><trkpt lat="43.534058" lon="12.6466748"><ele>276.3333333333333</ele><time>2026-05-02T12:06:55.177Z</time></trkpt><trkpt lat="43.5342591" lon="12.6467187"><ele>276.66666666666663</ele><time>2026-05-02T12:06:56.151Z</time></trkpt><trkpt lat="43.534454" lon="12.6467501"><ele>277.0</ele><time>2026-05-02T12:06:57.174Z</time></trkpt><trkpt lat="43.5346502" lon="12.6467707"><ele>277.66666666666663</ele><time>2026-05-02T12:06:58.167Z</time></trkpt><trkpt lat="43.5348348" lon="12.6467849"><ele>278.3333333333333</ele><time>2026-05-02T12:06:59.181Z</time></trkpt><trkpt lat="43.5350119" lon="12.6467757"><ele>279.0</ele><time>2026-05-02T12:07:00.158Z</time></trkpt><trkpt lat="43.5351812" lon="12.6467614"><ele>279.0</ele><time>2026-05-02T12:07:01.165Z</time></trkpt><trkpt lat="43.5353499" lon="12.6467511"><ele>279.0</ele><time>2026-05-02T12:07:02.16Z</time></trkpt><trkpt lat="43.5355072" lon="12.6467432"><ele>279.0</ele><time>2026-05-02T12:07:03.19Z</time></trkpt><trkpt lat="43.5356526" lon="12.64673"><ele>278.5</ele><time>2026-05-02T12:07:04.182Z</time></trkpt><trkpt lat="43.5357851" lon="12.6467168"><ele>278.0</ele><time>2026-05-02T12:07:05.17Z</time></trkpt><trkpt lat="43.5359136" lon="12.6467008"><ele>277.5</ele><time>2026-05-02T12:07:06.18Z</time></trkpt><trkpt lat="43.5360382" lon="12.646685"><ele>277.0</ele><time>2026-05-02T12:07:07.178Z</time></trkpt><trkpt lat="43.5361512" lon="12.646669"><ele>277.8</ele><time>2026-05-02T12:07:08.175Z</time></trkpt><trkpt lat="43.5362608" lon="12.646661"><ele>278.6</ele><time>2026-05-02T12:07:09.187Z</time></trkpt><trkpt lat="43.5363683" lon="12.6466689"><ele>279.40000000000003</ele><time>2026-05-02T12:07:10.17Z</time></trkpt><trkpt lat="43.5364729" lon="12.6466771"><ele>280.2</ele><time>2026-05-02T12:07:11.177Z</time></trkpt><trkpt lat="43.536575" lon="12.6466904"><ele>281.0</ele><time>2026-05-02T12:07:12.175Z</time></trkpt><trkpt lat="43.5366743" lon="12.6467073"><ele>281.0</ele><time>2026-05-02T12:07:13.186Z</time></trkpt><trkpt lat="43.536773" lon="12.6467382"><ele>281.0</ele><time>2026-05-02T12:07:14.172Z</time></trkpt><trkpt lat="43.5368709" lon="12.6467792"><ele>281.0</ele><time>2026-05-02T12:07:15.178Z</time></trkpt><trkpt lat="43.5369694" lon="12.6468295"><ele>281.0</ele><time>2026-05-02T12:07:16.179Z</time></trkpt><trkpt lat="43.5370633" lon="12.6468767"><ele>281.0</ele><time>2026-05-02T12:07:17.192Z</time></trkpt><trkpt lat="43.5371553" lon="12.6469256"><ele>280.40000000000003</ele><time>2026-05-02T12:07:18.173Z</time></trkpt><trkpt lat="43.5372396" lon="12.6469711"><ele>279.8</ele><time>2026-05-02T12:07:19.185Z</time></trkpt><trkpt lat="43.5373046" lon="12.647016"><ele>279.20000000000005</ele><time>2026-05-02T12:07:20.193Z</time></trkpt><trkpt lat="43.5373812" lon="12.6470903"><ele>278.6</ele><time>2026-05-02T12:07:22.165Z</time></trkpt><trkpt lat="43.5373908" lon="12.6471958"><ele>278.0</ele><time>2026-05-02T12:07:24.161Z</time></trkpt><trkpt lat="43.5374143" lon="12.6473782"><ele>278.0</ele><time>2026-05-02T12:07:26.173Z</time></trkpt><trkpt lat="43.5374635" lon="12.6474986"><ele>278.0</ele><time>2026-05-02T12:07:27.185Z</time></trkpt><trkpt lat="43.537528" lon="12.6476284"><ele>278.0</ele><time>2026-05-02T12:07:28.191Z</time></trkpt><trkpt lat="43.5376054" lon="12.6477689"><ele>278.0</ele><time>2026-05-02T12:07:29.189Z</time></trkpt><trkpt lat="43.5376885" lon="12.6479196"><ele>276.0</ele><time>2026-05-02T12:07:30.189Z</time></trkpt><trkpt lat="43.5377563" lon="12.6480912"><ele>274.0</ele><time>2026-05-02T12:07:31.18Z</time></trkpt><trkpt lat="43.5378105" lon="12.6482843"><ele>272.0</ele><time>2026-05-02T12:07:32.181Z</time></trkpt><trkpt lat="43.53785" lon="12.6484789"><ele>270.0</ele><time>2026-05-02T12:07:33.177Z</time></trkpt><trkpt lat="43.5378952" lon="12.6486495"><ele>270.0</ele><time>2026-05-02T12:07:34.182Z</time></trkpt><trkpt lat="43.5379471" lon="12.6488163"><ele>270.0</ele><time>2026-05-02T12:07:35.183Z</time></trkpt><trkpt lat="43.5380128" lon="12.6489732"><ele>270.0</ele><time>2026-05-02T12:07:36.185Z</time></trkpt><trkpt lat="43.5380989" lon="12.6491253"><ele>270.0</ele><time>2026-05-02T12:07:37.178Z</time></trkpt><trkpt lat="43.5382017" lon="12.6492644"><ele>270.0</ele><time>2026-05-02T12:07:38.181Z</time></trkpt><trkpt lat="43.5383362" lon="12.6493889"><ele>270.0</ele><time>2026-05-02T12:07:39.179Z</time></trkpt><trkpt lat="43.5384628" lon="12.6495081"><ele>270.0</ele><time>2026-05-02T12:07:40.185Z</time></trkpt><trkpt lat="43.5385896" lon="12.6496186"><ele>269.5</ele><time>2026-05-02T12:07:41.167Z</time></trkpt><trkpt lat="43.538709" lon="12.6497224"><ele>269.0</ele><time>2026-05-02T12:07:42.185Z</time></trkpt><trkpt lat="43.5388236" lon="12.6498218"><ele>268.5</ele><time>2026-05-02T12:07:43.187Z</time></trkpt><trkpt lat="43.538941" lon="12.6499098"><ele>268.0</ele><time>2026-05-02T12:07:44.204Z</time></trkpt><trkpt lat="43.5390672" lon="12.6499802"><ele>268.0</ele><time>2026-05-02T12:07:45.187Z</time></trkpt><trkpt lat="43.5391909" lon="12.6500414"><ele>268.0</ele><time>2026-05-02T12:07:46.165Z</time></trkpt><trkpt lat="43.5393253" lon="12.6500802"><ele>268.0</ele><time>2026-05-02T12:07:47.158Z</time></trkpt><trkpt lat="43.5394648" lon="12.6501004"><ele>268.0</ele><time>2026-05-02T12:07:48.186Z</time></trkpt><trkpt lat="43.539602" lon="12.6500974"><ele>268.25</ele><time>2026-05-02T12:07:49.164Z</time></trkpt><trkpt lat="43.5397469" lon="12.6500704"><ele>268.5</ele><time>2026-05-02T12:07:50.192Z</time></trkpt><trkpt lat="43.5398845" lon="12.650025"><ele>268.75</ele><time>2026-05-02T12:07:51.186Z</time></trkpt><trkpt lat="43.5400221" lon="12.6499599"><ele>269.0</ele><time>2026-05-02T12:07:52.192Z</time></trkpt><trkpt lat="43.5401485" lon="12.6498676"><ele>269.0</ele><time>2026-05-02T12:07:53.201Z</time></trkpt><trkpt lat="43.5402679" lon="12.6497423"><ele>269.0</ele><time>2026-05-02T12:07:54.211Z</time></trkpt><trkpt lat="43.5403866" lon="12.6496"><ele>269.0</ele><time>2026-05-02T12:07:55.183Z</time></trkpt><trkpt lat="43.5405066" lon="12.6494498"><ele>268.33333333333337</ele><time>2026-05-02T12:07:56.191Z</time></trkpt><trkpt lat="43.540631" lon="12.6493006"><ele>267.6666666666667</ele><time>2026-05-02T12:07:57.183Z</time></trkpt><trkpt lat="43.5407531" lon="12.6491595"><ele>267.0</ele><time>2026-05-02T12:07:58.183Z</time></trkpt><trkpt lat="43.5408742" lon="12.6490183"><ele>267.0</ele><time>2026-05-02T12:07:59.188Z</time></trkpt><trkpt lat="43.5409948" lon="12.6488988"><ele>267.0</ele><time>2026-05-02T12:08:00.181Z</time></trkpt><trkpt lat="43.5411308" lon="12.6488237"><ele>267.0</ele><time>2026-05-02T12:08:01.174Z</time></trkpt><trkpt lat="43.5412717" lon="12.6487971"><ele>267.0</ele><time>2026-05-02T12:08:02.193Z</time></trkpt><trkpt lat="43.5414248" lon="12.6488032"><ele>265.0</ele><time>2026-05-02T12:08:03.19Z</time></trkpt><trkpt lat="43.5415689" lon="12.6488039"><ele>263.0</ele><time>2026-05-02T12:08:04.185Z</time></trkpt><trkpt lat="43.5417225" lon="12.6488193"><ele>261.0</ele><time>2026-05-02T12:08:05.181Z</time></trkpt><trkpt lat="43.5418814" lon="12.6488318"><ele>261.0</ele><time>2026-05-02T12:08:06.179Z</time></trkpt><trkpt lat="43.5420335" lon="12.6488386"><ele>261.0</ele><time>2026-05-02T12:08:07.192Z</time></trkpt><trkpt lat="43.5421834" lon="12.6488521"><ele>261.0</ele><time>2026-05-02T12:08:08.18Z</time></trkpt><trkpt lat="43.542323" lon="12.648857"><ele>261.0</ele><time>2026-05-02T12:08:09.181Z</time></trkpt><trkpt lat="43.542454" lon="12.6488614"><ele>262.6</ele><time>2026-05-02T12:08:10.189Z</time></trkpt><trkpt lat="43.5425723" lon="12.6488645"><ele>264.20000000000005</ele><time>2026-05-02T12:08:11.185Z</time></trkpt><trkpt lat="43.5426795" lon="12.6488836"><ele>265.79999999999995</ele><time>2026-05-02T12:08:12.193Z</time></trkpt><trkpt lat="43.5427708" lon="12.6489328"><ele>267.4</ele><time>2026-05-02T12:08:13.185Z</time></trkpt><trkpt lat="43.5428549" lon="12.6490282"><ele>269.0</ele><time>2026-05-02T12:08:14.18Z</time></trkpt><trkpt lat="43.5429106" lon="12.6491642"><ele>269.0</ele><time>2026-05-02T12:08:15.181Z</time></trkpt><trkpt lat="43.5429666" lon="12.6493259"><ele>269.0</ele><time>2026-05-02T12:08:16.204Z</time></trkpt><trkpt lat="43.5430123" lon="12.6494845"><ele>269.0</ele><time>2026-05-02T12:08:17.186Z</time></trkpt><trkpt lat="43.5430453" lon="12.6496521"><ele>269.0</ele><time>2026-05-02T12:08:18.181Z</time></trkpt><trkpt lat="43.5430838" lon="12.6498203"><ele>267.2</ele><time>2026-05-02T12:08:19.201Z</time></trkpt><trkpt lat="43.5431275" lon="12.6499642"><ele>265.4</ele><time>2026-05-02T12:08:20.184Z</time></trkpt><trkpt lat="43.5432001" lon="12.6500735"><ele>263.6</ele><time>2026-05-02T12:08:21.185Z</time></trkpt><trkpt lat="43.5432868" lon="12.6501271"><ele>261.8</ele><time>2026-05-02T12:08:22.184Z</time></trkpt><trkpt lat="43.5433963" lon="12.6501345"><ele>260.0</ele><time>2026-05-02T12:08:23.186Z</time></trkpt><trkpt lat="43.5434951" lon="12.6501008"><ele>260.0</ele><time>2026-05-02T12:08:24.187Z</time></trkpt><trkpt lat="43.543573" lon="12.6499883"><ele>260.0</ele><time>2026-05-02T12:08:25.176Z</time></trkpt><trkpt lat="43.5436406" lon="12.6498516"><ele>260.0</ele><time>2026-05-02T12:08:26.172Z</time></trkpt><trkpt lat="43.5437001" lon="12.64973"><ele>260.0</ele><time>2026-05-02T12:08:27.186Z</time></trkpt><trkpt lat="43.5437695" lon="12.6496108"><ele>258.2</ele><time>2026-05-02T12:08:28.193Z</time></trkpt><trkpt lat="43.5438398" lon="12.6495061"><ele>256.4</ele><time>2026-05-02T12:08:29.187Z</time></trkpt><trkpt lat="43.5439298" lon="12.6494224"><ele>254.60000000000002</ele><time>2026-05-02T12:08:30.193Z</time></trkpt><trkpt lat="43.5440345" lon="12.649369"><ele>252.8</ele><time>2026-05-02T12:08:31.186Z</time></trkpt><trkpt lat="43.544144" lon="12.6493379"><ele>251.0</ele><time>2026-05-02T12:08:32.181Z</time></trkpt><trkpt lat="43.5442489" lon="12.6493313"><ele>252.20000000000002</ele><time>2026-05-02T12:08:33.184Z</time></trkpt><trkpt lat="43.5443627" lon="12.6493483"><ele>253.40000000000003</ele><time>2026-05-02T12:08:34.201Z</time></trkpt><trkpt lat="43.5444739" lon="12.6493713"><ele>254.6</ele><time>2026-05-02T12:08:35.183Z</time></trkpt><trkpt lat="43.5445776" lon="12.649394"><ele>255.8</ele><time>2026-05-02T12:08:36.183Z</time></trkpt><trkpt lat="43.5446725" lon="12.649455"><ele>257.0</ele><time>2026-05-02T12:08:37.198Z</time></trkpt><trkpt lat="43.5447555" lon="12.6495494"><ele>257.0</ele><time>2026-05-02T12:08:38.188Z</time></trkpt><trkpt lat="43.5448403" lon="12.649641"><ele>257.0</ele><time>2026-05-02T12:08:39.195Z</time></trkpt><trkpt lat="43.5449302" lon="12.6497449"><ele>257.0</ele><time>2026-05-02T12:08:40.191Z</time></trkpt><trkpt lat="43.5450291" lon="12.6498304"><ele>257.0</ele><time>2026-05-02T12:08:41.184Z</time></trkpt><trkpt lat="43.5451359" lon="12.6498956"><ele>257.0</ele><time>2026-05-02T12:08:42.176Z</time></trkpt><trkpt lat="43.5452438" lon="12.649951"><ele>257.0</ele><time>2026-05-02T12:08:43.171Z</time></trkpt><trkpt lat="43.5453468" lon="12.6500097"><ele>257.0</ele><time>2026-05-02T12:08:44.181Z</time></trkpt><trkpt lat="43.5454463" lon="12.6500728"><ele>257.0</ele><time>2026-05-02T12:08:45.203Z</time></trkpt><trkpt lat="43.5455425" lon="12.6501278"><ele>257.0</ele><time>2026-05-02T12:08:46.183Z</time></trkpt><trkpt lat="43.5456359" lon="12.6501768"><ele>256.83333333333337</ele><time>2026-05-02T12:08:47.184Z</time></trkpt><trkpt lat="43.5457189" lon="12.650223"><ele>256.6666666666667</ele><time>2026-05-02T12:08:48.191Z</time></trkpt><trkpt lat="43.5457817" lon="12.6502574"><ele>256.5</ele><time>2026-05-02T12:08:49.196Z</time></trkpt><trkpt lat="43.545869" lon="12.6503146"><ele>256.3333333333333</ele><time>2026-05-02T12:09:52.185Z</time></trkpt><trkpt lat="43.5459314" lon="12.6503387"><ele>256.16666666666663</ele><time>2026-05-02T12:09:53.192Z</time></trkpt><trkpt lat="43.5459919" lon="12.6503725"><ele>256.0</ele><time>2026-05-02T12:09:54.179Z</time></trkpt><trkpt lat="43.5460779" lon="12.6504155"><ele>256.0</ele><time>2026-05-02T12:09:55.166Z</time></trkpt><trkpt lat="43.5461731" lon="12.6504758"><ele>256.0</ele><time>2026-05-02T12:09:56.169Z</time></trkpt><trkpt lat="43.5462614" lon="12.650527"><ele>256.0</ele><time>2026-05-02T12:09:57.192Z</time></trkpt><trkpt lat="43.5463519" lon="12.6505849"><ele>256.0</ele><time>2026-05-02T12:09:58.173Z</time></trkpt><trkpt lat="43.546444" lon="12.6506363"><ele>256.0</ele><time>2026-05-02T12:09:59.184Z</time></trkpt><trkpt lat="43.546536" lon="12.6506896"><ele>257.0</ele><time>2026-05-02T12:10:00.177Z</time></trkpt><trkpt lat="43.546624" lon="12.6507537"><ele>258.0</ele><time>2026-05-02T12:10:01.182Z</time></trkpt><trkpt lat="43.5467169" lon="12.6508102"><ele>259.0</ele><time>2026-05-02T12:10:02.178Z</time></trkpt><trkpt lat="43.5468162" lon="12.6508654"><ele>260.0</ele><time>2026-05-02T12:10:03.174Z</time></trkpt><trkpt lat="43.5469104" lon="12.6509156"><ele>261.0</ele><time>2026-05-02T12:10:04.188Z</time></trkpt><trkpt lat="43.5469987" lon="12.6509666"><ele>261.0</ele><time>2026-05-02T12:10:05.18Z</time></trkpt><trkpt lat="43.5470786" lon="12.6510126"><ele>261.0</ele><time>2026-05-02T12:10:06.183Z</time></trkpt><trkpt lat="43.5471537" lon="12.6510496"><ele>261.0</ele><time>2026-05-02T12:10:07.177Z</time></trkpt><trkpt lat="43.5472289" lon="12.6510862"><ele>261.0</ele><time>2026-05-02T12:10:08.183Z</time></trkpt><trkpt lat="43.5472945" lon="12.6511197"><ele>261.0</ele><time>2026-05-02T12:10:09.198Z</time></trkpt><trkpt lat="43.5473923" lon="12.6511579"><ele>261.0</ele><time>2026-05-02T12:10:11.181Z</time></trkpt><trkpt lat="43.5474635" lon="12.6511743"><ele>261.0</ele><time>2026-05-02T12:10:30.181Z</time></trkpt><trkpt lat="43.5475459" lon="12.6511822"><ele>261.0</ele><time>2026-05-02T12:11:46.183Z</time></trkpt><trkpt lat="43.5476907" lon="12.6511556"><ele>261.0</ele><time>2026-05-02T12:11:48.19Z</time></trkpt><trkpt lat="43.5477861" lon="12.6511401"><ele>261.0</ele><time>2026-05-02T12:11:49.182Z</time></trkpt><trkpt lat="43.5478841" lon="12.6511035"><ele>261.0</ele><time>2026-05-02T12:11:50.186Z</time></trkpt><trkpt lat="43.5479834" lon="12.6510727"><ele>261.2</ele><time>2026-05-02T12:11:51.163Z</time></trkpt><trkpt lat="43.5480793" lon="12.6510452"><ele>261.40000000000003</ele><time>2026-05-02T12:11:52.195Z</time></trkpt><trkpt lat="43.548174" lon="12.65102"><ele>261.6</ele><time>2026-05-02T12:11:53.193Z</time></trkpt><trkpt lat="43.5482705" lon="12.650984"><ele>261.8</ele><time>2026-05-02T12:11:54.19Z</time></trkpt><trkpt lat="43.5483651" lon="12.6509562"><ele>262.0</ele><time>2026-05-02T12:11:55.192Z</time></trkpt><trkpt lat="43.5484625" lon="12.6509194"><ele>262.0</ele><time>2026-05-02T12:11:56.191Z</time></trkpt><trkpt lat="43.5485676" lon="12.6508775"><ele>262.0</ele><time>2026-05-02T12:11:57.175Z</time></trkpt><trkpt lat="43.5486724" lon="12.650843"><ele>262.0</ele><time>2026-05-02T12:11:58.182Z</time></trkpt><trkpt lat="43.5487779" lon="12.6508091"><ele>262.0</ele><time>2026-05-02T12:11:59.176Z</time></trkpt><trkpt lat="43.548893" lon="12.6507761"><ele>262.0</ele><time>2026-05-02T12:12:00.186Z</time></trkpt><trkpt lat="43.549015" lon="12.6507476"><ele>259.25</ele><time>2026-05-02T12:12:01.182Z</time></trkpt><trkpt lat="43.5491395" lon="12.6507143"><ele>256.5</ele><time>2026-05-02T12:12:02.178Z</time></trkpt><trkpt lat="43.5492674" lon="12.6506784"><ele>253.75</ele><time>2026-05-02T12:12:03.186Z</time></trkpt><trkpt lat="43.5493883" lon="12.6506445"><ele>251.0</ele><time>2026-05-02T12:12:04.197Z</time></trkpt><trkpt lat="43.5495018" lon="12.6506125"><ele>249.25</ele><time>2026-05-02T12:12:05.185Z</time></trkpt><trkpt lat="43.5496138" lon="12.6505866"><ele>247.5</ele><time>2026-05-02T12:12:06.179Z</time></trkpt><trkpt lat="43.549724" lon="12.6505857"><ele>245.75</ele><time>2026-05-02T12:12:07.185Z</time></trkpt><trkpt lat="43.549831" lon="12.6506211"><ele>244.0</ele><time>2026-05-02T12:12:08.18Z</time></trkpt><trkpt lat="43.5499481" lon="12.6506627"><ele>244.0</ele><time>2026-05-02T12:12:09.192Z</time></trkpt><trkpt lat="43.5500776" lon="12.6507164"><ele>244.0</ele><time>2026-05-02T12:12:10.182Z</time></trkpt><trkpt lat="43.5502075" lon="12.6507968"><ele>244.0</ele><time>2026-05-02T12:12:11.2Z</time></trkpt><trkpt lat="43.5503483" lon="12.6508692"><ele>244.0</ele><time>2026-05-02T12:12:12.198Z</time></trkpt><trkpt lat="43.5504896" lon="12.6509467"><ele>243.33333333333331</ele><time>2026-05-02T12:12:13.182Z</time></trkpt><trkpt lat="43.550638" lon="12.6510241"><ele>242.66666666666669</ele><time>2026-05-02T12:12:14.188Z</time></trkpt><trkpt lat="43.5507911" lon="12.6511047"><ele>242.0</ele><time>2026-05-02T12:12:15.181Z</time></trkpt><trkpt lat="43.5509463" lon="12.6511864"><ele>241.66666666666669</ele><time>2026-05-02T12:12:16.199Z</time></trkpt><trkpt lat="43.5511077" lon="12.651268"><ele>241.33333333333331</ele><time>2026-05-02T12:12:17.191Z</time></trkpt><trkpt lat="43.5512685" lon="12.6513599"><ele>241.0</ele><time>2026-05-02T12:12:18.189Z</time></trkpt><trkpt lat="43.5514331" lon="12.6514529"><ele>242.66666666666666</ele><time>2026-05-02T12:12:19.196Z</time></trkpt><trkpt lat="43.5516007" lon="12.6515444"><ele>244.33333333333331</ele><time>2026-05-02T12:12:20.191Z</time></trkpt><trkpt lat="43.5517651" lon="12.6516317"><ele>246.0</ele><time>2026-05-02T12:12:21.198Z</time></trkpt><trkpt lat="43.5519281" lon="12.6517175"><ele>245.66666666666669</ele><time>2026-05-02T12:12:22.181Z</time></trkpt><trkpt lat="43.552089" lon="12.6518025"><ele>245.33333333333334</ele><time>2026-05-02T12:12:23.17Z</time></trkpt><trkpt lat="43.5522432" lon="12.6518875"><ele>245.0</ele><time>2026-05-02T12:12:24.189Z</time></trkpt><trkpt lat="43.5523881" lon="12.6519632"><ele>245.0</ele><time>2026-05-02T12:12:25.189Z</time></trkpt><trkpt lat="43.5525382" lon="12.6520491"><ele>245.0</ele><time>2026-05-02T12:12:26.19Z</time></trkpt><trkpt lat="43.5526907" lon="12.6521294"><ele>245.0</ele><time>2026-05-02T12:12:27.191Z</time></trkpt><trkpt lat="43.5528428" lon="12.6522044"><ele>245.0</ele><time>2026-05-02T12:12:28.196Z</time></trkpt><trkpt lat="43.5530031" lon="12.6522741"><ele>245.0</ele><time>2026-05-02T12:12:29.206Z</time></trkpt><trkpt lat="43.5531648" lon="12.6523233"><ele>245.0</ele><time>2026-05-02T12:12:30.215Z</time></trkpt><trkpt lat="43.553325" lon="12.6523629"><ele>245.0</ele><time>2026-05-02T12:12:31.188Z</time></trkpt><trkpt lat="43.5534942" lon="12.652397"><ele>245.0</ele><time>2026-05-02T12:12:32.185Z</time></trkpt><trkpt lat="43.5536547" lon="12.6524185"><ele>245.0</ele><time>2026-05-02T12:12:33.184Z</time></trkpt><trkpt lat="43.5538174" lon="12.6524243"><ele>245.33333333333334</ele><time>2026-05-02T12:12:34.184Z</time></trkpt><trkpt lat="43.5539857" lon="12.652426"><ele>245.66666666666669</ele><time>2026-05-02T12:12:35.197Z</time></trkpt><trkpt lat="43.5541599" lon="12.6524211"><ele>246.0</ele><time>2026-05-02T12:12:36.199Z</time></trkpt><trkpt lat="43.5543393" lon="12.6524148"><ele>246.0</ele><time>2026-05-02T12:12:37.187Z</time></trkpt><trkpt lat="43.5545186" lon="12.6523896"><ele>246.0</ele><time>2026-05-02T12:12:38.197Z</time></trkpt><trkpt lat="43.5546963" lon="12.652372"><ele>246.0</ele><time>2026-05-02T12:12:39.185Z</time></trkpt><trkpt lat="43.5548781" lon="12.6523548"><ele>245.66666666666669</ele><time>2026-05-02T12:12:40.188Z</time></trkpt><trkpt lat="43.5550567" lon="12.652335"><ele>245.33333333333334</ele><time>2026-05-02T12:12:41.2Z</time></trkpt><trkpt lat="43.5552325" lon="12.6523151"><ele>245.0</ele><time>2026-05-02T12:12:42.198Z</time></trkpt><trkpt lat="43.5554009" lon="12.6523024"><ele>244.66666666666669</ele><time>2026-05-02T12:12:43.189Z</time></trkpt><trkpt lat="43.5555674" lon="12.6522968"><ele>244.33333333333331</ele><time>2026-05-02T12:12:44.194Z</time></trkpt><trkpt lat="43.5557291" lon="12.6523207"><ele>244.0</ele><time>2026-05-02T12:12:45.196Z</time></trkpt><trkpt lat="43.5558902" lon="12.6523803"><ele>244.0</ele><time>2026-05-02T12:12:46.186Z</time></trkpt><trkpt lat="43.5560477" lon="12.6524685"><ele>244.0</ele><time>2026-05-02T12:12:47.192Z</time></trkpt><trkpt lat="43.55618" lon="12.6525896"><ele>244.0</ele><time>2026-05-02T12:12:48.204Z</time></trkpt><trkpt lat="43.5563079" lon="12.6527419"><ele>244.33333333333331</ele><time>2026-05-02T12:12:49.185Z</time></trkpt><trkpt lat="43.5564249" lon="12.6529036"><ele>244.66666666666669</ele><time>2026-05-02T12:12:50.19Z</time></trkpt><trkpt lat="43.5565504" lon="12.6530509"><ele>245.0</ele><time>2026-05-02T12:12:51.199Z</time></trkpt><trkpt lat="43.5566858" lon="12.6531832"><ele>245.0</ele><time>2026-05-02T12:12:52.181Z</time></trkpt><trkpt lat="43.5568386" lon="12.6532955"><ele>245.0</ele><time>2026-05-02T12:12:53.187Z</time></trkpt><trkpt lat="43.5569955" lon="12.6533972"><ele>245.0</ele><time>2026-05-02T12:12:54.177Z</time></trkpt><trkpt lat="43.5571527" lon="12.6535012"><ele>246.66666666666669</ele><time>2026-05-02T12:12:55.191Z</time></trkpt><trkpt lat="43.5572982" lon="12.6535929"><ele>248.33333333333331</ele><time>2026-05-02T12:12:56.187Z</time></trkpt><trkpt lat="43.5574408" lon="12.6536856"><ele>250.0</ele><time>2026-05-02T12:12:57.192Z</time></trkpt><trkpt lat="43.5575836" lon="12.653777"><ele>246.66666666666666</ele><time>2026-05-02T12:12:58.178Z</time></trkpt><trkpt lat="43.5577471" lon="12.6538536"><ele>243.33333333333331</ele><time>2026-05-02T12:12:59.193Z</time></trkpt><trkpt lat="43.557911" lon="12.6539226"><ele>240.0</ele><time>2026-05-02T12:13:00.189Z</time></trkpt><trkpt lat="43.5580754" lon="12.6539707"><ele>239.33333333333331</ele><time>2026-05-02T12:13:01.204Z</time></trkpt><trkpt lat="43.5582508" lon="12.6540128"><ele>238.66666666666666</ele><time>2026-05-02T12:13:02.192Z</time></trkpt><trkpt lat="43.5584281" lon="12.6540479"><ele>238.0</ele><time>2026-05-02T12:13:03.19Z</time></trkpt><trkpt lat="43.5586008" lon="12.6540846"><ele>238.66666666666666</ele><time>2026-05-02T12:13:04.199Z</time></trkpt><trkpt lat="43.5587727" lon="12.6541193"><ele>239.33333333333331</ele><time>2026-05-02T12:13:05.183Z</time></trkpt><trkpt lat="43.558951" lon="12.6541616"><ele>240.0</ele><time>2026-05-02T12:13:06.196Z</time></trkpt><trkpt lat="43.5591327" lon="12.6541968"><ele>240.0</ele><time>2026-05-02T12:13:07.189Z</time></trkpt><trkpt lat="43.5593215" lon="12.6542344"><ele>240.0</ele><time>2026-05-02T12:13:08.183Z</time></trkpt><trkpt lat="43.5594997" lon="12.6542589"><ele>240.0</ele><time>2026-05-02T12:13:09.192Z</time></trkpt><trkpt lat="43.5596771" lon="12.6542678"><ele>241.0</ele><time>2026-05-02T12:13:10.179Z</time></trkpt><trkpt lat="43.5598456" lon="12.6542678"><ele>242.0</ele><time>2026-05-02T12:13:11.188Z</time></trkpt><trkpt lat="43.5600065" lon="12.6542585"><ele>243.0</ele><time>2026-05-02T12:13:12.195Z</time></trkpt><trkpt lat="43.5601609" lon="12.6542509"><ele>243.0</ele><time>2026-05-02T12:13:13.182Z</time></trkpt><trkpt lat="43.5603049" lon="12.6542736"><ele>243.0</ele><time>2026-05-02T12:13:14.188Z</time></trkpt><trkpt lat="43.5604458" lon="12.6543285"><ele>243.0</ele><time>2026-05-02T12:13:15.193Z</time></trkpt><trkpt lat="43.5605732" lon="12.6543992"><ele>243.0</ele><time>2026-05-02T12:13:16.185Z</time></trkpt><trkpt lat="43.5606839" lon="12.6544902"><ele>241.0</ele><time>2026-05-02T12:13:17.194Z</time></trkpt><trkpt lat="43.5607875" lon="12.6546159"><ele>239.0</ele><time>2026-05-02T12:13:18.17Z</time></trkpt><trkpt lat="43.5609008" lon="12.6547662"><ele>237.0</ele><time>2026-05-02T12:13:19.194Z</time></trkpt><trkpt lat="43.5610048" lon="12.6549425"><ele>237.0</ele><time>2026-05-02T12:13:20.195Z</time></trkpt><trkpt lat="43.5611101" lon="12.6551366"><ele>237.0</ele><time>2026-05-02T12:13:21.194Z</time></trkpt><trkpt lat="43.5612115" lon="12.6553215"><ele>237.0</ele><time>2026-05-02T12:13:22.201Z</time></trkpt><trkpt lat="43.5613182" lon="12.6555"><ele>239.0</ele><time>2026-05-02T12:13:23.192Z</time></trkpt><trkpt lat="43.5614332" lon="12.6556721"><ele>241.0</ele><time>2026-05-02T12:13:24.202Z</time></trkpt><trkpt lat="43.5615464" lon="12.6558369"><ele>243.0</ele><time>2026-05-02T12:13:25.196Z</time></trkpt><trkpt lat="43.561671" lon="12.6559792"><ele>243.0</ele><time>2026-05-02T12:13:26.188Z</time></trkpt><trkpt lat="43.5617938" lon="12.6561041"><ele>243.0</ele><time>2026-05-02T12:13:27.196Z</time></trkpt><trkpt lat="43.5619263" lon="12.6562164"><ele>243.0</ele><time>2026-05-02T12:13:28.181Z</time></trkpt><trkpt lat="43.5620586" lon="12.6563273"><ele>242.75</ele><time>2026-05-02T12:13:29.188Z</time></trkpt><trkpt lat="43.562192" lon="12.6564463"><ele>242.5</ele><time>2026-05-02T12:13:30.18Z</time></trkpt><trkpt lat="43.5623153" lon="12.6565585"><ele>242.25</ele><time>2026-05-02T12:13:31.193Z</time></trkpt><trkpt lat="43.5624342" lon="12.6566518"><ele>242.0</ele><time>2026-05-02T12:13:32.202Z</time></trkpt><trkpt lat="43.5625589" lon="12.6566976"><ele>242.0</ele><time>2026-05-02T12:13:33.198Z</time></trkpt><trkpt lat="43.5626658" lon="12.6567062"><ele>242.0</ele><time>2026-05-02T12:13:34.204Z</time></trkpt><trkpt lat="43.5627558" lon="12.6566994"><ele>242.0</ele><time>2026-05-02T12:13:35.189Z</time></trkpt><trkpt lat="43.5628292" lon="12.6567191"><ele>242.0</ele><time>2026-05-02T12:13:36.198Z</time></trkpt><trkpt lat="43.5628967" lon="12.6568537"><ele>242.0</ele><time>2026-05-02T12:13:38.186Z</time></trkpt><trkpt lat="43.5628929" lon="12.6569526"><ele>243.0</ele><time>2026-05-02T12:13:39.193Z</time></trkpt><trkpt lat="43.5628919" lon="12.6570629"><ele>243.99999999999997</ele><time>2026-05-02T12:13:40.184Z</time></trkpt><trkpt lat="43.5629186" lon="12.6571608"><ele>245.0</ele><time>2026-05-02T12:13:41.171Z</time></trkpt><trkpt lat="43.562959" lon="12.6572356"><ele>246.0</ele><time>2026-05-02T12:13:42.18Z</time></trkpt><trkpt lat="43.563012" lon="12.6572867"><ele>246.99999999999997</ele><time>2026-05-02T12:13:43.213Z</time></trkpt><trkpt lat="43.5630748" lon="12.6573268"><ele>248.0</ele><time>2026-05-02T12:13:44.193Z</time></trkpt><trkpt lat="43.5631457" lon="12.657354"><ele>249.0</ele><time>2026-05-02T12:13:45.187Z</time></trkpt><trkpt lat="43.5632304" lon="12.6573833"><ele>249.0</ele><time>2026-05-02T12:13:46.205Z</time></trkpt><trkpt lat="43.5633339" lon="12.6574391"><ele>249.0</ele><time>2026-05-02T12:13:47.179Z</time></trkpt><trkpt lat="43.5634374" lon="12.6575541"><ele>249.0</ele><time>2026-05-02T12:13:48.192Z</time></trkpt><trkpt lat="43.5635513" lon="12.6576975"><ele>249.0</ele><time>2026-05-02T12:13:49.187Z</time></trkpt><trkpt lat="43.5636821" lon="12.6578448"><ele>249.66666666666669</ele><time>2026-05-02T12:13:50.189Z</time></trkpt><trkpt lat="43.563827" lon="12.6579827"><ele>250.33333333333334</ele><time>2026-05-02T12:13:51.201Z</time></trkpt><trkpt lat="43.563967" lon="12.6581235"><ele>251.0</ele><time>2026-05-02T12:13:52.186Z</time></trkpt><trkpt lat="43.5640872" lon="12.6582481"><ele>251.0</ele><time>2026-05-02T12:13:53.191Z</time></trkpt><trkpt lat="43.5641759" lon="12.6583443"><ele>251.00000000000003</ele><time>2026-05-02T12:13:54.192Z</time></trkpt><trkpt lat="43.5642305" lon="12.6584062"><ele>251.00000000000003</ele><time>2026-05-02T12:13:55.182Z</time></trkpt><trkpt lat="43.5642923" lon="12.6584817"><ele>251.0</ele><time>2026-05-02T12:13:57.173Z</time></trkpt><trkpt lat="43.5643422" lon="12.6585382"><ele>251.0</ele><time>2026-05-02T12:13:59.178Z</time></trkpt><trkpt lat="43.5644513" lon="12.6586341"><ele>251.0</ele><time>2026-05-02T12:14:01.195Z</time></trkpt><trkpt lat="43.5645518" lon="12.6587174"><ele>251.0</ele><time>2026-05-02T12:14:02.187Z</time></trkpt><trkpt lat="43.5646656" lon="12.6588163"><ele>251.0</ele><time>2026-05-02T12:14:03.196Z</time></trkpt><trkpt lat="43.5647913" lon="12.6589328"><ele>251.0</ele><time>2026-05-02T12:14:04.184Z</time></trkpt><trkpt lat="43.5649321" lon="12.6590489"><ele>251.0</ele><time>2026-05-02T12:14:05.185Z</time></trkpt><trkpt lat="43.5650805" lon="12.6591781"><ele>251.0</ele><time>2026-05-02T12:14:06.18Z</time></trkpt><trkpt lat="43.5652399" lon="12.6592928"><ele>251.0</ele><time>2026-05-02T12:14:07.186Z</time></trkpt><trkpt lat="43.5654086" lon="12.6594039"><ele>251.0</ele><time>2026-05-02T12:14:08.171Z</time></trkpt><trkpt lat="43.5655752" lon="12.659514"><ele>251.0</ele><time>2026-05-02T12:14:09.184Z</time></trkpt><trkpt lat="43.5657426" lon="12.6596266"><ele>251.0</ele><time>2026-05-02T12:14:10.215Z</time></trkpt><trkpt lat="43.5659126" lon="12.6597304"><ele>251.0</ele><time>2026-05-02T12:14:11.193Z</time></trkpt><trkpt lat="43.5660883" lon="12.6598391"><ele>251.0</ele><time>2026-05-02T12:14:12.181Z</time></trkpt><trkpt lat="43.5662629" lon="12.6599479"><ele>251.0</ele><time>2026-05-02T12:14:13.18Z</time></trkpt><trkpt lat="43.5664424" lon="12.6600576"><ele>251.66666666666669</ele><time>2026-05-02T12:14:14.198Z</time></trkpt><trkpt lat="43.5666261" lon="12.6601715"><ele>252.33333333333331</ele><time>2026-05-02T12:14:15.192Z</time></trkpt><trkpt lat="43.5668054" lon="12.6602818"><ele>253.0</ele><time>2026-05-02T12:14:16.191Z</time></trkpt><trkpt lat="43.5669793" lon="12.6603957"><ele>251.66666666666666</ele><time>2026-05-02T12:14:17.177Z</time></trkpt><trkpt lat="43.5671577" lon="12.6605141"><ele>250.33333333333331</ele><time>2026-05-02T12:14:18.171Z</time></trkpt><trkpt lat="43.5673419" lon="12.660632"><ele>249.0</ele><time>2026-05-02T12:14:19.17Z</time></trkpt><trkpt lat="43.5675225" lon="12.6607478"><ele>249.0</ele><time>2026-05-02T12:14:20.195Z</time></trkpt><trkpt lat="43.5677033" lon="12.660873"><ele>249.0</ele><time>2026-05-02T12:14:21.199Z</time></trkpt><trkpt lat="43.567881" lon="12.6609942"><ele>249.0</ele><time>2026-05-02T12:14:22.196Z</time></trkpt><trkpt lat="43.5680641" lon="12.6611093"><ele>248.0</ele><time>2026-05-02T12:14:23.184Z</time></trkpt><trkpt lat="43.5682477" lon="12.6612332"><ele>247.0</ele><time>2026-05-02T12:14:24.202Z</time></trkpt><trkpt lat="43.568428" lon="12.6613618"><ele>246.0</ele><time>2026-05-02T12:14:25.185Z</time></trkpt><trkpt lat="43.5686058" lon="12.6614866"><ele>246.33333333333331</ele><time>2026-05-02T12:14:26.192Z</time></trkpt><trkpt lat="43.5687862" lon="12.6616153"><ele>246.66666666666666</ele><time>2026-05-02T12:14:27.193Z</time></trkpt><trkpt lat="43.5689667" lon="12.6617471"><ele>247.0</ele><time>2026-05-02T12:14:28.177Z</time></trkpt><trkpt lat="43.5691455" lon="12.6618815"><ele>246.66666666666666</ele><time>2026-05-02T12:14:29.196Z</time></trkpt><trkpt lat="43.5693275" lon="12.6620183"><ele>246.33333333333331</ele><time>2026-05-02T12:14:30.19Z</time></trkpt><trkpt lat="43.5695068" lon="12.6621532"><ele>246.0</ele><time>2026-05-02T12:14:31.185Z</time></trkpt><trkpt lat="43.5696832" lon="12.6622871"><ele>246.0</ele><time>2026-05-02T12:14:32.196Z</time></trkpt><trkpt lat="43.569867" lon="12.6624189"><ele>246.0</ele><time>2026-05-02T12:14:33.183Z</time></trkpt><trkpt lat="43.570046" lon="12.6625558"><ele>246.0</ele><time>2026-05-02T12:14:34.189Z</time></trkpt><trkpt lat="43.5702266" lon="12.6626975"><ele>244.33333333333331</ele><time>2026-05-02T12:14:35.188Z</time></trkpt><trkpt lat="43.570411" lon="12.6628468"><ele>242.66666666666666</ele><time>2026-05-02T12:14:36.199Z</time></trkpt><trkpt lat="43.5705976" lon="12.662993"><ele>241.0</ele><time>2026-05-02T12:14:37.197Z</time></trkpt><trkpt lat="43.5707852" lon="12.6631287"><ele>241.0</ele><time>2026-05-02T12:14:38.169Z</time></trkpt><trkpt lat="43.5709727" lon="12.6632687"><ele>241.0</ele><time>2026-05-02T12:14:39.199Z</time></trkpt><trkpt lat="43.5711643" lon="12.6634057"><ele>241.0</ele><time>2026-05-02T12:14:40.204Z</time></trkpt><trkpt lat="43.5713495" lon="12.6635441"><ele>240.66666666666666</ele><time>2026-05-02T12:14:41.191Z</time></trkpt><trkpt lat="43.5715334" lon="12.6636884"><ele>240.33333333333331</ele><time>2026-05-02T12:14:42.186Z</time></trkpt><trkpt lat="43.5717179" lon="12.6638261"><ele>240.0</ele><time>2026-05-02T12:14:43.173Z</time></trkpt><trkpt lat="43.5719011" lon="12.6639706"><ele>240.0</ele><time>2026-05-02T12:14:44.184Z</time></trkpt><trkpt lat="43.5720894" lon="12.6641133"><ele>240.0</ele><time>2026-05-02T12:14:45.195Z</time></trkpt><trkpt lat="43.5722744" lon="12.664254"><ele>240.0</ele><time>2026-05-02T12:14:46.205Z</time></trkpt><trkpt lat="43.5724625" lon="12.6643929"><ele>238.0</ele><time>2026-05-02T12:14:47.188Z</time></trkpt><trkpt lat="43.5726498" lon="12.6645282"><ele>236.0</ele><time>2026-05-02T12:14:48.187Z</time></trkpt><trkpt lat="43.5728289" lon="12.6646614"><ele>234.0</ele><time>2026-05-02T12:14:49.181Z</time></trkpt><trkpt lat="43.5730105" lon="12.6647984"><ele>233.66666666666669</ele><time>2026-05-02T12:14:50.174Z</time></trkpt><trkpt lat="43.5731919" lon="12.6649368"><ele>233.33333333333334</ele><time>2026-05-02T12:14:51.199Z</time></trkpt><trkpt lat="43.5733735" lon="12.6650719"><ele>233.0</ele><time>2026-05-02T12:14:52.195Z</time></trkpt><trkpt lat="43.5735548" lon="12.6652016"><ele>234.66666666666669</ele><time>2026-05-02T12:14:53.188Z</time></trkpt><trkpt lat="43.5737393" lon="12.6653333"><ele>236.33333333333331</ele><time>2026-05-02T12:14:54.202Z</time></trkpt><trkpt lat="43.5739297" lon="12.6654648"><ele>238.0</ele><time>2026-05-02T12:14:55.189Z</time></trkpt><trkpt lat="43.574123" lon="12.6656056"><ele>238.0</ele><time>2026-05-02T12:14:56.187Z</time></trkpt><trkpt lat="43.5743127" lon="12.6657542"><ele>238.0</ele><time>2026-05-02T12:14:57.202Z</time></trkpt><trkpt lat="43.5745048" lon="12.6659009"><ele>238.0</ele><time>2026-05-02T12:14:58.194Z</time></trkpt><trkpt lat="43.5746966" lon="12.6660452"><ele>237.33333333333331</ele><time>2026-05-02T12:14:59.19Z</time></trkpt><trkpt lat="43.5748835" lon="12.6661878"><ele>236.66666666666669</ele><time>2026-05-02T12:15:00.176Z</time></trkpt><trkpt lat="43.5750705" lon="12.6663302"><ele>236.0</ele><time>2026-05-02T12:15:01.191Z</time></trkpt><trkpt lat="43.5752553" lon="12.6664711"><ele>237.0</ele><time>2026-05-02T12:15:02.205Z</time></trkpt><trkpt lat="43.5754399" lon="12.6666087"><ele>238.0</ele><time>2026-05-02T12:15:03.195Z</time></trkpt><trkpt lat="43.5756182" lon="12.6667415"><ele>239.0</ele><time>2026-05-02T12:15:04.167Z</time></trkpt><trkpt lat="43.5757998" lon="12.6668762"><ele>238.33333333333334</ele><time>2026-05-02T12:15:05.188Z</time></trkpt><trkpt lat="43.5759748" lon="12.6670132"><ele>237.66666666666669</ele><time>2026-05-02T12:15:06.183Z</time></trkpt><trkpt lat="43.5761558" lon="12.6671447"><ele>237.0</ele><time>2026-05-02T12:15:07.192Z</time></trkpt><trkpt lat="43.576334" lon="12.6672753"><ele>236.66666666666669</ele><time>2026-05-02T12:15:08.201Z</time></trkpt><trkpt lat="43.5765042" lon="12.6674013"><ele>236.33333333333334</ele><time>2026-05-02T12:15:09.178Z</time></trkpt><trkpt lat="43.5766745" lon="12.6675313"><ele>236.0</ele><time>2026-05-02T12:15:10.189Z</time></trkpt><trkpt lat="43.5768336" lon="12.6676524"><ele>236.0</ele><time>2026-05-02T12:15:11.183Z</time></trkpt><trkpt lat="43.5769848" lon="12.6677649"><ele>236.0</ele><time>2026-05-02T12:15:12.191Z</time></trkpt><trkpt lat="43.5771347" lon="12.6678722"><ele>236.0</ele><time>2026-05-02T12:15:13.195Z</time></trkpt><trkpt lat="43.5772874" lon="12.667985"><ele>235.33333333333334</ele><time>2026-05-02T12:15:14.18Z</time></trkpt><trkpt lat="43.5774411" lon="12.668096"><ele>234.66666666666669</ele><time>2026-05-02T12:15:15.194Z</time></trkpt><trkpt lat="43.5775886" lon="12.6682036"><ele>234.0</ele><time>2026-05-02T12:15:16.192Z</time></trkpt><trkpt lat="43.577728" lon="12.6683044"><ele>234.0</ele><time>2026-05-02T12:15:17.194Z</time></trkpt><trkpt lat="43.5778559" lon="12.6684016"><ele>234.0</ele><time>2026-05-02T12:15:18.186Z</time></trkpt><trkpt lat="43.5779746" lon="12.6684928"><ele>234.0</ele><time>2026-05-02T12:15:19.183Z</time></trkpt><trkpt lat="43.5780791" lon="12.6685742"><ele>234.0</ele><time>2026-05-02T12:15:20.189Z</time></trkpt><trkpt lat="43.5781821" lon="12.668649"><ele>234.0</ele><time>2026-05-02T12:15:21.193Z</time></trkpt><trkpt lat="43.5782775" lon="12.6687183"><ele>234.0</ele><time>2026-05-02T12:15:22.186Z</time></trkpt><trkpt lat="43.57837" lon="12.6687853"><ele>234.0</ele><time>2026-05-02T12:15:23.195Z</time></trkpt><trkpt lat="43.5784691" lon="12.668868"><ele>234.0</ele><time>2026-05-02T12:15:24.207Z</time></trkpt><trkpt lat="43.5785764" lon="12.6689514"><ele>235.25</ele><time>2026-05-02T12:15:25.192Z</time></trkpt><trkpt lat="43.5786977" lon="12.6690405"><ele>236.5</ele><time>2026-05-02T12:15:26.196Z</time></trkpt><trkpt lat="43.5788277" lon="12.6691333"><ele>237.75</ele><time>2026-05-02T12:15:27.186Z</time></trkpt><trkpt lat="43.5789509" lon="12.6692272"><ele>239.0</ele><time>2026-05-02T12:15:28.184Z</time></trkpt><trkpt lat="43.5790706" lon="12.6693241"><ele>239.0</ele><time>2026-05-02T12:15:29.188Z</time></trkpt><trkpt lat="43.5791953" lon="12.6694221"><ele>239.0</ele><time>2026-05-02T12:15:30.202Z</time></trkpt><trkpt lat="43.5793204" lon="12.6695205"><ele>239.0</ele><time>2026-05-02T12:15:31.183Z</time></trkpt><trkpt lat="43.5794488" lon="12.6696235"><ele>239.0</ele><time>2026-05-02T12:15:32.188Z</time></trkpt><trkpt lat="43.5795738" lon="12.6697222"><ele>237.0</ele><time>2026-05-02T12:15:33.199Z</time></trkpt><trkpt lat="43.5797046" lon="12.6698228"><ele>235.0</ele><time>2026-05-02T12:15:34.186Z</time></trkpt><trkpt lat="43.5798391" lon="12.6699271"><ele>233.0</ele><time>2026-05-02T12:15:35.189Z</time></trkpt><trkpt lat="43.579968" lon="12.6700205"><ele>233.0</ele><time>2026-05-02T12:15:36.179Z</time></trkpt><trkpt lat="43.5800861" lon="12.6701101"><ele>233.0</ele><time>2026-05-02T12:15:37.195Z</time></trkpt><trkpt lat="43.5801992" lon="12.670192"><ele>233.0</ele><time>2026-05-02T12:15:38.195Z</time></trkpt><trkpt lat="43.5803043" lon="12.6702692"><ele>233.0</ele><time>2026-05-02T12:15:39.196Z</time></trkpt><trkpt lat="43.5804047" lon="12.6703418"><ele>232.60000000000002</ele><time>2026-05-02T12:15:40.179Z</time></trkpt><trkpt lat="43.5804963" lon="12.6704075"><ele>232.20000000000002</ele><time>2026-05-02T12:15:41.205Z</time></trkpt><trkpt lat="43.5805791" lon="12.6704784"><ele>231.8</ele><time>2026-05-02T12:15:42.192Z</time></trkpt><trkpt lat="43.5806495" lon="12.6705261"><ele>231.4</ele><time>2026-05-02T12:15:43.198Z</time></trkpt><trkpt lat="43.5807683" lon="12.670552"><ele>231.0</ele><time>2026-05-02T12:15:45.184Z</time></trkpt><trkpt lat="43.5808586" lon="12.6704339"><ele>231.0</ele><time>2026-05-02T12:15:47.183Z</time></trkpt><trkpt lat="43.580898" lon="12.670353"><ele>231.0</ele><time>2026-05-02T12:15:48.183Z</time></trkpt><trkpt lat="43.5809347" lon="12.6702751"><ele>231.0</ele><time>2026-05-02T12:15:49.199Z</time></trkpt><trkpt lat="43.5809656" lon="12.6701966"><ele>231.0</ele><time>2026-05-02T12:15:50.168Z</time></trkpt><trkpt lat="43.5810175" lon="12.6700679"><ele>231.0</ele><time>2026-05-02T12:15:52.179Z</time></trkpt><trkpt lat="43.5810303" lon="12.6699571"><ele>231.0</ele><time>2026-05-02T12:15:54.172Z</time></trkpt><trkpt lat="43.580944" lon="12.6699478"><ele>231.0</ele><time>2026-05-02T12:15:57.17Z</time></trkpt><trkpt lat="43.5809052" lon="12.6700221"><ele>231.0</ele><time>2026-05-02T12:15:58.195Z</time></trkpt><trkpt lat="43.5808759" lon="12.670106"><ele>231.0</ele><time>2026-05-02T12:15:59.187Z</time></trkpt><trkpt lat="43.5808494" lon="12.6702022"><ele>231.0</ele><time>2026-05-02T12:16:00.179Z</time></trkpt><trkpt lat="43.5808237" lon="12.6702938"><ele>231.0</ele><time>2026-05-02T12:16:01.192Z</time></trkpt><trkpt lat="43.5807937" lon="12.6703764"><ele>231.0</ele><time>2026-05-02T12:16:02.189Z</time></trkpt><trkpt lat="43.5807425" lon="12.6704831"><ele>231.0</ele><time>2026-05-02T12:16:04.199Z</time></trkpt><trkpt lat="43.5807452" lon="12.6705814"><ele>231.0</ele><time>2026-05-02T12:16:07.188Z</time></trkpt><trkpt lat="43.5808041" lon="12.6706332"><ele>231.00000000000003</ele><time>2026-05-02T12:16:08.185Z</time></trkpt><trkpt lat="43.5808816" lon="12.6706999"><ele>231.00000000000003</ele><time>2026-05-02T12:16:09.183Z</time></trkpt><trkpt lat="43.5809971" lon="12.6707752"><ele>231.0</ele><time>2026-05-02T12:16:10.184Z</time></trkpt><trkpt lat="43.5811255" lon="12.6708745"><ele>231.0</ele><time>2026-05-02T12:16:11.191Z</time></trkpt><trkpt lat="43.5812659" lon="12.6709895"><ele>230.33333333333331</ele><time>2026-05-02T12:16:12.199Z</time></trkpt><trkpt lat="43.5814321" lon="12.6711159"><ele>229.66666666666666</ele><time>2026-05-02T12:16:13.185Z</time></trkpt><trkpt lat="43.5816121" lon="12.6712459"><ele>229.0</ele><time>2026-05-02T12:16:14.173Z</time></trkpt><trkpt lat="43.5817998" lon="12.6713955"><ele>229.0</ele><time>2026-05-02T12:16:15.2Z</time></trkpt><trkpt lat="43.5820075" lon="12.6715454"><ele>229.0</ele><time>2026-05-02T12:16:16.193Z</time></trkpt><trkpt lat="43.5822107" lon="12.6716954"><ele>228.0</ele><time>2026-05-02T12:16:17.188Z</time></trkpt><trkpt lat="43.5824093" lon="12.6718465"><ele>227.0</ele><time>2026-05-02T12:16:18.2Z</time></trkpt><trkpt lat="43.582609" lon="12.6720005"><ele>227.0</ele><time>2026-05-02T12:16:19.209Z</time></trkpt><trkpt lat="43.5828064" lon="12.672148"><ele>227.0</ele><time>2026-05-02T12:16:20.178Z</time></trkpt><trkpt lat="43.5830041" lon="12.6723015"><ele>228.5</ele><time>2026-05-02T12:16:21.197Z</time></trkpt><trkpt lat="43.5832086" lon="12.6724497"><ele>230.0</ele><time>2026-05-02T12:16:22.178Z</time></trkpt><trkpt lat="43.5834101" lon="12.6725897"><ele>230.0</ele><time>2026-05-02T12:16:23.202Z</time></trkpt><trkpt lat="43.5836158" lon="12.6727209"><ele>230.0</ele><time>2026-05-02T12:16:24.203Z</time></trkpt><trkpt lat="43.583831" lon="12.6728452"><ele>228.5</ele><time>2026-05-02T12:16:25.205Z</time></trkpt><trkpt lat="43.5840431" lon="12.6729634"><ele>227.0</ele><time>2026-05-02T12:16:26.2Z</time></trkpt><trkpt lat="43.5842527" lon="12.6730725"><ele>227.0</ele><time>2026-05-02T12:16:27.202Z</time></trkpt><trkpt lat="43.5844726" lon="12.6731707"><ele>227.0</ele><time>2026-05-02T12:16:28.193Z</time></trkpt><trkpt lat="43.5846886" lon="12.6732669"><ele>227.0</ele><time>2026-05-02T12:16:29.189Z</time></trkpt><trkpt lat="43.5849015" lon="12.6733609"><ele>227.0</ele><time>2026-05-02T12:16:30.196Z</time></trkpt><trkpt lat="43.5851189" lon="12.6734491"><ele>227.0</ele><time>2026-05-02T12:16:31.201Z</time></trkpt><trkpt lat="43.5853372" lon="12.6735315"><ele>227.0</ele><time>2026-05-02T12:16:32.194Z</time></trkpt><trkpt lat="43.5855566" lon="12.6736108"><ele>221.5</ele><time>2026-05-02T12:16:33.17Z</time></trkpt><trkpt lat="43.5857803" lon="12.6736937"><ele>216.0</ele><time>2026-05-02T12:16:34.188Z</time></trkpt><trkpt lat="43.5859992" lon="12.6737755"><ele>219.0</ele><time>2026-05-02T12:16:35.192Z</time></trkpt><trkpt lat="43.5862222" lon="12.6738575"><ele>222.0</ele><time>2026-05-02T12:16:36.181Z</time></trkpt><trkpt lat="43.5864401" lon="12.6739344"><ele>222.0</ele><time>2026-05-02T12:16:37.197Z</time></trkpt><trkpt lat="43.5866608" lon="12.6740131"><ele>222.0</ele><time>2026-05-02T12:16:38.193Z</time></trkpt><trkpt lat="43.5868838" lon="12.6740943"><ele>225.0</ele><time>2026-05-02T12:16:39.191Z</time></trkpt><trkpt lat="43.5871057" lon="12.6741718"><ele>228.0</ele><time>2026-05-02T12:16:40.189Z</time></trkpt><trkpt lat="43.5873313" lon="12.6742573"><ele>228.0</ele><time>2026-05-02T12:16:41.192Z</time></trkpt><trkpt lat="43.5875576" lon="12.6743388"><ele>228.0</ele><time>2026-05-02T12:16:42.192Z</time></trkpt><trkpt lat="43.5877705" lon="12.674418"><ele>224.33333333333331</ele><time>2026-05-02T12:16:43.194Z</time></trkpt><trkpt lat="43.5879803" lon="12.6744961"><ele>220.66666666666666</ele><time>2026-05-02T12:16:44.196Z</time></trkpt><trkpt lat="43.5881905" lon="12.6745749"><ele>217.0</ele><time>2026-05-02T12:16:45.198Z</time></trkpt><trkpt lat="43.5884041" lon="12.6746522"><ele>217.0</ele><time>2026-05-02T12:16:46.198Z</time></trkpt><trkpt lat="43.5886107" lon="12.674731"><ele>217.0</ele><time>2026-05-02T12:16:47.17Z</time></trkpt><trkpt lat="43.5888068" lon="12.6747986"><ele>217.0</ele><time>2026-05-02T12:16:48.159Z</time></trkpt><trkpt lat="43.5890036" lon="12.6748716"><ele>220.33333333333331</ele><time>2026-05-02T12:16:49.153Z</time></trkpt><trkpt lat="43.5891995" lon="12.6749432"><ele>223.66666666666669</ele><time>2026-05-02T12:16:50.166Z</time></trkpt><trkpt lat="43.5894008" lon="12.6750162"><ele>227.0</ele><time>2026-05-02T12:16:51.183Z</time></trkpt><trkpt lat="43.5896003" lon="12.6750899"><ele>227.0</ele><time>2026-05-02T12:16:52.187Z</time></trkpt><trkpt lat="43.5898002" lon="12.6751626"><ele>227.0</ele><time>2026-05-02T12:16:53.184Z</time></trkpt><trkpt lat="43.5899968" lon="12.6752412"><ele>227.0</ele><time>2026-05-02T12:16:54.19Z</time></trkpt><trkpt lat="43.5901974" lon="12.6753208"><ele>224.33333333333334</ele><time>2026-05-02T12:16:55.195Z</time></trkpt><trkpt lat="43.5903974" lon="12.6753931"><ele>221.66666666666669</ele><time>2026-05-02T12:16:56.168Z</time></trkpt><trkpt lat="43.5905976" lon="12.6754674"><ele>219.0</ele><time>2026-05-02T12:16:57.182Z</time></trkpt><trkpt lat="43.5907931" lon="12.6755364"><ele>219.0</ele><time>2026-05-02T12:16:58.178Z</time></trkpt><trkpt lat="43.5909821" lon="12.6756059"><ele>219.0</ele><time>2026-05-02T12:16:59.187Z</time></trkpt><trkpt lat="43.5911646" lon="12.6756719"><ele>219.0</ele><time>2026-05-02T12:17:00.185Z</time></trkpt><trkpt lat="43.5913427" lon="12.6757366"><ele>220.33333333333331</ele><time>2026-05-02T12:17:01.193Z</time></trkpt><trkpt lat="43.5915082" lon="12.6757962"><ele>221.66666666666666</ele><time>2026-05-02T12:17:02.189Z</time></trkpt><trkpt lat="43.5916648" lon="12.6758576"><ele>223.0</ele><time>2026-05-02T12:17:03.192Z</time></trkpt><trkpt lat="43.5918159" lon="12.6759109"><ele>223.0</ele><time>2026-05-02T12:17:04.175Z</time></trkpt><trkpt lat="43.5919592" lon="12.6759618"><ele>223.0</ele><time>2026-05-02T12:17:05.194Z</time></trkpt><trkpt lat="43.5920959" lon="12.6760085"><ele>223.0</ele><time>2026-05-02T12:17:06.19Z</time></trkpt><trkpt lat="43.5922422" lon="12.6760484"><ele>223.0</ele><time>2026-05-02T12:17:07.168Z</time></trkpt><trkpt lat="43.592403" lon="12.6760888"><ele>221.0</ele><time>2026-05-02T12:17:08.192Z</time></trkpt><trkpt lat="43.5925677" lon="12.6761206"><ele>219.0</ele><time>2026-05-02T12:17:09.184Z</time></trkpt><trkpt lat="43.5927262" lon="12.6761491"><ele>217.0</ele><time>2026-05-02T12:17:10.177Z</time></trkpt><trkpt lat="43.592877" lon="12.6761657"><ele>217.0</ele><time>2026-05-02T12:17:11.189Z</time></trkpt><trkpt lat="43.5930319" lon="12.6761783"><ele>217.0</ele><time>2026-05-02T12:17:12.19Z</time></trkpt><trkpt lat="43.5931952" lon="12.6761894"><ele>217.0</ele><time>2026-05-02T12:17:13.178Z</time></trkpt><trkpt lat="43.5933701" lon="12.676195"><ele>217.0</ele><time>2026-05-02T12:17:14.182Z</time></trkpt><trkpt lat="43.5935472" lon="12.6761958"><ele>217.0</ele><time>2026-05-02T12:17:15.185Z</time></trkpt><trkpt lat="43.5937246" lon="12.6761977"><ele>217.0</ele><time>2026-05-02T12:17:16.19Z</time></trkpt><trkpt lat="43.5938987" lon="12.6761957"><ele>217.66666666666666</ele><time>2026-05-02T12:17:17.169Z</time></trkpt><trkpt lat="43.5940772" lon="12.6761935"><ele>218.33333333333331</ele><time>2026-05-02T12:17:18.183Z</time></trkpt><trkpt lat="43.5942569" lon="12.6761931"><ele>219.0</ele><time>2026-05-02T12:17:19.178Z</time></trkpt><trkpt lat="43.5944404" lon="12.6761898"><ele>219.66666666666669</ele><time>2026-05-02T12:17:20.165Z</time></trkpt><trkpt lat="43.5946301" lon="12.6761795"><ele>220.33333333333334</ele><time>2026-05-02T12:17:21.174Z</time></trkpt><trkpt lat="43.5948202" lon="12.676174"><ele>221.0</ele><time>2026-05-02T12:17:22.17Z</time></trkpt><trkpt lat="43.5950147" lon="12.6761746"><ele>221.0</ele><time>2026-05-02T12:17:23.163Z</time></trkpt><trkpt lat="43.5952093" lon="12.6761712"><ele>221.0</ele><time>2026-05-02T12:17:24.206Z</time></trkpt><trkpt lat="43.5953981" lon="12.6761711"><ele>221.0</ele><time>2026-05-02T12:17:25.184Z</time></trkpt><trkpt lat="43.5955878" lon="12.6761668"><ele>220.66666666666669</ele><time>2026-05-02T12:17:26.202Z</time></trkpt><trkpt lat="43.5957788" lon="12.6761614"><ele>220.33333333333331</ele><time>2026-05-02T12:17:27.176Z</time></trkpt><trkpt lat="43.5959843" lon="12.6761636"><ele>220.0</ele><time>2026-05-02T12:17:28.166Z</time></trkpt><trkpt lat="43.5961905" lon="12.6761607"><ele>217.66666666666666</ele><time>2026-05-02T12:17:29.181Z</time></trkpt><trkpt lat="43.5963985" lon="12.6761593"><ele>215.33333333333331</ele><time>2026-05-02T12:17:30.181Z</time></trkpt><trkpt lat="43.5966106" lon="12.6761568"><ele>213.0</ele><time>2026-05-02T12:17:31.183Z</time></trkpt><trkpt lat="43.5968197" lon="12.6761564"><ele>212.0</ele><time>2026-05-02T12:17:32.18Z</time></trkpt><trkpt lat="43.5970295" lon="12.6761517"><ele>211.0</ele><time>2026-05-02T12:17:33.195Z</time></trkpt><trkpt lat="43.5972483" lon="12.6761538"><ele>210.0</ele><time>2026-05-02T12:17:34.198Z</time></trkpt><trkpt lat="43.5974656" lon="12.6761497"><ele>210.0</ele><time>2026-05-02T12:17:35.19Z</time></trkpt><trkpt lat="43.5976836" lon="12.676146"><ele>210.0</ele><time>2026-05-02T12:17:36.205Z</time></trkpt><trkpt lat="43.5978956" lon="12.6761398"><ele>210.0</ele><time>2026-05-02T12:17:37.191Z</time></trkpt><trkpt lat="43.5981088" lon="12.6761377"><ele>209.66666666666669</ele><time>2026-05-02T12:17:38.188Z</time></trkpt><trkpt lat="43.5983173" lon="12.6761336"><ele>209.33333333333334</ele><time>2026-05-02T12:17:39.191Z</time></trkpt><trkpt lat="43.5985252" lon="12.6761285"><ele>209.0</ele><time>2026-05-02T12:17:40.185Z</time></trkpt><trkpt lat="43.5987377" lon="12.6761277"><ele>209.66666666666669</ele><time>2026-05-02T12:17:41.195Z</time></trkpt><trkpt lat="43.5989487" lon="12.6761227"><ele>210.33333333333331</ele><time>2026-05-02T12:17:42.185Z</time></trkpt><trkpt lat="43.599158" lon="12.6761212"><ele>211.0</ele><time>2026-05-02T12:17:43.183Z</time></trkpt><trkpt lat="43.5993666" lon="12.6761183"><ele>210.0</ele><time>2026-05-02T12:17:44.194Z</time></trkpt><trkpt lat="43.5995771" lon="12.6761118"><ele>209.0</ele><time>2026-05-02T12:17:45.177Z</time></trkpt><trkpt lat="43.599789" lon="12.6761009"><ele>208.0</ele><time>2026-05-02T12:17:46.2Z</time></trkpt><trkpt lat="43.6000015" lon="12.6760916"><ele>210.0</ele><time>2026-05-02T12:17:47.189Z</time></trkpt><trkpt lat="43.6002093" lon="12.676085"><ele>212.0</ele><time>2026-05-02T12:17:48.185Z</time></trkpt><trkpt lat="43.6004167" lon="12.6760773"><ele>214.0</ele><time>2026-05-02T12:17:49.195Z</time></trkpt><trkpt lat="43.6006243" lon="12.6760724"><ele>214.0</ele><time>2026-05-02T12:17:50.182Z</time></trkpt><trkpt lat="43.6008263" lon="12.6760714"><ele>214.0</ele><time>2026-05-02T12:17:51.156Z</time></trkpt><trkpt lat="43.6010242" lon="12.6760724"><ele>214.0</ele><time>2026-05-02T12:17:52.183Z</time></trkpt><trkpt lat="43.6012169" lon="12.6760768"><ele>213.33333333333331</ele><time>2026-05-02T12:17:53.198Z</time></trkpt><trkpt lat="43.6014129" lon="12.6760806"><ele>212.66666666666669</ele><time>2026-05-02T12:17:54.19Z</time></trkpt><trkpt lat="43.6016092" lon="12.6760849"><ele>212.0</ele><time>2026-05-02T12:17:55.187Z</time></trkpt><trkpt lat="43.6018056" lon="12.676088"><ele>211.33333333333334</ele><time>2026-05-02T12:17:56.199Z</time></trkpt><trkpt lat="43.6020043" lon="12.6760956"><ele>210.66666666666669</ele><time>2026-05-02T12:17:57.177Z</time></trkpt><trkpt lat="43.6021941" lon="12.6761026"><ele>210.0</ele><time>2026-05-02T12:17:58.201Z</time></trkpt><trkpt lat="43.602386" lon="12.6761082"><ele>209.66666666666669</ele><time>2026-05-02T12:17:59.188Z</time></trkpt><trkpt lat="43.6025797" lon="12.6761113"><ele>209.33333333333334</ele><time>2026-05-02T12:18:00.185Z</time></trkpt><trkpt lat="43.6027732" lon="12.6761096"><ele>209.0</ele><time>2026-05-02T12:18:01.196Z</time></trkpt><trkpt lat="43.6029682" lon="12.6761009"><ele>209.66666666666669</ele><time>2026-05-02T12:18:02.185Z</time></trkpt><trkpt lat="43.6031639" lon="12.6760863"><ele>210.33333333333331</ele><time>2026-05-02T12:18:03.185Z</time></trkpt><trkpt lat="43.603361" lon="12.6760735"><ele>211.0</ele><time>2026-05-02T12:18:04.179Z</time></trkpt><trkpt lat="43.6035545" lon="12.676062"><ele>211.0</ele><time>2026-05-02T12:18:05.19Z</time></trkpt><trkpt lat="43.6037379" lon="12.6760507"><ele>211.0</ele><time>2026-05-02T12:18:06.176Z</time></trkpt><trkpt lat="43.6039196" lon="12.6760416"><ele>211.0</ele><time>2026-05-02T12:18:07.184Z</time></trkpt><trkpt lat="43.6040934" lon="12.6760313"><ele>211.0</ele><time>2026-05-02T12:18:08.188Z</time></trkpt><trkpt lat="43.604264" lon="12.6760238"><ele>211.0</ele><time>2026-05-02T12:18:09.178Z</time></trkpt><trkpt lat="43.6044287" lon="12.6760109"><ele>211.0</ele><time>2026-05-02T12:18:10.192Z</time></trkpt><trkpt lat="43.6045974" lon="12.6759994"><ele>209.66666666666666</ele><time>2026-05-02T12:18:11.177Z</time></trkpt><trkpt lat="43.6047668" lon="12.6759867"><ele>208.33333333333331</ele><time>2026-05-02T12:18:12.173Z</time></trkpt><trkpt lat="43.6049362" lon="12.6759775"><ele>207.0</ele><time>2026-05-02T12:18:13.183Z</time></trkpt><trkpt lat="43.605104" lon="12.6759688"><ele>207.0</ele><time>2026-05-02T12:18:14.173Z</time></trkpt><trkpt lat="43.6052719" lon="12.6759649"><ele>207.0</ele><time>2026-05-02T12:18:15.175Z</time></trkpt><trkpt lat="43.6054456" lon="12.6759507"><ele>207.0</ele><time>2026-05-02T12:18:16.17Z</time></trkpt><trkpt lat="43.6056236" lon="12.6759374"><ele>207.0</ele><time>2026-05-02T12:18:17.182Z</time></trkpt><trkpt lat="43.6058069" lon="12.6759243"><ele>207.0</ele><time>2026-05-02T12:18:18.2Z</time></trkpt><trkpt lat="43.6059921" lon="12.675918"><ele>207.0</ele><time>2026-05-02T12:18:19.18Z</time></trkpt><trkpt lat="43.6061832" lon="12.6759089"><ele>206.0</ele><time>2026-05-02T12:18:20.19Z</time></trkpt><trkpt lat="43.6063805" lon="12.6758951"><ele>205.0</ele><time>2026-05-02T12:18:21.192Z</time></trkpt><trkpt lat="43.6065761" lon="12.6758808"><ele>204.0</ele><time>2026-05-02T12:18:22.194Z</time></trkpt><trkpt lat="43.6067685" lon="12.6758623"><ele>204.0</ele><time>2026-05-02T12:18:23.185Z</time></trkpt><trkpt lat="43.6069661" lon="12.6758476"><ele>204.0</ele><time>2026-05-02T12:18:24.184Z</time></trkpt><trkpt lat="43.6071592" lon="12.6758316"><ele>204.0</ele><time>2026-05-02T12:18:25.185Z</time></trkpt><trkpt lat="43.607348" lon="12.6758239"><ele>203.66666666666669</ele><time>2026-05-02T12:18:26.182Z</time></trkpt><trkpt lat="43.6075386" lon="12.6758163"><ele>203.33333333333334</ele><time>2026-05-02T12:18:27.192Z</time></trkpt><trkpt lat="43.6077322" lon="12.6758106"><ele>203.0</ele><time>2026-05-02T12:18:28.203Z</time></trkpt><trkpt lat="43.6079236" lon="12.6757968"><ele>203.0</ele><time>2026-05-02T12:18:29.183Z</time></trkpt><trkpt lat="43.6081193" lon="12.6757812"><ele>203.0</ele><time>2026-05-02T12:18:30.192Z</time></trkpt><trkpt lat="43.60832" lon="12.6757611"><ele>203.0</ele><time>2026-05-02T12:18:31.193Z</time></trkpt><trkpt lat="43.6085128" lon="12.6757467"><ele>203.33333333333334</ele><time>2026-05-02T12:18:32.194Z</time></trkpt><trkpt lat="43.6086985" lon="12.675732"><ele>203.66666666666669</ele><time>2026-05-02T12:18:33.193Z</time></trkpt><trkpt lat="43.6088754" lon="12.6757308"><ele>204.0</ele><time>2026-05-02T12:18:34.182Z</time></trkpt><trkpt lat="43.6090396" lon="12.6757279"><ele>204.0</ele><time>2026-05-02T12:18:35.186Z</time></trkpt><trkpt lat="43.6091936" lon="12.6757221"><ele>204.0</ele><time>2026-05-02T12:18:36.178Z</time></trkpt><trkpt lat="43.6093475" lon="12.6757134"><ele>204.0</ele><time>2026-05-02T12:18:37.203Z</time></trkpt><trkpt lat="43.6094991" lon="12.6757"><ele>204.0</ele><time>2026-05-02T12:18:38.198Z</time></trkpt><trkpt lat="43.6096514" lon="12.6756865"><ele>204.0</ele><time>2026-05-02T12:18:39.207Z</time></trkpt><trkpt lat="43.6098024" lon="12.6756744"><ele>204.0</ele><time>2026-05-02T12:18:40.184Z</time></trkpt><trkpt lat="43.6099577" lon="12.6756622"><ele>204.0</ele><time>2026-05-02T12:18:41.191Z</time></trkpt><trkpt lat="43.6101198" lon="12.6756526"><ele>204.0</ele><time>2026-05-02T12:18:42.195Z</time></trkpt><trkpt lat="43.6102819" lon="12.6756411"><ele>204.0</ele><time>2026-05-02T12:18:43.191Z</time></trkpt><trkpt lat="43.6104405" lon="12.6756319"><ele>203.66666666666669</ele><time>2026-05-02T12:18:44.192Z</time></trkpt><trkpt lat="43.6105984" lon="12.6756253"><ele>203.33333333333334</ele><time>2026-05-02T12:18:45.193Z</time></trkpt><trkpt lat="43.6107581" lon="12.6756164"><ele>203.0</ele><time>2026-05-02T12:18:46.197Z</time></trkpt><trkpt lat="43.6109216" lon="12.6756076"><ele>203.0</ele><time>2026-05-02T12:18:47.176Z</time></trkpt><trkpt lat="43.6110844" lon="12.6755974"><ele>203.0</ele><time>2026-05-02T12:18:48.187Z</time></trkpt><trkpt lat="43.6112488" lon="12.6755896"><ele>203.0</ele><time>2026-05-02T12:18:49.186Z</time></trkpt><trkpt lat="43.6114103" lon="12.6755816"><ele>202.33333333333334</ele><time>2026-05-02T12:18:50.182Z</time></trkpt><trkpt lat="43.6115784" lon="12.6755769"><ele>201.66666666666669</ele><time>2026-05-02T12:18:51.196Z</time></trkpt><trkpt lat="43.6117448" lon="12.6755674"><ele>201.0</ele><time>2026-05-02T12:18:52.179Z</time></trkpt><trkpt lat="43.6119079" lon="12.6755589"><ele>201.0</ele><time>2026-05-02T12:18:53.184Z</time></trkpt><trkpt lat="43.6120679" lon="12.6755509"><ele>201.0</ele><time>2026-05-02T12:18:54.201Z</time></trkpt><trkpt lat="43.6122317" lon="12.6755445"><ele>201.0</ele><time>2026-05-02T12:18:55.192Z</time></trkpt><trkpt lat="43.612401" lon="12.6755322"><ele>201.0</ele><time>2026-05-02T12:18:56.197Z</time></trkpt><trkpt lat="43.6125754" lon="12.6755192"><ele>201.0</ele><time>2026-05-02T12:18:57.182Z</time></trkpt><trkpt lat="43.6127463" lon="12.6755102"><ele>201.0</ele><time>2026-05-02T12:18:58.158Z</time></trkpt><trkpt lat="43.6129145" lon="12.6755027"><ele>202.33333333333331</ele><time>2026-05-02T12:18:59.184Z</time></trkpt><trkpt lat="43.6130783" lon="12.6754866"><ele>203.66666666666666</ele><time>2026-05-02T12:19:00.18Z</time></trkpt><trkpt lat="43.6132397" lon="12.675477"><ele>205.0</ele><time>2026-05-02T12:19:01.18Z</time></trkpt><trkpt lat="43.6133979" lon="12.6754679"><ele>205.0</ele><time>2026-05-02T12:19:02.196Z</time></trkpt><trkpt lat="43.6135584" lon="12.6754546"><ele>205.0</ele><time>2026-05-02T12:19:03.184Z</time></trkpt><trkpt lat="43.6137188" lon="12.6754473"><ele>205.0</ele><time>2026-05-02T12:19:04.192Z</time></trkpt><trkpt lat="43.613876" lon="12.6754378"><ele>205.0</ele><time>2026-05-02T12:19:05.172Z</time></trkpt><trkpt lat="43.6140219" lon="12.6754261"><ele>205.0</ele><time>2026-05-02T12:19:06.187Z</time></trkpt><trkpt lat="43.6141577" lon="12.6754208"><ele>205.0</ele><time>2026-05-02T12:19:07.186Z</time></trkpt><trkpt lat="43.6142991" lon="12.6754225"><ele>205.0</ele><time>2026-05-02T12:19:08.17Z</time></trkpt><trkpt lat="43.6144422" lon="12.6754214"><ele>203.0</ele><time>2026-05-02T12:19:09.189Z</time></trkpt><trkpt lat="43.6145851" lon="12.6754227"><ele>201.0</ele><time>2026-05-02T12:19:10.181Z</time></trkpt><trkpt lat="43.6147232" lon="12.675423"><ele>199.0</ele><time>2026-05-02T12:19:11.187Z</time></trkpt><trkpt lat="43.6148717" lon="12.6754291"><ele>197.0</ele><time>2026-05-02T12:19:12.179Z</time></trkpt><trkpt lat="43.6150288" lon="12.6754342"><ele>197.0</ele><time>2026-05-02T12:19:13.182Z</time></trkpt><trkpt lat="43.6152019" lon="12.6754391"><ele>197.0</ele><time>2026-05-02T12:19:14.167Z</time></trkpt><trkpt lat="43.6153856" lon="12.6754476"><ele>197.0</ele><time>2026-05-02T12:19:15.178Z</time></trkpt><trkpt lat="43.6155716" lon="12.6754569"><ele>196.0</ele><time>2026-05-02T12:19:16.201Z</time></trkpt><trkpt lat="43.615755" lon="12.6754765"><ele>195.0</ele><time>2026-05-02T12:19:17.183Z</time></trkpt><trkpt lat="43.6159332" lon="12.675504"><ele>194.0</ele><time>2026-05-02T12:19:18.186Z</time></trkpt><trkpt lat="43.6161005" lon="12.6755325"><ele>194.0</ele><time>2026-05-02T12:19:19.188Z</time></trkpt><trkpt lat="43.6162673" lon="12.6755629"><ele>194.0</ele><time>2026-05-02T12:19:20.184Z</time></trkpt><trkpt lat="43.6164332" lon="12.6756002"><ele>194.0</ele><time>2026-05-02T12:19:21.195Z</time></trkpt><trkpt lat="43.6165982" lon="12.6756375"><ele>194.0</ele><time>2026-05-02T12:19:22.185Z</time></trkpt><trkpt lat="43.6167637" lon="12.6756791"><ele>194.0</ele><time>2026-05-02T12:19:23.19Z</time></trkpt><trkpt lat="43.6169266" lon="12.6757225"><ele>194.0</ele><time>2026-05-02T12:19:24.198Z</time></trkpt><trkpt lat="43.6170883" lon="12.6757718"><ele>195.0</ele><time>2026-05-02T12:19:25.194Z</time></trkpt><trkpt lat="43.6172411" lon="12.6758165"><ele>196.0</ele><time>2026-05-02T12:19:26.197Z</time></trkpt><trkpt lat="43.6173903" lon="12.6758579"><ele>197.0</ele><time>2026-05-02T12:19:27.2Z</time></trkpt><trkpt lat="43.6175295" lon="12.6758995"><ele>197.0</ele><time>2026-05-02T12:19:28.194Z</time></trkpt><trkpt lat="43.6176498" lon="12.6759347"><ele>197.0</ele><time>2026-05-02T12:19:29.182Z</time></trkpt><trkpt lat="43.6177521" lon="12.6759689"><ele>197.0</ele><time>2026-05-02T12:19:30.191Z</time></trkpt><trkpt lat="43.6178543" lon="12.6760017"><ele>197.0</ele><time>2026-05-02T12:19:31.193Z</time></trkpt><trkpt lat="43.6179565" lon="12.6760345"><ele>197.0</ele><time>2026-05-02T12:19:32.196Z</time></trkpt><trkpt lat="43.6180547" lon="12.6760623"><ele>197.2</ele><time>2026-05-02T12:19:33.18Z</time></trkpt><trkpt lat="43.6181534" lon="12.6760905"><ele>197.39999999999998</ele><time>2026-05-02T12:19:34.186Z</time></trkpt><trkpt lat="43.6182568" lon="12.6761201"><ele>197.60000000000002</ele><time>2026-05-02T12:19:35.184Z</time></trkpt><trkpt lat="43.6183668" lon="12.6761493"><ele>197.8</ele><time>2026-05-02T12:19:36.2Z</time></trkpt><trkpt lat="43.6184821" lon="12.6761745"><ele>198.0</ele><time>2026-05-02T12:19:37.177Z</time></trkpt><trkpt lat="43.6186012" lon="12.6761955"><ele>197.5</ele><time>2026-05-02T12:19:38.186Z</time></trkpt><trkpt lat="43.6187275" lon="12.6762162"><ele>197.0</ele><time>2026-05-02T12:19:39.202Z</time></trkpt><trkpt lat="43.6188617" lon="12.6762325"><ele>196.5</ele><time>2026-05-02T12:19:40.184Z</time></trkpt><trkpt lat="43.6190061" lon="12.6762731"><ele>196.0</ele><time>2026-05-02T12:19:41.191Z</time></trkpt><trkpt lat="43.6191583" lon="12.676332"><ele>196.0</ele><time>2026-05-02T12:19:42.189Z</time></trkpt><trkpt lat="43.6193104" lon="12.6763984"><ele>196.0</ele><time>2026-05-02T12:19:43.175Z</time></trkpt><trkpt lat="43.6194546" lon="12.6764533"><ele>196.0</ele><time>2026-05-02T12:19:44.196Z</time></trkpt><trkpt lat="43.6196032" lon="12.6765065"><ele>195.33333333333331</ele><time>2026-05-02T12:19:45.195Z</time></trkpt><trkpt lat="43.6197567" lon="12.6765607"><ele>194.66666666666669</ele><time>2026-05-02T12:19:46.204Z</time></trkpt><trkpt lat="43.6199134" lon="12.6766238"><ele>194.0</ele><time>2026-05-02T12:19:47.206Z</time></trkpt><trkpt lat="43.6200693" lon="12.6766873"><ele>194.0</ele><time>2026-05-02T12:19:48.183Z</time></trkpt><trkpt lat="43.6202246" lon="12.6767545"><ele>194.0</ele><time>2026-05-02T12:19:49.19Z</time></trkpt><trkpt lat="43.6203819" lon="12.6768274"><ele>194.0</ele><time>2026-05-02T12:19:50.209Z</time></trkpt><trkpt lat="43.6205425" lon="12.6769046"><ele>194.0</ele><time>2026-05-02T12:19:51.199Z</time></trkpt><trkpt lat="43.6207015" lon="12.6769851"><ele>194.0</ele><time>2026-05-02T12:19:52.19Z</time></trkpt><trkpt lat="43.6208631" lon="12.677066"><ele>194.0</ele><time>2026-05-02T12:19:53.183Z</time></trkpt><trkpt lat="43.621024" lon="12.6771456"><ele>194.0</ele><time>2026-05-02T12:19:54.198Z</time></trkpt><trkpt lat="43.6211903" lon="12.6772344"><ele>194.0</ele><time>2026-05-02T12:19:55.189Z</time></trkpt><trkpt lat="43.6213682" lon="12.6773238"><ele>194.0</ele><time>2026-05-02T12:19:56.182Z</time></trkpt><trkpt lat="43.6215425" lon="12.6774218"><ele>194.0</ele><time>2026-05-02T12:19:57.193Z</time></trkpt><trkpt lat="43.6217214" lon="12.6775204"><ele>194.0</ele><time>2026-05-02T12:19:58.187Z</time></trkpt><trkpt lat="43.6218976" lon="12.6776235"><ele>194.0</ele><time>2026-05-02T12:19:59.189Z</time></trkpt><trkpt lat="43.6220679" lon="12.677729"><ele>193.66666666666669</ele><time>2026-05-02T12:20:00.193Z</time></trkpt><trkpt lat="43.6222374" lon="12.6778284"><ele>193.33333333333331</ele><time>2026-05-02T12:20:01.188Z</time></trkpt><trkpt lat="43.6224033" lon="12.6779294"><ele>193.0</ele><time>2026-05-02T12:20:02.189Z</time></trkpt><trkpt lat="43.6225591" lon="12.678038"><ele>193.0</ele><time>2026-05-02T12:20:03.193Z</time></trkpt><trkpt lat="43.6227114" lon="12.6781465"><ele>193.0</ele><time>2026-05-02T12:20:04.189Z</time></trkpt><trkpt lat="43.6228624" lon="12.6782502"><ele>193.0</ele><time>2026-05-02T12:20:05.186Z</time></trkpt><trkpt lat="43.6230122" lon="12.6783532"><ele>192.33333333333331</ele><time>2026-05-02T12:20:06.209Z</time></trkpt><trkpt lat="43.6231605" lon="12.6784587"><ele>191.66666666666666</ele><time>2026-05-02T12:20:07.187Z</time></trkpt><trkpt lat="43.6233101" lon="12.6785705"><ele>191.0</ele><time>2026-05-02T12:20:08.179Z</time></trkpt><trkpt lat="43.6234558" lon="12.6786807"><ele>190.33333333333331</ele><time>2026-05-02T12:20:09.168Z</time></trkpt><trkpt lat="43.6235959" lon="12.678788"><ele>189.66666666666666</ele><time>2026-05-02T12:20:10.186Z</time></trkpt><trkpt lat="43.6237337" lon="12.6789014"><ele>189.0</ele><time>2026-05-02T12:20:11.188Z</time></trkpt><trkpt lat="43.6238669" lon="12.6790127"><ele>190.0</ele><time>2026-05-02T12:20:12.202Z</time></trkpt><trkpt lat="43.6239946" lon="12.6791153"><ele>191.0</ele><time>2026-05-02T12:20:13.192Z</time></trkpt><trkpt lat="43.6241121" lon="12.6792157"><ele>192.0</ele><time>2026-05-02T12:20:14.196Z</time></trkpt><trkpt lat="43.6242255" lon="12.6793167"><ele>193.0</ele><time>2026-05-02T12:20:15.194Z</time></trkpt><trkpt lat="43.6243382" lon="12.6794152"><ele>193.0</ele><time>2026-05-02T12:20:16.192Z</time></trkpt><trkpt lat="43.6244493" lon="12.6795122"><ele>193.0</ele><time>2026-05-02T12:20:17.199Z</time></trkpt><trkpt lat="43.6245662" lon="12.6796218"><ele>193.0</ele><time>2026-05-02T12:20:18.21Z</time></trkpt><trkpt lat="43.6246776" lon="12.67975"><ele>193.0</ele><time>2026-05-02T12:20:19.199Z</time></trkpt><trkpt lat="43.6247801" lon="12.6798838"><ele>193.0</ele><time>2026-05-02T12:20:20.197Z</time></trkpt><trkpt lat="43.6248943" lon="12.6800258"><ele>193.0</ele><time>2026-05-02T12:20:21.2Z</time></trkpt><trkpt lat="43.6250141" lon="12.6801659"><ele>193.0</ele><time>2026-05-02T12:20:22.194Z</time></trkpt><trkpt lat="43.6251466" lon="12.6802999"><ele>192.66666666666666</ele><time>2026-05-02T12:20:23.191Z</time></trkpt><trkpt lat="43.625282" lon="12.6804354"><ele>192.33333333333331</ele><time>2026-05-02T12:20:24.169Z</time></trkpt><trkpt lat="43.6254222" lon="12.6805707"><ele>192.0</ele><time>2026-05-02T12:20:25.191Z</time></trkpt><trkpt lat="43.6255644" lon="12.6806976"><ele>192.0</ele><time>2026-05-02T12:20:26.196Z</time></trkpt><trkpt lat="43.6257112" lon="12.6808251"><ele>192.0</ele><time>2026-05-02T12:20:27.197Z</time></trkpt><trkpt lat="43.625857" lon="12.6809585"><ele>192.0</ele><time>2026-05-02T12:20:28.175Z</time></trkpt><trkpt lat="43.6260014" lon="12.6810997"><ele>192.0</ele><time>2026-05-02T12:20:29.189Z</time></trkpt><trkpt lat="43.6261414" lon="12.6812447"><ele>192.0</ele><time>2026-05-02T12:20:30.184Z</time></trkpt><trkpt lat="43.6262854" lon="12.681395"><ele>192.0</ele><time>2026-05-02T12:20:31.191Z</time></trkpt><trkpt lat="43.6264324" lon="12.68154"><ele>192.0</ele><time>2026-05-02T12:20:32.185Z</time></trkpt><trkpt lat="43.6265807" lon="12.6816843"><ele>192.0</ele><time>2026-05-02T12:20:33.189Z</time></trkpt><trkpt lat="43.6267355" lon="12.6818415"><ele>192.0</ele><time>2026-05-02T12:20:34.159Z</time></trkpt><trkpt lat="43.6268941" lon="12.682"><ele>192.33333333333331</ele><time>2026-05-02T12:20:35.198Z</time></trkpt><trkpt lat="43.6270523" lon="12.6821616"><ele>192.66666666666666</ele><time>2026-05-02T12:20:36.19Z</time></trkpt><trkpt lat="43.6272166" lon="12.6823202"><ele>193.0</ele><time>2026-05-02T12:20:37.196Z</time></trkpt><trkpt lat="43.6273833" lon="12.6824807"><ele>193.0</ele><time>2026-05-02T12:20:38.192Z</time></trkpt><trkpt lat="43.6275525" lon="12.6826438"><ele>193.0</ele><time>2026-05-02T12:20:39.191Z</time></trkpt><trkpt lat="43.6277155" lon="12.6828071"><ele>193.0</ele><time>2026-05-02T12:20:40.199Z</time></trkpt><trkpt lat="43.6278807" lon="12.6829665"><ele>192.33333333333331</ele><time>2026-05-02T12:20:41.167Z</time></trkpt><trkpt lat="43.6280422" lon="12.6831259"><ele>191.66666666666666</ele><time>2026-05-02T12:20:42.208Z</time></trkpt><trkpt lat="43.6282094" lon="12.683282"><ele>191.0</ele><time>2026-05-02T12:20:43.2Z</time></trkpt><trkpt lat="43.6283779" lon="12.6834405"><ele>191.0</ele><time>2026-05-02T12:20:44.19Z</time></trkpt><trkpt lat="43.6285427" lon="12.6835877"><ele>191.0</ele><time>2026-05-02T12:20:45.194Z</time></trkpt><trkpt lat="43.628712" lon="12.6837282"><ele>191.0</ele><time>2026-05-02T12:20:46.193Z</time></trkpt><trkpt lat="43.6288827" lon="12.6838657"><ele>191.0</ele><time>2026-05-02T12:20:47.193Z</time></trkpt><trkpt lat="43.6290589" lon="12.6839856"><ele>191.0</ele><time>2026-05-02T12:20:48.193Z</time></trkpt><trkpt lat="43.6292443" lon="12.6841042"><ele>191.0</ele><time>2026-05-02T12:20:49.198Z</time></trkpt><trkpt lat="43.6294325" lon="12.6842035"><ele>191.66666666666666</ele><time>2026-05-02T12:20:50.19Z</time></trkpt><trkpt lat="43.6296174" lon="12.6842915"><ele>192.33333333333331</ele><time>2026-05-02T12:20:51.193Z</time></trkpt><trkpt lat="43.629806" lon="12.6843825"><ele>193.0</ele><time>2026-05-02T12:20:52.196Z</time></trkpt><trkpt lat="43.6299984" lon="12.6844636"><ele>191.33333333333331</ele><time>2026-05-02T12:20:53.191Z</time></trkpt><trkpt lat="43.6301879" lon="12.6845448"><ele>189.66666666666666</ele><time>2026-05-02T12:20:54.2Z</time></trkpt><trkpt lat="43.6303736" lon="12.6846194"><ele>188.0</ele><time>2026-05-02T12:20:55.184Z</time></trkpt><trkpt lat="43.6305435" lon="12.6846829"><ele>188.0</ele><time>2026-05-02T12:20:56.19Z</time></trkpt><trkpt lat="43.6307072" lon="12.6847362"><ele>188.0</ele><time>2026-05-02T12:20:57.19Z</time></trkpt><trkpt lat="43.6308675" lon="12.6847721"><ele>188.0</ele><time>2026-05-02T12:20:58.167Z</time></trkpt><trkpt lat="43.6310434" lon="12.684805"><ele>187.33333333333331</ele><time>2026-05-02T12:20:59.182Z</time></trkpt><trkpt lat="43.6312259" lon="12.6848373"><ele>186.66666666666666</ele><time>2026-05-02T12:21:00.169Z</time></trkpt><trkpt lat="43.6314125" lon="12.6848703"><ele>186.0</ele><time>2026-05-02T12:21:01.193Z</time></trkpt><trkpt lat="43.6316007" lon="12.6848994"><ele>186.0</ele><time>2026-05-02T12:21:02.2Z</time></trkpt><trkpt lat="43.6317941" lon="12.6849349"><ele>186.0</ele><time>2026-05-02T12:21:03.193Z</time></trkpt><trkpt lat="43.6319934" lon="12.6849769"><ele>186.0</ele><time>2026-05-02T12:21:04.196Z</time></trkpt><trkpt lat="43.6321964" lon="12.6850211"><ele>187.0</ele><time>2026-05-02T12:21:05.189Z</time></trkpt><trkpt lat="43.6323979" lon="12.6850763"><ele>188.0</ele><time>2026-05-02T12:21:06.173Z</time></trkpt><trkpt lat="43.6325919" lon="12.6851341"><ele>189.0</ele><time>2026-05-02T12:21:07.176Z</time></trkpt><trkpt lat="43.6327814" lon="12.6851946"><ele>188.66666666666666</ele><time>2026-05-02T12:21:08.178Z</time></trkpt><trkpt lat="43.632968" lon="12.6852606"><ele>188.33333333333331</ele><time>2026-05-02T12:21:09.208Z</time></trkpt><trkpt lat="43.6331548" lon="12.685335"><ele>188.0</ele><time>2026-05-02T12:21:10.189Z</time></trkpt><trkpt lat="43.633342" lon="12.6854168"><ele>188.0</ele><time>2026-05-02T12:21:11.194Z</time></trkpt><trkpt lat="43.6335318" lon="12.6855075"><ele>188.0</ele><time>2026-05-02T12:21:12.183Z</time></trkpt><trkpt lat="43.6337176" lon="12.6856116"><ele>188.0</ele><time>2026-05-02T12:21:13.196Z</time></trkpt><trkpt lat="43.6339015" lon="12.6857166"><ele>189.33333333333331</ele><time>2026-05-02T12:21:14.199Z</time></trkpt><trkpt lat="43.6340796" lon="12.6858262"><ele>190.66666666666666</ele><time>2026-05-02T12:21:15.2Z</time></trkpt><trkpt lat="43.6342553" lon="12.6859373"><ele>192.0</ele><time>2026-05-02T12:21:16.201Z</time></trkpt><trkpt lat="43.6344172" lon="12.6860586"><ele>192.0</ele><time>2026-05-02T12:21:17.192Z</time></trkpt><trkpt lat="43.6345818" lon="12.6861886"><ele>192.0</ele><time>2026-05-02T12:21:18.195Z</time></trkpt><trkpt lat="43.6347418" lon="12.6863223"><ele>192.0</ele><time>2026-05-02T12:21:19.193Z</time></trkpt><trkpt lat="43.6349114" lon="12.686462"><ele>192.0</ele><time>2026-05-02T12:21:20.19Z</time></trkpt><trkpt lat="43.6350788" lon="12.6866057"><ele>192.0</ele><time>2026-05-02T12:21:21.211Z</time></trkpt><trkpt lat="43.6352369" lon="12.6867579"><ele>192.0</ele><time>2026-05-02T12:21:22.193Z</time></trkpt><trkpt lat="43.6353925" lon="12.6869178"><ele>192.33333333333331</ele><time>2026-05-02T12:21:23.206Z</time></trkpt><trkpt lat="43.6355493" lon="12.6870831"><ele>192.66666666666666</ele><time>2026-05-02T12:21:24.193Z</time></trkpt><trkpt lat="43.6357166" lon="12.6872651"><ele>193.0</ele><time>2026-05-02T12:21:25.203Z</time></trkpt><trkpt lat="43.6358981" lon="12.687473"><ele>193.0</ele><time>2026-05-02T12:21:26.196Z</time></trkpt><trkpt lat="43.6360753" lon="12.6877086"><ele>193.0</ele><time>2026-05-02T12:21:27.203Z</time></trkpt><trkpt lat="43.6362527" lon="12.6879562"><ele>195.0</ele><time>2026-05-02T12:21:28.19Z</time></trkpt><trkpt lat="43.6364338" lon="12.6882325"><ele>197.0</ele><time>2026-05-02T12:21:29.181Z</time></trkpt><trkpt lat="43.6366105" lon="12.688512"><ele>194.5</ele><time>2026-05-02T12:21:30.199Z</time></trkpt><trkpt lat="43.6367775" lon="12.6888002"><ele>192.0</ele><time>2026-05-02T12:21:31.196Z</time></trkpt><trkpt lat="43.6369354" lon="12.6890974"><ele>192.5</ele><time>2026-05-02T12:21:32.193Z</time></trkpt><trkpt lat="43.637081" lon="12.6893925"><ele>193.0</ele><time>2026-05-02T12:21:33.209Z</time></trkpt><trkpt lat="43.6372214" lon="12.6897061"><ele>193.0</ele><time>2026-05-02T12:21:34.204Z</time></trkpt><trkpt lat="43.6373536" lon="12.6900237"><ele>193.0</ele><time>2026-05-02T12:21:35.21Z</time></trkpt><trkpt lat="43.6374814" lon="12.6903439"><ele>194.5</ele><time>2026-05-02T12:21:36.194Z</time></trkpt><trkpt lat="43.6376006" lon="12.6906697"><ele>196.0</ele><time>2026-05-02T12:21:37.184Z</time></trkpt><trkpt lat="43.6377076" lon="12.6910013"><ele>196.5</ele><time>2026-05-02T12:21:38.2Z</time></trkpt><trkpt lat="43.6378009" lon="12.6913318"><ele>197.0</ele><time>2026-05-02T12:21:39.202Z</time></trkpt><trkpt lat="43.6378842" lon="12.6916648"><ele>196.0</ele><time>2026-05-02T12:21:40.192Z</time></trkpt><trkpt lat="43.6379603" lon="12.6919963"><ele>195.0</ele><time>2026-05-02T12:21:41.19Z</time></trkpt><trkpt lat="43.6380244" lon="12.6923241"><ele>195.0</ele><time>2026-05-02T12:21:42.185Z</time></trkpt><trkpt lat="43.6380803" lon="12.6926534"><ele>195.0</ele><time>2026-05-02T12:21:43.191Z</time></trkpt><trkpt lat="43.6381287" lon="12.692986"><ele>195.0</ele><time>2026-05-02T12:21:44.205Z</time></trkpt><trkpt lat="43.6381683" lon="12.6933113"><ele>195.0</ele><time>2026-05-02T12:21:45.207Z</time></trkpt><trkpt lat="43.6382008" lon="12.6936362"><ele>195.0</ele><time>2026-05-02T12:21:46.188Z</time></trkpt><trkpt lat="43.6382323" lon="12.6939521"><ele>195.0</ele><time>2026-05-02T12:21:47.172Z</time></trkpt><trkpt lat="43.6382597" lon="12.6942693"><ele>194.33333333333331</ele><time>2026-05-02T12:21:48.2Z</time></trkpt><trkpt lat="43.6382789" lon="12.6945698"><ele>193.66666666666666</ele><time>2026-05-02T12:21:49.186Z</time></trkpt><trkpt lat="43.6382955" lon="12.6948589"><ele>193.0</ele><time>2026-05-02T12:21:50.203Z</time></trkpt><trkpt lat="43.6383132" lon="12.6951419"><ele>193.66666666666666</ele><time>2026-05-02T12:21:51.185Z</time></trkpt><trkpt lat="43.6383331" lon="12.6954266"><ele>194.33333333333331</ele><time>2026-05-02T12:21:52.192Z</time></trkpt><trkpt lat="43.6383468" lon="12.6957134"><ele>195.0</ele><time>2026-05-02T12:21:53.198Z</time></trkpt><trkpt lat="43.6383601" lon="12.6959973"><ele>195.33333333333331</ele><time>2026-05-02T12:21:54.192Z</time></trkpt><trkpt lat="43.6383786" lon="12.6962701"><ele>195.66666666666666</ele><time>2026-05-02T12:21:55.203Z</time></trkpt><trkpt lat="43.6383904" lon="12.6965359"><ele>196.0</ele><time>2026-05-02T12:21:56.194Z</time></trkpt><trkpt lat="43.6384042" lon="12.6967996"><ele>195.66666666666666</ele><time>2026-05-02T12:21:57.193Z</time></trkpt><trkpt lat="43.6384167" lon="12.6970512"><ele>195.33333333333331</ele><time>2026-05-02T12:21:58.207Z</time></trkpt><trkpt lat="43.6384356" lon="12.6972956"><ele>195.0</ele><time>2026-05-02T12:21:59.194Z</time></trkpt><trkpt lat="43.6384524" lon="12.6975394"><ele>194.66666666666669</ele><time>2026-05-02T12:22:00.191Z</time></trkpt><trkpt lat="43.638471" lon="12.6977926"><ele>194.33333333333334</ele><time>2026-05-02T12:22:01.183Z</time></trkpt><trkpt lat="43.6384924" lon="12.6980445"><ele>194.0</ele><time>2026-05-02T12:22:02.172Z</time></trkpt><trkpt lat="43.6385229" lon="12.6983003"><ele>194.0</ele><time>2026-05-02T12:22:03.178Z</time></trkpt><trkpt lat="43.63855" lon="12.6985421"><ele>194.0</ele><time>2026-05-02T12:22:04.2Z</time></trkpt><trkpt lat="43.6385849" lon="12.6987786"><ele>194.0</ele><time>2026-05-02T12:22:05.196Z</time></trkpt><trkpt lat="43.6386203" lon="12.699013"><ele>193.33333333333334</ele><time>2026-05-02T12:22:06.196Z</time></trkpt><trkpt lat="43.6386609" lon="12.6992483"><ele>192.66666666666669</ele><time>2026-05-02T12:22:07.188Z</time></trkpt><trkpt lat="43.638706" lon="12.6994834"><ele>192.0</ele><time>2026-05-02T12:22:08.196Z</time></trkpt><trkpt lat="43.6387604" lon="12.6997051"><ele>192.0</ele><time>2026-05-02T12:22:09.187Z</time></trkpt><trkpt lat="43.6388135" lon="12.6999175"><ele>192.0</ele><time>2026-05-02T12:22:10.201Z</time></trkpt><trkpt lat="43.6388762" lon="12.7001419"><ele>192.0</ele><time>2026-05-02T12:22:11.186Z</time></trkpt><trkpt lat="43.6389394" lon="12.7003817"><ele>190.0</ele><time>2026-05-02T12:22:12.199Z</time></trkpt><trkpt lat="43.6390122" lon="12.7006267"><ele>188.0</ele><time>2026-05-02T12:22:13.192Z</time></trkpt><trkpt lat="43.6390916" lon="12.7008632"><ele>186.0</ele><time>2026-05-02T12:22:14.199Z</time></trkpt><trkpt lat="43.6391733" lon="12.7010976"><ele>185.0</ele><time>2026-05-02T12:22:15.195Z</time></trkpt><trkpt lat="43.6392642" lon="12.7013227"><ele>184.0</ele><time>2026-05-02T12:22:16.18Z</time></trkpt><trkpt lat="43.6393491" lon="12.7015401"><ele>183.0</ele><time>2026-05-02T12:22:17.184Z</time></trkpt><trkpt lat="43.6394396" lon="12.7017471"><ele>198.66666666666669</ele><time>2026-05-02T12:22:18.199Z</time></trkpt><trkpt lat="43.6395319" lon="12.7019487"><ele>214.33333333333334</ele><time>2026-05-02T12:22:19.189Z</time></trkpt><trkpt lat="43.6396272" lon="12.7021548"><ele>230.0</ele><time>2026-05-02T12:22:20.19Z</time></trkpt><trkpt lat="43.6397263" lon="12.7023625"><ele>230.0</ele><time>2026-05-02T12:22:21.192Z</time></trkpt><trkpt lat="43.6398174" lon="12.7025744"><ele>230.0</ele><time>2026-05-02T12:22:22.151Z</time></trkpt><trkpt lat="43.6590434" lon="12.7353058"><ele>188.5</ele><time>2026-05-02T12:25:00.178Z</time></trkpt><trkpt lat="43.6591667" lon="12.7355841"><ele>147.0</ele><time>2026-05-02T12:25:01.197Z</time></trkpt><trkpt lat="43.6593011" lon="12.7358591"><ele>146.5</ele><time>2026-05-02T12:25:02.2Z</time></trkpt><trkpt lat="43.6594452" lon="12.7361335"><ele>146.0</ele><time>2026-05-02T12:25:03.196Z</time></trkpt><trkpt lat="43.6595832" lon="12.7364216"><ele>146.0</ele><time>2026-05-02T12:25:04.177Z</time></trkpt><trkpt lat="43.6597186" lon="12.7367043"><ele>146.0</ele><time>2026-05-02T12:25:05.177Z</time></trkpt><trkpt lat="43.6598582" lon="12.7369986"><ele>146.0</ele><time>2026-05-02T12:25:06.185Z</time></trkpt><trkpt lat="43.6600081" lon="12.7373063"><ele>146.0</ele><time>2026-05-02T12:25:07.182Z</time></trkpt><trkpt lat="43.6601661" lon="12.7376175"><ele>144.5</ele><time>2026-05-02T12:25:08.196Z</time></trkpt><trkpt lat="43.6603223" lon="12.7379222"><ele>143.0</ele><time>2026-05-02T12:25:09.183Z</time></trkpt><trkpt lat="43.6604796" lon="12.7382432"><ele>147.0</ele><time>2026-05-02T12:25:10.188Z</time></trkpt><trkpt lat="43.6606297" lon="12.7385641"><ele>151.0</ele><time>2026-05-02T12:25:11.188Z</time></trkpt><trkpt lat="43.6607827" lon="12.7388921"><ele>151.0</ele><time>2026-05-02T12:25:12.189Z</time></trkpt><trkpt lat="43.660932" lon="12.7392138"><ele>151.0</ele><time>2026-05-02T12:25:13.189Z</time></trkpt><trkpt lat="43.661089" lon="12.7395348"><ele>151.5</ele><time>2026-05-02T12:25:14.189Z</time></trkpt><trkpt lat="43.6612416" lon="12.7398605"><ele>152.0</ele><time>2026-05-02T12:25:15.201Z</time></trkpt><trkpt lat="43.6613912" lon="12.7401854"><ele>150.0</ele><time>2026-05-02T12:25:16.189Z</time></trkpt><trkpt lat="43.661539" lon="12.7405136"><ele>148.0</ele><time>2026-05-02T12:25:17.184Z</time></trkpt><trkpt lat="43.6616855" lon="12.7408377"><ele>143.0</ele><time>2026-05-02T12:25:18.179Z</time></trkpt><trkpt lat="43.6618326" lon="12.7411603"><ele>138.0</ele><time>2026-05-02T12:25:19.178Z</time></trkpt><trkpt lat="43.661974" lon="12.7414872"><ele>138.0</ele><time>2026-05-02T12:25:20.187Z</time></trkpt><trkpt lat="43.6621173" lon="12.7418079"><ele>138.0</ele><time>2026-05-02T12:25:21.193Z</time></trkpt><trkpt lat="43.6622615" lon="12.7421314"><ele>139.0</ele><time>2026-05-02T12:25:22.18Z</time></trkpt><trkpt lat="43.6624098" lon="12.7424608"><ele>140.0</ele><time>2026-05-02T12:25:23.187Z</time></trkpt><trkpt lat="43.6625612" lon="12.7427922"><ele>142.0</ele><time>2026-05-02T12:25:24.179Z</time></trkpt><trkpt lat="43.6627011" lon="12.7431361"><ele>144.0</ele><time>2026-05-02T12:25:25.197Z</time></trkpt><trkpt lat="43.6628304" lon="12.7434904"><ele>147.5</ele><time>2026-05-02T12:25:26.178Z</time></trkpt><trkpt lat="43.6629528" lon="12.7438528"><ele>151.0</ele><time>2026-05-02T12:25:27.206Z</time></trkpt><trkpt lat="43.6630717" lon="12.7442199"><ele>151.5</ele><time>2026-05-02T12:25:28.174Z</time></trkpt><trkpt lat="43.6631749" lon="12.7445946"><ele>152.0</ele><time>2026-05-02T12:25:29.189Z</time></trkpt><trkpt lat="43.6632829" lon="12.7449698"><ele>150.0</ele><time>2026-05-02T12:25:30.178Z</time></trkpt><trkpt lat="43.6633729" lon="12.7453523"><ele>148.0</ele><time>2026-05-02T12:25:31.198Z</time></trkpt><trkpt lat="43.6634546" lon="12.7457374"><ele>145.5</ele><time>2026-05-02T12:25:32.184Z</time></trkpt><trkpt lat="43.6635275" lon="12.7461188"><ele>143.0</ele><time>2026-05-02T12:25:33.204Z</time></trkpt><trkpt lat="43.6635905" lon="12.746502"><ele>150.0</ele><time>2026-05-02T12:25:34.182Z</time></trkpt><trkpt lat="43.6636461" lon="12.7468852"><ele>157.0</ele><time>2026-05-02T12:25:35.187Z</time></trkpt><trkpt lat="43.6636964" lon="12.7472695"><ele>157.0</ele><time>2026-05-02T12:25:36.199Z</time></trkpt><trkpt lat="43.6637382" lon="12.7476489"><ele>157.0</ele><time>2026-05-02T12:25:37.198Z</time></trkpt><trkpt lat="43.6637732" lon="12.7480225"><ele>155.5</ele><time>2026-05-02T12:25:38.184Z</time></trkpt><trkpt lat="43.6638138" lon="12.7483954"><ele>154.0</ele><time>2026-05-02T12:25:39.19Z</time></trkpt><trkpt lat="43.66385" lon="12.7487713"><ele>153.5</ele><time>2026-05-02T12:25:40.198Z</time></trkpt><trkpt lat="43.6638909" lon="12.7491358"><ele>153.0</ele><time>2026-05-02T12:25:41.197Z</time></trkpt><trkpt lat="43.6639334" lon="12.7494964"><ele>150.5</ele><time>2026-05-02T12:25:42.185Z</time></trkpt><trkpt lat="43.6639707" lon="12.7498559"><ele>148.0</ele><time>2026-05-02T12:25:43.169Z</time></trkpt><trkpt lat="43.6640103" lon="12.7502156"><ele>145.5</ele><time>2026-05-02T12:25:44.184Z</time></trkpt><trkpt lat="43.6640485" lon="12.7505759"><ele>143.0</ele><time>2026-05-02T12:25:45.188Z</time></trkpt><trkpt lat="43.6640922" lon="12.7509349"><ele>142.0</ele><time>2026-05-02T12:25:46.2Z</time></trkpt><trkpt lat="43.6641327" lon="12.7512772"><ele>141.0</ele><time>2026-05-02T12:25:47.185Z</time></trkpt><trkpt lat="43.6641762" lon="12.7516121"><ele>140.5</ele><time>2026-05-02T12:25:48.197Z</time></trkpt><trkpt lat="43.6642197" lon="12.7519314"><ele>140.0</ele><time>2026-05-02T12:25:49.181Z</time></trkpt><trkpt lat="43.6642705" lon="12.7522369"><ele>140.0</ele><time>2026-05-02T12:25:50.174Z</time></trkpt><trkpt lat="43.6643274" lon="12.7525426"><ele>140.0</ele><time>2026-05-02T12:25:51.188Z</time></trkpt><trkpt lat="43.6643844" lon="12.7528287"><ele>140.0</ele><time>2026-05-02T12:25:52.197Z</time></trkpt><trkpt lat="43.6644462" lon="12.7531145"><ele>140.33333333333331</ele><time>2026-05-02T12:25:53.175Z</time></trkpt><trkpt lat="43.6645139" lon="12.7534028"><ele>140.66666666666666</ele><time>2026-05-02T12:25:54.198Z</time></trkpt><trkpt lat="43.6645854" lon="12.7536927"><ele>141.0</ele><time>2026-05-02T12:25:55.188Z</time></trkpt><trkpt lat="43.6646674" lon="12.7539801"><ele>141.0</ele><time>2026-05-02T12:25:56.187Z</time></trkpt><trkpt lat="43.6647497" lon="12.7542686"><ele>141.0</ele><time>2026-05-02T12:25:57.183Z</time></trkpt><trkpt lat="43.6648383" lon="12.7545556"><ele>140.0</ele><time>2026-05-02T12:25:58.195Z</time></trkpt><trkpt lat="43.6649359" lon="12.7548438"><ele>139.0</ele><time>2026-05-02T12:25:59.184Z</time></trkpt><trkpt lat="43.6650407" lon="12.7551218"><ele>138.0</ele><time>2026-05-02T12:26:00.179Z</time></trkpt><trkpt lat="43.6651491" lon="12.7553846"><ele>137.0</ele><time>2026-05-02T12:26:01.179Z</time></trkpt><trkpt lat="43.665269" lon="12.7556519"><ele>136.0</ele><time>2026-05-02T12:26:02.187Z</time></trkpt><trkpt lat="43.6653917" lon="12.7559095"><ele>135.66666666666669</ele><time>2026-05-02T12:26:03.225Z</time></trkpt><trkpt lat="43.6655164" lon="12.7561605"><ele>135.33333333333334</ele><time>2026-05-02T12:26:04.187Z</time></trkpt><trkpt lat="43.6656445" lon="12.7564081"><ele>135.0</ele><time>2026-05-02T12:26:05.186Z</time></trkpt><trkpt lat="43.6657728" lon="12.756639"><ele>135.0</ele><time>2026-05-02T12:26:06.177Z</time></trkpt><trkpt lat="43.6659024" lon="12.7568667"><ele>135.0</ele><time>2026-05-02T12:26:07.199Z</time></trkpt><trkpt lat="43.6660317" lon="12.7570733"><ele>135.0</ele><time>2026-05-02T12:26:08.187Z</time></trkpt><trkpt lat="43.6661611" lon="12.7572736"><ele>134.33333333333334</ele><time>2026-05-02T12:26:09.19Z</time></trkpt><trkpt lat="43.6662983" lon="12.7574654"><ele>133.66666666666669</ele><time>2026-05-02T12:26:10.192Z</time></trkpt><trkpt lat="43.6664374" lon="12.7576537"><ele>133.0</ele><time>2026-05-02T12:26:11.2Z</time></trkpt><trkpt lat="43.6665791" lon="12.7578287"><ele>132.66666666666669</ele><time>2026-05-02T12:26:12.206Z</time></trkpt><trkpt lat="43.6667263" lon="12.7580065"><ele>132.33333333333334</ele><time>2026-05-02T12:26:13.191Z</time></trkpt><trkpt lat="43.666876" lon="12.7581744"><ele>132.0</ele><time>2026-05-02T12:26:14.185Z</time></trkpt><trkpt lat="43.6670302" lon="12.7583402"><ele>130.33333333333334</ele><time>2026-05-02T12:26:15.178Z</time></trkpt><trkpt lat="43.6671806" lon="12.7584963"><ele>128.66666666666669</ele><time>2026-05-02T12:26:16.191Z</time></trkpt><trkpt lat="43.6673362" lon="12.7586478"><ele>127.0</ele><time>2026-05-02T12:26:17.188Z</time></trkpt><trkpt lat="43.6674924" lon="12.7587888"><ele>127.0</ele><time>2026-05-02T12:26:18.185Z</time></trkpt><trkpt lat="43.6676518" lon="12.7589278"><ele>127.0</ele><time>2026-05-02T12:26:19.184Z</time></trkpt><trkpt lat="43.6678171" lon="12.7590599"><ele>127.0</ele><time>2026-05-02T12:26:20.191Z</time></trkpt><trkpt lat="43.6679872" lon="12.7591898"><ele>126.0</ele><time>2026-05-02T12:26:21.187Z</time></trkpt><trkpt lat="43.6681608" lon="12.759316"><ele>125.0</ele><time>2026-05-02T12:26:22.191Z</time></trkpt><trkpt lat="43.668345" lon="12.7594401"><ele>124.0</ele><time>2026-05-02T12:26:23.19Z</time></trkpt><trkpt lat="43.6685325" lon="12.7595523"><ele>122.66666666666667</ele><time>2026-05-02T12:26:24.193Z</time></trkpt><trkpt lat="43.66872" lon="12.7596571"><ele>121.33333333333334</ele><time>2026-05-02T12:26:25.188Z</time></trkpt><trkpt lat="43.6689106" lon="12.7597614"><ele>120.0</ele><time>2026-05-02T12:26:26.186Z</time></trkpt><trkpt lat="43.6691109" lon="12.7598582"><ele>120.0</ele><time>2026-05-02T12:26:27.184Z</time></trkpt><trkpt lat="43.6693124" lon="12.7599502"><ele>120.0</ele><time>2026-05-02T12:26:28.188Z</time></trkpt><trkpt lat="43.6695095" lon="12.7600391"><ele>120.0</ele><time>2026-05-02T12:26:29.188Z</time></trkpt><trkpt lat="43.6697039" lon="12.7601236"><ele>120.33333333333334</ele><time>2026-05-02T12:26:30.185Z</time></trkpt><trkpt lat="43.6698817" lon="12.7602018"><ele>120.66666666666667</ele><time>2026-05-02T12:26:31.19Z</time></trkpt><trkpt lat="43.6700561" lon="12.7602812"><ele>121.0</ele><time>2026-05-02T12:26:32.166Z</time></trkpt><trkpt lat="43.6702216" lon="12.7603473"><ele>122.33333333333334</ele><time>2026-05-02T12:26:33.19Z</time></trkpt><trkpt lat="43.6703771" lon="12.7604107"><ele>123.66666666666666</ele><time>2026-05-02T12:26:34.175Z</time></trkpt><trkpt lat="43.6705348" lon="12.7604727"><ele>125.0</ele><time>2026-05-02T12:26:35.199Z</time></trkpt><trkpt lat="43.670689" lon="12.7605397"><ele>125.0</ele><time>2026-05-02T12:26:36.188Z</time></trkpt><trkpt lat="43.6708502" lon="12.7606123"><ele>125.0</ele><time>2026-05-02T12:26:37.197Z</time></trkpt><trkpt lat="43.6710025" lon="12.7606808"><ele>125.0</ele><time>2026-05-02T12:26:38.198Z</time></trkpt><trkpt lat="43.6711516" lon="12.7607497"><ele>124.75</ele><time>2026-05-02T12:26:39.183Z</time></trkpt><trkpt lat="43.6712953" lon="12.7608161"><ele>124.5</ele><time>2026-05-02T12:26:40.184Z</time></trkpt><trkpt lat="43.6714344" lon="12.7608812"><ele>124.25</ele><time>2026-05-02T12:26:41.183Z</time></trkpt><trkpt lat="43.6715723" lon="12.7609513"><ele>124.0</ele><time>2026-05-02T12:26:42.204Z</time></trkpt><trkpt lat="43.6717083" lon="12.7610283"><ele>126.0</ele><time>2026-05-02T12:26:43.188Z</time></trkpt><trkpt lat="43.6718561" lon="12.7611234"><ele>128.0</ele><time>2026-05-02T12:26:44.177Z</time></trkpt><trkpt lat="43.6720104" lon="12.7612153"><ele>130.0</ele><time>2026-05-02T12:26:45.189Z</time></trkpt><trkpt lat="43.6721671" lon="12.7613124"><ele>130.33333333333334</ele><time>2026-05-02T12:26:46.207Z</time></trkpt><trkpt lat="43.6723275" lon="12.76141"><ele>130.66666666666666</ele><time>2026-05-02T12:26:47.189Z</time></trkpt><trkpt lat="43.6724864" lon="12.7615103"><ele>131.0</ele><time>2026-05-02T12:26:48.185Z</time></trkpt><trkpt lat="43.6726422" lon="12.7616189"><ele>131.33333333333331</ele><time>2026-05-02T12:26:49.184Z</time></trkpt><trkpt lat="43.6727948" lon="12.7617314"><ele>131.66666666666666</ele><time>2026-05-02T12:26:50.18Z</time></trkpt><trkpt lat="43.6729471" lon="12.7618473"><ele>132.0</ele><time>2026-05-02T12:26:51.191Z</time></trkpt><trkpt lat="43.6730932" lon="12.7619583"><ele>132.0</ele><time>2026-05-02T12:26:52.197Z</time></trkpt><trkpt lat="43.6732358" lon="12.7620843"><ele>132.0</ele><time>2026-05-02T12:26:53.189Z</time></trkpt><trkpt lat="43.6733715" lon="12.7622184"><ele>132.0</ele><time>2026-05-02T12:26:54.195Z</time></trkpt><trkpt lat="43.6735079" lon="12.7623581"><ele>132.0</ele><time>2026-05-02T12:26:55.191Z</time></trkpt><trkpt lat="43.6736413" lon="12.7624945"><ele>132.0</ele><time>2026-05-02T12:26:56.188Z</time></trkpt><trkpt lat="43.6737737" lon="12.7626435"><ele>132.0</ele><time>2026-05-02T12:26:57.189Z</time></trkpt><trkpt lat="43.6739114" lon="12.7627924"><ele>132.0</ele><time>2026-05-02T12:26:58.177Z</time></trkpt><trkpt lat="43.6740483" lon="12.7629474"><ele>132.0</ele><time>2026-05-02T12:26:59.185Z</time></trkpt><trkpt lat="43.6741831" lon="12.7631004"><ele>132.0</ele><time>2026-05-02T12:27:00.179Z</time></trkpt><trkpt lat="43.6743176" lon="12.7632575"><ele>132.0</ele><time>2026-05-02T12:27:01.189Z</time></trkpt><trkpt lat="43.6744536" lon="12.763425"><ele>132.0</ele><time>2026-05-02T12:27:02.202Z</time></trkpt><trkpt lat="43.6745904" lon="12.7636031"><ele>132.0</ele><time>2026-05-02T12:27:03.192Z</time></trkpt><trkpt lat="43.6747261" lon="12.7637923"><ele>132.66666666666666</ele><time>2026-05-02T12:27:04.179Z</time></trkpt><trkpt lat="43.6748657" lon="12.7639963"><ele>133.33333333333331</ele><time>2026-05-02T12:27:05.189Z</time></trkpt><trkpt lat="43.6750035" lon="12.7642027"><ele>134.0</ele><time>2026-05-02T12:27:06.198Z</time></trkpt><trkpt lat="43.6751337" lon="12.7644047"><ele>134.33333333333331</ele><time>2026-05-02T12:27:07.199Z</time></trkpt><trkpt lat="43.675262" lon="12.7646198"><ele>134.66666666666666</ele><time>2026-05-02T12:27:08.192Z</time></trkpt><trkpt lat="43.6753877" lon="12.7648225"><ele>135.0</ele><time>2026-05-02T12:27:09.171Z</time></trkpt><trkpt lat="43.6755111" lon="12.7650202"><ele>135.66666666666666</ele><time>2026-05-02T12:27:10.192Z</time></trkpt><trkpt lat="43.6756265" lon="12.7652063"><ele>136.33333333333331</ele><time>2026-05-02T12:27:11.188Z</time></trkpt><trkpt lat="43.6757376" lon="12.7653804"><ele>137.0</ele><time>2026-05-02T12:27:12.2Z</time></trkpt><trkpt lat="43.6758528" lon="12.7655233"><ele>137.0</ele><time>2026-05-02T12:27:13.193Z</time></trkpt><trkpt lat="43.675982" lon="12.7656415"><ele>137.0</ele><time>2026-05-02T12:27:14.206Z</time></trkpt><trkpt lat="43.6761255" lon="12.7657374"><ele>137.0</ele><time>2026-05-02T12:27:15.165Z</time></trkpt><trkpt lat="43.676284" lon="12.7658042"><ele>137.0</ele><time>2026-05-02T12:27:16.176Z</time></trkpt><trkpt lat="43.6764553" lon="12.7658254"><ele>137.0</ele><time>2026-05-02T12:27:17.189Z</time></trkpt><trkpt lat="43.6766132" lon="12.7658078"><ele>137.0</ele><time>2026-05-02T12:27:18.19Z</time></trkpt><trkpt lat="43.676761" lon="12.7657427"><ele>137.0</ele><time>2026-05-02T12:27:19.206Z</time></trkpt><trkpt lat="43.6769092" lon="12.7656522"><ele>137.0</ele><time>2026-05-02T12:27:20.189Z</time></trkpt><trkpt lat="43.6770503" lon="12.7655495"><ele>137.0</ele><time>2026-05-02T12:27:21.181Z</time></trkpt><trkpt lat="43.6771846" lon="12.7654158"><ele>137.0</ele><time>2026-05-02T12:27:22.189Z</time></trkpt><trkpt lat="43.6773061" lon="12.7652562"><ele>137.0</ele><time>2026-05-02T12:27:23.193Z</time></trkpt><trkpt lat="43.6774161" lon="12.7650681"><ele>137.0</ele><time>2026-05-02T12:27:24.199Z</time></trkpt><trkpt lat="43.677507" lon="12.7648714"><ele>137.0</ele><time>2026-05-02T12:27:25.206Z</time></trkpt><trkpt lat="43.6775606" lon="12.7646617"><ele>137.0</ele><time>2026-05-02T12:27:26.191Z</time></trkpt><trkpt lat="43.6775815" lon="12.7644351"><ele>137.0</ele><time>2026-05-02T12:27:27.205Z</time></trkpt><trkpt lat="43.6775747" lon="12.7642107"><ele>136.0</ele><time>2026-05-02T12:27:28.201Z</time></trkpt><trkpt lat="43.6775388" lon="12.7640025"><ele>135.0</ele><time>2026-05-02T12:27:29.19Z</time></trkpt><trkpt lat="43.6774892" lon="12.7638075"><ele>134.0</ele><time>2026-05-02T12:27:30.192Z</time></trkpt><trkpt lat="43.6774149" lon="12.7636182"><ele>133.33333333333331</ele><time>2026-05-02T12:27:31.198Z</time></trkpt><trkpt lat="43.6773175" lon="12.7634442"><ele>132.66666666666666</ele><time>2026-05-02T12:27:32.172Z</time></trkpt><trkpt lat="43.6772159" lon="12.7633038"><ele>132.0</ele><time>2026-05-02T12:27:33.196Z</time></trkpt><trkpt lat="43.6770964" lon="12.7631582"><ele>132.0</ele><time>2026-05-02T12:27:34.192Z</time></trkpt><trkpt lat="43.6769622" lon="12.7630139"><ele>132.0</ele><time>2026-05-02T12:27:35.197Z</time></trkpt><trkpt lat="43.6768321" lon="12.7628619"><ele>132.0</ele><time>2026-05-02T12:27:36.196Z</time></trkpt><trkpt lat="43.6767039" lon="12.7627088"><ele>132.0</ele><time>2026-05-02T12:27:37.198Z</time></trkpt><trkpt lat="43.6765804" lon="12.7625591"><ele>132.0</ele><time>2026-05-02T12:27:38.192Z</time></trkpt><trkpt lat="43.6764616" lon="12.7624037"><ele>132.0</ele><time>2026-05-02T12:27:39.2Z</time></trkpt><trkpt lat="43.6763491" lon="12.762257"><ele>132.0</ele><time>2026-05-02T12:27:40.188Z</time></trkpt><trkpt lat="43.676245" lon="12.7621075"><ele>132.0</ele><time>2026-05-02T12:27:41.19Z</time></trkpt><trkpt lat="43.676137" lon="12.7619464"><ele>132.0</ele><time>2026-05-02T12:27:42.193Z</time></trkpt><trkpt lat="43.6760455" lon="12.7617756"><ele>132.66666666666666</ele><time>2026-05-02T12:27:43.197Z</time></trkpt><trkpt lat="43.6759654" lon="12.7615938"><ele>133.33333333333331</ele><time>2026-05-02T12:27:44.194Z</time></trkpt><trkpt lat="43.6759043" lon="12.7614068"><ele>134.0</ele><time>2026-05-02T12:27:45.195Z</time></trkpt><trkpt lat="43.6758528" lon="12.7612074"><ele>133.66666666666666</ele><time>2026-05-02T12:27:46.196Z</time></trkpt><trkpt lat="43.6758123" lon="12.7610041"><ele>133.33333333333334</ele><time>2026-05-02T12:27:47.203Z</time></trkpt><trkpt lat="43.6757813" lon="12.7607992"><ele>133.0</ele><time>2026-05-02T12:27:48.21Z</time></trkpt><trkpt lat="43.6757502" lon="12.7605754"><ele>133.0</ele><time>2026-05-02T12:27:49.194Z</time></trkpt><trkpt lat="43.6757229" lon="12.7603441"><ele>133.0</ele><time>2026-05-02T12:27:50.178Z</time></trkpt><trkpt lat="43.6756935" lon="12.760096"><ele>133.0</ele><time>2026-05-02T12:27:51.199Z</time></trkpt><trkpt lat="43.6756655" lon="12.7598509"><ele>131.0</ele><time>2026-05-02T12:27:52.19Z</time></trkpt><trkpt lat="43.6756337" lon="12.7595975"><ele>129.0</ele><time>2026-05-02T12:27:53.201Z</time></trkpt><trkpt lat="43.6755936" lon="12.7593261"><ele>127.0</ele><time>2026-05-02T12:27:54.194Z</time></trkpt><trkpt lat="43.6755555" lon="12.7590436"><ele>126.0</ele><time>2026-05-02T12:27:55.188Z</time></trkpt><trkpt lat="43.6755099" lon="12.7587372"><ele>125.0</ele><time>2026-05-02T12:27:56.188Z</time></trkpt><trkpt lat="43.6754657" lon="12.758408"><ele>127.5</ele><time>2026-05-02T12:27:57.191Z</time></trkpt><trkpt lat="43.675416" lon="12.7580568"><ele>130.0</ele><time>2026-05-02T12:27:58.199Z</time></trkpt><trkpt lat="43.6753708" lon="12.7576967"><ele>130.5</ele><time>2026-05-02T12:27:59.198Z</time></trkpt><trkpt lat="43.6753269" lon="12.7573305"><ele>131.0</ele><time>2026-05-02T12:28:00.2Z</time></trkpt><trkpt lat="43.675288" lon="12.7569731"><ele>130.5</ele><time>2026-05-02T12:28:01.204Z</time></trkpt><trkpt lat="43.6752501" lon="12.7566204"><ele>130.0</ele><time>2026-05-02T12:28:02.183Z</time></trkpt><trkpt lat="43.6752124" lon="12.7562727"><ele>129.5</ele><time>2026-05-02T12:28:03.218Z</time></trkpt><trkpt lat="43.6751765" lon="12.7559215"><ele>129.0</ele><time>2026-05-02T12:28:04.202Z</time></trkpt><trkpt lat="43.6751465" lon="12.7555828"><ele>129.0</ele><time>2026-05-02T12:28:05.177Z</time></trkpt><trkpt lat="43.6751089" lon="12.7552483"><ele>129.0</ele><time>2026-05-02T12:28:06.193Z</time></trkpt><trkpt lat="43.6750748" lon="12.7549154"><ele>129.0</ele><time>2026-05-02T12:28:07.198Z</time></trkpt><trkpt lat="43.6750346" lon="12.7545816"><ele>129.0</ele><time>2026-05-02T12:28:08.206Z</time></trkpt><trkpt lat="43.6749954" lon="12.7542417"><ele>126.5</ele><time>2026-05-02T12:28:09.196Z</time></trkpt><trkpt lat="43.6749607" lon="12.7538976"><ele>124.0</ele><time>2026-05-02T12:28:10.208Z</time></trkpt><trkpt lat="43.6749244" lon="12.7535583"><ele>122.5</ele><time>2026-05-02T12:28:11.206Z</time></trkpt><trkpt lat="43.6748953" lon="12.7532277"><ele>121.0</ele><time>2026-05-02T12:28:12.195Z</time></trkpt><trkpt lat="43.6748703" lon="12.7529054"><ele>122.5</ele><time>2026-05-02T12:28:13.204Z</time></trkpt><trkpt lat="43.674851" lon="12.7525764"><ele>124.0</ele><time>2026-05-02T12:28:14.188Z</time></trkpt><trkpt lat="43.6748354" lon="12.752241"><ele>124.0</ele><time>2026-05-02T12:28:15.196Z</time></trkpt><trkpt lat="43.6748314" lon="12.7519099"><ele>124.0</ele><time>2026-05-02T12:28:16.203Z</time></trkpt><trkpt lat="43.6748353" lon="12.751574"><ele>124.0</ele><time>2026-05-02T12:28:17.194Z</time></trkpt><trkpt lat="43.6748516" lon="12.7512508"><ele>124.0</ele><time>2026-05-02T12:28:18.212Z</time></trkpt><trkpt lat="43.6748771" lon="12.7509291"><ele>123.5</ele><time>2026-05-02T12:28:19.188Z</time></trkpt><trkpt lat="43.6749078" lon="12.7506084"><ele>123.0</ele><time>2026-05-02T12:28:20.195Z</time></trkpt><trkpt lat="43.674952" lon="12.7502974"><ele>122.66666666666666</ele><time>2026-05-02T12:28:21.193Z</time></trkpt><trkpt lat="43.6750001" lon="12.7499919"><ele>122.33333333333333</ele><time>2026-05-02T12:28:22.2Z</time></trkpt><trkpt lat="43.6750608" lon="12.7497104"><ele>122.0</ele><time>2026-05-02T12:28:23.186Z</time></trkpt><trkpt lat="43.6751256" lon="12.7494321"><ele>122.66666666666666</ele><time>2026-05-02T12:28:24.205Z</time></trkpt><trkpt lat="43.6751923" lon="12.7491524"><ele>123.33333333333334</ele><time>2026-05-02T12:28:25.192Z</time></trkpt><trkpt lat="43.6752692" lon="12.7488851"><ele>124.0</ele><time>2026-05-02T12:28:26.185Z</time></trkpt><trkpt lat="43.675343" lon="12.7486338"><ele>124.66666666666667</ele><time>2026-05-02T12:28:27.199Z</time></trkpt><trkpt lat="43.6754119" lon="12.7483887"><ele>125.33333333333334</ele><time>2026-05-02T12:28:28.185Z</time></trkpt><trkpt lat="43.6754808" lon="12.7481594"><ele>126.0</ele><time>2026-05-02T12:28:29.183Z</time></trkpt><trkpt lat="43.6755515" lon="12.7479461"><ele>126.0</ele><time>2026-05-02T12:28:30.175Z</time></trkpt><trkpt lat="43.6756203" lon="12.7477422"><ele>126.0</ele><time>2026-05-02T12:28:31.186Z</time></trkpt><trkpt lat="43.6756919" lon="12.747539"><ele>126.0</ele><time>2026-05-02T12:28:32.195Z</time></trkpt><trkpt lat="43.6757607" lon="12.7473454"><ele>125.8</ele><time>2026-05-02T12:28:33.189Z</time></trkpt><trkpt lat="43.6758151" lon="12.7471683"><ele>125.6</ele><time>2026-05-02T12:28:34.183Z</time></trkpt><trkpt lat="43.67586" lon="12.7470288"><ele>125.4</ele><time>2026-05-02T12:28:35.185Z</time></trkpt><trkpt lat="43.6759048" lon="12.7469209"><ele>125.2</ele><time>2026-05-02T12:28:36.196Z</time></trkpt><trkpt lat="43.6759401" lon="12.7468352"><ele>125.0</ele><time>2026-05-02T12:28:37.212Z</time></trkpt><trkpt lat="43.6759892" lon="12.7467502"><ele>124.75</ele><time>2026-05-02T12:28:39.186Z</time></trkpt><trkpt lat="43.6760134" lon="12.7465909"><ele>124.5</ele><time>2026-05-02T12:29:48.183Z</time></trkpt><trkpt lat="43.6760405" lon="12.7464705"><ele>124.25</ele><time>2026-05-02T12:29:49.197Z</time></trkpt><trkpt lat="43.6760808" lon="12.7463203"><ele>124.0</ele><time>2026-05-02T12:29:50.195Z</time></trkpt><trkpt lat="43.6761305" lon="12.7461349"><ele>126.0</ele><time>2026-05-02T12:29:51.191Z</time></trkpt><trkpt lat="43.6762003" lon="12.7459307"><ele>128.0</ele><time>2026-05-02T12:29:52.193Z</time></trkpt><trkpt lat="43.6762666" lon="12.7456937"><ele>130.0</ele><time>2026-05-02T12:29:53.203Z</time></trkpt><trkpt lat="43.6763579" lon="12.7454358"><ele>129.33333333333334</ele><time>2026-05-02T12:29:54.194Z</time></trkpt><trkpt lat="43.6764405" lon="12.7451592"><ele>128.66666666666666</ele><time>2026-05-02T12:29:55.204Z</time></trkpt><trkpt lat="43.6765345" lon="12.7448665"><ele>128.0</ele><time>2026-05-02T12:29:56.185Z</time></trkpt><trkpt lat="43.6766459" lon="12.7445318"><ele>127.5</ele><time>2026-05-02T12:29:57.202Z</time></trkpt><trkpt lat="43.6767557" lon="12.7441819"><ele>127.0</ele><time>2026-05-02T12:29:58.204Z</time></trkpt><trkpt lat="43.6768692" lon="12.7438183"><ele>129.0</ele><time>2026-05-02T12:29:59.18Z</time></trkpt><trkpt lat="43.6769919" lon="12.7434552"><ele>131.0</ele><time>2026-05-02T12:30:00.207Z</time></trkpt><trkpt lat="43.6771183" lon="12.7430716"><ele>131.5</ele><time>2026-05-02T12:30:01.201Z</time></trkpt><trkpt lat="43.677244" lon="12.742689"><ele>132.0</ele><time>2026-05-02T12:30:02.201Z</time></trkpt><trkpt lat="43.6773625" lon="12.7423104"><ele>132.0</ele><time>2026-05-02T12:30:03.194Z</time></trkpt><trkpt lat="43.6774866" lon="12.7419493"><ele>132.0</ele><time>2026-05-02T12:30:04.164Z</time></trkpt><trkpt lat="43.6776105" lon="12.7415964"><ele>131.5</ele><time>2026-05-02T12:30:05.183Z</time></trkpt><trkpt lat="43.6777342" lon="12.7412546"><ele>131.0</ele><time>2026-05-02T12:30:06.2Z</time></trkpt><trkpt lat="43.677859" lon="12.7409237"><ele>132.0</ele><time>2026-05-02T12:30:07.195Z</time></trkpt><trkpt lat="43.6779795" lon="12.7405937"><ele>133.0</ele><time>2026-05-02T12:30:08.192Z</time></trkpt><trkpt lat="43.6781078" lon="12.740271"><ele>132.0</ele><time>2026-05-02T12:30:09.209Z</time></trkpt><trkpt lat="43.6782434" lon="12.7399507"><ele>131.0</ele><time>2026-05-02T12:30:10.195Z</time></trkpt><trkpt lat="43.6783784" lon="12.7396234"><ele>130.5</ele><time>2026-05-02T12:30:11.184Z</time></trkpt><trkpt lat="43.6785171" lon="12.7393021"><ele>130.0</ele><time>2026-05-02T12:30:12.189Z</time></trkpt><trkpt lat="43.6786586" lon="12.7389745"><ele>129.0</ele><time>2026-05-02T12:30:13.191Z</time></trkpt><trkpt lat="43.6787994" lon="12.7386519"><ele>128.0</ele><time>2026-05-02T12:30:14.186Z</time></trkpt><trkpt lat="43.6789424" lon="12.7383315"><ele>128.0</ele><time>2026-05-02T12:30:15.191Z</time></trkpt><trkpt lat="43.6790798" lon="12.7380051"><ele>128.0</ele><time>2026-05-02T12:30:16.184Z</time></trkpt><trkpt lat="43.6792191" lon="12.7376845"><ele>128.5</ele><time>2026-05-02T12:30:17.187Z</time></trkpt><trkpt lat="43.6793585" lon="12.7373659"><ele>129.0</ele><time>2026-05-02T12:30:18.193Z</time></trkpt><trkpt lat="43.6794983" lon="12.7370404"><ele>129.0</ele><time>2026-05-02T12:30:19.191Z</time></trkpt><trkpt lat="43.67964" lon="12.7367144"><ele>129.0</ele><time>2026-05-02T12:30:20.206Z</time></trkpt><trkpt lat="43.6797808" lon="12.7363911"><ele>129.0</ele><time>2026-05-02T12:30:21.2Z</time></trkpt><trkpt lat="43.6799209" lon="12.736067"><ele>129.0</ele><time>2026-05-02T12:30:22.195Z</time></trkpt><trkpt lat="43.680058" lon="12.735745"><ele>129.5</ele><time>2026-05-02T12:30:23.192Z</time></trkpt><trkpt lat="43.6801929" lon="12.7354167"><ele>130.0</ele><time>2026-05-02T12:30:24.195Z</time></trkpt><trkpt lat="43.6803304" lon="12.7350871"><ele>132.0</ele><time>2026-05-02T12:30:25.198Z</time></trkpt><trkpt lat="43.680465" lon="12.7347552"><ele>134.0</ele><time>2026-05-02T12:30:26.189Z</time></trkpt><trkpt lat="43.6805986" lon="12.7344244"><ele>134.0</ele><time>2026-05-02T12:30:27.19Z</time></trkpt><trkpt lat="43.6807271" lon="12.7340895"><ele>134.0</ele><time>2026-05-02T12:30:28.198Z</time></trkpt><trkpt lat="43.6808505" lon="12.7337614"><ele>134.0</ele><time>2026-05-02T12:30:29.179Z</time></trkpt><trkpt lat="43.6809687" lon="12.7334193"><ele>134.0</ele><time>2026-05-02T12:30:30.196Z</time></trkpt><trkpt lat="43.6810881" lon="12.7330744"><ele>134.5</ele><time>2026-05-02T12:30:31.198Z</time></trkpt><trkpt lat="43.6812024" lon="12.7327281"><ele>135.0</ele><time>2026-05-02T12:30:32.173Z</time></trkpt><trkpt lat="43.6813155" lon="12.732375"><ele>133.5</ele><time>2026-05-02T12:30:33.195Z</time></trkpt><trkpt lat="43.6814299" lon="12.7320086"><ele>132.0</ele><time>2026-05-02T12:30:34.181Z</time></trkpt><trkpt lat="43.6815412" lon="12.7316383"><ele>131.5</ele><time>2026-05-02T12:30:35.206Z</time></trkpt><trkpt lat="43.6816572" lon="12.7312647"><ele>131.0</ele><time>2026-05-02T12:30:36.202Z</time></trkpt><trkpt lat="43.6817726" lon="12.7308877"><ele>132.5</ele><time>2026-05-02T12:30:37.213Z</time></trkpt><trkpt lat="43.6818889" lon="12.7305079"><ele>134.0</ele><time>2026-05-02T12:30:38.176Z</time></trkpt><trkpt lat="43.6820104" lon="12.7301196"><ele>135.5</ele><time>2026-05-02T12:30:39.193Z</time></trkpt><trkpt lat="43.6821316" lon="12.729735"><ele>137.0</ele><time>2026-05-02T12:30:40.211Z</time></trkpt><trkpt lat="43.6822505" lon="12.7293512"><ele>137.0</ele><time>2026-05-02T12:30:41.198Z</time></trkpt><trkpt lat="43.6823699" lon="12.7289737"><ele>137.0</ele><time>2026-05-02T12:30:42.204Z</time></trkpt><trkpt lat="43.6824898" lon="12.7285962"><ele>135.0</ele><time>2026-05-02T12:30:43.198Z</time></trkpt><trkpt lat="43.6826092" lon="12.7282212"><ele>133.0</ele><time>2026-05-02T12:30:44.196Z</time></trkpt><trkpt lat="43.6827386" lon="12.7278641"><ele>135.0</ele><time>2026-05-02T12:30:45.203Z</time></trkpt><trkpt lat="43.682876" lon="12.7275191"><ele>137.0</ele><time>2026-05-02T12:30:46.198Z</time></trkpt><trkpt lat="43.6830232" lon="12.7271792"><ele>137.5</ele><time>2026-05-02T12:30:47.194Z</time></trkpt><trkpt lat="43.683183" lon="12.7268448"><ele>138.0</ele><time>2026-05-02T12:30:48.197Z</time></trkpt><trkpt lat="43.6833469" lon="12.7265168"><ele>138.0</ele><time>2026-05-02T12:30:49.167Z</time></trkpt><trkpt lat="43.6835166" lon="12.7262006"><ele>138.0</ele><time>2026-05-02T12:30:50.199Z</time></trkpt><trkpt lat="43.6836952" lon="12.7258904"><ele>139.5</ele><time>2026-05-02T12:30:51.192Z</time></trkpt><trkpt lat="43.6838734" lon="12.7255817"><ele>141.0</ele><time>2026-05-02T12:30:52.187Z</time></trkpt><trkpt lat="43.6840585" lon="12.7252839"><ele>140.0</ele><time>2026-05-02T12:30:53.189Z</time></trkpt><trkpt lat="43.6842469" lon="12.7249846"><ele>139.0</ele><time>2026-05-02T12:30:54.185Z</time></trkpt><trkpt lat="43.6844407" lon="12.7246877"><ele>140.5</ele><time>2026-05-02T12:30:55.19Z</time></trkpt><trkpt lat="43.6846313" lon="12.7243898"><ele>142.0</ele><time>2026-05-02T12:30:56.194Z</time></trkpt><trkpt lat="43.6848234" lon="12.7240962"><ele>142.0</ele><time>2026-05-02T12:30:57.196Z</time></trkpt><trkpt lat="43.685013" lon="12.7238068"><ele>142.0</ele><time>2026-05-02T12:30:58.193Z</time></trkpt><trkpt lat="43.6852" lon="12.7235069"><ele>143.5</ele><time>2026-05-02T12:30:59.189Z</time></trkpt><trkpt lat="43.6853836" lon="12.7231993"><ele>145.0</ele><time>2026-05-02T12:31:00.193Z</time></trkpt><trkpt lat="43.6855589" lon="12.7228882"><ele>144.5</ele><time>2026-05-02T12:31:01.181Z</time></trkpt><trkpt lat="43.6857182" lon="12.7225778"><ele>144.0</ele><time>2026-05-02T12:31:02.211Z</time></trkpt><trkpt lat="43.6858712" lon="12.7222729"><ele>144.0</ele><time>2026-05-02T12:31:03.191Z</time></trkpt><trkpt lat="43.6860104" lon="12.7219635"><ele>144.0</ele><time>2026-05-02T12:31:04.197Z</time></trkpt><trkpt lat="43.6861461" lon="12.7216481"><ele>144.0</ele><time>2026-05-02T12:31:05.196Z</time></trkpt><trkpt lat="43.6862735" lon="12.7213312"><ele>144.0</ele><time>2026-05-02T12:31:06.193Z</time></trkpt><trkpt lat="43.6863882" lon="12.7210043"><ele>143.5</ele><time>2026-05-02T12:31:07.2Z</time></trkpt><trkpt lat="43.6864866" lon="12.7206793"><ele>143.0</ele><time>2026-05-02T12:31:08.194Z</time></trkpt><trkpt lat="43.6865793" lon="12.7203457"><ele>143.5</ele><time>2026-05-02T12:31:09.201Z</time></trkpt><trkpt lat="43.6866735" lon="12.7200172"><ele>144.0</ele><time>2026-05-02T12:31:10.201Z</time></trkpt><trkpt lat="43.68676" lon="12.7196828"><ele>142.5</ele><time>2026-05-02T12:31:11.195Z</time></trkpt><trkpt lat="43.6868396" lon="12.7193475"><ele>141.0</ele><time>2026-05-02T12:31:12.182Z</time></trkpt><trkpt lat="43.6869123" lon="12.7190097"><ele>142.5</ele><time>2026-05-02T12:31:13.196Z</time></trkpt><trkpt lat="43.6869824" lon="12.7186707"><ele>144.0</ele><time>2026-05-02T12:31:14.185Z</time></trkpt><trkpt lat="43.6870499" lon="12.7183223"><ele>144.5</ele><time>2026-05-02T12:31:15.193Z</time></trkpt><trkpt lat="43.6871201" lon="12.7179788"><ele>145.0</ele><time>2026-05-02T12:31:16.198Z</time></trkpt><trkpt lat="43.6871903" lon="12.7176286"><ele>144.0</ele><time>2026-05-02T12:31:17.189Z</time></trkpt><trkpt lat="43.6872577" lon="12.7172755"><ele>143.0</ele><time>2026-05-02T12:31:18.184Z</time></trkpt><trkpt lat="43.6873216" lon="12.7169235"><ele>143.0</ele><time>2026-05-02T12:31:19.181Z</time></trkpt><trkpt lat="43.6873794" lon="12.7165798"><ele>143.0</ele><time>2026-05-02T12:31:20.185Z</time></trkpt><trkpt lat="43.6874392" lon="12.7162503"><ele>144.0</ele><time>2026-05-02T12:31:21.185Z</time></trkpt><trkpt lat="43.6874941" lon="12.7159306"><ele>145.0</ele><time>2026-05-02T12:31:22.186Z</time></trkpt><trkpt lat="43.6875545" lon="12.7156041"><ele>145.0</ele><time>2026-05-02T12:31:23.177Z</time></trkpt><trkpt lat="43.6876232" lon="12.7152775"><ele>145.0</ele><time>2026-05-02T12:31:24.177Z</time></trkpt><trkpt lat="43.6876958" lon="12.7149569"><ele>145.0</ele><time>2026-05-02T12:31:25.192Z</time></trkpt><trkpt lat="43.6877703" lon="12.7146595"><ele>145.0</ele><time>2026-05-02T12:31:26.188Z</time></trkpt><trkpt lat="43.6878429" lon="12.7143735"><ele>145.0</ele><time>2026-05-02T12:31:27.184Z</time></trkpt><trkpt lat="43.6879196" lon="12.7141079"><ele>145.0</ele><time>2026-05-02T12:31:28.183Z</time></trkpt><trkpt lat="43.6880039" lon="12.7138574"><ele>145.0</ele><time>2026-05-02T12:31:29.184Z</time></trkpt><trkpt lat="43.6880968" lon="12.7136406"><ele>145.0</ele><time>2026-05-02T12:31:30.196Z</time></trkpt><trkpt lat="43.6882107" lon="12.7134375"><ele>145.0</ele><time>2026-05-02T12:31:31.204Z</time></trkpt><trkpt lat="43.6883491" lon="12.7132373"><ele>145.0</ele><time>2026-05-02T12:31:32.168Z</time></trkpt><trkpt lat="43.68849" lon="12.7130357"><ele>145.0</ele><time>2026-05-02T12:31:33.177Z</time></trkpt><trkpt lat="43.6886347" lon="12.712827"><ele>146.33333333333334</ele><time>2026-05-02T12:31:34.184Z</time></trkpt><trkpt lat="43.6887901" lon="12.7126305"><ele>147.66666666666666</ele><time>2026-05-02T12:31:35.189Z</time></trkpt><trkpt lat="43.6889382" lon="12.7124438"><ele>149.0</ele><time>2026-05-02T12:31:36.182Z</time></trkpt><trkpt lat="43.6890794" lon="12.7122641"><ele>149.0</ele><time>2026-05-02T12:31:37.181Z</time></trkpt><trkpt lat="43.6892135" lon="12.7120935"><ele>149.0</ele><time>2026-05-02T12:31:38.182Z</time></trkpt><trkpt lat="43.6893383" lon="12.7119212"><ele>149.0</ele><time>2026-05-02T12:31:39.185Z</time></trkpt><trkpt lat="43.6894496" lon="12.711765"><ele>151.66666666666666</ele><time>2026-05-02T12:31:40.19Z</time></trkpt><trkpt lat="43.6895607" lon="12.7116095"><ele>154.33333333333334</ele><time>2026-05-02T12:31:41.187Z</time></trkpt><trkpt lat="43.6896679" lon="12.7114494"><ele>157.0</ele><time>2026-05-02T12:31:42.183Z</time></trkpt><trkpt lat="43.6897722" lon="12.7112716"><ele>157.0</ele><time>2026-05-02T12:31:43.184Z</time></trkpt><trkpt lat="43.6898772" lon="12.7110806"><ele>157.0</ele><time>2026-05-02T12:31:44.198Z</time></trkpt><trkpt lat="43.6899878" lon="12.7108911"><ele>157.0</ele><time>2026-05-02T12:31:45.206Z</time></trkpt><trkpt lat="43.6900983" lon="12.7107021"><ele>156.0</ele><time>2026-05-02T12:31:46.186Z</time></trkpt><trkpt lat="43.6902133" lon="12.7105178"><ele>155.0</ele><time>2026-05-02T12:31:47.189Z</time></trkpt><trkpt lat="43.6903256" lon="12.7103392"><ele>154.0</ele><time>2026-05-02T12:31:48.189Z</time></trkpt><trkpt lat="43.6904331" lon="12.7101698"><ele>154.0</ele><time>2026-05-02T12:31:49.194Z</time></trkpt><trkpt lat="43.6905305" lon="12.7099974"><ele>154.0</ele><time>2026-05-02T12:31:50.195Z</time></trkpt><trkpt lat="43.6906248" lon="12.7098363"><ele>154.0</ele><time>2026-05-02T12:31:51.202Z</time></trkpt><trkpt lat="43.6907116" lon="12.7096892"><ele>154.0</ele><time>2026-05-02T12:31:52.194Z</time></trkpt><trkpt lat="43.6907877" lon="12.7095478"><ele>154.0</ele><time>2026-05-02T12:31:53.201Z</time></trkpt><trkpt lat="43.6908656" lon="12.7094249"><ele>154.0</ele><time>2026-05-02T12:31:54.201Z</time></trkpt><trkpt lat="43.6909398" lon="12.709311"><ele>154.0</ele><time>2026-05-02T12:31:55.191Z</time></trkpt><trkpt lat="43.6910186" lon="12.7092116"><ele>154.0</ele><time>2026-05-02T12:31:56.201Z</time></trkpt><trkpt lat="43.6911023" lon="12.7091383"><ele>154.0</ele><time>2026-05-02T12:31:57.183Z</time></trkpt><trkpt lat="43.6911938" lon="12.7090714"><ele>154.83333333333334</ele><time>2026-05-02T12:31:58.19Z</time></trkpt><trkpt lat="43.6912591" lon="12.7090016"><ele>155.66666666666669</ele><time>2026-05-02T12:31:59.188Z</time></trkpt><trkpt lat="43.691306" lon="12.7089103"><ele>156.5</ele><time>2026-05-02T12:32:00.201Z</time></trkpt><trkpt lat="43.6913301" lon="12.7088055"><ele>157.33333333333334</ele><time>2026-05-02T12:32:01.19Z</time></trkpt><trkpt lat="43.6913458" lon="12.7086857"><ele>158.16666666666666</ele><time>2026-05-02T12:32:02.192Z</time></trkpt><trkpt lat="43.6913813" lon="12.708561"><ele>159.0</ele><time>2026-05-02T12:32:03.195Z</time></trkpt><trkpt lat="43.6914412" lon="12.7084146"><ele>159.0</ele><time>2026-05-02T12:32:04.188Z</time></trkpt><trkpt lat="43.6915261" lon="12.7082639"><ele>159.0</ele><time>2026-05-02T12:32:05.193Z</time></trkpt><trkpt lat="43.6916225" lon="12.7081189"><ele>159.0</ele><time>2026-05-02T12:32:06.184Z</time></trkpt><trkpt lat="43.6917015" lon="12.7079755"><ele>159.0</ele><time>2026-05-02T12:32:07.187Z</time></trkpt><trkpt lat="43.6917631" lon="12.7078135"><ele>159.25</ele><time>2026-05-02T12:32:08.194Z</time></trkpt><trkpt lat="43.691802" lon="12.7076317"><ele>159.5</ele><time>2026-05-02T12:32:09.195Z</time></trkpt><trkpt lat="43.6918233" lon="12.7074366"><ele>159.75</ele><time>2026-05-02T12:32:10.192Z</time></trkpt><trkpt lat="43.6918335" lon="12.7072321"><ele>160.0</ele><time>2026-05-02T12:32:11.197Z</time></trkpt><trkpt lat="43.6918479" lon="12.7070308"><ele>160.0</ele><time>2026-05-02T12:32:12.184Z</time></trkpt><trkpt lat="43.6918637" lon="12.7068246"><ele>160.0</ele><time>2026-05-02T12:32:13.197Z</time></trkpt><trkpt lat="43.6918947" lon="12.7066293"><ele>160.0</ele><time>2026-05-02T12:32:14.178Z</time></trkpt><trkpt lat="43.6919367" lon="12.7064434"><ele>160.0</ele><time>2026-05-02T12:32:15.197Z</time></trkpt><trkpt lat="43.6919853" lon="12.7062667"><ele>160.25</ele><time>2026-05-02T12:32:16.193Z</time></trkpt><trkpt lat="43.6920338" lon="12.7060975"><ele>160.5</ele><time>2026-05-02T12:32:17.19Z</time></trkpt><trkpt lat="43.692091" lon="12.7059306"><ele>160.75</ele><time>2026-05-02T12:32:18.183Z</time></trkpt><trkpt lat="43.6921525" lon="12.7057684"><ele>161.0</ele><time>2026-05-02T12:32:19.189Z</time></trkpt><trkpt lat="43.6922112" lon="12.7056054"><ele>161.25</ele><time>2026-05-02T12:32:20.191Z</time></trkpt><trkpt lat="43.6922684" lon="12.70544"><ele>161.5</ele><time>2026-05-02T12:32:21.181Z</time></trkpt><trkpt lat="43.692328" lon="12.7052752"><ele>161.75</ele><time>2026-05-02T12:32:22.193Z</time></trkpt><trkpt lat="43.6923873" lon="12.7051081"><ele>162.0</ele><time>2026-05-02T12:32:23.18Z</time></trkpt><trkpt lat="43.6924443" lon="12.7049511"><ele>162.75</ele><time>2026-05-02T12:32:24.156Z</time></trkpt><trkpt lat="43.6924982" lon="12.7047954"><ele>163.5</ele><time>2026-05-02T12:32:25.2Z</time></trkpt><trkpt lat="43.6925535" lon="12.7046456"><ele>164.25</ele><time>2026-05-02T12:32:26.2Z</time></trkpt><trkpt lat="43.6926043" lon="12.7044977"><ele>165.0</ele><time>2026-05-02T12:32:27.193Z</time></trkpt><trkpt lat="43.6926586" lon="12.7043614"><ele>165.0</ele><time>2026-05-02T12:32:28.192Z</time></trkpt><trkpt lat="43.6927101" lon="12.7042283"><ele>165.0</ele><time>2026-05-02T12:32:29.189Z</time></trkpt><trkpt lat="43.6927589" lon="12.7041045"><ele>165.0</ele><time>2026-05-02T12:32:30.191Z</time></trkpt><trkpt lat="43.6928066" lon="12.7039758"><ele>165.0</ele><time>2026-05-02T12:32:31.198Z</time></trkpt><trkpt lat="43.6928603" lon="12.703844"><ele>165.0</ele><time>2026-05-02T12:32:32.185Z</time></trkpt><trkpt lat="43.6929097" lon="12.7037077"><ele>165.4</ele><time>2026-05-02T12:32:33.197Z</time></trkpt><trkpt lat="43.6929606" lon="12.703584"><ele>165.8</ele><time>2026-05-02T12:32:34.196Z</time></trkpt><trkpt lat="43.6930056" lon="12.7034635"><ele>166.2</ele><time>2026-05-02T12:32:35.187Z</time></trkpt><trkpt lat="43.6930499" lon="12.7033452"><ele>166.6</ele><time>2026-05-02T12:32:36.183Z</time></trkpt><trkpt lat="43.6930904" lon="12.7032271"><ele>167.0</ele><time>2026-05-02T12:32:37.188Z</time></trkpt><trkpt lat="43.6931323" lon="12.7031146"><ele>167.0</ele><time>2026-05-02T12:32:38.208Z</time></trkpt><trkpt lat="43.6931753" lon="12.702996"><ele>167.0</ele><time>2026-05-02T12:32:39.166Z</time></trkpt><trkpt lat="43.6932201" lon="12.7028691"><ele>167.0</ele><time>2026-05-02T12:32:40.196Z</time></trkpt><trkpt lat="43.6932719" lon="12.7027368"><ele>167.0</ele><time>2026-05-02T12:32:41.188Z</time></trkpt><trkpt lat="43.6933219" lon="12.7025954"><ele>167.0</ele><time>2026-05-02T12:32:42.202Z</time></trkpt><trkpt lat="43.6933735" lon="12.7024529"><ele>167.5</ele><time>2026-05-02T12:32:43.189Z</time></trkpt><trkpt lat="43.6934292" lon="12.7023095"><ele>168.0</ele><time>2026-05-02T12:32:44.196Z</time></trkpt><trkpt lat="43.6934892" lon="12.7021477"><ele>168.5</ele><time>2026-05-02T12:32:45.192Z</time></trkpt><trkpt lat="43.6935504" lon="12.7019735"><ele>169.0</ele><time>2026-05-02T12:32:46.191Z</time></trkpt><trkpt lat="43.6936132" lon="12.7017989"><ele>170.0</ele><time>2026-05-02T12:32:47.191Z</time></trkpt><trkpt lat="43.693679" lon="12.7016292"><ele>171.0</ele><time>2026-05-02T12:32:48.21Z</time></trkpt><trkpt lat="43.6937487" lon="12.7014729"><ele>172.0</ele><time>2026-05-02T12:32:49.203Z</time></trkpt><trkpt lat="43.6938076" lon="12.7013175"><ele>173.0</ele><time>2026-05-02T12:32:50.203Z</time></trkpt><trkpt lat="43.6938624" lon="12.7011631"><ele>173.0</ele><time>2026-05-02T12:32:51.199Z</time></trkpt><trkpt lat="43.6939113" lon="12.7010049"><ele>173.0</ele><time>2026-05-02T12:32:52.193Z</time></trkpt><trkpt lat="43.6939564" lon="12.7008529"><ele>173.0</ele><time>2026-05-02T12:32:53.213Z</time></trkpt><trkpt lat="43.6939932" lon="12.7007093"><ele>173.0</ele><time>2026-05-02T12:32:54.192Z</time></trkpt><trkpt lat="43.6940382" lon="12.7005711"><ele>173.0</ele><time>2026-05-02T12:32:55.178Z</time></trkpt><trkpt lat="43.6940792" lon="12.7004256"><ele>173.0</ele><time>2026-05-02T12:32:56.197Z</time></trkpt><trkpt lat="43.6941206" lon="12.7002772"><ele>173.0</ele><time>2026-05-02T12:32:57.189Z</time></trkpt><trkpt lat="43.6941637" lon="12.7001237"><ele>173.0</ele><time>2026-05-02T12:32:58.2Z</time></trkpt><trkpt lat="43.6942079" lon="12.6999685"><ele>173.0</ele><time>2026-05-02T12:32:59.191Z</time></trkpt><trkpt lat="43.6942515" lon="12.6998102"><ele>173.0</ele><time>2026-05-02T12:33:00.188Z</time></trkpt><trkpt lat="43.6943064" lon="12.6996483"><ele>173.0</ele><time>2026-05-02T12:33:01.187Z</time></trkpt><trkpt lat="43.6943629" lon="12.6994989"><ele>173.0</ele><time>2026-05-02T12:33:02.194Z</time></trkpt><trkpt lat="43.6944256" lon="12.6993512"><ele>172.75</ele><time>2026-05-02T12:33:03.203Z</time></trkpt><trkpt lat="43.6944833" lon="12.6992117"><ele>172.5</ele><time>2026-05-02T12:33:04.188Z</time></trkpt><trkpt lat="43.6945397" lon="12.6990641"><ele>172.25</ele><time>2026-05-02T12:33:05.21Z</time></trkpt><trkpt lat="43.6945969" lon="12.6989079"><ele>172.0</ele><time>2026-05-02T12:33:06.191Z</time></trkpt><trkpt lat="43.6946648" lon="12.6987354"><ele>171.33333333333334</ele><time>2026-05-02T12:33:07.197Z</time></trkpt><trkpt lat="43.6947428" lon="12.6985535"><ele>170.66666666666666</ele><time>2026-05-02T12:33:08.2Z</time></trkpt><trkpt lat="43.6948263" lon="12.6983721"><ele>170.0</ele><time>2026-05-02T12:33:09.194Z</time></trkpt><trkpt lat="43.6949097" lon="12.6981894"><ele>170.0</ele><time>2026-05-02T12:33:10.189Z</time></trkpt><trkpt lat="43.6949979" lon="12.6980212"><ele>170.0</ele><time>2026-05-02T12:33:11.197Z</time></trkpt><trkpt lat="43.695073" lon="12.6978445"><ele>170.0</ele><time>2026-05-02T12:33:12.199Z</time></trkpt><trkpt lat="43.6951493" lon="12.6976644"><ele>170.0</ele><time>2026-05-02T12:33:13.201Z</time></trkpt><trkpt lat="43.695225" lon="12.6974825"><ele>170.0</ele><time>2026-05-02T12:33:14.193Z</time></trkpt><trkpt lat="43.6953048" lon="12.697309"><ele>170.0</ele><time>2026-05-02T12:33:15.2Z</time></trkpt><trkpt lat="43.6953788" lon="12.6971347"><ele>170.0</ele><time>2026-05-02T12:33:16.196Z</time></trkpt><trkpt lat="43.6954569" lon="12.6969559"><ele>170.0</ele><time>2026-05-02T12:33:17.182Z</time></trkpt><trkpt lat="43.6955309" lon="12.6967867"><ele>169.75</ele><time>2026-05-02T12:33:18.206Z</time></trkpt><trkpt lat="43.6956007" lon="12.6966319"><ele>169.5</ele><time>2026-05-02T12:33:19.195Z</time></trkpt><trkpt lat="43.6956678" lon="12.6964789"><ele>169.25</ele><time>2026-05-02T12:33:20.223Z</time></trkpt><trkpt lat="43.6957343" lon="12.6963295"><ele>169.0</ele><time>2026-05-02T12:33:21.2Z</time></trkpt><trkpt lat="43.6958017" lon="12.6961862"><ele>168.25</ele><time>2026-05-02T12:33:22.211Z</time></trkpt><trkpt lat="43.6958759" lon="12.6960239"><ele>167.5</ele><time>2026-05-02T12:33:23.204Z</time></trkpt><trkpt lat="43.6959513" lon="12.6958526"><ele>166.75</ele><time>2026-05-02T12:33:24.184Z</time></trkpt><trkpt lat="43.6960298" lon="12.6956653"><ele>166.0</ele><time>2026-05-02T12:33:25.195Z</time></trkpt><trkpt lat="43.6961194" lon="12.6954562"><ele>165.66666666666669</ele><time>2026-05-02T12:33:26.186Z</time></trkpt><trkpt lat="43.6962119" lon="12.6952361"><ele>165.33333333333334</ele><time>2026-05-02T12:33:27.202Z</time></trkpt><trkpt lat="43.6963035" lon="12.6950085"><ele>165.0</ele><time>2026-05-02T12:33:28.188Z</time></trkpt><trkpt lat="43.696404" lon="12.6947842"><ele>165.0</ele><time>2026-05-02T12:33:29.202Z</time></trkpt><trkpt lat="43.6965042" lon="12.6945555"><ele>165.0</ele><time>2026-05-02T12:33:30.175Z</time></trkpt><trkpt lat="43.6966086" lon="12.6943245"><ele>165.0</ele><time>2026-05-02T12:33:31.19Z</time></trkpt><trkpt lat="43.696716" lon="12.6940887"><ele>164.33333333333334</ele><time>2026-05-02T12:33:32.197Z</time></trkpt><trkpt lat="43.696824" lon="12.6938459"><ele>163.66666666666669</ele><time>2026-05-02T12:33:33.194Z</time></trkpt><trkpt lat="43.6969303" lon="12.6935979"><ele>163.0</ele><time>2026-05-02T12:33:34.206Z</time></trkpt><trkpt lat="43.6970395" lon="12.6933513"><ele>163.33333333333334</ele><time>2026-05-02T12:33:35.185Z</time></trkpt><trkpt lat="43.697147" lon="12.693103"><ele>163.66666666666666</ele><time>2026-05-02T12:33:36.182Z</time></trkpt><trkpt lat="43.6972549" lon="12.6928526"><ele>164.0</ele><time>2026-05-02T12:33:37.181Z</time></trkpt><trkpt lat="43.697365" lon="12.6925991"><ele>164.0</ele><time>2026-05-02T12:33:38.186Z</time></trkpt><trkpt lat="43.6974747" lon="12.6923526"><ele>164.0</ele><time>2026-05-02T12:33:39.183Z</time></trkpt><trkpt lat="43.6975872" lon="12.6921015"><ele>164.0</ele><time>2026-05-02T12:33:40.191Z</time></trkpt><trkpt lat="43.6976937" lon="12.6918438"><ele>166.0</ele><time>2026-05-02T12:33:41.205Z</time></trkpt><trkpt lat="43.6977972" lon="12.6915816"><ele>168.0</ele><time>2026-05-02T12:33:42.194Z</time></trkpt><trkpt lat="43.6978942" lon="12.6913123"><ele>170.0</ele><time>2026-05-02T12:33:43.2Z</time></trkpt><trkpt lat="43.6979831" lon="12.6910376"><ele>170.0</ele><time>2026-05-02T12:33:44.193Z</time></trkpt><trkpt lat="43.6980662" lon="12.690763"><ele>170.0</ele><time>2026-05-02T12:33:45.202Z</time></trkpt><trkpt lat="43.698149" lon="12.6904907"><ele>170.0</ele><time>2026-05-02T12:33:46.201Z</time></trkpt><trkpt lat="43.6982311" lon="12.6902218"><ele>169.66666666666666</ele><time>2026-05-02T12:33:47.224Z</time></trkpt><trkpt lat="43.6983136" lon="12.689952"><ele>169.33333333333334</ele><time>2026-05-02T12:33:48.186Z</time></trkpt><trkpt lat="43.6983942" lon="12.6896801"><ele>169.0</ele><time>2026-05-02T12:33:49.195Z</time></trkpt><trkpt lat="43.6984749" lon="12.6894163"><ele>168.66666666666669</ele><time>2026-05-02T12:33:50.192Z</time></trkpt><trkpt lat="43.6985582" lon="12.6891528"><ele>168.33333333333334</ele><time>2026-05-02T12:33:51.206Z</time></trkpt><trkpt lat="43.698638" lon="12.68889"><ele>168.0</ele><time>2026-05-02T12:33:52.189Z</time></trkpt><trkpt lat="43.6987196" lon="12.6886332"><ele>170.33333333333334</ele><time>2026-05-02T12:33:53.197Z</time></trkpt><trkpt lat="43.6988007" lon="12.6883707"><ele>172.66666666666669</ele><time>2026-05-02T12:33:54.174Z</time></trkpt><trkpt lat="43.6988793" lon="12.6881186"><ele>175.0</ele><time>2026-05-02T12:33:55.193Z</time></trkpt><trkpt lat="43.6989605" lon="12.6878665"><ele>176.0</ele><time>2026-05-02T12:33:56.19Z</time></trkpt><trkpt lat="43.6990385" lon="12.6876169"><ele>177.0</ele><time>2026-05-02T12:33:57.191Z</time></trkpt><trkpt lat="43.6991195" lon="12.6873684"><ele>178.0</ele><time>2026-05-02T12:33:58.193Z</time></trkpt><trkpt lat="43.699198" lon="12.6871146"><ele>177.66666666666669</ele><time>2026-05-02T12:33:59.198Z</time></trkpt><trkpt lat="43.6992762" lon="12.6868586"><ele>177.33333333333334</ele><time>2026-05-02T12:34:00.192Z</time></trkpt><trkpt lat="43.6993551" lon="12.6866049"><ele>177.0</ele><time>2026-05-02T12:34:01.188Z</time></trkpt><trkpt lat="43.6994346" lon="12.6863586"><ele>178.66666666666666</ele><time>2026-05-02T12:34:02.205Z</time></trkpt><trkpt lat="43.6995082" lon="12.6861272"><ele>180.33333333333331</ele><time>2026-05-02T12:34:03.198Z</time></trkpt><trkpt lat="43.6995815" lon="12.6859058"><ele>182.0</ele><time>2026-05-02T12:34:04.193Z</time></trkpt><trkpt lat="43.6996453" lon="12.685699"><ele>182.0</ele><time>2026-05-02T12:34:05.198Z</time></trkpt><trkpt lat="43.6997073" lon="12.6855085"><ele>182.0</ele><time>2026-05-02T12:34:06.199Z</time></trkpt><trkpt lat="43.6997836" lon="12.685359"><ele>182.0</ele><time>2026-05-02T12:34:07.191Z</time></trkpt><trkpt lat="43.6998787" lon="12.6852621"><ele>182.0</ele><time>2026-05-02T12:34:08.188Z</time></trkpt><trkpt lat="43.7000029" lon="12.6852288"><ele>183.0</ele><time>2026-05-02T12:34:09.198Z</time></trkpt><trkpt lat="43.7001309" lon="12.6852484"><ele>184.0</ele><time>2026-05-02T12:34:10.202Z</time></trkpt><trkpt lat="43.7002623" lon="12.6853012"><ele>185.0</ele><time>2026-05-02T12:34:11.172Z</time></trkpt><trkpt lat="43.7003901" lon="12.6853558"><ele>186.0</ele><time>2026-05-02T12:34:12.199Z</time></trkpt><trkpt lat="43.7005197" lon="12.6853933"><ele>186.0</ele><time>2026-05-02T12:34:13.208Z</time></trkpt><trkpt lat="43.7006605" lon="12.6853774"><ele>186.0</ele><time>2026-05-02T12:34:14.2Z</time></trkpt><trkpt lat="43.7007994" lon="12.6853177"><ele>186.0</ele><time>2026-05-02T12:34:15.193Z</time></trkpt><trkpt lat="43.7009241" lon="12.6852172"><ele>186.0</ele><time>2026-05-02T12:34:16.195Z</time></trkpt><trkpt lat="43.7010418" lon="12.685098"><ele>183.25</ele><time>2026-05-02T12:34:17.206Z</time></trkpt><trkpt lat="43.7011344" lon="12.6849456"><ele>180.5</ele><time>2026-05-02T12:34:18.182Z</time></trkpt><trkpt lat="43.7012075" lon="12.6847761"><ele>177.75</ele><time>2026-05-02T12:34:19.198Z</time></trkpt><trkpt lat="43.7012811" lon="12.684589"><ele>175.0</ele><time>2026-05-02T12:34:20.19Z</time></trkpt><trkpt lat="43.7013514" lon="12.6844093"><ele>173.5</ele><time>2026-05-02T12:34:21.193Z</time></trkpt><trkpt lat="43.7014183" lon="12.684219"><ele>172.0</ele><time>2026-05-02T12:34:22.197Z</time></trkpt><trkpt lat="43.7014866" lon="12.6840318"><ele>170.5</ele><time>2026-05-02T12:34:23.194Z</time></trkpt><trkpt lat="43.7015569" lon="12.6838569"><ele>169.0</ele><time>2026-05-02T12:34:24.205Z</time></trkpt><trkpt lat="43.7016309" lon="12.683693"><ele>168.0</ele><time>2026-05-02T12:34:25.199Z</time></trkpt><trkpt lat="43.7016974" lon="12.6835286"><ele>167.0</ele><time>2026-05-02T12:34:26.193Z</time></trkpt><trkpt lat="43.7017491" lon="12.6833601"><ele>166.0</ele><time>2026-05-02T12:34:27.203Z</time></trkpt><trkpt lat="43.7017751" lon="12.6831863"><ele>165.0</ele><time>2026-05-02T12:34:28.184Z</time></trkpt><trkpt lat="43.7017689" lon="12.6829948"><ele>165.0</ele><time>2026-05-02T12:34:29.204Z</time></trkpt><trkpt lat="43.7017473" lon="12.6827936"><ele>165.0</ele><time>2026-05-02T12:34:30.208Z</time></trkpt><trkpt lat="43.7017125" lon="12.6825912"><ele>165.0</ele><time>2026-05-02T12:34:31.183Z</time></trkpt><trkpt lat="43.7016736" lon="12.6823813"><ele>165.0</ele><time>2026-05-02T12:34:32.192Z</time></trkpt><trkpt lat="43.7016375" lon="12.6821678"><ele>165.0</ele><time>2026-05-02T12:34:33.186Z</time></trkpt><trkpt lat="43.7015923" lon="12.6819467"><ele>165.0</ele><time>2026-05-02T12:34:34.207Z</time></trkpt><trkpt lat="43.7015517" lon="12.6817312"><ele>165.75</ele><time>2026-05-02T12:34:35.201Z</time></trkpt><trkpt lat="43.7015137" lon="12.6815253"><ele>166.5</ele><time>2026-05-02T12:34:36.166Z</time></trkpt><trkpt lat="43.7014702" lon="12.6813271"><ele>167.25</ele><time>2026-05-02T12:34:37.196Z</time></trkpt><trkpt lat="43.7014296" lon="12.6811422"><ele>168.0</ele><time>2026-05-02T12:34:38.187Z</time></trkpt><trkpt lat="43.7013932" lon="12.6809626"><ele>168.75</ele><time>2026-05-02T12:34:39.197Z</time></trkpt><trkpt lat="43.7013565" lon="12.680789"><ele>169.5</ele><time>2026-05-02T12:34:40.196Z</time></trkpt><trkpt lat="43.7013091" lon="12.6806253"><ele>170.25</ele><time>2026-05-02T12:34:41.192Z</time></trkpt><trkpt lat="43.7012507" lon="12.6804786"><ele>171.0</ele><time>2026-05-02T12:34:42.187Z</time></trkpt><trkpt lat="43.7011672" lon="12.6803582"><ele>169.5</ele><time>2026-05-02T12:34:43.19Z</time></trkpt><trkpt lat="43.7010395" lon="12.6802741"><ele>168.0</ele><time>2026-05-02T12:34:44.182Z</time></trkpt><trkpt lat="43.7009081" lon="12.6802035"><ele>166.5</ele><time>2026-05-02T12:34:45.187Z</time></trkpt><trkpt lat="43.7007819" lon="12.6801373"><ele>165.0</ele><time>2026-05-02T12:34:46.181Z</time></trkpt><trkpt lat="43.7006631" lon="12.6800611"><ele>165.0</ele><time>2026-05-02T12:34:47.192Z</time></trkpt><trkpt lat="43.7005479" lon="12.6799589"><ele>165.0</ele><time>2026-05-02T12:34:48.192Z</time></trkpt><trkpt lat="43.700427" lon="12.6798362"><ele>165.0</ele><time>2026-05-02T12:34:49.183Z</time></trkpt><trkpt lat="43.7003328" lon="12.6796674"><ele>165.0</ele><time>2026-05-02T12:34:50.182Z</time></trkpt><trkpt lat="43.7002565" lon="12.6794789"><ele>166.0</ele><time>2026-05-02T12:34:51.191Z</time></trkpt><trkpt lat="43.7001749" lon="12.6792952"><ele>167.0</ele><time>2026-05-02T12:34:52.192Z</time></trkpt><trkpt lat="43.7000918" lon="12.6791151"><ele>168.0</ele><time>2026-05-02T12:34:53.173Z</time></trkpt><trkpt lat="43.6999827" lon="12.6789453"><ele>168.0</ele><time>2026-05-02T12:34:54.193Z</time></trkpt><trkpt lat="43.6998454" lon="12.6787944"><ele>168.0</ele><time>2026-05-02T12:34:55.173Z</time></trkpt><trkpt lat="43.6996776" lon="12.6786345"><ele>168.0</ele><time>2026-05-02T12:34:56.197Z</time></trkpt><trkpt lat="43.6994985" lon="12.678485"><ele>169.33333333333334</ele><time>2026-05-02T12:34:57.181Z</time></trkpt><trkpt lat="43.6993383" lon="12.6783594"><ele>170.66666666666669</ele><time>2026-05-02T12:34:58.186Z</time></trkpt><trkpt lat="43.6991689" lon="12.6782592"><ele>172.0</ele><time>2026-05-02T12:34:59.176Z</time></trkpt><trkpt lat="43.6989903" lon="12.6781818"><ele>172.0</ele><time>2026-05-02T12:35:00.176Z</time></trkpt><trkpt lat="43.6988024" lon="12.6780989"><ele>172.0</ele><time>2026-05-02T12:35:01.208Z</time></trkpt><trkpt lat="43.6986224" lon="12.6780239"><ele>172.0</ele><time>2026-05-02T12:35:02.181Z</time></trkpt><trkpt lat="43.698445" lon="12.677945"><ele>174.66666666666669</ele><time>2026-05-02T12:35:03.197Z</time></trkpt><trkpt lat="43.6982633" lon="12.6778799"><ele>177.33333333333334</ele><time>2026-05-02T12:35:04.198Z</time></trkpt><trkpt lat="43.6980936" lon="12.6778141"><ele>180.0</ele><time>2026-05-02T12:35:05.189Z</time></trkpt><trkpt lat="43.6979379" lon="12.677748"><ele>180.0</ele><time>2026-05-02T12:35:06.182Z</time></trkpt><trkpt lat="43.6977937" lon="12.6776724"><ele>180.0</ele><time>2026-05-02T12:35:07.181Z</time></trkpt><trkpt lat="43.6976612" lon="12.6775617"><ele>180.0</ele><time>2026-05-02T12:35:08.191Z</time></trkpt><trkpt lat="43.6975504" lon="12.6774201"><ele>176.33333333333334</ele><time>2026-05-02T12:35:09.179Z</time></trkpt><trkpt lat="43.697481" lon="12.6772476"><ele>172.66666666666669</ele><time>2026-05-02T12:35:10.174Z</time></trkpt><trkpt lat="43.6974315" lon="12.6770359"><ele>169.0</ele><time>2026-05-02T12:35:11.198Z</time></trkpt><trkpt lat="43.6973989" lon="12.6768107"><ele>169.0</ele><time>2026-05-02T12:35:12.208Z</time></trkpt><trkpt lat="43.6973621" lon="12.6765947"><ele>169.0</ele><time>2026-05-02T12:35:13.195Z</time></trkpt><trkpt lat="43.6973264" lon="12.676386"><ele>169.0</ele><time>2026-05-02T12:35:14.189Z</time></trkpt><trkpt lat="43.6972912" lon="12.6761686"><ele>171.0</ele><time>2026-05-02T12:35:15.192Z</time></trkpt><trkpt lat="43.6972647" lon="12.6759481"><ele>173.0</ele><time>2026-05-02T12:35:16.184Z</time></trkpt><trkpt lat="43.6972588" lon="12.6757319"><ele>175.0</ele><time>2026-05-02T12:35:17.183Z</time></trkpt><trkpt lat="43.6972786" lon="12.6755134"><ele>175.0</ele><time>2026-05-02T12:35:18.182Z</time></trkpt><trkpt lat="43.6973183" lon="12.6753009"><ele>175.0</ele><time>2026-05-02T12:35:19.196Z</time></trkpt><trkpt lat="43.6973759" lon="12.6750883"><ele>175.0</ele><time>2026-05-02T12:35:20.184Z</time></trkpt><trkpt lat="43.6974401" lon="12.6748779"><ele>175.33333333333334</ele><time>2026-05-02T12:35:21.197Z</time></trkpt><trkpt lat="43.6974828" lon="12.6746662"><ele>175.66666666666666</ele><time>2026-05-02T12:35:22.178Z</time></trkpt><trkpt lat="43.6975114" lon="12.674443"><ele>176.0</ele><time>2026-05-02T12:35:23.192Z</time></trkpt><trkpt lat="43.6975294" lon="12.6742128"><ele>176.0</ele><time>2026-05-02T12:35:24.191Z</time></trkpt><trkpt lat="43.6975426" lon="12.6739859"><ele>176.0</ele><time>2026-05-02T12:35:25.187Z</time></trkpt><trkpt lat="43.6975383" lon="12.6737661"><ele>176.0</ele><time>2026-05-02T12:35:26.189Z</time></trkpt><trkpt lat="43.697513" lon="12.6735487"><ele>181.0</ele><time>2026-05-02T12:35:27.184Z</time></trkpt><trkpt lat="43.6974568" lon="12.6733369"><ele>186.0</ele><time>2026-05-02T12:35:28.186Z</time></trkpt><trkpt lat="43.6973876" lon="12.6731265"><ele>191.0</ele><time>2026-05-02T12:35:29.182Z</time></trkpt><trkpt lat="43.6972853" lon="12.6729411"><ele>196.66666666666666</ele><time>2026-05-02T12:35:30.178Z</time></trkpt><trkpt lat="43.6971803" lon="12.6727551"><ele>202.33333333333331</ele><time>2026-05-02T12:35:31.182Z</time></trkpt><trkpt lat="43.6970867" lon="12.6725785"><ele>208.0</ele><time>2026-05-02T12:35:32.197Z</time></trkpt><trkpt lat="43.6969888" lon="12.6724016"><ele>198.66666666666666</ele><time>2026-05-02T12:35:33.19Z</time></trkpt><trkpt lat="43.6968899" lon="12.6722346"><ele>189.33333333333331</ele><time>2026-05-02T12:35:34.19Z</time></trkpt><trkpt lat="43.6967901" lon="12.6720798"><ele>180.0</ele><time>2026-05-02T12:35:35.188Z</time></trkpt><trkpt lat="43.6966821" lon="12.6719279"><ele>180.0</ele><time>2026-05-02T12:35:36.186Z</time></trkpt><trkpt lat="43.6965659" lon="12.6717803"><ele>180.0</ele><time>2026-05-02T12:35:37.177Z</time></trkpt><trkpt lat="43.6964479" lon="12.6716376"><ele>180.0</ele><time>2026-05-02T12:35:38.166Z</time></trkpt><trkpt lat="43.6963219" lon="12.6714865"><ele>180.0</ele><time>2026-05-02T12:35:39.182Z</time></trkpt><trkpt lat="43.6961891" lon="12.6713264"><ele>180.0</ele><time>2026-05-02T12:35:40.181Z</time></trkpt><trkpt lat="43.6960329" lon="12.6711521"><ele>180.0</ele><time>2026-05-02T12:35:41.194Z</time></trkpt><trkpt lat="43.6958738" lon="12.6709638"><ele>178.0</ele><time>2026-05-02T12:35:42.186Z</time></trkpt><trkpt lat="43.6957212" lon="12.670779"><ele>176.0</ele><time>2026-05-02T12:35:43.195Z</time></trkpt><trkpt lat="43.695586" lon="12.6706141"><ele>174.0</ele><time>2026-05-02T12:35:44.192Z</time></trkpt><trkpt lat="43.6954632" lon="12.6704655"><ele>174.0</ele><time>2026-05-02T12:35:45.191Z</time></trkpt><trkpt lat="43.6953582" lon="12.6703303"><ele>174.0</ele><time>2026-05-02T12:35:46.198Z</time></trkpt><trkpt lat="43.6952718" lon="12.6701957"><ele>174.0</ele><time>2026-05-02T12:35:47.178Z</time></trkpt><trkpt lat="43.6952052" lon="12.6700494"><ele>174.0</ele><time>2026-05-02T12:35:48.196Z</time></trkpt><trkpt lat="43.695187" lon="12.6699004"><ele>174.25</ele><time>2026-05-02T12:35:49.2Z</time></trkpt><trkpt lat="43.6951874" lon="12.6697427"><ele>174.5</ele><time>2026-05-02T12:35:50.198Z</time></trkpt><trkpt lat="43.6952148" lon="12.6695856"><ele>174.75</ele><time>2026-05-02T12:35:51.202Z</time></trkpt><trkpt lat="43.6952542" lon="12.6694154"><ele>175.0</ele><time>2026-05-02T12:35:52.193Z</time></trkpt><trkpt lat="43.6952925" lon="12.6692343"><ele>175.25</ele><time>2026-05-02T12:35:53.191Z</time></trkpt><trkpt lat="43.6953284" lon="12.6690691"><ele>175.5</ele><time>2026-05-02T12:35:54.192Z</time></trkpt><trkpt lat="43.6953706" lon="12.6689081"><ele>175.75</ele><time>2026-05-02T12:35:55.193Z</time></trkpt><trkpt lat="43.6954177" lon="12.6687492"><ele>176.0</ele><time>2026-05-02T12:35:56.206Z</time></trkpt><trkpt lat="43.6954734" lon="12.6685975"><ele>177.5</ele><time>2026-05-02T12:35:57.194Z</time></trkpt><trkpt lat="43.6955385" lon="12.6684347"><ele>179.0</ele><time>2026-05-02T12:35:58.19Z</time></trkpt><trkpt lat="43.6956236" lon="12.6682775"><ele>180.5</ele><time>2026-05-02T12:35:59.191Z</time></trkpt><trkpt lat="43.6957133" lon="12.6681365"><ele>182.0</ele><time>2026-05-02T12:36:00.199Z</time></trkpt><trkpt lat="43.6958019" lon="12.6679992"><ele>182.0</ele><time>2026-05-02T12:36:01.199Z</time></trkpt><trkpt lat="43.6958922" lon="12.6678576"><ele>182.0</ele><time>2026-05-02T12:36:02.19Z</time></trkpt><trkpt lat="43.6959816" lon="12.667719"><ele>182.0</ele><time>2026-05-02T12:36:03.188Z</time></trkpt><trkpt lat="43.6960781" lon="12.667585"><ele>182.0</ele><time>2026-05-02T12:36:04.2Z</time></trkpt><trkpt lat="43.696174" lon="12.6674504"><ele>183.0</ele><time>2026-05-02T12:36:05.22Z</time></trkpt><trkpt lat="43.6962844" lon="12.6673118"><ele>184.0</ele><time>2026-05-02T12:36:06.187Z</time></trkpt><trkpt lat="43.6964138" lon="12.6671514"><ele>185.0</ele><time>2026-05-02T12:36:07.18Z</time></trkpt><trkpt lat="43.6965501" lon="12.6669863"><ele>185.66666666666666</ele><time>2026-05-02T12:36:08.182Z</time></trkpt><trkpt lat="43.6966777" lon="12.6668418"><ele>186.33333333333334</ele><time>2026-05-02T12:36:09.181Z</time></trkpt><trkpt lat="43.6968085" lon="12.666695"><ele>187.0</ele><time>2026-05-02T12:36:10.192Z</time></trkpt><trkpt lat="43.6969395" lon="12.6665391"><ele>187.0</ele><time>2026-05-02T12:36:11.179Z</time></trkpt><trkpt lat="43.6970679" lon="12.6663899"><ele>187.0</ele><time>2026-05-02T12:36:12.194Z</time></trkpt><trkpt lat="43.6971953" lon="12.6662401"><ele>187.0</ele><time>2026-05-02T12:36:13.189Z</time></trkpt><trkpt lat="43.6973206" lon="12.6660881"><ele>187.33333333333334</ele><time>2026-05-02T12:36:14.182Z</time></trkpt><trkpt lat="43.6974492" lon="12.6659326"><ele>187.66666666666666</ele><time>2026-05-02T12:36:15.174Z</time></trkpt><trkpt lat="43.697574" lon="12.6657824"><ele>188.0</ele><time>2026-05-02T12:36:16.189Z</time></trkpt><trkpt lat="43.6976957" lon="12.6656387"><ele>188.0</ele><time>2026-05-02T12:36:17.183Z</time></trkpt><trkpt lat="43.6978224" lon="12.665495"><ele>188.0</ele><time>2026-05-02T12:36:18.188Z</time></trkpt><trkpt lat="43.6979458" lon="12.6653526"><ele>188.0</ele><time>2026-05-02T12:36:19.195Z</time></trkpt><trkpt lat="43.6980658" lon="12.6652074"><ele>188.0</ele><time>2026-05-02T12:36:20.193Z</time></trkpt><trkpt lat="43.6981887" lon="12.6650606"><ele>188.0</ele><time>2026-05-02T12:36:21.199Z</time></trkpt><trkpt lat="43.698308" lon="12.6649145"><ele>188.0</ele><time>2026-05-02T12:36:22.188Z</time></trkpt><trkpt lat="43.698423" lon="12.6647768"><ele>188.0</ele><time>2026-05-02T12:36:23.187Z</time></trkpt><trkpt lat="43.6985392" lon="12.6646351"><ele>188.0</ele><time>2026-05-02T12:36:24.195Z</time></trkpt><trkpt lat="43.6986442" lon="12.664503"><ele>188.0</ele><time>2026-05-02T12:36:25.188Z</time></trkpt><trkpt lat="43.6987499" lon="12.6643774"><ele>188.0</ele><time>2026-05-02T12:36:26.188Z</time></trkpt><trkpt lat="43.6988592" lon="12.6642515"><ele>189.0</ele><time>2026-05-02T12:36:27.192Z</time></trkpt><trkpt lat="43.6989631" lon="12.6641242"><ele>190.0</ele><time>2026-05-02T12:36:28.188Z</time></trkpt><trkpt lat="43.6990632" lon="12.6640012"><ele>191.0</ele><time>2026-05-02T12:36:29.195Z</time></trkpt><trkpt lat="43.6991608" lon="12.6638891"><ele>192.0</ele><time>2026-05-02T12:36:30.191Z</time></trkpt><trkpt lat="43.6992601" lon="12.6637847"><ele>192.0</ele><time>2026-05-02T12:36:31.188Z</time></trkpt><trkpt lat="43.6993502" lon="12.6637"><ele>192.0</ele><time>2026-05-02T12:36:32.169Z</time></trkpt><trkpt lat="43.6994382" lon="12.6636196"><ele>192.0</ele><time>2026-05-02T12:36:33.191Z</time></trkpt><trkpt lat="43.6995291" lon="12.6635625"><ele>192.0</ele><time>2026-05-02T12:36:34.193Z</time></trkpt><trkpt lat="43.6996244" lon="12.6635536"><ele>192.0</ele><time>2026-05-02T12:36:35.193Z</time></trkpt><trkpt lat="43.699719" lon="12.6635766"><ele>191.6</ele><time>2026-05-02T12:36:36.188Z</time></trkpt><trkpt lat="43.6998212" lon="12.6636278"><ele>191.2</ele><time>2026-05-02T12:36:37.205Z</time></trkpt><trkpt lat="43.6999298" lon="12.6636309"><ele>190.8</ele><time>2026-05-02T12:36:38.184Z</time></trkpt><trkpt lat="43.7000253" lon="12.6635629"><ele>190.4</ele><time>2026-05-02T12:36:39.188Z</time></trkpt><trkpt lat="43.7000996" lon="12.6634744"><ele>190.0</ele><time>2026-05-02T12:36:40.181Z</time></trkpt><trkpt lat="43.7001647" lon="12.6633416"><ele>190.0</ele><time>2026-05-02T12:36:41.176Z</time></trkpt><trkpt lat="43.7002361" lon="12.6632338"><ele>190.0</ele><time>2026-05-02T12:36:42.169Z</time></trkpt><trkpt lat="43.7003304" lon="12.6631709"><ele>190.0</ele><time>2026-05-02T12:36:43.191Z</time></trkpt><trkpt lat="43.7004497" lon="12.6631538"><ele>190.0</ele><time>2026-05-02T12:36:44.184Z</time></trkpt><trkpt lat="43.7005631" lon="12.6631798"><ele>190.0</ele><time>2026-05-02T12:36:45.179Z</time></trkpt><trkpt lat="43.7006696" lon="12.663244"><ele>191.0</ele><time>2026-05-02T12:36:46.189Z</time></trkpt><trkpt lat="43.7007768" lon="12.6633268"><ele>192.0</ele><time>2026-05-02T12:36:47.187Z</time></trkpt><trkpt lat="43.7008735" lon="12.6634246"><ele>193.0</ele><time>2026-05-02T12:36:48.188Z</time></trkpt><trkpt lat="43.7009822" lon="12.663521"><ele>194.0</ele><time>2026-05-02T12:36:49.181Z</time></trkpt><trkpt lat="43.7010941" lon="12.6636221"><ele>194.0</ele><time>2026-05-02T12:36:50.174Z</time></trkpt><trkpt lat="43.7012238" lon="12.6637141"><ele>194.0</ele><time>2026-05-02T12:36:51.195Z</time></trkpt><trkpt lat="43.7013685" lon="12.6637873"><ele>194.0</ele><time>2026-05-02T12:36:52.2Z</time></trkpt><trkpt lat="43.7015308" lon="12.66383"><ele>194.0</ele><time>2026-05-02T12:36:53.163Z</time></trkpt><trkpt lat="43.7017013" lon="12.6638549"><ele>194.0</ele><time>2026-05-02T12:36:54.18Z</time></trkpt><trkpt lat="43.7018667" lon="12.6638635"><ele>194.0</ele><time>2026-05-02T12:36:55.186Z</time></trkpt><trkpt lat="43.7020314" lon="12.663856"><ele>194.0</ele><time>2026-05-02T12:36:56.187Z</time></trkpt><trkpt lat="43.7022009" lon="12.6637956"><ele>194.0</ele><time>2026-05-02T12:36:57.203Z</time></trkpt><trkpt lat="43.702358" lon="12.6636832"><ele>194.0</ele><time>2026-05-02T12:36:58.185Z</time></trkpt><trkpt lat="43.7025094" lon="12.6635506"><ele>194.0</ele><time>2026-05-02T12:36:59.187Z</time></trkpt><trkpt lat="43.7026531" lon="12.6634041"><ele>194.0</ele><time>2026-05-02T12:37:00.191Z</time></trkpt><trkpt lat="43.7027968" lon="12.6632457"><ele>194.0</ele><time>2026-05-02T12:37:01.177Z</time></trkpt><trkpt lat="43.7029495" lon="12.6630895"><ele>196.0</ele><time>2026-05-02T12:37:02.19Z</time></trkpt><trkpt lat="43.7031101" lon="12.6629337"><ele>198.0</ele><time>2026-05-02T12:37:03.184Z</time></trkpt><trkpt lat="43.7032739" lon="12.6627881"><ele>200.0</ele><time>2026-05-02T12:37:04.194Z</time></trkpt><trkpt lat="43.7034352" lon="12.6626604"><ele>204.33333333333334</ele><time>2026-05-02T12:37:05.192Z</time></trkpt><trkpt lat="43.7035973" lon="12.6625502"><ele>208.66666666666669</ele><time>2026-05-02T12:37:06.203Z</time></trkpt><trkpt lat="43.7037533" lon="12.6624295"><ele>213.0</ele><time>2026-05-02T12:37:07.187Z</time></trkpt><trkpt lat="43.7038912" lon="12.662284"><ele>213.0</ele><time>2026-05-02T12:37:08.197Z</time></trkpt><trkpt lat="43.7040048" lon="12.6620995"><ele>213.0</ele><time>2026-05-02T12:37:09.199Z</time></trkpt><trkpt lat="43.7040969" lon="12.6618799"><ele>213.0</ele><time>2026-05-02T12:37:10.177Z</time></trkpt><trkpt lat="43.7041513" lon="12.6616358"><ele>212.66666666666669</ele><time>2026-05-02T12:37:11.179Z</time></trkpt><trkpt lat="43.7041882" lon="12.6613878"><ele>212.33333333333334</ele><time>2026-05-02T12:37:12.195Z</time></trkpt><trkpt lat="43.7042201" lon="12.661133"><ele>212.0</ele><time>2026-05-02T12:37:13.178Z</time></trkpt><trkpt lat="43.7042525" lon="12.6608695"><ele>211.0</ele><time>2026-05-02T12:37:14.189Z</time></trkpt><trkpt lat="43.7042965" lon="12.6606095"><ele>210.0</ele><time>2026-05-02T12:37:15.202Z</time></trkpt><trkpt lat="43.7043475" lon="12.6603552"><ele>209.0</ele><time>2026-05-02T12:37:16.189Z</time></trkpt><trkpt lat="43.7044176" lon="12.6600991"><ele>207.66666666666669</ele><time>2026-05-02T12:37:17.191Z</time></trkpt><trkpt lat="43.7045261" lon="12.6598569"><ele>206.33333333333331</ele><time>2026-05-02T12:37:18.186Z</time></trkpt><trkpt lat="43.7046904" lon="12.6596251"><ele>205.0</ele><time>2026-05-02T12:37:19.191Z</time></trkpt><trkpt lat="43.704847" lon="12.6593767"><ele>205.0</ele><time>2026-05-02T12:37:20.193Z</time></trkpt><trkpt lat="43.7050079" lon="12.6591139"><ele>205.0</ele><time>2026-05-02T12:37:21.198Z</time></trkpt><trkpt lat="43.7051664" lon="12.6588303"><ele>207.5</ele><time>2026-05-02T12:37:22.188Z</time></trkpt><trkpt lat="43.7053249" lon="12.6585497"><ele>210.0</ele><time>2026-05-02T12:37:23.19Z</time></trkpt><trkpt lat="43.7054805" lon="12.6582648"><ele>210.0</ele><time>2026-05-02T12:37:24.174Z</time></trkpt><trkpt lat="43.7056458" lon="12.6579692"><ele>210.0</ele><time>2026-05-02T12:37:25.196Z</time></trkpt><trkpt lat="43.7058105" lon="12.6576662"><ele>207.5</ele><time>2026-05-02T12:37:26.192Z</time></trkpt><trkpt lat="43.7059697" lon="12.6573368"><ele>205.0</ele><time>2026-05-02T12:37:27.192Z</time></trkpt><trkpt lat="43.7061104" lon="12.6569885"><ele>207.5</ele><time>2026-05-02T12:37:28.197Z</time></trkpt><trkpt lat="43.7062473" lon="12.6566425"><ele>210.0</ele><time>2026-05-02T12:37:29.181Z</time></trkpt><trkpt lat="43.7063674" lon="12.656285"><ele>208.5</ele><time>2026-05-02T12:37:30.197Z</time></trkpt><trkpt lat="43.706477" lon="12.6559136"><ele>207.0</ele><time>2026-05-02T12:37:31.185Z</time></trkpt><trkpt lat="43.706565" lon="12.6555381"><ele>204.5</ele><time>2026-05-02T12:37:32.168Z</time></trkpt><trkpt lat="43.7066356" lon="12.6551589"><ele>202.0</ele><time>2026-05-02T12:37:33.196Z</time></trkpt><trkpt lat="43.7066876" lon="12.6547798"><ele>204.0</ele><time>2026-05-02T12:37:34.197Z</time></trkpt><trkpt lat="43.7067212" lon="12.6544049"><ele>206.0</ele><time>2026-05-02T12:37:35.21Z</time></trkpt><trkpt lat="43.7067436" lon="12.654027"><ele>206.0</ele><time>2026-05-02T12:37:36.191Z</time></trkpt><trkpt lat="43.7067414" lon="12.6536622"><ele>206.0</ele><time>2026-05-02T12:37:37.186Z</time></trkpt><trkpt lat="43.7067293" lon="12.6532979"><ele>206.5</ele><time>2026-05-02T12:37:38.2Z</time></trkpt><trkpt lat="43.7067008" lon="12.6529356"><ele>207.0</ele><time>2026-05-02T12:37:39.197Z</time></trkpt><trkpt lat="43.7066529" lon="12.6525728"><ele>208.0</ele><time>2026-05-02T12:37:40.157Z</time></trkpt><trkpt lat="43.7065989" lon="12.6522184"><ele>209.0</ele><time>2026-05-02T12:37:41.187Z</time></trkpt><trkpt lat="43.7065395" lon="12.6518711"><ele>211.0</ele><time>2026-05-02T12:37:42.197Z</time></trkpt><trkpt lat="43.706469" lon="12.6515396"><ele>213.0</ele><time>2026-05-02T12:37:43.191Z</time></trkpt><trkpt lat="43.7063968" lon="12.651204"><ele>214.5</ele><time>2026-05-02T12:37:44.19Z</time></trkpt><trkpt lat="43.7063271" lon="12.6508758"><ele>216.0</ele><time>2026-05-02T12:37:45.185Z</time></trkpt><trkpt lat="43.70626" lon="12.6505383"><ele>216.5</ele><time>2026-05-02T12:37:46.172Z</time></trkpt><trkpt lat="43.7061843" lon="12.6502032"><ele>217.0</ele><time>2026-05-02T12:37:47.196Z</time></trkpt><trkpt lat="43.7061107" lon="12.6498705"><ele>216.0</ele><time>2026-05-02T12:37:48.194Z</time></trkpt><trkpt lat="43.7060375" lon="12.6495437"><ele>215.0</ele><time>2026-05-02T12:37:49.187Z</time></trkpt><trkpt lat="43.7059697" lon="12.6492229"><ele>215.0</ele><time>2026-05-02T12:37:50.191Z</time></trkpt><trkpt lat="43.7059051" lon="12.6489103"><ele>215.0</ele><time>2026-05-02T12:37:51.192Z</time></trkpt><trkpt lat="43.7058446" lon="12.6486224"><ele>215.0</ele><time>2026-05-02T12:37:52.223Z</time></trkpt><trkpt lat="43.7057825" lon="12.6483544"><ele>215.0</ele><time>2026-05-02T12:37:53.201Z</time></trkpt><trkpt lat="43.705728" lon="12.6480932"><ele>215.0</ele><time>2026-05-02T12:37:54.182Z</time></trkpt><trkpt lat="43.7056772" lon="12.6478411"><ele>217.33333333333334</ele><time>2026-05-02T12:37:55.173Z</time></trkpt><trkpt lat="43.705626" lon="12.6475793"><ele>219.66666666666669</ele><time>2026-05-02T12:37:56.193Z</time></trkpt><trkpt lat="43.7055854" lon="12.6473069"><ele>222.0</ele><time>2026-05-02T12:37:57.182Z</time></trkpt><trkpt lat="43.7055495" lon="12.6470216"><ele>225.0</ele><time>2026-05-02T12:37:58.189Z</time></trkpt><trkpt lat="43.705534" lon="12.6467386"><ele>228.0</ele><time>2026-05-02T12:37:59.189Z</time></trkpt><trkpt lat="43.705528" lon="12.6464506"><ele>231.0</ele><time>2026-05-02T12:38:00.196Z</time></trkpt><trkpt lat="43.7055292" lon="12.646172"><ele>230.66666666666669</ele><time>2026-05-02T12:38:01.172Z</time></trkpt><trkpt lat="43.7055336" lon="12.6459026"><ele>230.33333333333334</ele><time>2026-05-02T12:38:02.186Z</time></trkpt><trkpt lat="43.7055518" lon="12.645645"><ele>230.0</ele><time>2026-05-02T12:38:03.183Z</time></trkpt><trkpt lat="43.7055792" lon="12.6453974"><ele>230.66666666666669</ele><time>2026-05-02T12:38:04.201Z</time></trkpt><trkpt lat="43.7056194" lon="12.6451591"><ele>231.33333333333331</ele><time>2026-05-02T12:38:05.179Z</time></trkpt><trkpt lat="43.7056663" lon="12.6449111"><ele>232.0</ele><time>2026-05-02T12:38:06.18Z</time></trkpt><trkpt lat="43.7057243" lon="12.6446652"><ele>232.66666666666666</ele><time>2026-05-02T12:38:07.196Z</time></trkpt><trkpt lat="43.705786" lon="12.6444209"><ele>233.33333333333331</ele><time>2026-05-02T12:38:08.202Z</time></trkpt><trkpt lat="43.7058579" lon="12.6441768"><ele>234.0</ele><time>2026-05-02T12:38:09.191Z</time></trkpt><trkpt lat="43.7059441" lon="12.6439416"><ele>234.0</ele><time>2026-05-02T12:38:10.201Z</time></trkpt><trkpt lat="43.7060361" lon="12.6437059"><ele>234.0</ele><time>2026-05-02T12:38:11.174Z</time></trkpt><trkpt lat="43.7061376" lon="12.6434735"><ele>234.0</ele><time>2026-05-02T12:38:12.192Z</time></trkpt><trkpt lat="43.7062445" lon="12.6432479"><ele>230.66666666666669</ele><time>2026-05-02T12:38:13.19Z</time></trkpt><trkpt lat="43.7063576" lon="12.6430301"><ele>227.33333333333334</ele><time>2026-05-02T12:38:14.203Z</time></trkpt><trkpt lat="43.7064824" lon="12.6428141"><ele>224.0</ele><time>2026-05-02T12:38:15.184Z</time></trkpt><trkpt lat="43.7066128" lon="12.642602"><ele>224.0</ele><time>2026-05-02T12:38:16.186Z</time></trkpt><trkpt lat="43.7067495" lon="12.642394"><ele>224.0</ele><time>2026-05-02T12:38:17.189Z</time></trkpt><trkpt lat="43.7068875" lon="12.6422047"><ele>224.0</ele><time>2026-05-02T12:38:18.2Z</time></trkpt><trkpt lat="43.7070314" lon="12.6420264"><ele>228.66666666666669</ele><time>2026-05-02T12:38:19.194Z</time></trkpt><trkpt lat="43.7071719" lon="12.6418701"><ele>233.33333333333331</ele><time>2026-05-02T12:38:20.178Z</time></trkpt><trkpt lat="43.7073098" lon="12.6417388"><ele>238.0</ele><time>2026-05-02T12:38:21.2Z</time></trkpt><trkpt lat="43.7074405" lon="12.6416084"><ele>238.0</ele><time>2026-05-02T12:38:22.196Z</time></trkpt><trkpt lat="43.7075655" lon="12.64149"><ele>238.0</ele><time>2026-05-02T12:38:23.185Z</time></trkpt><trkpt lat="43.7076816" lon="12.6413818"><ele>238.0</ele><time>2026-05-02T12:38:24.203Z</time></trkpt><trkpt lat="43.7077971" lon="12.6412712"><ele>238.0</ele><time>2026-05-02T12:38:25.19Z</time></trkpt><trkpt lat="43.7079141" lon="12.6411681"><ele>245.75</ele><time>2026-05-02T12:38:26.185Z</time></trkpt><trkpt lat="43.7080396" lon="12.6410638"><ele>253.5</ele><time>2026-05-02T12:38:27.19Z</time></trkpt><trkpt lat="43.7081662" lon="12.6409675"><ele>261.25</ele><time>2026-05-02T12:38:28.191Z</time></trkpt><trkpt lat="43.7082952" lon="12.6408778"><ele>269.0</ele><time>2026-05-02T12:38:29.195Z</time></trkpt><trkpt lat="43.7084319" lon="12.640789"><ele>300.0</ele><time>2026-05-02T12:38:30.185Z</time></trkpt><trkpt lat="43.7158757" lon="12.6405689"><ele>297.6666666666667</ele><time>2026-05-02T12:39:11.149Z</time></trkpt><trkpt lat="43.7161174" lon="12.6406233"><ele>295.33333333333337</ele><time>2026-05-02T12:39:12.174Z</time></trkpt><trkpt lat="43.7162943" lon="12.6406831"><ele>293.0</ele><time>2026-05-02T12:39:13.186Z</time></trkpt><trkpt lat="43.7164203" lon="12.6407312"><ele>293.0</ele><time>2026-05-02T12:39:14.187Z</time></trkpt><trkpt lat="43.7165393" lon="12.6407814"><ele>293.0</ele><time>2026-05-02T12:39:15.176Z</time></trkpt><trkpt lat="43.7166434" lon="12.6408032"><ele>293.0</ele><time>2026-05-02T12:39:16.181Z</time></trkpt><trkpt lat="43.7167236" lon="12.6408384"><ele>293.0</ele><time>2026-05-02T12:39:17.176Z</time></trkpt><trkpt lat="43.7168022" lon="12.6408768"><ele>293.0</ele><time>2026-05-02T12:39:18.192Z</time></trkpt><trkpt lat="43.7168871" lon="12.6409017"><ele>295.0</ele><time>2026-05-02T12:40:12.169Z</time></trkpt><trkpt lat="43.7169554" lon="12.6409049"><ele>297.0</ele><time>2026-05-02T12:40:13.188Z</time></trkpt><trkpt lat="43.71704" lon="12.6409143"><ele>299.0</ele><time>2026-05-02T12:40:14.188Z</time></trkpt><trkpt lat="43.7171482" lon="12.6409533"><ele>301.0</ele><time>2026-05-02T12:40:15.193Z</time></trkpt><trkpt lat="43.7172513" lon="12.6409955"><ele>303.0</ele><time>2026-05-02T12:40:16.19Z</time></trkpt><trkpt lat="43.7173425" lon="12.6410413"><ele>303.0</ele><time>2026-05-02T12:40:17.192Z</time></trkpt><trkpt lat="43.7174036" lon="12.641112"><ele>303.0</ele><time>2026-05-02T12:40:18.196Z</time></trkpt><trkpt lat="43.7174513" lon="12.6411848"><ele>303.0</ele><time>2026-05-02T12:40:19.176Z</time></trkpt><trkpt lat="43.7175081" lon="12.6412399"><ele>303.0</ele><time>2026-05-02T12:40:20.176Z</time></trkpt><trkpt lat="43.7176362" lon="12.6411976"><ele>303.0</ele><time>2026-05-02T12:40:22.18Z</time></trkpt><trkpt lat="43.7177029" lon="12.6411135"><ele>303.0</ele><time>2026-05-02T12:40:23.19Z</time></trkpt><trkpt lat="43.7177674" lon="12.6410219"><ele>306.0</ele><time>2026-05-02T12:40:24.185Z</time></trkpt><trkpt lat="43.7178416" lon="12.6409471"><ele>309.0</ele><time>2026-05-02T12:40:25.185Z</time></trkpt><trkpt lat="43.717925" lon="12.6408909"><ele>312.0</ele><time>2026-05-02T12:40:26.169Z</time></trkpt><trkpt lat="43.7180144" lon="12.6408381"><ele>315.0</ele><time>2026-05-02T12:40:27.19Z</time></trkpt><trkpt lat="43.7181153" lon="12.6407971"><ele>318.0</ele><time>2026-05-02T12:40:28.194Z</time></trkpt><trkpt lat="43.7182167" lon="12.6407348"><ele>318.0</ele><time>2026-05-02T12:40:29.189Z</time></trkpt><trkpt lat="43.718312" lon="12.6406647"><ele>318.0</ele><time>2026-05-02T12:40:30.186Z</time></trkpt><trkpt lat="43.7184017" lon="12.6405934"><ele>318.0</ele><time>2026-05-02T12:40:31.199Z</time></trkpt><trkpt lat="43.7184914" lon="12.6405357"><ele>318.0</ele><time>2026-05-02T12:40:32.173Z</time></trkpt><trkpt lat="43.7185924" lon="12.6405036"><ele>318.0</ele><time>2026-05-02T12:40:33.215Z</time></trkpt><trkpt lat="43.7187275" lon="12.6404932"><ele>319.75</ele><time>2026-05-02T12:40:34.19Z</time></trkpt><trkpt lat="43.7188787" lon="12.6404873"><ele>321.5</ele><time>2026-05-02T12:40:35.18Z</time></trkpt><trkpt lat="43.7190162" lon="12.6404808"><ele>323.25</ele><time>2026-05-02T12:40:36.182Z</time></trkpt><trkpt lat="43.7191636" lon="12.6404741"><ele>325.0</ele><time>2026-05-02T12:40:37.181Z</time></trkpt><trkpt lat="43.7193169" lon="12.6404628"><ele>324.66666666666663</ele><time>2026-05-02T12:40:38.203Z</time></trkpt><trkpt lat="43.7194765" lon="12.6404724"><ele>324.3333333333333</ele><time>2026-05-02T12:40:39.186Z</time></trkpt><trkpt lat="43.7196432" lon="12.640539"><ele>324.0</ele><time>2026-05-02T12:40:40.183Z</time></trkpt><trkpt lat="43.7198023" lon="12.6406628"><ele>324.0</ele><time>2026-05-02T12:40:41.171Z</time></trkpt><trkpt lat="43.7199498" lon="12.6408259"><ele>324.0</ele><time>2026-05-02T12:40:42.173Z</time></trkpt><trkpt lat="43.7200758" lon="12.6409834"><ele>324.0</ele><time>2026-05-02T12:40:43.18Z</time></trkpt><trkpt lat="43.7201806" lon="12.6411664"><ele>322.3333333333333</ele><time>2026-05-02T12:40:44.191Z</time></trkpt><trkpt lat="43.7202588" lon="12.6413777"><ele>320.66666666666663</ele><time>2026-05-02T12:40:45.189Z</time></trkpt><trkpt lat="43.7203169" lon="12.6416222"><ele>319.0</ele><time>2026-05-02T12:40:46.187Z</time></trkpt><trkpt lat="43.7203755" lon="12.6418509"><ele>320.66666666666663</ele><time>2026-05-02T12:40:47.196Z</time></trkpt><trkpt lat="43.720474" lon="12.6420445"><ele>322.3333333333333</ele><time>2026-05-02T12:40:48.196Z</time></trkpt><trkpt lat="43.7206001" lon="12.6422379"><ele>324.0</ele><time>2026-05-02T12:40:49.193Z</time></trkpt><trkpt lat="43.7207487" lon="12.6424157"><ele>324.0</ele><time>2026-05-02T12:40:50.179Z</time></trkpt><trkpt lat="43.7208935" lon="12.642596"><ele>324.0</ele><time>2026-05-02T12:40:51.192Z</time></trkpt><trkpt lat="43.7210548" lon="12.6427432"><ele>324.0</ele><time>2026-05-02T12:40:52.202Z</time></trkpt><trkpt lat="43.7212222" lon="12.6428638"><ele>326.3333333333333</ele><time>2026-05-02T12:40:53.198Z</time></trkpt><trkpt lat="43.7213703" lon="12.6429743"><ele>328.66666666666663</ele><time>2026-05-02T12:40:54.191Z</time></trkpt><trkpt lat="43.7214922" lon="12.6431218"><ele>331.0</ele><time>2026-05-02T12:40:55.198Z</time></trkpt><trkpt lat="43.7215834" lon="12.643328"><ele>331.0</ele><time>2026-05-02T12:40:56.205Z</time></trkpt><trkpt lat="43.7216755" lon="12.6435041"><ele>331.0</ele><time>2026-05-02T12:40:57.203Z</time></trkpt><trkpt lat="43.7217714" lon="12.6436761"><ele>331.0</ele><time>2026-05-02T12:40:58.204Z</time></trkpt><trkpt lat="43.721901" lon="12.6438128"><ele>334.3333333333333</ele><time>2026-05-02T12:40:59.195Z</time></trkpt><trkpt lat="43.7220671" lon="12.6439185"><ele>337.6666666666667</ele><time>2026-05-02T12:41:00.176Z</time></trkpt><trkpt lat="43.7222365" lon="12.6440198"><ele>341.0</ele><time>2026-05-02T12:41:01.193Z</time></trkpt><trkpt lat="43.7223962" lon="12.6441374"><ele>341.0</ele><time>2026-05-02T12:41:02.181Z</time></trkpt><trkpt lat="43.7225514" lon="12.6442891"><ele>341.0</ele><time>2026-05-02T12:41:03.178Z</time></trkpt><trkpt lat="43.7226918" lon="12.6444754"><ele>341.0</ele><time>2026-05-02T12:41:04.204Z</time></trkpt><trkpt lat="43.7228093" lon="12.6446385"><ele>341.75</ele><time>2026-05-02T12:41:05.18Z</time></trkpt><trkpt lat="43.7229214" lon="12.6447878"><ele>342.5</ele><time>2026-05-02T12:41:06.187Z</time></trkpt><trkpt lat="43.7230291" lon="12.644926"><ele>343.25</ele><time>2026-05-02T12:41:07.191Z</time></trkpt><trkpt lat="43.7231407" lon="12.6450434"><ele>344.0</ele><time>2026-05-02T12:41:08.19Z</time></trkpt><trkpt lat="43.7232338" lon="12.6451632"><ele>344.0</ele><time>2026-05-02T12:41:09.201Z</time></trkpt><trkpt lat="43.7233259" lon="12.6452946"><ele>344.0</ele><time>2026-05-02T12:41:10.208Z</time></trkpt><trkpt lat="43.7234116" lon="12.6454466"><ele>344.0</ele><time>2026-05-02T12:41:11.197Z</time></trkpt><trkpt lat="43.7234931" lon="12.6456294"><ele>344.0</ele><time>2026-05-02T12:41:12.182Z</time></trkpt><trkpt lat="43.7235653" lon="12.6458189"><ele>345.25</ele><time>2026-05-02T12:41:13.198Z</time></trkpt><trkpt lat="43.7236221" lon="12.645997"><ele>346.5</ele><time>2026-05-02T12:41:14.186Z</time></trkpt><trkpt lat="43.7236797" lon="12.646163"><ele>347.75</ele><time>2026-05-02T12:41:15.192Z</time></trkpt><trkpt lat="43.7237612" lon="12.6463187"><ele>349.0</ele><time>2026-05-02T12:41:16.173Z</time></trkpt><trkpt lat="43.7238858" lon="12.6464344"><ele>352.66666666666663</ele><time>2026-05-02T12:41:17.196Z</time></trkpt><trkpt lat="43.7240338" lon="12.6465149"><ele>356.3333333333333</ele><time>2026-05-02T12:41:18.179Z</time></trkpt><trkpt lat="43.7241937" lon="12.6465412"><ele>360.0</ele><time>2026-05-02T12:41:19.194Z</time></trkpt><trkpt lat="43.7243582" lon="12.646551"><ele>361.5</ele><time>2026-05-02T12:41:20.182Z</time></trkpt><trkpt lat="43.7244993" lon="12.6465219"><ele>363.0</ele><time>2026-05-02T12:41:21.183Z</time></trkpt><trkpt lat="43.7246179" lon="12.6464321"><ele>364.5</ele><time>2026-05-02T12:41:22.178Z</time></trkpt><trkpt lat="43.7247124" lon="12.6462912"><ele>366.0</ele><time>2026-05-02T12:41:23.196Z</time></trkpt><trkpt lat="43.7247945" lon="12.6461174"><ele>366.0</ele><time>2026-05-02T12:41:24.186Z</time></trkpt><trkpt lat="43.7248633" lon="12.6459225"><ele>366.0</ele><time>2026-05-02T12:41:25.17Z</time></trkpt><trkpt lat="43.7249435" lon="12.6457034"><ele>366.0</ele><time>2026-05-02T12:41:26.182Z</time></trkpt><trkpt lat="43.72503" lon="12.6455108"><ele>366.0</ele><time>2026-05-02T12:41:27.182Z</time></trkpt><trkpt lat="43.7251198" lon="12.6453499"><ele>366.0</ele><time>2026-05-02T12:41:28.19Z</time></trkpt><trkpt lat="43.7252241" lon="12.6452081"><ele>366.0</ele><time>2026-05-02T12:41:29.186Z</time></trkpt><trkpt lat="43.7253385" lon="12.6450685"><ele>366.0</ele><time>2026-05-02T12:41:30.18Z</time></trkpt><trkpt lat="43.7254379" lon="12.6449211"><ele>368.25</ele><time>2026-05-02T12:41:31.173Z</time></trkpt><trkpt lat="43.7255053" lon="12.6447544"><ele>370.5</ele><time>2026-05-02T12:41:32.203Z</time></trkpt><trkpt lat="43.7255558" lon="12.6445852"><ele>372.75</ele><time>2026-05-02T12:41:33.194Z</time></trkpt><trkpt lat="43.7255559" lon="12.6444098"><ele>375.0</ele><time>2026-05-02T12:41:34.19Z</time></trkpt><trkpt lat="43.7254818" lon="12.6442391"><ele>375.5</ele><time>2026-05-02T12:41:35.182Z</time></trkpt><trkpt lat="43.7253912" lon="12.644084"><ele>376.0</ele><time>2026-05-02T12:41:36.196Z</time></trkpt><trkpt lat="43.7252925" lon="12.6439312"><ele>376.5</ele><time>2026-05-02T12:41:37.188Z</time></trkpt><trkpt lat="43.7251971" lon="12.6437863"><ele>377.0</ele><time>2026-05-02T12:41:38.192Z</time></trkpt><trkpt lat="43.7251041" lon="12.6436329"><ele>376.25</ele><time>2026-05-02T12:41:39.187Z</time></trkpt><trkpt lat="43.7250367" lon="12.6434797"><ele>375.5</ele><time>2026-05-02T12:41:40.18Z</time></trkpt><trkpt lat="43.7249911" lon="12.6433085"><ele>374.75</ele><time>2026-05-02T12:41:41.195Z</time></trkpt><trkpt lat="43.7249675" lon="12.6431335"><ele>374.0</ele><time>2026-05-02T12:41:42.195Z</time></trkpt><trkpt lat="43.7249681" lon="12.6429583"><ele>374.5</ele><time>2026-05-02T12:41:43.189Z</time></trkpt><trkpt lat="43.7249935" lon="12.6427878"><ele>375.0</ele><time>2026-05-02T12:41:44.191Z</time></trkpt><trkpt lat="43.7250562" lon="12.6426423"><ele>375.5</ele><time>2026-05-02T12:41:45.195Z</time></trkpt><trkpt lat="43.725127" lon="12.6424864"><ele>376.0</ele><time>2026-05-02T12:41:46.173Z</time></trkpt><trkpt lat="43.7251907" lon="12.6423393"><ele>377.75</ele><time>2026-05-02T12:41:47.18Z</time></trkpt><trkpt lat="43.7252579" lon="12.6421968"><ele>379.5</ele><time>2026-05-02T12:41:48.203Z</time></trkpt><trkpt lat="43.7253269" lon="12.642056"><ele>381.25</ele><time>2026-05-02T12:41:49.195Z</time></trkpt><trkpt lat="43.725391" lon="12.6419251"><ele>383.0</ele><time>2026-05-02T12:41:50.183Z</time></trkpt><trkpt lat="43.7254421" lon="12.6418063"><ele>383.0</ele><time>2026-05-02T12:41:51.188Z</time></trkpt><trkpt lat="43.7254855" lon="12.6416904"><ele>383.0</ele><time>2026-05-02T12:41:52.201Z</time></trkpt><trkpt lat="43.725537" lon="12.641578"><ele>383.0</ele><time>2026-05-02T12:41:53.199Z</time></trkpt><trkpt lat="43.7255966" lon="12.6414975"><ele>383.0</ele><time>2026-05-02T12:41:54.195Z</time></trkpt><trkpt lat="43.7256649" lon="12.6414444"><ele>383.0</ele><time>2026-05-02T12:41:55.191Z</time></trkpt><trkpt lat="43.7257465" lon="12.6414291"><ele>383.0</ele><time>2026-05-02T12:41:56.186Z</time></trkpt><trkpt lat="43.7258253" lon="12.6414309"><ele>383.0</ele><time>2026-05-02T12:41:57.181Z</time></trkpt><trkpt lat="43.7258899" lon="12.641413"><ele>383.0</ele><time>2026-05-02T12:41:58.196Z</time></trkpt><trkpt lat="43.7259484" lon="12.6413414"><ele>383.0</ele><time>2026-05-02T12:41:59.191Z</time></trkpt><trkpt lat="43.725982" lon="12.6412504"><ele>383.0</ele><time>2026-05-02T12:42:00.2Z</time></trkpt><trkpt lat="43.725986" lon="12.6411405"><ele>383.0</ele><time>2026-05-02T12:42:01.2Z</time></trkpt><trkpt lat="43.7259868" lon="12.641015"><ele>383.0</ele><time>2026-05-02T12:42:02.196Z</time></trkpt><trkpt lat="43.7259963" lon="12.6408809"><ele>382.25</ele><time>2026-05-02T12:42:03.202Z</time></trkpt><trkpt lat="43.7260431" lon="12.6407549"><ele>381.5</ele><time>2026-05-02T12:42:04.186Z</time></trkpt><trkpt lat="43.7261207" lon="12.6406317"><ele>380.75</ele><time>2026-05-02T12:42:05.199Z</time></trkpt><trkpt lat="43.7262023" lon="12.6405182"><ele>380.0</ele><time>2026-05-02T12:42:06.171Z</time></trkpt><trkpt lat="43.7262935" lon="12.6404122"><ele>380.2</ele><time>2026-05-02T12:42:07.184Z</time></trkpt><trkpt lat="43.7263852" lon="12.6403227"><ele>380.4</ele><time>2026-05-02T12:42:08.189Z</time></trkpt><trkpt lat="43.7264736" lon="12.6402396"><ele>380.6</ele><time>2026-05-02T12:42:09.183Z</time></trkpt><trkpt lat="43.7265509" lon="12.6401449"><ele>380.8</ele><time>2026-05-02T12:42:10.18Z</time></trkpt><trkpt lat="43.7266041" lon="12.6400364"><ele>381.0</ele><time>2026-05-02T12:42:11.186Z</time></trkpt><trkpt lat="43.7266437" lon="12.6399085"><ele>381.0</ele><time>2026-05-02T12:42:12.192Z</time></trkpt><trkpt lat="43.7266871" lon="12.6397606"><ele>381.0</ele><time>2026-05-02T12:42:13.195Z</time></trkpt><trkpt lat="43.7267512" lon="12.6395957"><ele>381.0</ele><time>2026-05-02T12:42:14.179Z</time></trkpt><trkpt lat="43.7268325" lon="12.6394313"><ele>381.0</ele><time>2026-05-02T12:42:15.199Z</time></trkpt><trkpt lat="43.726937" lon="12.6393022"><ele>382.25</ele><time>2026-05-02T12:42:16.2Z</time></trkpt><trkpt lat="43.727048" lon="12.6391901"><ele>383.5</ele><time>2026-05-02T12:42:17.182Z</time></trkpt><trkpt lat="43.7271595" lon="12.63909"><ele>384.75</ele><time>2026-05-02T12:42:18.185Z</time></trkpt><trkpt lat="43.7272725" lon="12.6389861"><ele>386.0</ele><time>2026-05-02T12:42:19.189Z</time></trkpt><trkpt lat="43.7273842" lon="12.6388838"><ele>386.0</ele><time>2026-05-02T12:42:20.177Z</time></trkpt><trkpt lat="43.7275029" lon="12.6387881"><ele>386.0</ele><time>2026-05-02T12:42:21.175Z</time></trkpt><trkpt lat="43.7276206" lon="12.6386954"><ele>386.0</ele><time>2026-05-02T12:42:22.185Z</time></trkpt><trkpt lat="43.7277544" lon="12.638607"><ele>386.0</ele><time>2026-05-02T12:42:23.187Z</time></trkpt><trkpt lat="43.7278867" lon="12.6385144"><ele>387.75</ele><time>2026-05-02T12:42:24.21Z</time></trkpt><trkpt lat="43.7280192" lon="12.6384312"><ele>389.5</ele><time>2026-05-02T12:42:25.181Z</time></trkpt><trkpt lat="43.7281551" lon="12.6383678"><ele>391.25</ele><time>2026-05-02T12:42:26.191Z</time></trkpt><trkpt lat="43.7282838" lon="12.6383111"><ele>393.0</ele><time>2026-05-02T12:42:27.191Z</time></trkpt><trkpt lat="43.7284002" lon="12.6382509"><ele>393.0</ele><time>2026-05-02T12:42:28.197Z</time></trkpt><trkpt lat="43.7285075" lon="12.6381873"><ele>393.0</ele><time>2026-05-02T12:42:29.178Z</time></trkpt><trkpt lat="43.7286124" lon="12.6381303"><ele>393.0</ele><time>2026-05-02T12:42:30.203Z</time></trkpt><trkpt lat="43.7287154" lon="12.6380792"><ele>393.0</ele><time>2026-05-02T12:42:31.196Z</time></trkpt><trkpt lat="43.7288184" lon="12.6380401"><ele>393.0</ele><time>2026-05-02T12:42:32.178Z</time></trkpt><trkpt lat="43.7289283" lon="12.6380168"><ele>392.0</ele><time>2026-05-02T12:42:33.181Z</time></trkpt><trkpt lat="43.7290616" lon="12.6380303"><ele>391.0</ele><time>2026-05-02T12:42:34.177Z</time></trkpt><trkpt lat="43.7292118" lon="12.6380914"><ele>390.0</ele><time>2026-05-02T12:42:35.172Z</time></trkpt><trkpt lat="43.7293615" lon="12.6381529"><ele>389.0</ele><time>2026-05-02T12:42:36.18Z</time></trkpt><trkpt lat="43.7295029" lon="12.6382069"><ele>391.0</ele><time>2026-05-02T12:42:37.178Z</time></trkpt><trkpt lat="43.7296321" lon="12.638263"><ele>393.0</ele><time>2026-05-02T12:42:38.193Z</time></trkpt><trkpt lat="43.7297562" lon="12.6383149"><ele>395.0</ele><time>2026-05-02T12:42:39.185Z</time></trkpt><trkpt lat="43.729889" lon="12.6383654"><ele>397.0</ele><time>2026-05-02T12:42:40.198Z</time></trkpt><trkpt lat="43.7300212" lon="12.6384195"><ele>397.0</ele><time>2026-05-02T12:42:41.202Z</time></trkpt><trkpt lat="43.7301534" lon="12.6384524"><ele>397.0</ele><time>2026-05-02T12:42:42.185Z</time></trkpt><trkpt lat="43.7302827" lon="12.6384516"><ele>397.0</ele><time>2026-05-02T12:42:43.202Z</time></trkpt><trkpt lat="43.7304132" lon="12.6384187"><ele>397.0</ele><time>2026-05-02T12:42:44.187Z</time></trkpt><trkpt lat="43.7305271" lon="12.6383554"><ele>397.5</ele><time>2026-05-02T12:42:45.197Z</time></trkpt><trkpt lat="43.7306297" lon="12.6382453"><ele>398.0</ele><time>2026-05-02T12:42:46.177Z</time></trkpt><trkpt lat="43.7307209" lon="12.6381053"><ele>398.5</ele><time>2026-05-02T12:42:47.184Z</time></trkpt><trkpt lat="43.7307934" lon="12.6379376"><ele>399.0</ele><time>2026-05-02T12:42:48.185Z</time></trkpt><trkpt lat="43.7308392" lon="12.6377797"><ele>399.0</ele><time>2026-05-02T12:42:49.197Z</time></trkpt><trkpt lat="43.7308559" lon="12.6376145"><ele>399.0</ele><time>2026-05-02T12:42:50.184Z</time></trkpt><trkpt lat="43.7308473" lon="12.6374446"><ele>399.0</ele><time>2026-05-02T12:42:51.197Z</time></trkpt><trkpt lat="43.7308224" lon="12.6372843"><ele>399.0</ele><time>2026-05-02T12:42:52.193Z</time></trkpt><trkpt lat="43.7307861" lon="12.6371155"><ele>399.0</ele><time>2026-05-02T12:42:53.186Z</time></trkpt><trkpt lat="43.7307335" lon="12.636937"><ele>399.0</ele><time>2026-05-02T12:42:54.198Z</time></trkpt><trkpt lat="43.7306776" lon="12.6367516"><ele>399.0</ele><time>2026-05-02T12:42:55.185Z</time></trkpt><trkpt lat="43.7306204" lon="12.6365515"><ele>399.0</ele><time>2026-05-02T12:42:56.196Z</time></trkpt><trkpt lat="43.7305646" lon="12.6363433"><ele>399.0</ele><time>2026-05-02T12:42:57.192Z</time></trkpt><trkpt lat="43.7305116" lon="12.6361447"><ele>399.0</ele><time>2026-05-02T12:42:58.21Z</time></trkpt><trkpt lat="43.7304604" lon="12.6359393"><ele>399.0</ele><time>2026-05-02T12:42:59.188Z</time></trkpt><trkpt lat="43.730411" lon="12.6357292"><ele>398.0</ele><time>2026-05-02T12:43:00.201Z</time></trkpt><trkpt lat="43.7303731" lon="12.6355206"><ele>397.0</ele><time>2026-05-02T12:43:01.195Z</time></trkpt><trkpt lat="43.7303464" lon="12.6353267"><ele>396.0</ele><time>2026-05-02T12:43:02.184Z</time></trkpt><trkpt lat="43.7303238" lon="12.6351378"><ele>395.0</ele><time>2026-05-02T12:43:03.194Z</time></trkpt><trkpt lat="43.7303057" lon="12.634951"><ele>394.75</ele><time>2026-05-02T12:43:04.187Z</time></trkpt><trkpt lat="43.7302825" lon="12.6347747"><ele>394.5</ele><time>2026-05-02T12:43:05.185Z</time></trkpt><trkpt lat="43.730259" lon="12.6345984"><ele>394.25</ele><time>2026-05-02T12:43:06.185Z</time></trkpt><trkpt lat="43.7302355" lon="12.634438"><ele>394.0</ele><time>2026-05-02T12:43:07.201Z</time></trkpt><trkpt lat="43.7302162" lon="12.6342874"><ele>398.83333333333337</ele><time>2026-05-02T12:43:08.185Z</time></trkpt><trkpt lat="43.730201" lon="12.634153"><ele>403.6666666666667</ele><time>2026-05-02T12:43:09.198Z</time></trkpt><trkpt lat="43.7301817" lon="12.6340304"><ele>408.5</ele><time>2026-05-02T12:43:10.188Z</time></trkpt><trkpt lat="43.7301635" lon="12.6339159"><ele>413.33333333333337</ele><time>2026-05-02T12:43:11.2Z</time></trkpt><trkpt lat="43.730144" lon="12.6338199"><ele>418.1666666666667</ele><time>2026-05-02T12:43:12.193Z</time></trkpt><trkpt lat="43.7301303" lon="12.6337336"><ele>423.0</ele><time>2026-05-02T12:43:13.181Z</time></trkpt><trkpt lat="43.7301211" lon="12.6336018"><ele>423.2</ele><time>2026-05-02T12:43:15.193Z</time></trkpt><trkpt lat="43.7301404" lon="12.6334641"><ele>423.4</ele><time>2026-05-02T12:43:17.199Z</time></trkpt><trkpt lat="43.7302017" lon="12.6333356"><ele>423.59999999999997</ele><time>2026-05-02T12:43:19.192Z</time></trkpt><trkpt lat="43.7302192" lon="12.6332056"><ele>423.79999999999995</ele><time>2026-05-02T12:43:21.18Z</time></trkpt><trkpt lat="43.7301802" lon="12.6331314"><ele>424.0</ele><time>2026-05-02T12:43:22.189Z</time></trkpt><trkpt lat="43.7301366" lon="12.6330387"><ele>424.00000000000006</ele><time>2026-05-02T12:43:23.18Z</time></trkpt><trkpt lat="43.7300961" lon="12.6329264"><ele>424.0</ele><time>2026-05-02T12:43:24.176Z</time></trkpt><trkpt lat="43.7300806" lon="12.6328029"><ele>424.0</ele><time>2026-05-02T12:43:25.183Z</time></trkpt><trkpt lat="43.7300813" lon="12.6326855"><ele>424.0</ele><time>2026-05-02T12:43:26.173Z</time></trkpt><trkpt lat="43.7301021" lon="12.6325757"><ele>424.00000000000006</ele><time>2026-05-02T12:43:27.182Z</time></trkpt><trkpt lat="43.7301506" lon="12.6324756"><ele>424.0</ele><time>2026-05-02T12:43:28.169Z</time></trkpt><trkpt lat="43.7302249" lon="12.6323845"><ele>424.2</ele><time>2026-05-02T12:43:29.188Z</time></trkpt><trkpt lat="43.7303064" lon="12.6323117"><ele>424.4</ele><time>2026-05-02T12:43:30.178Z</time></trkpt><trkpt lat="43.7303843" lon="12.6322674"><ele>424.6</ele><time>2026-05-02T12:43:31.187Z</time></trkpt><trkpt lat="43.7304821" lon="12.6322544"><ele>424.8</ele><time>2026-05-02T12:43:32.19Z</time></trkpt><trkpt lat="43.7305784" lon="12.6322628"><ele>425.0</ele><time>2026-05-02T12:43:33.185Z</time></trkpt><trkpt lat="43.7306704" lon="12.6323067"><ele>425.0</ele><time>2026-05-02T12:43:34.185Z</time></trkpt><trkpt lat="43.7307665" lon="12.6323743"><ele>425.0</ele><time>2026-05-02T12:43:35.185Z</time></trkpt><trkpt lat="43.7308613" lon="12.6324672"><ele>425.0</ele><time>2026-05-02T12:43:36.18Z</time></trkpt><trkpt lat="43.7309496" lon="12.6325522"><ele>425.0</ele><time>2026-05-02T12:43:37.185Z</time></trkpt><trkpt lat="43.731033" lon="12.6326291"><ele>425.0</ele><time>2026-05-02T12:43:38.186Z</time></trkpt><trkpt lat="43.731126" lon="12.6327013"><ele>427.0</ele><time>2026-05-02T12:43:39.185Z</time></trkpt><trkpt lat="43.7312256" lon="12.6327601"><ele>429.0</ele><time>2026-05-02T12:43:40.197Z</time></trkpt><trkpt lat="43.7313293" lon="12.6328094"><ele>431.0</ele><time>2026-05-02T12:43:41.187Z</time></trkpt><trkpt lat="43.7314335" lon="12.632831"><ele>433.0</ele><time>2026-05-02T12:43:42.191Z</time></trkpt><trkpt lat="43.7315353" lon="12.6328305"><ele>435.0</ele><time>2026-05-02T12:43:43.183Z</time></trkpt><trkpt lat="43.7316586" lon="12.6328092"><ele>435.0</ele><time>2026-05-02T12:43:44.172Z</time></trkpt><trkpt lat="43.7318065" lon="12.6327942"><ele>435.0</ele><time>2026-05-02T12:43:45.175Z</time></trkpt><trkpt lat="43.7319623" lon="12.6327777"><ele>435.0</ele><time>2026-05-02T12:43:46.198Z</time></trkpt><trkpt lat="43.7321064" lon="12.6327652"><ele>435.0</ele><time>2026-05-02T12:43:47.195Z</time></trkpt><trkpt lat="43.7322451" lon="12.6327661"><ele>435.75</ele><time>2026-05-02T12:43:48.193Z</time></trkpt><trkpt lat="43.7323785" lon="12.6327648"><ele>436.5</ele><time>2026-05-02T12:43:49.19Z</time></trkpt><trkpt lat="43.732508" lon="12.6327583"><ele>437.25</ele><time>2026-05-02T12:43:50.182Z</time></trkpt><trkpt lat="43.7326362" lon="12.6327518"><ele>438.0</ele><time>2026-05-02T12:43:51.179Z</time></trkpt><trkpt lat="43.7327548" lon="12.6327309"><ele>438.0</ele><time>2026-05-02T12:43:52.186Z</time></trkpt><trkpt lat="43.7328649" lon="12.6327001"><ele>437.99999999999994</ele><time>2026-05-02T12:43:53.191Z</time></trkpt><trkpt lat="43.7329672" lon="12.6326532"><ele>437.99999999999994</ele><time>2026-05-02T12:43:54.186Z</time></trkpt><trkpt lat="43.7330489" lon="12.6325893"><ele>438.0</ele><time>2026-05-02T12:43:55.186Z</time></trkpt><trkpt lat="43.7331177" lon="12.6325105"><ele>438.0</ele><time>2026-05-02T12:43:56.201Z</time></trkpt><trkpt lat="43.7331833" lon="12.6324315"><ele>438.0</ele><time>2026-05-02T12:43:57.188Z</time></trkpt><trkpt lat="43.733246" lon="12.6323389"><ele>437.99999999999994</ele><time>2026-05-02T12:43:58.19Z</time></trkpt><trkpt lat="43.73331" lon="12.6322446"><ele>437.99999999999994</ele><time>2026-05-02T12:43:59.194Z</time></trkpt><trkpt lat="43.7333866" lon="12.6321545"><ele>438.0</ele><time>2026-05-02T12:44:00.191Z</time></trkpt><trkpt lat="43.7334675" lon="12.6320914"><ele>438.0</ele><time>2026-05-02T12:44:01.179Z</time></trkpt><trkpt lat="43.7335766" lon="12.6320641"><ele>437.75</ele><time>2026-05-02T12:44:02.203Z</time></trkpt><trkpt lat="43.7336949" lon="12.6320663"><ele>437.5</ele><time>2026-05-02T12:44:03.191Z</time></trkpt><trkpt lat="43.7338117" lon="12.6320633"><ele>437.25</ele><time>2026-05-02T12:44:04.205Z</time></trkpt><trkpt lat="43.7339312" lon="12.6320732"><ele>437.0</ele><time>2026-05-02T12:44:05.196Z</time></trkpt><trkpt lat="43.7340501" lon="12.6320738"><ele>436.99999999999994</ele><time>2026-05-02T12:44:06.189Z</time></trkpt><trkpt lat="43.7341534" lon="12.6320706"><ele>437.0</ele><time>2026-05-02T12:44:07.188Z</time></trkpt><trkpt lat="43.7342482" lon="12.632063"><ele>437.0</ele><time>2026-05-02T12:44:08.169Z</time></trkpt><trkpt lat="43.7343405" lon="12.6320676"><ele>437.0</ele><time>2026-05-02T12:44:09.207Z</time></trkpt><trkpt lat="43.7344246" lon="12.6320626"><ele>436.99999999999994</ele><time>2026-05-02T12:44:10.181Z</time></trkpt><trkpt lat="43.7344911" lon="12.6320275"><ele>437.0</ele><time>2026-05-02T12:44:11.193Z</time></trkpt><trkpt lat="43.7345379" lon="12.6319574"><ele>437.16666666666663</ele><time>2026-05-02T12:44:12.197Z</time></trkpt><trkpt lat="43.7345601" lon="12.6318672"><ele>437.3333333333333</ele><time>2026-05-02T12:44:13.187Z</time></trkpt><trkpt lat="43.7345863" lon="12.6317733"><ele>437.5</ele><time>2026-05-02T12:44:14.189Z</time></trkpt><trkpt lat="43.7346299" lon="12.6316634"><ele>437.66666666666663</ele><time>2026-05-02T12:44:15.186Z</time></trkpt><trkpt lat="43.7346905" lon="12.6315557"><ele>437.8333333333333</ele><time>2026-05-02T12:44:16.197Z</time></trkpt><trkpt lat="43.7347699" lon="12.6314669"><ele>438.0</ele><time>2026-05-02T12:44:17.201Z</time></trkpt><trkpt lat="43.7348892" lon="12.6313929"><ele>438.0</ele><time>2026-05-02T12:44:18.196Z</time></trkpt><trkpt lat="43.7350069" lon="12.6313545"><ele>438.0</ele><time>2026-05-02T12:44:19.187Z</time></trkpt><trkpt lat="43.7351431" lon="12.631338"><ele>438.0</ele><time>2026-05-02T12:44:20.197Z</time></trkpt><trkpt lat="43.7352931" lon="12.6313669"><ele>438.0</ele><time>2026-05-02T12:44:21.183Z</time></trkpt><trkpt lat="43.735434" lon="12.6314024"><ele>438.0</ele><time>2026-05-02T12:44:22.188Z</time></trkpt><trkpt lat="43.735565" lon="12.6314414"><ele>438.0</ele><time>2026-05-02T12:44:23.188Z</time></trkpt><trkpt lat="43.7356938" lon="12.6314602"><ele>438.0</ele><time>2026-05-02T12:44:24.191Z</time></trkpt><trkpt lat="43.7358259" lon="12.6314386"><ele>438.0</ele><time>2026-05-02T12:44:25.184Z</time></trkpt><trkpt lat="43.7359465" lon="12.6313542"><ele>437.66666666666663</ele><time>2026-05-02T12:44:26.194Z</time></trkpt><trkpt lat="43.7360548" lon="12.6311997"><ele>437.3333333333333</ele><time>2026-05-02T12:44:27.179Z</time></trkpt><trkpt lat="43.7361508" lon="12.6310406"><ele>437.0</ele><time>2026-05-02T12:44:28.175Z</time></trkpt><trkpt lat="43.7362513" lon="12.6308864"><ele>437.0</ele><time>2026-05-02T12:44:29.188Z</time></trkpt><trkpt lat="43.7363423" lon="12.6307255"><ele>437.0</ele><time>2026-05-02T12:44:30.192Z</time></trkpt><trkpt lat="43.7364263" lon="12.6305835"><ele>437.0</ele><time>2026-05-02T12:44:31.195Z</time></trkpt><trkpt lat="43.7365276" lon="12.6304663"><ele>437.0</ele><time>2026-05-02T12:44:32.196Z</time></trkpt><trkpt lat="43.7366351" lon="12.6303536"><ele>435.5</ele><time>2026-05-02T12:44:33.186Z</time></trkpt><trkpt lat="43.7367501" lon="12.6302485"><ele>434.0</ele><time>2026-05-02T12:44:34.175Z</time></trkpt><trkpt lat="43.7368562" lon="12.6301422"><ele>432.5</ele><time>2026-05-02T12:44:35.186Z</time></trkpt><trkpt lat="43.7369591" lon="12.6300403"><ele>431.0</ele><time>2026-05-02T12:44:36.21Z</time></trkpt><trkpt lat="43.7370677" lon="12.6299366"><ele>431.0</ele><time>2026-05-02T12:44:37.193Z</time></trkpt><trkpt lat="43.7371812" lon="12.6298437"><ele>431.0</ele><time>2026-05-02T12:44:38.192Z</time></trkpt><trkpt lat="43.7372998" lon="12.6297447"><ele>431.0</ele><time>2026-05-02T12:44:39.195Z</time></trkpt><trkpt lat="43.7374242" lon="12.6296615"><ele>431.0</ele><time>2026-05-02T12:44:40.195Z</time></trkpt><trkpt lat="43.7375597" lon="12.6296028"><ele>431.0</ele><time>2026-05-02T12:44:41.185Z</time></trkpt><trkpt lat="43.7376959" lon="12.6295669"><ele>431.0</ele><time>2026-05-02T12:44:42.2Z</time></trkpt><trkpt lat="43.7378445" lon="12.6295607"><ele>431.0</ele><time>2026-05-02T12:44:43.187Z</time></trkpt><trkpt lat="43.7380142" lon="12.6295868"><ele>430.66666666666663</ele><time>2026-05-02T12:44:44.168Z</time></trkpt><trkpt lat="43.7381811" lon="12.6296342"><ele>430.33333333333337</ele><time>2026-05-02T12:44:45.174Z</time></trkpt><trkpt lat="43.7383584" lon="12.629695"><ele>430.0</ele><time>2026-05-02T12:44:46.188Z</time></trkpt><trkpt lat="43.7385376" lon="12.6297566"><ele>426.6666666666667</ele><time>2026-05-02T12:44:47.189Z</time></trkpt><trkpt lat="43.7387129" lon="12.6298155"><ele>423.33333333333337</ele><time>2026-05-02T12:44:48.187Z</time></trkpt><trkpt lat="43.7388896" lon="12.6298777"><ele>420.0</ele><time>2026-05-02T12:44:49.187Z</time></trkpt><trkpt lat="43.7390596" lon="12.6299398"><ele>420.0</ele><time>2026-05-02T12:44:50.194Z</time></trkpt><trkpt lat="43.7392244" lon="12.6299994"><ele>420.0</ele><time>2026-05-02T12:44:51.182Z</time></trkpt><trkpt lat="43.7393805" lon="12.6300498"><ele>420.0</ele><time>2026-05-02T12:44:52.203Z</time></trkpt><trkpt lat="43.7395285" lon="12.6300935"><ele>419.25</ele><time>2026-05-02T12:44:53.2Z</time></trkpt><trkpt lat="43.7396716" lon="12.6301188"><ele>418.5</ele><time>2026-05-02T12:44:54.187Z</time></trkpt><trkpt lat="43.7398077" lon="12.6301056"><ele>417.75</ele><time>2026-05-02T12:44:55.189Z</time></trkpt><trkpt lat="43.7399364" lon="12.6300267"><ele>417.0</ele><time>2026-05-02T12:44:56.189Z</time></trkpt><trkpt lat="43.7400816" lon="12.6298937"><ele>416.66666666666663</ele><time>2026-05-02T12:44:57.188Z</time></trkpt><trkpt lat="43.7402281" lon="12.6297285"><ele>416.3333333333333</ele><time>2026-05-02T12:44:58.166Z</time></trkpt><trkpt lat="43.7403542" lon="12.6295657"><ele>416.0</ele><time>2026-05-02T12:44:59.187Z</time></trkpt><trkpt lat="43.7404677" lon="12.6294109"><ele>416.0</ele><time>2026-05-02T12:45:00.186Z</time></trkpt><trkpt lat="43.7405855" lon="12.6292863"><ele>416.0</ele><time>2026-05-02T12:45:01.183Z</time></trkpt><trkpt lat="43.740701" lon="12.6291734"><ele>416.0</ele><time>2026-05-02T12:45:02.199Z</time></trkpt><trkpt lat="43.7408349" lon="12.629078"><ele>416.0</ele><time>2026-05-02T12:45:03.193Z</time></trkpt><trkpt lat="43.740979" lon="12.6289993"><ele>417.0</ele><time>2026-05-02T12:45:04.195Z</time></trkpt><trkpt lat="43.7411307" lon="12.6289369"><ele>418.0</ele><time>2026-05-02T12:45:05.19Z</time></trkpt><trkpt lat="43.7412797" lon="12.628884"><ele>419.0</ele><time>2026-05-02T12:45:06.187Z</time></trkpt><trkpt lat="43.7414265" lon="12.6288245"><ele>419.0</ele><time>2026-05-02T12:45:07.191Z</time></trkpt><trkpt lat="43.7415522" lon="12.6287518"><ele>419.0</ele><time>2026-05-02T12:45:08.193Z</time></trkpt><trkpt lat="43.7416698" lon="12.6286596"><ele>419.0</ele><time>2026-05-02T12:45:09.201Z</time></trkpt><trkpt lat="43.7417813" lon="12.62852"><ele>419.0</ele><time>2026-05-02T12:45:10.199Z</time></trkpt><trkpt lat="43.7418548" lon="12.6283284"><ele>417.75</ele><time>2026-05-02T12:45:11.183Z</time></trkpt><trkpt lat="43.7419023" lon="12.6281365"><ele>416.5</ele><time>2026-05-02T12:45:12.201Z</time></trkpt><trkpt lat="43.7418945" lon="12.6279403"><ele>415.25</ele><time>2026-05-02T12:45:13.178Z</time></trkpt><trkpt lat="43.7418597" lon="12.6277416"><ele>414.0</ele><time>2026-05-02T12:45:14.189Z</time></trkpt><trkpt lat="43.7418052" lon="12.6275488"><ele>411.66666666666663</ele><time>2026-05-02T12:45:15.195Z</time></trkpt><trkpt lat="43.7417167" lon="12.6273857"><ele>409.3333333333333</ele><time>2026-05-02T12:45:16.168Z</time></trkpt><trkpt lat="43.7416032" lon="12.6272298"><ele>407.0</ele><time>2026-05-02T12:45:17.195Z</time></trkpt><trkpt lat="43.7414916" lon="12.6270804"><ele>408.5</ele><time>2026-05-02T12:45:18.175Z</time></trkpt><trkpt lat="43.7413932" lon="12.6269361"><ele>410.0</ele><time>2026-05-02T12:45:19.187Z</time></trkpt><trkpt lat="43.7413017" lon="12.6267912"><ele>411.5</ele><time>2026-05-02T12:45:20.179Z</time></trkpt><trkpt lat="43.7412328" lon="12.6266467"><ele>413.0</ele><time>2026-05-02T12:45:21.185Z</time></trkpt><trkpt lat="43.741186" lon="12.626487"><ele>413.0</ele><time>2026-05-02T12:45:22.196Z</time></trkpt><trkpt lat="43.7411508" lon="12.6263408"><ele>413.0</ele><time>2026-05-02T12:45:23.171Z</time></trkpt><trkpt lat="43.7411185" lon="12.6261934"><ele>413.0</ele><time>2026-05-02T12:45:24.188Z</time></trkpt><trkpt lat="43.7410893" lon="12.6260654"><ele>413.0</ele><time>2026-05-02T12:45:25.196Z</time></trkpt><trkpt lat="43.7410565" lon="12.6259607"><ele>413.0</ele><time>2026-05-02T12:45:26.19Z</time></trkpt><trkpt lat="43.7410188" lon="12.6258644"><ele>410.25</ele><time>2026-05-02T12:45:27.189Z</time></trkpt><trkpt lat="43.7409491" lon="12.6257604"><ele>407.5</ele><time>2026-05-02T12:45:28.196Z</time></trkpt><trkpt lat="43.7408476" lon="12.6256608"><ele>404.75</ele><time>2026-05-02T12:45:29.178Z</time></trkpt><trkpt lat="43.7407075" lon="12.6255642"><ele>402.0</ele><time>2026-05-02T12:45:30.192Z</time></trkpt><trkpt lat="43.7405481" lon="12.6254865"><ele>402.0</ele><time>2026-05-02T12:45:31.174Z</time></trkpt><trkpt lat="43.7403779" lon="12.6254174"><ele>402.0</ele><time>2026-05-02T12:45:32.198Z</time></trkpt><trkpt lat="43.7402049" lon="12.6253428"><ele>402.0</ele><time>2026-05-02T12:45:33.194Z</time></trkpt><trkpt lat="43.7400321" lon="12.6252599"><ele>402.66666666666663</ele><time>2026-05-02T12:45:34.203Z</time></trkpt><trkpt lat="43.739869" lon="12.6251601"><ele>403.3333333333333</ele><time>2026-05-02T12:45:35.196Z</time></trkpt><trkpt lat="43.7397092" lon="12.6250554"><ele>404.0</ele><time>2026-05-02T12:45:36.173Z</time></trkpt><trkpt lat="43.7395597" lon="12.6249444"><ele>404.0</ele><time>2026-05-02T12:45:37.2Z</time></trkpt><trkpt lat="43.7394211" lon="12.6248375"><ele>404.0</ele><time>2026-05-02T12:45:38.201Z</time></trkpt><trkpt lat="43.7393016" lon="12.6247352"><ele>404.0</ele><time>2026-05-02T12:45:39.187Z</time></trkpt><trkpt lat="43.7391937" lon="12.6246321"><ele>404.0</ele><time>2026-05-02T12:45:40.181Z</time></trkpt><trkpt lat="43.739113" lon="12.6245069"><ele>403.75</ele><time>2026-05-02T12:45:41.184Z</time></trkpt><trkpt lat="43.7390673" lon="12.624349"><ele>403.5</ele><time>2026-05-02T12:45:42.179Z</time></trkpt><trkpt lat="43.7390719" lon="12.6241692"><ele>403.25</ele><time>2026-05-02T12:45:43.188Z</time></trkpt><trkpt lat="43.7391106" lon="12.6239991"><ele>403.0</ele><time>2026-05-02T12:45:44.163Z</time></trkpt><trkpt lat="43.7391852" lon="12.6238606"><ele>403.0</ele><time>2026-05-02T12:45:45.184Z</time></trkpt><trkpt lat="43.7392821" lon="12.6237504"><ele>403.0</ele><time>2026-05-02T12:45:46.197Z</time></trkpt><trkpt lat="43.739408" lon="12.6236844"><ele>403.0</ele><time>2026-05-02T12:45:47.189Z</time></trkpt><trkpt lat="43.7395534" lon="12.6236921"><ele>403.0</ele><time>2026-05-02T12:45:48.202Z</time></trkpt><trkpt lat="43.7397006" lon="12.623776"><ele>402.0</ele><time>2026-05-02T12:45:49.194Z</time></trkpt><trkpt lat="43.7398407" lon="12.6239029"><ele>401.0</ele><time>2026-05-02T12:45:50.182Z</time></trkpt><trkpt lat="43.7399765" lon="12.6240173"><ele>400.0</ele><time>2026-05-02T12:45:51.196Z</time></trkpt><trkpt lat="43.7401256" lon="12.6241219"><ele>395.33333333333337</ele><time>2026-05-02T12:45:52.199Z</time></trkpt><trkpt lat="43.7402719" lon="12.6242353"><ele>390.66666666666663</ele><time>2026-05-02T12:45:53.193Z</time></trkpt><trkpt lat="43.7404217" lon="12.6243532"><ele>386.0</ele><time>2026-05-02T12:45:54.204Z</time></trkpt><trkpt lat="43.7405744" lon="12.6244672"><ele>389.0</ele><time>2026-05-02T12:45:55.201Z</time></trkpt><trkpt lat="43.740728" lon="12.6245862"><ele>392.0</ele><time>2026-05-02T12:45:56.201Z</time></trkpt><trkpt lat="43.7408889" lon="12.6246984"><ele>395.0</ele><time>2026-05-02T12:45:57.188Z</time></trkpt><trkpt lat="43.7410609" lon="12.6247935"><ele>395.0</ele><time>2026-05-02T12:45:58.184Z</time></trkpt><trkpt lat="43.7412353" lon="12.6248575"><ele>395.0</ele><time>2026-05-02T12:45:59.188Z</time></trkpt><trkpt lat="43.7414139" lon="12.6249008"><ele>395.0</ele><time>2026-05-02T12:46:00.21Z</time></trkpt><trkpt lat="43.7415944" lon="12.6249188"><ele>395.0</ele><time>2026-05-02T12:46:01.179Z</time></trkpt><trkpt lat="43.741777" lon="12.6248873"><ele>395.0</ele><time>2026-05-02T12:46:02.191Z</time></trkpt><trkpt lat="43.7419496" lon="12.6248456"><ele>395.0</ele><time>2026-05-02T12:46:03.19Z</time></trkpt><trkpt lat="43.7421039" lon="12.6247682"><ele>394.0</ele><time>2026-05-02T12:46:04.189Z</time></trkpt><trkpt lat="43.7422549" lon="12.6246834"><ele>393.0</ele><time>2026-05-02T12:46:05.202Z</time></trkpt><trkpt lat="43.7423952" lon="12.6245765"><ele>392.0</ele><time>2026-05-02T12:46:06.186Z</time></trkpt><trkpt lat="43.7425281" lon="12.6244663"><ele>388.75</ele><time>2026-05-02T12:46:07.185Z</time></trkpt><trkpt lat="43.742649" lon="12.6243429"><ele>385.5</ele><time>2026-05-02T12:46:08.213Z</time></trkpt><trkpt lat="43.742767" lon="12.6242266"><ele>382.25</ele><time>2026-05-02T12:46:09.205Z</time></trkpt><trkpt lat="43.7428803" lon="12.6241513"><ele>379.0</ele><time>2026-05-02T12:46:10.193Z</time></trkpt><trkpt lat="43.7430045" lon="12.6241548"><ele>377.75</ele><time>2026-05-02T12:46:11.183Z</time></trkpt><trkpt lat="43.7431218" lon="12.6242055"><ele>376.5</ele><time>2026-05-02T12:46:12.204Z</time></trkpt><trkpt lat="43.7432217" lon="12.6243231"><ele>375.25</ele><time>2026-05-02T12:46:13.199Z</time></trkpt><trkpt lat="43.7433112" lon="12.6244884"><ele>374.0</ele><time>2026-05-02T12:46:14.179Z</time></trkpt><trkpt lat="43.743391" lon="12.6246534"><ele>375.0</ele><time>2026-05-02T12:46:15.173Z</time></trkpt><trkpt lat="43.7434962" lon="12.6247892"><ele>376.0</ele><time>2026-05-02T12:46:16.188Z</time></trkpt><trkpt lat="43.743631" lon="12.6248779"><ele>377.0</ele><time>2026-05-02T12:46:17.174Z</time></trkpt><trkpt lat="43.7437635" lon="12.6248784"><ele>378.0</ele><time>2026-05-02T12:46:18.205Z</time></trkpt><trkpt lat="43.7438953" lon="12.6248563"><ele>378.0</ele><time>2026-05-02T12:46:19.192Z</time></trkpt><trkpt lat="43.7440402" lon="12.624796"><ele>378.0</ele><time>2026-05-02T12:46:20.19Z</time></trkpt><trkpt lat="43.7441763" lon="12.6247347"><ele>378.0</ele><time>2026-05-02T12:46:21.19Z</time></trkpt><trkpt lat="43.7443277" lon="12.6246859"><ele>374.75</ele><time>2026-05-02T12:46:22.177Z</time></trkpt><trkpt lat="43.744455" lon="12.6246776"><ele>371.5</ele><time>2026-05-02T12:46:23.169Z</time></trkpt><trkpt lat="43.7445809" lon="12.6247104"><ele>368.25</ele><time>2026-05-02T12:46:24.181Z</time></trkpt><trkpt lat="43.7447002" lon="12.6247837"><ele>365.0</ele><time>2026-05-02T12:46:25.19Z</time></trkpt><trkpt lat="43.7448289" lon="12.6248956"><ele>365.0</ele><time>2026-05-02T12:46:26.19Z</time></trkpt><trkpt lat="43.7449615" lon="12.6250292"><ele>365.0</ele><time>2026-05-02T12:46:27.189Z</time></trkpt><trkpt lat="43.7450978" lon="12.6251572"><ele>365.0</ele><time>2026-05-02T12:46:28.185Z</time></trkpt><trkpt lat="43.7452156" lon="12.6252946"><ele>363.0</ele><time>2026-05-02T12:46:29.204Z</time></trkpt><trkpt lat="43.7453355" lon="12.6254244"><ele>361.0</ele><time>2026-05-02T12:46:30.198Z</time></trkpt><trkpt lat="43.7454622" lon="12.6255571"><ele>359.0</ele><time>2026-05-02T12:46:31.196Z</time></trkpt><trkpt lat="43.7456039" lon="12.6256589"><ele>359.0</ele><time>2026-05-02T12:46:32.199Z</time></trkpt><trkpt lat="43.7457529" lon="12.6257509"><ele>359.0</ele><time>2026-05-02T12:46:33.178Z</time></trkpt><trkpt lat="43.7459289" lon="12.6257662"><ele>359.0</ele><time>2026-05-02T12:46:34.177Z</time></trkpt><trkpt lat="43.7460869" lon="12.6257339"><ele>359.33333333333337</ele><time>2026-05-02T12:46:35.187Z</time></trkpt><trkpt lat="43.7462394" lon="12.6256268"><ele>359.6666666666667</ele><time>2026-05-02T12:46:36.183Z</time></trkpt><trkpt lat="43.7463743" lon="12.6254915"><ele>360.0</ele><time>2026-05-02T12:46:37.2Z</time></trkpt><trkpt lat="43.7465067" lon="12.6253446"><ele>358.3333333333333</ele><time>2026-05-02T12:46:38.191Z</time></trkpt><trkpt lat="43.7466427" lon="12.6252294"><ele>356.66666666666663</ele><time>2026-05-02T12:46:39.187Z</time></trkpt><trkpt lat="43.7467751" lon="12.6251339"><ele>355.0</ele><time>2026-05-02T12:46:40.205Z</time></trkpt><trkpt lat="43.7469294" lon="12.6250751"><ele>353.75</ele><time>2026-05-02T12:46:41.189Z</time></trkpt><trkpt lat="43.7470854" lon="12.625031"><ele>352.5</ele><time>2026-05-02T12:46:42.196Z</time></trkpt><trkpt lat="43.7472229" lon="12.6249796"><ele>351.25</ele><time>2026-05-02T12:46:43.188Z</time></trkpt><trkpt lat="43.7473555" lon="12.6249024"><ele>350.0</ele><time>2026-05-02T12:46:44.194Z</time></trkpt><trkpt lat="43.7474752" lon="12.6247912"><ele>350.0</ele><time>2026-05-02T12:46:45.204Z</time></trkpt><trkpt lat="43.7475871" lon="12.6246669"><ele>350.0</ele><time>2026-05-02T12:46:46.19Z</time></trkpt><trkpt lat="43.7476787" lon="12.6245407"><ele>350.0</ele><time>2026-05-02T12:46:47.186Z</time></trkpt><trkpt lat="43.7477572" lon="12.6244278"><ele>350.0</ele><time>2026-05-02T12:46:48.189Z</time></trkpt><trkpt lat="43.7478163" lon="12.6243315"><ele>349.83333333333337</ele><time>2026-05-02T12:46:49.186Z</time></trkpt><trkpt lat="43.7478761" lon="12.6242481"><ele>349.6666666666667</ele><time>2026-05-02T12:46:50.203Z</time></trkpt><trkpt lat="43.7479338" lon="12.6241601"><ele>349.5</ele><time>2026-05-02T12:46:51.197Z</time></trkpt><trkpt lat="43.7479905" lon="12.6240733"><ele>349.3333333333333</ele><time>2026-05-02T12:46:52.199Z</time></trkpt><trkpt lat="43.7480469" lon="12.6239822"><ele>349.16666666666663</ele><time>2026-05-02T12:46:53.182Z</time></trkpt><trkpt lat="43.7481096" lon="12.6238819"><ele>349.0</ele><time>2026-05-02T12:46:54.197Z</time></trkpt><trkpt lat="43.7481717" lon="12.6237768"><ele>349.0</ele><time>2026-05-02T12:46:55.199Z</time></trkpt><trkpt lat="43.748246" lon="12.6236559"><ele>349.0</ele><time>2026-05-02T12:46:56.195Z</time></trkpt><trkpt lat="43.7483357" lon="12.6235116"><ele>349.0</ele><time>2026-05-02T12:46:57.227Z</time></trkpt><trkpt lat="43.748433" lon="12.6233599"><ele>349.0</ele><time>2026-05-02T12:46:58.209Z</time></trkpt><trkpt lat="43.7485244" lon="12.6231966"><ele>349.75</ele><time>2026-05-02T12:46:59.199Z</time></trkpt><trkpt lat="43.7485884" lon="12.6230298"><ele>350.5</ele><time>2026-05-02T12:47:00.212Z</time></trkpt><trkpt lat="43.7486203" lon="12.622863"><ele>351.25</ele><time>2026-05-02T12:47:01.207Z</time></trkpt><trkpt lat="43.7486068" lon="12.6226806"><ele>352.0</ele><time>2026-05-02T12:47:02.188Z</time></trkpt><trkpt lat="43.7485482" lon="12.6224668"><ele>352.3333333333333</ele><time>2026-05-02T12:47:03.194Z</time></trkpt><trkpt lat="43.7484664" lon="12.6222704"><ele>352.6666666666667</ele><time>2026-05-02T12:47:04.186Z</time></trkpt><trkpt lat="43.7483825" lon="12.6220901"><ele>353.0</ele><time>2026-05-02T12:47:05.198Z</time></trkpt><trkpt lat="43.7483093" lon="12.6219222"><ele>353.0</ele><time>2026-05-02T12:47:06.208Z</time></trkpt><trkpt lat="43.7482379" lon="12.6217587"><ele>353.0</ele><time>2026-05-02T12:47:07.2Z</time></trkpt><trkpt lat="43.748167" lon="12.6215977"><ele>353.0</ele><time>2026-05-02T12:47:08.188Z</time></trkpt><trkpt lat="43.7480998" lon="12.6214401"><ele>353.0</ele><time>2026-05-02T12:47:09.189Z</time></trkpt><trkpt lat="43.7480303" lon="12.6212823"><ele>354.75</ele><time>2026-05-02T12:47:10.195Z</time></trkpt><trkpt lat="43.7479616" lon="12.6211237"><ele>356.5</ele><time>2026-05-02T12:47:11.173Z</time></trkpt><trkpt lat="43.7478905" lon="12.6209768"><ele>358.25</ele><time>2026-05-02T12:47:12.161Z</time></trkpt><trkpt lat="43.7478201" lon="12.6208306"><ele>360.0</ele><time>2026-05-02T12:47:13.166Z</time></trkpt><trkpt lat="43.747757" lon="12.620693"><ele>360.0</ele><time>2026-05-02T12:47:14.165Z</time></trkpt><trkpt lat="43.7477106" lon="12.6205646"><ele>360.0</ele><time>2026-05-02T12:47:15.16Z</time></trkpt><trkpt lat="43.7476728" lon="12.6204218"><ele>360.0</ele><time>2026-05-02T12:47:16.162Z</time></trkpt><trkpt lat="43.7476523" lon="12.6202791"><ele>360.0</ele><time>2026-05-02T12:47:17.188Z</time></trkpt><trkpt lat="43.7476698" lon="12.6201451"><ele>360.0</ele><time>2026-05-02T12:47:18.178Z</time></trkpt><trkpt lat="43.7477334" lon="12.6200301"><ele>359.2</ele><time>2026-05-02T12:47:19.167Z</time></trkpt><trkpt lat="43.7478253" lon="12.6199502"><ele>358.4</ele><time>2026-05-02T12:47:20.182Z</time></trkpt><trkpt lat="43.7478981" lon="12.6198716"><ele>357.6</ele><time>2026-05-02T12:47:21.183Z</time></trkpt><trkpt lat="43.7479802" lon="12.6197989"><ele>356.8</ele><time>2026-05-02T12:47:22.172Z</time></trkpt><trkpt lat="43.7480624" lon="12.619726"><ele>356.0</ele><time>2026-05-02T12:47:23.178Z</time></trkpt><trkpt lat="43.7481411" lon="12.6196363"><ele>356.0</ele><time>2026-05-02T12:47:24.166Z</time></trkpt><trkpt lat="43.7482246" lon="12.6195353"><ele>356.0</ele><time>2026-05-02T12:47:25.179Z</time></trkpt><trkpt lat="43.7483055" lon="12.6194261"><ele>356.0</ele><time>2026-05-02T12:47:26.186Z</time></trkpt><trkpt lat="43.7483859" lon="12.6193151"><ele>356.0</ele><time>2026-05-02T12:47:27.188Z</time></trkpt><trkpt lat="43.748471" lon="12.6191937"><ele>352.5</ele><time>2026-05-02T12:47:28.199Z</time></trkpt><trkpt lat="43.7485583" lon="12.6190605"><ele>349.0</ele><time>2026-05-02T12:47:29.183Z</time></trkpt><trkpt lat="43.7486471" lon="12.6189232"><ele>345.5</ele><time>2026-05-02T12:47:30.186Z</time></trkpt><trkpt lat="43.7487296" lon="12.6187914"><ele>342.0</ele><time>2026-05-02T12:47:31.19Z</time></trkpt><trkpt lat="43.748805" lon="12.6186572"><ele>342.5</ele><time>2026-05-02T12:47:32.174Z</time></trkpt><trkpt lat="43.7488814" lon="12.6185094"><ele>343.0</ele><time>2026-05-02T12:47:33.182Z</time></trkpt><trkpt lat="43.7489549" lon="12.6183426"><ele>343.5</ele><time>2026-05-02T12:47:34.165Z</time></trkpt><trkpt lat="43.7490193" lon="12.6181796"><ele>344.0</ele><time>2026-05-02T12:47:35.171Z</time></trkpt><trkpt lat="43.7490825" lon="12.6180167"><ele>344.0</ele><time>2026-05-02T12:47:36.164Z</time></trkpt><trkpt lat="43.7491582" lon="12.6178634"><ele>344.0</ele><time>2026-05-02T12:47:37.189Z</time></trkpt><trkpt lat="43.749255" lon="12.6177265"><ele>344.0</ele><time>2026-05-02T12:47:38.174Z</time></trkpt><trkpt lat="43.749376" lon="12.6176138"><ele>344.0</ele><time>2026-05-02T12:47:39.195Z</time></trkpt><trkpt lat="43.7495012" lon="12.6175187"><ele>344.0</ele><time>2026-05-02T12:47:40.181Z</time></trkpt><trkpt lat="43.749648" lon="12.6174445"><ele>344.0</ele><time>2026-05-02T12:47:41.194Z</time></trkpt><trkpt lat="43.7498081" lon="12.6174032"><ele>344.0</ele><time>2026-05-02T12:47:42.193Z</time></trkpt><trkpt lat="43.7499671" lon="12.6173775"><ele>344.0</ele><time>2026-05-02T12:47:43.186Z</time></trkpt><trkpt lat="43.7501203" lon="12.6173623"><ele>344.0</ele><time>2026-05-02T12:47:44.181Z</time></trkpt><trkpt lat="43.7502614" lon="12.6173558"><ele>344.0</ele><time>2026-05-02T12:47:45.186Z</time></trkpt><trkpt lat="43.7503982" lon="12.6173552"><ele>344.0</ele><time>2026-05-02T12:47:46.183Z</time></trkpt><trkpt lat="43.7505286" lon="12.6173634"><ele>342.5</ele><time>2026-05-02T12:47:47.179Z</time></trkpt><trkpt lat="43.7506526" lon="12.6173904"><ele>341.0</ele><time>2026-05-02T12:47:48.195Z</time></trkpt><trkpt lat="43.7507752" lon="12.617432"><ele>339.5</ele><time>2026-05-02T12:47:49.162Z</time></trkpt><trkpt lat="43.7508992" lon="12.6174605"><ele>338.0</ele><time>2026-05-02T12:47:50.192Z</time></trkpt><trkpt lat="43.7510151" lon="12.6174629"><ele>331.5</ele><time>2026-05-02T12:47:51.201Z</time></trkpt><trkpt lat="43.751114" lon="12.6174171"><ele>325.0</ele><time>2026-05-02T12:47:52.179Z</time></trkpt><trkpt lat="43.751195" lon="12.6173197"><ele>318.5</ele><time>2026-05-02T12:47:53.198Z</time></trkpt><trkpt lat="43.7512537" lon="12.6171692"><ele>312.0</ele><time>2026-05-02T12:47:54.184Z</time></trkpt><trkpt lat="43.7512943" lon="12.6170099"><ele>315.25</ele><time>2026-05-02T12:47:55.193Z</time></trkpt><trkpt lat="43.75131" lon="12.616838"><ele>318.5</ele><time>2026-05-02T12:47:56.177Z</time></trkpt><trkpt lat="43.7513253" lon="12.6166654"><ele>321.75</ele><time>2026-05-02T12:47:57.192Z</time></trkpt><trkpt lat="43.751345" lon="12.6164923"><ele>325.0</ele><time>2026-05-02T12:47:58.191Z</time></trkpt><trkpt lat="43.7513799" lon="12.6163129"><ele>328.0</ele><time>2026-05-02T12:47:59.19Z</time></trkpt><trkpt lat="43.7514453" lon="12.6161416"><ele>331.0</ele><time>2026-05-02T12:48:00.197Z</time></trkpt><trkpt lat="43.7515567" lon="12.6160088"><ele>334.0</ele><time>2026-05-02T12:48:01.194Z</time></trkpt><trkpt lat="43.7516982" lon="12.6159106"><ele>337.0</ele><time>2026-05-02T12:48:02.179Z</time></trkpt><trkpt lat="43.7518515" lon="12.6158628"><ele>335.5</ele><time>2026-05-02T12:48:03.198Z</time></trkpt><trkpt lat="43.7519893" lon="12.6158305"><ele>334.0</ele><time>2026-05-02T12:48:04.175Z</time></trkpt><trkpt lat="43.7521294" lon="12.6157993"><ele>332.5</ele><time>2026-05-02T12:48:05.186Z</time></trkpt><trkpt lat="43.7522666" lon="12.6157735"><ele>331.0</ele><time>2026-05-02T12:48:06.176Z</time></trkpt><trkpt lat="43.752396" lon="12.615769"><ele>331.0</ele><time>2026-05-02T12:48:07.162Z</time></trkpt><trkpt lat="43.7525206" lon="12.6157776"><ele>331.0</ele><time>2026-05-02T12:48:08.179Z</time></trkpt><trkpt lat="43.7526376" lon="12.6157878"><ele>331.0</ele><time>2026-05-02T12:48:09.179Z</time></trkpt><trkpt lat="43.7527556" lon="12.61578"><ele>331.0</ele><time>2026-05-02T12:48:10.182Z</time></trkpt><trkpt lat="43.7528946" lon="12.6157252"><ele>325.0</ele><time>2026-05-02T12:48:11.197Z</time></trkpt><trkpt lat="43.7530374" lon="12.6156342"><ele>319.0</ele><time>2026-05-02T12:48:12.18Z</time></trkpt><trkpt lat="43.7531721" lon="12.6155445"><ele>313.0</ele><time>2026-05-02T12:48:13.196Z</time></trkpt><trkpt lat="43.7533054" lon="12.6154616"><ele>313.0</ele><time>2026-05-02T12:48:14.165Z</time></trkpt><trkpt lat="43.7534341" lon="12.6153804"><ele>313.0</ele><time>2026-05-02T12:48:15.184Z</time></trkpt><trkpt lat="43.7535582" lon="12.6152799"><ele>313.0</ele><time>2026-05-02T12:48:16.195Z</time></trkpt><trkpt lat="43.7536993" lon="12.6151526"><ele>313.3333333333333</ele><time>2026-05-02T12:48:17.19Z</time></trkpt><trkpt lat="43.7538232" lon="12.6149695"><ele>313.6666666666667</ele><time>2026-05-02T12:48:18.188Z</time></trkpt><trkpt lat="43.7539541" lon="12.6147769"><ele>314.0</ele><time>2026-05-02T12:48:19.18Z</time></trkpt><trkpt lat="43.7540971" lon="12.6146049"><ele>312.6666666666667</ele><time>2026-05-02T12:48:20.182Z</time></trkpt><trkpt lat="43.7542363" lon="12.6144533"><ele>311.3333333333333</ele><time>2026-05-02T12:48:21.193Z</time></trkpt><trkpt lat="43.7543681" lon="12.614307"><ele>310.0</ele><time>2026-05-02T12:48:22.173Z</time></trkpt><trkpt lat="43.7544889" lon="12.6141604"><ele>310.0</ele><time>2026-05-02T12:48:23.192Z</time></trkpt><trkpt lat="43.7545952" lon="12.6139978"><ele>310.0</ele><time>2026-05-02T12:48:24.192Z</time></trkpt><trkpt lat="43.7546815" lon="12.6137883"><ele>310.0</ele><time>2026-05-02T12:48:25.195Z</time></trkpt><trkpt lat="43.7547504" lon="12.6135642"><ele>313.0</ele><time>2026-05-02T12:48:26.189Z</time></trkpt><trkpt lat="43.7548211" lon="12.6133375"><ele>316.0</ele><time>2026-05-02T12:48:27.187Z</time></trkpt><trkpt lat="43.7549001" lon="12.6131227"><ele>319.0</ele><time>2026-05-02T12:48:28.193Z</time></trkpt><trkpt lat="43.755" lon="12.6129241"><ele>318.66666666666663</ele><time>2026-05-02T12:48:29.188Z</time></trkpt><trkpt lat="43.7551282" lon="12.6127481"><ele>318.3333333333333</ele><time>2026-05-02T12:48:30.186Z</time></trkpt><trkpt lat="43.7552857" lon="12.6125976"><ele>318.0</ele><time>2026-05-02T12:48:31.193Z</time></trkpt><trkpt lat="43.7554497" lon="12.6124675"><ele>318.0</ele><time>2026-05-02T12:48:32.2Z</time></trkpt><trkpt lat="43.7556125" lon="12.6123557"><ele>318.0</ele><time>2026-05-02T12:48:33.184Z</time></trkpt><trkpt lat="43.7557821" lon="12.612263"><ele>318.0</ele><time>2026-05-02T12:48:34.174Z</time></trkpt><trkpt lat="43.7559676" lon="12.612197"><ele>315.3333333333333</ele><time>2026-05-02T12:48:35.18Z</time></trkpt><trkpt lat="43.75617" lon="12.6121511"><ele>312.66666666666663</ele><time>2026-05-02T12:48:36.181Z</time></trkpt><trkpt lat="43.7563743" lon="12.6121074"><ele>310.0</ele><time>2026-05-02T12:48:37.18Z</time></trkpt><trkpt lat="43.7565766" lon="12.612057"><ele>310.0</ele><time>2026-05-02T12:48:38.168Z</time></trkpt><trkpt lat="43.7567654" lon="12.6120098"><ele>310.0</ele><time>2026-05-02T12:48:39.187Z</time></trkpt><trkpt lat="43.7569439" lon="12.611949"><ele>310.0</ele><time>2026-05-02T12:48:40.175Z</time></trkpt><trkpt lat="43.7571234" lon="12.6118598"><ele>312.0</ele><time>2026-05-02T12:48:41.186Z</time></trkpt><trkpt lat="43.7573062" lon="12.6117517"><ele>314.0</ele><time>2026-05-02T12:48:42.189Z</time></trkpt><trkpt lat="43.7574713" lon="12.6116363"><ele>316.0</ele><time>2026-05-02T12:48:43.184Z</time></trkpt><trkpt lat="43.7576197" lon="12.6115253"><ele>316.25</ele><time>2026-05-02T12:48:44.191Z</time></trkpt><trkpt lat="43.7577541" lon="12.6114276"><ele>316.5</ele><time>2026-05-02T12:48:45.185Z</time></trkpt><trkpt lat="43.7578721" lon="12.6113455"><ele>316.75</ele><time>2026-05-02T12:48:46.176Z</time></trkpt><trkpt lat="43.757962" lon="12.6112914"><ele>317.0</ele><time>2026-05-02T12:48:47.184Z</time></trkpt><trkpt lat="43.758047" lon="12.6112808"><ele>317.0</ele><time>2026-05-02T12:48:48.177Z</time></trkpt><trkpt lat="43.7581355" lon="12.6113353"><ele>317.0</ele><time>2026-05-02T12:48:49.184Z</time></trkpt><trkpt lat="43.7581959" lon="12.6114357"><ele>317.0</ele><time>2026-05-02T12:48:50.179Z</time></trkpt><trkpt lat="43.7582104" lon="12.6115537"><ele>317.0</ele><time>2026-05-02T12:48:51.194Z</time></trkpt><trkpt lat="43.7581708" lon="12.611703"><ele>317.0</ele><time>2026-05-02T12:48:52.17Z</time></trkpt><trkpt lat="43.7580805" lon="12.6118433"><ele>317.0</ele><time>2026-05-02T12:48:53.192Z</time></trkpt><trkpt lat="43.7579529" lon="12.611949"><ele>317.0</ele><time>2026-05-02T12:48:54.183Z</time></trkpt><trkpt lat="43.7578119" lon="12.6120364"><ele>317.0</ele><time>2026-05-02T12:48:55.191Z</time></trkpt><trkpt lat="43.7576632" lon="12.6121383"><ele>317.33333333333337</ele><time>2026-05-02T12:48:56.184Z</time></trkpt><trkpt lat="43.7575165" lon="12.6122515"><ele>317.6666666666667</ele><time>2026-05-02T12:48:57.18Z</time></trkpt><trkpt lat="43.7573832" lon="12.612402"><ele>318.0</ele><time>2026-05-02T12:48:58.202Z</time></trkpt><trkpt lat="43.7572562" lon="12.6125986"><ele>318.0</ele><time>2026-05-02T12:48:59.189Z</time></trkpt><trkpt lat="43.7571403" lon="12.6128089"><ele>318.0</ele><time>2026-05-02T12:49:00.194Z</time></trkpt><trkpt lat="43.7570307" lon="12.6130372"><ele>318.0</ele><time>2026-05-02T12:49:01.17Z</time></trkpt><trkpt lat="43.7569301" lon="12.6132601"><ele>315.6666666666667</ele><time>2026-05-02T12:49:02.196Z</time></trkpt><trkpt lat="43.7568372" lon="12.6134625"><ele>313.33333333333337</ele><time>2026-05-02T12:49:03.202Z</time></trkpt><trkpt lat="43.756741" lon="12.6136463"><ele>311.0</ele><time>2026-05-02T12:49:04.187Z</time></trkpt><trkpt lat="43.7566781" lon="12.6138525"><ele>311.0</ele><time>2026-05-02T12:49:05.181Z</time></trkpt><trkpt lat="43.7566346" lon="12.6140796"><ele>311.0</ele><time>2026-05-02T12:49:06.191Z</time></trkpt><trkpt lat="43.7566267" lon="12.614332"><ele>311.0</ele><time>2026-05-02T12:49:07.174Z</time></trkpt><trkpt lat="43.7566269" lon="12.6145855"><ele>311.33333333333337</ele><time>2026-05-02T12:49:08.189Z</time></trkpt><trkpt lat="43.7566268" lon="12.6148353"><ele>311.6666666666667</ele><time>2026-05-02T12:49:09.185Z</time></trkpt><trkpt lat="43.756608" lon="12.6150744"><ele>312.0</ele><time>2026-05-02T12:49:10.184Z</time></trkpt><trkpt lat="43.7565859" lon="12.6153176"><ele>313.6666666666667</ele><time>2026-05-02T12:49:11.209Z</time></trkpt><trkpt lat="43.7565472" lon="12.6155569"><ele>315.33333333333337</ele><time>2026-05-02T12:49:12.195Z</time></trkpt><trkpt lat="43.7564815" lon="12.615775"><ele>317.0</ele><time>2026-05-02T12:49:13.194Z</time></trkpt><trkpt lat="43.7564094" lon="12.6159788"><ele>316.75</ele><time>2026-05-02T12:49:14.173Z</time></trkpt><trkpt lat="43.7563387" lon="12.6161702"><ele>316.5</ele><time>2026-05-02T12:49:15.201Z</time></trkpt><trkpt lat="43.7562591" lon="12.6163387"><ele>316.25</ele><time>2026-05-02T12:49:16.179Z</time></trkpt><trkpt lat="43.7561992" lon="12.6164918"><ele>316.0</ele><time>2026-05-02T12:49:17.185Z</time></trkpt><trkpt lat="43.7562018" lon="12.6166445"><ele>316.0</ele><time>2026-05-02T12:49:18.179Z</time></trkpt><trkpt lat="43.7562502" lon="12.6168223"><ele>316.0</ele><time>2026-05-02T12:49:19.187Z</time></trkpt><trkpt lat="43.7563299" lon="12.6169677"><ele>316.0</ele><time>2026-05-02T12:49:20.189Z</time></trkpt><trkpt lat="43.7564455" lon="12.6170654"><ele>316.0</ele><time>2026-05-02T12:49:21.189Z</time></trkpt><trkpt lat="43.7565884" lon="12.6170978"><ele>316.25</ele><time>2026-05-02T12:49:22.196Z</time></trkpt><trkpt lat="43.7567358" lon="12.6170626"><ele>316.5</ele><time>2026-05-02T12:49:23.19Z</time></trkpt><trkpt lat="43.7568728" lon="12.6170145"><ele>316.75</ele><time>2026-05-02T12:49:24.205Z</time></trkpt><trkpt lat="43.7570014" lon="12.6169575"><ele>317.0</ele><time>2026-05-02T12:49:25.189Z</time></trkpt><trkpt lat="43.7571296" lon="12.6169184"><ele>317.0</ele><time>2026-05-02T12:49:26.18Z</time></trkpt><trkpt lat="43.7572481" lon="12.6169276"><ele>317.0</ele><time>2026-05-02T12:49:27.187Z</time></trkpt><trkpt lat="43.7573537" lon="12.61701"><ele>317.0</ele><time>2026-05-02T12:49:28.188Z</time></trkpt><trkpt lat="43.7574065" lon="12.6171568"><ele>317.0</ele><time>2026-05-02T12:49:29.191Z</time></trkpt><trkpt lat="43.7574289" lon="12.6173273"><ele>312.6666666666667</ele><time>2026-05-02T12:49:30.187Z</time></trkpt><trkpt lat="43.7574182" lon="12.6175344"><ele>308.3333333333333</ele><time>2026-05-02T12:49:31.184Z</time></trkpt><trkpt lat="43.7574047" lon="12.6177564"><ele>304.0</ele><time>2026-05-02T12:49:32.199Z</time></trkpt><trkpt lat="43.7574355" lon="12.6179922"><ele>302.0</ele><time>2026-05-02T12:49:33.186Z</time></trkpt><trkpt lat="43.7575069" lon="12.6182207"><ele>300.0</ele><time>2026-05-02T12:49:34.185Z</time></trkpt><trkpt lat="43.7575866" lon="12.618451"><ele>298.0</ele><time>2026-05-02T12:49:35.196Z</time></trkpt><trkpt lat="43.7576649" lon="12.6186833"><ele>300.66666666666663</ele><time>2026-05-02T12:49:36.197Z</time></trkpt><trkpt lat="43.7577279" lon="12.6189038"><ele>303.3333333333333</ele><time>2026-05-02T12:49:37.164Z</time></trkpt><trkpt lat="43.7578024" lon="12.6191087"><ele>306.0</ele><time>2026-05-02T12:49:38.169Z</time></trkpt><trkpt lat="43.7578973" lon="12.6192934"><ele>306.0</ele><time>2026-05-02T12:49:39.181Z</time></trkpt><trkpt lat="43.7580058" lon="12.6194314"><ele>306.0</ele><time>2026-05-02T12:49:40.18Z</time></trkpt><trkpt lat="43.7581088" lon="12.619567"><ele>306.0</ele><time>2026-05-02T12:49:41.178Z</time></trkpt><trkpt lat="43.7581897" lon="12.6197297"><ele>306.0</ele><time>2026-05-02T12:49:42.179Z</time></trkpt><trkpt lat="43.7582318" lon="12.6199467"><ele>303.0</ele><time>2026-05-02T12:49:43.177Z</time></trkpt><trkpt lat="43.7582601" lon="12.6201513"><ele>300.0</ele><time>2026-05-02T12:49:44.188Z</time></trkpt><trkpt lat="43.7583017" lon="12.6203309"><ele>297.0</ele><time>2026-05-02T12:49:45.198Z</time></trkpt><trkpt lat="43.7583871" lon="12.6204626"><ele>294.0</ele><time>2026-05-02T12:49:46.196Z</time></trkpt><trkpt lat="43.7584884" lon="12.6205832"><ele>293.25</ele><time>2026-05-02T12:49:47.186Z</time></trkpt><trkpt lat="43.7586027" lon="12.6206775"><ele>292.5</ele><time>2026-05-02T12:49:48.193Z</time></trkpt><trkpt lat="43.7587569" lon="12.6206936"><ele>291.75</ele><time>2026-05-02T12:49:49.164Z</time></trkpt><trkpt lat="43.7589143" lon="12.6206816"><ele>291.0</ele><time>2026-05-02T12:49:50.189Z</time></trkpt><trkpt lat="43.7590713" lon="12.6206955"><ele>291.0</ele><time>2026-05-02T12:49:51.198Z</time></trkpt><trkpt lat="43.7592172" lon="12.6207483"><ele>291.0</ele><time>2026-05-02T12:49:52.179Z</time></trkpt><trkpt lat="43.7593346" lon="12.6208388"><ele>291.0</ele><time>2026-05-02T12:49:53.187Z</time></trkpt><trkpt lat="43.7594383" lon="12.6209707"><ele>291.0</ele><time>2026-05-02T12:49:54.183Z</time></trkpt><trkpt lat="43.7594895" lon="12.6211237"><ele>289.25</ele><time>2026-05-02T12:49:55.198Z</time></trkpt><trkpt lat="43.7594798" lon="12.6213077"><ele>287.5</ele><time>2026-05-02T12:49:56.179Z</time></trkpt><trkpt lat="43.7594168" lon="12.621484"><ele>285.75</ele><time>2026-05-02T12:49:57.198Z</time></trkpt><trkpt lat="43.7593295" lon="12.6216576"><ele>284.0</ele><time>2026-05-02T12:49:58.175Z</time></trkpt><trkpt lat="43.7592377" lon="12.6218145"><ele>284.0</ele><time>2026-05-02T12:49:59.191Z</time></trkpt><trkpt lat="43.7591402" lon="12.6219363"><ele>284.0</ele><time>2026-05-02T12:50:00.191Z</time></trkpt><trkpt lat="43.7590394" lon="12.6220485"><ele>284.0</ele><time>2026-05-02T12:50:01.186Z</time></trkpt><trkpt lat="43.7589596" lon="12.6221924"><ele>284.0</ele><time>2026-05-02T12:50:02.187Z</time></trkpt><trkpt lat="43.758919" lon="12.6223696"><ele>284.5</ele><time>2026-05-02T12:50:03.196Z</time></trkpt><trkpt lat="43.7589032" lon="12.6225414"><ele>285.0</ele><time>2026-05-02T12:50:04.185Z</time></trkpt><trkpt lat="43.7589171" lon="12.6227049"><ele>285.5</ele><time>2026-05-02T12:50:05.188Z</time></trkpt><trkpt lat="43.7589709" lon="12.6228303"><ele>286.0</ele><time>2026-05-02T12:50:06.186Z</time></trkpt><trkpt lat="43.7590769" lon="12.6229064"><ele>285.66666666666663</ele><time>2026-05-02T12:50:07.195Z</time></trkpt><trkpt lat="43.7592132" lon="12.6229469"><ele>285.3333333333333</ele><time>2026-05-02T12:50:08.194Z</time></trkpt><trkpt lat="43.7593697" lon="12.6229588"><ele>285.0</ele><time>2026-05-02T12:50:09.188Z</time></trkpt><trkpt lat="43.7595376" lon="12.6229793"><ele>285.0</ele><time>2026-05-02T12:50:10.196Z</time></trkpt><trkpt lat="43.7597021" lon="12.6230076"><ele>285.0</ele><time>2026-05-02T12:50:11.186Z</time></trkpt><trkpt lat="43.7598445" lon="12.6230592"><ele>285.0</ele><time>2026-05-02T12:50:12.19Z</time></trkpt><trkpt lat="43.759965" lon="12.6231492"><ele>285.0</ele><time>2026-05-02T12:50:13.197Z</time></trkpt><trkpt lat="43.7600511" lon="12.6232911"><ele>285.0</ele><time>2026-05-02T12:50:14.179Z</time></trkpt><trkpt lat="43.7600857" lon="12.623448"><ele>285.0</ele><time>2026-05-02T12:50:15.186Z</time></trkpt><trkpt lat="43.7600565" lon="12.6235861"><ele>285.0</ele><time>2026-05-02T12:50:16.17Z</time></trkpt><trkpt lat="43.7599893" lon="12.623743"><ele>284.25</ele><time>2026-05-02T12:50:17.194Z</time></trkpt><trkpt lat="43.7599008" lon="12.6238754"><ele>283.5</ele><time>2026-05-02T12:50:18.18Z</time></trkpt><trkpt lat="43.7598073" lon="12.6239961"><ele>282.75</ele><time>2026-05-02T12:50:19.177Z</time></trkpt><trkpt lat="43.759723" lon="12.6241214"><ele>282.0</ele><time>2026-05-02T12:50:20.178Z</time></trkpt><trkpt lat="43.7596601" lon="12.6242454"><ele>282.0</ele><time>2026-05-02T12:50:21.194Z</time></trkpt><trkpt lat="43.7596399" lon="12.6243941"><ele>282.0</ele><time>2026-05-02T12:50:22.18Z</time></trkpt><trkpt lat="43.759673" lon="12.6245658"><ele>282.0</ele><time>2026-05-02T12:50:23.211Z</time></trkpt><trkpt lat="43.7597577" lon="12.624698"><ele>282.0</ele><time>2026-05-02T12:50:24.194Z</time></trkpt><trkpt lat="43.7598574" lon="12.6248546"><ele>281.0</ele><time>2026-05-02T12:50:25.186Z</time></trkpt><trkpt lat="43.7599041" lon="12.6250268"><ele>280.0</ele><time>2026-05-02T12:50:26.169Z</time></trkpt><trkpt lat="43.759929" lon="12.6252261"><ele>279.0</ele><time>2026-05-02T12:50:27.175Z</time></trkpt><trkpt lat="43.7599302" lon="12.625405"><ele>278.0</ele><time>2026-05-02T12:50:28.183Z</time></trkpt><trkpt lat="43.7599503" lon="12.6255773"><ele>273.0</ele><time>2026-05-02T12:50:29.192Z</time></trkpt><trkpt lat="43.7600231" lon="12.6257244"><ele>268.0</ele><time>2026-05-02T12:50:30.195Z</time></trkpt><trkpt lat="43.7601567" lon="12.6258695"><ele>263.0</ele><time>2026-05-02T12:50:31.197Z</time></trkpt><trkpt lat="43.7602872" lon="12.6260192"><ele>262.0</ele><time>2026-05-02T12:50:32.191Z</time></trkpt><trkpt lat="43.7604368" lon="12.626194"><ele>261.0</ele><time>2026-05-02T12:50:33.185Z</time></trkpt><trkpt lat="43.7605891" lon="12.6263522"><ele>260.0</ele><time>2026-05-02T12:50:34.194Z</time></trkpt><trkpt lat="43.7607436" lon="12.6265025"><ele>260.0</ele><time>2026-05-02T12:50:35.202Z</time></trkpt><trkpt lat="43.7608945" lon="12.6266195"><ele>260.0</ele><time>2026-05-02T12:50:36.188Z</time></trkpt><trkpt lat="43.7610427" lon="12.6267045"><ele>260.0</ele><time>2026-05-02T12:50:37.183Z</time></trkpt><trkpt lat="43.7611861" lon="12.6267868"><ele>263.0</ele><time>2026-05-02T12:50:38.185Z</time></trkpt><trkpt lat="43.7612937" lon="12.6268712"><ele>266.0</ele><time>2026-05-02T12:50:39.164Z</time></trkpt><trkpt lat="43.7613814" lon="12.6269967"><ele>269.0</ele><time>2026-05-02T12:50:40.185Z</time></trkpt><trkpt lat="43.7614471" lon="12.6271525"><ele>272.0</ele><time>2026-05-02T12:50:41.192Z</time></trkpt><trkpt lat="43.7614863" lon="12.6273432"><ele>272.0</ele><time>2026-05-02T12:50:42.161Z</time></trkpt><trkpt lat="43.7614963" lon="12.6275434"><ele>272.0</ele><time>2026-05-02T12:50:43.181Z</time></trkpt><trkpt lat="43.761508" lon="12.6277426"><ele>272.0</ele><time>2026-05-02T12:50:44.193Z</time></trkpt><trkpt lat="43.7615307" lon="12.6279286"><ele>272.0</ele><time>2026-05-02T12:50:45.204Z</time></trkpt><trkpt lat="43.7615914" lon="12.6281016"><ele>269.6666666666667</ele><time>2026-05-02T12:50:46.173Z</time></trkpt><trkpt lat="43.7616886" lon="12.6282573"><ele>267.3333333333333</ele><time>2026-05-02T12:50:47.19Z</time></trkpt><trkpt lat="43.7618178" lon="12.6283948"><ele>265.0</ele><time>2026-05-02T12:50:48.166Z</time></trkpt><trkpt lat="43.7619686" lon="12.6285072"><ele>265.0</ele><time>2026-05-02T12:50:49.176Z</time></trkpt><trkpt lat="43.7621167" lon="12.6286168"><ele>265.0</ele><time>2026-05-02T12:50:50.188Z</time></trkpt><trkpt lat="43.7622659" lon="12.6287105"><ele>265.0</ele><time>2026-05-02T12:50:51.178Z</time></trkpt><trkpt lat="43.7624413" lon="12.6287621"><ele>254.66666666666666</ele><time>2026-05-02T12:50:52.186Z</time></trkpt><trkpt lat="43.7626364" lon="12.6287684"><ele>244.33333333333331</ele><time>2026-05-02T12:50:53.182Z</time></trkpt><trkpt lat="43.7628364" lon="12.6287464"><ele>234.0</ele><time>2026-05-02T12:50:54.185Z</time></trkpt><trkpt lat="43.7630231" lon="12.6287078"><ele>234.66666666666669</ele><time>2026-05-02T12:50:55.173Z</time></trkpt><trkpt lat="43.763208" lon="12.6286701"><ele>235.33333333333334</ele><time>2026-05-02T12:50:56.175Z</time></trkpt><trkpt lat="43.7633861" lon="12.6286307"><ele>236.0</ele><time>2026-05-02T12:50:57.188Z</time></trkpt><trkpt lat="43.763558" lon="12.6285987"><ele>236.0</ele><time>2026-05-02T12:50:58.179Z</time></trkpt><trkpt lat="43.7637176" lon="12.6285598"><ele>236.0</ele><time>2026-05-02T12:50:59.184Z</time></trkpt><trkpt lat="43.7638743" lon="12.6284868"><ele>236.0</ele><time>2026-05-02T12:51:00.19Z</time></trkpt><trkpt lat="43.7640249" lon="12.6283969"><ele>236.0</ele><time>2026-05-02T12:51:01.194Z</time></trkpt><trkpt lat="43.764181" lon="12.6282659"><ele>236.0</ele><time>2026-05-02T12:51:02.184Z</time></trkpt><trkpt lat="43.7643105" lon="12.6281059"><ele>236.0</ele><time>2026-05-02T12:51:03.188Z</time></trkpt><trkpt lat="43.7644128" lon="12.627926"><ele>229.0</ele><time>2026-05-02T12:51:04.204Z</time></trkpt><trkpt lat="43.7645036" lon="12.6277229"><ele>222.0</ele><time>2026-05-02T12:51:05.189Z</time></trkpt><trkpt lat="43.764578" lon="12.6275041"><ele>215.0</ele><time>2026-05-02T12:51:06.194Z</time></trkpt><trkpt lat="43.7646315" lon="12.6272638"><ele>215.0</ele><time>2026-05-02T12:51:07.189Z</time></trkpt><trkpt lat="43.7646762" lon="12.6270244"><ele>215.0</ele><time>2026-05-02T12:51:08.195Z</time></trkpt><trkpt lat="43.7647147" lon="12.626789"><ele>215.0</ele><time>2026-05-02T12:51:09.185Z</time></trkpt><trkpt lat="43.76475" lon="12.6265601"><ele>216.5</ele><time>2026-05-02T12:51:10.194Z</time></trkpt><trkpt lat="43.7647945" lon="12.6263654"><ele>218.0</ele><time>2026-05-02T12:51:11.176Z</time></trkpt><trkpt lat="43.7648618" lon="12.6262026"><ele>219.5</ele><time>2026-05-02T12:51:12.192Z</time></trkpt><trkpt lat="43.7649613" lon="12.6260637"><ele>221.0</ele><time>2026-05-02T12:51:13.179Z</time></trkpt><trkpt lat="43.7650731" lon="12.62596"><ele>222.75</ele><time>2026-05-02T12:51:14.176Z</time></trkpt><trkpt lat="43.7651905" lon="12.6258809"><ele>224.5</ele><time>2026-05-02T12:51:15.202Z</time></trkpt><trkpt lat="43.7653121" lon="12.6258709"><ele>226.25</ele><time>2026-05-02T12:51:16.2Z</time></trkpt><trkpt lat="43.7654335" lon="12.6258999"><ele>228.0</ele><time>2026-05-02T12:51:17.18Z</time></trkpt><trkpt lat="43.7655705" lon="12.6259493"><ele>229.25</ele><time>2026-05-02T12:51:18.188Z</time></trkpt><trkpt lat="43.7656976" lon="12.6259984"><ele>230.5</ele><time>2026-05-02T12:51:19.184Z</time></trkpt><trkpt lat="43.7658053" lon="12.6260722"><ele>231.75</ele><time>2026-05-02T12:51:20.184Z</time></trkpt><trkpt lat="43.7658782" lon="12.6261808"><ele>233.0</ele><time>2026-05-02T12:51:21.187Z</time></trkpt><trkpt lat="43.765902" lon="12.6263546"><ele>229.0</ele><time>2026-05-02T12:51:22.202Z</time></trkpt><trkpt lat="43.7659123" lon="12.6265408"><ele>225.0</ele><time>2026-05-02T12:51:23.182Z</time></trkpt><trkpt lat="43.7659163" lon="12.6267646"><ele>221.0</ele><time>2026-05-02T12:51:24.189Z</time></trkpt><trkpt lat="43.7659344" lon="12.6270008"><ele>217.33333333333334</ele><time>2026-05-02T12:51:25.186Z</time></trkpt><trkpt lat="43.7659778" lon="12.6272267"><ele>213.66666666666669</ele><time>2026-05-02T12:51:26.195Z</time></trkpt><trkpt lat="43.7660286" lon="12.6274366"><ele>210.0</ele><time>2026-05-02T12:51:27.18Z</time></trkpt><trkpt lat="43.7660807" lon="12.627631"><ele>213.75</ele><time>2026-05-02T12:51:28.19Z</time></trkpt><trkpt lat="43.7661418" lon="12.6277986"><ele>217.5</ele><time>2026-05-02T12:51:29.195Z</time></trkpt><trkpt lat="43.7662071" lon="12.6279538"><ele>221.25</ele><time>2026-05-02T12:51:30.199Z</time></trkpt><trkpt lat="43.7662963" lon="12.6280898"><ele>225.0</ele><time>2026-05-02T12:51:31.191Z</time></trkpt><trkpt lat="43.7664135" lon="12.628193"><ele>225.0</ele><time>2026-05-02T12:51:32.16Z</time></trkpt><trkpt lat="43.7665562" lon="12.6282626"><ele>225.0</ele><time>2026-05-02T12:51:33.19Z</time></trkpt><trkpt lat="43.7667457" lon="12.628271"><ele>225.0</ele><time>2026-05-02T12:51:34.183Z</time></trkpt><trkpt lat="43.7669437" lon="12.6282503"><ele>223.66666666666669</ele><time>2026-05-02T12:51:35.183Z</time></trkpt><trkpt lat="43.7671316" lon="12.6282087"><ele>222.33333333333334</ele><time>2026-05-02T12:51:36.196Z</time></trkpt><trkpt lat="43.7673117" lon="12.6281593"><ele>221.0</ele><time>2026-05-02T12:51:37.192Z</time></trkpt><trkpt lat="43.7674867" lon="12.6281135"><ele>221.0</ele><time>2026-05-02T12:51:38.194Z</time></trkpt><trkpt lat="43.7676632" lon="12.6280648"><ele>221.0</ele><time>2026-05-02T12:51:39.172Z</time></trkpt><trkpt lat="43.7678184" lon="12.627981"><ele>221.0</ele><time>2026-05-02T12:51:40.185Z</time></trkpt><trkpt lat="43.7679611" lon="12.6278314"><ele>221.33333333333334</ele><time>2026-05-02T12:51:41.182Z</time></trkpt><trkpt lat="43.7680923" lon="12.6276675"><ele>221.66666666666669</ele><time>2026-05-02T12:51:42.168Z</time></trkpt><trkpt lat="43.7682156" lon="12.6275066"><ele>222.0</ele><time>2026-05-02T12:51:43.193Z</time></trkpt><trkpt lat="43.7683331" lon="12.6273572"><ele>222.0</ele><time>2026-05-02T12:51:44.181Z</time></trkpt><trkpt lat="43.7684586" lon="12.6272392"><ele>222.0</ele><time>2026-05-02T12:51:45.185Z</time></trkpt><trkpt lat="43.7685849" lon="12.6271857"><ele>222.0</ele><time>2026-05-02T12:51:46.179Z</time></trkpt><trkpt lat="43.7687165" lon="12.6271941"><ele>222.0</ele><time>2026-05-02T12:51:47.193Z</time></trkpt><trkpt lat="43.7688363" lon="12.6272609"><ele>221.33333333333331</ele><time>2026-05-02T12:51:48.19Z</time></trkpt><trkpt lat="43.7689547" lon="12.6273808"><ele>220.66666666666666</ele><time>2026-05-02T12:51:49.185Z</time></trkpt><trkpt lat="43.7690501" lon="12.6275512"><ele>220.0</ele><time>2026-05-02T12:51:50.19Z</time></trkpt><trkpt lat="43.7691427" lon="12.6277405"><ele>217.66666666666666</ele><time>2026-05-02T12:51:51.178Z</time></trkpt><trkpt lat="43.769237" lon="12.6279254"><ele>215.33333333333331</ele><time>2026-05-02T12:51:52.197Z</time></trkpt><trkpt lat="43.7693417" lon="12.6280943"><ele>213.0</ele><time>2026-05-02T12:51:53.186Z</time></trkpt><trkpt lat="43.7694647" lon="12.6282418"><ele>213.0</ele><time>2026-05-02T12:51:54.18Z</time></trkpt><trkpt lat="43.7696204" lon="12.6283259"><ele>213.0</ele><time>2026-05-02T12:51:55.182Z</time></trkpt><trkpt lat="43.7697894" lon="12.628349"><ele>213.0</ele><time>2026-05-02T12:51:56.193Z</time></trkpt><trkpt lat="43.7699501" lon="12.6283794"><ele>213.0</ele><time>2026-05-02T12:51:57.198Z</time></trkpt><trkpt lat="43.7701226" lon="12.6283863"><ele>213.0</ele><time>2026-05-02T12:51:58.179Z</time></trkpt><trkpt lat="43.770288" lon="12.6283658"><ele>213.0</ele><time>2026-05-02T12:51:59.193Z</time></trkpt><trkpt lat="43.7704668" lon="12.6283242"><ele>213.33333333333331</ele><time>2026-05-02T12:52:00.189Z</time></trkpt><trkpt lat="43.7706437" lon="12.6282979"><ele>213.66666666666666</ele><time>2026-05-02T12:52:01.183Z</time></trkpt><trkpt lat="43.770809" lon="12.6283114"><ele>214.0</ele><time>2026-05-02T12:52:02.184Z</time></trkpt><trkpt lat="43.7709719" lon="12.6283611"><ele>213.33333333333331</ele><time>2026-05-02T12:52:03.195Z</time></trkpt><trkpt lat="43.7711293" lon="12.6284305"><ele>212.66666666666669</ele><time>2026-05-02T12:52:04.172Z</time></trkpt><trkpt lat="43.771261" lon="12.6285342"><ele>212.0</ele><time>2026-05-02T12:52:05.209Z</time></trkpt><trkpt lat="43.7713846" lon="12.6286414"><ele>212.0</ele><time>2026-05-02T12:52:06.186Z</time></trkpt><trkpt lat="43.7715119" lon="12.6287112"><ele>212.0</ele><time>2026-05-02T12:52:07.188Z</time></trkpt><trkpt lat="43.7716337" lon="12.6287021"><ele>212.0</ele><time>2026-05-02T12:52:08.196Z</time></trkpt><trkpt lat="43.7717444" lon="12.6286538"><ele>212.0</ele><time>2026-05-02T12:52:09.176Z</time></trkpt><trkpt lat="43.7718476" lon="12.6285402"><ele>208.25</ele><time>2026-05-02T12:52:10.182Z</time></trkpt><trkpt lat="43.7719144" lon="12.6283908"><ele>204.5</ele><time>2026-05-02T12:52:11.192Z</time></trkpt><trkpt lat="43.7719702" lon="12.6282226"><ele>200.75</ele><time>2026-05-02T12:52:12.185Z</time></trkpt><trkpt lat="43.7720301" lon="12.6280179"><ele>197.0</ele><time>2026-05-02T12:52:13.182Z</time></trkpt><trkpt lat="43.7720951" lon="12.6278058"><ele>197.0</ele><time>2026-05-02T12:52:14.194Z</time></trkpt><trkpt lat="43.7721506" lon="12.6275927"><ele>197.0</ele><time>2026-05-02T12:52:15.188Z</time></trkpt><trkpt lat="43.7722053" lon="12.6273826"><ele>197.0</ele><time>2026-05-02T12:52:16.182Z</time></trkpt><trkpt lat="43.7722751" lon="12.6272082"><ele>197.0</ele><time>2026-05-02T12:52:17.196Z</time></trkpt><trkpt lat="43.7723812" lon="12.6270679"><ele>197.0</ele><time>2026-05-02T12:52:18.19Z</time></trkpt><trkpt lat="43.7725137" lon="12.6269477"><ele>197.0</ele><time>2026-05-02T12:52:19.171Z</time></trkpt><trkpt lat="43.7726595" lon="12.6268482"><ele>201.66666666666669</ele><time>2026-05-02T12:52:20.193Z</time></trkpt><trkpt lat="43.7728127" lon="12.6267659"><ele>206.33333333333331</ele><time>2026-05-02T12:52:21.188Z</time></trkpt><trkpt lat="43.772963" lon="12.6266879"><ele>211.0</ele><time>2026-05-02T12:52:22.197Z</time></trkpt><trkpt lat="43.7731044" lon="12.626641"><ele>211.0</ele><time>2026-05-02T12:52:23.188Z</time></trkpt><trkpt lat="43.7732332" lon="12.6266121"><ele>211.0</ele><time>2026-05-02T12:52:24.195Z</time></trkpt><trkpt lat="43.7733522" lon="12.626635"><ele>211.0</ele><time>2026-05-02T12:52:25.196Z</time></trkpt><trkpt lat="43.7734447" lon="12.6267392"><ele>211.0</ele><time>2026-05-02T12:52:26.177Z</time></trkpt><trkpt lat="43.7735124" lon="12.6268993"><ele>212.25</ele><time>2026-05-02T12:52:27.181Z</time></trkpt><trkpt lat="43.7735564" lon="12.6270951"><ele>213.5</ele><time>2026-05-02T12:52:28.197Z</time></trkpt><trkpt lat="43.7735999" lon="12.6272775"><ele>214.75</ele><time>2026-05-02T12:52:29.193Z</time></trkpt><trkpt lat="43.7736896" lon="12.6274342"><ele>216.0</ele><time>2026-05-02T12:52:30.183Z</time></trkpt><trkpt lat="43.7738169" lon="12.6275538"><ele>216.0</ele><time>2026-05-02T12:52:31.191Z</time></trkpt><trkpt lat="43.7739416" lon="12.6276724"><ele>216.0</ele><time>2026-05-02T12:52:32.178Z</time></trkpt><trkpt lat="43.7740576" lon="12.6277776"><ele>216.0</ele><time>2026-05-02T12:52:33.176Z</time></trkpt><trkpt lat="43.7741783" lon="12.6278778"><ele>216.0</ele><time>2026-05-02T12:52:34.182Z</time></trkpt><trkpt lat="43.7742837" lon="12.6279275"><ele>212.4</ele><time>2026-05-02T12:52:35.177Z</time></trkpt><trkpt lat="43.7743919" lon="12.6279585"><ele>208.8</ele><time>2026-05-02T12:52:36.197Z</time></trkpt><trkpt lat="43.7744805" lon="12.6279493"><ele>205.20000000000002</ele><time>2026-05-02T12:52:37.194Z</time></trkpt><trkpt lat="43.7745686" lon="12.6279418"><ele>201.60000000000002</ele><time>2026-05-02T12:52:38.183Z</time></trkpt><trkpt lat="43.7746405" lon="12.627941"><ele>198.0</ele><time>2026-05-02T12:52:39.202Z</time></trkpt><trkpt lat="43.774734" lon="12.6279485"><ele>198.0</ele><time>2026-05-02T12:52:41.189Z</time></trkpt><trkpt lat="43.7748248" lon="12.6279473"><ele>198.0</ele><time>2026-05-02T12:52:44.167Z</time></trkpt><trkpt lat="43.7749188" lon="12.6279436"><ele>198.0</ele><time>2026-05-02T12:52:46.186Z</time></trkpt><trkpt lat="43.7749963" lon="12.6279336"><ele>198.0</ele><time>2026-05-02T12:52:47.169Z</time></trkpt><trkpt lat="43.7751183" lon="12.6279244"><ele>198.0</ele><time>2026-05-02T12:52:48.189Z</time></trkpt><trkpt lat="43.7752565" lon="12.6279181"><ele>198.33333333333331</ele><time>2026-05-02T12:52:49.194Z</time></trkpt><trkpt lat="43.7754136" lon="12.6279112"><ele>198.66666666666666</ele><time>2026-05-02T12:52:50.199Z</time></trkpt><trkpt lat="43.7755779" lon="12.6279029"><ele>199.0</ele><time>2026-05-02T12:52:51.197Z</time></trkpt><trkpt lat="43.7757424" lon="12.6279014"><ele>199.0</ele><time>2026-05-02T12:52:52.202Z</time></trkpt><trkpt lat="43.7758928" lon="12.627907"><ele>199.0</ele><time>2026-05-02T12:52:53.187Z</time></trkpt><trkpt lat="43.7760394" lon="12.6278969"><ele>199.0</ele><time>2026-05-02T12:52:54.189Z</time></trkpt><trkpt lat="43.7761774" lon="12.6278738"><ele>199.0</ele><time>2026-05-02T12:52:55.183Z</time></trkpt><trkpt lat="43.7763234" lon="12.627826"><ele>200.66666666666666</ele><time>2026-05-02T12:52:56.202Z</time></trkpt><trkpt lat="43.7764728" lon="12.6277453"><ele>202.33333333333331</ele><time>2026-05-02T12:52:57.199Z</time></trkpt><trkpt lat="43.7766212" lon="12.627646"><ele>204.0</ele><time>2026-05-02T12:52:58.192Z</time></trkpt><trkpt lat="43.7767698" lon="12.6275289"><ele>200.0</ele><time>2026-05-02T12:52:59.189Z</time></trkpt><trkpt lat="43.7769112" lon="12.6274043"><ele>196.0</ele><time>2026-05-02T12:53:00.193Z</time></trkpt><trkpt lat="43.7770436" lon="12.6272741"><ele>192.0</ele><time>2026-05-02T12:53:01.182Z</time></trkpt><trkpt lat="43.7771655" lon="12.6271458"><ele>192.0</ele><time>2026-05-02T12:53:02.19Z</time></trkpt><trkpt lat="43.7772909" lon="12.6270288"><ele>192.0</ele><time>2026-05-02T12:53:03.192Z</time></trkpt><trkpt lat="43.7774335" lon="12.6269336"><ele>192.0</ele><time>2026-05-02T12:53:04.176Z</time></trkpt><trkpt lat="43.7775892" lon="12.6268591"><ele>192.33333333333331</ele><time>2026-05-02T12:53:05.187Z</time></trkpt><trkpt lat="43.7777478" lon="12.6267931"><ele>192.66666666666666</ele><time>2026-05-02T12:53:06.199Z</time></trkpt><trkpt lat="43.7778926" lon="12.6267187"><ele>193.0</ele><time>2026-05-02T12:53:07.212Z</time></trkpt><trkpt lat="43.7780328" lon="12.6266132"><ele>193.0</ele><time>2026-05-02T12:53:08.205Z</time></trkpt><trkpt lat="43.7781621" lon="12.6264392"><ele>193.0</ele><time>2026-05-02T12:53:09.196Z</time></trkpt><trkpt lat="43.778292" lon="12.6262699"><ele>193.0</ele><time>2026-05-02T12:53:10.196Z</time></trkpt><trkpt lat="43.7784098" lon="12.6260995"><ele>190.66666666666666</ele><time>2026-05-02T12:53:11.203Z</time></trkpt><trkpt lat="43.7785229" lon="12.6259394"><ele>188.33333333333331</ele><time>2026-05-02T12:53:12.207Z</time></trkpt><trkpt lat="43.7786203" lon="12.6257702"><ele>186.0</ele><time>2026-05-02T12:53:13.186Z</time></trkpt><trkpt lat="43.7786979" lon="12.6255726"><ele>186.0</ele><time>2026-05-02T12:53:14.207Z</time></trkpt><trkpt lat="43.7787361" lon="12.6253455"><ele>186.0</ele><time>2026-05-02T12:53:15.182Z</time></trkpt><trkpt lat="43.7787539" lon="12.6250714"><ele>186.0</ele><time>2026-05-02T12:53:16.196Z</time></trkpt><trkpt lat="43.7787759" lon="12.6248217"><ele>185.66666666666666</ele><time>2026-05-02T12:53:17.176Z</time></trkpt><trkpt lat="43.7788046" lon="12.624585"><ele>185.33333333333331</ele><time>2026-05-02T12:53:18.198Z</time></trkpt><trkpt lat="43.7788304" lon="12.6243518"><ele>185.0</ele><time>2026-05-02T12:53:19.198Z</time></trkpt><trkpt lat="43.7788585" lon="12.6241672"><ele>185.0</ele><time>2026-05-02T12:53:20.198Z</time></trkpt><trkpt lat="43.7788952" lon="12.6240286"><ele>185.0</ele><time>2026-05-02T12:53:21.19Z</time></trkpt><trkpt lat="43.7789453" lon="12.6239163"><ele>185.0</ele><time>2026-05-02T12:53:22.195Z</time></trkpt><trkpt lat="43.7790217" lon="12.623844"><ele>185.0</ele><time>2026-05-02T12:53:23.204Z</time></trkpt><trkpt lat="43.7791215" lon="12.6238314"><ele>185.0</ele><time>2026-05-02T12:53:24.19Z</time></trkpt><trkpt lat="43.7792036" lon="12.6238868"><ele>185.0</ele><time>2026-05-02T12:53:25.19Z</time></trkpt><trkpt lat="43.7792605" lon="12.6239881"><ele>185.0</ele><time>2026-05-02T12:53:26.199Z</time></trkpt><trkpt lat="43.7792776" lon="12.6241564"><ele>185.0</ele><time>2026-05-02T12:53:27.196Z</time></trkpt><trkpt lat="43.7792565" lon="12.6243519"><ele>185.0</ele><time>2026-05-02T12:53:28.191Z</time></trkpt><trkpt lat="43.779222" lon="12.6245647"><ele>185.0</ele><time>2026-05-02T12:53:29.199Z</time></trkpt><trkpt lat="43.7791906" lon="12.6247708"><ele>185.0</ele><time>2026-05-02T12:53:30.188Z</time></trkpt><trkpt lat="43.7791791" lon="12.6249692"><ele>185.0</ele><time>2026-05-02T12:53:31.196Z</time></trkpt><trkpt lat="43.7791966" lon="12.6251624"><ele>185.0</ele><time>2026-05-02T12:53:32.196Z</time></trkpt><trkpt lat="43.7792465" lon="12.6253657"><ele>185.33333333333331</ele><time>2026-05-02T12:53:33.199Z</time></trkpt><trkpt lat="43.7793308" lon="12.6255654"><ele>185.66666666666666</ele><time>2026-05-02T12:53:34.171Z</time></trkpt><trkpt lat="43.7794299" lon="12.6257491"><ele>186.0</ele><time>2026-05-02T12:53:35.198Z</time></trkpt><trkpt lat="43.779524" lon="12.625922"><ele>179.66666666666666</ele><time>2026-05-02T12:53:36.168Z</time></trkpt><trkpt lat="43.7796094" lon="12.6260954"><ele>173.33333333333331</ele><time>2026-05-02T12:53:37.195Z</time></trkpt><trkpt lat="43.7796804" lon="12.6262842"><ele>167.0</ele><time>2026-05-02T12:53:38.198Z</time></trkpt><trkpt lat="43.7796975" lon="12.6264859"><ele>167.0</ele><time>2026-05-02T12:53:39.199Z</time></trkpt><trkpt lat="43.7796847" lon="12.6266944"><ele>167.0</ele><time>2026-05-02T12:53:40.189Z</time></trkpt><trkpt lat="43.7796332" lon="12.6268956"><ele>167.0</ele><time>2026-05-02T12:53:41.206Z</time></trkpt><trkpt lat="43.7795651" lon="12.6270955"><ele>165.33333333333331</ele><time>2026-05-02T12:53:42.203Z</time></trkpt><trkpt lat="43.7794903" lon="12.6272776"><ele>163.66666666666666</ele><time>2026-05-02T12:53:43.184Z</time></trkpt><trkpt lat="43.779409" lon="12.6274715"><ele>162.0</ele><time>2026-05-02T12:53:44.2Z</time></trkpt><trkpt lat="43.7793398" lon="12.627673"><ele>164.33333333333334</ele><time>2026-05-02T12:53:45.198Z</time></trkpt><trkpt lat="43.7792823" lon="12.6279022"><ele>166.66666666666669</ele><time>2026-05-02T12:53:46.192Z</time></trkpt><trkpt lat="43.7792297" lon="12.6281259"><ele>169.0</ele><time>2026-05-02T12:53:47.191Z</time></trkpt><trkpt lat="43.7791848" lon="12.6283394"><ele>169.0</ele><time>2026-05-02T12:53:48.197Z</time></trkpt><trkpt lat="43.7791352" lon="12.6285412"><ele>169.0</ele><time>2026-05-02T12:53:49.194Z</time></trkpt><trkpt lat="43.779087" lon="12.6287444"><ele>169.0</ele><time>2026-05-02T12:53:50.194Z</time></trkpt><trkpt lat="43.7790424" lon="12.6289387"><ele>166.75</ele><time>2026-05-02T12:53:51.197Z</time></trkpt><trkpt lat="43.7790011" lon="12.6291252"><ele>164.5</ele><time>2026-05-02T12:53:52.204Z</time></trkpt><trkpt lat="43.7789644" lon="12.6292948"><ele>162.25</ele><time>2026-05-02T12:53:53.192Z</time></trkpt><trkpt lat="43.7789479" lon="12.629457"><ele>160.0</ele><time>2026-05-02T12:53:54.191Z</time></trkpt><trkpt lat="43.7789783" lon="12.6296167"><ele>159.75</ele><time>2026-05-02T12:53:55.195Z</time></trkpt><trkpt lat="43.7790414" lon="12.6297412"><ele>159.5</ele><time>2026-05-02T12:53:56.199Z</time></trkpt><trkpt lat="43.7791304" lon="12.6298378"><ele>159.25</ele><time>2026-05-02T12:53:57.203Z</time></trkpt><trkpt lat="43.7792591" lon="12.6298533"><ele>159.0</ele><time>2026-05-02T12:53:58.203Z</time></trkpt><trkpt lat="43.7794043" lon="12.6298189"><ele>157.33333333333334</ele><time>2026-05-02T12:53:59.182Z</time></trkpt><trkpt lat="43.7795397" lon="12.629716"><ele>155.66666666666669</ele><time>2026-05-02T12:54:00.202Z</time></trkpt><trkpt lat="43.7796711" lon="12.629602"><ele>154.0</ele><time>2026-05-02T12:54:01.197Z</time></trkpt><trkpt lat="43.7798135" lon="12.6294691"><ele>154.0</ele><time>2026-05-02T12:54:02.214Z</time></trkpt><trkpt lat="43.7799653" lon="12.6293319"><ele>154.0</ele><time>2026-05-02T12:54:03.192Z</time></trkpt><trkpt lat="43.7801073" lon="12.6291914"><ele>154.0</ele><time>2026-05-02T12:54:04.207Z</time></trkpt><trkpt lat="43.7802526" lon="12.6290506"><ele>152.0</ele><time>2026-05-02T12:54:05.206Z</time></trkpt><trkpt lat="43.7803903" lon="12.628913"><ele>150.0</ele><time>2026-05-02T12:54:06.193Z</time></trkpt><trkpt lat="43.7805265" lon="12.6287765"><ele>148.0</ele><time>2026-05-02T12:54:07.181Z</time></trkpt><trkpt lat="43.7806603" lon="12.6286374"><ele>148.0</ele><time>2026-05-02T12:54:08.2Z</time></trkpt><trkpt lat="43.7807955" lon="12.6285015"><ele>148.0</ele><time>2026-05-02T12:54:09.202Z</time></trkpt><trkpt lat="43.7809232" lon="12.6283796"><ele>148.0</ele><time>2026-05-02T12:54:10.188Z</time></trkpt><trkpt lat="43.7810476" lon="12.6282586"><ele>146.25</ele><time>2026-05-02T12:54:11.212Z</time></trkpt><trkpt lat="43.781165" lon="12.6281374"><ele>144.5</ele><time>2026-05-02T12:54:12.185Z</time></trkpt><trkpt lat="43.7812836" lon="12.6280242"><ele>142.75</ele><time>2026-05-02T12:54:13.212Z</time></trkpt><trkpt lat="43.7814094" lon="12.6279114"><ele>141.0</ele><time>2026-05-02T12:54:14.192Z</time></trkpt><trkpt lat="43.7815415" lon="12.6277955"><ele>141.0</ele><time>2026-05-02T12:54:15.198Z</time></trkpt><trkpt lat="43.7816956" lon="12.6276727"><ele>141.0</ele><time>2026-05-02T12:54:16.202Z</time></trkpt><trkpt lat="43.7818653" lon="12.6275467"><ele>141.0</ele><time>2026-05-02T12:54:17.198Z</time></trkpt><trkpt lat="43.7820437" lon="12.6274278"><ele>137.66666666666666</ele><time>2026-05-02T12:54:18.193Z</time></trkpt><trkpt lat="43.7822265" lon="12.627307"><ele>134.33333333333331</ele><time>2026-05-02T12:54:19.195Z</time></trkpt><trkpt lat="43.7824099" lon="12.6271926"><ele>131.0</ele><time>2026-05-02T12:54:20.192Z</time></trkpt><trkpt lat="43.7825901" lon="12.627079"><ele>130.66666666666666</ele><time>2026-05-02T12:54:21.196Z</time></trkpt><trkpt lat="43.7827807" lon="12.6269573"><ele>130.33333333333334</ele><time>2026-05-02T12:54:22.187Z</time></trkpt><trkpt lat="43.7829768" lon="12.6268203"><ele>130.0</ele><time>2026-05-02T12:54:23.195Z</time></trkpt><trkpt lat="43.7831697" lon="12.6266913"><ele>130.0</ele><time>2026-05-02T12:54:24.195Z</time></trkpt><trkpt lat="43.7833694" lon="12.626575"><ele>130.0</ele><time>2026-05-02T12:54:25.192Z</time></trkpt><trkpt lat="43.7835789" lon="12.6264972"><ele>130.0</ele><time>2026-05-02T12:54:26.187Z</time></trkpt><trkpt lat="43.7837925" lon="12.6264378"><ele>129.0</ele><time>2026-05-02T12:54:27.2Z</time></trkpt><trkpt lat="43.7839969" lon="12.6263884"><ele>128.0</ele><time>2026-05-02T12:54:28.197Z</time></trkpt><trkpt lat="43.7841911" lon="12.626339"><ele>127.0</ele><time>2026-05-02T12:54:29.183Z</time></trkpt><trkpt lat="43.7843767" lon="12.6262926"><ele>127.0</ele><time>2026-05-02T12:54:30.194Z</time></trkpt><trkpt lat="43.7845541" lon="12.6262454"><ele>127.0</ele><time>2026-05-02T12:54:31.189Z</time></trkpt><trkpt lat="43.7847303" lon="12.6261929"><ele>127.0</ele><time>2026-05-02T12:54:32.197Z</time></trkpt><trkpt lat="43.7848959" lon="12.6261502"><ele>127.33333333333334</ele><time>2026-05-02T12:54:33.199Z</time></trkpt><trkpt lat="43.7850553" lon="12.6261064"><ele>127.66666666666666</ele><time>2026-05-02T12:54:34.178Z</time></trkpt><trkpt lat="43.7852086" lon="12.6260522"><ele>128.0</ele><time>2026-05-02T12:54:35.201Z</time></trkpt><trkpt lat="43.785362" lon="12.6259645"><ele>126.0</ele><time>2026-05-02T12:54:36.196Z</time></trkpt><trkpt lat="43.7855135" lon="12.6258398"><ele>124.0</ele><time>2026-05-02T12:54:37.181Z</time></trkpt><trkpt lat="43.7856629" lon="12.6256784"><ele>122.0</ele><time>2026-05-02T12:54:38.189Z</time></trkpt><trkpt lat="43.7858054" lon="12.6255054"><ele>122.0</ele><time>2026-05-02T12:54:39.197Z</time></trkpt><trkpt lat="43.7859479" lon="12.6253297"><ele>122.0</ele><time>2026-05-02T12:54:40.196Z</time></trkpt><trkpt lat="43.7860828" lon="12.6251673"><ele>122.0</ele><time>2026-05-02T12:54:41.189Z</time></trkpt><trkpt lat="43.7862164" lon="12.6250111"><ele>119.0</ele><time>2026-05-02T12:54:42.187Z</time></trkpt><trkpt lat="43.7863453" lon="12.6248573"><ele>116.0</ele><time>2026-05-02T12:54:43.2Z</time></trkpt><trkpt lat="43.7864621" lon="12.6247171"><ele>113.0</ele><time>2026-05-02T12:54:44.201Z</time></trkpt><trkpt lat="43.7865592" lon="12.6245856"><ele>114.25</ele><time>2026-05-02T12:54:45.183Z</time></trkpt><trkpt lat="43.7866312" lon="12.624445"><ele>115.5</ele><time>2026-05-02T12:54:46.185Z</time></trkpt><trkpt lat="43.7866696" lon="12.6242743"><ele>116.75</ele><time>2026-05-02T12:54:47.174Z</time></trkpt><trkpt lat="43.7866573" lon="12.6240746"><ele>118.0</ele><time>2026-05-02T12:54:48.207Z</time></trkpt><trkpt lat="43.7866364" lon="12.6238555"><ele>116.66666666666667</ele><time>2026-05-02T12:54:49.192Z</time></trkpt><trkpt lat="43.786604" lon="12.6236356"><ele>115.33333333333334</ele><time>2026-05-02T12:54:50.204Z</time></trkpt><trkpt lat="43.7865743" lon="12.623419"><ele>114.0</ele><time>2026-05-02T12:54:51.19Z</time></trkpt><trkpt lat="43.7865666" lon="12.6232161"><ele>114.0</ele><time>2026-05-02T12:54:52.195Z</time></trkpt><trkpt lat="43.7866007" lon="12.6230215"><ele>114.0</ele><time>2026-05-02T12:54:53.191Z</time></trkpt><trkpt lat="43.7866692" lon="12.622859"><ele>114.0</ele><time>2026-05-02T12:54:54.203Z</time></trkpt><trkpt lat="43.7867733" lon="12.6227395"><ele>114.0</ele><time>2026-05-02T12:54:55.18Z</time></trkpt><trkpt lat="43.7869132" lon="12.622638"><ele>111.0</ele><time>2026-05-02T12:54:56.192Z</time></trkpt><trkpt lat="43.7870683" lon="12.6225434"><ele>108.0</ele><time>2026-05-02T12:54:57.184Z</time></trkpt><trkpt lat="43.7872412" lon="12.6224479"><ele>105.0</ele><time>2026-05-02T12:54:58.189Z</time></trkpt><trkpt lat="43.7874253" lon="12.6223505"><ele>105.0</ele><time>2026-05-02T12:54:59.19Z</time></trkpt><trkpt lat="43.787611" lon="12.6222537"><ele>105.0</ele><time>2026-05-02T12:55:00.199Z</time></trkpt><trkpt lat="43.7877862" lon="12.6221684"><ele>105.0</ele><time>2026-05-02T12:55:01.189Z</time></trkpt><trkpt lat="43.7879623" lon="12.622113"><ele>105.0</ele><time>2026-05-02T12:55:02.192Z</time></trkpt><trkpt lat="43.7881484" lon="12.6220898"><ele>105.0</ele><time>2026-05-02T12:55:03.195Z</time></trkpt><trkpt lat="43.7883405" lon="12.6220868"><ele>105.0</ele><time>2026-05-02T12:55:04.2Z</time></trkpt><trkpt lat="43.788534" lon="12.6220891"><ele>106.0</ele><time>2026-05-02T12:55:05.209Z</time></trkpt><trkpt lat="43.7887393" lon="12.6221012"><ele>107.0</ele><time>2026-05-02T12:55:06.186Z</time></trkpt><trkpt lat="43.7889427" lon="12.622112"><ele>108.0</ele><time>2026-05-02T12:55:07.18Z</time></trkpt><trkpt lat="43.7891443" lon="12.6221157"><ele>107.66666666666666</ele><time>2026-05-02T12:55:08.176Z</time></trkpt><trkpt lat="43.7893516" lon="12.6221181"><ele>107.33333333333333</ele><time>2026-05-02T12:55:09.2Z</time></trkpt><trkpt lat="43.789561" lon="12.6221032"><ele>107.0</ele><time>2026-05-02T12:55:10.184Z</time></trkpt><trkpt lat="43.789761" lon="12.6220529"><ele>107.0</ele><time>2026-05-02T12:55:11.198Z</time></trkpt><trkpt lat="43.7899543" lon="12.6219855"><ele>107.0</ele><time>2026-05-02T12:55:12.2Z</time></trkpt><trkpt lat="43.790144" lon="12.6219188"><ele>107.0</ele><time>2026-05-02T12:55:13.191Z</time></trkpt><trkpt lat="43.7903206" lon="12.6218544"><ele>109.66666666666666</ele><time>2026-05-02T12:55:14.18Z</time></trkpt><trkpt lat="43.7904905" lon="12.6217925"><ele>112.33333333333334</ele><time>2026-05-02T12:55:15.194Z</time></trkpt><trkpt lat="43.7906609" lon="12.6217311"><ele>115.0</ele><time>2026-05-02T12:55:16.206Z</time></trkpt><trkpt lat="43.7908247" lon="12.6216731"><ele>115.0</ele><time>2026-05-02T12:55:17.191Z</time></trkpt><trkpt lat="43.7909857" lon="12.6216137"><ele>115.0</ele><time>2026-05-02T12:55:18.193Z</time></trkpt><trkpt lat="43.7911434" lon="12.6215611"><ele>115.0</ele><time>2026-05-02T12:55:19.182Z</time></trkpt><trkpt lat="43.7912941" lon="12.6215108"><ele>114.25</ele><time>2026-05-02T12:55:20.197Z</time></trkpt><trkpt lat="43.7914332" lon="12.6214587"><ele>113.5</ele><time>2026-05-02T12:55:21.19Z</time></trkpt><trkpt lat="43.7915702" lon="12.6213789"><ele>112.75</ele><time>2026-05-02T12:55:22.198Z</time></trkpt><trkpt lat="43.7916837" lon="12.6212632"><ele>112.0</ele><time>2026-05-02T12:55:23.198Z</time></trkpt><trkpt lat="43.791795" lon="12.6211159"><ele>111.33333333333334</ele><time>2026-05-02T12:55:24.187Z</time></trkpt><trkpt lat="43.7919175" lon="12.620937"><ele>110.66666666666666</ele><time>2026-05-02T12:55:25.19Z</time></trkpt><trkpt lat="43.7920445" lon="12.6207412"><ele>110.0</ele><time>2026-05-02T12:55:26.182Z</time></trkpt><trkpt lat="43.792175" lon="12.6205342"><ele>110.0</ele><time>2026-05-02T12:55:27.183Z</time></trkpt><trkpt lat="43.7923118" lon="12.6203237"><ele>110.0</ele><time>2026-05-02T12:55:28.185Z</time></trkpt><trkpt lat="43.7924479" lon="12.6201123"><ele>110.0</ele><time>2026-05-02T12:55:29.179Z</time></trkpt><trkpt lat="43.7925789" lon="12.6199083"><ele>110.33333333333333</ele><time>2026-05-02T12:55:30.188Z</time></trkpt><trkpt lat="43.7927027" lon="12.6197171"><ele>110.66666666666666</ele><time>2026-05-02T12:55:31.187Z</time></trkpt><trkpt lat="43.792822" lon="12.6195382"><ele>111.0</ele><time>2026-05-02T12:55:32.191Z</time></trkpt><trkpt lat="43.792926" lon="12.6193735"><ele>111.0</ele><time>2026-05-02T12:55:33.202Z</time></trkpt><trkpt lat="43.7930274" lon="12.6192255"><ele>111.0</ele><time>2026-05-02T12:55:34.176Z</time></trkpt><trkpt lat="43.7931342" lon="12.6190956"><ele>111.0</ele><time>2026-05-02T12:55:35.193Z</time></trkpt><trkpt lat="43.7932496" lon="12.6189845"><ele>111.0</ele><time>2026-05-02T12:55:36.177Z</time></trkpt><trkpt lat="43.7933832" lon="12.61891"><ele>109.0</ele><time>2026-05-02T12:55:37.195Z</time></trkpt><trkpt lat="43.7935306" lon="12.6188636"><ele>107.0</ele><time>2026-05-02T12:55:38.207Z</time></trkpt><trkpt lat="43.793688" lon="12.6188456"><ele>105.0</ele><time>2026-05-02T12:55:39.181Z</time></trkpt><trkpt lat="43.7938516" lon="12.6188397"><ele>105.0</ele><time>2026-05-02T12:55:40.196Z</time></trkpt><trkpt lat="43.7940268" lon="12.6188322"><ele>105.0</ele><time>2026-05-02T12:55:41.17Z</time></trkpt><trkpt lat="43.7942044" lon="12.6188257"><ele>105.0</ele><time>2026-05-02T12:55:42.191Z</time></trkpt><trkpt lat="43.79438" lon="12.6188128"><ele>105.33333333333334</ele><time>2026-05-02T12:55:43.201Z</time></trkpt><trkpt lat="43.7945573" lon="12.6188041"><ele>105.66666666666667</ele><time>2026-05-02T12:55:44.188Z</time></trkpt><trkpt lat="43.7947394" lon="12.6188037"><ele>106.0</ele><time>2026-05-02T12:55:45.197Z</time></trkpt><trkpt lat="43.7949222" lon="12.6187957"><ele>106.0</ele><time>2026-05-02T12:55:46.191Z</time></trkpt><trkpt lat="43.7951103" lon="12.6187868"><ele>106.0</ele><time>2026-05-02T12:55:47.194Z</time></trkpt><trkpt lat="43.795301" lon="12.6187793"><ele>106.0</ele><time>2026-05-02T12:55:48.179Z</time></trkpt><trkpt lat="43.7954867" lon="12.6187696"><ele>106.33333333333334</ele><time>2026-05-02T12:55:49.17Z</time></trkpt><trkpt lat="43.7956775" lon="12.6187665"><ele>106.66666666666666</ele><time>2026-05-02T12:55:50.194Z</time></trkpt><trkpt lat="43.7958639" lon="12.6187557"><ele>107.0</ele><time>2026-05-02T12:55:51.19Z</time></trkpt><trkpt lat="43.7960199" lon="12.6187347"><ele>107.19999999999999</ele><time>2026-05-02T12:55:52.202Z</time></trkpt><trkpt lat="43.7961471" lon="12.6187406"><ele>107.39999999999999</ele><time>2026-05-02T12:55:53.192Z</time></trkpt><trkpt lat="43.7962456" lon="12.6187328"><ele>107.60000000000001</ele><time>2026-05-02T12:55:54.191Z</time></trkpt><trkpt lat="43.7963165" lon="12.6187018"><ele>107.80000000000001</ele><time>2026-05-02T12:55:55.19Z</time></trkpt><trkpt lat="43.7963694" lon="12.6186372"><ele>108.0</ele><time>2026-05-02T12:55:57.177Z</time></trkpt><trkpt lat="43.7964762" lon="12.6186588"><ele>108.0</ele><time>2026-05-02T12:57:26.196Z</time></trkpt><trkpt lat="43.7965575" lon="12.6186815"><ele>108.00000000000001</ele><time>2026-05-02T12:57:27.184Z</time></trkpt><trkpt lat="43.7966408" lon="12.6186956"><ele>108.00000000000001</ele><time>2026-05-02T12:57:28.181Z</time></trkpt><trkpt lat="43.7967485" lon="12.6186894"><ele>108.0</ele><time>2026-05-02T12:57:29.197Z</time></trkpt><trkpt lat="43.7968588" lon="12.6186885"><ele>108.0</ele><time>2026-05-02T12:57:30.182Z</time></trkpt><trkpt lat="43.796974" lon="12.618684"><ele>108.75</ele><time>2026-05-02T12:57:31.191Z</time></trkpt><trkpt lat="43.7971075" lon="12.6186844"><ele>109.5</ele><time>2026-05-02T12:57:32.186Z</time></trkpt><trkpt lat="43.7972421" lon="12.6186801"><ele>110.25</ele><time>2026-05-02T12:57:33.172Z</time></trkpt><trkpt lat="43.797374" lon="12.6186798"><ele>111.0</ele><time>2026-05-02T12:57:34.173Z</time></trkpt><trkpt lat="43.7975015" lon="12.6186924"><ele>111.0</ele><time>2026-05-02T12:57:35.176Z</time></trkpt><trkpt lat="43.7976297" lon="12.6187247"><ele>111.0</ele><time>2026-05-02T12:57:36.184Z</time></trkpt><trkpt lat="43.7977586" lon="12.6187711"><ele>111.0</ele><time>2026-05-02T12:57:37.179Z</time></trkpt><trkpt lat="43.7978773" lon="12.6188243"><ele>111.0</ele><time>2026-05-02T12:57:38.199Z</time></trkpt><trkpt lat="43.7979897" lon="12.6188888"><ele>112.0</ele><time>2026-05-02T12:57:39.184Z</time></trkpt><trkpt lat="43.7980935" lon="12.6189454"><ele>113.0</ele><time>2026-05-02T12:57:40.168Z</time></trkpt><trkpt lat="43.7981868" lon="12.619002"><ele>114.0</ele><time>2026-05-02T12:57:41.194Z</time></trkpt><trkpt lat="43.798272" lon="12.6190663"><ele>115.0</ele><time>2026-05-02T12:57:42.205Z</time></trkpt><trkpt lat="43.7983452" lon="12.6191443"><ele>116.0</ele><time>2026-05-02T12:57:43.197Z</time></trkpt><trkpt lat="43.7983966" lon="12.6192137"><ele>116.0</ele><time>2026-05-02T12:57:44.203Z</time></trkpt><trkpt lat="43.7984879" lon="12.6192304"><ele>116.0</ele><time>2026-05-02T12:57:46.211Z</time></trkpt><trkpt lat="43.7985785" lon="12.6191352"><ele>116.0</ele><time>2026-05-02T12:57:48.171Z</time></trkpt><trkpt lat="43.7986973" lon="12.6190867"><ele>116.0</ele><time>2026-05-02T12:57:50.203Z</time></trkpt><trkpt lat="43.7987875" lon="12.6190773"><ele>116.0</ele><time>2026-05-02T12:57:51.194Z</time></trkpt><trkpt lat="43.798884" lon="12.6190543"><ele>116.33333333333333</ele><time>2026-05-02T12:57:52.187Z</time></trkpt><trkpt lat="43.7989747" lon="12.6190376"><ele>116.66666666666666</ele><time>2026-05-02T12:57:53.192Z</time></trkpt><trkpt lat="43.7990695" lon="12.6190338"><ele>117.0</ele><time>2026-05-02T12:57:54.188Z</time></trkpt><trkpt lat="43.7991586" lon="12.619023"><ele>117.33333333333334</ele><time>2026-05-02T12:57:55.203Z</time></trkpt><trkpt lat="43.7992433" lon="12.6190191"><ele>117.66666666666667</ele><time>2026-05-02T12:57:56.206Z</time></trkpt><trkpt lat="43.7993188" lon="12.6190121"><ele>118.0</ele><time>2026-05-02T12:57:57.202Z</time></trkpt><trkpt lat="43.7993859" lon="12.6190013"><ele>118.33333333333334</ele><time>2026-05-02T12:57:58.185Z</time></trkpt><trkpt lat="43.7994494" lon="12.6189937"><ele>118.66666666666667</ele><time>2026-05-02T12:57:59.185Z</time></trkpt><trkpt lat="43.7995241" lon="12.618993"><ele>119.0</ele><time>2026-05-02T12:58:00.191Z</time></trkpt><trkpt lat="43.7996034" lon="12.6189869"><ele>119.33333333333334</ele><time>2026-05-02T12:58:01.201Z</time></trkpt><trkpt lat="43.7996856" lon="12.6189919"><ele>119.66666666666667</ele><time>2026-05-02T12:58:02.187Z</time></trkpt><trkpt lat="43.7997694" lon="12.6189773"><ele>120.0</ele><time>2026-05-02T12:58:03.179Z</time></trkpt><trkpt lat="43.7998475" lon="12.6189722"><ele>120.0</ele><time>2026-05-02T12:58:04.19Z</time></trkpt><trkpt lat="43.7999364" lon="12.6189546"><ele>120.0</ele><time>2026-05-02T12:58:05.237Z</time></trkpt><trkpt lat="43.8000222" lon="12.618949"><ele>120.0</ele><time>2026-05-02T12:58:06.188Z</time></trkpt><trkpt lat="43.8001188" lon="12.6189351"><ele>120.0</ele><time>2026-05-02T12:58:07.193Z</time></trkpt><trkpt lat="43.8002152" lon="12.61892"><ele>120.0</ele><time>2026-05-02T12:58:08.2Z</time></trkpt><trkpt lat="43.8003111" lon="12.6189067"><ele>120.8</ele><time>2026-05-02T12:58:09.19Z</time></trkpt><trkpt lat="43.8003997" lon="12.6188914"><ele>121.6</ele><time>2026-05-02T12:58:10.192Z</time></trkpt><trkpt lat="43.8004904" lon="12.6188695"><ele>122.4</ele><time>2026-05-02T12:58:11.206Z</time></trkpt><trkpt lat="43.8005803" lon="12.6188453"><ele>123.2</ele><time>2026-05-02T12:58:12.201Z</time></trkpt><trkpt lat="43.8006715" lon="12.6188155"><ele>124.0</ele><time>2026-05-02T12:58:13.194Z</time></trkpt><trkpt lat="43.8007618" lon="12.6187798"><ele>124.0</ele><time>2026-05-02T12:58:14.196Z</time></trkpt><trkpt lat="43.800843" lon="12.6187336"><ele>124.0</ele><time>2026-05-02T12:58:15.189Z</time></trkpt><trkpt lat="43.8009322" lon="12.6186883"><ele>124.0</ele><time>2026-05-02T12:58:16.179Z</time></trkpt><trkpt lat="43.8010184" lon="12.6186282"><ele>124.0</ele><time>2026-05-02T12:58:17.201Z</time></trkpt><trkpt lat="43.8011054" lon="12.6185681"><ele>124.0</ele><time>2026-05-02T12:58:18.193Z</time></trkpt><trkpt lat="43.8011861" lon="12.618515"><ele>124.4</ele><time>2026-05-02T12:58:19.186Z</time></trkpt><trkpt lat="43.8012585" lon="12.6184622"><ele>124.80000000000001</ele><time>2026-05-02T12:58:20.194Z</time></trkpt><trkpt lat="43.8013356" lon="12.6183977"><ele>125.19999999999999</ele><time>2026-05-02T12:58:21.195Z</time></trkpt><trkpt lat="43.8014181" lon="12.6183347"><ele>125.6</ele><time>2026-05-02T12:58:22.197Z</time></trkpt><trkpt lat="43.801508" lon="12.618248"><ele>126.0</ele><time>2026-05-02T12:58:23.192Z</time></trkpt><trkpt lat="43.8016023" lon="12.6181429"><ele>126.0</ele><time>2026-05-02T12:58:24.191Z</time></trkpt><trkpt lat="43.8016945" lon="12.6180246"><ele>126.0</ele><time>2026-05-02T12:58:25.193Z</time></trkpt><trkpt lat="43.8017735" lon="12.6179062"><ele>126.0</ele><time>2026-05-02T12:58:26.194Z</time></trkpt><trkpt lat="43.8018571" lon="12.6177905"><ele>126.0</ele><time>2026-05-02T12:58:27.199Z</time></trkpt><trkpt lat="43.8019429" lon="12.617681"><ele>127.25</ele><time>2026-05-02T12:58:28.202Z</time></trkpt><trkpt lat="43.802028" lon="12.6175704"><ele>128.5</ele><time>2026-05-02T12:58:29.201Z</time></trkpt><trkpt lat="43.8021187" lon="12.6174632"><ele>129.75</ele><time>2026-05-02T12:58:30.199Z</time></trkpt><trkpt lat="43.8022135" lon="12.617367"><ele>131.0</ele><time>2026-05-02T12:58:31.182Z</time></trkpt><trkpt lat="43.8023045" lon="12.6172891"><ele>131.0</ele><time>2026-05-02T12:58:32.192Z</time></trkpt><trkpt lat="43.8024033" lon="12.6172202"><ele>131.0</ele><time>2026-05-02T12:58:33.195Z</time></trkpt><trkpt lat="43.8025017" lon="12.6171493"><ele>131.0</ele><time>2026-05-02T12:58:34.19Z</time></trkpt><trkpt lat="43.8026103" lon="12.6170849"><ele>131.0</ele><time>2026-05-02T12:58:35.205Z</time></trkpt><trkpt lat="43.8027313" lon="12.6170211"><ele>131.0</ele><time>2026-05-02T12:58:36.185Z</time></trkpt><trkpt lat="43.8028621" lon="12.6169482"><ele>131.0</ele><time>2026-05-02T12:58:37.189Z</time></trkpt><trkpt lat="43.8030027" lon="12.6168762"><ele>131.0</ele><time>2026-05-02T12:58:38.205Z</time></trkpt><trkpt lat="43.8031527" lon="12.6167832"><ele>131.0</ele><time>2026-05-02T12:58:39.198Z</time></trkpt><trkpt lat="43.8033076" lon="12.6166646"><ele>131.0</ele><time>2026-05-02T12:58:40.196Z</time></trkpt><trkpt lat="43.8034521" lon="12.6165357"><ele>131.0</ele><time>2026-05-02T12:58:41.185Z</time></trkpt><trkpt lat="43.8036006" lon="12.616406"><ele>130.33333333333331</ele><time>2026-05-02T12:58:42.189Z</time></trkpt><trkpt lat="43.8037474" lon="12.6162693"><ele>129.66666666666666</ele><time>2026-05-02T12:58:43.189Z</time></trkpt><trkpt lat="43.8038978" lon="12.616127"><ele>129.0</ele><time>2026-05-02T12:58:44.196Z</time></trkpt><trkpt lat="43.8040508" lon="12.6159904"><ele>129.0</ele><time>2026-05-02T12:58:45.19Z</time></trkpt><trkpt lat="43.8041957" lon="12.6158659"><ele>129.0</ele><time>2026-05-02T12:58:46.193Z</time></trkpt><trkpt lat="43.8043312" lon="12.6157383"><ele>129.0</ele><time>2026-05-02T12:58:47.192Z</time></trkpt><trkpt lat="43.8044623" lon="12.6156029"><ele>128.66666666666666</ele><time>2026-05-02T12:58:48.177Z</time></trkpt><trkpt lat="43.8045761" lon="12.6154394"><ele>128.33333333333331</ele><time>2026-05-02T12:58:49.202Z</time></trkpt><trkpt lat="43.8046653" lon="12.6152349"><ele>128.0</ele><time>2026-05-02T12:58:50.198Z</time></trkpt><trkpt lat="43.8047407" lon="12.6150032"><ele>128.33333333333331</ele><time>2026-05-02T12:58:51.204Z</time></trkpt><trkpt lat="43.8048099" lon="12.6147439"><ele>128.66666666666666</ele><time>2026-05-02T12:58:52.192Z</time></trkpt><trkpt lat="43.8048806" lon="12.6144709"><ele>129.0</ele><time>2026-05-02T12:58:53.206Z</time></trkpt><trkpt lat="43.8049541" lon="12.6142033"><ele>129.0</ele><time>2026-05-02T12:58:54.2Z</time></trkpt><trkpt lat="43.8050271" lon="12.6139461"><ele>129.0</ele><time>2026-05-02T12:58:55.19Z</time></trkpt><trkpt lat="43.8050973" lon="12.6137034"><ele>129.0</ele><time>2026-05-02T12:58:56.198Z</time></trkpt><trkpt lat="43.8051649" lon="12.6134673"><ele>131.0</ele><time>2026-05-02T12:58:57.204Z</time></trkpt><trkpt lat="43.8052304" lon="12.6132381"><ele>133.0</ele><time>2026-05-02T12:58:58.194Z</time></trkpt><trkpt lat="43.8052928" lon="12.6130209"><ele>135.0</ele><time>2026-05-02T12:58:59.164Z</time></trkpt><trkpt lat="43.8053549" lon="12.6128148"><ele>135.0</ele><time>2026-05-02T12:59:00.166Z</time></trkpt><trkpt lat="43.8054161" lon="12.6125979"><ele>135.0</ele><time>2026-05-02T12:59:01.195Z</time></trkpt><trkpt lat="43.8054755" lon="12.6123848"><ele>135.0</ele><time>2026-05-02T12:59:02.193Z</time></trkpt><trkpt lat="43.8055421" lon="12.6121861"><ele>135.0</ele><time>2026-05-02T12:59:03.186Z</time></trkpt><trkpt lat="43.8056178" lon="12.6120101"><ele>135.0</ele><time>2026-05-02T12:59:04.199Z</time></trkpt><trkpt lat="43.8057073" lon="12.611832"><ele>135.0</ele><time>2026-05-02T12:59:05.195Z</time></trkpt><trkpt lat="43.8058133" lon="12.6116662"><ele>134.33333333333334</ele><time>2026-05-02T12:59:06.181Z</time></trkpt><trkpt lat="43.8059233" lon="12.6115202"><ele>133.66666666666669</ele><time>2026-05-02T12:59:07.176Z</time></trkpt><trkpt lat="43.8060696" lon="12.6114108"><ele>133.0</ele><time>2026-05-02T12:59:08.198Z</time></trkpt><trkpt lat="43.8062322" lon="12.611331"><ele>135.66666666666669</ele><time>2026-05-02T12:59:09.191Z</time></trkpt><trkpt lat="43.8064023" lon="12.6112768"><ele>138.33333333333334</ele><time>2026-05-02T12:59:10.201Z</time></trkpt><trkpt lat="43.8065827" lon="12.6112538"><ele>141.0</ele><time>2026-05-02T12:59:11.199Z</time></trkpt><trkpt lat="43.8067689" lon="12.6112414"><ele>142.0</ele><time>2026-05-02T12:59:12.196Z</time></trkpt><trkpt lat="43.8069518" lon="12.6112206"><ele>143.0</ele><time>2026-05-02T12:59:13.198Z</time></trkpt><trkpt lat="43.8071237" lon="12.6111574"><ele>144.0</ele><time>2026-05-02T12:59:14.177Z</time></trkpt><trkpt lat="43.8072925" lon="12.611067"><ele>143.66666666666666</ele><time>2026-05-02T12:59:15.186Z</time></trkpt><trkpt lat="43.8074454" lon="12.6109198"><ele>143.33333333333331</ele><time>2026-05-02T12:59:16.181Z</time></trkpt><trkpt lat="43.807582" lon="12.6107453"><ele>143.0</ele><time>2026-05-02T12:59:17.176Z</time></trkpt><trkpt lat="43.8077024" lon="12.6105537"><ele>143.0</ele><time>2026-05-02T12:59:18.192Z</time></trkpt><trkpt lat="43.8078033" lon="12.6103619"><ele>143.0</ele><time>2026-05-02T12:59:19.179Z</time></trkpt><trkpt lat="43.8079059" lon="12.6101671"><ele>143.0</ele><time>2026-05-02T12:59:20.184Z</time></trkpt><trkpt lat="43.8079901" lon="12.6099653"><ele>140.66666666666666</ele><time>2026-05-02T12:59:21.201Z</time></trkpt><trkpt lat="43.8080754" lon="12.6097677"><ele>138.33333333333334</ele><time>2026-05-02T12:59:22.196Z</time></trkpt><trkpt lat="43.8081701" lon="12.6095831"><ele>136.0</ele><time>2026-05-02T12:59:23.177Z</time></trkpt><trkpt lat="43.8082659" lon="12.6094137"><ele>137.33333333333334</ele><time>2026-05-02T12:59:24.194Z</time></trkpt><trkpt lat="43.8083701" lon="12.6092482"><ele>138.66666666666666</ele><time>2026-05-02T12:59:25.196Z</time></trkpt><trkpt lat="43.8084797" lon="12.6090932"><ele>140.0</ele><time>2026-05-02T12:59:26.196Z</time></trkpt><trkpt lat="43.8085993" lon="12.60894"><ele>140.0</ele><time>2026-05-02T12:59:27.172Z</time></trkpt><trkpt lat="43.8087198" lon="12.6087964"><ele>140.0</ele><time>2026-05-02T12:59:28.158Z</time></trkpt><trkpt lat="43.8088498" lon="12.6086574"><ele>140.0</ele><time>2026-05-02T12:59:29.188Z</time></trkpt><trkpt lat="43.8089824" lon="12.608524"><ele>139.33333333333331</ele><time>2026-05-02T12:59:30.199Z</time></trkpt><trkpt lat="43.8091185" lon="12.6083841"><ele>138.66666666666666</ele><time>2026-05-02T12:59:31.194Z</time></trkpt><trkpt lat="43.8092606" lon="12.6082525"><ele>138.0</ele><time>2026-05-02T12:59:32.193Z</time></trkpt><trkpt lat="43.8094152" lon="12.6081357"><ele>138.0</ele><time>2026-05-02T12:59:33.195Z</time></trkpt><trkpt lat="43.8095752" lon="12.6080427"><ele>138.0</ele><time>2026-05-02T12:59:34.197Z</time></trkpt><trkpt lat="43.8097301" lon="12.6079696"><ele>138.0</ele><time>2026-05-02T12:59:35.197Z</time></trkpt><trkpt lat="43.8098811" lon="12.6078956"><ele>138.0</ele><time>2026-05-02T12:59:36.192Z</time></trkpt><trkpt lat="43.8100172" lon="12.6078008"><ele>138.0</ele><time>2026-05-02T12:59:37.19Z</time></trkpt><trkpt lat="43.8101313" lon="12.6076735"><ele>138.0</ele><time>2026-05-02T12:59:38.173Z</time></trkpt><trkpt lat="43.8102333" lon="12.6075347"><ele>138.0</ele><time>2026-05-02T12:59:39.196Z</time></trkpt><trkpt lat="43.8103296" lon="12.6074112"><ele>138.0</ele><time>2026-05-02T12:59:40.192Z</time></trkpt><trkpt lat="43.810419" lon="12.6072874"><ele>138.0</ele><time>2026-05-02T12:59:41.182Z</time></trkpt><trkpt lat="43.8105121" lon="12.6071562"><ele>138.0</ele><time>2026-05-02T12:59:42.208Z</time></trkpt><trkpt lat="43.8106123" lon="12.6070141"><ele>138.0</ele><time>2026-05-02T12:59:43.185Z</time></trkpt><trkpt lat="43.8107273" lon="12.6068548"><ele>136.33333333333334</ele><time>2026-05-02T12:59:44.205Z</time></trkpt><trkpt lat="43.8108455" lon="12.6066693"><ele>134.66666666666669</ele><time>2026-05-02T12:59:45.177Z</time></trkpt><trkpt lat="43.8109564" lon="12.6064763"><ele>133.0</ele><time>2026-05-02T12:59:46.185Z</time></trkpt><trkpt lat="43.8110692" lon="12.6062592"><ele>135.66666666666669</ele><time>2026-05-02T12:59:47.193Z</time></trkpt><trkpt lat="43.8111687" lon="12.6060157"><ele>138.33333333333334</ele><time>2026-05-02T12:59:48.196Z</time></trkpt><trkpt lat="43.811256" lon="12.6057516"><ele>141.0</ele><time>2026-05-02T12:59:49.189Z</time></trkpt><trkpt lat="43.8113482" lon="12.6054851"><ele>135.5</ele><time>2026-05-02T12:59:50.184Z</time></trkpt><trkpt lat="43.811442" lon="12.6051985"><ele>130.0</ele><time>2026-05-02T12:59:51.188Z</time></trkpt><trkpt lat="43.8115456" lon="12.6049005"><ele>130.0</ele><time>2026-05-02T12:59:52.186Z</time></trkpt><trkpt lat="43.8116536" lon="12.6045961"><ele>130.0</ele><time>2026-05-02T12:59:53.204Z</time></trkpt><trkpt lat="43.8117519" lon="12.6043058"><ele>133.66666666666669</ele><time>2026-05-02T12:59:54.191Z</time></trkpt><trkpt lat="43.8118432" lon="12.6040364"><ele>137.33333333333334</ele><time>2026-05-02T12:59:55.184Z</time></trkpt><trkpt lat="43.8119401" lon="12.6037737"><ele>141.0</ele><time>2026-05-02T12:59:56.192Z</time></trkpt><trkpt lat="43.8120289" lon="12.6035158"><ele>141.0</ele><time>2026-05-02T12:59:57.188Z</time></trkpt><trkpt lat="43.8121146" lon="12.6032731"><ele>141.0</ele><time>2026-05-02T12:59:58.183Z</time></trkpt><trkpt lat="43.8121944" lon="12.6030439"><ele>141.0</ele><time>2026-05-02T12:59:59.197Z</time></trkpt><trkpt lat="43.8122749" lon="12.6028254"><ele>140.33333333333334</ele><time>2026-05-02T13:00:00.181Z</time></trkpt><trkpt lat="43.8123503" lon="12.6026154"><ele>139.66666666666669</ele><time>2026-05-02T13:00:01.195Z</time></trkpt><trkpt lat="43.8124165" lon="12.6024187"><ele>139.0</ele><time>2026-05-02T13:00:02.193Z</time></trkpt><trkpt lat="43.81246" lon="12.602216"><ele>139.0</ele><time>2026-05-02T13:00:03.184Z</time></trkpt><trkpt lat="43.8124754" lon="12.6020167"><ele>139.0</ele><time>2026-05-02T13:00:04.199Z</time></trkpt><trkpt lat="43.8124825" lon="12.6018471"><ele>139.0</ele><time>2026-05-02T13:00:05.188Z</time></trkpt><trkpt lat="43.8124833" lon="12.6016993"><ele>139.0</ele><time>2026-05-02T13:00:06.204Z</time></trkpt><trkpt lat="43.8124794" lon="12.6015743"><ele>139.0</ele><time>2026-05-02T13:00:07.179Z</time></trkpt><trkpt lat="43.8124744" lon="12.6014445"><ele>139.0</ele><time>2026-05-02T13:00:08.184Z</time></trkpt><trkpt lat="43.8124691" lon="12.6012904"><ele>139.0</ele><time>2026-05-02T13:00:09.187Z</time></trkpt><trkpt lat="43.8124676" lon="12.6011158"><ele>139.0</ele><time>2026-05-02T13:00:10.18Z</time></trkpt><trkpt lat="43.8124574" lon="12.6009305"><ele>139.0</ele><time>2026-05-02T13:00:11.191Z</time></trkpt><trkpt lat="43.8124518" lon="12.6007206"><ele>139.0</ele><time>2026-05-02T13:00:12.212Z</time></trkpt><trkpt lat="43.8124456" lon="12.6004978"><ele>139.0</ele><time>2026-05-02T13:00:13.196Z</time></trkpt><trkpt lat="43.8124354" lon="12.6002736"><ele>140.0</ele><time>2026-05-02T13:00:14.193Z</time></trkpt><trkpt lat="43.8124358" lon="12.6000535"><ele>141.0</ele><time>2026-05-02T13:00:15.198Z</time></trkpt><trkpt lat="43.8124497" lon="12.5998453"><ele>142.0</ele><time>2026-05-02T13:00:16.196Z</time></trkpt><trkpt lat="43.8124813" lon="12.5996461"><ele>142.66666666666669</ele><time>2026-05-02T13:00:17.202Z</time></trkpt><trkpt lat="43.812532" lon="12.5994624"><ele>143.33333333333334</ele><time>2026-05-02T13:00:18.2Z</time></trkpt><trkpt lat="43.8126041" lon="12.5992766"><ele>144.0</ele><time>2026-05-02T13:00:19.19Z</time></trkpt><trkpt lat="43.8126917" lon="12.5990982"><ele>144.0</ele><time>2026-05-02T13:00:20.182Z</time></trkpt><trkpt lat="43.8127844" lon="12.5989142"><ele>144.0</ele><time>2026-05-02T13:00:21.197Z</time></trkpt><trkpt lat="43.812885" lon="12.5987184"><ele>144.0</ele><time>2026-05-02T13:00:22.192Z</time></trkpt><trkpt lat="43.8129964" lon="12.5985129"><ele>143.66666666666666</ele><time>2026-05-02T13:00:23.198Z</time></trkpt><trkpt lat="43.8131143" lon="12.5982964"><ele>143.33333333333331</ele><time>2026-05-02T13:00:24.197Z</time></trkpt><trkpt lat="43.8132329" lon="12.5980646"><ele>143.0</ele><time>2026-05-02T13:00:25.197Z</time></trkpt><trkpt lat="43.8133445" lon="12.5978354"><ele>143.0</ele><time>2026-05-02T13:00:26.199Z</time></trkpt><trkpt lat="43.8134596" lon="12.5976091"><ele>143.0</ele><time>2026-05-02T13:00:27.206Z</time></trkpt><trkpt lat="43.813571" lon="12.5973805"><ele>143.0</ele><time>2026-05-02T13:00:28.195Z</time></trkpt><trkpt lat="43.8136857" lon="12.5971584"><ele>143.66666666666666</ele><time>2026-05-02T13:00:29.194Z</time></trkpt><trkpt lat="43.8137962" lon="12.5969457"><ele>144.33333333333334</ele><time>2026-05-02T13:00:30.193Z</time></trkpt><trkpt lat="43.8139032" lon="12.5967496"><ele>145.0</ele><time>2026-05-02T13:00:31.198Z</time></trkpt><trkpt lat="43.8140064" lon="12.5965479"><ele>145.0</ele><time>2026-05-02T13:00:32.206Z</time></trkpt><trkpt lat="43.8141106" lon="12.5963482"><ele>145.0</ele><time>2026-05-02T13:00:33.21Z</time></trkpt><trkpt lat="43.8142113" lon="12.5961347"><ele>145.0</ele><time>2026-05-02T13:00:34.201Z</time></trkpt><trkpt lat="43.8143151" lon="12.595929"><ele>145.0</ele><time>2026-05-02T13:00:35.192Z</time></trkpt><trkpt lat="43.8144181" lon="12.595727"><ele>145.0</ele><time>2026-05-02T13:00:36.189Z</time></trkpt><trkpt lat="43.8145163" lon="12.5955291"><ele>145.0</ele><time>2026-05-02T13:00:37.189Z</time></trkpt><trkpt lat="43.8146054" lon="12.5953275"><ele>143.33333333333334</ele><time>2026-05-02T13:00:38.215Z</time></trkpt><trkpt lat="43.8146927" lon="12.5951244"><ele>141.66666666666666</ele><time>2026-05-02T13:00:39.199Z</time></trkpt><trkpt lat="43.8147792" lon="12.5949141"><ele>140.0</ele><time>2026-05-02T13:00:40.189Z</time></trkpt><trkpt lat="43.8148659" lon="12.5946985"><ele>139.66666666666666</ele><time>2026-05-02T13:00:41.212Z</time></trkpt><trkpt lat="43.8149533" lon="12.5944776"><ele>139.33333333333334</ele><time>2026-05-02T13:00:42.197Z</time></trkpt><trkpt lat="43.8150388" lon="12.594265"><ele>139.0</ele><time>2026-05-02T13:00:43.168Z</time></trkpt><trkpt lat="43.8151272" lon="12.5940622"><ele>140.0</ele><time>2026-05-02T13:00:44.169Z</time></trkpt><trkpt lat="43.8152196" lon="12.5938762"><ele>141.0</ele><time>2026-05-02T13:00:45.188Z</time></trkpt><trkpt lat="43.815328" lon="12.5937037"><ele>142.0</ele><time>2026-05-02T13:00:46.192Z</time></trkpt><trkpt lat="43.8154318" lon="12.5935464"><ele>142.0</ele><time>2026-05-02T13:00:47.197Z</time></trkpt><trkpt lat="43.815529" lon="12.5934039"><ele>142.0</ele><time>2026-05-02T13:00:48.187Z</time></trkpt><trkpt lat="43.8156116" lon="12.5932593"><ele>142.0</ele><time>2026-05-02T13:00:49.205Z</time></trkpt><trkpt lat="43.8156682" lon="12.5930923"><ele>142.0</ele><time>2026-05-02T13:00:50.185Z</time></trkpt><trkpt lat="43.8156932" lon="12.5929061"><ele>141.25</ele><time>2026-05-02T13:00:51.199Z</time></trkpt><trkpt lat="43.8156776" lon="12.592722"><ele>140.5</ele><time>2026-05-02T13:00:52.2Z</time></trkpt><trkpt lat="43.8156185" lon="12.5925615"><ele>139.75</ele><time>2026-05-02T13:00:53.19Z</time></trkpt><trkpt lat="43.8155555" lon="12.5923867"><ele>139.0</ele><time>2026-05-02T13:00:54.196Z</time></trkpt><trkpt lat="43.815489" lon="12.5922379"><ele>139.0</ele><time>2026-05-02T13:00:55.202Z</time></trkpt><trkpt lat="43.8154476" lon="12.5921011"><ele>139.0</ele><time>2026-05-02T13:00:56.205Z</time></trkpt><trkpt lat="43.8154124" lon="12.5919608"><ele>139.0</ele><time>2026-05-02T13:00:57.21Z</time></trkpt><trkpt lat="43.8154067" lon="12.5918105"><ele>139.0</ele><time>2026-05-02T13:00:58.193Z</time></trkpt><trkpt lat="43.8154291" lon="12.5916657"><ele>139.0</ele><time>2026-05-02T13:00:59.207Z</time></trkpt><trkpt lat="43.8154792" lon="12.5915333"><ele>140.25</ele><time>2026-05-02T13:01:00.202Z</time></trkpt><trkpt lat="43.8155747" lon="12.5914214"><ele>141.5</ele><time>2026-05-02T13:01:01.19Z</time></trkpt><trkpt lat="43.8156781" lon="12.5913147"><ele>142.75</ele><time>2026-05-02T13:01:02.181Z</time></trkpt><trkpt lat="43.8157805" lon="12.5912135"><ele>144.0</ele><time>2026-05-02T13:01:03.186Z</time></trkpt><trkpt lat="43.8158773" lon="12.5911019"><ele>144.25</ele><time>2026-05-02T13:01:04.193Z</time></trkpt><trkpt lat="43.8159778" lon="12.590977"><ele>144.5</ele><time>2026-05-02T13:01:05.185Z</time></trkpt><trkpt lat="43.8160775" lon="12.5908463"><ele>144.75</ele><time>2026-05-02T13:01:06.171Z</time></trkpt><trkpt lat="43.8161693" lon="12.5907134"><ele>145.0</ele><time>2026-05-02T13:01:07.2Z</time></trkpt><trkpt lat="43.8162419" lon="12.5905683"><ele>145.0</ele><time>2026-05-02T13:01:08.191Z</time></trkpt><trkpt lat="43.8162969" lon="12.5904119"><ele>145.0</ele><time>2026-05-02T13:01:09.204Z</time></trkpt><trkpt lat="43.8163271" lon="12.5902542"><ele>145.0</ele><time>2026-05-02T13:01:10.179Z</time></trkpt><trkpt lat="43.8163496" lon="12.5901067"><ele>145.0</ele><time>2026-05-02T13:01:11.184Z</time></trkpt><trkpt lat="43.8163552" lon="12.5899574"><ele>146.8</ele><time>2026-05-02T13:01:12.189Z</time></trkpt><trkpt lat="43.8163451" lon="12.5898217"><ele>148.6</ele><time>2026-05-02T13:01:13.19Z</time></trkpt><trkpt lat="43.8163305" lon="12.5896847"><ele>150.4</ele><time>2026-05-02T13:01:14.182Z</time></trkpt><trkpt lat="43.8163101" lon="12.589561"><ele>152.2</ele><time>2026-05-02T13:01:15.188Z</time></trkpt><trkpt lat="43.8162834" lon="12.5894404"><ele>154.0</ele><time>2026-05-02T13:01:16.192Z</time></trkpt><trkpt lat="43.8162475" lon="12.589334"><ele>154.83333333333334</ele><time>2026-05-02T13:01:17.189Z</time></trkpt><trkpt lat="43.8162053" lon="12.5892343"><ele>155.66666666666669</ele><time>2026-05-02T13:01:18.192Z</time></trkpt><trkpt lat="43.8161604" lon="12.5891405"><ele>156.5</ele><time>2026-05-02T13:01:19.2Z</time></trkpt><trkpt lat="43.8161234" lon="12.58905"><ele>157.33333333333334</ele><time>2026-05-02T13:01:20.192Z</time></trkpt><trkpt lat="43.8160896" lon="12.5889607"><ele>158.16666666666666</ele><time>2026-05-02T13:01:21.199Z</time></trkpt><trkpt lat="43.8160514" lon="12.5888714"><ele>159.0</ele><time>2026-05-02T13:01:22.184Z</time></trkpt><trkpt lat="43.8160035" lon="12.588773"><ele>158.16666666666666</ele><time>2026-05-02T13:01:23.215Z</time></trkpt><trkpt lat="43.815966" lon="12.5886741"><ele>157.33333333333334</ele><time>2026-05-02T13:01:24.192Z</time></trkpt><trkpt lat="43.8159398" lon="12.5885707"><ele>156.5</ele><time>2026-05-02T13:01:25.19Z</time></trkpt><trkpt lat="43.8159193" lon="12.588466"><ele>155.66666666666669</ele><time>2026-05-02T13:01:26.191Z</time></trkpt><trkpt lat="43.8159068" lon="12.5883494"><ele>154.83333333333334</ele><time>2026-05-02T13:01:27.205Z</time></trkpt><trkpt lat="43.8159031" lon="12.5882374"><ele>154.0</ele><time>2026-05-02T13:01:28.191Z</time></trkpt><trkpt lat="43.8159112" lon="12.5881212"><ele>154.0</ele><time>2026-05-02T13:01:29.183Z</time></trkpt><trkpt lat="43.8159199" lon="12.5880012"><ele>154.0</ele><time>2026-05-02T13:01:30.189Z</time></trkpt><trkpt lat="43.8159431" lon="12.5878814"><ele>154.0</ele><time>2026-05-02T13:01:31.189Z</time></trkpt><trkpt lat="43.8159878" lon="12.5877459"><ele>154.0</ele><time>2026-05-02T13:01:32.196Z</time></trkpt><trkpt lat="43.8160316" lon="12.5876101"><ele>154.0</ele><time>2026-05-02T13:01:33.179Z</time></trkpt><trkpt lat="43.8160599" lon="12.5874663"><ele>156.2</ele><time>2026-05-02T13:01:34.191Z</time></trkpt><trkpt lat="43.8160809" lon="12.5873182"><ele>158.4</ele><time>2026-05-02T13:01:35.19Z</time></trkpt><trkpt lat="43.8160931" lon="12.5871715"><ele>160.6</ele><time>2026-05-02T13:01:36.196Z</time></trkpt><trkpt lat="43.8160963" lon="12.5870318"><ele>162.8</ele><time>2026-05-02T13:01:37.205Z</time></trkpt><trkpt lat="43.8160974" lon="12.5868841"><ele>165.0</ele><time>2026-05-02T13:01:38.186Z</time></trkpt><trkpt lat="43.8160931" lon="12.5867362"><ele>165.6</ele><time>2026-05-02T13:01:39.199Z</time></trkpt><trkpt lat="43.816092" lon="12.5865749"><ele>166.2</ele><time>2026-05-02T13:01:40.179Z</time></trkpt><trkpt lat="43.8160857" lon="12.5864207"><ele>166.8</ele><time>2026-05-02T13:01:41.19Z</time></trkpt><trkpt lat="43.8160768" lon="12.586265"><ele>167.4</ele><time>2026-05-02T13:01:42.188Z</time></trkpt><trkpt lat="43.8160823" lon="12.5861195"><ele>168.0</ele><time>2026-05-02T13:01:43.189Z</time></trkpt><trkpt lat="43.8160798" lon="12.5859614"><ele>169.2</ele><time>2026-05-02T13:01:44.177Z</time></trkpt><trkpt lat="43.8160778" lon="12.585812"><ele>170.4</ele><time>2026-05-02T13:01:45.191Z</time></trkpt><trkpt lat="43.816076" lon="12.5856708"><ele>171.6</ele><time>2026-05-02T13:01:46.184Z</time></trkpt><trkpt lat="43.8160649" lon="12.5855387"><ele>172.79999999999998</ele><time>2026-05-02T13:01:47.184Z</time></trkpt><trkpt lat="43.8160533" lon="12.5854114"><ele>174.0</ele><time>2026-05-02T13:01:48.195Z</time></trkpt><trkpt lat="43.8160467" lon="12.5852936"><ele>175.0</ele><time>2026-05-02T13:01:49.189Z</time></trkpt><trkpt lat="43.8160337" lon="12.5851868"><ele>176.0</ele><time>2026-05-02T13:01:50.196Z</time></trkpt><trkpt lat="43.8160172" lon="12.5850819"><ele>177.0</ele><time>2026-05-02T13:01:51.194Z</time></trkpt><trkpt lat="43.8160156" lon="12.5849629"><ele>178.0</ele><time>2026-05-02T13:01:52.188Z</time></trkpt><trkpt lat="43.8160148" lon="12.584841"><ele>179.0</ele><time>2026-05-02T13:01:53.202Z</time></trkpt><trkpt lat="43.8160012" lon="12.5847008"><ele>180.0</ele><time>2026-05-02T13:01:54.175Z</time></trkpt><trkpt lat="43.815968" lon="12.5845444"><ele>175.75</ele><time>2026-05-02T13:01:55.181Z</time></trkpt><trkpt lat="43.8159116" lon="12.5843702"><ele>171.5</ele><time>2026-05-02T13:01:56.193Z</time></trkpt><trkpt lat="43.81585" lon="12.5841955"><ele>167.25</ele><time>2026-05-02T13:01:57.183Z</time></trkpt><trkpt lat="43.815799" lon="12.5840204"><ele>163.0</ele><time>2026-05-02T13:01:58.194Z</time></trkpt><trkpt lat="43.8157657" lon="12.5838169"><ele>164.33333333333334</ele><time>2026-05-02T13:01:59.203Z</time></trkpt><trkpt lat="43.8157646" lon="12.5836035"><ele>165.66666666666666</ele><time>2026-05-02T13:02:00.183Z</time></trkpt><trkpt lat="43.8157722" lon="12.5833775"><ele>167.0</ele><time>2026-05-02T13:02:01.199Z</time></trkpt><trkpt lat="43.8157792" lon="12.5831503"><ele>167.0</ele><time>2026-05-02T13:02:02.197Z</time></trkpt><trkpt lat="43.8157759" lon="12.5829297"><ele>167.0</ele><time>2026-05-02T13:02:03.209Z</time></trkpt><trkpt lat="43.8157648" lon="12.5827348"><ele>167.0</ele><time>2026-05-02T13:02:04.199Z</time></trkpt><trkpt lat="43.8157552" lon="12.5825536"><ele>167.0</ele><time>2026-05-02T13:02:05.183Z</time></trkpt><trkpt lat="43.8157598" lon="12.5823965"><ele>167.8</ele><time>2026-05-02T13:02:06.177Z</time></trkpt><trkpt lat="43.8157753" lon="12.5822654"><ele>168.6</ele><time>2026-05-02T13:02:07.199Z</time></trkpt><trkpt lat="43.8158308" lon="12.5821608"><ele>169.4</ele><time>2026-05-02T13:02:08.184Z</time></trkpt><trkpt lat="43.8159291" lon="12.582109"><ele>170.20000000000002</ele><time>2026-05-02T13:02:09.196Z</time></trkpt><trkpt lat="43.8160408" lon="12.5821438"><ele>171.0</ele><time>2026-05-02T13:02:10.189Z</time></trkpt><trkpt lat="43.8161361" lon="12.5822457"><ele>175.25</ele><time>2026-05-02T13:02:11.204Z</time></trkpt><trkpt lat="43.8161919" lon="12.5823919"><ele>179.5</ele><time>2026-05-02T13:02:12.184Z</time></trkpt><trkpt lat="43.8162417" lon="12.5825637"><ele>183.75</ele><time>2026-05-02T13:02:13.202Z</time></trkpt><trkpt lat="43.816298" lon="12.5827446"><ele>188.0</ele><time>2026-05-02T13:02:14.182Z</time></trkpt><trkpt lat="43.8163518" lon="12.5829455"><ele>188.0</ele><time>2026-05-02T13:02:15.195Z</time></trkpt><trkpt lat="43.8164134" lon="12.5831459"><ele>188.0</ele><time>2026-05-02T13:02:16.188Z</time></trkpt><trkpt lat="43.8164791" lon="12.5833598"><ele>188.0</ele><time>2026-05-02T13:02:17.208Z</time></trkpt><trkpt lat="43.8165515" lon="12.5835987"><ele>187.0</ele><time>2026-05-02T13:02:18.208Z</time></trkpt><trkpt lat="43.8166276" lon="12.583862"><ele>186.0</ele><time>2026-05-02T13:02:19.186Z</time></trkpt><trkpt lat="43.8167005" lon="12.5841299"><ele>185.0</ele><time>2026-05-02T13:02:20.153Z</time></trkpt><trkpt lat="43.8167703" lon="12.5843871"><ele>189.33333333333331</ele><time>2026-05-02T13:02:21.166Z</time></trkpt><trkpt lat="43.8168226" lon="12.5846079"><ele>193.66666666666666</ele><time>2026-05-02T13:02:22.196Z</time></trkpt><trkpt lat="43.8168885" lon="12.5847921"><ele>198.0</ele><time>2026-05-02T13:02:23.199Z</time></trkpt><trkpt lat="43.8169793" lon="12.5849504"><ele>198.0</ele><time>2026-05-02T13:02:24.174Z</time></trkpt><trkpt lat="43.8171027" lon="12.5850765"><ele>198.0</ele><time>2026-05-02T13:02:25.159Z</time></trkpt><trkpt lat="43.8172529" lon="12.5851902"><ele>198.0</ele><time>2026-05-02T13:02:26.159Z</time></trkpt><trkpt lat="43.8174086" lon="12.5853239"><ele>197.33333333333331</ele><time>2026-05-02T13:02:27.189Z</time></trkpt><trkpt lat="43.8175737" lon="12.5854706"><ele>196.66666666666666</ele><time>2026-05-02T13:02:28.177Z</time></trkpt><trkpt lat="43.8177258" lon="12.5856036"><ele>196.0</ele><time>2026-05-02T13:02:29.18Z</time></trkpt><trkpt lat="43.8178648" lon="12.5857286"><ele>196.0</ele><time>2026-05-02T13:02:30.167Z</time></trkpt><trkpt lat="43.8179885" lon="12.5858408"><ele>196.0</ele><time>2026-05-02T13:02:31.155Z</time></trkpt><trkpt lat="43.8181022" lon="12.585944"><ele>196.0</ele><time>2026-05-02T13:02:32.191Z</time></trkpt><trkpt lat="43.8182074" lon="12.5860222"><ele>196.0</ele><time>2026-05-02T13:02:33.177Z</time></trkpt><trkpt lat="43.8183206" lon="12.5860403"><ele>196.0</ele><time>2026-05-02T13:02:34.181Z</time></trkpt><trkpt lat="43.8184211" lon="12.5860034"><ele>196.0</ele><time>2026-05-02T13:02:35.178Z</time></trkpt><trkpt lat="43.8185104" lon="12.5859061"><ele>196.0</ele><time>2026-05-02T13:02:36.187Z</time></trkpt><trkpt lat="43.8185707" lon="12.58576"><ele>196.0</ele><time>2026-05-02T13:02:37.197Z</time></trkpt><trkpt lat="43.818613" lon="12.5855673"><ele>196.66666666666666</ele><time>2026-05-02T13:02:38.189Z</time></trkpt><trkpt lat="43.8186319" lon="12.5853391"><ele>197.33333333333331</ele><time>2026-05-02T13:02:39.18Z</time></trkpt><trkpt lat="43.8186503" lon="12.5851036"><ele>198.0</ele><time>2026-05-02T13:02:40.191Z</time></trkpt><trkpt lat="43.8186806" lon="12.5848509"><ele>198.0</ele><time>2026-05-02T13:02:41.197Z</time></trkpt><trkpt lat="43.8187175" lon="12.5845886"><ele>198.0</ele><time>2026-05-02T13:02:42.201Z</time></trkpt><trkpt lat="43.8187464" lon="12.5843472"><ele>198.0</ele><time>2026-05-02T13:02:43.177Z</time></trkpt><trkpt lat="43.8187799" lon="12.5841382"><ele>200.0</ele><time>2026-05-02T13:02:44.178Z</time></trkpt><trkpt lat="43.8188324" lon="12.5839537"><ele>202.0</ele><time>2026-05-02T13:02:45.194Z</time></trkpt><trkpt lat="43.8189219" lon="12.5837925"><ele>204.0</ele><time>2026-05-02T13:02:46.199Z</time></trkpt><trkpt lat="43.819046" lon="12.5836473"><ele>207.0</ele><time>2026-05-02T13:02:47.193Z</time></trkpt><trkpt lat="43.8191828" lon="12.5835429"><ele>210.0</ele><time>2026-05-02T13:02:48.187Z</time></trkpt><trkpt lat="43.8193301" lon="12.583443"><ele>213.0</ele><time>2026-05-02T13:02:49.196Z</time></trkpt><trkpt lat="43.8194659" lon="12.5833642"><ele>214.0</ele><time>2026-05-02T13:02:50.186Z</time></trkpt><trkpt lat="43.8196056" lon="12.5833294"><ele>215.0</ele><time>2026-05-02T13:02:51.192Z</time></trkpt><trkpt lat="43.8197596" lon="12.5833123"><ele>216.0</ele><time>2026-05-02T13:02:52.197Z</time></trkpt><trkpt lat="43.8199361" lon="12.583354"><ele>216.0</ele><time>2026-05-02T13:02:53.174Z</time></trkpt><trkpt lat="43.8201156" lon="12.5834225"><ele>216.0</ele><time>2026-05-02T13:02:54.194Z</time></trkpt><trkpt lat="43.8202798" lon="12.5834833"><ele>216.0</ele><time>2026-05-02T13:02:55.2Z</time></trkpt><trkpt lat="43.8204302" lon="12.5835511"><ele>217.5</ele><time>2026-05-02T13:02:56.198Z</time></trkpt><trkpt lat="43.8205457" lon="12.5836352"><ele>219.0</ele><time>2026-05-02T13:02:57.187Z</time></trkpt><trkpt lat="43.8206198" lon="12.5837602"><ele>220.5</ele><time>2026-05-02T13:02:58.181Z</time></trkpt><trkpt lat="43.8206687" lon="12.5839366"><ele>222.0</ele><time>2026-05-02T13:02:59.187Z</time></trkpt><trkpt lat="43.8206948" lon="12.5841383"><ele>222.0</ele><time>2026-05-02T13:03:00.198Z</time></trkpt><trkpt lat="43.8207019" lon="12.5843434"><ele>222.0</ele><time>2026-05-02T13:03:01.19Z</time></trkpt><trkpt lat="43.820728" lon="12.584544"><ele>222.0</ele><time>2026-05-02T13:03:02.191Z</time></trkpt><trkpt lat="43.8207526" lon="12.5846917"><ele>222.0</ele><time>2026-05-02T13:03:03.188Z</time></trkpt><trkpt lat="43.8207859" lon="12.5847854"><ele>221.66666666666666</ele><time>2026-05-02T13:03:04.2Z</time></trkpt><trkpt lat="43.8208443" lon="12.5848232"><ele>221.33333333333331</ele><time>2026-05-02T13:03:05.21Z</time></trkpt><trkpt lat="43.8209365" lon="12.5848341"><ele>221.0</ele><time>2026-05-02T13:03:06.168Z</time></trkpt><trkpt lat="43.8210112" lon="12.5848148"><ele>220.66666666666666</ele><time>2026-05-02T13:03:07.2Z</time></trkpt><trkpt lat="43.8210773" lon="12.5847317"><ele>220.33333333333331</ele><time>2026-05-02T13:03:08.188Z</time></trkpt><trkpt lat="43.8210947" lon="12.5845872"><ele>220.0</ele><time>2026-05-02T13:03:09.181Z</time></trkpt><trkpt lat="43.8210897" lon="12.58441"><ele>227.0</ele><time>2026-05-02T13:03:10.184Z</time></trkpt><trkpt lat="43.8210667" lon="12.5842088"><ele>234.0</ele><time>2026-05-02T13:03:11.192Z</time></trkpt><trkpt lat="43.8210407" lon="12.5839922"><ele>241.0</ele><time>2026-05-02T13:03:12.193Z</time></trkpt><trkpt lat="43.8210186" lon="12.583762"><ele>242.0</ele><time>2026-05-02T13:03:13.197Z</time></trkpt><trkpt lat="43.8209877" lon="12.5835252"><ele>243.0</ele><time>2026-05-02T13:03:14.188Z</time></trkpt><trkpt lat="43.8209498" lon="12.5832774"><ele>244.0</ele><time>2026-05-02T13:03:15.183Z</time></trkpt><trkpt lat="43.8208818" lon="12.5830268"><ele>243.0</ele><time>2026-05-02T13:03:16.184Z</time></trkpt><trkpt lat="43.8207877" lon="12.5827721"><ele>242.0</ele><time>2026-05-02T13:03:17.19Z</time></trkpt><trkpt lat="43.8206797" lon="12.5824914"><ele>241.0</ele><time>2026-05-02T13:03:18.185Z</time></trkpt><trkpt lat="43.8205746" lon="12.5821928"><ele>247.0</ele><time>2026-05-02T13:03:19.179Z</time></trkpt><trkpt lat="43.8204582" lon="12.5818863"><ele>253.0</ele><time>2026-05-02T13:03:20.193Z</time></trkpt><trkpt lat="43.820358" lon="12.5815962"><ele>253.0</ele><time>2026-05-02T13:03:21.163Z</time></trkpt><trkpt lat="43.8202653" lon="12.5813362"><ele>253.0</ele><time>2026-05-02T13:03:22.192Z</time></trkpt><trkpt lat="43.8201775" lon="12.581097"><ele>253.0</ele><time>2026-05-02T13:03:23.188Z</time></trkpt><trkpt lat="43.8200793" lon="12.5808761"><ele>251.66666666666666</ele><time>2026-05-02T13:03:24.193Z</time></trkpt><trkpt lat="43.8199745" lon="12.5806811"><ele>250.33333333333331</ele><time>2026-05-02T13:03:25.186Z</time></trkpt><trkpt lat="43.8198479" lon="12.5805063"><ele>249.0</ele><time>2026-05-02T13:03:26.189Z</time></trkpt><trkpt lat="43.8197228" lon="12.5803438"><ele>251.75</ele><time>2026-05-02T13:03:27.188Z</time></trkpt><trkpt lat="43.819601" lon="12.5802185"><ele>254.5</ele><time>2026-05-02T13:03:28.187Z</time></trkpt><trkpt lat="43.8194701" lon="12.5801408"><ele>257.25</ele><time>2026-05-02T13:03:29.191Z</time></trkpt><trkpt lat="43.819332" lon="12.5801152"><ele>260.0</ele><time>2026-05-02T13:03:30.189Z</time></trkpt><trkpt lat="43.819188" lon="12.5801373"><ele>260.0</ele><time>2026-05-02T13:03:31.178Z</time></trkpt><trkpt lat="43.8190496" lon="12.5801833"><ele>260.0</ele><time>2026-05-02T13:03:32.183Z</time></trkpt><trkpt lat="43.8189126" lon="12.580225"><ele>260.0</ele><time>2026-05-02T13:03:33.165Z</time></trkpt><trkpt lat="43.8187865" lon="12.5802208"><ele>260.0</ele><time>2026-05-02T13:03:34.182Z</time></trkpt><trkpt lat="43.8186565" lon="12.580159"><ele>260.0</ele><time>2026-05-02T13:03:35.178Z</time></trkpt><trkpt lat="43.8185437" lon="12.5800405"><ele>260.0</ele><time>2026-05-02T13:03:36.205Z</time></trkpt><trkpt lat="43.8184496" lon="12.579916"><ele>260.0</ele><time>2026-05-02T13:03:37.19Z</time></trkpt><trkpt lat="43.8183915" lon="12.5797688"><ele>260.0</ele><time>2026-05-02T13:03:38.191Z</time></trkpt><trkpt lat="43.8183504" lon="12.579609"><ele>260.6666666666667</ele><time>2026-05-02T13:03:39.187Z</time></trkpt><trkpt lat="43.8183376" lon="12.5794297"><ele>261.3333333333333</ele><time>2026-05-02T13:03:40.181Z</time></trkpt><trkpt lat="43.8183546" lon="12.57921"><ele>262.0</ele><time>2026-05-02T13:03:41.19Z</time></trkpt><trkpt lat="43.81837" lon="12.5789692"><ele>262.0</ele><time>2026-05-02T13:03:42.196Z</time></trkpt><trkpt lat="43.818398" lon="12.5787023"><ele>262.0</ele><time>2026-05-02T13:03:43.191Z</time></trkpt><trkpt lat="43.8184252" lon="12.5784416"><ele>262.0</ele><time>2026-05-02T13:03:44.193Z</time></trkpt><trkpt lat="43.8184527" lon="12.5782012"><ele>263.0</ele><time>2026-05-02T13:03:45.193Z</time></trkpt><trkpt lat="43.8184692" lon="12.5779903"><ele>264.0</ele><time>2026-05-02T13:03:46.201Z</time></trkpt><trkpt lat="43.818515" lon="12.577779"><ele>265.0</ele><time>2026-05-02T13:03:47.194Z</time></trkpt><trkpt lat="43.8185839" lon="12.5775738"><ele>271.66666666666663</ele><time>2026-05-02T13:03:48.19Z</time></trkpt><trkpt lat="43.8186723" lon="12.5773667"><ele>278.3333333333333</ele><time>2026-05-02T13:03:49.189Z</time></trkpt><trkpt lat="43.8187861" lon="12.5771472"><ele>285.0</ele><time>2026-05-02T13:03:50.19Z</time></trkpt><trkpt lat="43.818902" lon="12.5769254"><ele>285.0</ele><time>2026-05-02T13:03:51.196Z</time></trkpt><trkpt lat="43.8190094" lon="12.5766986"><ele>285.0</ele><time>2026-05-02T13:03:52.192Z</time></trkpt><trkpt lat="43.8191159" lon="12.5764793"><ele>285.0</ele><time>2026-05-02T13:03:53.206Z</time></trkpt><trkpt lat="43.8192158" lon="12.5762826"><ele>284.25</ele><time>2026-05-02T13:03:54.184Z</time></trkpt><trkpt lat="43.8192896" lon="12.5760914"><ele>283.5</ele><time>2026-05-02T13:03:55.198Z</time></trkpt><trkpt lat="43.8193441" lon="12.5759033"><ele>282.75</ele><time>2026-05-02T13:03:56.194Z</time></trkpt><trkpt lat="43.8193628" lon="12.5757237"><ele>282.0</ele><time>2026-05-02T13:03:57.191Z</time></trkpt><trkpt lat="43.8193495" lon="12.575563"><ele>287.4</ele><time>2026-05-02T13:03:58.174Z</time></trkpt><trkpt lat="43.819346" lon="12.5754189"><ele>292.79999999999995</ele><time>2026-05-02T13:03:59.193Z</time></trkpt><trkpt lat="43.8193708" lon="12.5752915"><ele>298.2</ele><time>2026-05-02T13:04:00.182Z</time></trkpt><trkpt lat="43.8194523" lon="12.5752178"><ele>303.59999999999997</ele><time>2026-05-02T13:04:01.195Z</time></trkpt><trkpt lat="43.819542" lon="12.5752336"><ele>309.0</ele><time>2026-05-02T13:04:02.191Z</time></trkpt><trkpt lat="43.8196186" lon="12.575298"><ele>309.0</ele><time>2026-05-02T13:04:03.186Z</time></trkpt><trkpt lat="43.819683" lon="12.5754373"><ele>309.0</ele><time>2026-05-02T13:04:04.184Z</time></trkpt><trkpt lat="43.8197274" lon="12.5755975"><ele>309.0</ele><time>2026-05-02T13:04:05.185Z</time></trkpt><trkpt lat="43.8197578" lon="12.5757696"><ele>309.0</ele><time>2026-05-02T13:04:06.188Z</time></trkpt><trkpt lat="43.8197799" lon="12.5759383"><ele>309.0</ele><time>2026-05-02T13:04:07.191Z</time></trkpt><trkpt lat="43.8197916" lon="12.5760949"><ele>309.0</ele><time>2026-05-02T13:04:08.194Z</time></trkpt><trkpt lat="43.8197886" lon="12.576245"><ele>309.0</ele><time>2026-05-02T13:04:09.19Z</time></trkpt><trkpt lat="43.8197627" lon="12.5763954"><ele>309.0</ele><time>2026-05-02T13:04:10.187Z</time></trkpt><trkpt lat="43.8197292" lon="12.5765584"><ele>309.4</ele><time>2026-05-02T13:04:11.166Z</time></trkpt><trkpt lat="43.819688" lon="12.5767119"><ele>309.79999999999995</ele><time>2026-05-02T13:04:12.206Z</time></trkpt><trkpt lat="43.8196553" lon="12.5768558"><ele>310.20000000000005</ele><time>2026-05-02T13:04:13.185Z</time></trkpt><trkpt lat="43.819625" lon="12.5769756"><ele>310.6</ele><time>2026-05-02T13:04:14.184Z</time></trkpt><trkpt lat="43.8195969" lon="12.5770745"><ele>311.0</ele><time>2026-05-02T13:04:15.185Z</time></trkpt><trkpt lat="43.8195822" lon="12.5771631"><ele>311.0</ele><time>2026-05-02T13:04:16.187Z</time></trkpt><trkpt lat="43.819579" lon="12.577252"><ele>311.0</ele><time>2026-05-02T13:04:17.191Z</time></trkpt><trkpt lat="43.8195922" lon="12.5773513"><ele>311.0</ele><time>2026-05-02T13:04:18.19Z</time></trkpt><trkpt lat="43.8196197" lon="12.5774506"><ele>311.0</ele><time>2026-05-02T13:04:19.186Z</time></trkpt><trkpt lat="43.8196628" lon="12.5775526"><ele>311.0</ele><time>2026-05-02T13:04:20.179Z</time></trkpt><trkpt lat="43.8197279" lon="12.5776514"><ele>311.0</ele><time>2026-05-02T13:04:21.183Z</time></trkpt><trkpt lat="43.8198236" lon="12.5777206"><ele>311.0</ele><time>2026-05-02T13:04:22.186Z</time></trkpt><trkpt lat="43.819925" lon="12.5777536"><ele>311.0</ele><time>2026-05-02T13:04:23.195Z</time></trkpt><trkpt lat="43.8200312" lon="12.5777515"><ele>311.0</ele><time>2026-05-02T13:04:24.184Z</time></trkpt><trkpt lat="43.8201299" lon="12.5777072"><ele>311.0</ele><time>2026-05-02T13:04:25.188Z</time></trkpt><trkpt lat="43.8202211" lon="12.5776144"><ele>311.0</ele><time>2026-05-02T13:04:26.197Z</time></trkpt><trkpt lat="43.8202962" lon="12.5774741"><ele>311.25</ele><time>2026-05-02T13:04:27.196Z</time></trkpt><trkpt lat="43.8203423" lon="12.5773134"><ele>311.5</ele><time>2026-05-02T13:04:28.188Z</time></trkpt><trkpt lat="43.820378" lon="12.5771051"><ele>311.75</ele><time>2026-05-02T13:04:29.169Z</time></trkpt><trkpt lat="43.8204195" lon="12.5768805"><ele>312.0</ele><time>2026-05-02T13:04:30.178Z</time></trkpt><trkpt lat="43.8204674" lon="12.5766487"><ele>312.0</ele><time>2026-05-02T13:04:31.207Z</time></trkpt><trkpt lat="43.8205238" lon="12.5764021"><ele>312.0</ele><time>2026-05-02T13:04:32.206Z</time></trkpt><trkpt lat="43.8205846" lon="12.5761362"><ele>312.0</ele><time>2026-05-02T13:04:33.191Z</time></trkpt><trkpt lat="43.820647" lon="12.5758778"><ele>313.5</ele><time>2026-05-02T13:04:34.192Z</time></trkpt><trkpt lat="43.820698" lon="12.5756586"><ele>315.0</ele><time>2026-05-02T13:04:35.2Z</time></trkpt><trkpt lat="43.8207393" lon="12.5754763"><ele>316.5</ele><time>2026-05-02T13:04:36.183Z</time></trkpt><trkpt lat="43.8207536" lon="12.5752971"><ele>318.0</ele><time>2026-05-02T13:04:37.218Z</time></trkpt><trkpt lat="43.820722" lon="12.5751118"><ele>320.3333333333333</ele><time>2026-05-02T13:04:38.181Z</time></trkpt><trkpt lat="43.8206481" lon="12.5749292"><ele>322.66666666666663</ele><time>2026-05-02T13:04:39.201Z</time></trkpt><trkpt lat="43.8205441" lon="12.5747655"><ele>325.0</ele><time>2026-05-02T13:04:40.19Z</time></trkpt><trkpt lat="43.820448" lon="12.574616"><ele>327.0</ele><time>2026-05-02T13:04:41.204Z</time></trkpt><trkpt lat="43.8203744" lon="12.5744839"><ele>329.0</ele><time>2026-05-02T13:04:42.18Z</time></trkpt><trkpt lat="43.8203325" lon="12.5743631"><ele>331.0</ele><time>2026-05-02T13:04:43.189Z</time></trkpt><trkpt lat="43.8203311" lon="12.5742424"><ele>333.0</ele><time>2026-05-02T13:04:44.194Z</time></trkpt><trkpt lat="43.820369" lon="12.5741342"><ele>335.0</ele><time>2026-05-02T13:04:45.174Z</time></trkpt><trkpt lat="43.8204387" lon="12.5740402"><ele>335.0</ele><time>2026-05-02T13:04:46.192Z</time></trkpt><trkpt lat="43.8205412" lon="12.5739808"><ele>335.0</ele><time>2026-05-02T13:04:47.165Z</time></trkpt><trkpt lat="43.8206583" lon="12.5739535"><ele>335.0</ele><time>2026-05-02T13:04:48.194Z</time></trkpt><trkpt lat="43.820767" lon="12.5739252"><ele>335.0</ele><time>2026-05-02T13:04:49.197Z</time></trkpt><trkpt lat="43.8208824" lon="12.5738915"><ele>335.0</ele><time>2026-05-02T13:04:50.192Z</time></trkpt><trkpt lat="43.8209765" lon="12.5738515"><ele>335.0</ele><time>2026-05-02T13:04:51.175Z</time></trkpt><trkpt lat="43.8210403" lon="12.573777"><ele>335.0</ele><time>2026-05-02T13:04:52.205Z</time></trkpt><trkpt lat="43.8210505" lon="12.5736328"><ele>335.0</ele><time>2026-05-02T13:04:53.185Z</time></trkpt><trkpt lat="43.8210325" lon="12.5735209"><ele>335.0</ele><time>2026-05-02T13:04:54.196Z</time></trkpt><trkpt lat="43.8209689" lon="12.5734307"><ele>337.0</ele><time>2026-05-02T13:04:55.184Z</time></trkpt><trkpt lat="43.8208737" lon="12.5734134"><ele>339.0</ele><time>2026-05-02T13:04:56.187Z</time></trkpt><trkpt lat="43.8207708" lon="12.5734505"><ele>341.0</ele><time>2026-05-02T13:04:57.193Z</time></trkpt><trkpt lat="43.820673" lon="12.5734812"><ele>343.0</ele><time>2026-05-02T13:04:58.235Z</time></trkpt><trkpt lat="43.8205988" lon="12.5734438"><ele>345.0</ele><time>2026-05-02T13:04:59.192Z</time></trkpt><trkpt lat="43.8205449" lon="12.5733587"><ele>345.0</ele><time>2026-05-02T13:05:00.176Z</time></trkpt><trkpt lat="43.8205213" lon="12.573248"><ele>345.0</ele><time>2026-05-02T13:05:01.197Z</time></trkpt><trkpt lat="43.820554" lon="12.5731221"><ele>345.0</ele><time>2026-05-02T13:05:02.21Z</time></trkpt><trkpt lat="43.8206269" lon="12.5729909"><ele>345.0</ele><time>2026-05-02T13:05:03.2Z</time></trkpt><trkpt lat="43.8207244" lon="12.5728598"><ele>345.0</ele><time>2026-05-02T13:05:04.198Z</time></trkpt><trkpt lat="43.8208266" lon="12.5727188"><ele>347.0</ele><time>2026-05-02T13:05:05.208Z</time></trkpt><trkpt lat="43.8209424" lon="12.5725713"><ele>349.0</ele><time>2026-05-02T13:05:06.198Z</time></trkpt><trkpt lat="43.821067" lon="12.572429"><ele>351.0</ele><time>2026-05-02T13:05:07.19Z</time></trkpt><trkpt lat="43.8211952" lon="12.5722899"><ele>352.0</ele><time>2026-05-02T13:05:08.179Z</time></trkpt><trkpt lat="43.8213449" lon="12.5721596"><ele>353.0</ele><time>2026-05-02T13:05:09.18Z</time></trkpt><trkpt lat="43.8215071" lon="12.5720463"><ele>354.0</ele><time>2026-05-02T13:05:10.192Z</time></trkpt><trkpt lat="43.8216573" lon="12.5719532"><ele>353.25</ele><time>2026-05-02T13:05:11.191Z</time></trkpt><trkpt lat="43.8217979" lon="12.5718558"><ele>352.5</ele><time>2026-05-02T13:05:12.202Z</time></trkpt><trkpt lat="43.8219336" lon="12.571766"><ele>351.75</ele><time>2026-05-02T13:05:13.195Z</time></trkpt><trkpt lat="43.8220456" lon="12.5716846"><ele>351.0</ele><time>2026-05-02T13:05:14.161Z</time></trkpt><trkpt lat="43.8221269" lon="12.5716063"><ele>351.0</ele><time>2026-05-02T13:05:15.193Z</time></trkpt><trkpt lat="43.8221732" lon="12.5714817"><ele>351.0</ele><time>2026-05-02T13:05:16.192Z</time></trkpt><trkpt lat="43.8221681" lon="12.5713259"><ele>351.0</ele><time>2026-05-02T13:05:17.203Z</time></trkpt><trkpt lat="43.8221218" lon="12.5711852"><ele>351.0</ele><time>2026-05-02T13:05:18.184Z</time></trkpt><trkpt lat="43.82203" lon="12.5710827"><ele>351.0</ele><time>2026-05-02T13:05:19.193Z</time></trkpt><trkpt lat="43.8219402" lon="12.5710495"><ele>352.0</ele><time>2026-05-02T13:05:20.219Z</time></trkpt><trkpt lat="43.8218282" lon="12.5710501"><ele>353.0</ele><time>2026-05-02T13:05:21.207Z</time></trkpt><trkpt lat="43.8217141" lon="12.5711044"><ele>354.0</ele><time>2026-05-02T13:05:22.165Z</time></trkpt><trkpt lat="43.8216216" lon="12.5711755"><ele>355.0</ele><time>2026-05-02T13:05:23.197Z</time></trkpt><trkpt lat="43.8215423" lon="12.5712219"><ele>356.0</ele><time>2026-05-02T13:05:24.188Z</time></trkpt><trkpt lat="43.8214757" lon="12.5712366"><ele>357.8</ele><time>2026-05-02T13:05:25.197Z</time></trkpt><trkpt lat="43.8214029" lon="12.571224"><ele>359.6</ele><time>2026-05-02T13:05:26.201Z</time></trkpt><trkpt lat="43.8213425" lon="12.5711706"><ele>361.4</ele><time>2026-05-02T13:05:27.199Z</time></trkpt><trkpt lat="43.8213175" lon="12.5710738"><ele>363.2</ele><time>2026-05-02T13:05:28.201Z</time></trkpt><trkpt lat="43.8213186" lon="12.5709173"><ele>365.0</ele><time>2026-05-02T13:05:29.166Z</time></trkpt><trkpt lat="43.8213261" lon="12.5707404"><ele>366.5</ele><time>2026-05-02T13:05:30.165Z</time></trkpt><trkpt lat="43.8213329" lon="12.5705683"><ele>368.0</ele><time>2026-05-02T13:05:31.169Z</time></trkpt><trkpt lat="43.8213512" lon="12.570392"><ele>369.5</ele><time>2026-05-02T13:05:32.169Z</time></trkpt><trkpt lat="43.8213758" lon="12.5702109"><ele>371.0</ele><time>2026-05-02T13:05:33.167Z</time></trkpt><trkpt lat="43.8213896" lon="12.5700373"><ele>372.75</ele><time>2026-05-02T13:05:34.157Z</time></trkpt><trkpt lat="43.8214173" lon="12.5698684"><ele>374.5</ele><time>2026-05-02T13:05:35.173Z</time></trkpt><trkpt lat="43.8214456" lon="12.569694"><ele>376.25</ele><time>2026-05-02T13:05:36.172Z</time></trkpt><trkpt lat="43.8214715" lon="12.5695118"><ele>378.0</ele><time>2026-05-02T13:05:37.165Z</time></trkpt><trkpt lat="43.8215018" lon="12.5693494"><ele>379.75</ele><time>2026-05-02T13:05:38.168Z</time></trkpt><trkpt lat="43.8215211" lon="12.5691934"><ele>381.5</ele><time>2026-05-02T13:05:39.169Z</time></trkpt><trkpt lat="43.8215479" lon="12.5690386"><ele>383.25</ele><time>2026-05-02T13:05:40.16Z</time></trkpt><trkpt lat="43.8215713" lon="12.5688752"><ele>385.0</ele><time>2026-05-02T13:05:41.162Z</time></trkpt><trkpt lat="43.8216109" lon="12.5686939"><ele>386.25</ele><time>2026-05-02T13:05:42.158Z</time></trkpt><trkpt lat="43.8216769" lon="12.5685247"><ele>387.5</ele><time>2026-05-02T13:05:43.157Z</time></trkpt><trkpt lat="43.8217341" lon="12.5683424"><ele>388.75</ele><time>2026-05-02T13:05:44.174Z</time></trkpt><trkpt lat="43.8217865" lon="12.5681593"><ele>390.0</ele><time>2026-05-02T13:05:45.187Z</time></trkpt><trkpt lat="43.8218443" lon="12.5679794"><ele>391.5</ele><time>2026-05-02T13:05:46.199Z</time></trkpt><trkpt lat="43.8218946" lon="12.5677974"><ele>393.0</ele><time>2026-05-02T13:05:47.175Z</time></trkpt><trkpt lat="43.8219616" lon="12.5676136"><ele>394.5</ele><time>2026-05-02T13:05:48.186Z</time></trkpt><trkpt lat="43.8220559" lon="12.5674339"><ele>396.0</ele><time>2026-05-02T13:05:49.179Z</time></trkpt><trkpt lat="43.8221571" lon="12.5672489"><ele>396.0</ele><time>2026-05-02T13:05:50.188Z</time></trkpt><trkpt lat="43.8222629" lon="12.567064"><ele>396.0</ele><time>2026-05-02T13:05:51.179Z</time></trkpt><trkpt lat="43.8223769" lon="12.5668495"><ele>396.0</ele><time>2026-05-02T13:05:52.191Z</time></trkpt><trkpt lat="43.8224803" lon="12.5666172"><ele>397.0</ele><time>2026-05-02T13:05:53.193Z</time></trkpt><trkpt lat="43.8225707" lon="12.5663783"><ele>398.0</ele><time>2026-05-02T13:05:54.193Z</time></trkpt><trkpt lat="43.8226568" lon="12.5661367"><ele>399.0</ele><time>2026-05-02T13:05:55.186Z</time></trkpt><trkpt lat="43.8227342" lon="12.5658985"><ele>401.33333333333337</ele><time>2026-05-02T13:05:56.195Z</time></trkpt><trkpt lat="43.8228121" lon="12.5656647"><ele>403.6666666666667</ele><time>2026-05-02T13:05:57.188Z</time></trkpt><trkpt lat="43.8228866" lon="12.5654353"><ele>406.0</ele><time>2026-05-02T13:05:58.198Z</time></trkpt><trkpt lat="43.8229611" lon="12.5652192"><ele>411.0</ele><time>2026-05-02T13:05:59.193Z</time></trkpt><trkpt lat="43.8230376" lon="12.5650142"><ele>416.0</ele><time>2026-05-02T13:06:00.185Z</time></trkpt><trkpt lat="43.8231147" lon="12.5648105"><ele>421.0</ele><time>2026-05-02T13:06:01.188Z</time></trkpt><trkpt lat="43.8231898" lon="12.5646073"><ele>421.5</ele><time>2026-05-02T13:06:02.199Z</time></trkpt><trkpt lat="43.8232605" lon="12.564404"><ele>422.0</ele><time>2026-05-02T13:06:03.19Z</time></trkpt><trkpt lat="43.823326" lon="12.5642213"><ele>422.5</ele><time>2026-05-02T13:06:04.187Z</time></trkpt><trkpt lat="43.8233859" lon="12.5640566"><ele>423.0</ele><time>2026-05-02T13:06:05.197Z</time></trkpt><trkpt lat="43.8234575" lon="12.563927"><ele>426.75</ele><time>2026-05-02T13:06:06.178Z</time></trkpt><trkpt lat="43.8235291" lon="12.5638374"><ele>430.5</ele><time>2026-05-02T13:06:07.185Z</time></trkpt><trkpt lat="43.8236372" lon="12.5637683"><ele>434.25</ele><time>2026-05-02T13:06:08.178Z</time></trkpt><trkpt lat="43.8237768" lon="12.5637411"><ele>438.0</ele><time>2026-05-02T13:06:09.188Z</time></trkpt><trkpt lat="43.823908" lon="12.5637133"><ele>438.5</ele><time>2026-05-02T13:06:10.182Z</time></trkpt><trkpt lat="43.8240371" lon="12.5636952"><ele>439.0</ele><time>2026-05-02T13:06:11.188Z</time></trkpt><trkpt lat="43.8241647" lon="12.5636726"><ele>439.5</ele><time>2026-05-02T13:06:12.178Z</time></trkpt><trkpt lat="43.8242852" lon="12.5636531"><ele>440.0</ele><time>2026-05-02T13:06:13.185Z</time></trkpt><trkpt lat="43.8244095" lon="12.5636292"><ele>440.0</ele><time>2026-05-02T13:06:14.188Z</time></trkpt><trkpt lat="43.8245112" lon="12.5635608"><ele>440.0</ele><time>2026-05-02T13:06:15.201Z</time></trkpt><trkpt lat="43.8245911" lon="12.5634647"><ele>440.0</ele><time>2026-05-02T13:06:16.195Z</time></trkpt><trkpt lat="43.8246509" lon="12.5633769"><ele>440.0</ele><time>2026-05-02T13:06:17.181Z</time></trkpt><trkpt lat="43.8246848" lon="12.5632949"><ele>440.0</ele><time>2026-05-02T13:06:18.199Z</time></trkpt><trkpt lat="43.8247273" lon="12.5632043"><ele>440.0</ele><time>2026-05-02T13:06:20.187Z</time></trkpt><trkpt lat="43.8247931" lon="12.5632837"><ele>440.0</ele><time>2026-05-02T13:06:24.182Z</time></trkpt><trkpt lat="43.8248084" lon="12.5633965"><ele>440.0</ele><time>2026-05-02T13:06:26.176Z</time></trkpt><trkpt lat="43.8247618" lon="12.5633187"><ele>440.0</ele><time>2026-05-02T13:06:33.181Z</time></trkpt><trkpt lat="43.8247447" lon="12.5631917"><ele>440.0</ele><time>2026-05-02T13:06:35.176Z</time></trkpt><trkpt lat="43.8247328" lon="12.5630181"><ele>440.0</ele><time>2026-05-02T13:06:37.189Z</time></trkpt><trkpt lat="43.8247708" lon="12.5629093"><ele>440.0</ele><time>2026-05-02T13:06:38.166Z</time></trkpt><trkpt lat="43.8248883" lon="12.5626391"><ele>440.0</ele><time>2026-05-02T13:06:40.168Z</time></trkpt><trkpt lat="43.8249668" lon="12.5624927"><ele>440.0</ele><time>2026-05-02T13:06:41.17Z</time></trkpt><trkpt lat="43.825042" lon="12.562334"><ele>440.0</ele><time>2026-05-02T13:06:42.173Z</time></trkpt><trkpt lat="43.8251252" lon="12.5621518"><ele>440.0</ele><time>2026-05-02T13:06:43.171Z</time></trkpt><trkpt lat="43.8252136" lon="12.5619609"><ele>440.0</ele><time>2026-05-02T13:06:44.197Z</time></trkpt><trkpt lat="43.8252809" lon="12.5617427"><ele>442.66666666666663</ele><time>2026-05-02T13:06:45.188Z</time></trkpt><trkpt lat="43.8253261" lon="12.5615139"><ele>445.33333333333337</ele><time>2026-05-02T13:06:46.198Z</time></trkpt><trkpt lat="43.8253432" lon="12.5612868"><ele>448.0</ele><time>2026-05-02T13:06:47.179Z</time></trkpt><trkpt lat="43.8253596" lon="12.5610967"><ele>451.25</ele><time>2026-05-02T13:06:48.195Z</time></trkpt><trkpt lat="43.8253795" lon="12.5609336"><ele>454.5</ele><time>2026-05-02T13:06:49.195Z</time></trkpt><trkpt lat="43.8254278" lon="12.5607952"><ele>457.75</ele><time>2026-05-02T13:06:50.179Z</time></trkpt><trkpt lat="43.8255163" lon="12.5607075"><ele>461.0</ele><time>2026-05-02T13:06:51.195Z</time></trkpt><trkpt lat="43.8256256" lon="12.5606379"><ele>461.0</ele><time>2026-05-02T13:06:52.187Z</time></trkpt><trkpt lat="43.8257532" lon="12.5606005"><ele>461.0</ele><time>2026-05-02T13:06:53.193Z</time></trkpt><trkpt lat="43.8258849" lon="12.5605969"><ele>461.0</ele><time>2026-05-02T13:06:54.194Z</time></trkpt><trkpt lat="43.8260137" lon="12.5606271"><ele>461.0</ele><time>2026-05-02T13:06:55.187Z</time></trkpt><trkpt lat="43.8261429" lon="12.5606696"><ele>461.25</ele><time>2026-05-02T13:06:56.205Z</time></trkpt><trkpt lat="43.8262678" lon="12.5607044"><ele>461.5</ele><time>2026-05-02T13:06:57.196Z</time></trkpt><trkpt lat="43.826398" lon="12.5607211"><ele>461.75</ele><time>2026-05-02T13:06:58.196Z</time></trkpt><trkpt lat="43.8265048" lon="12.5607035"><ele>462.0</ele><time>2026-05-02T13:06:59.191Z</time></trkpt><trkpt lat="43.8266008" lon="12.5606307"><ele>462.0</ele><time>2026-05-02T13:07:00.186Z</time></trkpt><trkpt lat="43.8266823" lon="12.5605125"><ele>462.0</ele><time>2026-05-02T13:07:01.177Z</time></trkpt><trkpt lat="43.8267484" lon="12.5603566"><ele>462.0</ele><time>2026-05-02T13:07:02.172Z</time></trkpt><trkpt lat="43.826799" lon="12.5601813"><ele>462.0</ele><time>2026-05-02T13:07:03.191Z</time></trkpt><trkpt lat="43.8268454" lon="12.5600012"><ele>461.33333333333337</ele><time>2026-05-02T13:07:04.192Z</time></trkpt><trkpt lat="43.8268964" lon="12.559803"><ele>460.6666666666667</ele><time>2026-05-02T13:07:05.189Z</time></trkpt><trkpt lat="43.8269333" lon="12.5595913"><ele>460.0</ele><time>2026-05-02T13:07:06.197Z</time></trkpt><trkpt lat="43.8269669" lon="12.5593639"><ele>465.0</ele><time>2026-05-02T13:07:07.175Z</time></trkpt><trkpt lat="43.8269957" lon="12.5591405"><ele>470.0</ele><time>2026-05-02T13:07:08.182Z</time></trkpt><trkpt lat="43.8270493" lon="12.5589432"><ele>475.0</ele><time>2026-05-02T13:07:09.19Z</time></trkpt><trkpt lat="43.8271283" lon="12.5587674"><ele>477.5</ele><time>2026-05-02T13:07:10.191Z</time></trkpt><trkpt lat="43.8272193" lon="12.5586017"><ele>480.0</ele><time>2026-05-02T13:07:11.192Z</time></trkpt><trkpt lat="43.8272933" lon="12.5584453"><ele>482.5</ele><time>2026-05-02T13:07:12.193Z</time></trkpt><trkpt lat="43.8273449" lon="12.5582707"><ele>485.0</ele><time>2026-05-02T13:07:13.195Z</time></trkpt><trkpt lat="43.8273912" lon="12.5580742"><ele>487.3333333333333</ele><time>2026-05-02T13:07:14.178Z</time></trkpt><trkpt lat="43.8274369" lon="12.5578623"><ele>489.66666666666663</ele><time>2026-05-02T13:07:15.18Z</time></trkpt><trkpt lat="43.827479" lon="12.5576595"><ele>492.0</ele><time>2026-05-02T13:07:16.183Z</time></trkpt><trkpt lat="43.8275217" lon="12.5574686"><ele>492.0</ele><time>2026-05-02T13:07:17.193Z</time></trkpt><trkpt lat="43.8275652" lon="12.5572854"><ele>492.0</ele><time>2026-05-02T13:07:18.197Z</time></trkpt><trkpt lat="43.8276042" lon="12.5571079"><ele>492.0</ele><time>2026-05-02T13:07:19.178Z</time></trkpt><trkpt lat="43.8276341" lon="12.556957"><ele>492.0</ele><time>2026-05-02T13:07:20.183Z</time></trkpt><trkpt lat="43.8276612" lon="12.556826"><ele>493.3333333333333</ele><time>2026-05-02T13:07:21.197Z</time></trkpt><trkpt lat="43.8276557" lon="12.5567319"><ele>494.66666666666663</ele><time>2026-05-02T13:07:22.205Z</time></trkpt><trkpt lat="43.8276198" lon="12.5566521"><ele>496.0</ele><time>2026-05-02T13:07:23.197Z</time></trkpt><trkpt lat="43.8275641" lon="12.5565769"><ele>497.3333333333333</ele><time>2026-05-02T13:07:24.179Z</time></trkpt><trkpt lat="43.827481" lon="12.5564905"><ele>498.66666666666663</ele><time>2026-05-02T13:07:25.191Z</time></trkpt><trkpt lat="43.827398" lon="12.5563745"><ele>500.0</ele><time>2026-05-02T13:07:26.202Z</time></trkpt><trkpt lat="43.8273151" lon="12.556239"><ele>503.25</ele><time>2026-05-02T13:07:27.195Z</time></trkpt><trkpt lat="43.8272474" lon="12.5561013"><ele>506.5</ele><time>2026-05-02T13:07:28.192Z</time></trkpt><trkpt lat="43.8272061" lon="12.5559583"><ele>509.75</ele><time>2026-05-02T13:07:29.182Z</time></trkpt><trkpt lat="43.8271764" lon="12.555817"><ele>513.0</ele><time>2026-05-02T13:07:30.188Z</time></trkpt><trkpt lat="43.8271703" lon="12.5556597"><ele>513.0</ele><time>2026-05-02T13:07:31.195Z</time></trkpt><trkpt lat="43.8272015" lon="12.5554919"><ele>513.0</ele><time>2026-05-02T13:07:32.171Z</time></trkpt><trkpt lat="43.8272368" lon="12.5553357"><ele>513.0</ele><time>2026-05-02T13:07:33.168Z</time></trkpt><trkpt lat="43.8273122" lon="12.5552269"><ele>513.0</ele><time>2026-05-02T13:07:34.197Z</time></trkpt><trkpt lat="43.8274114" lon="12.5551564"><ele>513.5</ele><time>2026-05-02T13:07:35.193Z</time></trkpt><trkpt lat="43.827541" lon="12.5551115"><ele>514.0</ele><time>2026-05-02T13:07:36.19Z</time></trkpt><trkpt lat="43.8276931" lon="12.5551133"><ele>514.5</ele><time>2026-05-02T13:07:37.19Z</time></trkpt><trkpt lat="43.8278446" lon="12.5551416"><ele>515.0</ele><time>2026-05-02T13:07:38.174Z</time></trkpt><trkpt lat="43.8279899" lon="12.555175"><ele>517.0</ele><time>2026-05-02T13:07:39.188Z</time></trkpt><trkpt lat="43.8281326" lon="12.5551917"><ele>519.0</ele><time>2026-05-02T13:07:40.171Z</time></trkpt><trkpt lat="43.828255" lon="12.5551758"><ele>521.0</ele><time>2026-05-02T13:07:41.17Z</time></trkpt><trkpt lat="43.8283632" lon="12.5551374"><ele>523.0</ele><time>2026-05-02T13:07:42.209Z</time></trkpt><trkpt lat="43.8284601" lon="12.5550649"><ele>524.0</ele><time>2026-05-02T13:07:43.178Z</time></trkpt><trkpt lat="43.8285417" lon="12.5549724"><ele>525.0</ele><time>2026-05-02T13:07:44.197Z</time></trkpt><trkpt lat="43.8285944" lon="12.5548861"><ele>526.0</ele><time>2026-05-02T13:07:45.176Z</time></trkpt><trkpt lat="43.8286393" lon="12.5547818"><ele>527.0</ele><time>2026-05-02T13:07:46.183Z</time></trkpt><trkpt lat="43.8286837" lon="12.5546462"><ele>528.0</ele><time>2026-05-02T13:07:47.188Z</time></trkpt><trkpt lat="43.8287251" lon="12.5544894"><ele>528.0</ele><time>2026-05-02T13:07:48.203Z</time></trkpt><trkpt lat="43.8287803" lon="12.5542952"><ele>528.0</ele><time>2026-05-02T13:07:49.193Z</time></trkpt><trkpt lat="43.8288347" lon="12.5540753"><ele>528.0</ele><time>2026-05-02T13:07:50.2Z</time></trkpt><trkpt lat="43.8289128" lon="12.5538178"><ele>531.6666666666666</ele><time>2026-05-02T13:07:51.184Z</time></trkpt><trkpt lat="43.8289834" lon="12.5535653"><ele>535.3333333333333</ele><time>2026-05-02T13:07:52.181Z</time></trkpt><trkpt lat="43.8290492" lon="12.5533308"><ele>539.0</ele><time>2026-05-02T13:07:53.185Z</time></trkpt><trkpt lat="43.8291083" lon="12.5531036"><ele>539.0</ele><time>2026-05-02T13:07:54.184Z</time></trkpt><trkpt lat="43.8291809" lon="12.5529134"><ele>539.0</ele><time>2026-05-02T13:07:55.191Z</time></trkpt><trkpt lat="43.8292746" lon="12.5527673"><ele>539.0</ele><time>2026-05-02T13:07:56.177Z</time></trkpt><trkpt lat="43.829364" lon="12.552697"><ele>539.0</ele><time>2026-05-02T13:07:57.201Z</time></trkpt><trkpt lat="43.8294589" lon="12.5526949"><ele>540.8</ele><time>2026-05-02T13:07:58.177Z</time></trkpt><trkpt lat="43.8295492" lon="12.5527204"><ele>542.5999999999999</ele><time>2026-05-02T13:07:59.191Z</time></trkpt><trkpt lat="43.8296436" lon="12.5527811"><ele>544.4</ele><time>2026-05-02T13:08:00.183Z</time></trkpt><trkpt lat="43.8297434" lon="12.552882"><ele>546.1999999999999</ele><time>2026-05-02T13:08:01.184Z</time></trkpt><trkpt lat="43.8298385" lon="12.5530037"><ele>548.0</ele><time>2026-05-02T13:08:02.202Z</time></trkpt><trkpt lat="43.8299506" lon="12.5531309"><ele>548.0</ele><time>2026-05-02T13:08:03.199Z</time></trkpt><trkpt lat="43.8300523" lon="12.5532572"><ele>548.0</ele><time>2026-05-02T13:08:04.188Z</time></trkpt><trkpt lat="43.8301396" lon="12.5533693"><ele>548.0</ele><time>2026-05-02T13:08:05.171Z</time></trkpt><trkpt lat="43.8302254" lon="12.5534512"><ele>548.0</ele><time>2026-05-02T13:08:06.187Z</time></trkpt><trkpt lat="43.830312" lon="12.5534847"><ele>546.8333333333333</ele><time>2026-05-02T13:08:07.204Z</time></trkpt><trkpt lat="43.8303798" lon="12.5534736"><ele>545.6666666666666</ele><time>2026-05-02T13:08:08.203Z</time></trkpt><trkpt lat="43.8304525" lon="12.5534159"><ele>544.5</ele><time>2026-05-02T13:08:10.177Z</time></trkpt><trkpt lat="43.8305162" lon="12.5533284"><ele>543.3333333333334</ele><time>2026-05-02T13:08:13.186Z</time></trkpt><trkpt lat="43.8305697" lon="12.5532593"><ele>542.1666666666667</ele><time>2026-05-02T13:08:15.177Z</time></trkpt><trkpt lat="43.8306309" lon="12.5531529"><ele>541.0</ele><time>2026-05-02T13:08:17.181Z</time></trkpt><trkpt lat="43.8306806" lon="12.5530829"><ele>541.0</ele><time>2026-05-02T13:08:18.197Z</time></trkpt><trkpt lat="43.8307312" lon="12.553003"><ele>541.0</ele><time>2026-05-02T13:08:19.176Z</time></trkpt><trkpt lat="43.8307937" lon="12.5529088"><ele>541.0</ele><time>2026-05-02T13:08:21.188Z</time></trkpt><trkpt lat="43.8308364" lon="12.5528174"><ele>541.0</ele><time>2026-05-02T13:08:24.176Z</time></trkpt><trkpt lat="43.8308586" lon="12.5527281"><ele>541.0</ele><time>2026-05-02T13:08:26.189Z</time></trkpt><trkpt lat="43.8309027" lon="12.5526047"><ele>541.0</ele><time>2026-05-02T13:08:28.19Z</time></trkpt><trkpt lat="43.8309381" lon="12.552447"><ele>539.6</ele><time>2026-05-02T13:08:30.178Z</time></trkpt><trkpt lat="43.8309613" lon="12.55234"><ele>538.2</ele><time>2026-05-02T13:08:31.219Z</time></trkpt><trkpt lat="43.8309941" lon="12.5522007"><ele>536.8</ele><time>2026-05-02T13:08:32.21Z</time></trkpt><trkpt lat="43.8310224" lon="12.5520515"><ele>535.4</ele><time>2026-05-02T13:08:33.193Z</time></trkpt><trkpt lat="43.8310456" lon="12.5519065"><ele>534.0</ele><time>2026-05-02T13:08:34.198Z</time></trkpt><trkpt lat="43.8310625" lon="12.5517567"><ele>537.0</ele><time>2026-05-02T13:08:35.194Z</time></trkpt><trkpt lat="43.8310672" lon="12.5516294"><ele>540.0</ele><time>2026-05-02T13:08:36.22Z</time></trkpt><trkpt lat="43.8310654" lon="12.5515145"><ele>543.0</ele><time>2026-05-02T13:08:37.223Z</time></trkpt><trkpt lat="43.8310682" lon="12.551394"><ele>546.0</ele><time>2026-05-02T13:08:38.197Z</time></trkpt><trkpt lat="43.831078" lon="12.5512664"><ele>549.0</ele><time>2026-05-02T13:08:39.213Z</time></trkpt><trkpt lat="43.8310879" lon="12.5511315"><ele>551.0</ele><time>2026-05-02T13:08:40.194Z</time></trkpt><trkpt lat="43.8310947" lon="12.5509845"><ele>553.0</ele><time>2026-05-02T13:08:41.166Z</time></trkpt><trkpt lat="43.8310983" lon="12.5508347"><ele>555.0</ele><time>2026-05-02T13:08:42.16Z</time></trkpt><trkpt lat="43.8310976" lon="12.550686"><ele>557.0</ele><time>2026-05-02T13:08:43.194Z</time></trkpt><trkpt lat="43.8310963" lon="12.5505494"><ele>559.0</ele><time>2026-05-02T13:08:44.192Z</time></trkpt><trkpt lat="43.8310963" lon="12.5504276"><ele>558.4</ele><time>2026-05-02T13:08:45.201Z</time></trkpt><trkpt lat="43.8310999" lon="12.5503099"><ele>557.8</ele><time>2026-05-02T13:08:46.197Z</time></trkpt><trkpt lat="43.8310999" lon="12.5501988"><ele>557.2</ele><time>2026-05-02T13:08:47.202Z</time></trkpt><trkpt lat="43.8310965" lon="12.5501009"><ele>556.6</ele><time>2026-05-02T13:08:48.198Z</time></trkpt><trkpt lat="43.8310806" lon="12.5499313"><ele>556.0</ele><time>2026-05-02T13:08:50.197Z</time></trkpt><trkpt lat="43.8310702" lon="12.5497681"><ele>556.0</ele><time>2026-05-02T13:08:52.191Z</time></trkpt><trkpt lat="43.83106" lon="12.5496144"><ele>556.0</ele><time>2026-05-02T13:08:54.192Z</time></trkpt><trkpt lat="43.8310509" lon="12.54952"><ele>556.0</ele><time>2026-05-02T13:08:55.209Z</time></trkpt><trkpt lat="43.8310398" lon="12.5494132"><ele>556.0</ele><time>2026-05-02T13:08:56.212Z</time></trkpt><trkpt lat="43.8310328" lon="12.5492968"><ele>556.0</ele><time>2026-05-02T13:08:57.201Z</time></trkpt><trkpt lat="43.8310283" lon="12.5491667"><ele>556.0</ele><time>2026-05-02T13:08:58.202Z</time></trkpt><trkpt lat="43.8310218" lon="12.5490405"><ele>555.5</ele><time>2026-05-02T13:08:59.199Z</time></trkpt><trkpt lat="43.8310259" lon="12.5489225"><ele>555.0</ele><time>2026-05-02T13:09:00.204Z</time></trkpt><trkpt lat="43.8310331" lon="12.5488081"><ele>554.5</ele><time>2026-05-02T13:09:01.201Z</time></trkpt><trkpt lat="43.8310479" lon="12.5486867"><ele>554.0</ele><time>2026-05-02T13:09:02.184Z</time></trkpt><trkpt lat="43.8310735" lon="12.5485606"><ele>553.5</ele><time>2026-05-02T13:09:03.179Z</time></trkpt><trkpt lat="43.8311132" lon="12.5484377"><ele>553.0</ele><time>2026-05-02T13:09:04.188Z</time></trkpt><trkpt lat="43.8311582" lon="12.5483199"><ele>553.0</ele><time>2026-05-02T13:09:05.193Z</time></trkpt><trkpt lat="43.8312001" lon="12.5482096"><ele>553.0</ele><time>2026-05-02T13:09:06.19Z</time></trkpt><trkpt lat="43.8312465" lon="12.548103"><ele>553.0</ele><time>2026-05-02T13:09:07.195Z</time></trkpt><trkpt lat="43.8312949" lon="12.5479784"><ele>553.0</ele><time>2026-05-02T13:09:08.197Z</time></trkpt><trkpt lat="43.8313461" lon="12.5478409"><ele>553.0</ele><time>2026-05-02T13:09:09.203Z</time></trkpt><trkpt lat="43.8314074" lon="12.5477013"><ele>557.0</ele><time>2026-05-02T13:09:10.199Z</time></trkpt><trkpt lat="43.8314786" lon="12.5475447"><ele>561.0</ele><time>2026-05-02T13:09:11.178Z</time></trkpt><trkpt lat="43.831569" lon="12.5473634"><ele>565.0</ele><time>2026-05-02T13:09:12.199Z</time></trkpt><trkpt lat="43.8316689" lon="12.5471688"><ele>562.6666666666667</ele><time>2026-05-02T13:09:13.199Z</time></trkpt><trkpt lat="43.8317732" lon="12.5469584"><ele>560.3333333333334</ele><time>2026-05-02T13:09:14.193Z</time></trkpt><trkpt lat="43.831872" lon="12.5467589"><ele>558.0</ele><time>2026-05-02T13:09:15.196Z</time></trkpt><trkpt lat="43.8319739" lon="12.5465617"><ele>558.0</ele><time>2026-05-02T13:09:16.19Z</time></trkpt><trkpt lat="43.8320689" lon="12.5463711"><ele>558.0</ele><time>2026-05-02T13:09:17.199Z</time></trkpt><trkpt lat="43.8321575" lon="12.5461956"><ele>558.0</ele><time>2026-05-02T13:09:18.193Z</time></trkpt><trkpt lat="43.8322361" lon="12.5460318"><ele>559.75</ele><time>2026-05-02T13:09:19.186Z</time></trkpt><trkpt lat="43.8323135" lon="12.5458836"><ele>561.5</ele><time>2026-05-02T13:09:20.193Z</time></trkpt><trkpt lat="43.8323837" lon="12.5457396"><ele>563.25</ele><time>2026-05-02T13:09:21.192Z</time></trkpt><trkpt lat="43.8324547" lon="12.5455873"><ele>565.0</ele><time>2026-05-02T13:09:22.194Z</time></trkpt><trkpt lat="43.8325342" lon="12.5454174"><ele>564.3333333333334</ele><time>2026-05-02T13:09:23.19Z</time></trkpt><trkpt lat="43.8326178" lon="12.5452396"><ele>563.6666666666666</ele><time>2026-05-02T13:09:24.191Z</time></trkpt><trkpt lat="43.8327094" lon="12.5450583"><ele>563.0</ele><time>2026-05-02T13:09:25.198Z</time></trkpt><trkpt lat="43.8328012" lon="12.5448726"><ele>563.0</ele><time>2026-05-02T13:09:26.209Z</time></trkpt><trkpt lat="43.8328928" lon="12.5446839"><ele>563.0</ele><time>2026-05-02T13:09:27.208Z</time></trkpt><trkpt lat="43.8329938" lon="12.5444942"><ele>563.0</ele><time>2026-05-02T13:09:28.179Z</time></trkpt><trkpt lat="43.8331035" lon="12.5443076"><ele>563.3333333333333</ele><time>2026-05-02T13:09:29.197Z</time></trkpt><trkpt lat="43.8332133" lon="12.5441195"><ele>563.6666666666666</ele><time>2026-05-02T13:09:30.198Z</time></trkpt><trkpt lat="43.8333325" lon="12.5439384"><ele>564.0</ele><time>2026-05-02T13:09:31.202Z</time></trkpt><trkpt lat="43.833453" lon="12.5437742"><ele>568.6666666666666</ele><time>2026-05-02T13:09:32.195Z</time></trkpt><trkpt lat="43.8335707" lon="12.5436164"><ele>573.3333333333333</ele><time>2026-05-02T13:09:33.194Z</time></trkpt><trkpt lat="43.8336829" lon="12.5434627"><ele>578.0</ele><time>2026-05-02T13:09:34.193Z</time></trkpt><trkpt lat="43.833792" lon="12.5433289"><ele>578.0</ele><time>2026-05-02T13:09:35.191Z</time></trkpt><trkpt lat="43.8338971" lon="12.5431967"><ele>578.0</ele><time>2026-05-02T13:09:36.203Z</time></trkpt><trkpt lat="43.8340061" lon="12.5430682"><ele>578.0</ele><time>2026-05-02T13:09:37.198Z</time></trkpt><trkpt lat="43.8341288" lon="12.5429599"><ele>578.0</ele><time>2026-05-02T13:09:38.175Z</time></trkpt><trkpt lat="43.8342642" lon="12.5428858"><ele>582.0</ele><time>2026-05-02T13:09:39.194Z</time></trkpt><trkpt lat="43.8344224" lon="12.5428501"><ele>586.0</ele><time>2026-05-02T13:09:40.183Z</time></trkpt><trkpt lat="43.8345802" lon="12.5428608"><ele>590.0</ele><time>2026-05-02T13:09:41.168Z</time></trkpt><trkpt lat="43.8347401" lon="12.5428909"><ele>590.0</ele><time>2026-05-02T13:09:42.198Z</time></trkpt><trkpt lat="43.8348992" lon="12.5429415"><ele>590.0</ele><time>2026-05-02T13:09:43.189Z</time></trkpt><trkpt lat="43.8350689" lon="12.5429959"><ele>590.0</ele><time>2026-05-02T13:09:44.185Z</time></trkpt><trkpt lat="43.8352338" lon="12.5430573"><ele>590.0</ele><time>2026-05-02T13:09:45.197Z</time></trkpt><trkpt lat="43.8353819" lon="12.5431044"><ele>590.0</ele><time>2026-05-02T13:09:46.197Z</time></trkpt><trkpt lat="43.8355167" lon="12.5431305"><ele>590.0</ele><time>2026-05-02T13:09:47.189Z</time></trkpt><trkpt lat="43.8356547" lon="12.5431116"><ele>590.0</ele><time>2026-05-02T13:09:48.197Z</time></trkpt><trkpt lat="43.8358003" lon="12.5430338"><ele>590.0</ele><time>2026-05-02T13:09:49.185Z</time></trkpt><trkpt lat="43.8359323" lon="12.5429422"><ele>590.0</ele><time>2026-05-02T13:09:50.172Z</time></trkpt><trkpt lat="43.836051" lon="12.5428522"><ele>590.0</ele><time>2026-05-02T13:09:51.178Z</time></trkpt><trkpt lat="43.8361512" lon="12.5427805"><ele>590.0</ele><time>2026-05-02T13:09:52.208Z</time></trkpt><trkpt lat="43.8362263" lon="12.5427076"><ele>592.3333333333333</ele><time>2026-05-02T13:09:53.181Z</time></trkpt><trkpt lat="43.8362663" lon="12.542625"><ele>594.6666666666666</ele><time>2026-05-02T13:09:54.195Z</time></trkpt><trkpt lat="43.8362621" lon="12.5425292"><ele>597.0</ele><time>2026-05-02T13:09:55.203Z</time></trkpt><trkpt lat="43.8362122" lon="12.5424369"><ele>599.3333333333334</ele><time>2026-05-02T13:09:56.185Z</time></trkpt><trkpt lat="43.8361316" lon="12.5423645"><ele>601.6666666666667</ele><time>2026-05-02T13:09:57.184Z</time></trkpt><trkpt lat="43.8360233" lon="12.5423681"><ele>604.0</ele><time>2026-05-02T13:09:58.182Z</time></trkpt><trkpt lat="43.8359211" lon="12.5424125"><ele>604.0</ele><time>2026-05-02T13:09:59.186Z</time></trkpt><trkpt lat="43.8358194" lon="12.5424869"><ele>604.0</ele><time>2026-05-02T13:10:00.193Z</time></trkpt><trkpt lat="43.835724" lon="12.5425773"><ele>604.0</ele><time>2026-05-02T13:10:01.197Z</time></trkpt><trkpt lat="43.8356451" lon="12.5426579"><ele>604.0</ele><time>2026-05-02T13:10:02.181Z</time></trkpt><trkpt lat="43.8355709" lon="12.5427248"><ele>604.0</ele><time>2026-05-02T13:10:03.188Z</time></trkpt><trkpt lat="43.8354911" lon="12.5427752"><ele>604.0</ele><time>2026-05-02T13:10:04.202Z</time></trkpt><trkpt lat="43.8354185" lon="12.5427943"><ele>604.0</ele><time>2026-05-02T13:10:05.212Z</time></trkpt><trkpt lat="43.8353719" lon="12.5427147"><ele>604.0</ele><time>2026-05-02T13:10:06.195Z</time></trkpt><trkpt lat="43.8353773" lon="12.5425435"><ele>604.0</ele><time>2026-05-02T13:10:07.188Z</time></trkpt><trkpt lat="43.8354443" lon="12.5423953"><ele>604.0</ele><time>2026-05-02T13:10:08.196Z</time></trkpt><trkpt lat="43.8355237" lon="12.5422891"><ele>604.0</ele><time>2026-05-02T13:10:09.187Z</time></trkpt><trkpt lat="43.8356261" lon="12.5421993"><ele>604.0</ele><time>2026-05-02T13:10:10.2Z</time></trkpt><trkpt lat="43.8357333" lon="12.5420969"><ele>604.0</ele><time>2026-05-02T13:10:11.196Z</time></trkpt><trkpt lat="43.8358528" lon="12.541987"><ele>604.0</ele><time>2026-05-02T13:10:12.203Z</time></trkpt><trkpt lat="43.835987" lon="12.5419039"><ele>607.6666666666667</ele><time>2026-05-02T13:10:13.197Z</time></trkpt><trkpt lat="43.836135" lon="12.5418399"><ele>611.3333333333334</ele><time>2026-05-02T13:10:14.193Z</time></trkpt><trkpt lat="43.8362849" lon="12.5417854"><ele>615.0</ele><time>2026-05-02T13:10:15.174Z</time></trkpt><trkpt lat="43.8364324" lon="12.541741"><ele>615.0</ele><time>2026-05-02T13:10:16.206Z</time></trkpt><trkpt lat="43.8365905" lon="12.5417019"><ele>615.0</ele><time>2026-05-02T13:10:17.202Z</time></trkpt><trkpt lat="43.8367473" lon="12.5416641"><ele>615.0</ele><time>2026-05-02T13:10:18.202Z</time></trkpt><trkpt lat="43.8369027" lon="12.5416199"><ele>614.6666666666666</ele><time>2026-05-02T13:10:19.184Z</time></trkpt><trkpt lat="43.837061" lon="12.5415778"><ele>614.3333333333333</ele><time>2026-05-02T13:10:20.199Z</time></trkpt><trkpt lat="43.8372173" lon="12.5415344"><ele>614.0</ele><time>2026-05-02T13:10:21.198Z</time></trkpt><trkpt lat="43.8373691" lon="12.5414936"><ele>614.0</ele><time>2026-05-02T13:10:22.185Z</time></trkpt><trkpt lat="43.8375115" lon="12.5414527"><ele>614.0</ele><time>2026-05-02T13:10:23.192Z</time></trkpt><trkpt lat="43.837645" lon="12.5413977"><ele>614.0</ele><time>2026-05-02T13:10:24.213Z</time></trkpt><trkpt lat="43.8377731" lon="12.5413356"><ele>614.0</ele><time>2026-05-02T13:10:25.176Z</time></trkpt><trkpt lat="43.8378924" lon="12.5412458"><ele>614.75</ele><time>2026-05-02T13:10:26.195Z</time></trkpt><trkpt lat="43.8379733" lon="12.5411032"><ele>615.5</ele><time>2026-05-02T13:10:27.185Z</time></trkpt><trkpt lat="43.8380358" lon="12.5409133"><ele>616.25</ele><time>2026-05-02T13:10:28.187Z</time></trkpt><trkpt lat="43.8380691" lon="12.5407184"><ele>617.0</ele><time>2026-05-02T13:10:29.167Z</time></trkpt><trkpt lat="43.8380982" lon="12.5405372"><ele>617.75</ele><time>2026-05-02T13:10:30.195Z</time></trkpt><trkpt lat="43.8381298" lon="12.5403662"><ele>618.5</ele><time>2026-05-02T13:10:31.18Z</time></trkpt><trkpt lat="43.8381895" lon="12.5402062"><ele>619.25</ele><time>2026-05-02T13:10:32.197Z</time></trkpt><trkpt lat="43.8382687" lon="12.5400695"><ele>620.0</ele><time>2026-05-02T13:10:33.199Z</time></trkpt><trkpt lat="43.8383577" lon="12.5399742"><ele>620.0</ele><time>2026-05-02T13:10:34.192Z</time></trkpt><trkpt lat="43.838449" lon="12.5399171"><ele>620.0</ele><time>2026-05-02T13:10:35.178Z</time></trkpt><trkpt lat="43.8385281" lon="12.5398818"><ele>620.0</ele><time>2026-05-02T13:10:36.193Z</time></trkpt><trkpt lat="43.8386173" lon="12.5398578"><ele>620.0</ele><time>2026-05-02T13:10:38.201Z</time></trkpt><trkpt lat="43.8386856" lon="12.5398348"><ele>620.0</ele><time>2026-05-02T13:10:40.177Z</time></trkpt><trkpt lat="43.838745" lon="12.5398045"><ele>620.0</ele><time>2026-05-02T13:10:42.189Z</time></trkpt><trkpt lat="43.8388095" lon="12.5397587"><ele>620.0</ele><time>2026-05-02T13:10:45.18Z</time></trkpt><trkpt lat="43.8387295" lon="12.5397517"><ele>620.0</ele><time>2026-05-02T13:10:49.192Z</time></trkpt><trkpt lat="43.8385916" lon="12.5398222"><ele>620.0</ele><time>2026-05-02T13:10:51.184Z</time></trkpt><trkpt lat="43.8384839" lon="12.5398804"><ele>620.0</ele><time>2026-05-02T13:10:52.181Z</time></trkpt><trkpt lat="43.8383735" lon="12.5399457"><ele>620.0</ele><time>2026-05-02T13:10:53.192Z</time></trkpt><trkpt lat="43.8382615" lon="12.5400481"><ele>620.0</ele><time>2026-05-02T13:10:54.193Z</time></trkpt><trkpt lat="43.838179" lon="12.5401788"><ele>620.0</ele><time>2026-05-02T13:10:55.202Z</time></trkpt><trkpt lat="43.8381333" lon="12.5403264"><ele>620.0</ele><time>2026-05-02T13:10:56.188Z</time></trkpt><trkpt lat="43.8381008" lon="12.5404583"><ele>619.5</ele><time>2026-05-02T13:10:57.175Z</time></trkpt><trkpt lat="43.838074" lon="12.5405917"><ele>619.0</ele><time>2026-05-02T13:10:58.204Z</time></trkpt><trkpt lat="43.8380476" lon="12.5407163"><ele>618.5</ele><time>2026-05-02T13:10:59.189Z</time></trkpt><trkpt lat="43.8380297" lon="12.5408117"><ele>618.0</ele><time>2026-05-02T13:11:01.199Z</time></trkpt><trkpt lat="43.837971" lon="12.5407501"><ele>617.5</ele><time>2026-05-02T13:11:17.193Z</time></trkpt><trkpt lat="43.8379313" lon="12.5406383"><ele>617.0</ele><time>2026-05-02T13:11:19.181Z</time></trkpt><trkpt lat="43.837886" lon="12.540537"><ele>617.0</ele><time>2026-05-02T13:11:21.204Z</time></trkpt><trkpt lat="43.8378501" lon="12.5404601"><ele>617.0</ele><time>2026-05-02T13:11:23.188Z</time></trkpt><trkpt lat="43.8378637" lon="12.5403623"><ele>617.0</ele><time>2026-05-02T13:11:33.192Z</time></trkpt><trkpt lat="43.837869" lon="12.5402407"><ele>617.0</ele><time>2026-05-02T13:11:36.187Z</time></trkpt><trkpt lat="43.8378913" lon="12.5401343"><ele>617.0</ele><time>2026-05-02T13:11:39.184Z</time></trkpt><trkpt lat="43.8378618" lon="12.5402338"><ele>617.0</ele><time>2026-05-02T13:11:57.194Z</time></trkpt><trkpt lat="43.8378501" lon="12.54036"><ele>617.0</ele><time>2026-05-02T13:12:00.193Z</time></trkpt><trkpt lat="43.8378755" lon="12.5404688"><ele>617.0</ele><time>2026-05-02T13:12:02.172Z</time></trkpt><trkpt lat="43.837901" lon="12.5405609"><ele>617.0</ele><time>2026-05-02T13:12:04.173Z</time></trkpt><trkpt lat="43.8379328" lon="12.5406591"><ele>617.0</ele><time>2026-05-02T13:12:06.168Z</time></trkpt><trkpt lat="43.8379712" lon="12.5407777"><ele>617.0</ele><time>2026-05-02T13:12:08.192Z</time></trkpt><trkpt lat="43.8380161" lon="12.5408425"><ele>617.0</ele><time>2026-05-02T13:12:11.191Z</time></trkpt><trkpt lat="43.8380873" lon="12.5407405"><ele>617.0</ele><time>2026-05-02T13:12:14.182Z</time></trkpt><trkpt lat="43.8380916" lon="12.5406328"><ele>617.0</ele><time>2026-05-02T13:12:15.175Z</time></trkpt><trkpt lat="43.838102" lon="12.5404915"><ele>617.0</ele><time>2026-05-02T13:12:16.192Z</time></trkpt><trkpt lat="43.8381423" lon="12.5403144"><ele>617.0</ele><time>2026-05-02T13:12:17.201Z</time></trkpt><trkpt lat="43.8382099" lon="12.5401549"><ele>617.0</ele><time>2026-05-02T13:12:18.194Z</time></trkpt><trkpt lat="43.8383019" lon="12.5400297"><ele>617.6</ele><time>2026-05-02T13:12:19.17Z</time></trkpt><trkpt lat="43.8383864" lon="12.5399492"><ele>618.2</ele><time>2026-05-02T13:12:20.165Z</time></trkpt><trkpt lat="43.8384756" lon="12.5399017"><ele>618.8</ele><time>2026-05-02T13:12:21.171Z</time></trkpt><trkpt lat="43.8385626" lon="12.5398728"><ele>619.4</ele><time>2026-05-02T13:12:22.183Z</time></trkpt><trkpt lat="43.8386459" lon="12.5398406"><ele>620.0</ele><time>2026-05-02T13:12:23.205Z</time></trkpt><trkpt lat="43.8387309" lon="12.539796"><ele>618.25</ele><time>2026-05-02T13:12:24.197Z</time></trkpt><trkpt lat="43.8388285" lon="12.5397508"><ele>616.5</ele><time>2026-05-02T13:12:25.199Z</time></trkpt><trkpt lat="43.8389507" lon="12.5396956"><ele>614.75</ele><time>2026-05-02T13:12:26.182Z</time></trkpt><trkpt lat="43.8390712" lon="12.5396312"><ele>613.0</ele><time>2026-05-02T13:12:27.186Z</time></trkpt><trkpt lat="43.8391767" lon="12.5395765"><ele>612.4</ele><time>2026-05-02T13:12:28.179Z</time></trkpt><trkpt lat="43.8392787" lon="12.5395305"><ele>611.8</ele><time>2026-05-02T13:12:29.188Z</time></trkpt><trkpt lat="43.8393745" lon="12.5394745"><ele>611.2</ele><time>2026-05-02T13:12:30.176Z</time></trkpt><trkpt lat="43.8394679" lon="12.5394188"><ele>610.6</ele><time>2026-05-02T13:12:31.191Z</time></trkpt><trkpt lat="43.8395566" lon="12.5393669"><ele>610.0</ele><time>2026-05-02T13:12:32.214Z</time></trkpt><trkpt lat="43.8396477" lon="12.539319"><ele>610.0</ele><time>2026-05-02T13:12:33.205Z</time></trkpt><trkpt lat="43.8397369" lon="12.5392759"><ele>610.0</ele><time>2026-05-02T13:12:34.186Z</time></trkpt><trkpt lat="43.839827" lon="12.5392301"><ele>610.0</ele><time>2026-05-02T13:12:35.194Z</time></trkpt><trkpt lat="43.8399122" lon="12.5391843"><ele>610.0</ele><time>2026-05-02T13:12:36.194Z</time></trkpt><trkpt lat="43.8399938" lon="12.5391432"><ele>610.0</ele><time>2026-05-02T13:12:37.196Z</time></trkpt><trkpt lat="43.8400772" lon="12.5391141"><ele>607.8333333333334</ele><time>2026-05-02T13:12:38.208Z</time></trkpt><trkpt lat="43.8401635" lon="12.5391112"><ele>605.6666666666667</ele><time>2026-05-02T13:12:39.191Z</time></trkpt><trkpt lat="43.8402499" lon="12.5391305"><ele>603.5</ele><time>2026-05-02T13:12:40.197Z</time></trkpt><trkpt lat="43.8403207" lon="12.5391931"><ele>601.3333333333334</ele><time>2026-05-02T13:12:41.189Z</time></trkpt><trkpt lat="43.8403662" lon="12.5393081"><ele>599.1666666666666</ele><time>2026-05-02T13:12:42.168Z</time></trkpt><trkpt lat="43.8403676" lon="12.5394396"><ele>597.0</ele><time>2026-05-02T13:12:43.186Z</time></trkpt><trkpt lat="43.8403436" lon="12.5395729"><ele>596.4</ele><time>2026-05-02T13:12:44.201Z</time></trkpt><trkpt lat="43.840291" lon="12.539673"><ele>595.8000000000001</ele><time>2026-05-02T13:12:45.212Z</time></trkpt><trkpt lat="43.8402309" lon="12.539778"><ele>595.2</ele><time>2026-05-02T13:12:46.192Z</time></trkpt><trkpt lat="43.8401702" lon="12.5398774"><ele>594.6</ele><time>2026-05-02T13:12:47.191Z</time></trkpt><trkpt lat="43.8401205" lon="12.5399842"><ele>594.0</ele><time>2026-05-02T13:12:48.198Z</time></trkpt><trkpt lat="43.8400942" lon="12.540099"><ele>594.0</ele><time>2026-05-02T13:12:49.2Z</time></trkpt><trkpt lat="43.8400972" lon="12.5402218"><ele>594.0</ele><time>2026-05-02T13:12:50.199Z</time></trkpt><trkpt lat="43.840134" lon="12.5403352"><ele>594.0</ele><time>2026-05-02T13:12:51.179Z</time></trkpt><trkpt lat="43.840208" lon="12.5404129"><ele>594.0</ele><time>2026-05-02T13:12:52.189Z</time></trkpt><trkpt lat="43.8403127" lon="12.5404366"><ele>594.0</ele><time>2026-05-02T13:12:53.182Z</time></trkpt><trkpt lat="43.8404297" lon="12.540403"><ele>594.0</ele><time>2026-05-02T13:12:54.197Z</time></trkpt><trkpt lat="43.8405362" lon="12.5403353"><ele>594.0</ele><time>2026-05-02T13:12:55.202Z</time></trkpt><trkpt lat="43.8406356" lon="12.5402464"><ele>594.0</ele><time>2026-05-02T13:12:56.197Z</time></trkpt><trkpt lat="43.8407356" lon="12.5401611"><ele>594.0</ele><time>2026-05-02T13:12:57.198Z</time></trkpt><trkpt lat="43.8408382" lon="12.5400703"><ele>594.0</ele><time>2026-05-02T13:12:58.2Z</time></trkpt><trkpt lat="43.8409286" lon="12.5399674"><ele>594.0</ele><time>2026-05-02T13:12:59.203Z</time></trkpt><trkpt lat="43.8409951" lon="12.5398394"><ele>594.0</ele><time>2026-05-02T13:13:00.193Z</time></trkpt><trkpt lat="43.841036" lon="12.5397189"><ele>594.0</ele><time>2026-05-02T13:13:01.187Z</time></trkpt><trkpt lat="43.8410548" lon="12.5395713"><ele>594.0</ele><time>2026-05-02T13:13:02.19Z</time></trkpt><trkpt lat="43.8410576" lon="12.5394283"><ele>589.8</ele><time>2026-05-02T13:13:03.178Z</time></trkpt><trkpt lat="43.8410414" lon="12.5392941"><ele>585.5999999999999</ele><time>2026-05-02T13:13:04.203Z</time></trkpt><trkpt lat="43.8410196" lon="12.5391642"><ele>581.4</ele><time>2026-05-02T13:13:05.204Z</time></trkpt><trkpt lat="43.8410056" lon="12.5390375"><ele>577.1999999999999</ele><time>2026-05-02T13:13:06.204Z</time></trkpt><trkpt lat="43.8409969" lon="12.5389051"><ele>573.0</ele><time>2026-05-02T13:13:07.191Z</time></trkpt><trkpt lat="43.8409819" lon="12.53875"><ele>577.75</ele><time>2026-05-02T13:13:08.194Z</time></trkpt><trkpt lat="43.8409648" lon="12.5385594"><ele>582.5</ele><time>2026-05-02T13:13:09.202Z</time></trkpt><trkpt lat="43.8409621" lon="12.5383612"><ele>587.25</ele><time>2026-05-02T13:13:10.191Z</time></trkpt><trkpt lat="43.8409592" lon="12.5381661"><ele>592.0</ele><time>2026-05-02T13:13:11.211Z</time></trkpt><trkpt lat="43.8409583" lon="12.5379795"><ele>590.25</ele><time>2026-05-02T13:13:12.202Z</time></trkpt><trkpt lat="43.8409464" lon="12.5377976"><ele>588.5</ele><time>2026-05-02T13:13:13.19Z</time></trkpt><trkpt lat="43.8409308" lon="12.5376182"><ele>586.75</ele><time>2026-05-02T13:13:14.201Z</time></trkpt><trkpt lat="43.8409101" lon="12.5374323"><ele>585.0</ele><time>2026-05-02T13:13:15.206Z</time></trkpt><trkpt lat="43.8408866" lon="12.537251"><ele>585.0</ele><time>2026-05-02T13:13:16.19Z</time></trkpt><trkpt lat="43.8408655" lon="12.5370748"><ele>585.0</ele><time>2026-05-02T13:13:17.181Z</time></trkpt><trkpt lat="43.8408398" lon="12.536915"><ele>585.0</ele><time>2026-05-02T13:13:18.217Z</time></trkpt><trkpt lat="43.8408066" lon="12.5367566"><ele>585.0</ele><time>2026-05-02T13:13:19.179Z</time></trkpt><trkpt lat="43.8407663" lon="12.5366077"><ele>584.6</ele><time>2026-05-02T13:13:20.205Z</time></trkpt><trkpt lat="43.8407284" lon="12.5364562"><ele>584.2</ele><time>2026-05-02T13:13:21.198Z</time></trkpt><trkpt lat="43.8406919" lon="12.5363055"><ele>583.8</ele><time>2026-05-02T13:13:22.208Z</time></trkpt><trkpt lat="43.8406674" lon="12.5361593"><ele>583.4</ele><time>2026-05-02T13:13:23.199Z</time></trkpt><trkpt lat="43.8406576" lon="12.536012"><ele>583.0</ele><time>2026-05-02T13:13:24.208Z</time></trkpt><trkpt lat="43.8406625" lon="12.53587"><ele>580.5</ele><time>2026-05-02T13:13:25.19Z</time></trkpt><trkpt lat="43.8406819" lon="12.5357275"><ele>578.0</ele><time>2026-05-02T13:13:26.206Z</time></trkpt><trkpt lat="43.8407321" lon="12.5355881"><ele>575.5</ele><time>2026-05-02T13:13:27.201Z</time></trkpt><trkpt lat="43.8408152" lon="12.5354499"><ele>573.0</ele><time>2026-05-02T13:13:28.197Z</time></trkpt><trkpt lat="43.8409234" lon="12.5353046"><ele>570.6666666666666</ele><time>2026-05-02T13:13:29.174Z</time></trkpt><trkpt lat="43.8410437" lon="12.5351612"><ele>568.3333333333333</ele><time>2026-05-02T13:13:30.194Z</time></trkpt><trkpt lat="43.8411707" lon="12.5350228"><ele>566.0</ele><time>2026-05-02T13:13:31.211Z</time></trkpt><trkpt lat="43.8413011" lon="12.5348873"><ele>566.0</ele><time>2026-05-02T13:13:32.206Z</time></trkpt><trkpt lat="43.8414381" lon="12.5347535"><ele>566.0</ele><time>2026-05-02T13:13:33.205Z</time></trkpt><trkpt lat="43.8415801" lon="12.5346214"><ele>566.0</ele><time>2026-05-02T13:13:34.216Z</time></trkpt><trkpt lat="43.8417162" lon="12.5344908"><ele>568.6666666666666</ele><time>2026-05-02T13:13:35.195Z</time></trkpt><trkpt lat="43.8418448" lon="12.5343624"><ele>571.3333333333334</ele><time>2026-05-02T13:13:36.18Z</time></trkpt><trkpt lat="43.8419696" lon="12.5342372"><ele>574.0</ele><time>2026-05-02T13:13:37.193Z</time></trkpt><trkpt lat="43.8420888" lon="12.5341143"><ele>574.0</ele><time>2026-05-02T13:13:38.198Z</time></trkpt><trkpt lat="43.8422032" lon="12.5339916"><ele>574.0</ele><time>2026-05-02T13:13:39.202Z</time></trkpt><trkpt lat="43.8423113" lon="12.5338535"><ele>574.0</ele><time>2026-05-02T13:13:40.214Z</time></trkpt><trkpt lat="43.8424149" lon="12.5336901"><ele>574.0</ele><time>2026-05-02T13:13:41.197Z</time></trkpt><trkpt lat="43.8425108" lon="12.5335229"><ele>574.75</ele><time>2026-05-02T13:13:42.206Z</time></trkpt><trkpt lat="43.8425986" lon="12.5333522"><ele>575.5</ele><time>2026-05-02T13:13:43.197Z</time></trkpt><trkpt lat="43.8426724" lon="12.533182"><ele>576.25</ele><time>2026-05-02T13:13:44.196Z</time></trkpt><trkpt lat="43.8427417" lon="12.5330159"><ele>577.0</ele><time>2026-05-02T13:13:45.173Z</time></trkpt><trkpt lat="43.8428063" lon="12.532845"><ele>577.0</ele><time>2026-05-02T13:13:46.165Z</time></trkpt><trkpt lat="43.8428707" lon="12.5326723"><ele>577.0</ele><time>2026-05-02T13:13:47.201Z</time></trkpt><trkpt lat="43.8429343" lon="12.532505"><ele>577.0</ele><time>2026-05-02T13:13:48.184Z</time></trkpt><trkpt lat="43.843015" lon="12.5323547"><ele>577.0</ele><time>2026-05-02T13:13:49.199Z</time></trkpt><trkpt lat="43.843117" lon="12.5322137"><ele>577.0</ele><time>2026-05-02T13:13:50.193Z</time></trkpt><trkpt lat="43.8432191" lon="12.5320657"><ele>577.0</ele><time>2026-05-02T13:13:51.19Z</time></trkpt><trkpt lat="43.8433326" lon="12.5319116"><ele>577.0</ele><time>2026-05-02T13:13:52.204Z</time></trkpt><trkpt lat="43.8434422" lon="12.5317603"><ele>570.0</ele><time>2026-05-02T13:13:53.217Z</time></trkpt><trkpt lat="43.8435507" lon="12.5316082"><ele>563.0</ele><time>2026-05-02T13:13:54.206Z</time></trkpt><trkpt lat="43.8436625" lon="12.5314653"><ele>556.0</ele><time>2026-05-02T13:13:55.203Z</time></trkpt><trkpt lat="43.8437774" lon="12.5313185"><ele>551.0</ele><time>2026-05-02T13:13:56.18Z</time></trkpt><trkpt lat="43.8438899" lon="12.5311783"><ele>546.0</ele><time>2026-05-02T13:13:57.207Z</time></trkpt><trkpt lat="43.8440043" lon="12.5310426"><ele>541.0</ele><time>2026-05-02T13:13:58.199Z</time></trkpt><trkpt lat="43.8441251" lon="12.5309246"><ele>541.0</ele><time>2026-05-02T13:13:59.199Z</time></trkpt><trkpt lat="43.8442586" lon="12.5308344"><ele>541.0</ele><time>2026-05-02T13:14:00.193Z</time></trkpt><trkpt lat="43.8444166" lon="12.5307539"><ele>541.0</ele><time>2026-05-02T13:14:01.204Z</time></trkpt><trkpt lat="43.8445899" lon="12.530676"><ele>540.3333333333334</ele><time>2026-05-02T13:14:02.192Z</time></trkpt><trkpt lat="43.8447715" lon="12.5306069"><ele>539.6666666666666</ele><time>2026-05-02T13:14:03.198Z</time></trkpt><trkpt lat="43.8449577" lon="12.5305422"><ele>539.0</ele><time>2026-05-02T13:14:04.201Z</time></trkpt><trkpt lat="43.8451396" lon="12.5304872"><ele>538.6666666666666</ele><time>2026-05-02T13:14:05.197Z</time></trkpt><trkpt lat="43.8453148" lon="12.5304238"><ele>538.3333333333334</ele><time>2026-05-02T13:14:06.192Z</time></trkpt><trkpt lat="43.8454849" lon="12.5303516"><ele>538.0</ele><time>2026-05-02T13:14:07.189Z</time></trkpt><trkpt lat="43.8456548" lon="12.5302848"><ele>538.0</ele><time>2026-05-02T13:14:08.183Z</time></trkpt><trkpt lat="43.8458263" lon="12.5302262"><ele>538.0</ele><time>2026-05-02T13:14:09.19Z</time></trkpt><trkpt lat="43.8459982" lon="12.5301664"><ele>538.0</ele><time>2026-05-02T13:14:10.189Z</time></trkpt><trkpt lat="43.8461659" lon="12.530105"><ele>535.3333333333334</ele><time>2026-05-02T13:14:11.199Z</time></trkpt><trkpt lat="43.8463255" lon="12.5300444"><ele>532.6666666666666</ele><time>2026-05-02T13:14:12.199Z</time></trkpt><trkpt lat="43.8464855" lon="12.5299865"><ele>530.0</ele><time>2026-05-02T13:14:13.202Z</time></trkpt><trkpt lat="43.8466344" lon="12.5299227"><ele>530.0</ele><time>2026-05-02T13:14:14.19Z</time></trkpt><trkpt lat="43.8467821" lon="12.5298631"><ele>530.0</ele><time>2026-05-02T13:14:15.184Z</time></trkpt><trkpt lat="43.846916" lon="12.5297998"><ele>530.0</ele><time>2026-05-02T13:14:16.18Z</time></trkpt><trkpt lat="43.8470417" lon="12.5297263"><ele>530.0</ele><time>2026-05-02T13:14:17.184Z</time></trkpt><trkpt lat="43.8471586" lon="12.5296362"><ele>528.25</ele><time>2026-05-02T13:14:18.197Z</time></trkpt><trkpt lat="43.8472641" lon="12.5295224"><ele>526.5</ele><time>2026-05-02T13:14:19.176Z</time></trkpt><trkpt lat="43.8473558" lon="12.5293959"><ele>524.75</ele><time>2026-05-02T13:14:20.195Z</time></trkpt><trkpt lat="43.8474346" lon="12.5292224"><ele>523.0</ele><time>2026-05-02T13:14:21.223Z</time></trkpt><trkpt lat="43.8474924" lon="12.5290352"><ele>523.0</ele><time>2026-05-02T13:14:22.205Z</time></trkpt><trkpt lat="43.8475491" lon="12.5288281"><ele>523.0</ele><time>2026-05-02T13:14:23.189Z</time></trkpt><trkpt lat="43.8476051" lon="12.5286348"><ele>523.0</ele><time>2026-05-02T13:14:24.189Z</time></trkpt><trkpt lat="43.8476598" lon="12.5284452"><ele>517.5</ele><time>2026-05-02T13:14:25.191Z</time></trkpt><trkpt lat="43.8477006" lon="12.5282388"><ele>512.0</ele><time>2026-05-02T13:14:26.203Z</time></trkpt><trkpt lat="43.8477159" lon="12.5280449"><ele>506.5</ele><time>2026-05-02T13:14:27.19Z</time></trkpt><trkpt lat="43.8477171" lon="12.5278543"><ele>501.0</ele><time>2026-05-02T13:14:28.196Z</time></trkpt><trkpt lat="43.8477041" lon="12.5276611"><ele>500.75</ele><time>2026-05-02T13:14:29.19Z</time></trkpt><trkpt lat="43.8476767" lon="12.5274793"><ele>500.5</ele><time>2026-05-02T13:14:30.204Z</time></trkpt><trkpt lat="43.8476451" lon="12.5272915"><ele>500.25</ele><time>2026-05-02T13:14:31.211Z</time></trkpt><trkpt lat="43.8476203" lon="12.5271197"><ele>500.0</ele><time>2026-05-02T13:14:32.2Z</time></trkpt><trkpt lat="43.8476063" lon="12.5269561"><ele>500.75</ele><time>2026-05-02T13:14:33.196Z</time></trkpt><trkpt lat="43.8476153" lon="12.5267882"><ele>501.5</ele><time>2026-05-02T13:14:34.189Z</time></trkpt><trkpt lat="43.8476624" lon="12.5266405"><ele>502.25</ele><time>2026-05-02T13:14:35.192Z</time></trkpt><trkpt lat="43.8477414" lon="12.5265183"><ele>503.0</ele><time>2026-05-02T13:14:36.176Z</time></trkpt><trkpt lat="43.8478583" lon="12.5264052"><ele>503.0</ele><time>2026-05-02T13:14:37.188Z</time></trkpt><trkpt lat="43.8479784" lon="12.5263372"><ele>503.0</ele><time>2026-05-02T13:14:38.19Z</time></trkpt><trkpt lat="43.8481097" lon="12.5263095"><ele>503.0</ele><time>2026-05-02T13:14:39.179Z</time></trkpt><trkpt lat="43.8482352" lon="12.5263479"><ele>503.0</ele><time>2026-05-02T13:14:40.192Z</time></trkpt><trkpt lat="43.8483684" lon="12.5264233"><ele>501.66666666666663</ele><time>2026-05-02T13:14:41.182Z</time></trkpt><trkpt lat="43.8485067" lon="12.526524"><ele>500.33333333333337</ele><time>2026-05-02T13:14:42.166Z</time></trkpt><trkpt lat="43.8486441" lon="12.5266631"><ele>499.0</ele><time>2026-05-02T13:14:43.203Z</time></trkpt><trkpt lat="43.8487746" lon="12.5268055"><ele>499.0</ele><time>2026-05-02T13:14:44.181Z</time></trkpt><trkpt lat="43.8489027" lon="12.5269451"><ele>499.0</ele><time>2026-05-02T13:14:45.19Z</time></trkpt><trkpt lat="43.8490302" lon="12.5270692"><ele>499.0</ele><time>2026-05-02T13:14:46.184Z</time></trkpt><trkpt lat="43.8491514" lon="12.5271984"><ele>497.25</ele><time>2026-05-02T13:14:47.187Z</time></trkpt><trkpt lat="43.8492667" lon="12.5273291"><ele>495.5</ele><time>2026-05-02T13:14:48.184Z</time></trkpt><trkpt lat="43.8493795" lon="12.527456"><ele>493.75</ele><time>2026-05-02T13:14:49.207Z</time></trkpt><trkpt lat="43.8494905" lon="12.5275849"><ele>492.0</ele><time>2026-05-02T13:14:50.181Z</time></trkpt><trkpt lat="43.8496075" lon="12.5277211"><ele>490.0</ele><time>2026-05-02T13:14:51.193Z</time></trkpt><trkpt lat="43.8497287" lon="12.5278557"><ele>488.0</ele><time>2026-05-02T13:14:52.193Z</time></trkpt><trkpt lat="43.849853" lon="12.5279844"><ele>486.0</ele><time>2026-05-02T13:14:53.192Z</time></trkpt><trkpt lat="43.8499853" lon="12.528087"><ele>484.25</ele><time>2026-05-02T13:14:54.221Z</time></trkpt><trkpt lat="43.8501203" lon="12.5281529"><ele>482.5</ele><time>2026-05-02T13:14:55.192Z</time></trkpt><trkpt lat="43.8502594" lon="12.5281885"><ele>480.75</ele><time>2026-05-02T13:14:56.19Z</time></trkpt><trkpt lat="43.8503943" lon="12.5282011"><ele>479.0</ele><time>2026-05-02T13:14:57.185Z</time></trkpt><trkpt lat="43.8505058" lon="12.5281648"><ele>477.25</ele><time>2026-05-02T13:14:58.198Z</time></trkpt><trkpt lat="43.8505916" lon="12.528063"><ele>475.5</ele><time>2026-05-02T13:14:59.197Z</time></trkpt><trkpt lat="43.8506412" lon="12.5279316"><ele>473.75</ele><time>2026-05-02T13:15:00.187Z</time></trkpt><trkpt lat="43.8506527" lon="12.5277778"><ele>472.0</ele><time>2026-05-02T13:15:01.173Z</time></trkpt><trkpt lat="43.850633" lon="12.5276101"><ele>470.6666666666667</ele><time>2026-05-02T13:15:02.194Z</time></trkpt><trkpt lat="43.8505817" lon="12.5274358"><ele>469.33333333333337</ele><time>2026-05-02T13:15:03.197Z</time></trkpt><trkpt lat="43.8505097" lon="12.5272481"><ele>468.0</ele><time>2026-05-02T13:15:04.162Z</time></trkpt><trkpt lat="43.8504315" lon="12.5270391"><ele>466.33333333333337</ele><time>2026-05-02T13:15:05.181Z</time></trkpt><trkpt lat="43.8503572" lon="12.5268464"><ele>464.6666666666667</ele><time>2026-05-02T13:15:06.203Z</time></trkpt><trkpt lat="43.8502848" lon="12.5266603"><ele>463.0</ele><time>2026-05-02T13:15:07.191Z</time></trkpt><trkpt lat="43.8502215" lon="12.5264765"><ele>463.0</ele><time>2026-05-02T13:15:08.174Z</time></trkpt><trkpt lat="43.850183" lon="12.5262736"><ele>463.0</ele><time>2026-05-02T13:15:09.197Z</time></trkpt><trkpt lat="43.8501545" lon="12.5260477"><ele>463.0</ele><time>2026-05-02T13:15:10.177Z</time></trkpt><trkpt lat="43.8501164" lon="12.5258196"><ele>462.6666666666667</ele><time>2026-05-02T13:15:11.182Z</time></trkpt><trkpt lat="43.850056" lon="12.5255984"><ele>462.33333333333337</ele><time>2026-05-02T13:15:12.197Z</time></trkpt><trkpt lat="43.8499877" lon="12.525383"><ele>462.0</ele><time>2026-05-02T13:15:13.21Z</time></trkpt><trkpt lat="43.8499162" lon="12.5251842"><ele>462.0</ele><time>2026-05-02T13:15:14.191Z</time></trkpt><trkpt lat="43.8498502" lon="12.5249932"><ele>462.0</ele><time>2026-05-02T13:15:15.177Z</time></trkpt><trkpt lat="43.8497892" lon="12.5248008"><ele>462.0</ele><time>2026-05-02T13:15:16.198Z</time></trkpt><trkpt lat="43.849733" lon="12.5246114"><ele>460.25</ele><time>2026-05-02T13:15:17.204Z</time></trkpt><trkpt lat="43.8496774" lon="12.5244305"><ele>458.5</ele><time>2026-05-02T13:15:18.187Z</time></trkpt><trkpt lat="43.849624" lon="12.5242532"><ele>456.75</ele><time>2026-05-02T13:15:19.194Z</time></trkpt><trkpt lat="43.8495658" lon="12.5240744"><ele>455.0</ele><time>2026-05-02T13:15:20.197Z</time></trkpt><trkpt lat="43.8495006" lon="12.5238791"><ele>454.66666666666663</ele><time>2026-05-02T13:15:21.189Z</time></trkpt><trkpt lat="43.8494288" lon="12.5236741"><ele>454.33333333333337</ele><time>2026-05-02T13:15:22.201Z</time></trkpt><trkpt lat="43.849357" lon="12.5234724"><ele>454.0</ele><time>2026-05-02T13:15:23.195Z</time></trkpt><trkpt lat="43.8492949" lon="12.5232751"><ele>453.33333333333337</ele><time>2026-05-02T13:15:24.206Z</time></trkpt><trkpt lat="43.8492332" lon="12.5230741"><ele>452.66666666666663</ele><time>2026-05-02T13:15:25.195Z</time></trkpt><trkpt lat="43.8491738" lon="12.5228715"><ele>452.0</ele><time>2026-05-02T13:15:26.171Z</time></trkpt><trkpt lat="43.8491139" lon="12.5226651"><ele>452.0</ele><time>2026-05-02T13:15:27.178Z</time></trkpt><trkpt lat="43.8490547" lon="12.5224765"><ele>452.0</ele><time>2026-05-02T13:15:28.185Z</time></trkpt><trkpt lat="43.8489871" lon="12.5222885"><ele>452.0</ele><time>2026-05-02T13:15:29.192Z</time></trkpt><trkpt lat="43.8489062" lon="12.5220954"><ele>448.0</ele><time>2026-05-02T13:15:30.211Z</time></trkpt><trkpt lat="43.8488276" lon="12.5219113"><ele>444.0</ele><time>2026-05-02T13:15:31.2Z</time></trkpt><trkpt lat="43.8487492" lon="12.5217298"><ele>440.0</ele><time>2026-05-02T13:15:32.171Z</time></trkpt><trkpt lat="43.8486731" lon="12.5215362"><ele>440.0</ele><time>2026-05-02T13:15:33.181Z</time></trkpt><trkpt lat="43.8486006" lon="12.521355"><ele>440.0</ele><time>2026-05-02T13:15:34.207Z</time></trkpt><trkpt lat="43.8485418" lon="12.5211551"><ele>440.0</ele><time>2026-05-02T13:15:35.195Z</time></trkpt><trkpt lat="43.848484" lon="12.5209595"><ele>436.0</ele><time>2026-05-02T13:15:36.21Z</time></trkpt><trkpt lat="43.8484319" lon="12.5207498"><ele>432.0</ele><time>2026-05-02T13:15:37.202Z</time></trkpt><trkpt lat="43.8483839" lon="12.5205254"><ele>428.0</ele><time>2026-05-02T13:15:38.191Z</time></trkpt><trkpt lat="43.8483533" lon="12.5202957"><ele>427.0</ele><time>2026-05-02T13:15:39.189Z</time></trkpt><trkpt lat="43.8483374" lon="12.520081"><ele>426.0</ele><time>2026-05-02T13:15:40.197Z</time></trkpt><trkpt lat="43.8483293" lon="12.5198645"><ele>425.0</ele><time>2026-05-02T13:15:41.198Z</time></trkpt><trkpt lat="43.8483279" lon="12.5196505"><ele>424.66666666666663</ele><time>2026-05-02T13:15:42.188Z</time></trkpt><trkpt lat="43.8483316" lon="12.5194415"><ele>424.33333333333337</ele><time>2026-05-02T13:15:43.198Z</time></trkpt><trkpt lat="43.8483418" lon="12.5192221"><ele>424.0</ele><time>2026-05-02T13:15:44.183Z</time></trkpt><trkpt lat="43.8483472" lon="12.5190026"><ele>424.0</ele><time>2026-05-02T13:15:45.202Z</time></trkpt><trkpt lat="43.8483593" lon="12.5187859"><ele>424.0</ele><time>2026-05-02T13:15:46.192Z</time></trkpt><trkpt lat="43.8483725" lon="12.5185702"><ele>424.0</ele><time>2026-05-02T13:15:47.195Z</time></trkpt><trkpt lat="43.84839" lon="12.5183699"><ele>422.5</ele><time>2026-05-02T13:15:48.188Z</time></trkpt><trkpt lat="43.848411" lon="12.5181664"><ele>421.0</ele><time>2026-05-02T13:15:49.179Z</time></trkpt><trkpt lat="43.8484412" lon="12.5179738"><ele>419.5</ele><time>2026-05-02T13:15:50.215Z</time></trkpt><trkpt lat="43.8484814" lon="12.5177861"><ele>418.0</ele><time>2026-05-02T13:15:51.193Z</time></trkpt><trkpt lat="43.8485285" lon="12.5175999"><ele>417.33333333333337</ele><time>2026-05-02T13:15:52.19Z</time></trkpt><trkpt lat="43.8485736" lon="12.517408"><ele>416.66666666666663</ele><time>2026-05-02T13:15:53.189Z</time></trkpt><trkpt lat="43.8486026" lon="12.5171951"><ele>416.0</ele><time>2026-05-02T13:15:54.206Z</time></trkpt><trkpt lat="43.8486178" lon="12.5169881"><ele>416.0</ele><time>2026-05-02T13:15:55.202Z</time></trkpt><trkpt lat="43.8486204" lon="12.5167643"><ele>416.0</ele><time>2026-05-02T13:15:56.195Z</time></trkpt><trkpt lat="43.8486218" lon="12.5165437"><ele>416.0</ele><time>2026-05-02T13:15:57.187Z</time></trkpt><trkpt lat="43.8486314" lon="12.5163234"><ele>418.0</ele><time>2026-05-02T13:15:58.197Z</time></trkpt><trkpt lat="43.848648" lon="12.5160975"><ele>420.0</ele><time>2026-05-02T13:15:59.178Z</time></trkpt><trkpt lat="43.8486621" lon="12.5158726"><ele>422.0</ele><time>2026-05-02T13:16:00.202Z</time></trkpt><trkpt lat="43.8486812" lon="12.5156458"><ele>422.0</ele><time>2026-05-02T13:16:01.211Z</time></trkpt><trkpt lat="43.8486982" lon="12.5154125"><ele>422.0</ele><time>2026-05-02T13:16:02.197Z</time></trkpt><trkpt lat="43.8487141" lon="12.5151754"><ele>422.0</ele><time>2026-05-02T13:16:03.197Z</time></trkpt><trkpt lat="43.8487312" lon="12.5149316"><ele>424.0</ele><time>2026-05-02T13:16:04.166Z</time></trkpt><trkpt lat="43.8487481" lon="12.514687"><ele>426.0</ele><time>2026-05-02T13:16:05.199Z</time></trkpt><trkpt lat="43.848763" lon="12.5144412"><ele>428.0</ele><time>2026-05-02T13:16:06.196Z</time></trkpt><trkpt lat="43.8487795" lon="12.5141941"><ele>429.0</ele><time>2026-05-02T13:16:07.19Z</time></trkpt><trkpt lat="43.8487955" lon="12.5139502"><ele>430.0</ele><time>2026-05-02T13:16:08.195Z</time></trkpt><trkpt lat="43.8488078" lon="12.5137072"><ele>431.0</ele><time>2026-05-02T13:16:09.196Z</time></trkpt><trkpt lat="43.8488185" lon="12.5134832"><ele>432.0</ele><time>2026-05-02T13:16:10.187Z</time></trkpt><trkpt lat="43.8488302" lon="12.5132671"><ele>433.0</ele><time>2026-05-02T13:16:11.193Z</time></trkpt><trkpt lat="43.8488387" lon="12.5130589"><ele>434.0</ele><time>2026-05-02T13:16:12.2Z</time></trkpt><trkpt lat="43.8488491" lon="12.5128415"><ele>436.0</ele><time>2026-05-02T13:16:13.19Z</time></trkpt><trkpt lat="43.8488602" lon="12.512619"><ele>438.0</ele><time>2026-05-02T13:16:14.195Z</time></trkpt><trkpt lat="43.8488753" lon="12.5123894"><ele>440.0</ele><time>2026-05-02T13:16:15.195Z</time></trkpt><trkpt lat="43.848889" lon="12.5121632"><ele>441.66666666666663</ele><time>2026-05-02T13:16:16.181Z</time></trkpt><trkpt lat="43.8489028" lon="12.5119193"><ele>443.33333333333337</ele><time>2026-05-02T13:16:17.189Z</time></trkpt><trkpt lat="43.8489202" lon="12.5116549"><ele>445.0</ele><time>2026-05-02T13:16:18.179Z</time></trkpt><trkpt lat="43.8489421" lon="12.511376"><ele>445.6666666666667</ele><time>2026-05-02T13:16:19.183Z</time></trkpt><trkpt lat="43.8489623" lon="12.511079"><ele>446.33333333333337</ele><time>2026-05-02T13:16:20.194Z</time></trkpt><trkpt lat="43.8489893" lon="12.5107861"><ele>447.0</ele><time>2026-05-02T13:16:21.189Z</time></trkpt><trkpt lat="43.8490223" lon="12.5104926"><ele>448.66666666666663</ele><time>2026-05-02T13:16:22.202Z</time></trkpt><trkpt lat="43.8490565" lon="12.5102109"><ele>450.3333333333333</ele><time>2026-05-02T13:16:23.191Z</time></trkpt><trkpt lat="43.8490962" lon="12.5099363"><ele>452.0</ele><time>2026-05-02T13:16:24.176Z</time></trkpt><trkpt lat="43.8491348" lon="12.5096658"><ele>453.3333333333333</ele><time>2026-05-02T13:16:25.196Z</time></trkpt><trkpt lat="43.8491639" lon="12.509402"><ele>454.66666666666663</ele><time>2026-05-02T13:16:26.191Z</time></trkpt><trkpt lat="43.8491939" lon="12.5091606"><ele>456.0</ele><time>2026-05-02T13:16:27.198Z</time></trkpt><trkpt lat="43.8492248" lon="12.5089442"><ele>456.33333333333337</ele><time>2026-05-02T13:16:28.206Z</time></trkpt><trkpt lat="43.8492618" lon="12.5087356"><ele>456.6666666666667</ele><time>2026-05-02T13:16:29.19Z</time></trkpt><trkpt lat="43.8493048" lon="12.5085402"><ele>457.0</ele><time>2026-05-02T13:16:30.209Z</time></trkpt><trkpt lat="43.8493555" lon="12.5083411"><ele>458.25</ele><time>2026-05-02T13:16:31.182Z</time></trkpt><trkpt lat="43.8493967" lon="12.5081448"><ele>459.5</ele><time>2026-05-02T13:16:32.189Z</time></trkpt><trkpt lat="43.8494344" lon="12.5079816"><ele>460.75</ele><time>2026-05-02T13:16:33.212Z</time></trkpt><trkpt lat="43.8494712" lon="12.5078467"><ele>462.0</ele><time>2026-05-02T13:16:34.194Z</time></trkpt><trkpt lat="43.8494997" lon="12.5077159"><ele>463.20000000000005</ele><time>2026-05-02T13:16:35.185Z</time></trkpt><trkpt lat="43.8495284" lon="12.5075769"><ele>464.40000000000003</ele><time>2026-05-02T13:16:36.19Z</time></trkpt><trkpt lat="43.8495594" lon="12.5074372"><ele>465.59999999999997</ele><time>2026-05-02T13:16:37.196Z</time></trkpt><trkpt lat="43.8495859" lon="12.5073143"><ele>466.79999999999995</ele><time>2026-05-02T13:16:38.173Z</time></trkpt><trkpt lat="43.849613" lon="12.50722"><ele>468.0</ele><time>2026-05-02T13:16:39.203Z</time></trkpt><trkpt lat="43.8496578" lon="12.5070895"><ele>468.8571428571429</ele><time>2026-05-02T13:16:41.194Z</time></trkpt><trkpt lat="43.8497041" lon="12.5070058"><ele>469.7142857142858</ele><time>2026-05-02T13:16:43.182Z</time></trkpt><trkpt lat="43.8497498" lon="12.5069148"><ele>470.57142857142856</ele><time>2026-05-02T13:16:45.193Z</time></trkpt><trkpt lat="43.8497568" lon="12.506827"><ele>471.42857142857144</ele><time>2026-05-02T13:16:48.172Z</time></trkpt><trkpt lat="43.849688" lon="12.5068253"><ele>472.2857142857143</ele><time>2026-05-02T13:16:51.173Z</time></trkpt><trkpt lat="43.8496311" lon="12.5068944"><ele>473.1428571428571</ele><time>2026-05-02T13:17:07.175Z</time></trkpt><trkpt lat="43.8495738" lon="12.5068258"><ele>473.99999999999994</ele><time>2026-05-02T13:19:07.187Z</time></trkpt><trkpt lat="43.8496563" lon="12.5068267"><ele>473.99999999999994</ele><time>2026-05-02T13:19:38.197Z</time></trkpt><trkpt lat="43.8496147" lon="12.5069007"><ele>474.0</ele><time>2026-05-02T13:20:59.166Z</time></trkpt><trkpt lat="43.8495678" lon="12.506842"><ele>473.99999999999994</ele><time>2026-05-02T13:24:31.195Z</time></trkpt><trkpt lat="43.8496091" lon="12.5067565"><ele>473.99999999999994</ele><time>2026-05-02T13:24:36.163Z</time></trkpt><trkpt lat="43.8496332" lon="12.5066706"><ele>474.0</ele><time>2026-05-02T13:24:41.181Z</time></trkpt><trkpt lat="43.8496579" lon="12.506584"><ele>473.99999999999994</ele><time>2026-05-02T13:24:47.177Z</time></trkpt><trkpt lat="43.8496687" lon="12.5064913"><ele>473.99999999999994</ele><time>2026-05-02T13:24:54.18Z</time></trkpt><trkpt lat="43.8496152" lon="12.5064282"><ele>473.99999999999994</ele><time>2026-05-02T13:25:03.202Z</time></trkpt><trkpt lat="43.8496091" lon="12.5063361"><ele>474.0</ele><time>2026-05-02T13:25:15.185Z</time></trkpt><trkpt lat="43.8495425" lon="12.5063348"><ele>473.99999999999994</ele><time>2026-05-02T13:25:46.171Z</time></trkpt><trkpt lat="43.8495221" lon="12.5064338"><ele>473.99999999999994</ele><time>2026-05-02T13:27:09.193Z</time></trkpt><trkpt lat="43.8495146" lon="12.5065305"><ele>474.0</ele><time>2026-05-02T13:27:17.181Z</time></trkpt><trkpt lat="43.8495282" lon="12.5066273"><ele>473.99999999999994</ele><time>2026-05-02T13:27:25.174Z</time></trkpt><trkpt lat="43.849547" lon="12.5067171"><ele>473.99999999999994</ele><time>2026-05-02T13:27:33.174Z</time></trkpt><trkpt lat="43.8496093" lon="12.5067483"><ele>474.0</ele><time>2026-05-02T13:27:53.155Z</time></trkpt><trkpt lat="43.8496266" lon="12.5068483"><ele>474.0</ele><time>2026-05-02T13:27:59.167Z</time></trkpt><trkpt lat="43.849552" lon="12.5069907"><ele>474.0</ele><time>2026-05-02T13:41:19.172Z</time></trkpt><trkpt lat="43.849589" lon="12.5069038"><ele>474.0</ele><time>2026-05-02T13:44:47.163Z</time></trkpt><trkpt lat="43.8495882" lon="12.5068153"><ele>474.0</ele><time>2026-05-02T13:48:14.188Z</time></trkpt><trkpt lat="43.8497452" lon="12.5067825"><ele>474.0</ele><time>2026-05-02T13:48:18.157Z</time></trkpt><trkpt lat="43.8498551" lon="12.5067923"><ele>474.0</ele><time>2026-05-02T13:48:19.163Z</time></trkpt><trkpt lat="43.8499348" lon="12.5068007"><ele>474.0</ele><time>2026-05-02T13:48:20.184Z</time></trkpt><trkpt lat="43.8500357" lon="12.5068045"><ele>474.0</ele><time>2026-05-02T13:48:21.189Z</time></trkpt><trkpt lat="43.850163" lon="12.5068179"><ele>474.0</ele><time>2026-05-02T13:48:22.18Z</time></trkpt><trkpt lat="43.8503021" lon="12.506866"><ele>475.0</ele><time>2026-05-02T13:48:23.192Z</time></trkpt><trkpt lat="43.8504373" lon="12.5069255"><ele>476.0</ele><time>2026-05-02T13:48:24.192Z</time></trkpt><trkpt lat="43.8505775" lon="12.5069901"><ele>477.0</ele><time>2026-05-02T13:48:25.192Z</time></trkpt><trkpt lat="43.8507219" lon="12.5070561"><ele>478.0</ele><time>2026-05-02T13:48:26.186Z</time></trkpt><trkpt lat="43.8508699" lon="12.5071169"><ele>481.6666666666667</ele><time>2026-05-02T13:48:27.187Z</time></trkpt><trkpt lat="43.8510118" lon="12.5071845"><ele>485.33333333333337</ele><time>2026-05-02T13:48:28.174Z</time></trkpt><trkpt lat="43.8511548" lon="12.5072472"><ele>489.0</ele><time>2026-05-02T13:48:29.189Z</time></trkpt><trkpt lat="43.8512964" lon="12.507314"><ele>489.0</ele><time>2026-05-02T13:48:30.182Z</time></trkpt><trkpt lat="43.8514341" lon="12.5073828"><ele>489.0</ele><time>2026-05-02T13:48:31.191Z</time></trkpt><trkpt lat="43.8515695" lon="12.5074539"><ele>489.0</ele><time>2026-05-02T13:48:32.18Z</time></trkpt><trkpt lat="43.851706" lon="12.507515"><ele>489.0</ele><time>2026-05-02T13:48:33.179Z</time></trkpt><trkpt lat="43.8518304" lon="12.507578"><ele>490.0</ele><time>2026-05-02T13:48:34.175Z</time></trkpt><trkpt lat="43.8519463" lon="12.5076296"><ele>491.0</ele><time>2026-05-02T13:48:35.19Z</time></trkpt><trkpt lat="43.8520536" lon="12.5076798"><ele>492.0</ele><time>2026-05-02T13:48:36.182Z</time></trkpt><trkpt lat="43.852168" lon="12.5077194"><ele>493.0</ele><time>2026-05-02T13:48:37.174Z</time></trkpt><trkpt lat="43.8522955" lon="12.5077243"><ele>493.0</ele><time>2026-05-02T13:48:38.171Z</time></trkpt><trkpt lat="43.8524348" lon="12.5076995"><ele>493.0</ele><time>2026-05-02T13:48:39.162Z</time></trkpt><trkpt lat="43.8525708" lon="12.5076731"><ele>493.0</ele><time>2026-05-02T13:48:40.166Z</time></trkpt><trkpt lat="43.8527067" lon="12.5076436"><ele>493.0</ele><time>2026-05-02T13:48:41.179Z</time></trkpt><trkpt lat="43.8528406" lon="12.5076157"><ele>494.5</ele><time>2026-05-02T13:48:42.177Z</time></trkpt><trkpt lat="43.8529794" lon="12.5075798"><ele>496.0</ele><time>2026-05-02T13:48:43.208Z</time></trkpt><trkpt lat="43.8531194" lon="12.5075225"><ele>497.5</ele><time>2026-05-02T13:48:44.188Z</time></trkpt><trkpt lat="43.8532567" lon="12.5074606"><ele>499.0</ele><time>2026-05-02T13:48:45.199Z</time></trkpt><trkpt lat="43.8533968" lon="12.5074032"><ele>501.25</ele><time>2026-05-02T13:48:46.186Z</time></trkpt><trkpt lat="43.8535343" lon="12.5073478"><ele>503.5</ele><time>2026-05-02T13:48:47.18Z</time></trkpt><trkpt lat="43.8536709" lon="12.5072878"><ele>505.75</ele><time>2026-05-02T13:48:48.176Z</time></trkpt><trkpt lat="43.8538205" lon="12.5072172"><ele>508.0</ele><time>2026-05-02T13:48:49.182Z</time></trkpt><trkpt lat="43.8539727" lon="12.5071449"><ele>508.0</ele><time>2026-05-02T13:48:50.178Z</time></trkpt><trkpt lat="43.8541216" lon="12.5070821"><ele>508.0</ele><time>2026-05-02T13:48:51.178Z</time></trkpt><trkpt lat="43.8542595" lon="12.5070234"><ele>508.0</ele><time>2026-05-02T13:48:52.189Z</time></trkpt><trkpt lat="43.8543909" lon="12.5069656"><ele>508.0</ele><time>2026-05-02T13:48:53.19Z</time></trkpt><trkpt lat="43.8545165" lon="12.5069309"><ele>511.25</ele><time>2026-05-02T13:48:54.167Z</time></trkpt><trkpt lat="43.8546298" lon="12.5069413"><ele>514.5</ele><time>2026-05-02T13:48:55.173Z</time></trkpt><trkpt lat="43.8547388" lon="12.5070297"><ele>517.75</ele><time>2026-05-02T13:48:56.174Z</time></trkpt><trkpt lat="43.8548367" lon="12.5071575"><ele>521.0</ele><time>2026-05-02T13:48:57.189Z</time></trkpt><trkpt lat="43.8549323" lon="12.5072839"><ele>521.0</ele><time>2026-05-02T13:48:58.182Z</time></trkpt><trkpt lat="43.8550214" lon="12.5074151"><ele>521.0</ele><time>2026-05-02T13:48:59.184Z</time></trkpt><trkpt lat="43.8551138" lon="12.5075447"><ele>521.0</ele><time>2026-05-02T13:49:00.196Z</time></trkpt><trkpt lat="43.8552023" lon="12.5076702"><ele>521.0</ele><time>2026-05-02T13:49:01.178Z</time></trkpt><trkpt lat="43.8552897" lon="12.5077866"><ele>522.0</ele><time>2026-05-02T13:49:02.188Z</time></trkpt><trkpt lat="43.8553846" lon="12.5078906"><ele>523.0</ele><time>2026-05-02T13:49:03.174Z</time></trkpt><trkpt lat="43.8554878" lon="12.5079774"><ele>524.0</ele><time>2026-05-02T13:49:04.181Z</time></trkpt><trkpt lat="43.8555919" lon="12.5080626"><ele>525.0</ele><time>2026-05-02T13:49:05.188Z</time></trkpt><trkpt lat="43.8556841" lon="12.5081415"><ele>525.0</ele><time>2026-05-02T13:49:06.166Z</time></trkpt><trkpt lat="43.8557693" lon="12.5082139"><ele>525.0</ele><time>2026-05-02T13:49:07.178Z</time></trkpt><trkpt lat="43.8558377" lon="12.5082742"><ele>525.0</ele><time>2026-05-02T13:49:08.187Z</time></trkpt><trkpt lat="43.8559017" lon="12.5083356"><ele>525.0</ele><time>2026-05-02T13:49:09.182Z</time></trkpt><trkpt lat="43.8559547" lon="12.5084262"><ele>525.0</ele><time>2026-05-02T13:49:10.197Z</time></trkpt><trkpt lat="43.8560021" lon="12.5085533"><ele>525.0</ele><time>2026-05-02T13:49:11.199Z</time></trkpt><trkpt lat="43.8560555" lon="12.5087074"><ele>525.2</ele><time>2026-05-02T13:49:12.184Z</time></trkpt><trkpt lat="43.8561213" lon="12.508836"><ele>525.4</ele><time>2026-05-02T13:49:13.198Z</time></trkpt><trkpt lat="43.856196" lon="12.5089417"><ele>525.6</ele><time>2026-05-02T13:49:14.176Z</time></trkpt><trkpt lat="43.8562744" lon="12.5090267"><ele>525.8</ele><time>2026-05-02T13:49:15.179Z</time></trkpt><trkpt lat="43.8563507" lon="12.5090938"><ele>526.0</ele><time>2026-05-02T13:49:16.188Z</time></trkpt><trkpt lat="43.8564263" lon="12.5091387"><ele>526.0</ele><time>2026-05-02T13:49:17.178Z</time></trkpt><trkpt lat="43.8564973" lon="12.5091606"><ele>526.0</ele><time>2026-05-02T13:49:18.187Z</time></trkpt><trkpt lat="43.8565828" lon="12.5091493"><ele>526.0</ele><time>2026-05-02T13:49:19.161Z</time></trkpt><trkpt lat="43.856668" lon="12.5091128"><ele>526.0</ele><time>2026-05-02T13:49:20.178Z</time></trkpt><trkpt lat="43.8567626" lon="12.5090636"><ele>526.0</ele><time>2026-05-02T13:49:21.182Z</time></trkpt><trkpt lat="43.8568558" lon="12.5090211"><ele>526.0</ele><time>2026-05-02T13:49:22.193Z</time></trkpt><trkpt lat="43.8569412" lon="12.5089717"><ele>522.25</ele><time>2026-05-02T13:49:23.165Z</time></trkpt><trkpt lat="43.8570171" lon="12.5088979"><ele>518.5</ele><time>2026-05-02T13:49:24.199Z</time></trkpt><trkpt lat="43.8570723" lon="12.5087799"><ele>514.75</ele><time>2026-05-02T13:49:25.186Z</time></trkpt><trkpt lat="43.8570956" lon="12.5086085"><ele>511.0</ele><time>2026-05-02T13:49:26.181Z</time></trkpt><trkpt lat="43.8570975" lon="12.5084188"><ele>511.0</ele><time>2026-05-02T13:49:27.176Z</time></trkpt><trkpt lat="43.8570915" lon="12.5082279"><ele>511.0</ele><time>2026-05-02T13:49:28.193Z</time></trkpt><trkpt lat="43.8570855" lon="12.5080528"><ele>511.0</ele><time>2026-05-02T13:49:29.193Z</time></trkpt><trkpt lat="43.8571053" lon="12.5078829"><ele>511.0</ele><time>2026-05-02T13:49:30.196Z</time></trkpt><trkpt lat="43.8571587" lon="12.5077333"><ele>511.5</ele><time>2026-05-02T13:49:31.205Z</time></trkpt><trkpt lat="43.8572415" lon="12.507584"><ele>512.0</ele><time>2026-05-02T13:49:32.204Z</time></trkpt><trkpt lat="43.857339" lon="12.507424"><ele>512.5</ele><time>2026-05-02T13:49:33.197Z</time></trkpt><trkpt lat="43.8574456" lon="12.5072759"><ele>513.0</ele><time>2026-05-02T13:49:34.194Z</time></trkpt><trkpt lat="43.8575443" lon="12.5071308"><ele>511.25</ele><time>2026-05-02T13:49:35.19Z</time></trkpt><trkpt lat="43.8576343" lon="12.5069997"><ele>509.5</ele><time>2026-05-02T13:49:36.195Z</time></trkpt><trkpt lat="43.8577255" lon="12.5068825"><ele>507.75</ele><time>2026-05-02T13:49:37.186Z</time></trkpt><trkpt lat="43.8578261" lon="12.5067798"><ele>506.0</ele><time>2026-05-02T13:49:38.182Z</time></trkpt><trkpt lat="43.8579534" lon="12.5067105"><ele>506.0</ele><time>2026-05-02T13:49:39.182Z</time></trkpt><trkpt lat="43.8580863" lon="12.5066807"><ele>506.0</ele><time>2026-05-02T13:49:40.179Z</time></trkpt><trkpt lat="43.8582281" lon="12.5067116"><ele>506.0</ele><time>2026-05-02T13:49:41.173Z</time></trkpt><trkpt lat="43.8583785" lon="12.5067478"><ele>506.0</ele><time>2026-05-02T13:49:42.189Z</time></trkpt><trkpt lat="43.8585246" lon="12.5067831"><ele>501.5</ele><time>2026-05-02T13:49:43.175Z</time></trkpt><trkpt lat="43.8586667" lon="12.5067964"><ele>497.0</ele><time>2026-05-02T13:49:44.189Z</time></trkpt><trkpt lat="43.8588016" lon="12.5067691"><ele>492.5</ele><time>2026-05-02T13:49:45.184Z</time></trkpt><trkpt lat="43.8589314" lon="12.5067198"><ele>488.0</ele><time>2026-05-02T13:49:46.167Z</time></trkpt><trkpt lat="43.8590635" lon="12.5066354"><ele>488.0</ele><time>2026-05-02T13:49:47.183Z</time></trkpt><trkpt lat="43.8591979" lon="12.506533"><ele>488.0</ele><time>2026-05-02T13:49:48.176Z</time></trkpt><trkpt lat="43.8593378" lon="12.506436"><ele>488.0</ele><time>2026-05-02T13:49:49.187Z</time></trkpt><trkpt lat="43.8594654" lon="12.5063454"><ele>486.25</ele><time>2026-05-02T13:49:50.184Z</time></trkpt><trkpt lat="43.8595913" lon="12.5062425"><ele>484.5</ele><time>2026-05-02T13:49:51.178Z</time></trkpt><trkpt lat="43.859713" lon="12.5061492"><ele>482.75</ele><time>2026-05-02T13:49:52.194Z</time></trkpt><trkpt lat="43.859834" lon="12.5060682"><ele>481.0</ele><time>2026-05-02T13:49:53.187Z</time></trkpt><trkpt lat="43.8599501" lon="12.5059961"><ele>481.0</ele><time>2026-05-02T13:49:54.184Z</time></trkpt><trkpt lat="43.8600738" lon="12.5059402"><ele>481.0</ele><time>2026-05-02T13:49:55.185Z</time></trkpt><trkpt lat="43.8602215" lon="12.5058946"><ele>481.0</ele><time>2026-05-02T13:49:56.174Z</time></trkpt><trkpt lat="43.8603732" lon="12.5058605"><ele>481.0</ele><time>2026-05-02T13:49:57.198Z</time></trkpt><trkpt lat="43.8605185" lon="12.5058373"><ele>477.75</ele><time>2026-05-02T13:49:58.188Z</time></trkpt><trkpt lat="43.8606588" lon="12.5058311"><ele>474.5</ele><time>2026-05-02T13:49:59.195Z</time></trkpt><trkpt lat="43.860803" lon="12.5058408"><ele>471.25</ele><time>2026-05-02T13:50:00.204Z</time></trkpt><trkpt lat="43.8609496" lon="12.5058528"><ele>468.0</ele><time>2026-05-02T13:50:01.173Z</time></trkpt><trkpt lat="43.8610982" lon="12.5058668"><ele>466.0</ele><time>2026-05-02T13:50:02.172Z</time></trkpt><trkpt lat="43.8612405" lon="12.5058799"><ele>464.0</ele><time>2026-05-02T13:50:03.178Z</time></trkpt><trkpt lat="43.8613871" lon="12.5058912"><ele>462.0</ele><time>2026-05-02T13:50:04.211Z</time></trkpt><trkpt lat="43.861536" lon="12.5058966"><ele>460.0</ele><time>2026-05-02T13:50:05.185Z</time></trkpt><trkpt lat="43.861686" lon="12.5058882"><ele>458.75</ele><time>2026-05-02T13:50:06.185Z</time></trkpt><trkpt lat="43.8618331" lon="12.5058801"><ele>457.5</ele><time>2026-05-02T13:50:07.206Z</time></trkpt><trkpt lat="43.8619758" lon="12.505867"><ele>456.25</ele><time>2026-05-02T13:50:08.177Z</time></trkpt><trkpt lat="43.86212" lon="12.5058608"><ele>455.0</ele><time>2026-05-02T13:50:09.174Z</time></trkpt><trkpt lat="43.8622623" lon="12.5058813"><ele>455.0</ele><time>2026-05-02T13:50:10.176Z</time></trkpt><trkpt lat="43.8623887" lon="12.5059298"><ele>455.0</ele><time>2026-05-02T13:50:11.182Z</time></trkpt><trkpt lat="43.8625052" lon="12.5059977"><ele>455.0</ele><time>2026-05-02T13:50:12.174Z</time></trkpt><trkpt lat="43.8626002" lon="12.506079"><ele>455.0</ele><time>2026-05-02T13:50:13.171Z</time></trkpt><trkpt lat="43.8626886" lon="12.5061402"><ele>453.0</ele><time>2026-05-02T13:50:14.181Z</time></trkpt><trkpt lat="43.8627831" lon="12.5061567"><ele>451.0</ele><time>2026-05-02T13:50:15.187Z</time></trkpt><trkpt lat="43.8628735" lon="12.5061221"><ele>449.0</ele><time>2026-05-02T13:50:16.175Z</time></trkpt><trkpt lat="43.8629564" lon="12.506031"><ele>447.0</ele><time>2026-05-02T13:50:17.172Z</time></trkpt><trkpt lat="43.8630319" lon="12.5058948"><ele>445.0</ele><time>2026-05-02T13:50:18.203Z</time></trkpt><trkpt lat="43.8630984" lon="12.5057535"><ele>445.0</ele><time>2026-05-02T13:50:19.2Z</time></trkpt><trkpt lat="43.8631568" lon="12.5056206"><ele>445.0</ele><time>2026-05-02T13:50:20.195Z</time></trkpt><trkpt lat="43.8632276" lon="12.505496"><ele>445.0</ele><time>2026-05-02T13:50:21.196Z</time></trkpt><trkpt lat="43.8633076" lon="12.5053931"><ele>445.0</ele><time>2026-05-02T13:50:22.195Z</time></trkpt><trkpt lat="43.8633989" lon="12.505312"><ele>445.0</ele><time>2026-05-02T13:50:23.186Z</time></trkpt><trkpt lat="43.8634996" lon="12.5052562"><ele>441.5</ele><time>2026-05-02T13:50:24.198Z</time></trkpt><trkpt lat="43.863603" lon="12.505229"><ele>438.0</ele><time>2026-05-02T13:50:25.197Z</time></trkpt><trkpt lat="43.8637354" lon="12.5052431"><ele>434.5</ele><time>2026-05-02T13:50:26.192Z</time></trkpt><trkpt lat="43.8638792" lon="12.505275"><ele>431.0</ele><time>2026-05-02T13:50:27.19Z</time></trkpt><trkpt lat="43.8640284" lon="12.5053168"><ele>431.0</ele><time>2026-05-02T13:50:28.181Z</time></trkpt><trkpt lat="43.8641766" lon="12.505353"><ele>431.0</ele><time>2026-05-02T13:50:29.18Z</time></trkpt><trkpt lat="43.8643228" lon="12.5053968"><ele>431.0</ele><time>2026-05-02T13:50:30.184Z</time></trkpt><trkpt lat="43.8644605" lon="12.5054321"><ele>431.0</ele><time>2026-05-02T13:50:31.19Z</time></trkpt><trkpt lat="43.8646029" lon="12.505472"><ele>429.66666666666663</ele><time>2026-05-02T13:50:32.192Z</time></trkpt><trkpt lat="43.8647517" lon="12.5055064"><ele>428.33333333333337</ele><time>2026-05-02T13:50:33.189Z</time></trkpt><trkpt lat="43.8649027" lon="12.5055407"><ele>427.0</ele><time>2026-05-02T13:50:34.181Z</time></trkpt><trkpt lat="43.8650591" lon="12.5055817"><ele>425.5</ele><time>2026-05-02T13:50:35.172Z</time></trkpt><trkpt lat="43.8652087" lon="12.505624"><ele>424.0</ele><time>2026-05-02T13:50:36.184Z</time></trkpt><trkpt lat="43.8653502" lon="12.5056556"><ele>422.5</ele><time>2026-05-02T13:50:37.197Z</time></trkpt><trkpt lat="43.8654755" lon="12.5056914"><ele>421.0</ele><time>2026-05-02T13:50:38.196Z</time></trkpt><trkpt lat="43.865582" lon="12.5057407"><ele>421.0</ele><time>2026-05-02T13:50:39.178Z</time></trkpt><trkpt lat="43.8656633" lon="12.5058108"><ele>421.0</ele><time>2026-05-02T13:50:40.179Z</time></trkpt><trkpt lat="43.8657052" lon="12.5059073"><ele>421.0</ele><time>2026-05-02T13:50:41.196Z</time></trkpt><trkpt lat="43.8657266" lon="12.5060348"><ele>421.0</ele><time>2026-05-02T13:50:42.187Z</time></trkpt><trkpt lat="43.8657218" lon="12.5061916"><ele>421.0</ele><time>2026-05-02T13:50:43.185Z</time></trkpt><trkpt lat="43.8656807" lon="12.5063614"><ele>419.75</ele><time>2026-05-02T13:50:44.204Z</time></trkpt><trkpt lat="43.8656279" lon="12.5065496"><ele>418.5</ele><time>2026-05-02T13:50:45.202Z</time></trkpt><trkpt lat="43.8655728" lon="12.5067126"><ele>417.25</ele><time>2026-05-02T13:50:46.191Z</time></trkpt><trkpt lat="43.8655259" lon="12.5068515"><ele>416.0</ele><time>2026-05-02T13:50:47.185Z</time></trkpt><trkpt lat="43.8654914" lon="12.5069751"><ele>413.4</ele><time>2026-05-02T13:50:48.194Z</time></trkpt><trkpt lat="43.8655006" lon="12.5070965"><ele>410.8</ele><time>2026-05-02T13:50:49.171Z</time></trkpt><trkpt lat="43.8655473" lon="12.5072063"><ele>408.2</ele><time>2026-05-02T13:50:50.187Z</time></trkpt><trkpt lat="43.865613" lon="12.5072821"><ele>405.59999999999997</ele><time>2026-05-02T13:50:51.193Z</time></trkpt><trkpt lat="43.865707" lon="12.5073265"><ele>403.0</ele><time>2026-05-02T13:50:52.193Z</time></trkpt><trkpt lat="43.8658189" lon="12.5073339"><ele>403.25</ele><time>2026-05-02T13:50:53.178Z</time></trkpt><trkpt lat="43.8659496" lon="12.5072909"><ele>403.5</ele><time>2026-05-02T13:50:54.177Z</time></trkpt><trkpt lat="43.8660642" lon="12.5071991"><ele>403.75</ele><time>2026-05-02T13:50:55.199Z</time></trkpt><trkpt lat="43.8661704" lon="12.5070824"><ele>404.0</ele><time>2026-05-02T13:50:56.18Z</time></trkpt><trkpt lat="43.8662748" lon="12.5069441"><ele>404.0</ele><time>2026-05-02T13:50:57.193Z</time></trkpt><trkpt lat="43.8663692" lon="12.5067841"><ele>404.0</ele><time>2026-05-02T13:50:58.193Z</time></trkpt><trkpt lat="43.8664606" lon="12.5066365"><ele>404.0</ele><time>2026-05-02T13:50:59.175Z</time></trkpt><trkpt lat="43.8665511" lon="12.5065081"><ele>404.0</ele><time>2026-05-02T13:51:00.187Z</time></trkpt><trkpt lat="43.8666383" lon="12.5063841"><ele>404.0</ele><time>2026-05-02T13:51:01.183Z</time></trkpt><trkpt lat="43.8667376" lon="12.5062576"><ele>404.0</ele><time>2026-05-02T13:51:02.198Z</time></trkpt><trkpt lat="43.866848" lon="12.5061496"><ele>404.0</ele><time>2026-05-02T13:51:03.208Z</time></trkpt><trkpt lat="43.8669811" lon="12.5060505"><ele>404.0</ele><time>2026-05-02T13:51:04.193Z</time></trkpt><trkpt lat="43.8671106" lon="12.5060273"><ele>402.75</ele><time>2026-05-02T13:51:05.183Z</time></trkpt><trkpt lat="43.8672385" lon="12.5060937"><ele>401.5</ele><time>2026-05-02T13:51:06.194Z</time></trkpt><trkpt lat="43.8673658" lon="12.5061792"><ele>400.25</ele><time>2026-05-02T13:51:07.191Z</time></trkpt><trkpt lat="43.8674778" lon="12.5062403"><ele>399.0</ele><time>2026-05-02T13:51:08.188Z</time></trkpt><trkpt lat="43.8675806" lon="12.5062901"><ele>396.2</ele><time>2026-05-02T13:51:09.213Z</time></trkpt><trkpt lat="43.8676728" lon="12.5063091"><ele>393.4</ele><time>2026-05-02T13:51:10.153Z</time></trkpt><trkpt lat="43.8677581" lon="12.5062849"><ele>390.6</ele><time>2026-05-02T13:51:11.175Z</time></trkpt><trkpt lat="43.8678321" lon="12.5062109"><ele>387.8</ele><time>2026-05-02T13:51:12.176Z</time></trkpt><trkpt lat="43.8678701" lon="12.5060921"><ele>385.0</ele><time>2026-05-02T13:51:13.195Z</time></trkpt><trkpt lat="43.8679069" lon="12.5059181"><ele>384.75</ele><time>2026-05-02T13:51:14.187Z</time></trkpt><trkpt lat="43.867928" lon="12.5057346"><ele>384.5</ele><time>2026-05-02T13:51:15.204Z</time></trkpt><trkpt lat="43.8679396" lon="12.5055555"><ele>384.25</ele><time>2026-05-02T13:51:16.174Z</time></trkpt><trkpt lat="43.8679516" lon="12.5053919"><ele>384.0</ele><time>2026-05-02T13:51:17.188Z</time></trkpt><trkpt lat="43.8679744" lon="12.5052313"><ele>383.0</ele><time>2026-05-02T13:51:18.187Z</time></trkpt><trkpt lat="43.8680117" lon="12.5050702"><ele>382.0</ele><time>2026-05-02T13:51:19.2Z</time></trkpt><trkpt lat="43.86806" lon="12.5049055"><ele>381.0</ele><time>2026-05-02T13:51:20.181Z</time></trkpt><trkpt lat="43.8681278" lon="12.5047531"><ele>380.0</ele><time>2026-05-02T13:51:21.164Z</time></trkpt><trkpt lat="43.8682144" lon="12.5045979"><ele>380.25</ele><time>2026-05-02T13:51:22.187Z</time></trkpt><trkpt lat="43.8682968" lon="12.5044578"><ele>380.5</ele><time>2026-05-02T13:51:23.191Z</time></trkpt><trkpt lat="43.8683716" lon="12.5043134"><ele>380.75</ele><time>2026-05-02T13:51:24.182Z</time></trkpt><trkpt lat="43.8684341" lon="12.5041914"><ele>381.0</ele><time>2026-05-02T13:51:25.199Z</time></trkpt><trkpt lat="43.8684631" lon="12.504064"><ele>381.0</ele><time>2026-05-02T13:51:26.19Z</time></trkpt><trkpt lat="43.8684702" lon="12.503945"><ele>381.0</ele><time>2026-05-02T13:51:27.189Z</time></trkpt><trkpt lat="43.8684388" lon="12.5038214"><ele>381.0</ele><time>2026-05-02T13:51:28.17Z</time></trkpt><trkpt lat="43.8683564" lon="12.5037221"><ele>381.0</ele><time>2026-05-02T13:51:29.183Z</time></trkpt><trkpt lat="43.8682475" lon="12.5036616"><ele>381.0</ele><time>2026-05-02T13:51:30.186Z</time></trkpt><trkpt lat="43.86811" lon="12.5036306"><ele>378.6666666666667</ele><time>2026-05-02T13:51:31.201Z</time></trkpt><trkpt lat="43.8679684" lon="12.5036131"><ele>376.33333333333337</ele><time>2026-05-02T13:51:32.187Z</time></trkpt><trkpt lat="43.8678128" lon="12.5035916"><ele>374.0</ele><time>2026-05-02T13:51:33.177Z</time></trkpt><trkpt lat="43.8676605" lon="12.5035597"><ele>374.25</ele><time>2026-05-02T13:51:34.2Z</time></trkpt><trkpt lat="43.8675239" lon="12.5035243"><ele>374.5</ele><time>2026-05-02T13:51:35.19Z</time></trkpt><trkpt lat="43.8674015" lon="12.5035098"><ele>374.75</ele><time>2026-05-02T13:51:36.17Z</time></trkpt><trkpt lat="43.867297" lon="12.5034791"><ele>375.0</ele><time>2026-05-02T13:51:37.175Z</time></trkpt><trkpt lat="43.8672115" lon="12.5033933"><ele>375.0</ele><time>2026-05-02T13:51:38.185Z</time></trkpt><trkpt lat="43.8671355" lon="12.5032858"><ele>375.0</ele><time>2026-05-02T13:51:39.202Z</time></trkpt><trkpt lat="43.8670836" lon="12.5031376"><ele>375.0</ele><time>2026-05-02T13:51:40.182Z</time></trkpt><trkpt lat="43.8670598" lon="12.5029862"><ele>375.0</ele><time>2026-05-02T13:51:41.195Z</time></trkpt><trkpt lat="43.867061" lon="12.5028232"><ele>372.5</ele><time>2026-05-02T13:51:42.187Z</time></trkpt><trkpt lat="43.8670919" lon="12.5026576"><ele>370.0</ele><time>2026-05-02T13:51:43.185Z</time></trkpt><trkpt lat="43.8671429" lon="12.5025193"><ele>367.5</ele><time>2026-05-02T13:51:44.191Z</time></trkpt><trkpt lat="43.8672155" lon="12.5023907"><ele>365.0</ele><time>2026-05-02T13:51:45.194Z</time></trkpt><trkpt lat="43.8673087" lon="12.5022904"><ele>365.0</ele><time>2026-05-02T13:51:46.168Z</time></trkpt><trkpt lat="43.8674436" lon="12.502206"><ele>365.0</ele><time>2026-05-02T13:51:47.171Z</time></trkpt><trkpt lat="43.8675934" lon="12.5021314"><ele>365.0</ele><time>2026-05-02T13:51:48.19Z</time></trkpt><trkpt lat="43.8677497" lon="12.502061"><ele>361.0</ele><time>2026-05-02T13:51:49.198Z</time></trkpt><trkpt lat="43.8679035" lon="12.5019876"><ele>357.0</ele><time>2026-05-02T13:51:50.19Z</time></trkpt><trkpt lat="43.8680605" lon="12.5019248"><ele>353.0</ele><time>2026-05-02T13:51:51.199Z</time></trkpt><trkpt lat="43.8682123" lon="12.5018569"><ele>353.0</ele><time>2026-05-02T13:51:52.195Z</time></trkpt><trkpt lat="43.8683624" lon="12.5017981"><ele>353.0</ele><time>2026-05-02T13:51:53.202Z</time></trkpt><trkpt lat="43.8685137" lon="12.5017419"><ele>353.0</ele><time>2026-05-02T13:51:54.201Z</time></trkpt><trkpt lat="43.8686674" lon="12.5016883"><ele>351.33333333333337</ele><time>2026-05-02T13:51:55.208Z</time></trkpt><trkpt lat="43.8688239" lon="12.501622"><ele>349.6666666666667</ele><time>2026-05-02T13:51:56.188Z</time></trkpt><trkpt lat="43.8689644" lon="12.5015405"><ele>348.0</ele><time>2026-05-02T13:51:57.188Z</time></trkpt><trkpt lat="43.8691047" lon="12.5014606"><ele>348.0</ele><time>2026-05-02T13:51:58.192Z</time></trkpt><trkpt lat="43.8692381" lon="12.5013787"><ele>348.0</ele><time>2026-05-02T13:51:59.195Z</time></trkpt><trkpt lat="43.8693709" lon="12.5013057"><ele>348.0</ele><time>2026-05-02T13:52:00.176Z</time></trkpt><trkpt lat="43.8694907" lon="12.5012524"><ele>348.0</ele><time>2026-05-02T13:52:01.187Z</time></trkpt><trkpt lat="43.8696174" lon="12.5012333"><ele>344.5</ele><time>2026-05-02T13:52:02.182Z</time></trkpt><trkpt lat="43.8697266" lon="12.5012574"><ele>341.0</ele><time>2026-05-02T13:52:03.18Z</time></trkpt><trkpt lat="43.8698315" lon="12.5013192"><ele>337.5</ele><time>2026-05-02T13:52:04.178Z</time></trkpt><trkpt lat="43.8699167" lon="12.5014513"><ele>334.0</ele><time>2026-05-02T13:52:05.208Z</time></trkpt><trkpt lat="43.8699755" lon="12.5016389"><ele>334.0</ele><time>2026-05-02T13:52:06.171Z</time></trkpt><trkpt lat="43.8700306" lon="12.5018562"><ele>334.0</ele><time>2026-05-02T13:52:07.194Z</time></trkpt><trkpt lat="43.8700857" lon="12.5020579"><ele>334.0</ele><time>2026-05-02T13:52:08.198Z</time></trkpt><trkpt lat="43.8701407" lon="12.5022368"><ele>330.75</ele><time>2026-05-02T13:52:09.183Z</time></trkpt><trkpt lat="43.8702035" lon="12.5024148"><ele>327.5</ele><time>2026-05-02T13:52:10.194Z</time></trkpt><trkpt lat="43.8702934" lon="12.5025713"><ele>324.25</ele><time>2026-05-02T13:52:11.2Z</time></trkpt><trkpt lat="43.8704015" lon="12.5027207"><ele>321.0</ele><time>2026-05-02T13:52:12.19Z</time></trkpt><trkpt lat="43.8705183" lon="12.5028445"><ele>321.5</ele><time>2026-05-02T13:52:13.177Z</time></trkpt><trkpt lat="43.87064" lon="12.5029461"><ele>322.0</ele><time>2026-05-02T13:52:14.186Z</time></trkpt><trkpt lat="43.8707485" lon="12.503035"><ele>322.5</ele><time>2026-05-02T13:52:15.182Z</time></trkpt><trkpt lat="43.8708462" lon="12.5031009"><ele>323.0</ele><time>2026-05-02T13:52:16.189Z</time></trkpt><trkpt lat="43.8709278" lon="12.5031343"><ele>319.6666666666667</ele><time>2026-05-02T13:52:17.2Z</time></trkpt><trkpt lat="43.8710055" lon="12.5030954"><ele>316.33333333333337</ele><time>2026-05-02T13:52:18.194Z</time></trkpt><trkpt lat="43.8710602" lon="12.5030035"><ele>313.0</ele><time>2026-05-02T13:52:19.189Z</time></trkpt><trkpt lat="43.871094" lon="12.5029039"><ele>309.6666666666667</ele><time>2026-05-02T13:52:20.189Z</time></trkpt><trkpt lat="43.8710793" lon="12.5027842"><ele>306.3333333333333</ele><time>2026-05-02T13:52:21.197Z</time></trkpt><trkpt lat="43.8710377" lon="12.5026801"><ele>303.0</ele><time>2026-05-02T13:52:22.175Z</time></trkpt><trkpt lat="43.8709654" lon="12.5025606"><ele>305.5</ele><time>2026-05-02T13:52:23.208Z</time></trkpt><trkpt lat="43.8708834" lon="12.5024517"><ele>308.0</ele><time>2026-05-02T13:52:24.175Z</time></trkpt><trkpt lat="43.8708094" lon="12.5023278"><ele>310.5</ele><time>2026-05-02T13:52:25.203Z</time></trkpt><trkpt lat="43.8707717" lon="12.5021763"><ele>313.0</ele><time>2026-05-02T13:52:26.193Z</time></trkpt><trkpt lat="43.8707624" lon="12.5019983"><ele>313.0</ele><time>2026-05-02T13:52:27.189Z</time></trkpt><trkpt lat="43.8707914" lon="12.5018049"><ele>313.0</ele><time>2026-05-02T13:52:28.164Z</time></trkpt><trkpt lat="43.8708233" lon="12.501606"><ele>313.0</ele><time>2026-05-02T13:52:29.209Z</time></trkpt><trkpt lat="43.8708678" lon="12.5013987"><ele>313.0</ele><time>2026-05-02T13:52:30.194Z</time></trkpt><trkpt lat="43.8709154" lon="12.5012083"><ele>312.0</ele><time>2026-05-02T13:52:31.2Z</time></trkpt><trkpt lat="43.8709485" lon="12.5010258"><ele>311.0</ele><time>2026-05-02T13:52:32.197Z</time></trkpt><trkpt lat="43.8709414" lon="12.5008392"><ele>310.0</ele><time>2026-05-02T13:52:33.191Z</time></trkpt><trkpt lat="43.8709101" lon="12.5006405"><ele>309.0</ele><time>2026-05-02T13:52:34.176Z</time></trkpt><trkpt lat="43.87088" lon="12.5004271"><ele>305.6666666666667</ele><time>2026-05-02T13:52:35.199Z</time></trkpt><trkpt lat="43.8708466" lon="12.5002045"><ele>302.33333333333337</ele><time>2026-05-02T13:52:36.178Z</time></trkpt><trkpt lat="43.8708208" lon="12.4999847"><ele>299.0</ele><time>2026-05-02T13:52:37.184Z</time></trkpt><trkpt lat="43.8707952" lon="12.4997731"><ele>298.0</ele><time>2026-05-02T13:52:38.185Z</time></trkpt><trkpt lat="43.8707669" lon="12.4995667"><ele>297.0</ele><time>2026-05-02T13:52:39.172Z</time></trkpt><trkpt lat="43.8707472" lon="12.4993678"><ele>296.0</ele><time>2026-05-02T13:52:40.171Z</time></trkpt><trkpt lat="43.8707386" lon="12.4991709"><ele>295.0</ele><time>2026-05-02T13:52:41.184Z</time></trkpt><trkpt lat="43.8707447" lon="12.4989815"><ele>295.0</ele><time>2026-05-02T13:52:42.184Z</time></trkpt><trkpt lat="43.8708026" lon="12.4988227"><ele>295.0</ele><time>2026-05-02T13:52:43.188Z</time></trkpt><trkpt lat="43.8708755" lon="12.4986774"><ele>295.0</ele><time>2026-05-02T13:52:44.179Z</time></trkpt><trkpt lat="43.8709378" lon="12.4985245"><ele>295.0</ele><time>2026-05-02T13:52:45.181Z</time></trkpt><trkpt lat="43.8709739" lon="12.4983665"><ele>292.0</ele><time>2026-05-02T13:52:46.184Z</time></trkpt><trkpt lat="43.8709808" lon="12.4981997"><ele>289.0</ele><time>2026-05-02T13:52:47.19Z</time></trkpt><trkpt lat="43.8709744" lon="12.4980412"><ele>286.0</ele><time>2026-05-02T13:52:48.198Z</time></trkpt><trkpt lat="43.8709397" lon="12.4978599"><ele>283.0</ele><time>2026-05-02T13:52:49.181Z</time></trkpt><trkpt lat="43.8708825" lon="12.4976654"><ele>283.0</ele><time>2026-05-02T13:52:50.172Z</time></trkpt><trkpt lat="43.8708206" lon="12.4974765"><ele>283.0</ele><time>2026-05-02T13:52:51.18Z</time></trkpt><trkpt lat="43.8707646" lon="12.4973031"><ele>283.0</ele><time>2026-05-02T13:52:52.189Z</time></trkpt><trkpt lat="43.8707104" lon="12.49713"><ele>283.0</ele><time>2026-05-02T13:52:53.198Z</time></trkpt><trkpt lat="43.8706562" lon="12.496957"><ele>281.4</ele><time>2026-05-02T13:52:54.188Z</time></trkpt><trkpt lat="43.8706056" lon="12.4968015"><ele>279.8</ele><time>2026-05-02T13:52:55.189Z</time></trkpt><trkpt lat="43.8705731" lon="12.4966524"><ele>278.2</ele><time>2026-05-02T13:52:56.178Z</time></trkpt><trkpt lat="43.8705656" lon="12.496513"><ele>276.6</ele><time>2026-05-02T13:52:57.182Z</time></trkpt><trkpt lat="43.8705986" lon="12.4963805"><ele>275.0</ele><time>2026-05-02T13:52:58.194Z</time></trkpt><trkpt lat="43.870653" lon="12.4962631"><ele>273.8</ele><time>2026-05-02T13:52:59.19Z</time></trkpt><trkpt lat="43.8707105" lon="12.4961625"><ele>272.6</ele><time>2026-05-02T13:53:00.183Z</time></trkpt><trkpt lat="43.8707622" lon="12.4960613"><ele>271.4</ele><time>2026-05-02T13:53:01.194Z</time></trkpt><trkpt lat="43.8708236" lon="12.4959617"><ele>270.2</ele><time>2026-05-02T13:53:02.177Z</time></trkpt><trkpt lat="43.8708868" lon="12.4958554"><ele>269.0</ele><time>2026-05-02T13:53:03.181Z</time></trkpt><trkpt lat="43.8709511" lon="12.4957498"><ele>269.0</ele><time>2026-05-02T13:53:04.188Z</time></trkpt><trkpt lat="43.8710129" lon="12.495649"><ele>269.0</ele><time>2026-05-02T13:53:05.177Z</time></trkpt><trkpt lat="43.8710783" lon="12.4955337"><ele>269.0</ele><time>2026-05-02T13:53:06.184Z</time></trkpt><trkpt lat="43.871146" lon="12.4954161"><ele>269.0</ele><time>2026-05-02T13:53:07.182Z</time></trkpt><trkpt lat="43.8712086" lon="12.4953018"><ele>269.0</ele><time>2026-05-02T13:53:08.185Z</time></trkpt><trkpt lat="43.8712681" lon="12.4951818"><ele>269.0</ele><time>2026-05-02T13:53:09.181Z</time></trkpt><trkpt lat="43.8713342" lon="12.4950698"><ele>269.0</ele><time>2026-05-02T13:53:10.182Z</time></trkpt><trkpt lat="43.8713963" lon="12.4949678"><ele>269.0</ele><time>2026-05-02T13:53:11.177Z</time></trkpt><trkpt lat="43.8714465" lon="12.4948777"><ele>269.0</ele><time>2026-05-02T13:53:12.182Z</time></trkpt><trkpt lat="43.8714941" lon="12.4947839"><ele>269.0</ele><time>2026-05-02T13:53:13.192Z</time></trkpt><trkpt lat="43.8715419" lon="12.4946781"><ele>269.59999999999997</ele><time>2026-05-02T13:53:14.196Z</time></trkpt><trkpt lat="43.871583" lon="12.4945655"><ele>270.2</ele><time>2026-05-02T13:53:15.19Z</time></trkpt><trkpt lat="43.8716241" lon="12.4944441"><ele>270.79999999999995</ele><time>2026-05-02T13:53:16.194Z</time></trkpt><trkpt lat="43.8716598" lon="12.4943095"><ele>271.4</ele><time>2026-05-02T13:53:17.189Z</time></trkpt><trkpt lat="43.8716941" lon="12.4941823"><ele>272.0</ele><time>2026-05-02T13:53:18.198Z</time></trkpt><trkpt lat="43.8717218" lon="12.494059"><ele>272.0</ele><time>2026-05-02T13:53:19.183Z</time></trkpt><trkpt lat="43.871746" lon="12.4939489"><ele>272.0</ele><time>2026-05-02T13:53:20.183Z</time></trkpt><trkpt lat="43.8717636" lon="12.4938629"><ele>272.0</ele><time>2026-05-02T13:53:21.181Z</time></trkpt><trkpt lat="43.8717866" lon="12.4937659"><ele>272.0</ele><time>2026-05-02T13:53:23.181Z</time></trkpt><trkpt lat="43.8718454" lon="12.493728"><ele>272.0</ele><time>2026-05-02T13:53:25.181Z</time></trkpt><trkpt lat="43.8719767" lon="12.4937527"><ele>272.0</ele><time>2026-05-02T13:53:27.173Z</time></trkpt><trkpt lat="43.8720651" lon="12.4937884"><ele>272.0</ele><time>2026-05-02T13:53:28.162Z</time></trkpt><trkpt lat="43.872158" lon="12.4938405"><ele>272.0</ele><time>2026-05-02T13:53:29.183Z</time></trkpt><trkpt lat="43.872261" lon="12.4938914"><ele>272.0</ele><time>2026-05-02T13:53:30.179Z</time></trkpt><trkpt lat="43.8723733" lon="12.4939629"><ele>272.0</ele><time>2026-05-02T13:53:31.182Z</time></trkpt><trkpt lat="43.8725013" lon="12.4940319"><ele>276.33333333333337</ele><time>2026-05-02T13:53:32.182Z</time></trkpt><trkpt lat="43.8726418" lon="12.4941172"><ele>280.6666666666667</ele><time>2026-05-02T13:53:33.182Z</time></trkpt><trkpt lat="43.8727812" lon="12.4942172"><ele>285.0</ele><time>2026-05-02T13:53:34.164Z</time></trkpt><trkpt lat="43.8729132" lon="12.4943226"><ele>285.0</ele><time>2026-05-02T13:53:35.188Z</time></trkpt><trkpt lat="43.8730372" lon="12.4944223"><ele>285.0</ele><time>2026-05-02T13:53:36.192Z</time></trkpt><trkpt lat="43.8731613" lon="12.4945199"><ele>285.0</ele><time>2026-05-02T13:53:37.19Z</time></trkpt><trkpt lat="43.8732864" lon="12.4946265"><ele>285.0</ele><time>2026-05-02T13:53:38.195Z</time></trkpt><trkpt lat="43.8734118" lon="12.4947321"><ele>284.75</ele><time>2026-05-02T13:53:39.182Z</time></trkpt><trkpt lat="43.8735344" lon="12.4948439"><ele>284.5</ele><time>2026-05-02T13:53:40.175Z</time></trkpt><trkpt lat="43.8736528" lon="12.4949502"><ele>284.25</ele><time>2026-05-02T13:53:41.184Z</time></trkpt><trkpt lat="43.8737679" lon="12.4950604"><ele>284.0</ele><time>2026-05-02T13:53:42.184Z</time></trkpt><trkpt lat="43.8738753" lon="12.4951729"><ele>284.0</ele><time>2026-05-02T13:53:43.183Z</time></trkpt><trkpt lat="43.8739667" lon="12.495291"><ele>284.0</ele><time>2026-05-02T13:53:44.181Z</time></trkpt><trkpt lat="43.8740535" lon="12.4954001"><ele>284.0</ele><time>2026-05-02T13:53:45.185Z</time></trkpt><trkpt lat="43.8741287" lon="12.4955065"><ele>284.0</ele><time>2026-05-02T13:53:46.177Z</time></trkpt><trkpt lat="43.8741984" lon="12.4955946"><ele>284.0</ele><time>2026-05-02T13:53:47.188Z</time></trkpt><trkpt lat="43.8742694" lon="12.4956812"><ele>282.4</ele><time>2026-05-02T13:53:48.18Z</time></trkpt><trkpt lat="43.8743529" lon="12.4957534"><ele>280.79999999999995</ele><time>2026-05-02T13:53:49.182Z</time></trkpt><trkpt lat="43.8744462" lon="12.4958207"><ele>279.20000000000005</ele><time>2026-05-02T13:53:50.189Z</time></trkpt><trkpt lat="43.8745383" lon="12.4958612"><ele>277.6</ele><time>2026-05-02T13:53:51.171Z</time></trkpt><trkpt lat="43.8746271" lon="12.4958988"><ele>276.0</ele><time>2026-05-02T13:53:52.171Z</time></trkpt><trkpt lat="43.8747082" lon="12.4959307"><ele>276.0</ele><time>2026-05-02T13:53:53.176Z</time></trkpt><trkpt lat="43.8747834" lon="12.4959579"><ele>276.0</ele><time>2026-05-02T13:53:54.163Z</time></trkpt><trkpt lat="43.8748459" lon="12.4959689"><ele>276.0</ele><time>2026-05-02T13:53:55.183Z</time></trkpt><trkpt lat="43.8749679" lon="12.4959451"><ele>276.0</ele><time>2026-05-02T13:53:57.171Z</time></trkpt><trkpt lat="43.8749718" lon="12.4958413"><ele>276.0</ele><time>2026-05-02T13:53:59.18Z</time></trkpt><trkpt lat="43.8748745" lon="12.4956942"><ele>276.0</ele><time>2026-05-02T13:54:01.17Z</time></trkpt><trkpt lat="43.874785" lon="12.4956153"><ele>276.0</ele><time>2026-05-02T13:54:02.187Z</time></trkpt><trkpt lat="43.8746865" lon="12.4955412"><ele>276.0</ele><time>2026-05-02T13:54:03.178Z</time></trkpt><trkpt lat="43.8745717" lon="12.4954618"><ele>276.0</ele><time>2026-05-02T13:54:04.195Z</time></trkpt><trkpt lat="43.8744406" lon="12.4953669"><ele>278.6666666666667</ele><time>2026-05-02T13:54:05.186Z</time></trkpt><trkpt lat="43.8742973" lon="12.4952767"><ele>281.33333333333337</ele><time>2026-05-02T13:54:06.177Z</time></trkpt><trkpt lat="43.8741486" lon="12.4951801"><ele>284.0</ele><time>2026-05-02T13:54:07.178Z</time></trkpt><trkpt lat="43.8740032" lon="12.4950771"><ele>284.0</ele><time>2026-05-02T13:54:08.186Z</time></trkpt><trkpt lat="43.8738544" lon="12.4949426"><ele>284.0</ele><time>2026-05-02T13:54:09.194Z</time></trkpt><trkpt lat="43.873704" lon="12.4947883"><ele>284.0</ele><time>2026-05-02T13:54:10.19Z</time></trkpt><trkpt lat="43.8735457" lon="12.4946036"><ele>284.33333333333337</ele><time>2026-05-02T13:54:11.177Z</time></trkpt><trkpt lat="43.8733803" lon="12.4944082"><ele>284.6666666666667</ele><time>2026-05-02T13:54:12.167Z</time></trkpt><trkpt lat="43.8732172" lon="12.4942162"><ele>285.0</ele><time>2026-05-02T13:54:13.177Z</time></trkpt><trkpt lat="43.8730591" lon="12.4940278"><ele>285.0</ele><time>2026-05-02T13:54:14.189Z</time></trkpt><trkpt lat="43.8729093" lon="12.4938505"><ele>285.0</ele><time>2026-05-02T13:54:15.18Z</time></trkpt><trkpt lat="43.8727701" lon="12.4936785"><ele>285.0</ele><time>2026-05-02T13:54:16.179Z</time></trkpt><trkpt lat="43.8726311" lon="12.4935142"><ele>285.6666666666667</ele><time>2026-05-02T13:54:17.179Z</time></trkpt><trkpt lat="43.8724997" lon="12.49336"><ele>286.33333333333337</ele><time>2026-05-02T13:54:18.179Z</time></trkpt><trkpt lat="43.8723666" lon="12.493211"><ele>287.0</ele><time>2026-05-02T13:54:19.184Z</time></trkpt><trkpt lat="43.8722415" lon="12.4930692"><ele>287.0</ele><time>2026-05-02T13:54:20.195Z</time></trkpt><trkpt lat="43.8721269" lon="12.4929377"><ele>287.0</ele><time>2026-05-02T13:54:21.204Z</time></trkpt><trkpt lat="43.8720064" lon="12.4928091"><ele>287.0</ele><time>2026-05-02T13:54:22.187Z</time></trkpt><trkpt lat="43.8718856" lon="12.4926678"><ele>286.6666666666667</ele><time>2026-05-02T13:54:23.178Z</time></trkpt><trkpt lat="43.8717624" lon="12.492536"><ele>286.3333333333333</ele><time>2026-05-02T13:54:24.192Z</time></trkpt><trkpt lat="43.8716355" lon="12.4924073"><ele>286.0</ele><time>2026-05-02T13:54:25.192Z</time></trkpt><trkpt lat="43.8715163" lon="12.4922675"><ele>286.0</ele><time>2026-05-02T13:54:26.194Z</time></trkpt><trkpt lat="43.8714139" lon="12.4921193"><ele>286.0</ele><time>2026-05-02T13:54:27.188Z</time></trkpt><trkpt lat="43.8713171" lon="12.4919581"><ele>286.0</ele><time>2026-05-02T13:54:28.169Z</time></trkpt><trkpt lat="43.8712324" lon="12.491783"><ele>291.3333333333333</ele><time>2026-05-02T13:54:29.201Z</time></trkpt><trkpt lat="43.8711585" lon="12.4915887"><ele>296.6666666666667</ele><time>2026-05-02T13:54:30.186Z</time></trkpt><trkpt lat="43.8710862" lon="12.4913786"><ele>302.0</ele><time>2026-05-02T13:54:31.187Z</time></trkpt><trkpt lat="43.8710089" lon="12.491168"><ele>299.6666666666667</ele><time>2026-05-02T13:54:32.195Z</time></trkpt><trkpt lat="43.870917" lon="12.4909642"><ele>297.3333333333333</ele><time>2026-05-02T13:54:33.186Z</time></trkpt><trkpt lat="43.8708298" lon="12.4907719"><ele>295.0</ele><time>2026-05-02T13:54:34.187Z</time></trkpt><trkpt lat="43.8707457" lon="12.4905951"><ele>295.0</ele><time>2026-05-02T13:54:35.188Z</time></trkpt><trkpt lat="43.8706559" lon="12.4904358"><ele>295.0</ele><time>2026-05-02T13:54:36.185Z</time></trkpt><trkpt lat="43.8705725" lon="12.4902788"><ele>295.0</ele><time>2026-05-02T13:54:37.191Z</time></trkpt><trkpt lat="43.8704991" lon="12.490113"><ele>295.0</ele><time>2026-05-02T13:54:38.187Z</time></trkpt><trkpt lat="43.8704327" lon="12.4899447"><ele>297.25</ele><time>2026-05-02T13:54:39.188Z</time></trkpt><trkpt lat="43.870374" lon="12.4897781"><ele>299.5</ele><time>2026-05-02T13:54:40.189Z</time></trkpt><trkpt lat="43.8703425" lon="12.4896111"><ele>301.75</ele><time>2026-05-02T13:54:41.178Z</time></trkpt><trkpt lat="43.870322" lon="12.4894586"><ele>304.0</ele><time>2026-05-02T13:54:42.192Z</time></trkpt><trkpt lat="43.8703232" lon="12.4893239"><ele>304.4</ele><time>2026-05-02T13:54:43.196Z</time></trkpt><trkpt lat="43.8703484" lon="12.4892081"><ele>304.79999999999995</ele><time>2026-05-02T13:54:44.184Z</time></trkpt><trkpt lat="43.8704024" lon="12.4890975"><ele>305.20000000000005</ele><time>2026-05-02T13:54:45.189Z</time></trkpt><trkpt lat="43.8704919" lon="12.488989"><ele>305.6</ele><time>2026-05-02T13:54:46.18Z</time></trkpt><trkpt lat="43.8705851" lon="12.4889214"><ele>306.0</ele><time>2026-05-02T13:54:47.178Z</time></trkpt><trkpt lat="43.870698" lon="12.4888599"><ele>306.0</ele><time>2026-05-02T13:54:48.189Z</time></trkpt><trkpt lat="43.8708266" lon="12.4888077"><ele>306.0</ele><time>2026-05-02T13:54:49.18Z</time></trkpt><trkpt lat="43.8709643" lon="12.4887414"><ele>306.0</ele><time>2026-05-02T13:54:50.19Z</time></trkpt><trkpt lat="43.8711135" lon="12.4886589"><ele>306.0</ele><time>2026-05-02T13:54:51.191Z</time></trkpt><trkpt lat="43.8712641" lon="12.4885666"><ele>306.6666666666667</ele><time>2026-05-02T13:54:52.184Z</time></trkpt><trkpt lat="43.8714198" lon="12.4884825"><ele>307.33333333333337</ele><time>2026-05-02T13:54:53.185Z</time></trkpt><trkpt lat="43.8715605" lon="12.48841"><ele>308.0</ele><time>2026-05-02T13:54:54.2Z</time></trkpt><trkpt lat="43.8716903" lon="12.4883469"><ele>309.2</ele><time>2026-05-02T13:54:55.19Z</time></trkpt><trkpt lat="43.8718134" lon="12.488294"><ele>310.4</ele><time>2026-05-02T13:54:56.193Z</time></trkpt><trkpt lat="43.8719214" lon="12.488243"><ele>311.59999999999997</ele><time>2026-05-02T13:54:57.193Z</time></trkpt><trkpt lat="43.8720195" lon="12.4881912"><ele>312.8</ele><time>2026-05-02T13:54:58.194Z</time></trkpt><trkpt lat="43.8721037" lon="12.4881481"><ele>314.0</ele><time>2026-05-02T13:54:59.189Z</time></trkpt><trkpt lat="43.8721767" lon="12.488142"><ele>314.0</ele><time>2026-05-02T13:55:00.176Z</time></trkpt><trkpt lat="43.872248" lon="12.488178"><ele>314.0</ele><time>2026-05-02T13:55:01.197Z</time></trkpt><trkpt lat="43.8722972" lon="12.4882526"><ele>314.0</ele><time>2026-05-02T13:55:02.178Z</time></trkpt><trkpt lat="43.8723165" lon="12.4883485"><ele>314.0</ele><time>2026-05-02T13:55:03.187Z</time></trkpt><trkpt lat="43.8722876" lon="12.488446"><ele>314.0</ele><time>2026-05-02T13:55:04.177Z</time></trkpt><trkpt lat="43.8722304" lon="12.488518"><ele>314.0</ele><time>2026-05-02T13:55:05.184Z</time></trkpt><trkpt lat="43.8721299" lon="12.4885197"><ele>314.0</ele><time>2026-05-02T13:55:06.203Z</time></trkpt><trkpt lat="43.8720033" lon="12.4884983"><ele>314.0</ele><time>2026-05-02T13:55:07.203Z</time></trkpt><trkpt lat="43.8718741" lon="12.4884794"><ele>314.0</ele><time>2026-05-02T13:55:08.186Z</time></trkpt><trkpt lat="43.871756" lon="12.488481"><ele>314.0</ele><time>2026-05-02T13:55:09.207Z</time></trkpt><trkpt lat="43.8716409" lon="12.488534"><ele>315.25</ele><time>2026-05-02T13:55:10.185Z</time></trkpt><trkpt lat="43.8715315" lon="12.4886411"><ele>316.5</ele><time>2026-05-02T13:55:11.191Z</time></trkpt><trkpt lat="43.8714257" lon="12.4887703"><ele>317.75</ele><time>2026-05-02T13:55:12.177Z</time></trkpt><trkpt lat="43.8713103" lon="12.4889052"><ele>319.0</ele><time>2026-05-02T13:55:13.188Z</time></trkpt><trkpt lat="43.871198" lon="12.4890365"><ele>319.0</ele><time>2026-05-02T13:55:14.198Z</time></trkpt><trkpt lat="43.871092" lon="12.4891607"><ele>319.0</ele><time>2026-05-02T13:55:15.188Z</time></trkpt><trkpt lat="43.8710183" lon="12.4892969"><ele>319.0</ele><time>2026-05-02T13:55:16.193Z</time></trkpt><trkpt lat="43.8709786" lon="12.4894475"><ele>319.0</ele><time>2026-05-02T13:55:17.173Z</time></trkpt><trkpt lat="43.8709797" lon="12.4896106"><ele>319.25</ele><time>2026-05-02T13:55:18.191Z</time></trkpt><trkpt lat="43.871048" lon="12.4897579"><ele>319.5</ele><time>2026-05-02T13:55:19.203Z</time></trkpt><trkpt lat="43.8711589" lon="12.4898815"><ele>319.75</ele><time>2026-05-02T13:55:20.195Z</time></trkpt><trkpt lat="43.8712982" lon="12.4899737"><ele>320.0</ele><time>2026-05-02T13:55:21.185Z</time></trkpt><trkpt lat="43.8714563" lon="12.4900275"><ele>320.0</ele><time>2026-05-02T13:55:22.183Z</time></trkpt><trkpt lat="43.8716262" lon="12.4900555"><ele>320.0</ele><time>2026-05-02T13:55:23.181Z</time></trkpt><trkpt lat="43.8717942" lon="12.4901004"><ele>320.0</ele><time>2026-05-02T13:55:24.196Z</time></trkpt><trkpt lat="43.8719505" lon="12.4901474"><ele>322.0</ele><time>2026-05-02T13:55:25.187Z</time></trkpt><trkpt lat="43.8721011" lon="12.4901659"><ele>324.0</ele><time>2026-05-02T13:55:26.158Z</time></trkpt><trkpt lat="43.87225" lon="12.4901488"><ele>326.0</ele><time>2026-05-02T13:55:27.192Z</time></trkpt><trkpt lat="43.8724" lon="12.4901149"><ele>326.0</ele><time>2026-05-02T13:55:28.172Z</time></trkpt><trkpt lat="43.8725487" lon="12.4900462"><ele>326.0</ele><time>2026-05-02T13:55:29.186Z</time></trkpt><trkpt lat="43.8726942" lon="12.4899581"><ele>326.0</ele><time>2026-05-02T13:55:30.183Z</time></trkpt><trkpt lat="43.8728395" lon="12.4898633"><ele>327.0</ele><time>2026-05-02T13:55:31.187Z</time></trkpt><trkpt lat="43.8729884" lon="12.489767"><ele>328.0</ele><time>2026-05-02T13:55:32.181Z</time></trkpt><trkpt lat="43.8731426" lon="12.4896683"><ele>329.0</ele><time>2026-05-02T13:55:33.192Z</time></trkpt><trkpt lat="43.8733027" lon="12.4895732"><ele>330.33333333333337</ele><time>2026-05-02T13:55:34.187Z</time></trkpt><trkpt lat="43.8734563" lon="12.4894821"><ele>331.6666666666667</ele><time>2026-05-02T13:55:35.188Z</time></trkpt><trkpt lat="43.8735988" lon="12.4893899"><ele>333.0</ele><time>2026-05-02T13:55:36.185Z</time></trkpt><trkpt lat="43.8737368" lon="12.4893009"><ele>333.0</ele><time>2026-05-02T13:55:37.183Z</time></trkpt><trkpt lat="43.873875" lon="12.4892144"><ele>333.0</ele><time>2026-05-02T13:55:38.182Z</time></trkpt><trkpt lat="43.8740065" lon="12.4891246"><ele>333.0</ele><time>2026-05-02T13:55:39.188Z</time></trkpt><trkpt lat="43.8741405" lon="12.4890356"><ele>333.0</ele><time>2026-05-02T13:55:40.214Z</time></trkpt><trkpt lat="43.8742625" lon="12.4889565"><ele>334.5</ele><time>2026-05-02T13:55:41.194Z</time></trkpt><trkpt lat="43.8743707" lon="12.4888917"><ele>336.0</ele><time>2026-05-02T13:55:42.192Z</time></trkpt><trkpt lat="43.8744771" lon="12.4888284"><ele>337.5</ele><time>2026-05-02T13:55:43.176Z</time></trkpt><trkpt lat="43.8745883" lon="12.4887611"><ele>339.0</ele><time>2026-05-02T13:55:44.198Z</time></trkpt><trkpt lat="43.8746997" lon="12.4886922"><ele>339.25</ele><time>2026-05-02T13:55:45.19Z</time></trkpt><trkpt lat="43.8748125" lon="12.4886259"><ele>339.5</ele><time>2026-05-02T13:55:46.199Z</time></trkpt><trkpt lat="43.8749227" lon="12.4885544"><ele>339.75</ele><time>2026-05-02T13:55:47.181Z</time></trkpt><trkpt lat="43.8750275" lon="12.488485"><ele>340.0</ele><time>2026-05-02T13:55:48.197Z</time></trkpt><trkpt lat="43.8751357" lon="12.4884197"><ele>342.75</ele><time>2026-05-02T13:55:49.189Z</time></trkpt><trkpt lat="43.8752482" lon="12.4883576"><ele>345.5</ele><time>2026-05-02T13:55:50.171Z</time></trkpt><trkpt lat="43.8753676" lon="12.4882943"><ele>348.25</ele><time>2026-05-02T13:55:51.192Z</time></trkpt><trkpt lat="43.8755057" lon="12.4882396"><ele>351.0</ele><time>2026-05-02T13:55:52.186Z</time></trkpt><trkpt lat="43.8756516" lon="12.4881848"><ele>351.0</ele><time>2026-05-02T13:55:53.186Z</time></trkpt><trkpt lat="43.8758076" lon="12.4881329"><ele>351.0</ele><time>2026-05-02T13:55:54.198Z</time></trkpt><trkpt lat="43.8759767" lon="12.4880833"><ele>351.0</ele><time>2026-05-02T13:55:55.188Z</time></trkpt><trkpt lat="43.876157" lon="12.4880628"><ele>356.0</ele><time>2026-05-02T13:55:56.188Z</time></trkpt><trkpt lat="43.8763459" lon="12.488063"><ele>361.0</ele><time>2026-05-02T13:55:57.181Z</time></trkpt><trkpt lat="43.8765423" lon="12.4880681"><ele>366.0</ele><time>2026-05-02T13:55:58.192Z</time></trkpt><trkpt lat="43.8767279" lon="12.4880554"><ele>367.3333333333333</ele><time>2026-05-02T13:55:59.198Z</time></trkpt><trkpt lat="43.876907" lon="12.487996"><ele>368.66666666666663</ele><time>2026-05-02T13:56:00.185Z</time></trkpt><trkpt lat="43.877074" lon="12.4879146"><ele>370.0</ele><time>2026-05-02T13:56:01.192Z</time></trkpt><trkpt lat="43.8772193" lon="12.4878107"><ele>370.0</ele><time>2026-05-02T13:56:02.183Z</time></trkpt><trkpt lat="43.8773449" lon="12.4876766"><ele>370.0</ele><time>2026-05-02T13:56:03.195Z</time></trkpt><trkpt lat="43.8774648" lon="12.4875071"><ele>370.0</ele><time>2026-05-02T13:56:04.19Z</time></trkpt><trkpt lat="43.877577" lon="12.4873293"><ele>375.66666666666663</ele><time>2026-05-02T13:56:05.198Z</time></trkpt><trkpt lat="43.877703" lon="12.4871633"><ele>381.3333333333333</ele><time>2026-05-02T13:56:06.196Z</time></trkpt><trkpt lat="43.8778261" lon="12.487024"><ele>387.0</ele><time>2026-05-02T13:56:07.185Z</time></trkpt><trkpt lat="43.8779298" lon="12.4869008"><ele>387.5</ele><time>2026-05-02T13:56:08.201Z</time></trkpt><trkpt lat="43.8780063" lon="12.4867595"><ele>388.0</ele><time>2026-05-02T13:56:09.183Z</time></trkpt><trkpt lat="43.8780472" lon="12.4866015"><ele>388.5</ele><time>2026-05-02T13:56:10.187Z</time></trkpt><trkpt lat="43.8780505" lon="12.4864122"><ele>389.0</ele><time>2026-05-02T13:56:11.17Z</time></trkpt><trkpt lat="43.878023" lon="12.486218"><ele>389.5</ele><time>2026-05-02T13:56:12.164Z</time></trkpt><trkpt lat="43.8779697" lon="12.4860378"><ele>390.0</ele><time>2026-05-02T13:56:13.2Z</time></trkpt><trkpt lat="43.8779254" lon="12.4858639"><ele>390.5</ele><time>2026-05-02T13:56:14.197Z</time></trkpt><trkpt lat="43.8779137" lon="12.4856959"><ele>391.0</ele><time>2026-05-02T13:56:15.196Z</time></trkpt><trkpt lat="43.8779373" lon="12.4855218"><ele>390.0</ele><time>2026-05-02T13:56:16.19Z</time></trkpt><trkpt lat="43.8779927" lon="12.485356"><ele>389.0</ele><time>2026-05-02T13:56:17.19Z</time></trkpt><trkpt lat="43.8780792" lon="12.4852097"><ele>388.0</ele><time>2026-05-02T13:56:18.178Z</time></trkpt><trkpt lat="43.8782015" lon="12.4850728"><ele>387.0</ele><time>2026-05-02T13:56:19.182Z</time></trkpt><trkpt lat="43.8783432" lon="12.4849377"><ele>389.66666666666663</ele><time>2026-05-02T13:56:20.188Z</time></trkpt><trkpt lat="43.8784994" lon="12.4848176"><ele>392.3333333333333</ele><time>2026-05-02T13:56:21.189Z</time></trkpt><trkpt lat="43.8786683" lon="12.4846779"><ele>395.0</ele><time>2026-05-02T13:56:22.189Z</time></trkpt><trkpt lat="43.8788577" lon="12.484531"><ele>395.0</ele><time>2026-05-02T13:56:23.192Z</time></trkpt><trkpt lat="43.8790454" lon="12.4843727"><ele>395.0</ele><time>2026-05-02T13:56:24.191Z</time></trkpt><trkpt lat="43.8792326" lon="12.4842171"><ele>395.0</ele><time>2026-05-02T13:56:25.198Z</time></trkpt><trkpt lat="43.8794118" lon="12.4840699"><ele>396.3333333333333</ele><time>2026-05-02T13:56:26.197Z</time></trkpt><trkpt lat="43.8795811" lon="12.4839278"><ele>397.66666666666663</ele><time>2026-05-02T13:56:27.194Z</time></trkpt><trkpt lat="43.8797353" lon="12.4837984"><ele>399.0</ele><time>2026-05-02T13:56:28.169Z</time></trkpt><trkpt lat="43.8798787" lon="12.4836894"><ele>399.5</ele><time>2026-05-02T13:56:29.192Z</time></trkpt><trkpt lat="43.8800142" lon="12.4836368"><ele>400.0</ele><time>2026-05-02T13:56:30.2Z</time></trkpt><trkpt lat="43.8801572" lon="12.4836323"><ele>400.5</ele><time>2026-05-02T13:56:31.183Z</time></trkpt><trkpt lat="43.8802817" lon="12.4836695"><ele>401.0</ele><time>2026-05-02T13:56:32.193Z</time></trkpt><trkpt lat="43.8804142" lon="12.4837426"><ele>402.0</ele><time>2026-05-02T13:56:33.183Z</time></trkpt><trkpt lat="43.88052" lon="12.4838652"><ele>403.0</ele><time>2026-05-02T13:56:34.189Z</time></trkpt><trkpt lat="43.880605" lon="12.4840177"><ele>404.0</ele><time>2026-05-02T13:56:35.187Z</time></trkpt><trkpt lat="43.8806562" lon="12.4841912"><ele>405.0</ele><time>2026-05-02T13:56:36.184Z</time></trkpt><trkpt lat="43.8807021" lon="12.4843759"><ele>405.0</ele><time>2026-05-02T13:56:37.178Z</time></trkpt><trkpt lat="43.8807745" lon="12.4844884"><ele>405.0</ele><time>2026-05-02T13:56:38.192Z</time></trkpt><trkpt lat="43.8808715" lon="12.4845387"><ele>405.0</ele><time>2026-05-02T13:56:39.18Z</time></trkpt><trkpt lat="43.8809706" lon="12.4845379"><ele>405.0</ele><time>2026-05-02T13:56:40.185Z</time></trkpt><trkpt lat="43.8810537" lon="12.4844709"><ele>405.0</ele><time>2026-05-02T13:56:41.188Z</time></trkpt><trkpt lat="43.8811246" lon="12.4843332"><ele>408.75</ele><time>2026-05-02T13:56:42.189Z</time></trkpt><trkpt lat="43.8811658" lon="12.4841701"><ele>412.5</ele><time>2026-05-02T13:56:43.176Z</time></trkpt><trkpt lat="43.8811744" lon="12.4839886"><ele>416.25</ele><time>2026-05-02T13:56:44.196Z</time></trkpt><trkpt lat="43.8811766" lon="12.4837806"><ele>420.0</ele><time>2026-05-02T13:56:45.183Z</time></trkpt><trkpt lat="43.8811739" lon="12.4835613"><ele>420.0</ele><time>2026-05-02T13:56:46.196Z</time></trkpt><trkpt lat="43.8811757" lon="12.4833128"><ele>420.0</ele><time>2026-05-02T13:56:47.187Z</time></trkpt><trkpt lat="43.8811764" lon="12.4830637"><ele>420.0</ele><time>2026-05-02T13:56:48.195Z</time></trkpt><trkpt lat="43.8811791" lon="12.4828405"><ele>420.0</ele><time>2026-05-02T13:56:49.189Z</time></trkpt><trkpt lat="43.881214" lon="12.4826511"><ele>420.0</ele><time>2026-05-02T13:56:50.192Z</time></trkpt><trkpt lat="43.8812754" lon="12.4824884"><ele>420.0</ele><time>2026-05-02T13:56:51.187Z</time></trkpt><trkpt lat="43.8813653" lon="12.4823652"><ele>420.0</ele><time>2026-05-02T13:56:52.193Z</time></trkpt><trkpt lat="43.881491" lon="12.4822779"><ele>420.0</ele><time>2026-05-02T13:56:53.189Z</time></trkpt><trkpt lat="43.8816391" lon="12.4822338"><ele>420.0</ele><time>2026-05-02T13:56:54.178Z</time></trkpt><trkpt lat="43.8817955" lon="12.4821903"><ele>420.0</ele><time>2026-05-02T13:56:55.187Z</time></trkpt><trkpt lat="43.8819705" lon="12.4820819"><ele>422.66666666666663</ele><time>2026-05-02T13:56:56.192Z</time></trkpt><trkpt lat="43.882134" lon="12.481939"><ele>425.3333333333333</ele><time>2026-05-02T13:56:57.198Z</time></trkpt><trkpt lat="43.8822993" lon="12.4817933"><ele>428.0</ele><time>2026-05-02T13:56:58.201Z</time></trkpt><trkpt lat="43.8824663" lon="12.4816452"><ele>431.66666666666663</ele><time>2026-05-02T13:56:59.174Z</time></trkpt><trkpt lat="43.8826163" lon="12.481511"><ele>435.33333333333337</ele><time>2026-05-02T13:57:00.188Z</time></trkpt><trkpt lat="43.8827546" lon="12.4813845"><ele>439.0</ele><time>2026-05-02T13:57:01.192Z</time></trkpt><trkpt lat="43.8828775" lon="12.4812804"><ele>439.0</ele><time>2026-05-02T13:57:02.197Z</time></trkpt><trkpt lat="43.8829858" lon="12.4812147"><ele>439.0</ele><time>2026-05-02T13:57:03.188Z</time></trkpt><trkpt lat="43.8830847" lon="12.4812006"><ele>439.0</ele><time>2026-05-02T13:57:04.185Z</time></trkpt><trkpt lat="43.8831656" lon="12.4812649"><ele>439.0</ele><time>2026-05-02T13:57:05.19Z</time></trkpt><trkpt lat="43.8832256" lon="12.481379"><ele>439.0</ele><time>2026-05-02T13:57:06.191Z</time></trkpt><trkpt lat="43.8832514" lon="12.481531"><ele>439.0</ele><time>2026-05-02T13:57:07.2Z</time></trkpt><trkpt lat="43.883228" lon="12.4816721"><ele>439.0</ele><time>2026-05-02T13:57:08.186Z</time></trkpt><trkpt lat="43.8831707" lon="12.4817803"><ele>439.0</ele><time>2026-05-02T13:57:09.195Z</time></trkpt><trkpt lat="43.8830872" lon="12.4818988"><ele>439.0</ele><time>2026-05-02T13:57:10.184Z</time></trkpt><trkpt lat="43.8830174" lon="12.4820073"><ele>439.0</ele><time>2026-05-02T13:57:11.187Z</time></trkpt><trkpt lat="43.8829603" lon="12.4821546"><ele>439.5</ele><time>2026-05-02T13:57:12.192Z</time></trkpt><trkpt lat="43.882945" lon="12.4823095"><ele>440.0</ele><time>2026-05-02T13:57:13.178Z</time></trkpt><trkpt lat="43.882969" lon="12.4824833"><ele>440.5</ele><time>2026-05-02T13:57:14.185Z</time></trkpt><trkpt lat="43.8830493" lon="12.4826532"><ele>441.0</ele><time>2026-05-02T13:57:15.183Z</time></trkpt><trkpt lat="43.8831497" lon="12.4828239"><ele>440.0</ele><time>2026-05-02T13:57:16.18Z</time></trkpt><trkpt lat="43.8832607" lon="12.4829834"><ele>439.0</ele><time>2026-05-02T13:57:17.189Z</time></trkpt><trkpt lat="43.8833595" lon="12.4831486"><ele>438.0</ele><time>2026-05-02T13:57:18.186Z</time></trkpt><trkpt lat="43.8834231" lon="12.4833148"><ele>438.0</ele><time>2026-05-02T13:57:19.183Z</time></trkpt><trkpt lat="43.8834472" lon="12.483498"><ele>438.0</ele><time>2026-05-02T13:57:20.177Z</time></trkpt><trkpt lat="43.8834284" lon="12.4836961"><ele>438.0</ele><time>2026-05-02T13:57:21.179Z</time></trkpt><trkpt lat="43.8833836" lon="12.4839167"><ele>438.0</ele><time>2026-05-02T13:57:22.176Z</time></trkpt><trkpt lat="43.8833235" lon="12.4841436"><ele>439.66666666666663</ele><time>2026-05-02T13:57:23.193Z</time></trkpt><trkpt lat="43.8832428" lon="12.484344"><ele>441.3333333333333</ele><time>2026-05-02T13:57:24.187Z</time></trkpt><trkpt lat="43.8831344" lon="12.4845341"><ele>443.0</ele><time>2026-05-02T13:57:25.2Z</time></trkpt><trkpt lat="43.8830183" lon="12.4846856"><ele>446.66666666666663</ele><time>2026-05-02T13:57:26.179Z</time></trkpt><trkpt lat="43.88289" lon="12.4848411"><ele>450.33333333333337</ele><time>2026-05-02T13:57:27.194Z</time></trkpt><trkpt lat="43.8827811" lon="12.4850557"><ele>454.0</ele><time>2026-05-02T13:57:28.162Z</time></trkpt><trkpt lat="43.8826898" lon="12.4852852"><ele>453.0</ele><time>2026-05-02T13:57:29.184Z</time></trkpt><trkpt lat="43.882599" lon="12.485512"><ele>452.0</ele><time>2026-05-02T13:57:30.189Z</time></trkpt><trkpt lat="43.8825291" lon="12.4856973"><ele>451.0</ele><time>2026-05-02T13:57:31.2Z</time></trkpt><trkpt lat="43.882479" lon="12.4858743"><ele>451.0</ele><time>2026-05-02T13:57:32.189Z</time></trkpt><trkpt lat="43.8824714" lon="12.4860426"><ele>451.0</ele><time>2026-05-02T13:57:33.178Z</time></trkpt><trkpt lat="43.8824855" lon="12.4862152"><ele>451.0</ele><time>2026-05-02T13:57:34.187Z</time></trkpt><trkpt lat="43.8825267" lon="12.4863716"><ele>451.0</ele><time>2026-05-02T13:57:35.21Z</time></trkpt><trkpt lat="43.8826083" lon="12.4865161"><ele>453.25</ele><time>2026-05-02T13:57:36.18Z</time></trkpt><trkpt lat="43.8827075" lon="12.486628"><ele>455.5</ele><time>2026-05-02T13:57:37.188Z</time></trkpt><trkpt lat="43.8828216" lon="12.4866994"><ele>457.75</ele><time>2026-05-02T13:57:38.188Z</time></trkpt><trkpt lat="43.882955" lon="12.4867125"><ele>460.0</ele><time>2026-05-02T13:57:39.199Z</time></trkpt><trkpt lat="43.8830967" lon="12.4866466"><ele>460.0</ele><time>2026-05-02T13:57:40.18Z</time></trkpt><trkpt lat="43.8832487" lon="12.4865471"><ele>460.0</ele><time>2026-05-02T13:57:41.205Z</time></trkpt><trkpt lat="43.8834085" lon="12.4864267"><ele>460.0</ele><time>2026-05-02T13:57:42.194Z</time></trkpt><trkpt lat="43.8835792" lon="12.4863073"><ele>462.6666666666667</ele><time>2026-05-02T13:57:43.201Z</time></trkpt><trkpt lat="43.8837582" lon="12.4861689"><ele>465.33333333333337</ele><time>2026-05-02T13:57:44.193Z</time></trkpt><trkpt lat="43.8839483" lon="12.4860368"><ele>468.0</ele><time>2026-05-02T13:57:45.183Z</time></trkpt><trkpt lat="43.8841363" lon="12.4859077"><ele>468.33333333333337</ele><time>2026-05-02T13:57:46.181Z</time></trkpt><trkpt lat="43.8843016" lon="12.4857794"><ele>468.6666666666667</ele><time>2026-05-02T13:57:47.199Z</time></trkpt><trkpt lat="43.8844608" lon="12.4856596"><ele>469.0</ele><time>2026-05-02T13:57:48.191Z</time></trkpt><trkpt lat="43.8846278" lon="12.4856105"><ele>469.0</ele><time>2026-05-02T13:57:49.183Z</time></trkpt><trkpt lat="43.8848074" lon="12.4855895"><ele>469.0</ele><time>2026-05-02T13:57:50.206Z</time></trkpt><trkpt lat="43.8849837" lon="12.485562"><ele>469.0</ele><time>2026-05-02T13:57:51.182Z</time></trkpt><trkpt lat="43.8851702" lon="12.4855182"><ele>471.33333333333337</ele><time>2026-05-02T13:57:52.195Z</time></trkpt><trkpt lat="43.8853611" lon="12.4854712"><ele>473.66666666666663</ele><time>2026-05-02T13:57:53.185Z</time></trkpt><trkpt lat="43.8855523" lon="12.4854069"><ele>476.0</ele><time>2026-05-02T13:57:54.193Z</time></trkpt><trkpt lat="43.8857341" lon="12.4853412"><ele>476.0</ele><time>2026-05-02T13:57:55.19Z</time></trkpt><trkpt lat="43.8859025" lon="12.4852826"><ele>476.0</ele><time>2026-05-02T13:57:56.19Z</time></trkpt><trkpt lat="43.8860545" lon="12.4852247"><ele>476.0</ele><time>2026-05-02T13:57:57.201Z</time></trkpt><trkpt lat="43.886197" lon="12.4851473"><ele>479.66666666666663</ele><time>2026-05-02T13:57:58.189Z</time></trkpt><trkpt lat="43.8863164" lon="12.485034"><ele>483.33333333333337</ele><time>2026-05-02T13:57:59.193Z</time></trkpt><trkpt lat="43.8864244" lon="12.4848826"><ele>487.0</ele><time>2026-05-02T13:58:00.195Z</time></trkpt><trkpt lat="43.8865218" lon="12.4846957"><ele>487.0</ele><time>2026-05-02T13:58:01.192Z</time></trkpt><trkpt lat="43.8866284" lon="12.4844967"><ele>487.0</ele><time>2026-05-02T13:58:02.205Z</time></trkpt><trkpt lat="43.8867416" lon="12.4842997"><ele>487.0</ele><time>2026-05-02T13:58:03.196Z</time></trkpt><trkpt lat="43.8868653" lon="12.4840876"><ele>493.0</ele><time>2026-05-02T13:58:04.192Z</time></trkpt><trkpt lat="43.8869932" lon="12.4838736"><ele>499.0</ele><time>2026-05-02T13:58:05.197Z</time></trkpt><trkpt lat="43.8871126" lon="12.4836788"><ele>505.0</ele><time>2026-05-02T13:58:06.188Z</time></trkpt><trkpt lat="43.8872104" lon="12.4835093"><ele>505.0</ele><time>2026-05-02T13:58:07.194Z</time></trkpt><trkpt lat="43.8872882" lon="12.4833394"><ele>505.0</ele><time>2026-05-02T13:58:08.19Z</time></trkpt><trkpt lat="43.8873316" lon="12.4831593"><ele>505.0</ele><time>2026-05-02T13:58:09.189Z</time></trkpt><trkpt lat="43.887347" lon="12.4829596"><ele>505.0</ele><time>2026-05-02T13:58:10.196Z</time></trkpt><trkpt lat="43.8873257" lon="12.482744"><ele>508.33333333333337</ele><time>2026-05-02T13:58:11.184Z</time></trkpt><trkpt lat="43.8872768" lon="12.482567"><ele>511.66666666666663</ele><time>2026-05-02T13:58:12.207Z</time></trkpt><trkpt lat="43.8871793" lon="12.4823948"><ele>515.0</ele><time>2026-05-02T13:58:13.161Z</time></trkpt><trkpt lat="43.8870508" lon="12.4822158"><ele>516.6666666666666</ele><time>2026-05-02T13:58:14.181Z</time></trkpt><trkpt lat="43.8869203" lon="12.4820526"><ele>518.3333333333334</ele><time>2026-05-02T13:58:15.154Z</time></trkpt><trkpt lat="43.8867762" lon="12.4818718"><ele>520.0</ele><time>2026-05-02T13:58:16.172Z</time></trkpt><trkpt lat="43.8866249" lon="12.4816881"><ele>520.0</ele><time>2026-05-02T13:58:17.164Z</time></trkpt><trkpt lat="43.8864631" lon="12.4815123"><ele>520.0</ele><time>2026-05-02T13:58:18.154Z</time></trkpt><trkpt lat="43.8862917" lon="12.4813564"><ele>520.0</ele><time>2026-05-02T13:58:19.174Z</time></trkpt><trkpt lat="43.8861286" lon="12.4812014"><ele>519.25</ele><time>2026-05-02T13:58:20.158Z</time></trkpt><trkpt lat="43.885996" lon="12.4810671"><ele>518.5</ele><time>2026-05-02T13:58:21.191Z</time></trkpt><trkpt lat="43.885876" lon="12.480944"><ele>517.75</ele><time>2026-05-02T13:58:22.179Z</time></trkpt><trkpt lat="43.8857855" lon="12.4808396"><ele>517.0</ele><time>2026-05-02T13:58:23.157Z</time></trkpt><trkpt lat="43.885727" lon="12.4807423"><ele>517.0</ele><time>2026-05-02T13:58:24.162Z</time></trkpt><trkpt lat="43.8856983" lon="12.4806541"><ele>517.0</ele><time>2026-05-02T13:58:25.166Z</time></trkpt><trkpt lat="43.8857452" lon="12.480476"><ele>517.0</ele><time>2026-05-02T13:58:27.188Z</time></trkpt><trkpt lat="43.885816" lon="12.4803728"><ele>517.0</ele><time>2026-05-02T13:58:28.176Z</time></trkpt><trkpt lat="43.8859058" lon="12.4802493"><ele>517.0</ele><time>2026-05-02T13:58:29.193Z</time></trkpt><trkpt lat="43.8859936" lon="12.4801136"><ele>520.0</ele><time>2026-05-02T13:58:30.188Z</time></trkpt><trkpt lat="43.8860847" lon="12.4799658"><ele>523.0</ele><time>2026-05-02T13:58:31.19Z</time></trkpt><trkpt lat="43.8861746" lon="12.4798283"><ele>526.0</ele><time>2026-05-02T13:58:32.198Z</time></trkpt><trkpt lat="43.8862674" lon="12.4797091"><ele>529.0</ele><time>2026-05-02T13:58:33.177Z</time></trkpt><trkpt lat="43.8863705" lon="12.479624"><ele>529.0</ele><time>2026-05-02T13:58:34.182Z</time></trkpt><trkpt lat="43.8864948" lon="12.4795865"><ele>529.0</ele><time>2026-05-02T13:58:35.185Z</time></trkpt><trkpt lat="43.8866439" lon="12.479606"><ele>529.0</ele><time>2026-05-02T13:58:36.19Z</time></trkpt><trkpt lat="43.8868054" lon="12.4796368"><ele>529.0</ele><time>2026-05-02T13:58:37.186Z</time></trkpt><trkpt lat="43.8869727" lon="12.4796622"><ele>529.0</ele><time>2026-05-02T13:58:38.194Z</time></trkpt><trkpt lat="43.8871398" lon="12.4796646"><ele>529.0</ele><time>2026-05-02T13:58:39.2Z</time></trkpt><trkpt lat="43.887305" lon="12.479604"><ele>529.0</ele><time>2026-05-02T13:58:40.192Z</time></trkpt><trkpt lat="43.887458" lon="12.4795172"><ele>532.5</ele><time>2026-05-02T13:58:41.184Z</time></trkpt><trkpt lat="43.8875948" lon="12.4794124"><ele>536.0</ele><time>2026-05-02T13:58:42.191Z</time></trkpt><trkpt lat="43.8876936" lon="12.4792852"><ele>539.5</ele><time>2026-05-02T13:58:43.192Z</time></trkpt><trkpt lat="43.8877763" lon="12.4791376"><ele>543.0</ele><time>2026-05-02T13:58:44.182Z</time></trkpt><trkpt lat="43.8878304" lon="12.47896"><ele>542.5</ele><time>2026-05-02T13:58:45.186Z</time></trkpt><trkpt lat="43.8878604" lon="12.4787469"><ele>542.0</ele><time>2026-05-02T13:58:46.195Z</time></trkpt><trkpt lat="43.8878504" lon="12.4785407"><ele>541.5</ele><time>2026-05-02T13:58:47.185Z</time></trkpt><trkpt lat="43.8878195" lon="12.4783472"><ele>541.0</ele><time>2026-05-02T13:58:48.184Z</time></trkpt><trkpt lat="43.8877841" lon="12.4781708"><ele>541.0</ele><time>2026-05-02T13:58:49.197Z</time></trkpt><trkpt lat="43.8877447" lon="12.4780043"><ele>541.0</ele><time>2026-05-02T13:58:50.192Z</time></trkpt><trkpt lat="43.8877315" lon="12.4778502"><ele>541.0</ele><time>2026-05-02T13:58:51.196Z</time></trkpt><trkpt lat="43.8877475" lon="12.4777041"><ele>541.0</ele><time>2026-05-02T13:58:52.188Z</time></trkpt><trkpt lat="43.8877952" lon="12.4775492"><ele>541.25</ele><time>2026-05-02T13:58:53.181Z</time></trkpt><trkpt lat="43.8878709" lon="12.4774092"><ele>541.5</ele><time>2026-05-02T13:58:54.196Z</time></trkpt><trkpt lat="43.8879722" lon="12.4772792"><ele>541.75</ele><time>2026-05-02T13:58:55.184Z</time></trkpt><trkpt lat="43.8880933" lon="12.4771398"><ele>542.0</ele><time>2026-05-02T13:58:56.191Z</time></trkpt><trkpt lat="43.888228" lon="12.4769957"><ele>541.3333333333333</ele><time>2026-05-02T13:58:57.188Z</time></trkpt><trkpt lat="43.8883373" lon="12.476836"><ele>540.6666666666666</ele><time>2026-05-02T13:58:58.185Z</time></trkpt><trkpt lat="43.8884265" lon="12.4766574"><ele>540.0</ele><time>2026-05-02T13:58:59.172Z</time></trkpt><trkpt lat="43.888494" lon="12.4764918"><ele>541.75</ele><time>2026-05-02T13:59:00.18Z</time></trkpt><trkpt lat="43.8885759" lon="12.4763249"><ele>543.5</ele><time>2026-05-02T13:59:01.189Z</time></trkpt><trkpt lat="43.8886783" lon="12.4761928"><ele>545.25</ele><time>2026-05-02T13:59:02.178Z</time></trkpt><trkpt lat="43.8888003" lon="12.4760813"><ele>547.0</ele><time>2026-05-02T13:59:03.18Z</time></trkpt><trkpt lat="43.8889235" lon="12.4759931"><ele>547.0</ele><time>2026-05-02T13:59:04.184Z</time></trkpt><trkpt lat="43.88906" lon="12.4759285"><ele>547.0</ele><time>2026-05-02T13:59:05.203Z</time></trkpt><trkpt lat="43.8891801" lon="12.475858"><ele>547.0</ele><time>2026-05-02T13:59:06.194Z</time></trkpt><trkpt lat="43.8893002" lon="12.4757936"><ele>547.0</ele><time>2026-05-02T13:59:07.196Z</time></trkpt><trkpt lat="43.8894168" lon="12.4757227"><ele>548.25</ele><time>2026-05-02T13:59:08.196Z</time></trkpt><trkpt lat="43.8895284" lon="12.4756376"><ele>549.5</ele><time>2026-05-02T13:59:09.186Z</time></trkpt><trkpt lat="43.8896348" lon="12.4755397"><ele>550.75</ele><time>2026-05-02T13:59:10.179Z</time></trkpt><trkpt lat="43.8897423" lon="12.475411"><ele>552.0</ele><time>2026-05-02T13:59:11.192Z</time></trkpt><trkpt lat="43.8898524" lon="12.4752716"><ele>552.0</ele><time>2026-05-02T13:59:12.165Z</time></trkpt><trkpt lat="43.8899693" lon="12.4751213"><ele>552.0</ele><time>2026-05-02T13:59:13.191Z</time></trkpt><trkpt lat="43.8900797" lon="12.4749825"><ele>552.0</ele><time>2026-05-02T13:59:14.187Z</time></trkpt><trkpt lat="43.8901882" lon="12.4748439"><ele>550.0</ele><time>2026-05-02T13:59:15.201Z</time></trkpt><trkpt lat="43.8902887" lon="12.4747183"><ele>548.0</ele><time>2026-05-02T13:59:16.175Z</time></trkpt><trkpt lat="43.8903895" lon="12.4745873"><ele>546.0</ele><time>2026-05-02T13:59:17.201Z</time></trkpt><trkpt lat="43.8904736" lon="12.4744282"><ele>544.0</ele><time>2026-05-02T13:59:18.193Z</time></trkpt><trkpt lat="43.8904988" lon="12.4742363"><ele>544.0</ele><time>2026-05-02T13:59:19.198Z</time></trkpt><trkpt lat="43.8904966" lon="12.4740516"><ele>544.0</ele><time>2026-05-02T13:59:20.201Z</time></trkpt><trkpt lat="43.8904773" lon="12.4738708"><ele>544.0</ele><time>2026-05-02T13:59:21.181Z</time></trkpt><trkpt lat="43.8904692" lon="12.4736957"><ele>544.0</ele><time>2026-05-02T13:59:22.177Z</time></trkpt><trkpt lat="43.8904752" lon="12.4735086"><ele>545.6666666666667</ele><time>2026-05-02T13:59:23.18Z</time></trkpt><trkpt lat="43.8904996" lon="12.4733083"><ele>547.3333333333334</ele><time>2026-05-02T13:59:24.189Z</time></trkpt><trkpt lat="43.8905305" lon="12.4730985"><ele>549.0</ele><time>2026-05-02T13:59:25.195Z</time></trkpt><trkpt lat="43.8905901" lon="12.4728887"><ele>550.75</ele><time>2026-05-02T13:59:26.224Z</time></trkpt><trkpt lat="43.8906609" lon="12.4727048"><ele>552.5</ele><time>2026-05-02T13:59:27.179Z</time></trkpt><trkpt lat="43.8907386" lon="12.4725464"><ele>554.25</ele><time>2026-05-02T13:59:28.176Z</time></trkpt><trkpt lat="43.8908493" lon="12.4724132"><ele>556.0</ele><time>2026-05-02T13:59:29.177Z</time></trkpt><trkpt lat="43.890965" lon="12.4723116"><ele>556.0</ele><time>2026-05-02T13:59:30.174Z</time></trkpt><trkpt lat="43.891098" lon="12.4722326"><ele>556.0</ele><time>2026-05-02T13:59:31.201Z</time></trkpt><trkpt lat="43.8912349" lon="12.4721588"><ele>556.0</ele><time>2026-05-02T13:59:32.166Z</time></trkpt><trkpt lat="43.89137" lon="12.4720951"><ele>556.0</ele><time>2026-05-02T13:59:33.173Z</time></trkpt><trkpt lat="43.8915172" lon="12.4720441"><ele>559.0</ele><time>2026-05-02T13:59:34.173Z</time></trkpt><trkpt lat="43.8916609" lon="12.4720068"><ele>562.0</ele><time>2026-05-02T13:59:35.159Z</time></trkpt><trkpt lat="43.8918018" lon="12.4719987"><ele>565.0</ele><time>2026-05-02T13:59:36.167Z</time></trkpt><trkpt lat="43.8919378" lon="12.4719967"><ele>568.0</ele><time>2026-05-02T13:59:37.177Z</time></trkpt><trkpt lat="43.8920634" lon="12.4719936"><ele>568.0</ele><time>2026-05-02T13:59:38.188Z</time></trkpt><trkpt lat="43.8921751" lon="12.4719566"><ele>568.0</ele><time>2026-05-02T13:59:39.176Z</time></trkpt><trkpt lat="43.8922934" lon="12.4718819"><ele>568.0</ele><time>2026-05-02T13:59:40.168Z</time></trkpt><trkpt lat="43.8924073" lon="12.4718159"><ele>568.0</ele><time>2026-05-02T13:59:41.184Z</time></trkpt><trkpt lat="43.8925229" lon="12.4717922"><ele>567.6</ele><time>2026-05-02T13:59:42.188Z</time></trkpt><trkpt lat="43.8926378" lon="12.471814"><ele>567.1999999999999</ele><time>2026-05-02T13:59:43.18Z</time></trkpt><trkpt lat="43.8927386" lon="12.4718771"><ele>566.8</ele><time>2026-05-02T13:59:44.166Z</time></trkpt><trkpt lat="43.8928338" lon="12.4719573"><ele>566.4</ele><time>2026-05-02T13:59:45.189Z</time></trkpt><trkpt lat="43.8929148" lon="12.4720347"><ele>566.0</ele><time>2026-05-02T13:59:46.183Z</time></trkpt><trkpt lat="43.8930039" lon="12.4720816"><ele>566.0</ele><time>2026-05-02T13:59:47.189Z</time></trkpt><trkpt lat="43.8931119" lon="12.4720893"><ele>566.0</ele><time>2026-05-02T13:59:48.192Z</time></trkpt><trkpt lat="43.8932221" lon="12.4720483"><ele>566.0</ele><time>2026-05-02T13:59:49.179Z</time></trkpt><trkpt lat="43.8933468" lon="12.4719687"><ele>566.0</ele><time>2026-05-02T13:59:50.177Z</time></trkpt><trkpt lat="43.8934716" lon="12.4718942"><ele>564.75</ele><time>2026-05-02T13:59:51.181Z</time></trkpt><trkpt lat="43.8935949" lon="12.4718469"><ele>563.5</ele><time>2026-05-02T13:59:52.174Z</time></trkpt><trkpt lat="43.8937089" lon="12.4718349"><ele>562.25</ele><time>2026-05-02T13:59:53.172Z</time></trkpt><trkpt lat="43.8938281" lon="12.4718337"><ele>561.0</ele><time>2026-05-02T13:59:54.172Z</time></trkpt><trkpt lat="43.8939412" lon="12.4718454"><ele>561.0</ele><time>2026-05-02T13:59:55.174Z</time></trkpt><trkpt lat="43.8940587" lon="12.4718498"><ele>561.0</ele><time>2026-05-02T13:59:56.184Z</time></trkpt><trkpt lat="43.8941769" lon="12.4718387"><ele>561.0</ele><time>2026-05-02T13:59:57.197Z</time></trkpt><trkpt lat="43.8942893" lon="12.4718164"><ele>561.0</ele><time>2026-05-02T13:59:58.175Z</time></trkpt><trkpt lat="43.8943967" lon="12.471779"><ele>559.8</ele><time>2026-05-02T13:59:59.177Z</time></trkpt><trkpt lat="43.8944844" lon="12.4717147"><ele>558.6</ele><time>2026-05-02T14:00:00.179Z</time></trkpt><trkpt lat="43.8945433" lon="12.4716019"><ele>557.4</ele><time>2026-05-02T14:00:01.185Z</time></trkpt><trkpt lat="43.8945853" lon="12.4714461"><ele>556.2</ele><time>2026-05-02T14:00:02.193Z</time></trkpt><trkpt lat="43.8946118" lon="12.4712801"><ele>555.0</ele><time>2026-05-02T14:00:03.201Z</time></trkpt><trkpt lat="43.8946285" lon="12.4711177"><ele>555.0</ele><time>2026-05-02T14:00:04.201Z</time></trkpt><trkpt lat="43.894672" lon="12.4709692"><ele>555.0</ele><time>2026-05-02T14:00:05.197Z</time></trkpt><trkpt lat="43.8947329" lon="12.4708379"><ele>555.0</ele><time>2026-05-02T14:00:06.198Z</time></trkpt><trkpt lat="43.8948244" lon="12.4707379"><ele>555.0</ele><time>2026-05-02T14:00:07.183Z</time></trkpt><trkpt lat="43.8949279" lon="12.4706721"><ele>555.0</ele><time>2026-05-02T14:00:08.186Z</time></trkpt><trkpt lat="43.8950345" lon="12.4706418"><ele>555.0</ele><time>2026-05-02T14:00:09.19Z</time></trkpt><trkpt lat="43.895136" lon="12.4705919"><ele>555.0</ele><time>2026-05-02T14:00:10.183Z</time></trkpt><trkpt lat="43.8952452" lon="12.4705595"><ele>555.0</ele><time>2026-05-02T14:00:11.181Z</time></trkpt><trkpt lat="43.8953611" lon="12.470524"><ele>555.0</ele><time>2026-05-02T14:00:12.201Z</time></trkpt><trkpt lat="43.8954853" lon="12.4704982"><ele>553.0</ele><time>2026-05-02T14:00:13.182Z</time></trkpt><trkpt lat="43.8956185" lon="12.4704922"><ele>551.0</ele><time>2026-05-02T14:00:14.18Z</time></trkpt><trkpt lat="43.8957316" lon="12.4705261"><ele>549.0</ele><time>2026-05-02T14:00:15.181Z</time></trkpt><trkpt lat="43.8958366" lon="12.470569"><ele>547.0</ele><time>2026-05-02T14:00:16.18Z</time></trkpt><trkpt lat="43.8959472" lon="12.4705791"><ele>546.5</ele><time>2026-05-02T14:00:17.172Z</time></trkpt><trkpt lat="43.8960538" lon="12.4705545"><ele>546.0</ele><time>2026-05-02T14:00:18.171Z</time></trkpt><trkpt lat="43.8961662" lon="12.4704847"><ele>545.5</ele><time>2026-05-02T14:00:19.191Z</time></trkpt><trkpt lat="43.8962764" lon="12.4704158"><ele>545.0</ele><time>2026-05-02T14:00:20.177Z</time></trkpt><trkpt lat="43.8963704" lon="12.4703484"><ele>547.4</ele><time>2026-05-02T14:00:21.182Z</time></trkpt><trkpt lat="43.8964582" lon="12.4702826"><ele>549.8</ele><time>2026-05-02T14:00:22.178Z</time></trkpt><trkpt lat="43.8965474" lon="12.4702392"><ele>552.2</ele><time>2026-05-02T14:00:23.193Z</time></trkpt><trkpt lat="43.8966499" lon="12.4702059"><ele>554.6</ele><time>2026-05-02T14:00:24.191Z</time></trkpt><trkpt lat="43.8967465" lon="12.4702041"><ele>557.0</ele><time>2026-05-02T14:00:25.197Z</time></trkpt><trkpt lat="43.8968314" lon="12.4702397"><ele>557.2</ele><time>2026-05-02T14:00:26.198Z</time></trkpt><trkpt lat="43.8969101" lon="12.4703059"><ele>557.4000000000001</ele><time>2026-05-02T14:00:27.202Z</time></trkpt><trkpt lat="43.8969791" lon="12.4704029"><ele>557.5999999999999</ele><time>2026-05-02T14:00:28.178Z</time></trkpt><trkpt lat="43.8970436" lon="12.4705022"><ele>557.8</ele><time>2026-05-02T14:00:29.186Z</time></trkpt><trkpt lat="43.8971149" lon="12.4705986"><ele>558.0</ele><time>2026-05-02T14:00:30.183Z</time></trkpt><trkpt lat="43.8972093" lon="12.4706662"><ele>555.0</ele><time>2026-05-02T14:00:31.193Z</time></trkpt><trkpt lat="43.897311" lon="12.4706983"><ele>552.0</ele><time>2026-05-02T14:00:32.184Z</time></trkpt><trkpt lat="43.8974332" lon="12.4706868"><ele>549.0</ele><time>2026-05-02T14:00:33.178Z</time></trkpt><trkpt lat="43.8975609" lon="12.4706625"><ele>546.0</ele><time>2026-05-02T14:00:34.177Z</time></trkpt><trkpt lat="43.8976916" lon="12.4706396"><ele>545.5</ele><time>2026-05-02T14:00:35.182Z</time></trkpt><trkpt lat="43.8978162" lon="12.4706246"><ele>545.0</ele><time>2026-05-02T14:00:36.201Z</time></trkpt><trkpt lat="43.8979339" lon="12.4706132"><ele>544.5</ele><time>2026-05-02T14:00:37.2Z</time></trkpt><trkpt lat="43.8980521" lon="12.4706056"><ele>544.0</ele><time>2026-05-02T14:00:38.19Z</time></trkpt><trkpt lat="43.8981738" lon="12.4706043"><ele>544.0</ele><time>2026-05-02T14:00:39.193Z</time></trkpt><trkpt lat="43.8983046" lon="12.4706022"><ele>544.0</ele><time>2026-05-02T14:00:40.189Z</time></trkpt><trkpt lat="43.8984328" lon="12.4706098"><ele>544.0</ele><time>2026-05-02T14:00:41.181Z</time></trkpt><trkpt lat="43.8985572" lon="12.4706204"><ele>544.0</ele><time>2026-05-02T14:00:42.172Z</time></trkpt><trkpt lat="43.8986825" lon="12.4706244"><ele>543.75</ele><time>2026-05-02T14:00:43.175Z</time></trkpt><trkpt lat="43.8987992" lon="12.47061"><ele>543.5</ele><time>2026-05-02T14:00:44.172Z</time></trkpt><trkpt lat="43.8989151" lon="12.4705561"><ele>543.25</ele><time>2026-05-02T14:00:45.205Z</time></trkpt><trkpt lat="43.8990231" lon="12.470463"><ele>543.0</ele><time>2026-05-02T14:00:46.196Z</time></trkpt><trkpt lat="43.8991301" lon="12.4703297"><ele>543.0</ele><time>2026-05-02T14:00:47.175Z</time></trkpt><trkpt lat="43.8992385" lon="12.4701894"><ele>543.0</ele><time>2026-05-02T14:00:48.196Z</time></trkpt><trkpt lat="43.8993453" lon="12.4700235"><ele>543.0</ele><time>2026-05-02T14:00:49.202Z</time></trkpt><trkpt lat="43.899454" lon="12.4698602"><ele>542.0</ele><time>2026-05-02T14:00:50.18Z</time></trkpt><trkpt lat="43.899558" lon="12.4697092"><ele>541.0</ele><time>2026-05-02T14:00:51.184Z</time></trkpt><trkpt lat="43.8996617" lon="12.469559"><ele>540.0</ele><time>2026-05-02T14:00:52.193Z</time></trkpt><trkpt lat="43.899752" lon="12.4694186"><ele>539.0</ele><time>2026-05-02T14:00:53.176Z</time></trkpt><trkpt lat="43.8998415" lon="12.4692755"><ele>539.0</ele><time>2026-05-02T14:00:54.163Z</time></trkpt><trkpt lat="43.8999142" lon="12.4691506"><ele>539.0</ele><time>2026-05-02T14:00:55.189Z</time></trkpt><trkpt lat="43.8999677" lon="12.4690191"><ele>539.0</ele><time>2026-05-02T14:00:56.188Z</time></trkpt><trkpt lat="43.8999817" lon="12.4689035"><ele>539.0</ele><time>2026-05-02T14:00:57.181Z</time></trkpt><trkpt lat="43.8999579" lon="12.4687921"><ele>539.0</ele><time>2026-05-02T14:00:58.17Z</time></trkpt><trkpt lat="43.8998873" lon="12.4687035"><ele>539.0</ele><time>2026-05-02T14:00:59.159Z</time></trkpt><trkpt lat="43.8997723" lon="12.4686695"><ele>539.0</ele><time>2026-05-02T14:01:00.168Z</time></trkpt><trkpt lat="43.899644" lon="12.4686984"><ele>539.0</ele><time>2026-05-02T14:01:01.178Z</time></trkpt><trkpt lat="43.8995085" lon="12.468765"><ele>539.0</ele><time>2026-05-02T14:01:02.188Z</time></trkpt><trkpt lat="43.8993845" lon="12.4688507"><ele>539.0</ele><time>2026-05-02T14:01:03.196Z</time></trkpt><trkpt lat="43.8992757" lon="12.4689264"><ele>539.0</ele><time>2026-05-02T14:01:04.198Z</time></trkpt><trkpt lat="43.8991713" lon="12.4689758"><ele>539.0</ele><time>2026-05-02T14:01:05.195Z</time></trkpt><trkpt lat="43.8990708" lon="12.4689802"><ele>539.0</ele><time>2026-05-02T14:01:06.187Z</time></trkpt><trkpt lat="43.8989965" lon="12.4689295"><ele>539.0</ele><time>2026-05-02T14:01:07.188Z</time></trkpt><trkpt lat="43.8989495" lon="12.4688335"><ele>537.0</ele><time>2026-05-02T14:01:08.196Z</time></trkpt><trkpt lat="43.898932" lon="12.4686996"><ele>535.0</ele><time>2026-05-02T14:01:09.196Z</time></trkpt><trkpt lat="43.8989545" lon="12.4685396"><ele>533.0</ele><time>2026-05-02T14:01:10.191Z</time></trkpt><trkpt lat="43.8990174" lon="12.4683676"><ele>531.0</ele><time>2026-05-02T14:01:11.2Z</time></trkpt><trkpt lat="43.899112" lon="12.4681836"><ele>531.0</ele><time>2026-05-02T14:01:12.186Z</time></trkpt><trkpt lat="43.899213" lon="12.4679859"><ele>531.0</ele><time>2026-05-02T14:01:13.192Z</time></trkpt><trkpt lat="43.8993123" lon="12.4677837"><ele>531.0</ele><time>2026-05-02T14:01:14.182Z</time></trkpt><trkpt lat="43.8994196" lon="12.4675959"><ele>531.0</ele><time>2026-05-02T14:01:15.183Z</time></trkpt><trkpt lat="43.899517" lon="12.4674127"><ele>531.0</ele><time>2026-05-02T14:01:16.178Z</time></trkpt><trkpt lat="43.8996156" lon="12.467231"><ele>531.0</ele><time>2026-05-02T14:01:17.193Z</time></trkpt><trkpt lat="43.8997165" lon="12.4670446"><ele>528.0</ele><time>2026-05-02T14:01:18.193Z</time></trkpt><trkpt lat="43.8998138" lon="12.4668494"><ele>525.0</ele><time>2026-05-02T14:01:19.2Z</time></trkpt><trkpt lat="43.8999131" lon="12.4666601"><ele>522.0</ele><time>2026-05-02T14:01:20.194Z</time></trkpt><trkpt lat="43.9000221" lon="12.4664814"><ele>521.3333333333334</ele><time>2026-05-02T14:01:21.202Z</time></trkpt><trkpt lat="43.9001394" lon="12.4663285"><ele>520.6666666666667</ele><time>2026-05-02T14:01:22.184Z</time></trkpt><trkpt lat="43.9002669" lon="12.4662049"><ele>520.0</ele><time>2026-05-02T14:01:23.194Z</time></trkpt><trkpt lat="43.9004073" lon="12.4661228"><ele>517.5</ele><time>2026-05-02T14:01:24.201Z</time></trkpt><trkpt lat="43.9005505" lon="12.4660764"><ele>515.0</ele><time>2026-05-02T14:01:25.193Z</time></trkpt><trkpt lat="43.9006912" lon="12.466036"><ele>512.5</ele><time>2026-05-02T14:01:26.202Z</time></trkpt><trkpt lat="43.90083" lon="12.466036"><ele>510.0</ele><time>2026-05-02T14:01:27.197Z</time></trkpt><trkpt lat="43.900979" lon="12.4660724"><ele>508.0</ele><time>2026-05-02T14:01:28.176Z</time></trkpt><trkpt lat="43.9011242" lon="12.4661442"><ele>506.0</ele><time>2026-05-02T14:01:29.198Z</time></trkpt><trkpt lat="43.9012709" lon="12.4662494"><ele>504.0</ele><time>2026-05-02T14:01:30.18Z</time></trkpt><trkpt lat="43.9014236" lon="12.4663331"><ele>504.0</ele><time>2026-05-02T14:01:31.194Z</time></trkpt><trkpt lat="43.9015874" lon="12.4663923"><ele>504.0</ele><time>2026-05-02T14:01:32.186Z</time></trkpt><trkpt lat="43.9017488" lon="12.4664182"><ele>504.0</ele><time>2026-05-02T14:01:33.208Z</time></trkpt><trkpt lat="43.9019135" lon="12.4664019"><ele>501.66666666666663</ele><time>2026-05-02T14:01:34.196Z</time></trkpt><trkpt lat="43.9020737" lon="12.4663676"><ele>499.3333333333333</ele><time>2026-05-02T14:01:35.2Z</time></trkpt><trkpt lat="43.9022484" lon="12.466326"><ele>497.0</ele><time>2026-05-02T14:01:36.205Z</time></trkpt><trkpt lat="43.9024192" lon="12.4662885"><ele>499.0</ele><time>2026-05-02T14:01:37.172Z</time></trkpt><trkpt lat="43.9025812" lon="12.4662571"><ele>501.0</ele><time>2026-05-02T14:01:38.202Z</time></trkpt><trkpt lat="43.9027346" lon="12.4662348"><ele>503.0</ele><time>2026-05-02T14:01:39.209Z</time></trkpt><trkpt lat="43.9028819" lon="12.4662029"><ele>503.0</ele><time>2026-05-02T14:01:40.205Z</time></trkpt><trkpt lat="43.9030286" lon="12.466168"><ele>503.0</ele><time>2026-05-02T14:01:41.19Z</time></trkpt><trkpt lat="43.903183" lon="12.4661345"><ele>503.0</ele><time>2026-05-02T14:01:42.188Z</time></trkpt><trkpt lat="43.9033348" lon="12.466099"><ele>503.3333333333333</ele><time>2026-05-02T14:01:43.196Z</time></trkpt><trkpt lat="43.9034839" lon="12.4660668"><ele>503.66666666666663</ele><time>2026-05-02T14:01:44.178Z</time></trkpt><trkpt lat="43.9036313" lon="12.466024"><ele>504.0</ele><time>2026-05-02T14:01:45.169Z</time></trkpt><trkpt lat="43.9037863" lon="12.4659549"><ele>504.0</ele><time>2026-05-02T14:01:46.202Z</time></trkpt><trkpt lat="43.903945" lon="12.4658524"><ele>504.0</ele><time>2026-05-02T14:01:47.189Z</time></trkpt><trkpt lat="43.9041089" lon="12.4657391"><ele>504.0</ele><time>2026-05-02T14:01:48.191Z</time></trkpt><trkpt lat="43.9042696" lon="12.465622"><ele>502.66666666666663</ele><time>2026-05-02T14:01:49.193Z</time></trkpt><trkpt lat="43.9044293" lon="12.4655162"><ele>501.3333333333333</ele><time>2026-05-02T14:01:50.2Z</time></trkpt><trkpt lat="43.9045912" lon="12.4654036"><ele>500.0</ele><time>2026-05-02T14:01:51.192Z</time></trkpt><trkpt lat="43.9047577" lon="12.4652942"><ele>500.0</ele><time>2026-05-02T14:01:52.204Z</time></trkpt><trkpt lat="43.9049262" lon="12.4651755"><ele>500.0</ele><time>2026-05-02T14:01:53.186Z</time></trkpt><trkpt lat="43.9050988" lon="12.4650576"><ele>500.0</ele><time>2026-05-02T14:01:54.203Z</time></trkpt><trkpt lat="43.9052694" lon="12.4649379"><ele>500.66666666666663</ele><time>2026-05-02T14:01:55.185Z</time></trkpt><trkpt lat="43.9054381" lon="12.4648256"><ele>501.33333333333337</ele><time>2026-05-02T14:01:56.188Z</time></trkpt><trkpt lat="43.9055967" lon="12.4647181"><ele>502.0</ele><time>2026-05-02T14:01:57.192Z</time></trkpt><trkpt lat="43.9057492" lon="12.4646082"><ele>502.6666666666667</ele><time>2026-05-02T14:01:58.201Z</time></trkpt><trkpt lat="43.9058962" lon="12.4644967"><ele>503.33333333333337</ele><time>2026-05-02T14:01:59.207Z</time></trkpt><trkpt lat="43.9060347" lon="12.4643764"><ele>504.0</ele><time>2026-05-02T14:02:00.185Z</time></trkpt><trkpt lat="43.9061672" lon="12.4642351"><ele>504.0</ele><time>2026-05-02T14:02:01.194Z</time></trkpt><trkpt lat="43.9062968" lon="12.4640927"><ele>504.0</ele><time>2026-05-02T14:02:02.183Z</time></trkpt><trkpt lat="43.9064107" lon="12.4639504"><ele>504.0</ele><time>2026-05-02T14:02:03.169Z</time></trkpt><trkpt lat="43.9065159" lon="12.4637955"><ele>502.0</ele><time>2026-05-02T14:02:04.165Z</time></trkpt><trkpt lat="43.9066089" lon="12.463636"><ele>500.0</ele><time>2026-05-02T14:02:05.182Z</time></trkpt><trkpt lat="43.9067129" lon="12.4634734"><ele>498.0</ele><time>2026-05-02T14:02:06.177Z</time></trkpt><trkpt lat="43.906837" lon="12.4633261"><ele>498.0</ele><time>2026-05-02T14:02:07.199Z</time></trkpt><trkpt lat="43.9069764" lon="12.4632172"><ele>498.0</ele><time>2026-05-02T14:02:08.192Z</time></trkpt><trkpt lat="43.9071215" lon="12.4631441"><ele>498.0</ele><time>2026-05-02T14:02:09.187Z</time></trkpt><trkpt lat="43.9072711" lon="12.4630855"><ele>498.0</ele><time>2026-05-02T14:02:10.198Z</time></trkpt><trkpt lat="43.9074121" lon="12.4630353"><ele>498.0</ele><time>2026-05-02T14:02:11.188Z</time></trkpt><trkpt lat="43.9075512" lon="12.4629885"><ele>498.0</ele><time>2026-05-02T14:02:12.191Z</time></trkpt><trkpt lat="43.9076842" lon="12.4629323"><ele>498.0</ele><time>2026-05-02T14:02:13.184Z</time></trkpt><trkpt lat="43.9078052" lon="12.4628604"><ele>497.0</ele><time>2026-05-02T14:02:14.194Z</time></trkpt><trkpt lat="43.9079154" lon="12.4627824"><ele>496.0</ele><time>2026-05-02T14:02:15.187Z</time></trkpt><trkpt lat="43.908014" lon="12.4626855"><ele>495.0</ele><time>2026-05-02T14:02:16.176Z</time></trkpt><trkpt lat="43.9080961" lon="12.4625718"><ele>494.0</ele><time>2026-05-02T14:02:17.192Z</time></trkpt><trkpt lat="43.9081735" lon="12.4624479"><ele>494.0</ele><time>2026-05-02T14:02:18.19Z</time></trkpt><trkpt lat="43.9082524" lon="12.4623152"><ele>494.0</ele><time>2026-05-02T14:02:19.202Z</time></trkpt><trkpt lat="43.908339" lon="12.4621891"><ele>494.0</ele><time>2026-05-02T14:02:20.209Z</time></trkpt><trkpt lat="43.9084171" lon="12.4620691"><ele>494.0</ele><time>2026-05-02T14:02:21.197Z</time></trkpt><trkpt lat="43.9084953" lon="12.4619542"><ele>492.2</ele><time>2026-05-02T14:02:22.201Z</time></trkpt><trkpt lat="43.9085702" lon="12.4618406"><ele>490.4</ele><time>2026-05-02T14:02:23.182Z</time></trkpt><trkpt lat="43.9086395" lon="12.461729"><ele>488.6</ele><time>2026-05-02T14:02:24.195Z</time></trkpt><trkpt lat="43.9086956" lon="12.4616304"><ele>486.8</ele><time>2026-05-02T14:02:25.187Z</time></trkpt><trkpt lat="43.9087455" lon="12.4615576"><ele>485.0</ele><time>2026-05-02T14:02:26.195Z</time></trkpt><trkpt lat="43.9088293" lon="12.4614459"><ele>485.0</ele><time>2026-05-02T14:02:28.173Z</time></trkpt><trkpt lat="43.9088939" lon="12.4613483"><ele>485.0</ele><time>2026-05-02T14:02:30.199Z</time></trkpt><trkpt lat="43.9089728" lon="12.4612349"><ele>485.0</ele><time>2026-05-02T14:02:32.203Z</time></trkpt><trkpt lat="43.9090138" lon="12.4611371"><ele>485.0</ele><time>2026-05-02T14:02:33.202Z</time></trkpt><trkpt lat="43.9090757" lon="12.4610175"><ele>485.0</ele><time>2026-05-02T14:02:34.195Z</time></trkpt><trkpt lat="43.9091524" lon="12.4608843"><ele>484.25</ele><time>2026-05-02T14:02:35.184Z</time></trkpt><trkpt lat="43.9092452" lon="12.4607591"><ele>483.5</ele><time>2026-05-02T14:02:36.179Z</time></trkpt><trkpt lat="43.9093431" lon="12.4606202"><ele>482.75</ele><time>2026-05-02T14:02:37.193Z</time></trkpt><trkpt lat="43.9094507" lon="12.4604587"><ele>482.0</ele><time>2026-05-02T14:02:38.184Z</time></trkpt><trkpt lat="43.9095557" lon="12.4602964"><ele>485.66666666666663</ele><time>2026-05-02T14:02:39.201Z</time></trkpt><trkpt lat="43.9096587" lon="12.4601315"><ele>489.33333333333337</ele><time>2026-05-02T14:02:40.189Z</time></trkpt><trkpt lat="43.909762" lon="12.4599724"><ele>493.0</ele><time>2026-05-02T14:02:41.184Z</time></trkpt><trkpt lat="43.9098525" lon="12.4598275"><ele>493.0</ele><time>2026-05-02T14:02:42.191Z</time></trkpt><trkpt lat="43.9099455" lon="12.4596919"><ele>493.0</ele><time>2026-05-02T14:02:43.18Z</time></trkpt><trkpt lat="43.9100267" lon="12.4595691"><ele>493.0</ele><time>2026-05-02T14:02:44.177Z</time></trkpt><trkpt lat="43.9101108" lon="12.4594566"><ele>493.0</ele><time>2026-05-02T14:02:45.184Z</time></trkpt><trkpt lat="43.9101807" lon="12.4593682"><ele>492.83333333333337</ele><time>2026-05-02T14:02:46.216Z</time></trkpt><trkpt lat="43.9102499" lon="12.4592972"><ele>492.6666666666667</ele><time>2026-05-02T14:02:47.196Z</time></trkpt><trkpt lat="43.9103187" lon="12.4592394"><ele>492.5</ele><time>2026-05-02T14:02:48.166Z</time></trkpt><trkpt lat="43.9103863" lon="12.4591842"><ele>492.33333333333337</ele><time>2026-05-02T14:02:49.195Z</time></trkpt><trkpt lat="43.9104526" lon="12.4591423"><ele>492.1666666666667</ele><time>2026-05-02T14:02:50.188Z</time></trkpt><trkpt lat="43.9105264" lon="12.4591143"><ele>492.0</ele><time>2026-05-02T14:02:51.195Z</time></trkpt><trkpt lat="43.9105942" lon="12.4590884"><ele>492.0</ele><time>2026-05-02T14:02:52.179Z</time></trkpt><trkpt lat="43.9106654" lon="12.4590698"><ele>492.0</ele><time>2026-05-02T14:02:53.197Z</time></trkpt><trkpt lat="43.9107309" lon="12.4590422"><ele>492.0</ele><time>2026-05-02T14:02:54.199Z</time></trkpt><trkpt lat="43.9108033" lon="12.4590033"><ele>492.0</ele><time>2026-05-02T14:02:55.198Z</time></trkpt><trkpt lat="43.9108779" lon="12.4589641"><ele>492.0</ele><time>2026-05-02T14:02:56.193Z</time></trkpt><trkpt lat="43.9109546" lon="12.4589012"><ele>492.0</ele><time>2026-05-02T14:02:57.199Z</time></trkpt><trkpt lat="43.9110257" lon="12.4588192"><ele>491.5</ele><time>2026-05-02T14:02:58.185Z</time></trkpt><trkpt lat="43.9110933" lon="12.4587469"><ele>491.0</ele><time>2026-05-02T14:02:59.194Z</time></trkpt><trkpt lat="43.911153" lon="12.4586525"><ele>490.5</ele><time>2026-05-02T14:03:00.194Z</time></trkpt><trkpt lat="43.9112" lon="12.4585466"><ele>490.0</ele><time>2026-05-02T14:03:01.195Z</time></trkpt><trkpt lat="43.911238" lon="12.4584331"><ele>489.5</ele><time>2026-05-02T14:03:02.189Z</time></trkpt><trkpt lat="43.9112724" lon="12.4583187"><ele>489.0</ele><time>2026-05-02T14:03:03.194Z</time></trkpt><trkpt lat="43.9113133" lon="12.4582028"><ele>489.0</ele><time>2026-05-02T14:03:04.181Z</time></trkpt><trkpt lat="43.9113461" lon="12.4580827"><ele>489.0</ele><time>2026-05-02T14:03:05.186Z</time></trkpt><trkpt lat="43.9113799" lon="12.45797"><ele>489.0</ele><time>2026-05-02T14:03:06.187Z</time></trkpt><trkpt lat="43.9114181" lon="12.4578543"><ele>489.0</ele><time>2026-05-02T14:03:07.179Z</time></trkpt><trkpt lat="43.911458" lon="12.4577424"><ele>489.0</ele><time>2026-05-02T14:03:08.193Z</time></trkpt><trkpt lat="43.9114968" lon="12.4576429"><ele>489.0</ele><time>2026-05-02T14:03:09.17Z</time></trkpt><trkpt lat="43.9115314" lon="12.4575396"><ele>488.6666666666667</ele><time>2026-05-02T14:03:10.2Z</time></trkpt><trkpt lat="43.9115623" lon="12.4574356"><ele>488.33333333333337</ele><time>2026-05-02T14:03:11.196Z</time></trkpt><trkpt lat="43.9116022" lon="12.4573339"><ele>488.0</ele><time>2026-05-02T14:03:12.182Z</time></trkpt><trkpt lat="43.9116369" lon="12.4572329"><ele>487.6666666666667</ele><time>2026-05-02T14:03:13.182Z</time></trkpt><trkpt lat="43.9116804" lon="12.4571348"><ele>487.33333333333337</ele><time>2026-05-02T14:03:14.196Z</time></trkpt><trkpt lat="43.9117174" lon="12.457034"><ele>487.0</ele><time>2026-05-02T14:03:15.199Z</time></trkpt><trkpt lat="43.9117512" lon="12.456947"><ele>488.00000000000006</ele><time>2026-05-02T14:03:16.173Z</time></trkpt><trkpt lat="43.9117829" lon="12.4568706"><ele>489.0</ele><time>2026-05-02T14:03:17.185Z</time></trkpt><trkpt lat="43.911826" lon="12.4567156"><ele>490.0</ele><time>2026-05-02T14:03:19.177Z</time></trkpt><trkpt lat="43.9118257" lon="12.4566118"><ele>491.0</ele><time>2026-05-02T14:03:20.177Z</time></trkpt><trkpt lat="43.9117989" lon="12.4565085"><ele>492.00000000000006</ele><time>2026-05-02T14:03:21.179Z</time></trkpt><trkpt lat="43.9117488" lon="12.4563844"><ele>493.0</ele><time>2026-05-02T14:03:22.197Z</time></trkpt><trkpt lat="43.9116838" lon="12.4562477"><ele>493.5</ele><time>2026-05-02T14:03:23.191Z</time></trkpt><trkpt lat="43.9116176" lon="12.4560993"><ele>494.0</ele><time>2026-05-02T14:03:24.196Z</time></trkpt><trkpt lat="43.9115534" lon="12.4559393"><ele>494.5</ele><time>2026-05-02T14:03:25.197Z</time></trkpt><trkpt lat="43.9115012" lon="12.455745"><ele>495.0</ele><time>2026-05-02T14:03:26.184Z</time></trkpt><trkpt lat="43.9114381" lon="12.455539"><ele>498.5</ele><time>2026-05-02T14:03:27.197Z</time></trkpt><trkpt lat="43.9113808" lon="12.4553334"><ele>502.0</ele><time>2026-05-02T14:03:28.162Z</time></trkpt><trkpt lat="43.9113403" lon="12.4551416"><ele>505.5</ele><time>2026-05-02T14:03:29.174Z</time></trkpt><trkpt lat="43.9113198" lon="12.4549506"><ele>509.0</ele><time>2026-05-02T14:03:30.173Z</time></trkpt><trkpt lat="43.9113044" lon="12.4547517"><ele>513.3333333333333</ele><time>2026-05-02T14:03:31.183Z</time></trkpt><trkpt lat="43.9112775" lon="12.4545445"><ele>517.6666666666666</ele><time>2026-05-02T14:03:32.177Z</time></trkpt><trkpt lat="43.9112333" lon="12.4543435"><ele>522.0</ele><time>2026-05-02T14:03:33.18Z</time></trkpt><trkpt lat="43.9111584" lon="12.4541454"><ele>522.0</ele><time>2026-05-02T14:03:34.178Z</time></trkpt><trkpt lat="43.9110637" lon="12.4539335"><ele>522.0</ele><time>2026-05-02T14:03:35.185Z</time></trkpt><trkpt lat="43.9109654" lon="12.4537247"><ele>522.0</ele><time>2026-05-02T14:03:36.163Z</time></trkpt><trkpt lat="43.9108579" lon="12.4535111"><ele>518.6666666666666</ele><time>2026-05-02T14:03:37.192Z</time></trkpt><trkpt lat="43.9107615" lon="12.4532983"><ele>515.3333333333333</ele><time>2026-05-02T14:03:38.179Z</time></trkpt><trkpt lat="43.910682" lon="12.4531038"><ele>512.0</ele><time>2026-05-02T14:03:39.189Z</time></trkpt><trkpt lat="43.9106058" lon="12.4529184"><ele>512.0</ele><time>2026-05-02T14:03:40.195Z</time></trkpt><trkpt lat="43.9105489" lon="12.4527196"><ele>512.0</ele><time>2026-05-02T14:03:41.19Z</time></trkpt><trkpt lat="43.9104924" lon="12.4525162"><ele>512.0</ele><time>2026-05-02T14:03:42.188Z</time></trkpt><trkpt lat="43.9104563" lon="12.4523251"><ele>512.0</ele><time>2026-05-02T14:03:43.183Z</time></trkpt><trkpt lat="43.9104365" lon="12.452144"><ele>512.0</ele><time>2026-05-02T14:03:44.187Z</time></trkpt><trkpt lat="43.9104342" lon="12.4519806"><ele>512.0</ele><time>2026-05-02T14:03:45.185Z</time></trkpt><trkpt lat="43.9104787" lon="12.4518448"><ele>512.0</ele><time>2026-05-02T14:03:46.186Z</time></trkpt><trkpt lat="43.9105548" lon="12.4517211"><ele>512.75</ele><time>2026-05-02T14:03:47.192Z</time></trkpt><trkpt lat="43.9106568" lon="12.4516643"><ele>513.5</ele><time>2026-05-02T14:03:48.163Z</time></trkpt><trkpt lat="43.9107543" lon="12.4516571"><ele>514.25</ele><time>2026-05-02T14:03:49.157Z</time></trkpt><trkpt lat="43.9108775" lon="12.4516923"><ele>515.0</ele><time>2026-05-02T14:03:50.237Z</time></trkpt><trkpt lat="43.9109953" lon="12.4517385"><ele>516.5</ele><time>2026-05-02T14:03:51.164Z</time></trkpt><trkpt lat="43.911126" lon="12.4517945"><ele>518.0</ele><time>2026-05-02T14:03:52.186Z</time></trkpt><trkpt lat="43.9112572" lon="12.4518326"><ele>519.5</ele><time>2026-05-02T14:03:53.169Z</time></trkpt><trkpt lat="43.911373" lon="12.4518653"><ele>521.0</ele><time>2026-05-02T14:03:54.166Z</time></trkpt><trkpt lat="43.91151" lon="12.4519041"><ele>521.0</ele><time>2026-05-02T14:03:55.158Z</time></trkpt><trkpt lat="43.911646" lon="12.4519471"><ele>521.0</ele><time>2026-05-02T14:03:56.161Z</time></trkpt><trkpt lat="43.9117887" lon="12.4520018"><ele>521.0</ele><time>2026-05-02T14:03:57.16Z</time></trkpt><trkpt lat="43.911923" lon="12.4520456"><ele>521.0</ele><time>2026-05-02T14:03:58.161Z</time></trkpt><trkpt lat="43.9120608" lon="12.4520853"><ele>520.75</ele><time>2026-05-02T14:03:59.163Z</time></trkpt><trkpt lat="43.9121997" lon="12.4521326"><ele>520.5</ele><time>2026-05-02T14:04:00.165Z</time></trkpt><trkpt lat="43.9123389" lon="12.452174"><ele>520.25</ele><time>2026-05-02T14:04:01.163Z</time></trkpt><trkpt lat="43.9124711" lon="12.4522114"><ele>520.0</ele><time>2026-05-02T14:04:02.153Z</time></trkpt><trkpt lat="43.9126002" lon="12.45226"><ele>520.0</ele><time>2026-05-02T14:04:03.153Z</time></trkpt><trkpt lat="43.9127279" lon="12.4523058"><ele>520.0</ele><time>2026-05-02T14:04:04.157Z</time></trkpt><trkpt lat="43.9128554" lon="12.4523424"><ele>520.0</ele><time>2026-05-02T14:04:05.162Z</time></trkpt><trkpt lat="43.912982" lon="12.4523813"><ele>520.0</ele><time>2026-05-02T14:04:06.163Z</time></trkpt><trkpt lat="43.9131039" lon="12.4524261"><ele>520.0</ele><time>2026-05-02T14:04:07.159Z</time></trkpt><trkpt lat="43.913221" lon="12.4524725"><ele>520.0</ele><time>2026-05-02T14:04:08.16Z</time></trkpt><trkpt lat="43.9133278" lon="12.4525294"><ele>520.0</ele><time>2026-05-02T14:04:09.165Z</time></trkpt><trkpt lat="43.9134336" lon="12.4525971"><ele>520.0</ele><time>2026-05-02T14:04:10.161Z</time></trkpt><trkpt lat="43.9135417" lon="12.4526748"><ele>521.5</ele><time>2026-05-02T14:04:11.161Z</time></trkpt><trkpt lat="43.9136474" lon="12.4527531"><ele>523.0</ele><time>2026-05-02T14:04:12.174Z</time></trkpt><trkpt lat="43.9137458" lon="12.452838"><ele>524.5</ele><time>2026-05-02T14:04:13.187Z</time></trkpt><trkpt lat="43.9138445" lon="12.452923"><ele>526.0</ele><time>2026-05-02T14:04:14.166Z</time></trkpt><trkpt lat="43.9139482" lon="12.4530101"><ele>526.0</ele><time>2026-05-02T14:04:15.176Z</time></trkpt><trkpt lat="43.9140529" lon="12.4531038"><ele>526.0</ele><time>2026-05-02T14:04:16.174Z</time></trkpt><trkpt lat="43.9141671" lon="12.4531941"><ele>526.0</ele><time>2026-05-02T14:04:17.176Z</time></trkpt><trkpt lat="43.914281" lon="12.4532924"><ele>526.0</ele><time>2026-05-02T14:04:18.164Z</time></trkpt><trkpt lat="43.9144023" lon="12.4533863"><ele>522.5</ele><time>2026-05-02T14:04:19.171Z</time></trkpt><trkpt lat="43.9145239" lon="12.4534749"><ele>519.0</ele><time>2026-05-02T14:04:20.158Z</time></trkpt><trkpt lat="43.9146431" lon="12.4535653"><ele>515.5</ele><time>2026-05-02T14:04:21.163Z</time></trkpt><trkpt lat="43.9147729" lon="12.4536403"><ele>512.0</ele><time>2026-05-02T14:04:22.177Z</time></trkpt><trkpt lat="43.914918" lon="12.4537183"><ele>515.3333333333333</ele><time>2026-05-02T14:04:23.208Z</time></trkpt><trkpt lat="43.9150694" lon="12.4538014"><ele>518.6666666666666</ele><time>2026-05-02T14:04:24.158Z</time></trkpt><trkpt lat="43.9152124" lon="12.4538775"><ele>522.0</ele><time>2026-05-02T14:04:25.156Z</time></trkpt><trkpt lat="43.9153527" lon="12.4539457"><ele>522.0</ele><time>2026-05-02T14:04:26.156Z</time></trkpt><trkpt lat="43.9154969" lon="12.4540094"><ele>522.0</ele><time>2026-05-02T14:04:27.154Z</time></trkpt><trkpt lat="43.9156386" lon="12.4540848"><ele>522.0</ele><time>2026-05-02T14:04:28.17Z</time></trkpt><trkpt lat="43.9157805" lon="12.4541456"><ele>520.75</ele><time>2026-05-02T14:04:29.152Z</time></trkpt><trkpt lat="43.9159184" lon="12.4542153"><ele>519.5</ele><time>2026-05-02T14:04:30.186Z</time></trkpt><trkpt lat="43.916046" lon="12.4542725"><ele>518.25</ele><time>2026-05-02T14:04:31.174Z</time></trkpt><trkpt lat="43.9161616" lon="12.4543322"><ele>517.0</ele><time>2026-05-02T14:04:32.179Z</time></trkpt><trkpt lat="43.9162788" lon="12.4543859"><ele>517.0</ele><time>2026-05-02T14:04:33.167Z</time></trkpt><trkpt lat="43.9164061" lon="12.4544034"><ele>517.0</ele><time>2026-05-02T14:04:34.195Z</time></trkpt><trkpt lat="43.9165355" lon="12.4544148"><ele>517.0</ele><time>2026-05-02T14:04:35.17Z</time></trkpt><trkpt lat="43.916657" lon="12.45439"><ele>517.0</ele><time>2026-05-02T14:04:36.182Z</time></trkpt><trkpt lat="43.9167844" lon="12.454323"><ele>517.2</ele><time>2026-05-02T14:04:37.176Z</time></trkpt><trkpt lat="43.9168913" lon="12.4542347"><ele>517.4000000000001</ele><time>2026-05-02T14:04:38.173Z</time></trkpt><trkpt lat="43.916984" lon="12.4541469"><ele>517.5999999999999</ele><time>2026-05-02T14:04:39.164Z</time></trkpt><trkpt lat="43.9170714" lon="12.4540616"><ele>517.8</ele><time>2026-05-02T14:04:40.162Z</time></trkpt><trkpt lat="43.9171499" lon="12.453977"><ele>518.0</ele><time>2026-05-02T14:04:41.17Z</time></trkpt><trkpt lat="43.9172264" lon="12.4538934"><ele>518.0</ele><time>2026-05-02T14:04:42.155Z</time></trkpt><trkpt lat="43.9173123" lon="12.453805"><ele>518.0</ele><time>2026-05-02T14:04:43.177Z</time></trkpt><trkpt lat="43.9174006" lon="12.4537057"><ele>518.0</ele><time>2026-05-02T14:04:44.2Z</time></trkpt><trkpt lat="43.9174995" lon="12.4536089"><ele>518.0</ele><time>2026-05-02T14:04:45.18Z</time></trkpt><trkpt lat="43.9175951" lon="12.4535116"><ele>518.5</ele><time>2026-05-02T14:04:46.175Z</time></trkpt><trkpt lat="43.9176903" lon="12.4534141"><ele>519.0</ele><time>2026-05-02T14:04:47.193Z</time></trkpt><trkpt lat="43.91779" lon="12.453318"><ele>519.5</ele><time>2026-05-02T14:04:48.197Z</time></trkpt><trkpt lat="43.9178966" lon="12.4532156"><ele>520.0</ele><time>2026-05-02T14:04:49.183Z</time></trkpt><trkpt lat="43.9180103" lon="12.4531202"><ele>520.0</ele><time>2026-05-02T14:04:50.197Z</time></trkpt><trkpt lat="43.9181269" lon="12.4530292"><ele>520.0</ele><time>2026-05-02T14:04:51.196Z</time></trkpt><trkpt lat="43.9182513" lon="12.4529607"><ele>520.0</ele><time>2026-05-02T14:04:52.168Z</time></trkpt><trkpt lat="43.9183792" lon="12.452911"><ele>520.0</ele><time>2026-05-02T14:04:53.192Z</time></trkpt><trkpt lat="43.9185053" lon="12.4528837"><ele>524.75</ele><time>2026-05-02T14:04:54.182Z</time></trkpt><trkpt lat="43.9186303" lon="12.4528548"><ele>529.5</ele><time>2026-05-02T14:04:55.182Z</time></trkpt><trkpt lat="43.9187502" lon="12.4528351"><ele>534.25</ele><time>2026-05-02T14:04:56.172Z</time></trkpt><trkpt lat="43.9188702" lon="12.4528152"><ele>539.0</ele><time>2026-05-02T14:04:57.182Z</time></trkpt><trkpt lat="43.9189824" lon="12.4527982"><ele>539.0</ele><time>2026-05-02T14:04:58.199Z</time></trkpt><trkpt lat="43.9190933" lon="12.4527687"><ele>539.0</ele><time>2026-05-02T14:04:59.165Z</time></trkpt><trkpt lat="43.9192065" lon="12.4527429"><ele>539.0</ele><time>2026-05-02T14:05:00.194Z</time></trkpt><trkpt lat="43.9193153" lon="12.45272"><ele>539.0</ele><time>2026-05-02T14:05:01.176Z</time></trkpt><trkpt lat="43.9194272" lon="12.4526964"><ele>539.0</ele><time>2026-05-02T14:05:02.191Z</time></trkpt><trkpt lat="43.9195456" lon="12.4526915"><ele>539.0</ele><time>2026-05-02T14:05:03.19Z</time></trkpt><trkpt lat="43.9196604" lon="12.4526913"><ele>539.0</ele><time>2026-05-02T14:05:04.191Z</time></trkpt><trkpt lat="43.9197601" lon="12.4526985"><ele>539.0</ele><time>2026-05-02T14:05:05.204Z</time></trkpt><trkpt lat="43.9198453" lon="12.4527137"><ele>539.0</ele><time>2026-05-02T14:05:06.187Z</time></trkpt><trkpt lat="43.9199207" lon="12.4527351"><ele>539.0</ele><time>2026-05-02T14:05:07.177Z</time></trkpt><trkpt lat="43.9199825" lon="12.4527574"><ele>539.0</ele><time>2026-05-02T14:05:08.203Z</time></trkpt><trkpt lat="43.9200439" lon="12.4527973"><ele>539.0</ele><time>2026-05-02T14:05:10.187Z</time></trkpt><trkpt lat="43.920124" lon="12.4528624"><ele>539.0</ele><time>2026-05-02T14:05:19.186Z</time></trkpt><trkpt lat="43.9202452" lon="12.4528517"><ele>539.0</ele><time>2026-05-02T14:05:21.176Z</time></trkpt><trkpt lat="43.9203326" lon="12.4527947"><ele>539.0</ele><time>2026-05-02T14:05:23.19Z</time></trkpt><trkpt lat="43.9203789" lon="12.4526719"><ele>539.8</ele><time>2026-05-02T14:05:25.177Z</time></trkpt><trkpt lat="43.9203547" lon="12.4525489"><ele>540.5999999999999</ele><time>2026-05-02T14:05:27.173Z</time></trkpt><trkpt lat="43.9203001" lon="12.4524767"><ele>541.4</ele><time>2026-05-02T14:05:29.169Z</time></trkpt><trkpt lat="43.9202103" lon="12.4524924"><ele>542.1999999999999</ele><time>2026-05-02T14:05:31.182Z</time></trkpt><trkpt lat="43.920124" lon="12.4525808"><ele>543.0</ele><time>2026-05-02T14:05:33.17Z</time></trkpt><trkpt lat="43.9201141" lon="12.4527445"><ele>543.0</ele><time>2026-05-02T14:05:35.176Z</time></trkpt><trkpt lat="43.9201909" lon="12.4528652"><ele>543.0</ele><time>2026-05-02T14:05:37.184Z</time></trkpt><trkpt lat="43.9202658" lon="12.4528591"><ele>543.0</ele><time>2026-05-02T14:05:38.183Z</time></trkpt><trkpt lat="43.9203323" lon="12.4528274"><ele>543.0</ele><time>2026-05-02T14:05:39.183Z</time></trkpt><trkpt lat="43.9203775" lon="12.4527517"><ele>543.0</ele><time>2026-05-02T14:05:40.196Z</time></trkpt><trkpt lat="43.9204059" lon="12.4526638"><ele>543.0</ele><time>2026-05-02T14:05:41.188Z</time></trkpt><trkpt lat="43.920474" lon="12.452537"><ele>543.0</ele><time>2026-05-02T14:05:43.187Z</time></trkpt><trkpt lat="43.9205731" lon="12.4524622"><ele>543.0</ele><time>2026-05-02T14:05:45.205Z</time></trkpt><trkpt lat="43.9207078" lon="12.4523968"><ele>543.0</ele><time>2026-05-02T14:05:47.173Z</time></trkpt><trkpt lat="43.9208065" lon="12.4523732"><ele>543.0</ele><time>2026-05-02T14:05:48.187Z</time></trkpt><trkpt lat="43.920903" lon="12.4523402"><ele>544.6</ele><time>2026-05-02T14:05:49.17Z</time></trkpt><trkpt lat="43.9209948" lon="12.4523128"><ele>546.1999999999999</ele><time>2026-05-02T14:05:50.176Z</time></trkpt><trkpt lat="43.9210955" lon="12.4522743"><ele>547.8</ele><time>2026-05-02T14:05:51.192Z</time></trkpt><trkpt lat="43.9211982" lon="12.4522224"><ele>549.4</ele><time>2026-05-02T14:05:52.198Z</time></trkpt><trkpt lat="43.9213103" lon="12.4521713"><ele>551.0</ele><time>2026-05-02T14:05:53.18Z</time></trkpt><trkpt lat="43.9214335" lon="12.4521027"><ele>551.0</ele><time>2026-05-02T14:05:54.176Z</time></trkpt><trkpt lat="43.9215554" lon="12.4520356"><ele>551.0</ele><time>2026-05-02T14:05:55.185Z</time></trkpt><trkpt lat="43.921678" lon="12.451972"><ele>551.0</ele><time>2026-05-02T14:05:56.195Z</time></trkpt><trkpt lat="43.9218029" lon="12.4519113"><ele>551.0</ele><time>2026-05-02T14:05:57.194Z</time></trkpt><trkpt lat="43.9219298" lon="12.4518525"><ele>552.5</ele><time>2026-05-02T14:05:58.192Z</time></trkpt><trkpt lat="43.9220562" lon="12.4517854"><ele>554.0</ele><time>2026-05-02T14:05:59.165Z</time></trkpt><trkpt lat="43.9221847" lon="12.4517198"><ele>555.5</ele><time>2026-05-02T14:06:00.181Z</time></trkpt><trkpt lat="43.9223102" lon="12.4516628"><ele>557.0</ele><time>2026-05-02T14:06:01.196Z</time></trkpt><trkpt lat="43.922436" lon="12.4516245"><ele>559.25</ele><time>2026-05-02T14:06:02.201Z</time></trkpt><trkpt lat="43.9225681" lon="12.4516072"><ele>561.5</ele><time>2026-05-02T14:06:03.192Z</time></trkpt><trkpt lat="43.9226999" lon="12.4515944"><ele>563.75</ele><time>2026-05-02T14:06:04.188Z</time></trkpt><trkpt lat="43.9228292" lon="12.4515887"><ele>566.0</ele><time>2026-05-02T14:06:05.18Z</time></trkpt><trkpt lat="43.9229528" lon="12.4515855"><ele>566.0</ele><time>2026-05-02T14:06:06.181Z</time></trkpt><trkpt lat="43.9230737" lon="12.4515802"><ele>566.0</ele><time>2026-05-02T14:06:07.184Z</time></trkpt><trkpt lat="43.9232025" lon="12.4515634"><ele>566.0</ele><time>2026-05-02T14:06:08.183Z</time></trkpt><trkpt lat="43.9233328" lon="12.4515508"><ele>566.0</ele><time>2026-05-02T14:06:09.193Z</time></trkpt><trkpt lat="43.9234695" lon="12.4515358"><ele>569.0</ele><time>2026-05-02T14:06:10.192Z</time></trkpt><trkpt lat="43.9236025" lon="12.451513"><ele>572.0</ele><time>2026-05-02T14:06:11.183Z</time></trkpt><trkpt lat="43.9237333" lon="12.4514713"><ele>575.0</ele><time>2026-05-02T14:06:12.183Z</time></trkpt><trkpt lat="43.9238623" lon="12.4514232"><ele>578.0</ele><time>2026-05-02T14:06:13.168Z</time></trkpt><trkpt lat="43.9239827" lon="12.4513713"><ele>578.0</ele><time>2026-05-02T14:06:14.183Z</time></trkpt><trkpt lat="43.9240992" lon="12.4513193"><ele>578.0</ele><time>2026-05-02T14:06:15.179Z</time></trkpt><trkpt lat="43.9242157" lon="12.451276"><ele>578.0</ele><time>2026-05-02T14:06:16.178Z</time></trkpt><trkpt lat="43.9243423" lon="12.4512719"><ele>578.0</ele><time>2026-05-02T14:06:17.184Z</time></trkpt><trkpt lat="43.9244717" lon="12.4512921"><ele>579.25</ele><time>2026-05-02T14:06:18.18Z</time></trkpt><trkpt lat="43.9246081" lon="12.451328"><ele>580.5</ele><time>2026-05-02T14:06:19.177Z</time></trkpt><trkpt lat="43.924742" lon="12.4513792"><ele>581.75</ele><time>2026-05-02T14:06:20.171Z</time></trkpt><trkpt lat="43.9248775" lon="12.4514243"><ele>583.0</ele><time>2026-05-02T14:06:21.182Z</time></trkpt><trkpt lat="43.925007" lon="12.45147"><ele>586.75</ele><time>2026-05-02T14:06:22.182Z</time></trkpt><trkpt lat="43.9251257" lon="12.4515087"><ele>590.5</ele><time>2026-05-02T14:06:23.187Z</time></trkpt><trkpt lat="43.9252458" lon="12.4515303"><ele>594.25</ele><time>2026-05-02T14:06:24.179Z</time></trkpt><trkpt lat="43.9253633" lon="12.4515397"><ele>598.0</ele><time>2026-05-02T14:06:25.204Z</time></trkpt><trkpt lat="43.925479" lon="12.4515096"><ele>598.0</ele><time>2026-05-02T14:06:26.176Z</time></trkpt><trkpt lat="43.9255919" lon="12.4514563"><ele>598.0</ele><time>2026-05-02T14:06:27.176Z</time></trkpt><trkpt lat="43.9256928" lon="12.4513939"><ele>598.0</ele><time>2026-05-02T14:06:28.173Z</time></trkpt><trkpt lat="43.9257903" lon="12.4513291"><ele>598.0</ele><time>2026-05-02T14:06:29.185Z</time></trkpt><trkpt lat="43.9258843" lon="12.4512768"><ele>598.0</ele><time>2026-05-02T14:06:30.176Z</time></trkpt><trkpt lat="43.9259786" lon="12.4512335"><ele>596.6</ele><time>2026-05-02T14:06:31.181Z</time></trkpt><trkpt lat="43.9260647" lon="12.4511805"><ele>595.1999999999999</ele><time>2026-05-02T14:06:32.178Z</time></trkpt><trkpt lat="43.9261541" lon="12.4511259"><ele>593.8</ele><time>2026-05-02T14:06:33.181Z</time></trkpt><trkpt lat="43.9262392" lon="12.4510726"><ele>592.4</ele><time>2026-05-02T14:06:34.179Z</time></trkpt><trkpt lat="43.9263181" lon="12.4510179"><ele>591.0</ele><time>2026-05-02T14:06:35.176Z</time></trkpt><trkpt lat="43.9263908" lon="12.4509674"><ele>591.0</ele><time>2026-05-02T14:06:36.177Z</time></trkpt><trkpt lat="43.92645" lon="12.4509204"><ele>591.0</ele><time>2026-05-02T14:06:37.17Z</time></trkpt><trkpt lat="43.9265523" lon="12.4508522"><ele>591.0</ele><time>2026-05-02T14:06:39.185Z</time></trkpt><trkpt lat="43.9266228" lon="12.4508049"><ele>591.0</ele><time>2026-05-02T14:06:42.179Z</time></trkpt><trkpt lat="43.9266908" lon="12.4507834"><ele>591.0</ele><time>2026-05-02T14:08:06.184Z</time></trkpt><trkpt lat="43.9266359" lon="12.4507396"><ele>591.0</ele><time>2026-05-02T14:15:55.196Z</time></trkpt><trkpt lat="43.9266403" lon="12.4508274"><ele>591.0</ele><time>2026-05-02T14:16:34.192Z</time></trkpt><trkpt lat="43.9266782" lon="12.450754"><ele>591.0</ele><time>2026-05-02T14:20:14.195Z</time></trkpt><trkpt lat="43.9267431" lon="12.4508088"><ele>591.0</ele><time>2026-05-02T14:22:15.177Z</time></trkpt><trkpt lat="43.9267838" lon="12.4509102"><ele>591.0</ele><time>2026-05-02T14:22:16.181Z</time></trkpt><trkpt lat="43.9268566" lon="12.4510251"><ele>591.0</ele><time>2026-05-02T14:22:19.167Z</time></trkpt><trkpt lat="43.9268864" lon="12.451164"><ele>591.0</ele><time>2026-05-02T14:22:22.17Z</time></trkpt><trkpt lat="43.9269458" lon="12.4512623"><ele>602.0</ele><time>2026-05-02T14:22:25.172Z</time></trkpt><trkpt lat="43.9269669" lon="12.4513498"><ele>613.0</ele><time>2026-05-02T14:22:28.173Z</time></trkpt><trkpt lat="43.9267446" lon="12.4507068"><ele>613.0</ele><time>2026-05-02T14:23:25.781Z</time></trkpt></trkseg></trk></gpx>